<?xml version='1.0' encoding='UTF-8'?><gpx version="1.1" creator="JPX - https://github.com/jenetics/jpx" xmlns="http://www.topografix.com/GPX/1/1"><trk><trkseg><trkpt lat="43.68797966732791" lon="10.817297865683532"><ele>28.000000000000004</ele><time>2026-05-01T06:56:58.998Z</time></trkpt><trkpt lat="43.68799093269608" lon="10.81719957102149"><ele>28.0</ele><time>2026-05-01T06:56:59.998Z</time></trkpt><trkpt lat="43.68800221311042" lon="10.817099916482128"><ele>28.0</ele><time>2026-05-01T06:57:00.998Z</time></trkpt><trkpt lat="43.688008360226625" lon="10.81698981725031"><ele>28.0</ele><time>2026-05-01T06:57:01.998Z</time></trkpt><trkpt lat="43.688009618702175" lon="10.8168702960591"><ele>28.000000000000004</ele><time>2026-05-01T06:57:02.998Z</time></trkpt><trkpt lat="43.68801267261509" lon="10.816746473558066"><ele>28.0</ele><time>2026-05-01T06:57:03.998Z</time></trkpt><trkpt lat="43.68801780837274" lon="10.81661547037773"><ele>28.2</ele><time>2026-05-01T06:57:04.998Z</time></trkpt><trkpt lat="43.68801891544594" lon="10.816477615513124"><ele>28.4</ele><time>2026-05-01T06:57:05.998Z</time></trkpt><trkpt lat="43.6880251296069" lon="10.81634849775087"><ele>28.599999999999998</ele><time>2026-05-01T06:57:06.998Z</time></trkpt><trkpt lat="43.688028156994584" lon="10.816224965869655"><ele>28.799999999999997</ele><time>2026-05-01T06:57:07.998Z</time></trkpt><trkpt lat="43.68802984039363" lon="10.816093966422889"><ele>29.0</ele><time>2026-05-01T06:57:08.998Z</time></trkpt><trkpt lat="43.68803209873799" lon="10.815950878992155"><ele>29.2</ele><time>2026-05-01T06:57:09.998Z</time></trkpt><trkpt lat="43.68803502359544" lon="10.815803570592413"><ele>29.4</ele><time>2026-05-01T06:57:11Z</time></trkpt><trkpt lat="43.68804592718358" lon="10.815659804752906"><ele>29.6</ele><time>2026-05-01T06:57:12Z</time></trkpt><trkpt lat="43.68805040768615" lon="10.815507653063271"><ele>29.8</ele><time>2026-05-01T06:57:13Z</time></trkpt><trkpt lat="43.688050172043226" lon="10.815345650528394"><ele>30.0</ele><time>2026-05-01T06:57:14Z</time></trkpt><trkpt lat="43.68805216032314" lon="10.815176888592056"><ele>29.25</ele><time>2026-05-01T06:57:15Z</time></trkpt><trkpt lat="43.688052370993326" lon="10.815008793553371"><ele>28.5</ele><time>2026-05-01T06:57:16Z</time></trkpt><trkpt lat="43.68805441576978" lon="10.814839640416734"><ele>27.75</ele><time>2026-05-01T06:57:17Z</time></trkpt><trkpt lat="43.68805496773106" lon="10.814672408441522"><ele>27.0</ele><time>2026-05-01T06:57:18Z</time></trkpt><trkpt lat="43.68805654520405" lon="10.814505583121628"><ele>27.0</ele><time>2026-05-01T06:57:19Z</time></trkpt><trkpt lat="43.688062090028936" lon="10.814322083194968"><ele>27.0</ele><time>2026-05-01T06:57:20Z</time></trkpt><trkpt lat="43.688064419336314" lon="10.814132997756104"><ele>27.0</ele><time>2026-05-01T06:57:21Z</time></trkpt><trkpt lat="43.68806866558892" lon="10.813941533600447"><ele>27.0</ele><time>2026-05-01T06:57:22Z</time></trkpt><trkpt lat="43.688074088202896" lon="10.813752865924256"><ele>26.5</ele><time>2026-05-01T06:57:23Z</time></trkpt><trkpt lat="43.68807721841585" lon="10.813554068711502"><ele>26.0</ele><time>2026-05-01T06:57:24Z</time></trkpt><trkpt lat="43.6880802011537" lon="10.813351693303444"><ele>25.5</ele><time>2026-05-01T06:57:25Z</time></trkpt><trkpt lat="43.688078621515636" lon="10.813145274086802"><ele>25.0</ele><time>2026-05-01T06:57:26Z</time></trkpt><trkpt lat="43.688079832624744" lon="10.812938313440355"><ele>25.0</ele><time>2026-05-01T06:57:27Z</time></trkpt><trkpt lat="43.688080927683366" lon="10.812731485362274"><ele>25.0</ele><time>2026-05-01T06:57:28Z</time></trkpt><trkpt lat="43.688081491761544" lon="10.812515456144823"><ele>25.0</ele><time>2026-05-01T06:57:29Z</time></trkpt><trkpt lat="43.68808309836087" lon="10.81230605726277"><ele>24.5</ele><time>2026-05-01T06:57:30Z</time></trkpt><trkpt lat="43.68808681410135" lon="10.812105231657828"><ele>24.0</ele><time>2026-05-01T06:57:31Z</time></trkpt><trkpt lat="43.688090172918265" lon="10.811900535329906"><ele>23.5</ele><time>2026-05-01T06:57:32Z</time></trkpt><trkpt lat="43.68809208387095" lon="10.811693787678404"><ele>23.0</ele><time>2026-05-01T06:57:33Z</time></trkpt><trkpt lat="43.68809437612252" lon="10.81148541325003"><ele>23.0</ele><time>2026-05-01T06:57:34Z</time></trkpt><trkpt lat="43.688098270798115" lon="10.811278913646781"><ele>23.0</ele><time>2026-05-01T06:57:35Z</time></trkpt><trkpt lat="43.688102055697925" lon="10.811080982688196"><ele>23.0</ele><time>2026-05-01T06:57:36Z</time></trkpt><trkpt lat="43.688099527169854" lon="10.810879149653017"><ele>23.0</ele><time>2026-05-01T06:57:37Z</time></trkpt><trkpt lat="43.68809776166356" lon="10.810673834506948"><ele>23.75</ele><time>2026-05-01T06:57:38Z</time></trkpt><trkpt lat="43.688099752835726" lon="10.810473865782752"><ele>24.5</ele><time>2026-05-01T06:57:39Z</time></trkpt><trkpt lat="43.688103405960014" lon="10.810276777150825"><ele>25.25</ele><time>2026-05-01T06:57:40Z</time></trkpt><trkpt lat="43.688106396482354" lon="10.810079321018069"><ele>26.0</ele><time>2026-05-01T06:57:41Z</time></trkpt><trkpt lat="43.68810443030943" lon="10.809877426624734"><ele>26.0</ele><time>2026-05-01T06:57:42Z</time></trkpt><trkpt lat="43.688106784199455" lon="10.8096787232633"><ele>26.0</ele><time>2026-05-01T06:57:43Z</time></trkpt><trkpt lat="43.688112465236166" lon="10.809483567953995"><ele>26.0</ele><time>2026-05-01T06:57:44Z</time></trkpt><trkpt lat="43.68811921752479" lon="10.809292597100871"><ele>26.0</ele><time>2026-05-01T06:57:45Z</time></trkpt><trkpt lat="43.68812948377586" lon="10.809108351765698"><ele>26.0</ele><time>2026-05-01T06:57:46Z</time></trkpt><trkpt lat="43.688128557927634" lon="10.808923532907565"><ele>26.0</ele><time>2026-05-01T06:57:47Z</time></trkpt><trkpt lat="43.68812703778768" lon="10.808741378987659"><ele>26.0</ele><time>2026-05-01T06:57:48Z</time></trkpt><trkpt lat="43.688132021559674" lon="10.808584147801003"><ele>26.0</ele><time>2026-05-01T06:57:49Z</time></trkpt><trkpt lat="43.68814142876106" lon="10.808437478195573"><ele>26.0</ele><time>2026-05-01T06:57:50Z</time></trkpt><trkpt lat="43.688142379980114" lon="10.808294779086957"><ele>26.0</ele><time>2026-05-01T06:57:51Z</time></trkpt><trkpt lat="43.68814420231403" lon="10.80816389790834"><ele>26.0</ele><time>2026-05-01T06:57:52Z</time></trkpt><trkpt lat="43.688154368633406" lon="10.80803826616112"><ele>26.0</ele><time>2026-05-01T06:57:53Z</time></trkpt><trkpt lat="43.68815589660378" lon="10.80790581783468"><ele>26.0</ele><time>2026-05-01T06:57:54Z</time></trkpt><trkpt lat="43.68815626273611" lon="10.807758480411842"><ele>25.6</ele><time>2026-05-01T06:57:55Z</time></trkpt><trkpt lat="43.68816348494312" lon="10.807614760239323"><ele>25.200000000000003</ele><time>2026-05-01T06:57:56Z</time></trkpt><trkpt lat="43.68816365121759" lon="10.807466192404593"><ele>24.799999999999997</ele><time>2026-05-01T06:57:57Z</time></trkpt><trkpt lat="43.68816254342183" lon="10.807312227938915"><ele>24.4</ele><time>2026-05-01T06:57:58Z</time></trkpt><trkpt lat="43.68816634715761" lon="10.807155671871419"><ele>24.0</ele><time>2026-05-01T06:57:59Z</time></trkpt><trkpt lat="43.68817283366809" lon="10.806999945156232"><ele>24.0</ele><time>2026-05-01T06:57:59.999Z</time></trkpt><trkpt lat="43.688176356248285" lon="10.806839342036142"><ele>24.0</ele><time>2026-05-01T06:58:00.999Z</time></trkpt><trkpt lat="43.688180919369245" lon="10.806681747845774"><ele>24.0</ele><time>2026-05-01T06:58:01.999Z</time></trkpt><trkpt lat="43.68818416486005" lon="10.806529552696276"><ele>24.0</ele><time>2026-05-01T06:58:02.999Z</time></trkpt><trkpt lat="43.6881871190317" lon="10.806385996816388"><ele>24.0</ele><time>2026-05-01T06:58:03.999Z</time></trkpt><trkpt lat="43.68818956327908" lon="10.806254290410248"><ele>24.0</ele><time>2026-05-01T06:58:04.999Z</time></trkpt><trkpt lat="43.68819310083179" lon="10.806110507647444"><ele>24.0</ele><time>2026-05-01T06:58:05.999Z</time></trkpt><trkpt lat="43.68819702792779" lon="10.805969140014508"><ele>24.0</ele><time>2026-05-01T06:58:06.999Z</time></trkpt><trkpt lat="43.68820203960546" lon="10.80583290929399"><ele>24.0</ele><time>2026-05-01T06:58:07.999Z</time></trkpt><trkpt lat="43.68820702999471" lon="10.805711231424599"><ele>24.0</ele><time>2026-05-01T06:58:08.999Z</time></trkpt><trkpt lat="43.68820840419607" lon="10.805605207186836"><ele>24.2</ele><time>2026-05-01T06:58:09.999Z</time></trkpt><trkpt lat="43.688207048794055" lon="10.805508329946218"><ele>24.4</ele><time>2026-05-01T06:58:10.999Z</time></trkpt><trkpt lat="43.688215945602614" lon="10.805343810921167"><ele>24.6</ele><time>2026-05-01T06:58:12.999Z</time></trkpt><trkpt lat="43.688268164665566" lon="10.805212278203546"><ele>24.8</ele><time>2026-05-01T06:58:14.999Z</time></trkpt><trkpt lat="43.6883430151337" lon="10.80509355635665"><ele>25.0</ele><time>2026-05-01T06:58:16.999Z</time></trkpt><trkpt lat="43.68829781084629" lon="10.804945146616339"><ele>25.000000000000004</ele><time>2026-05-01T06:58:18.999Z</time></trkpt><trkpt lat="43.688275494475" lon="10.804863311634438"><ele>25.0</ele><time>2026-05-01T06:58:19.999Z</time></trkpt><trkpt lat="43.688227344501385" lon="10.804778791968577"><ele>25.0</ele><time>2026-05-01T06:58:20.999Z</time></trkpt><trkpt lat="43.68820809964454" lon="10.804677235073141"><ele>25.0</ele><time>2026-05-01T06:58:21.999Z</time></trkpt><trkpt lat="43.68821857804268" lon="10.80457516056714"><ele>25.000000000000004</ele><time>2026-05-01T06:58:22.999Z</time></trkpt><trkpt lat="43.68822961940627" lon="10.804464160567072"><ele>25.0</ele><time>2026-05-01T06:58:23.999Z</time></trkpt><trkpt lat="43.68823710912864" lon="10.804322118081128"><ele>25.5</ele><time>2026-05-01T06:58:24.999Z</time></trkpt><trkpt lat="43.68824284548749" lon="10.804176388268852"><ele>26.0</ele><time>2026-05-01T06:58:25.999Z</time></trkpt><trkpt lat="43.68824485231722" lon="10.804031354672256"><ele>26.5</ele><time>2026-05-01T06:58:26.999Z</time></trkpt><trkpt lat="43.688242353147096" lon="10.803871251461082"><ele>27.0</ele><time>2026-05-01T06:58:27.999Z</time></trkpt><trkpt lat="43.68824111453576" lon="10.803698372670953"><ele>27.0</ele><time>2026-05-01T06:58:28.999Z</time></trkpt><trkpt lat="43.688241388845434" lon="10.803525366677569"><ele>27.0</ele><time>2026-05-01T06:58:29.999Z</time></trkpt><trkpt lat="43.68824284495769" lon="10.803358524785486"><ele>27.0</ele><time>2026-05-01T06:58:30.999Z</time></trkpt><trkpt lat="43.68824334873017" lon="10.803191061597621"><ele>27.0</ele><time>2026-05-01T06:58:31.999Z</time></trkpt><trkpt lat="43.688243886449044" lon="10.803027725475362"><ele>27.0</ele><time>2026-05-01T06:58:32.999Z</time></trkpt><trkpt lat="43.6882473578465" lon="10.80287080563856"><ele>27.000000000000004</ele><time>2026-05-01T06:58:33.999Z</time></trkpt><trkpt lat="43.68824654175369" lon="10.802719681540399"><ele>27.000000000000004</ele><time>2026-05-01T06:58:34.999Z</time></trkpt><trkpt lat="43.68824897422325" lon="10.802571242641262"><ele>27.0</ele><time>2026-05-01T06:58:35.999Z</time></trkpt><trkpt lat="43.68825030351016" lon="10.802425750084893"><ele>27.0</ele><time>2026-05-01T06:58:36.999Z</time></trkpt><trkpt lat="43.688249721634016" lon="10.802287421274592"><ele>27.0</ele><time>2026-05-01T06:58:37.999Z</time></trkpt><trkpt lat="43.68824631592309" lon="10.802157615128573"><ele>27.000000000000004</ele><time>2026-05-01T06:58:38.999Z</time></trkpt><trkpt lat="43.688239632937695" lon="10.80202539031826"><ele>27.000000000000004</ele><time>2026-05-01T06:58:39.999Z</time></trkpt><trkpt lat="43.68822975999618" lon="10.801887560279905"><ele>27.0</ele><time>2026-05-01T06:58:40.999Z</time></trkpt><trkpt lat="43.688219379743366" lon="10.801739127141149"><ele>27.0</ele><time>2026-05-01T06:58:41.999Z</time></trkpt><trkpt lat="43.688202256696336" lon="10.801585935137508"><ele>27.0</ele><time>2026-05-01T06:58:42.999Z</time></trkpt><trkpt lat="43.68817405512003" lon="10.801428084966592"><ele>27.0</ele><time>2026-05-01T06:58:43.999Z</time></trkpt><trkpt lat="43.688121747928804" lon="10.801267468801916"><ele>27.0</ele><time>2026-05-01T06:58:44.999Z</time></trkpt><trkpt lat="43.688049136202395" lon="10.801111771440503"><ele>27.0</ele><time>2026-05-01T06:58:45.999Z</time></trkpt><trkpt lat="43.68797143636304" lon="10.800964460624957"><ele>26.6</ele><time>2026-05-01T06:58:46.998Z</time></trkpt><trkpt lat="43.68789464599854" lon="10.800827600923252"><ele>26.200000000000003</ele><time>2026-05-01T06:58:47.998Z</time></trkpt><trkpt lat="43.68782436296619" lon="10.800697525294897"><ele>25.8</ele><time>2026-05-01T06:58:48.998Z</time></trkpt><trkpt lat="43.68776490638372" lon="10.80057828789045"><ele>25.4</ele><time>2026-05-01T06:58:49.998Z</time></trkpt><trkpt lat="43.68772192315068" lon="10.800458287783052"><ele>25.0</ele><time>2026-05-01T06:58:50.998Z</time></trkpt><trkpt lat="43.68771556195551" lon="10.800324091385217"><ele>24.75</ele><time>2026-05-01T06:58:51.998Z</time></trkpt><trkpt lat="43.68769062411802" lon="10.800175049405738"><ele>24.5</ele><time>2026-05-01T06:58:52.998Z</time></trkpt><trkpt lat="43.68768078153925" lon="10.800009074284173"><ele>24.25</ele><time>2026-05-01T06:58:53.998Z</time></trkpt><trkpt lat="43.68767250841084" lon="10.799842472451177"><ele>24.0</ele><time>2026-05-01T06:58:54.998Z</time></trkpt><trkpt lat="43.68765815473391" lon="10.79966729709023"><ele>24.0</ele><time>2026-05-01T06:58:55.998Z</time></trkpt><trkpt lat="43.68763351555683" lon="10.79948330547042"><ele>24.0</ele><time>2026-05-01T06:58:56.998Z</time></trkpt><trkpt lat="43.687581911417375" lon="10.79928374653671"><ele>24.0</ele><time>2026-05-01T06:58:57.998Z</time></trkpt><trkpt lat="43.68752694109706" lon="10.799096106634183"><ele>24.0</ele><time>2026-05-01T06:58:58.998Z</time></trkpt><trkpt lat="43.687477539531116" lon="10.798931908545354"><ele>24.25</ele><time>2026-05-01T06:58:59.998Z</time></trkpt><trkpt lat="43.68743413331337" lon="10.79876511969674"><ele>24.5</ele><time>2026-05-01T06:59:00.998Z</time></trkpt><trkpt lat="43.68738830115104" lon="10.798592681853522"><ele>24.75</ele><time>2026-05-01T06:59:01.998Z</time></trkpt><trkpt lat="43.68734163630923" lon="10.798421268501082"><ele>25.0</ele><time>2026-05-01T06:59:02.998Z</time></trkpt><trkpt lat="43.68729914734111" lon="10.798252321680405"><ele>25.0</ele><time>2026-05-01T06:59:03.998Z</time></trkpt><trkpt lat="43.68726172468377" lon="10.798083773665597"><ele>25.0</ele><time>2026-05-01T06:59:04.998Z</time></trkpt><trkpt lat="43.687227183757734" lon="10.797919809679462"><ele>25.0</ele><time>2026-05-01T06:59:05.998Z</time></trkpt><trkpt lat="43.68719362232619" lon="10.797754507999006"><ele>25.0</ele><time>2026-05-01T06:59:06.998Z</time></trkpt><trkpt lat="43.687159265252376" lon="10.797592144087448"><ele>25.0</ele><time>2026-05-01T06:59:07.998Z</time></trkpt><trkpt lat="43.687125304057446" lon="10.797433066571301"><ele>25.0</ele><time>2026-05-01T06:59:08.998Z</time></trkpt><trkpt lat="43.68709537253091" lon="10.797282532696808"><ele>25.0</ele><time>2026-05-01T06:59:09.998Z</time></trkpt><trkpt lat="43.687073078228075" lon="10.797154256735814"><ele>25.0</ele><time>2026-05-01T06:59:10.998Z</time></trkpt><trkpt lat="43.68704747759629" lon="10.797033876968312"><ele>25.0</ele><time>2026-05-01T06:59:11.998Z</time></trkpt><trkpt lat="43.68702723574275" lon="10.796937634031325"><ele>25.000000000000004</ele><time>2026-05-01T06:59:12.998Z</time></trkpt><trkpt lat="43.687009495266814" lon="10.796841864524264"><ele>25.0</ele><time>2026-05-01T06:59:14.998Z</time></trkpt><trkpt lat="43.68699412380775" lon="10.796739424118664"><ele>25.0</ele><time>2026-05-01T06:59:18Z</time></trkpt><trkpt lat="43.6869749714892" lon="10.796565943377285"><ele>25.0</ele><time>2026-05-01T06:59:20Z</time></trkpt><trkpt lat="43.68695716989524" lon="10.796466384591403"><ele>25.000000000000004</ele><time>2026-05-01T06:59:21Z</time></trkpt><trkpt lat="43.686933214647624" lon="10.796352553378373"><ele>25.0</ele><time>2026-05-01T06:59:22Z</time></trkpt><trkpt lat="43.686909331986" lon="10.796228944310172"><ele>25.2</ele><time>2026-05-01T06:59:23Z</time></trkpt><trkpt lat="43.68688626540699" lon="10.796094341144547"><ele>25.4</ele><time>2026-05-01T06:59:24Z</time></trkpt><trkpt lat="43.686860727359786" lon="10.795956369516889"><ele>25.6</ele><time>2026-05-01T06:59:25Z</time></trkpt><trkpt lat="43.68683214363427" lon="10.795813427879347"><ele>25.8</ele><time>2026-05-01T06:59:26Z</time></trkpt><trkpt lat="43.68680360678164" lon="10.79566534774479"><ele>26.0</ele><time>2026-05-01T06:59:27Z</time></trkpt><trkpt lat="43.6867691248928" lon="10.795500552264345"><ele>26.0</ele><time>2026-05-01T06:59:28Z</time></trkpt><trkpt lat="43.686734348513404" lon="10.795322608795281"><ele>26.0</ele><time>2026-05-01T06:59:29Z</time></trkpt><trkpt lat="43.68670228328418" lon="10.795140056642186"><ele>26.0</ele><time>2026-05-01T06:59:30Z</time></trkpt><trkpt lat="43.68667023387639" lon="10.794959723241302"><ele>26.0</ele><time>2026-05-01T06:59:31Z</time></trkpt><trkpt lat="43.68663620229419" lon="10.794791348671202"><ele>26.0</ele><time>2026-05-01T06:59:32Z</time></trkpt><trkpt lat="43.686601189840324" lon="10.794616778095687"><ele>26.0</ele><time>2026-05-01T06:59:33Z</time></trkpt><trkpt lat="43.68656328106124" lon="10.7944342858565"><ele>26.0</ele><time>2026-05-01T06:59:34Z</time></trkpt><trkpt lat="43.686528534724864" lon="10.794247058424718"><ele>26.0</ele><time>2026-05-01T06:59:35Z</time></trkpt><trkpt lat="43.68649129714537" lon="10.794064862768417"><ele>26.0</ele><time>2026-05-01T06:59:36Z</time></trkpt><trkpt lat="43.686459272207486" lon="10.793890209069597"><ele>26.0</ele><time>2026-05-01T06:59:37Z</time></trkpt><trkpt lat="43.68642810719822" lon="10.793723092035096"><ele>26.0</ele><time>2026-05-01T06:59:38Z</time></trkpt><trkpt lat="43.68640087114596" lon="10.793579431010484"><ele>26.0</ele><time>2026-05-01T06:59:39Z</time></trkpt><trkpt lat="43.686381118609816" lon="10.793462563897567"><ele>26.0</ele><time>2026-05-01T06:59:40Z</time></trkpt><trkpt lat="43.686350854349804" lon="10.793334068630493"><ele>26.0</ele><time>2026-05-01T06:59:41Z</time></trkpt><trkpt lat="43.68632098720526" lon="10.793191063261201"><ele>26.0</ele><time>2026-05-01T06:59:42Z</time></trkpt><trkpt lat="43.68628749082111" lon="10.793040752030146"><ele>26.0</ele><time>2026-05-01T06:59:43Z</time></trkpt><trkpt lat="43.68625663806899" lon="10.792885314342488"><ele>26.0</ele><time>2026-05-01T06:59:44Z</time></trkpt><trkpt lat="43.68622664589963" lon="10.792721412811959"><ele>26.5</ele><time>2026-05-01T06:59:45Z</time></trkpt><trkpt lat="43.686197265627285" lon="10.792551903901678"><ele>27.0</ele><time>2026-05-01T06:59:46Z</time></trkpt><trkpt lat="43.686164133444265" lon="10.792386706367916"><ele>27.5</ele><time>2026-05-01T06:59:47Z</time></trkpt><trkpt lat="43.686127799991496" lon="10.792228464896128"><ele>28.0</ele><time>2026-05-01T06:59:48Z</time></trkpt><trkpt lat="43.68609641706408" lon="10.792077341596752"><ele>28.0</ele><time>2026-05-01T06:59:49Z</time></trkpt><trkpt lat="43.686073918086194" lon="10.791929871897722"><ele>27.999999999999996</ele><time>2026-05-01T06:59:50Z</time></trkpt><trkpt lat="43.68607917931624" lon="10.791785719375435"><ele>27.999999999999996</ele><time>2026-05-01T06:59:51Z</time></trkpt><trkpt lat="43.686119089029056" lon="10.791651384337205"><ele>28.0</ele><time>2026-05-01T06:59:52Z</time></trkpt><trkpt lat="43.68618270126819" lon="10.791513472418538"><ele>28.0</ele><time>2026-05-01T06:59:53Z</time></trkpt><trkpt lat="43.68626739900081" lon="10.79138943252288"><ele>28.0</ele><time>2026-05-01T06:59:54Z</time></trkpt><trkpt lat="43.68636036162227" lon="10.791275110102635"><ele>28.0</ele><time>2026-05-01T06:59:55Z</time></trkpt><trkpt lat="43.68645447020382" lon="10.791154032554298"><ele>28.0</ele><time>2026-05-01T06:59:56Z</time></trkpt><trkpt lat="43.6865485267969" lon="10.79103265323573"><ele>28.0</ele><time>2026-05-01T06:59:57Z</time></trkpt><trkpt lat="43.686645742287055" lon="10.79090934313747"><ele>28.25</ele><time>2026-05-01T06:59:57.999Z</time></trkpt><trkpt lat="43.686744046410496" lon="10.790794961157802"><ele>28.5</ele><time>2026-05-01T06:59:58.999Z</time></trkpt><trkpt lat="43.68684266180533" lon="10.790686163185494"><ele>28.75</ele><time>2026-05-01T06:59:59.999Z</time></trkpt><trkpt lat="43.686944309651444" lon="10.790584692320977"><ele>29.0</ele><time>2026-05-01T07:00:00.999Z</time></trkpt><trkpt lat="43.68704567340752" lon="10.790490909060871"><ele>28.6</ele><time>2026-05-01T07:00:01.999Z</time></trkpt><trkpt lat="43.687144903101704" lon="10.790409574061753"><ele>28.2</ele><time>2026-05-01T07:00:02.999Z</time></trkpt><trkpt lat="43.68723312839169" lon="10.790339464359981"><ele>27.800000000000004</ele><time>2026-05-01T07:00:03.999Z</time></trkpt><trkpt lat="43.68729704289287" lon="10.790287779249757"><ele>27.400000000000002</ele><time>2026-05-01T07:00:04.999Z</time></trkpt><trkpt lat="43.68740840793456" lon="10.79021026610313"><ele>27.0</ele><time>2026-05-01T07:00:06.999Z</time></trkpt><trkpt lat="43.687477954470744" lon="10.790153954038649"><ele>27.0</ele><time>2026-05-01T07:00:07.999Z</time></trkpt><trkpt lat="43.68755883465718" lon="10.790076559649703"><ele>27.0</ele><time>2026-05-01T07:00:08.999Z</time></trkpt><trkpt lat="43.68765981157155" lon="10.789999305362313"><ele>27.0</ele><time>2026-05-01T07:00:09.999Z</time></trkpt><trkpt lat="43.68777005176854" lon="10.789919236538173"><ele>27.0</ele><time>2026-05-01T07:00:10.999Z</time></trkpt><trkpt lat="43.687872719570805" lon="10.789822166698528"><ele>27.0</ele><time>2026-05-01T07:00:11.999Z</time></trkpt><trkpt lat="43.68796935895552" lon="10.7897009971275"><ele>27.0</ele><time>2026-05-01T07:00:12.999Z</time></trkpt><trkpt lat="43.688053022631976" lon="10.78955566377125"><ele>27.0</ele><time>2026-05-01T07:00:13.999Z</time></trkpt><trkpt lat="43.68811899077356" lon="10.789392806299775"><ele>27.0</ele><time>2026-05-01T07:00:14.998Z</time></trkpt><trkpt lat="43.688156240745535" lon="10.789208511053815"><ele>27.0</ele><time>2026-05-01T07:00:15.998Z</time></trkpt><trkpt lat="43.68817002384427" lon="10.789015926019626"><ele>27.0</ele><time>2026-05-01T07:00:16.998Z</time></trkpt><trkpt lat="43.688156457515234" lon="10.788820091297557"><ele>27.0</ele><time>2026-05-01T07:00:17.998Z</time></trkpt><trkpt lat="43.68811337062786" lon="10.788618332195032"><ele>27.0</ele><time>2026-05-01T07:00:18.998Z</time></trkpt><trkpt lat="43.688074171534446" lon="10.788416356315233"><ele>27.333333333333336</ele><time>2026-05-01T07:00:19.998Z</time></trkpt><trkpt lat="43.68804609443501" lon="10.788200802097304"><ele>27.666666666666668</ele><time>2026-05-01T07:00:20.998Z</time></trkpt><trkpt lat="43.68802310593176" lon="10.787983645719157"><ele>28.0</ele><time>2026-05-01T07:00:21.998Z</time></trkpt><trkpt lat="43.68800595083749" lon="10.787771446920809"><ele>27.5</ele><time>2026-05-01T07:00:22.998Z</time></trkpt><trkpt lat="43.68799462564666" lon="10.787562541855705"><ele>27.0</ele><time>2026-05-01T07:00:23.998Z</time></trkpt><trkpt lat="43.68798442496286" lon="10.78735937246891"><ele>26.5</ele><time>2026-05-01T07:00:24.998Z</time></trkpt><trkpt lat="43.68797734611633" lon="10.787175505893353"><ele>26.0</ele><time>2026-05-01T07:00:25.998Z</time></trkpt><trkpt lat="43.687972692700534" lon="10.787010705798876"><ele>26.0</ele><time>2026-05-01T07:00:26.998Z</time></trkpt><trkpt lat="43.68796897474916" lon="10.786855569352637"><ele>26.0</ele><time>2026-05-01T07:00:27.998Z</time></trkpt><trkpt lat="43.68796666623826" lon="10.786722527740892"><ele>26.0</ele><time>2026-05-01T07:00:28.998Z</time></trkpt><trkpt lat="43.687966158085295" lon="10.78657685345104"><ele>26.0</ele><time>2026-05-01T07:00:29.998Z</time></trkpt><trkpt lat="43.68796175201913" lon="10.786413422349368"><ele>26.0</ele><time>2026-05-01T07:00:30.998Z</time></trkpt><trkpt lat="43.687956819585544" lon="10.786237288439608"><ele>25.75</ele><time>2026-05-01T07:00:31.998Z</time></trkpt><trkpt lat="43.68795200401486" lon="10.7860485571209"><ele>25.5</ele><time>2026-05-01T07:00:32.998Z</time></trkpt><trkpt lat="43.687945946009854" lon="10.78584641220188"><ele>25.25</ele><time>2026-05-01T07:00:33.998Z</time></trkpt><trkpt lat="43.68793653521217" lon="10.785651733384086"><ele>25.0</ele><time>2026-05-01T07:00:34.998Z</time></trkpt><trkpt lat="43.68791500646128" lon="10.785451792975792"><ele>25.0</ele><time>2026-05-01T07:00:35.998Z</time></trkpt><trkpt lat="43.68787584944765" lon="10.785244497531465"><ele>25.0</ele><time>2026-05-01T07:00:36.998Z</time></trkpt><trkpt lat="43.68782899430989" lon="10.785029601931884"><ele>25.0</ele><time>2026-05-01T07:00:37.998Z</time></trkpt><trkpt lat="43.6877767959068" lon="10.784817693225033"><ele>26.25</ele><time>2026-05-01T07:00:38.998Z</time></trkpt><trkpt lat="43.68772006973507" lon="10.78461361395187"><ele>27.5</ele><time>2026-05-01T07:00:39.998Z</time></trkpt><trkpt lat="43.68766077001228" lon="10.78443425411216"><ele>28.75</ele><time>2026-05-01T07:00:40.998Z</time></trkpt><trkpt lat="43.687602436533744" lon="10.784257814180407"><ele>30.0</ele><time>2026-05-01T07:00:41.998Z</time></trkpt><trkpt lat="43.68753811226694" lon="10.78409294333884"><ele>30.0</ele><time>2026-05-01T07:00:42.998Z</time></trkpt><trkpt lat="43.68745856455988" lon="10.783946295030725"><ele>30.0</ele><time>2026-05-01T07:00:43.998Z</time></trkpt><trkpt lat="43.687364538959066" lon="10.78381258584132"><ele>30.0</ele><time>2026-05-01T07:00:44.998Z</time></trkpt><trkpt lat="43.68726551151396" lon="10.783691228271312"><ele>30.0</ele><time>2026-05-01T07:00:45.998Z</time></trkpt><trkpt lat="43.68716878648433" lon="10.783570743680153"><ele>31.25</ele><time>2026-05-01T07:00:46.998Z</time></trkpt><trkpt lat="43.687074727358834" lon="10.783451113631498"><ele>32.5</ele><time>2026-05-01T07:00:47.998Z</time></trkpt><trkpt lat="43.68698206198416" lon="10.783333850453353"><ele>33.75</ele><time>2026-05-01T07:00:48.998Z</time></trkpt><trkpt lat="43.68689082502107" lon="10.783213663323444"><ele>35.0</ele><time>2026-05-01T07:00:49.998Z</time></trkpt><trkpt lat="43.686800879873076" lon="10.783094951786834"><ele>35.75</ele><time>2026-05-01T07:00:50.998Z</time></trkpt><trkpt lat="43.686707168544835" lon="10.782979064741928"><ele>36.5</ele><time>2026-05-01T07:00:51.998Z</time></trkpt><trkpt lat="43.68661225020536" lon="10.782858728138574"><ele>37.25</ele><time>2026-05-01T07:00:52.998Z</time></trkpt><trkpt lat="43.68651652261876" lon="10.782734777591754"><ele>38.0</ele><time>2026-05-01T07:00:53.998Z</time></trkpt><trkpt lat="43.68641303189409" lon="10.782602018829817"><ele>38.33333333333333</ele><time>2026-05-01T07:00:54.998Z</time></trkpt><trkpt lat="43.68629497480483" lon="10.782464626015978"><ele>38.666666666666664</ele><time>2026-05-01T07:00:55.998Z</time></trkpt><trkpt lat="43.68618164489761" lon="10.782288844279645"><ele>39.0</ele><time>2026-05-01T07:00:56.998Z</time></trkpt><trkpt lat="43.68605265699379" lon="10.782124326337037"><ele>41.0</ele><time>2026-05-01T07:00:57.998Z</time></trkpt><trkpt lat="43.68592412086329" lon="10.781960384655678"><ele>43.0</ele><time>2026-05-01T07:00:58.998Z</time></trkpt><trkpt lat="43.68578625041885" lon="10.781808822886182"><ele>45.0</ele><time>2026-05-01T07:00:59.998Z</time></trkpt><trkpt lat="43.68566306615495" lon="10.781638759805341"><ele>45.0</ele><time>2026-05-01T07:01:00.997Z</time></trkpt><trkpt lat="43.685534658602535" lon="10.78147537266741"><ele>45.0</ele><time>2026-05-01T07:01:01.997Z</time></trkpt><trkpt lat="43.685405798716914" lon="10.781317593613155"><ele>45.0</ele><time>2026-05-01T07:01:02.997Z</time></trkpt><trkpt lat="43.68527798734918" lon="10.781158264478329"><ele>46.0</ele><time>2026-05-01T07:01:03.997Z</time></trkpt><trkpt lat="43.68515291417458" lon="10.780998363191328"><ele>47.0</ele><time>2026-05-01T07:01:04.997Z</time></trkpt><trkpt lat="43.685030482213705" lon="10.780843387591531"><ele>48.0</ele><time>2026-05-01T07:01:05.997Z</time></trkpt><trkpt lat="43.68490641285595" lon="10.780689251353149"><ele>48.0</ele><time>2026-05-01T07:01:06.997Z</time></trkpt><trkpt lat="43.68478636841227" lon="10.780536323530463"><ele>48.0</ele><time>2026-05-01T07:01:07.997Z</time></trkpt><trkpt lat="43.68467612398688" lon="10.780377099707142"><ele>48.0</ele><time>2026-05-01T07:01:08.997Z</time></trkpt><trkpt lat="43.684583509940715" lon="10.780207547643872"><ele>49.33333333333333</ele><time>2026-05-01T07:01:09.997Z</time></trkpt><trkpt lat="43.684520753990135" lon="10.780017589190901"><ele>50.666666666666664</ele><time>2026-05-01T07:01:10.997Z</time></trkpt><trkpt lat="43.68447552099414" lon="10.779814452214394"><ele>52.0</ele><time>2026-05-01T07:01:11.997Z</time></trkpt><trkpt lat="43.68445786140943" lon="10.779600240469454"><ele>52.0</ele><time>2026-05-01T07:01:12.997Z</time></trkpt><trkpt lat="43.68447100295267" lon="10.779381765577863"><ele>52.0</ele><time>2026-05-01T07:01:13.997Z</time></trkpt><trkpt lat="43.68450268529091" lon="10.779161752340597"><ele>52.0</ele><time>2026-05-01T07:01:14.997Z</time></trkpt><trkpt lat="43.684550063839495" lon="10.77893793126709"><ele>53.33333333333333</ele><time>2026-05-01T07:01:15.997Z</time></trkpt><trkpt lat="43.6846047672339" lon="10.778708740442438"><ele>54.66666666666667</ele><time>2026-05-01T07:01:16.997Z</time></trkpt><trkpt lat="43.68466393613695" lon="10.77848703014265"><ele>56.0</ele><time>2026-05-01T07:01:17.997Z</time></trkpt><trkpt lat="43.684724069488375" lon="10.778261535813375"><ele>56.0</ele><time>2026-05-01T07:01:18.997Z</time></trkpt><trkpt lat="43.684785332927085" lon="10.778034131877721"><ele>56.0</ele><time>2026-05-01T07:01:19.997Z</time></trkpt><trkpt lat="43.684849554520056" lon="10.777810717332168"><ele>56.0</ele><time>2026-05-01T07:01:20.997Z</time></trkpt><trkpt lat="43.684923587600515" lon="10.777593669018245"><ele>55.66666666666667</ele><time>2026-05-01T07:01:22Z</time></trkpt><trkpt lat="43.685006540787846" lon="10.777384861498973"><ele>55.33333333333333</ele><time>2026-05-01T07:01:23Z</time></trkpt><trkpt lat="43.685108339771205" lon="10.777196551552711"><ele>55.0</ele><time>2026-05-01T07:01:24Z</time></trkpt><trkpt lat="43.68522013811569" lon="10.777021442171971"><ele>55.0</ele><time>2026-05-01T07:01:25Z</time></trkpt><trkpt lat="43.685332724596186" lon="10.776851677081776"><ele>55.0</ele><time>2026-05-01T07:01:26Z</time></trkpt><trkpt lat="43.68544361925741" lon="10.776681456578272"><ele>55.0</ele><time>2026-05-01T07:01:27Z</time></trkpt><trkpt lat="43.68555164911521" lon="10.776507380993932"><ele>55.0</ele><time>2026-05-01T07:01:28Z</time></trkpt><trkpt lat="43.68565949497852" lon="10.776330772448402"><ele>55.0</ele><time>2026-05-01T07:01:29Z</time></trkpt><trkpt lat="43.68576957460737" lon="10.77615431264254"><ele>55.0</ele><time>2026-05-01T07:01:30Z</time></trkpt><trkpt lat="43.68587825941046" lon="10.775979371516467"><ele>55.0</ele><time>2026-05-01T07:01:31Z</time></trkpt><trkpt lat="43.68598664319772" lon="10.775808451475607"><ele>55.0</ele><time>2026-05-01T07:01:32Z</time></trkpt><trkpt lat="43.68610015425426" lon="10.77563866859365"><ele>55.0</ele><time>2026-05-01T07:01:33Z</time></trkpt><trkpt lat="43.68622849635126" lon="10.775486690393244"><ele>55.0</ele><time>2026-05-01T07:01:34Z</time></trkpt><trkpt lat="43.68637392176348" lon="10.775373535215984"><ele>55.0</ele><time>2026-05-01T07:01:35Z</time></trkpt><trkpt lat="43.68651476370437" lon="10.775272561857298"><ele>55.0</ele><time>2026-05-01T07:01:36Z</time></trkpt><trkpt lat="43.68664341835432" lon="10.775151572349612"><ele>54.666666666666664</ele><time>2026-05-01T07:01:37Z</time></trkpt><trkpt lat="43.686749391959495" lon="10.774998137438343"><ele>54.33333333333333</ele><time>2026-05-01T07:01:38Z</time></trkpt><trkpt lat="43.68683608167137" lon="10.774828468372396"><ele>54.0</ele><time>2026-05-01T07:01:39Z</time></trkpt><trkpt lat="43.68689435991117" lon="10.774639889390949"><ele>53.0</ele><time>2026-05-01T07:01:40Z</time></trkpt><trkpt lat="43.68692765372558" lon="10.774440455397217"><ele>52.0</ele><time>2026-05-01T07:01:41Z</time></trkpt><trkpt lat="43.68693369547513" lon="10.774227502337391"><ele>51.0</ele><time>2026-05-01T07:01:41.999Z</time></trkpt><trkpt lat="43.68690875657711" lon="10.774011877438284"><ele>51.0</ele><time>2026-05-01T07:01:42.999Z</time></trkpt><trkpt lat="43.68686156045273" lon="10.77380275984785"><ele>51.0</ele><time>2026-05-01T07:01:43.999Z</time></trkpt><trkpt lat="43.68680196995791" lon="10.77359057459662"><ele>51.0</ele><time>2026-05-01T07:01:44.999Z</time></trkpt><trkpt lat="43.6867533648148" lon="10.77336563332005"><ele>51.33333333333333</ele><time>2026-05-01T07:01:45.999Z</time></trkpt><trkpt lat="43.68671131851473" lon="10.77313648226557"><ele>51.666666666666664</ele><time>2026-05-01T07:01:46.999Z</time></trkpt><trkpt lat="43.686676844482975" lon="10.772903518539886"><ele>52.0</ele><time>2026-05-01T07:01:47.999Z</time></trkpt><trkpt lat="43.68665252813305" lon="10.772666465865806"><ele>52.0</ele><time>2026-05-01T07:01:48.999Z</time></trkpt><trkpt lat="43.68662932641283" lon="10.77242972687816"><ele>52.0</ele><time>2026-05-01T07:01:49.999Z</time></trkpt><trkpt lat="43.68659840190946" lon="10.772192137428048"><ele>52.0</ele><time>2026-05-01T07:01:50.999Z</time></trkpt><trkpt lat="43.68657312963678" lon="10.77195372213309"><ele>52.0</ele><time>2026-05-01T07:01:51.999Z</time></trkpt><trkpt lat="43.68656683184806" lon="10.771713137745829"><ele>52.0</ele><time>2026-05-01T07:01:52.999Z</time></trkpt><trkpt lat="43.686583125164304" lon="10.77147484250974"><ele>52.0</ele><time>2026-05-01T07:01:53.999Z</time></trkpt><trkpt lat="43.68661986005191" lon="10.771239233214091"><ele>54.33333333333333</ele><time>2026-05-01T07:01:54.999Z</time></trkpt><trkpt lat="43.686677525167354" lon="10.771014871925214"><ele>56.66666666666667</ele><time>2026-05-01T07:01:55.999Z</time></trkpt><trkpt lat="43.68675875800496" lon="10.770806295832914"><ele>59.0</ele><time>2026-05-01T07:01:56.999Z</time></trkpt><trkpt lat="43.68686562089582" lon="10.770613304266076"><ele>58.333333333333336</ele><time>2026-05-01T07:01:57.999Z</time></trkpt><trkpt lat="43.68697189792798" lon="10.770427743403985"><ele>57.66666666666667</ele><time>2026-05-01T07:01:58.999Z</time></trkpt><trkpt lat="43.68706887870856" lon="10.770231380621729"><ele>57.0</ele><time>2026-05-01T07:01:59.999Z</time></trkpt><trkpt lat="43.6871543424648" lon="10.770025081348571"><ele>57.0</ele><time>2026-05-01T07:02:00.999Z</time></trkpt><trkpt lat="43.68723099101683" lon="10.76981819870835"><ele>57.0</ele><time>2026-05-01T07:02:01.999Z</time></trkpt><trkpt lat="43.68730341053156" lon="10.769614016770408"><ele>57.0</ele><time>2026-05-01T07:02:02.999Z</time></trkpt><trkpt lat="43.687371456942095" lon="10.769410810452483"><ele>57.66666666666667</ele><time>2026-05-01T07:02:03.999Z</time></trkpt><trkpt lat="43.68743743856418" lon="10.769216880316593"><ele>58.333333333333336</ele><time>2026-05-01T07:02:04.999Z</time></trkpt><trkpt lat="43.68751529029347" lon="10.769033909854441"><ele>59.0</ele><time>2026-05-01T07:02:05.999Z</time></trkpt><trkpt lat="43.68760263159427" lon="10.768857918517067"><ele>59.0</ele><time>2026-05-01T07:02:06.999Z</time></trkpt><trkpt lat="43.68767941357846" lon="10.768692339288537"><ele>59.0</ele><time>2026-05-01T07:02:07.999Z</time></trkpt><trkpt lat="43.68774533707941" lon="10.768503601283609"><ele>59.0</ele><time>2026-05-01T07:02:08.999Z</time></trkpt><trkpt lat="43.68780124273822" lon="10.768306172283783"><ele>59.0</ele><time>2026-05-01T07:02:09.999Z</time></trkpt><trkpt lat="43.6878440071" lon="10.768117653568293"><ele>58.75</ele><time>2026-05-01T07:02:10.999Z</time></trkpt><trkpt lat="43.687874809980144" lon="10.767924170276011"><ele>58.5</ele><time>2026-05-01T07:02:11.999Z</time></trkpt><trkpt lat="43.68789512932652" lon="10.767725288282714"><ele>58.25</ele><time>2026-05-01T07:02:12.999Z</time></trkpt><trkpt lat="43.68791698325104" lon="10.767523610190725"><ele>58.0</ele><time>2026-05-01T07:02:13.999Z</time></trkpt><trkpt lat="43.687941202409284" lon="10.767327019966896"><ele>58.0</ele><time>2026-05-01T07:02:14.999Z</time></trkpt><trkpt lat="43.687946288327915" lon="10.767124161467562"><ele>58.0</ele><time>2026-05-01T07:02:15.999Z</time></trkpt><trkpt lat="43.68792371528855" lon="10.76691839274508"><ele>58.0</ele><time>2026-05-01T07:02:16.999Z</time></trkpt><trkpt lat="43.68788388953187" lon="10.766716170049344"><ele>58.0</ele><time>2026-05-01T07:02:17.999Z</time></trkpt><trkpt lat="43.68783703703066" lon="10.766522432422647"><ele>58.0</ele><time>2026-05-01T07:02:18.999Z</time></trkpt><trkpt lat="43.687788353904985" lon="10.766337403631152"><ele>58.0</ele><time>2026-05-01T07:02:19.999Z</time></trkpt><trkpt lat="43.68774172279404" lon="10.766150170213908"><ele>58.0</ele><time>2026-05-01T07:02:20.999Z</time></trkpt><trkpt lat="43.68769744348431" lon="10.765959219472794"><ele>58.0</ele><time>2026-05-01T07:02:21.999Z</time></trkpt><trkpt lat="43.68765029074428" lon="10.765763334590853"><ele>58.0</ele><time>2026-05-01T07:02:22.999Z</time></trkpt><trkpt lat="43.68759588976045" lon="10.765567942403129"><ele>58.0</ele><time>2026-05-01T07:02:23.999Z</time></trkpt><trkpt lat="43.68753768184692" lon="10.765366138341085"><ele>58.0</ele><time>2026-05-01T07:02:24.999Z</time></trkpt><trkpt lat="43.68748032300269" lon="10.765162275121208"><ele>58.0</ele><time>2026-05-01T07:02:25.999Z</time></trkpt><trkpt lat="43.68742707836377" lon="10.764966556176955"><ele>58.0</ele><time>2026-05-01T07:02:26.999Z</time></trkpt><trkpt lat="43.68737198194162" lon="10.76477154731968"><ele>58.0</ele><time>2026-05-01T07:02:27.998Z</time></trkpt><trkpt lat="43.687316718553866" lon="10.764576280969816"><ele>58.0</ele><time>2026-05-01T07:02:28.998Z</time></trkpt><trkpt lat="43.687260499009" lon="10.764378621396078"><ele>58.0</ele><time>2026-05-01T07:02:29.998Z</time></trkpt><trkpt lat="43.68720102171325" lon="10.764180333442694"><ele>58.0</ele><time>2026-05-01T07:02:30.998Z</time></trkpt><trkpt lat="43.687140767524525" lon="10.763986084661655"><ele>57.666666666666664</ele><time>2026-05-01T07:02:31.998Z</time></trkpt><trkpt lat="43.687076449377855" lon="10.763796038718864"><ele>57.33333333333333</ele><time>2026-05-01T07:02:32.998Z</time></trkpt><trkpt lat="43.68701199571937" lon="10.763608939902738"><ele>57.0</ele><time>2026-05-01T07:02:33.998Z</time></trkpt><trkpt lat="43.68695700129573" lon="10.763417519445442"><ele>57.33333333333333</ele><time>2026-05-01T07:02:34.998Z</time></trkpt><trkpt lat="43.68692171250118" lon="10.763214731349706"><ele>57.666666666666664</ele><time>2026-05-01T07:02:35.998Z</time></trkpt><trkpt lat="43.68690135354399" lon="10.76300758970769"><ele>58.0</ele><time>2026-05-01T07:02:36.998Z</time></trkpt><trkpt lat="43.686887451187495" lon="10.762799154366796"><ele>57.75</ele><time>2026-05-01T07:02:37.998Z</time></trkpt><trkpt lat="43.68687833532994" lon="10.76259114117959"><ele>57.5</ele><time>2026-05-01T07:02:38.998Z</time></trkpt><trkpt lat="43.686872598298194" lon="10.762386109291933"><ele>57.25</ele><time>2026-05-01T07:02:39.998Z</time></trkpt><trkpt lat="43.68686465218954" lon="10.762182761251267"><ele>57.0</ele><time>2026-05-01T07:02:40.998Z</time></trkpt><trkpt lat="43.686855461645436" lon="10.761979786355745"><ele>57.25</ele><time>2026-05-01T07:02:41.998Z</time></trkpt><trkpt lat="43.6868463712767" lon="10.761776326671239"><ele>57.5</ele><time>2026-05-01T07:02:42.998Z</time></trkpt><trkpt lat="43.68683421193365" lon="10.761575031796081"><ele>57.75</ele><time>2026-05-01T07:02:43.998Z</time></trkpt><trkpt lat="43.68682227173786" lon="10.761371009387402"><ele>58.0</ele><time>2026-05-01T07:02:44.998Z</time></trkpt><trkpt lat="43.686809111247335" lon="10.76116894183566"><ele>57.75</ele><time>2026-05-01T07:02:45.998Z</time></trkpt><trkpt lat="43.68679680327014" lon="10.760965100025087"><ele>57.5</ele><time>2026-05-01T07:02:46.998Z</time></trkpt><trkpt lat="43.686781470776545" lon="10.760766756198379"><ele>57.25</ele><time>2026-05-01T07:02:47.998Z</time></trkpt><trkpt lat="43.68676504407077" lon="10.7605691171605"><ele>57.0</ele><time>2026-05-01T07:02:48.998Z</time></trkpt><trkpt lat="43.68675073443307" lon="10.760368557444297"><ele>56.75</ele><time>2026-05-01T07:02:49.998Z</time></trkpt><trkpt lat="43.6867409825108" lon="10.760166443892505"><ele>56.5</ele><time>2026-05-01T07:02:50.998Z</time></trkpt><trkpt lat="43.686732027046794" lon="10.759962887281988"><ele>56.25</ele><time>2026-05-01T07:02:51.998Z</time></trkpt><trkpt lat="43.686721895419474" lon="10.759763357340482"><ele>56.0</ele><time>2026-05-01T07:02:52.998Z</time></trkpt><trkpt lat="43.68670708072616" lon="10.759559874616182"><ele>56.25</ele><time>2026-05-01T07:02:53.998Z</time></trkpt><trkpt lat="43.68669483064767" lon="10.759364797268333"><ele>56.5</ele><time>2026-05-01T07:02:54.998Z</time></trkpt><trkpt lat="43.68668252374054" lon="10.759186960851146"><ele>56.75</ele><time>2026-05-01T07:02:55.998Z</time></trkpt><trkpt lat="43.68666955691289" lon="10.759016969280928"><ele>57.0</ele><time>2026-05-01T07:02:56.998Z</time></trkpt><trkpt lat="43.6866522629821" lon="10.758845660396632"><ele>57.0</ele><time>2026-05-01T07:02:57.998Z</time></trkpt><trkpt lat="43.68662782933732" lon="10.758667127371059"><ele>57.0</ele><time>2026-05-01T07:02:58.998Z</time></trkpt><trkpt lat="43.68660291869745" lon="10.758491006859906"><ele>57.0</ele><time>2026-05-01T07:02:59.998Z</time></trkpt><trkpt lat="43.68657478983376" lon="10.758321523087336"><ele>57.0</ele><time>2026-05-01T07:03:00.998Z</time></trkpt><trkpt lat="43.68654075353237" lon="10.758148028696567"><ele>56.75</ele><time>2026-05-01T07:03:01.998Z</time></trkpt><trkpt lat="43.686502535149934" lon="10.75797441692287"><ele>56.5</ele><time>2026-05-01T07:03:02.998Z</time></trkpt><trkpt lat="43.6864617796271" lon="10.757804021580325"><ele>56.25</ele><time>2026-05-01T07:03:03.998Z</time></trkpt><trkpt lat="43.68641610764614" lon="10.757636353814643"><ele>56.0</ele><time>2026-05-01T07:03:04.998Z</time></trkpt><trkpt lat="43.686372532852474" lon="10.757467550779898"><ele>55.5</ele><time>2026-05-01T07:03:05.998Z</time></trkpt><trkpt lat="43.68633124459175" lon="10.757294387968539"><ele>55.0</ele><time>2026-05-01T07:03:06.998Z</time></trkpt><trkpt lat="43.6862913222453" lon="10.757117690972871"><ele>54.5</ele><time>2026-05-01T07:03:07.998Z</time></trkpt><trkpt lat="43.68625327399998" lon="10.756939751794626"><ele>54.0</ele><time>2026-05-01T07:03:08.998Z</time></trkpt><trkpt lat="43.68621681630016" lon="10.756756005200524"><ele>53.5</ele><time>2026-05-01T07:03:09.998Z</time></trkpt><trkpt lat="43.68618320736722" lon="10.756580042922817"><ele>53.0</ele><time>2026-05-01T07:03:10.998Z</time></trkpt><trkpt lat="43.68616238459386" lon="10.756393930110447"><ele>52.5</ele><time>2026-05-01T07:03:11.998Z</time></trkpt><trkpt lat="43.68615013825255" lon="10.7562038167484"><ele>52.0</ele><time>2026-05-01T07:03:12.998Z</time></trkpt><trkpt lat="43.686149537516904" lon="10.756011523868933"><ele>51.5</ele><time>2026-05-01T07:03:13.997Z</time></trkpt><trkpt lat="43.68615591900999" lon="10.755823998685202"><ele>51.0</ele><time>2026-05-01T07:03:14.997Z</time></trkpt><trkpt lat="43.686163940027775" lon="10.755652334895187"><ele>50.5</ele><time>2026-05-01T07:03:15.997Z</time></trkpt><trkpt lat="43.686170753648646" lon="10.755472607956422"><ele>50.0</ele><time>2026-05-01T07:03:16.997Z</time></trkpt><trkpt lat="43.68617781717854" lon="10.75528808454106"><ele>50.5</ele><time>2026-05-01T07:03:17.997Z</time></trkpt><trkpt lat="43.686189632573004" lon="10.755101338174647"><ele>51.0</ele><time>2026-05-01T07:03:18.997Z</time></trkpt><trkpt lat="43.68619054230263" lon="10.75490960964187"><ele>51.5</ele><time>2026-05-01T07:03:19.997Z</time></trkpt><trkpt lat="43.68618257923159" lon="10.754716434546662"><ele>52.0</ele><time>2026-05-01T07:03:20.997Z</time></trkpt><trkpt lat="43.686172055461185" lon="10.754522707348915"><ele>52.25</ele><time>2026-05-01T07:03:21.997Z</time></trkpt><trkpt lat="43.686148384926206" lon="10.754335554666405"><ele>52.5</ele><time>2026-05-01T07:03:22.997Z</time></trkpt><trkpt lat="43.68610154424367" lon="10.754145521126079"><ele>52.75</ele><time>2026-05-01T07:03:23.997Z</time></trkpt><trkpt lat="43.68603210073062" lon="10.753962030760222"><ele>53.0</ele><time>2026-05-01T07:03:24.997Z</time></trkpt><trkpt lat="43.685957619892854" lon="10.753785354117017"><ele>52.25</ele><time>2026-05-01T07:03:25.997Z</time></trkpt><trkpt lat="43.68588177807553" lon="10.753614271648035"><ele>51.5</ele><time>2026-05-01T07:03:26.997Z</time></trkpt><trkpt lat="43.68580773781157" lon="10.753445919937173"><ele>50.75</ele><time>2026-05-01T07:03:28Z</time></trkpt><trkpt lat="43.685735999557814" lon="10.75327405916729"><ele>50.0</ele><time>2026-05-01T07:03:29Z</time></trkpt><trkpt lat="43.68566312788489" lon="10.753105838794049"><ele>51.5</ele><time>2026-05-01T07:03:30Z</time></trkpt><trkpt lat="43.685586993772" lon="10.752943205831796"><ele>53.0</ele><time>2026-05-01T07:03:31Z</time></trkpt><trkpt lat="43.685510270828324" lon="10.752779614140294"><ele>54.5</ele><time>2026-05-01T07:03:32Z</time></trkpt><trkpt lat="43.6854270512284" lon="10.752619937412874"><ele>56.0</ele><time>2026-05-01T07:03:33Z</time></trkpt><trkpt lat="43.685331904860035" lon="10.752466643861384"><ele>56.0</ele><time>2026-05-01T07:03:34Z</time></trkpt><trkpt lat="43.685232861464975" lon="10.752319442472867"><ele>56.0</ele><time>2026-05-01T07:03:35Z</time></trkpt><trkpt lat="43.68513444914638" lon="10.752163524633634"><ele>56.0</ele><time>2026-05-01T07:03:36Z</time></trkpt><trkpt lat="43.68504036480563" lon="10.751996048295469"><ele>56.0</ele><time>2026-05-01T07:03:37Z</time></trkpt><trkpt lat="43.68495159205101" lon="10.751815955646938"><ele>56.0</ele><time>2026-05-01T07:03:38Z</time></trkpt><trkpt lat="43.68487279619477" lon="10.751630019614522"><ele>56.0</ele><time>2026-05-01T07:03:39Z</time></trkpt><trkpt lat="43.68479681165704" lon="10.751442281485504"><ele>56.0</ele><time>2026-05-01T07:03:40Z</time></trkpt><trkpt lat="43.68472080786695" lon="10.751250036635948"><ele>56.0</ele><time>2026-05-01T07:03:41Z</time></trkpt><trkpt lat="43.684647368783345" lon="10.751056228841097"><ele>56.0</ele><time>2026-05-01T07:03:42Z</time></trkpt><trkpt lat="43.68457594868575" lon="10.750859253744968"><ele>56.0</ele><time>2026-05-01T07:03:43Z</time></trkpt><trkpt lat="43.684508551244306" lon="10.750657142217126"><ele>55.333333333333336</ele><time>2026-05-01T07:03:44Z</time></trkpt><trkpt lat="43.6844445213751" lon="10.750443219218553"><ele>54.66666666666667</ele><time>2026-05-01T07:03:45Z</time></trkpt><trkpt lat="43.68436874711884" lon="10.750237390016174"><ele>54.0</ele><time>2026-05-01T07:03:46Z</time></trkpt><trkpt lat="43.68427458761057" lon="10.750041091502174"><ele>52.0</ele><time>2026-05-01T07:03:47Z</time></trkpt><trkpt lat="43.68416845524907" lon="10.749859681808164"><ele>50.0</ele><time>2026-05-01T07:03:48Z</time></trkpt><trkpt lat="43.684068718503546" lon="10.749693624926664"><ele>48.0</ele><time>2026-05-01T07:03:49Z</time></trkpt><trkpt lat="43.68397602478314" lon="10.74953026547944"><ele>47.0</ele><time>2026-05-01T07:03:50Z</time></trkpt><trkpt lat="43.683887659253536" lon="10.749353687582396"><ele>46.0</ele><time>2026-05-01T07:03:51Z</time></trkpt><trkpt lat="43.68380914532087" lon="10.749165305038531"><ele>45.0</ele><time>2026-05-01T07:03:52Z</time></trkpt><trkpt lat="43.683731256118456" lon="10.748967910095828"><ele>45.0</ele><time>2026-05-01T07:03:53Z</time></trkpt><trkpt lat="43.68365397079024" lon="10.748760800642954"><ele>45.0</ele><time>2026-05-01T07:03:54Z</time></trkpt><trkpt lat="43.68358080604384" lon="10.748543955349072"><ele>45.0</ele><time>2026-05-01T07:03:55Z</time></trkpt><trkpt lat="43.683515708921625" lon="10.748320895079985"><ele>44.0</ele><time>2026-05-01T07:03:56Z</time></trkpt><trkpt lat="43.683453368620896" lon="10.748095147376844"><ele>43.0</ele><time>2026-05-01T07:03:56.999Z</time></trkpt><trkpt lat="43.68339285540913" lon="10.747871810715521"><ele>42.0</ele><time>2026-05-01T07:03:57.999Z</time></trkpt><trkpt lat="43.683330687789145" lon="10.747647069148247"><ele>41.0</ele><time>2026-05-01T07:03:58.999Z</time></trkpt><trkpt lat="43.6832694565318" lon="10.747422739392228"><ele>40.0</ele><time>2026-05-01T07:03:59.999Z</time></trkpt><trkpt lat="43.68320858263349" lon="10.747200754408494"><ele>39.0</ele><time>2026-05-01T07:04:00.999Z</time></trkpt><trkpt lat="43.683148875321194" lon="10.746978696464057"><ele>37.666666666666664</ele><time>2026-05-01T07:04:01.999Z</time></trkpt><trkpt lat="43.68308906596015" lon="10.746756817357308"><ele>36.33333333333333</ele><time>2026-05-01T07:04:02.999Z</time></trkpt><trkpt lat="43.68302762979232" lon="10.746538521374868"><ele>35.0</ele><time>2026-05-01T07:04:03.999Z</time></trkpt><trkpt lat="43.68296250217763" lon="10.746318237196007"><ele>35.0</ele><time>2026-05-01T07:04:04.999Z</time></trkpt><trkpt lat="43.6828961639711" lon="10.746097362396602"><ele>35.0</ele><time>2026-05-01T07:04:05.999Z</time></trkpt><trkpt lat="43.68282205399577" lon="10.745879158522046"><ele>35.0</ele><time>2026-05-01T07:04:06.999Z</time></trkpt><trkpt lat="43.682735021332505" lon="10.745662955413316"><ele>34.666666666666664</ele><time>2026-05-01T07:04:07.999Z</time></trkpt><trkpt lat="43.682637999030234" lon="10.74545392927943"><ele>34.333333333333336</ele><time>2026-05-01T07:04:08.999Z</time></trkpt><trkpt lat="43.682537224172435" lon="10.745244942724376"><ele>34.0</ele><time>2026-05-01T07:04:09.999Z</time></trkpt><trkpt lat="43.682433501269564" lon="10.74503874759092"><ele>33.333333333333336</ele><time>2026-05-01T07:04:10.999Z</time></trkpt><trkpt lat="43.682326119292924" lon="10.74483944417403"><ele>32.666666666666664</ele><time>2026-05-01T07:04:11.999Z</time></trkpt><trkpt lat="43.682214534214225" lon="10.744641265142738"><ele>32.0</ele><time>2026-05-01T07:04:12.999Z</time></trkpt><trkpt lat="43.682105013901975" lon="10.744445924900015"><ele>30.333333333333332</ele><time>2026-05-01T07:04:13.999Z</time></trkpt><trkpt lat="43.68199006943807" lon="10.744252487120209"><ele>28.666666666666664</ele><time>2026-05-01T07:04:14.999Z</time></trkpt><trkpt lat="43.681867050528304" lon="10.74406244691494"><ele>27.0</ele><time>2026-05-01T07:04:15.999Z</time></trkpt><trkpt lat="43.681736297808676" lon="10.743879793802703"><ele>26.666666666666664</ele><time>2026-05-01T07:04:16.999Z</time></trkpt><trkpt lat="43.68160399256094" lon="10.743695770691902"><ele>26.333333333333332</ele><time>2026-05-01T07:04:17.999Z</time></trkpt><trkpt lat="43.68147395188312" lon="10.743507576536167"><ele>26.0</ele><time>2026-05-01T07:04:18.999Z</time></trkpt><trkpt lat="43.681343450716405" lon="10.743322809136185"><ele>25.0</ele><time>2026-05-01T07:04:19.999Z</time></trkpt><trkpt lat="43.68121215559177" lon="10.74314174231737"><ele>24.0</ele><time>2026-05-01T07:04:20.999Z</time></trkpt><trkpt lat="43.681082673137546" lon="10.74296389575271"><ele>23.0</ele><time>2026-05-01T07:04:21.999Z</time></trkpt><trkpt lat="43.680953960531724" lon="10.74278445798685"><ele>23.666666666666668</ele><time>2026-05-01T07:04:22.999Z</time></trkpt><trkpt lat="43.68082636339927" lon="10.742603307011407"><ele>24.333333333333336</ele><time>2026-05-01T07:04:23.999Z</time></trkpt><trkpt lat="43.6807013013873" lon="10.742423706160322"><ele>25.0</ele><time>2026-05-01T07:04:24.999Z</time></trkpt><trkpt lat="43.68057497398201" lon="10.742244700712055"><ele>25.0</ele><time>2026-05-01T07:04:25.999Z</time></trkpt><trkpt lat="43.680444529223465" lon="10.7420662038263"><ele>25.0</ele><time>2026-05-01T07:04:26.999Z</time></trkpt><trkpt lat="43.68031199851232" lon="10.741887351341724"><ele>25.0</ele><time>2026-05-01T07:04:27.999Z</time></trkpt><trkpt lat="43.68018067268439" lon="10.741706235793025"><ele>24.0</ele><time>2026-05-01T07:04:28.999Z</time></trkpt><trkpt lat="43.68005126749444" lon="10.741522316688048"><ele>23.0</ele><time>2026-05-01T07:04:29.999Z</time></trkpt><trkpt lat="43.67992116747915" lon="10.741343664836492"><ele>22.0</ele><time>2026-05-01T07:04:30.999Z</time></trkpt><trkpt lat="43.67979094325991" lon="10.741166311169353"><ele>23.0</ele><time>2026-05-01T07:04:31.999Z</time></trkpt><trkpt lat="43.67966217150689" lon="10.74099225047094"><ele>24.0</ele><time>2026-05-01T07:04:32.999Z</time></trkpt><trkpt lat="43.679526421764784" lon="10.740834045305325"><ele>25.0</ele><time>2026-05-01T07:04:33.999Z</time></trkpt><trkpt lat="43.67937306522041" lon="10.740701105658337"><ele>26.333333333333336</ele><time>2026-05-01T07:04:34.999Z</time></trkpt><trkpt lat="43.6792131861733" lon="10.7405828418736"><ele>27.666666666666664</ele><time>2026-05-01T07:04:35.999Z</time></trkpt><trkpt lat="43.679053460059826" lon="10.74046818148882"><ele>29.0</ele><time>2026-05-01T07:04:36.999Z</time></trkpt><trkpt lat="43.67889693397337" lon="10.740352627975684"><ele>29.0</ele><time>2026-05-01T07:04:37.999Z</time></trkpt><trkpt lat="43.6787409844905" lon="10.740234612891264"><ele>29.0</ele><time>2026-05-01T07:04:38.999Z</time></trkpt><trkpt lat="43.67858622096057" lon="10.740124541100217"><ele>29.0</ele><time>2026-05-01T07:04:39.999Z</time></trkpt><trkpt lat="43.67843322984002" lon="10.74001658684114"><ele>31.0</ele><time>2026-05-01T07:04:40.999Z</time></trkpt><trkpt lat="43.67828262664947" lon="10.739909030182245"><ele>33.0</ele><time>2026-05-01T07:04:41.999Z</time></trkpt><trkpt lat="43.678132843902205" lon="10.739797929867203"><ele>35.0</ele><time>2026-05-01T07:04:42.998Z</time></trkpt><trkpt lat="43.67798654363222" lon="10.739685450324767"><ele>35.0</ele><time>2026-05-01T07:04:43.998Z</time></trkpt><trkpt lat="43.67784516948124" lon="10.739569916165934"><ele>35.0</ele><time>2026-05-01T07:04:44.998Z</time></trkpt><trkpt lat="43.67770661731577" lon="10.73944585965781"><ele>35.0</ele><time>2026-05-01T07:04:45.998Z</time></trkpt><trkpt lat="43.67757043975948" lon="10.739321165250518"><ele>37.0</ele><time>2026-05-01T07:04:46.998Z</time></trkpt><trkpt lat="43.67743897256919" lon="10.739198170652603"><ele>39.0</ele><time>2026-05-01T07:04:47.998Z</time></trkpt><trkpt lat="43.677313944066476" lon="10.739076973002847"><ele>41.0</ele><time>2026-05-01T07:04:48.998Z</time></trkpt><trkpt lat="43.67719535274886" lon="10.738961294616892"><ele>41.0</ele><time>2026-05-01T07:04:49.998Z</time></trkpt><trkpt lat="43.67708424715656" lon="10.73885754928335"><ele>41.0</ele><time>2026-05-01T07:04:50.998Z</time></trkpt><trkpt lat="43.67698206353043" lon="10.738771447479673"><ele>41.0</ele><time>2026-05-01T07:04:51.998Z</time></trkpt><trkpt lat="43.67688552971957" lon="10.738691172882287"><ele>41.0</ele><time>2026-05-01T07:04:52.998Z</time></trkpt><trkpt lat="43.676795752707356" lon="10.738612228266287"><ele>42.0</ele><time>2026-05-01T07:04:53.998Z</time></trkpt><trkpt lat="43.676710540357575" lon="10.738534935271565"><ele>43.0</ele><time>2026-05-01T07:04:54.998Z</time></trkpt><trkpt lat="43.67662998856126" lon="10.738450823274933"><ele>44.0</ele><time>2026-05-01T07:04:55.998Z</time></trkpt><trkpt lat="43.67656431065695" lon="10.738340959828491"><ele>45.0</ele><time>2026-05-01T07:04:56.998Z</time></trkpt><trkpt lat="43.67651754918001" lon="10.738207611725443"><ele>46.0</ele><time>2026-05-01T07:04:57.998Z</time></trkpt><trkpt lat="43.67650128379153" lon="10.738057551821049"><ele>46.0</ele><time>2026-05-01T07:04:58.998Z</time></trkpt><trkpt lat="43.67651154674756" lon="10.737908263092312"><ele>46.0</ele><time>2026-05-01T07:04:59.998Z</time></trkpt><trkpt lat="43.676536406564836" lon="10.737760236515971"><ele>46.0</ele><time>2026-05-01T07:05:00.998Z</time></trkpt><trkpt lat="43.67656508339975" lon="10.737613048136055"><ele>46.0</ele><time>2026-05-01T07:05:01.998Z</time></trkpt><trkpt lat="43.67658652127182" lon="10.73745166515357"><ele>46.0</ele><time>2026-05-01T07:05:02.998Z</time></trkpt><trkpt lat="43.6766025574565" lon="10.737289114096507"><ele>45.5</ele><time>2026-05-01T07:05:03.998Z</time></trkpt><trkpt lat="43.67661355582313" lon="10.737126872857692"><ele>45.0</ele><time>2026-05-01T07:05:04.998Z</time></trkpt><trkpt lat="43.67661792964547" lon="10.736969050156558"><ele>44.5</ele><time>2026-05-01T07:05:05.998Z</time></trkpt><trkpt lat="43.67661655572923" lon="10.736813023841147"><ele>44.0</ele><time>2026-05-01T07:05:06.998Z</time></trkpt><trkpt lat="43.67661213213703" lon="10.736659322560667"><ele>43.800000000000004</ele><time>2026-05-01T07:05:07.998Z</time></trkpt><trkpt lat="43.67660418237307" lon="10.736507767057589"><ele>43.6</ele><time>2026-05-01T07:05:08.998Z</time></trkpt><trkpt lat="43.67659472634915" lon="10.736361038384636"><ele>43.4</ele><time>2026-05-01T07:05:09.998Z</time></trkpt><trkpt lat="43.67658538281885" lon="10.736213080170385"><ele>43.2</ele><time>2026-05-01T07:05:10.998Z</time></trkpt><trkpt lat="43.67656729726171" lon="10.736059093700057"><ele>43.0</ele><time>2026-05-01T07:05:11.998Z</time></trkpt><trkpt lat="43.67653648347427" lon="10.735901925177519"><ele>43.0</ele><time>2026-05-01T07:05:12.998Z</time></trkpt><trkpt lat="43.67651241436323" lon="10.73574070818632"><ele>43.0</ele><time>2026-05-01T07:05:13.998Z</time></trkpt><trkpt lat="43.67648941145457" lon="10.735581454028525"><ele>43.0</ele><time>2026-05-01T07:05:14.998Z</time></trkpt><trkpt lat="43.676458273793315" lon="10.735419374253025"><ele>43.0</ele><time>2026-05-01T07:05:15.998Z</time></trkpt><trkpt lat="43.67642269867429" lon="10.735255394343058"><ele>43.0</ele><time>2026-05-01T07:05:16.998Z</time></trkpt><trkpt lat="43.67639127806812" lon="10.735093680779457"><ele>43.0</ele><time>2026-05-01T07:05:17.998Z</time></trkpt><trkpt lat="43.676357194915894" lon="10.734929838331498"><ele>43.0</ele><time>2026-05-01T07:05:18.998Z</time></trkpt><trkpt lat="43.67632022841395" lon="10.734767280527581"><ele>43.0</ele><time>2026-05-01T07:05:19.998Z</time></trkpt><trkpt lat="43.676282393750164" lon="10.73460696582206"><ele>43.0</ele><time>2026-05-01T07:05:20.998Z</time></trkpt><trkpt lat="43.676243283540956" lon="10.734452511113087"><ele>43.0</ele><time>2026-05-01T07:05:21.998Z</time></trkpt><trkpt lat="43.67620430484242" lon="10.734300093448432"><ele>43.0</ele><time>2026-05-01T07:05:22.998Z</time></trkpt><trkpt lat="43.67616332136046" lon="10.734143844903604"><ele>43.0</ele><time>2026-05-01T07:05:23.998Z</time></trkpt><trkpt lat="43.676120243095674" lon="10.73398626295483"><ele>42.5</ele><time>2026-05-01T07:05:24.998Z</time></trkpt><trkpt lat="43.6760782614976" lon="10.733821207410688"><ele>42.0</ele><time>2026-05-01T07:05:25.998Z</time></trkpt><trkpt lat="43.67604547513934" lon="10.73365736340077"><ele>41.5</ele><time>2026-05-01T07:05:26.998Z</time></trkpt><trkpt lat="43.676017770170546" lon="10.73349520316201"><ele>41.0</ele><time>2026-05-01T07:05:27.998Z</time></trkpt><trkpt lat="43.6759863994583" lon="10.73333566876574"><ele>41.0</ele><time>2026-05-01T07:05:28.998Z</time></trkpt><trkpt lat="43.67595395416578" lon="10.73317483831894"><ele>41.0</ele><time>2026-05-01T07:05:29.997Z</time></trkpt><trkpt lat="43.67592183630861" lon="10.733012452781745"><ele>41.0</ele><time>2026-05-01T07:05:30.997Z</time></trkpt><trkpt lat="43.67588774659192" lon="10.732849468875543"><ele>41.0</ele><time>2026-05-01T07:05:31.997Z</time></trkpt><trkpt lat="43.675853881168436" lon="10.732683094427296"><ele>40.5</ele><time>2026-05-01T07:05:32.997Z</time></trkpt><trkpt lat="43.67582395484782" lon="10.732512331776666"><ele>40.0</ele><time>2026-05-01T07:05:34Z</time></trkpt><trkpt lat="43.675794512551256" lon="10.732333993543286"><ele>39.5</ele><time>2026-05-01T07:05:35Z</time></trkpt><trkpt lat="43.675759584612095" lon="10.732149732079678"><ele>39.0</ele><time>2026-05-01T07:05:36Z</time></trkpt><trkpt lat="43.6757229066216" lon="10.731971481668106"><ele>39.0</ele><time>2026-05-01T07:05:37Z</time></trkpt><trkpt lat="43.675682819226104" lon="10.731797221246218"><ele>39.0</ele><time>2026-05-01T07:05:38Z</time></trkpt><trkpt lat="43.67562591195418" lon="10.731631447244608"><ele>39.0</ele><time>2026-05-01T07:05:39Z</time></trkpt><trkpt lat="43.67555139457426" lon="10.731472550005291"><ele>39.0</ele><time>2026-05-01T07:05:40Z</time></trkpt><trkpt lat="43.67546779180483" lon="10.731328088943851"><ele>39.0</ele><time>2026-05-01T07:05:41Z</time></trkpt><trkpt lat="43.675380381403166" lon="10.731193280662215"><ele>39.0</ele><time>2026-05-01T07:05:42Z</time></trkpt><trkpt lat="43.67529298154006" lon="10.731061290415925"><ele>39.0</ele><time>2026-05-01T07:05:43Z</time></trkpt><trkpt lat="43.67521049584926" lon="10.73092666195834"><ele>39.0</ele><time>2026-05-01T07:05:44Z</time></trkpt><trkpt lat="43.67513004994664" lon="10.73079087878776"><ele>39.25</ele><time>2026-05-01T07:05:45Z</time></trkpt><trkpt lat="43.67504731736031" lon="10.730657222952338"><ele>39.5</ele><time>2026-05-01T07:05:46Z</time></trkpt><trkpt lat="43.67496023352256" lon="10.730527302347754"><ele>39.75</ele><time>2026-05-01T07:05:47Z</time></trkpt><trkpt lat="43.67487128300587" lon="10.730398722792954"><ele>40.0</ele><time>2026-05-01T07:05:48Z</time></trkpt><trkpt lat="43.67478353189872" lon="10.730267582568798"><ele>39.25</ele><time>2026-05-01T07:05:49Z</time></trkpt><trkpt lat="43.67469452128724" lon="10.730137278710467"><ele>38.5</ele><time>2026-05-01T07:05:50Z</time></trkpt><trkpt lat="43.67459852346466" lon="10.730010752200643"><ele>37.75</ele><time>2026-05-01T07:05:51Z</time></trkpt><trkpt lat="43.67449816951036" lon="10.729886014931367"><ele>37.0</ele><time>2026-05-01T07:05:52Z</time></trkpt><trkpt lat="43.67440142637458" lon="10.729754197403183"><ele>36.5</ele><time>2026-05-01T07:05:53Z</time></trkpt><trkpt lat="43.67430541732626" lon="10.729620677515607"><ele>36.0</ele><time>2026-05-01T07:05:54Z</time></trkpt><trkpt lat="43.67420890697621" lon="10.729489245343562"><ele>35.5</ele><time>2026-05-01T07:05:55Z</time></trkpt><trkpt lat="43.67410966457816" lon="10.729354293233452"><ele>35.0</ele><time>2026-05-01T07:05:56Z</time></trkpt><trkpt lat="43.67401311952292" lon="10.729217400551605"><ele>35.0</ele><time>2026-05-01T07:05:57Z</time></trkpt><trkpt lat="43.67391786773172" lon="10.729077746354022"><ele>35.0</ele><time>2026-05-01T07:05:58Z</time></trkpt><trkpt lat="43.67382360070639" lon="10.728939183093209"><ele>35.0</ele><time>2026-05-01T07:05:59Z</time></trkpt><trkpt lat="43.67372828472265" lon="10.728802566152497"><ele>35.0</ele><time>2026-05-01T07:06:00Z</time></trkpt><trkpt lat="43.673637809544985" lon="10.728660570019336"><ele>34.0</ele><time>2026-05-01T07:06:01Z</time></trkpt><trkpt lat="43.673551683684565" lon="10.728508830667158"><ele>33.0</ele><time>2026-05-01T07:06:02Z</time></trkpt><trkpt lat="43.673474147500066" lon="10.728350805443188"><ele>32.0</ele><time>2026-05-01T07:06:03Z</time></trkpt><trkpt lat="43.67340655863096" lon="10.72818241446637"><ele>31.0</ele><time>2026-05-01T07:06:04Z</time></trkpt><trkpt lat="43.6733450238646" lon="10.728012820601645"><ele>31.0</ele><time>2026-05-01T07:06:05Z</time></trkpt><trkpt lat="43.673288612780034" lon="10.72784099413074"><ele>31.0</ele><time>2026-05-01T07:06:06Z</time></trkpt><trkpt lat="43.67323634870393" lon="10.727667273114502"><ele>31.0</ele><time>2026-05-01T07:06:07Z</time></trkpt><trkpt lat="43.67318350277024" lon="10.727496724973358"><ele>31.0</ele><time>2026-05-01T07:06:08Z</time></trkpt><trkpt lat="43.67312986992416" lon="10.727326167057328"><ele>30.6</ele><time>2026-05-01T07:06:08.999Z</time></trkpt><trkpt lat="43.673089041270224" lon="10.727158645876854"><ele>30.200000000000003</ele><time>2026-05-01T07:06:09.999Z</time></trkpt><trkpt lat="43.67305660530512" lon="10.727014617074556"><ele>29.799999999999997</ele><time>2026-05-01T07:06:10.999Z</time></trkpt><trkpt lat="43.673027305406904" lon="10.726903929153933"><ele>29.4</ele><time>2026-05-01T07:06:11.999Z</time></trkpt><trkpt lat="43.673000671244424" lon="10.72681120268204"><ele>29.0</ele><time>2026-05-01T07:06:12.999Z</time></trkpt><trkpt lat="43.67295733897271" lon="10.726665525811919"><ele>28.666666666666664</ele><time>2026-05-01T07:06:14.999Z</time></trkpt><trkpt lat="43.67293242607993" lon="10.726579705277048"><ele>28.333333333333332</ele><time>2026-05-01T07:06:15.999Z</time></trkpt><trkpt lat="43.672906299010144" lon="10.726477575867657"><ele>28.0</ele><time>2026-05-01T07:06:16.999Z</time></trkpt><trkpt lat="43.67287423705145" lon="10.726364253592486"><ele>27.666666666666664</ele><time>2026-05-01T07:06:17.999Z</time></trkpt><trkpt lat="43.67283467265288" lon="10.726235988766241"><ele>27.333333333333332</ele><time>2026-05-01T07:06:18.999Z</time></trkpt><trkpt lat="43.67279168454442" lon="10.72609157627342"><ele>27.0</ele><time>2026-05-01T07:06:19.999Z</time></trkpt><trkpt lat="43.6727510488658" lon="10.725946423967317"><ele>25.75</ele><time>2026-05-01T07:06:20.999Z</time></trkpt><trkpt lat="43.67270896872008" lon="10.725796626557841"><ele>24.5</ele><time>2026-05-01T07:06:21.999Z</time></trkpt><trkpt lat="43.67266025730669" lon="10.725646471122417"><ele>23.25</ele><time>2026-05-01T07:06:22.999Z</time></trkpt><trkpt lat="43.67261568745645" lon="10.725500054045039"><ele>22.0</ele><time>2026-05-01T07:06:23.999Z</time></trkpt><trkpt lat="43.672586251666786" lon="10.725351893029108"><ele>22.0</ele><time>2026-05-01T07:06:24.999Z</time></trkpt><trkpt lat="43.67258150494511" lon="10.725203856758377"><ele>22.0</ele><time>2026-05-01T07:06:25.999Z</time></trkpt><trkpt lat="43.672597645979224" lon="10.725055536668057"><ele>22.0</ele><time>2026-05-01T07:06:26.999Z</time></trkpt><trkpt lat="43.67263260634642" lon="10.724908742272685"><ele>22.0</ele><time>2026-05-01T07:06:27.999Z</time></trkpt><trkpt lat="43.672687786815736" lon="10.724760198493877"><ele>22.0</ele><time>2026-05-01T07:06:28.999Z</time></trkpt><trkpt lat="43.67276487087044" lon="10.724619420889487"><ele>21.25</ele><time>2026-05-01T07:06:29.999Z</time></trkpt><trkpt lat="43.67285455827452" lon="10.724490302126549"><ele>20.5</ele><time>2026-05-01T07:06:30.999Z</time></trkpt><trkpt lat="43.67294522383604" lon="10.724357664952205"><ele>19.75</ele><time>2026-05-01T07:06:31.999Z</time></trkpt><trkpt lat="43.67302784664443" lon="10.72422832253202"><ele>19.0</ele><time>2026-05-01T07:06:32.999Z</time></trkpt><trkpt lat="43.67311025155551" lon="10.72410393063414"><ele>19.0</ele><time>2026-05-01T07:06:33.999Z</time></trkpt><trkpt lat="43.67318873643651" lon="10.723989044839799"><ele>19.0</ele><time>2026-05-01T07:06:34.999Z</time></trkpt><trkpt lat="43.67325231279409" lon="10.723871401496126"><ele>19.0</ele><time>2026-05-01T07:06:35.999Z</time></trkpt><trkpt lat="43.673306037852214" lon="10.723733632226592"><ele>19.0</ele><time>2026-05-01T07:06:36.999Z</time></trkpt><trkpt lat="43.67333416716959" lon="10.7235894986952"><ele>19.0</ele><time>2026-05-01T07:06:37.999Z</time></trkpt><trkpt lat="43.673336444458236" lon="10.723433701785767"><ele>19.0</ele><time>2026-05-01T07:06:38.999Z</time></trkpt><trkpt lat="43.673318046619286" lon="10.72327760467804"><ele>19.0</ele><time>2026-05-01T07:06:39.999Z</time></trkpt><trkpt lat="43.67326820601895" lon="10.723145862348684"><ele>19.0</ele><time>2026-05-01T07:06:40.999Z</time></trkpt><trkpt lat="43.673183921077545" lon="10.723044297491196"><ele>19.0</ele><time>2026-05-01T07:06:41.999Z</time></trkpt><trkpt lat="43.67308084294187" lon="10.722951866821964"><ele>19.0</ele><time>2026-05-01T07:06:42.999Z</time></trkpt><trkpt lat="43.67296801945886" lon="10.722851862360985"><ele>19.0</ele><time>2026-05-01T07:06:43.999Z</time></trkpt><trkpt lat="43.672846872345936" lon="10.722738330069562"><ele>19.0</ele><time>2026-05-01T07:06:44.999Z</time></trkpt><trkpt lat="43.67270920030972" lon="10.722613511272712"><ele>19.0</ele><time>2026-05-01T07:06:45.999Z</time></trkpt><trkpt lat="43.672554321505636" lon="10.722489176998808"><ele>19.666666666666664</ele><time>2026-05-01T07:06:46.999Z</time></trkpt><trkpt lat="43.672402859800556" lon="10.722377312572426"><ele>20.333333333333332</ele><time>2026-05-01T07:06:47.999Z</time></trkpt><trkpt lat="43.67226928936542" lon="10.722272806670475"><ele>21.0</ele><time>2026-05-01T07:06:48.999Z</time></trkpt><trkpt lat="43.67214540129834" lon="10.722163535989472"><ele>21.0</ele><time>2026-05-01T07:06:49.999Z</time></trkpt><trkpt lat="43.67201977479894" lon="10.722051670442482"><ele>21.0</ele><time>2026-05-01T07:06:50.999Z</time></trkpt><trkpt lat="43.671888809826555" lon="10.721949081582641"><ele>21.0</ele><time>2026-05-01T07:06:51.999Z</time></trkpt><trkpt lat="43.67175116761959" lon="10.72184722464484"><ele>21.0</ele><time>2026-05-01T07:06:52.999Z</time></trkpt><trkpt lat="43.67163489316034" lon="10.721738098332384"><ele>21.0</ele><time>2026-05-01T07:06:53.999Z</time></trkpt><trkpt lat="43.67153901132648" lon="10.721608785833391"><ele>21.0</ele><time>2026-05-01T07:06:54.998Z</time></trkpt><trkpt lat="43.67146524177345" lon="10.721449796340082"><ele>21.0</ele><time>2026-05-01T07:06:55.998Z</time></trkpt><trkpt lat="43.671408369419" lon="10.72126261468885"><ele>20.666666666666668</ele><time>2026-05-01T07:06:56.998Z</time></trkpt><trkpt lat="43.67135835632851" lon="10.721055596550281"><ele>20.333333333333336</ele><time>2026-05-01T07:06:57.998Z</time></trkpt><trkpt lat="43.671294856543184" lon="10.720830613578741"><ele>20.0</ele><time>2026-05-01T07:06:58.998Z</time></trkpt><trkpt lat="43.67123828333573" lon="10.720563532962226"><ele>20.0</ele><time>2026-05-01T07:06:59.998Z</time></trkpt><trkpt lat="43.67116162295375" lon="10.720279135804851"><ele>20.0</ele><time>2026-05-01T07:07:00.998Z</time></trkpt><trkpt lat="43.671089509876815" lon="10.72001191526253"><ele>20.0</ele><time>2026-05-01T07:07:01.998Z</time></trkpt><trkpt lat="43.671026712676564" lon="10.719747286873291"><ele>20.0</ele><time>2026-05-01T07:07:02.998Z</time></trkpt><trkpt lat="43.67095510009183" lon="10.719507129721222"><ele>20.0</ele><time>2026-05-01T07:07:03.998Z</time></trkpt><trkpt lat="43.67088600808194" lon="10.719258837929718"><ele>20.0</ele><time>2026-05-01T07:07:04.998Z</time></trkpt><trkpt lat="43.67082489817968" lon="10.719017542109036"><ele>20.0</ele><time>2026-05-01T07:07:05.998Z</time></trkpt><trkpt lat="43.670764013035885" lon="10.718783603219148"><ele>20.0</ele><time>2026-05-01T07:07:06.998Z</time></trkpt><trkpt lat="43.670700315557525" lon="10.718555654567423"><ele>20.0</ele><time>2026-05-01T07:07:07.998Z</time></trkpt><trkpt lat="43.670637317214634" lon="10.718331787223349"><ele>19.666666666666668</ele><time>2026-05-01T07:07:08.998Z</time></trkpt><trkpt lat="43.67057805904222" lon="10.718114789756944"><ele>19.333333333333332</ele><time>2026-05-01T07:07:09.998Z</time></trkpt><trkpt lat="43.67052018364888" lon="10.717898182656931"><ele>19.0</ele><time>2026-05-01T07:07:10.998Z</time></trkpt><trkpt lat="43.67046076774614" lon="10.717683503181343"><ele>19.333333333333332</ele><time>2026-05-01T07:07:11.998Z</time></trkpt><trkpt lat="43.670397425073425" lon="10.717466819289754"><ele>19.666666666666668</ele><time>2026-05-01T07:07:12.998Z</time></trkpt><trkpt lat="43.67033327238206" lon="10.717253982795299"><ele>20.0</ele><time>2026-05-01T07:07:13.998Z</time></trkpt><trkpt lat="43.67027088406794" lon="10.71704032172544"><ele>20.0</ele><time>2026-05-01T07:07:14.998Z</time></trkpt><trkpt lat="43.670213429019924" lon="10.71682424255685"><ele>20.0</ele><time>2026-05-01T07:07:15.998Z</time></trkpt><trkpt lat="43.67015839459305" lon="10.71660574265936"><ele>20.0</ele><time>2026-05-01T07:07:16.998Z</time></trkpt><trkpt lat="43.67010001432233" lon="10.71638602169688"><ele>20.0</ele><time>2026-05-01T07:07:17.998Z</time></trkpt><trkpt lat="43.670045041556186" lon="10.716161542773474"><ele>20.0</ele><time>2026-05-01T07:07:18.998Z</time></trkpt><trkpt lat="43.66999238083132" lon="10.715933216890676"><ele>20.0</ele><time>2026-05-01T07:07:19.998Z</time></trkpt><trkpt lat="43.669937854823914" lon="10.71570646019526"><ele>20.0</ele><time>2026-05-01T07:07:20.998Z</time></trkpt><trkpt lat="43.669876335046034" lon="10.71547563177574"><ele>20.0</ele><time>2026-05-01T07:07:21.998Z</time></trkpt><trkpt lat="43.66981197578343" lon="10.715243492641173"><ele>20.0</ele><time>2026-05-01T07:07:22.998Z</time></trkpt><trkpt lat="43.669748473533765" lon="10.715004087156169"><ele>19.666666666666668</ele><time>2026-05-01T07:07:23.998Z</time></trkpt><trkpt lat="43.66968727890635" lon="10.714757779088917"><ele>19.333333333333332</ele><time>2026-05-01T07:07:24.998Z</time></trkpt><trkpt lat="43.66962227069468" lon="10.714508620714776"><ele>19.0</ele><time>2026-05-01T07:07:25.998Z</time></trkpt><trkpt lat="43.66955368603365" lon="10.714254464900495"><ele>19.0</ele><time>2026-05-01T07:07:26.998Z</time></trkpt><trkpt lat="43.669487675957996" lon="10.714004298207428"><ele>19.0</ele><time>2026-05-01T07:07:27.998Z</time></trkpt><trkpt lat="43.66942562026411" lon="10.713757586703325"><ele>19.0</ele><time>2026-05-01T07:07:28.998Z</time></trkpt><trkpt lat="43.66936224972976" lon="10.71351276190014"><ele>19.0</ele><time>2026-05-01T07:07:29.998Z</time></trkpt><trkpt lat="43.66929461224642" lon="10.713266679445631"><ele>19.0</ele><time>2026-05-01T07:07:30.998Z</time></trkpt><trkpt lat="43.669226407719435" lon="10.713018989898526"><ele>19.0</ele><time>2026-05-01T07:07:31.998Z</time></trkpt><trkpt lat="43.669158939581195" lon="10.712769176412392"><ele>18.666666666666664</ele><time>2026-05-01T07:07:32.998Z</time></trkpt><trkpt lat="43.669094142458896" lon="10.712518660095284"><ele>18.333333333333332</ele><time>2026-05-01T07:07:33.998Z</time></trkpt><trkpt lat="43.66902780290774" lon="10.712265800125824"><ele>18.0</ele><time>2026-05-01T07:07:34.998Z</time></trkpt><trkpt lat="43.66895930733217" lon="10.712012125226378"><ele>17.666666666666668</ele><time>2026-05-01T07:07:35.998Z</time></trkpt><trkpt lat="43.66888750221736" lon="10.711755570452075"><ele>17.333333333333336</ele><time>2026-05-01T07:07:36.998Z</time></trkpt><trkpt lat="43.66881348373658" lon="10.711500220118792"><ele>17.0</ele><time>2026-05-01T07:07:37.998Z</time></trkpt><trkpt lat="43.668740138429726" lon="10.71124191186449"><ele>17.333333333333336</ele><time>2026-05-01T07:07:39Z</time></trkpt><trkpt lat="43.66867124665048" lon="10.710984670089388"><ele>17.666666666666668</ele><time>2026-05-01T07:07:40Z</time></trkpt><trkpt lat="43.668605203997494" lon="10.71072539464797"><ele>18.0</ele><time>2026-05-01T07:07:41Z</time></trkpt><trkpt lat="43.668540641881854" lon="10.710471708825157"><ele>17.666666666666668</ele><time>2026-05-01T07:07:42Z</time></trkpt><trkpt lat="43.66847442096434" lon="10.710220326628415"><ele>17.333333333333336</ele><time>2026-05-01T07:07:43Z</time></trkpt><trkpt lat="43.668406231527904" lon="10.709974617701222"><ele>17.0</ele><time>2026-05-01T07:07:44Z</time></trkpt><trkpt lat="43.668340530339755" lon="10.709733984747894"><ele>17.0</ele><time>2026-05-01T07:07:45Z</time></trkpt><trkpt lat="43.66827812393667" lon="10.709495498015148"><ele>17.0</ele><time>2026-05-01T07:07:46Z</time></trkpt><trkpt lat="43.66821702240303" lon="10.709261493532749"><ele>17.0</ele><time>2026-05-01T07:07:47Z</time></trkpt><trkpt lat="43.6681526592291" lon="10.709030203705625"><ele>17.333333333333336</ele><time>2026-05-01T07:07:48Z</time></trkpt><trkpt lat="43.66808344362974" lon="10.708803496951326"><ele>17.666666666666668</ele><time>2026-05-01T07:07:49Z</time></trkpt><trkpt lat="43.668010500684346" lon="10.708579652856988"><ele>18.0</ele><time>2026-05-01T07:07:50Z</time></trkpt><trkpt lat="43.6679381656333" lon="10.7083621837787"><ele>18.0</ele><time>2026-05-01T07:07:51Z</time></trkpt><trkpt lat="43.667872239138475" lon="10.708154231506619"><ele>18.0</ele><time>2026-05-01T07:07:52Z</time></trkpt><trkpt lat="43.6678095975164" lon="10.707959340378524"><ele>18.0</ele><time>2026-05-01T07:07:53Z</time></trkpt><trkpt lat="43.66774649658726" lon="10.707772401138405"><ele>18.25</ele><time>2026-05-01T07:07:54Z</time></trkpt><trkpt lat="43.66768228394695" lon="10.70758988122597"><ele>18.5</ele><time>2026-05-01T07:07:55Z</time></trkpt><trkpt lat="43.66761938317794" lon="10.707404088732023"><ele>18.75</ele><time>2026-05-01T07:07:56Z</time></trkpt><trkpt lat="43.66755923884717" lon="10.707222970144402"><ele>19.0</ele><time>2026-05-01T07:07:57Z</time></trkpt><trkpt lat="43.66749878677526" lon="10.707051818213086"><ele>19.2</ele><time>2026-05-01T07:07:58Z</time></trkpt><trkpt lat="43.667438937373966" lon="10.70689658439312"><ele>19.4</ele><time>2026-05-01T07:07:59Z</time></trkpt><trkpt lat="43.667383796700406" lon="10.706758808196886"><ele>19.6</ele><time>2026-05-01T07:08:00Z</time></trkpt><trkpt lat="43.66732964299197" lon="10.706635403426414"><ele>19.8</ele><time>2026-05-01T07:08:01Z</time></trkpt><trkpt lat="43.667278162887904" lon="10.706529801803995"><ele>20.0</ele><time>2026-05-01T07:08:02Z</time></trkpt><trkpt lat="43.6672297289891" lon="10.706432050294188"><ele>20.0</ele><time>2026-05-01T07:08:03Z</time></trkpt><trkpt lat="43.66718050501252" lon="10.706342152758923"><ele>20.0</ele><time>2026-05-01T07:08:04Z</time></trkpt><trkpt lat="43.66712369270813" lon="10.706246383918844"><ele>20.0</ele><time>2026-05-01T07:08:05Z</time></trkpt><trkpt lat="43.66706201606296" lon="10.706153254190028"><ele>20.0</ele><time>2026-05-01T07:08:06Z</time></trkpt><trkpt lat="43.666984046100815" lon="10.706058725272674"><ele>20.0</ele><time>2026-05-01T07:08:07Z</time></trkpt><trkpt lat="43.66690396314465" lon="10.705959031271753"><ele>20.25</ele><time>2026-05-01T07:08:08Z</time></trkpt><trkpt lat="43.66682454850388" lon="10.705851395104327"><ele>20.5</ele><time>2026-05-01T07:08:09Z</time></trkpt><trkpt lat="43.66674426794832" lon="10.705739467183607"><ele>20.75</ele><time>2026-05-01T07:08:10Z</time></trkpt><trkpt lat="43.666657178681106" lon="10.705631968916412"><ele>21.0</ele><time>2026-05-01T07:08:11Z</time></trkpt><trkpt lat="43.66657295772309" lon="10.70551992750685"><ele>21.0</ele><time>2026-05-01T07:08:12Z</time></trkpt><trkpt lat="43.666490358069815" lon="10.705394195458119"><ele>21.0</ele><time>2026-05-01T07:08:13Z</time></trkpt><trkpt lat="43.6664057165446" lon="10.70526204798647"><ele>21.0</ele><time>2026-05-01T07:08:14Z</time></trkpt><trkpt lat="43.66631761906473" lon="10.705128593208254"><ele>21.0</ele><time>2026-05-01T07:08:15Z</time></trkpt><trkpt lat="43.66622350044188" lon="10.704990856438142"><ele>22.25</ele><time>2026-05-01T07:08:16Z</time></trkpt><trkpt lat="43.666127427216075" lon="10.704848578107768"><ele>23.5</ele><time>2026-05-01T07:08:17Z</time></trkpt><trkpt lat="43.666028638604274" lon="10.704702044057194"><ele>24.75</ele><time>2026-05-01T07:08:18Z</time></trkpt><trkpt lat="43.66591975499502" lon="10.704559333259715"><ele>26.0</ele><time>2026-05-01T07:08:19Z</time></trkpt><trkpt lat="43.6657969203639" lon="10.704423489285555"><ele>27.666666666666664</ele><time>2026-05-01T07:08:20Z</time></trkpt><trkpt lat="43.66567436373632" lon="10.704285604670083"><ele>29.333333333333336</ele><time>2026-05-01T07:08:21Z</time></trkpt><trkpt lat="43.66553101050607" lon="10.704080282924497"><ele>31.0</ele><time>2026-05-01T07:08:21.999Z</time></trkpt><trkpt lat="43.66536177530088" lon="10.703899423031936"><ele>32.66666666666667</ele><time>2026-05-01T07:08:22.999Z</time></trkpt><trkpt lat="43.66521149364994" lon="10.703691022816107"><ele>34.333333333333336</ele><time>2026-05-01T07:08:23.999Z</time></trkpt><trkpt lat="43.66506849475941" lon="10.703493569260722"><ele>36.0</ele><time>2026-05-01T07:08:24.999Z</time></trkpt><trkpt lat="43.664927572432575" lon="10.703318620586854"><ele>36.666666666666664</ele><time>2026-05-01T07:08:25.999Z</time></trkpt><trkpt lat="43.664788649881565" lon="10.70315607773522"><ele>37.33333333333333</ele><time>2026-05-01T07:08:26.999Z</time></trkpt><trkpt lat="43.66465376188928" lon="10.702996381208001"><ele>38.0</ele><time>2026-05-01T07:08:27.999Z</time></trkpt><trkpt lat="43.664526807449036" lon="10.702837037138135"><ele>38.666666666666664</ele><time>2026-05-01T07:08:28.999Z</time></trkpt><trkpt lat="43.66440738174925" lon="10.702684326917401"><ele>39.333333333333336</ele><time>2026-05-01T07:08:29.999Z</time></trkpt><trkpt lat="43.66428977956647" lon="10.702540341294718"><ele>40.0</ele><time>2026-05-01T07:08:30.999Z</time></trkpt><trkpt lat="43.66417336964356" lon="10.702402560363304"><ele>40.0</ele><time>2026-05-01T07:08:31.999Z</time></trkpt><trkpt lat="43.66405534867791" lon="10.702268621686773"><ele>40.0</ele><time>2026-05-01T07:08:32.999Z</time></trkpt><trkpt lat="43.66393833007376" lon="10.702132051829883"><ele>40.0</ele><time>2026-05-01T07:08:33.999Z</time></trkpt><trkpt lat="43.66383553131099" lon="10.701979254616374"><ele>38.0</ele><time>2026-05-01T07:08:34.999Z</time></trkpt><trkpt lat="43.66376338908214" lon="10.701799698519698"><ele>36.0</ele><time>2026-05-01T07:08:35.999Z</time></trkpt><trkpt lat="43.66372445326494" lon="10.701592026914206"><ele>34.0</ele><time>2026-05-01T07:08:36.999Z</time></trkpt><trkpt lat="43.66372441519297" lon="10.701376119820575"><ele>34.0</ele><time>2026-05-01T07:08:37.999Z</time></trkpt><trkpt lat="43.66376620765012" lon="10.701173435246325"><ele>34.0</ele><time>2026-05-01T07:08:38.999Z</time></trkpt><trkpt lat="43.66384317217094" lon="10.70097536905773"><ele>34.0</ele><time>2026-05-01T07:08:39.999Z</time></trkpt><trkpt lat="43.663941539356856" lon="10.70078934492324"><ele>34.0</ele><time>2026-05-01T07:08:40.999Z</time></trkpt><trkpt lat="43.6640495153881" lon="10.700613263328867"><ele>34.0</ele><time>2026-05-01T07:08:41.999Z</time></trkpt><trkpt lat="43.66414843051733" lon="10.700423795352252"><ele>34.0</ele><time>2026-05-01T07:08:42.999Z</time></trkpt><trkpt lat="43.66424495369013" lon="10.700232775434273"><ele>34.0</ele><time>2026-05-01T07:08:43.999Z</time></trkpt><trkpt lat="43.664348635169695" lon="10.700045521337922"><ele>34.0</ele><time>2026-05-01T07:08:44.999Z</time></trkpt><trkpt lat="43.66444834895854" lon="10.699865951915264"><ele>34.0</ele><time>2026-05-01T07:08:45.999Z</time></trkpt><trkpt lat="43.66453435054184" lon="10.699693505735114"><ele>32.5</ele><time>2026-05-01T07:08:46.999Z</time></trkpt><trkpt lat="43.66462173026657" lon="10.699519828545105"><ele>31.0</ele><time>2026-05-01T07:08:47.999Z</time></trkpt><trkpt lat="43.664708556441234" lon="10.6993497662347"><ele>29.5</ele><time>2026-05-01T07:08:48.999Z</time></trkpt><trkpt lat="43.66479079650186" lon="10.699183829029336"><ele>28.0</ele><time>2026-05-01T07:08:49.999Z</time></trkpt><trkpt lat="43.66486813928329" lon="10.699025864916164"><ele>28.0</ele><time>2026-05-01T07:08:50.999Z</time></trkpt><trkpt lat="43.6649454097444" lon="10.698863920255965"><ele>28.0</ele><time>2026-05-01T07:08:51.999Z</time></trkpt><trkpt lat="43.66501122526285" lon="10.698701279972267"><ele>28.0</ele><time>2026-05-01T07:08:52.999Z</time></trkpt><trkpt lat="43.66506206500977" lon="10.698506261960366"><ele>28.0</ele><time>2026-05-01T07:08:53.999Z</time></trkpt><trkpt lat="43.665086325003436" lon="10.698292945417737"><ele>27.0</ele><time>2026-05-01T07:08:54.999Z</time></trkpt><trkpt lat="43.66508908749626" lon="10.698069882068252"><ele>26.0</ele><time>2026-05-01T07:08:55.999Z</time></trkpt><trkpt lat="43.66508284849704" lon="10.697837163544763"><ele>25.0</ele><time>2026-05-01T07:08:56.999Z</time></trkpt><trkpt lat="43.66506935462047" lon="10.69759746698597"><ele>24.333333333333336</ele><time>2026-05-01T07:08:57.999Z</time></trkpt><trkpt lat="43.66504481171551" lon="10.697343630454172"><ele>23.666666666666668</ele><time>2026-05-01T07:08:58.999Z</time></trkpt><trkpt lat="43.665012244995296" lon="10.697077002001064"><ele>23.0</ele><time>2026-05-01T07:08:59.999Z</time></trkpt><trkpt lat="43.66496931434362" lon="10.696799826124026"><ele>22.0</ele><time>2026-05-01T07:09:00.999Z</time></trkpt><trkpt lat="43.664941300843545" lon="10.696495708557554"><ele>21.0</ele><time>2026-05-01T07:09:01.999Z</time></trkpt><trkpt lat="43.66489706654996" lon="10.696158666246184"><ele>20.0</ele><time>2026-05-01T07:09:02.999Z</time></trkpt><trkpt lat="43.664854547620315" lon="10.69581357949798"><ele>19.0</ele><time>2026-05-01T07:09:03.999Z</time></trkpt><trkpt lat="43.66481957042592" lon="10.695500162144583"><ele>18.666666666666664</ele><time>2026-05-01T07:09:04.999Z</time></trkpt><trkpt lat="43.66478046894585" lon="10.695208131777534"><ele>18.333333333333332</ele><time>2026-05-01T07:09:05.999Z</time></trkpt><trkpt lat="43.66475377272798" lon="10.694929074024548"><ele>18.0</ele><time>2026-05-01T07:09:06.999Z</time></trkpt><trkpt lat="43.66472994458823" lon="10.694669333123635"><ele>18.0</ele><time>2026-05-01T07:09:07.998Z</time></trkpt><trkpt lat="43.66471333028385" lon="10.694417695286718"><ele>18.0</ele><time>2026-05-01T07:09:08.998Z</time></trkpt><trkpt lat="43.66469433496298" lon="10.694181134915738"><ele>18.0</ele><time>2026-05-01T07:09:09.998Z</time></trkpt><trkpt lat="43.664672123968586" lon="10.693951979647379"><ele>18.0</ele><time>2026-05-01T07:09:10.998Z</time></trkpt><trkpt lat="43.664652245636546" lon="10.693716062577103"><ele>18.0</ele><time>2026-05-01T07:09:11.998Z</time></trkpt><trkpt lat="43.664629464331334" lon="10.693478505305096"><ele>18.0</ele><time>2026-05-01T07:09:12.998Z</time></trkpt><trkpt lat="43.664589920535946" lon="10.69323990776023"><ele>17.666666666666668</ele><time>2026-05-01T07:09:13.998Z</time></trkpt><trkpt lat="43.66452892590434" lon="10.693006803837262"><ele>17.333333333333336</ele><time>2026-05-01T07:09:14.998Z</time></trkpt><trkpt lat="43.66444849805005" lon="10.692779571608117"><ele>17.0</ele><time>2026-05-01T07:09:15.998Z</time></trkpt><trkpt lat="43.664354564569244" lon="10.692558881646573"><ele>16.666666666666668</ele><time>2026-05-01T07:09:16.998Z</time></trkpt><trkpt lat="43.664253780464435" lon="10.692348225524107"><ele>16.333333333333332</ele><time>2026-05-01T07:09:17.998Z</time></trkpt><trkpt lat="43.66414659135795" lon="10.692149692098894"><ele>16.0</ele><time>2026-05-01T07:09:18.998Z</time></trkpt><trkpt lat="43.66404170249967" lon="10.691957359275424"><ele>17.0</ele><time>2026-05-01T07:09:19.998Z</time></trkpt><trkpt lat="43.66394249205634" lon="10.691770154172989"><ele>18.0</ele><time>2026-05-01T07:09:20.998Z</time></trkpt><trkpt lat="43.663849757168244" lon="10.691584523915079"><ele>19.0</ele><time>2026-05-01T07:09:21.998Z</time></trkpt><trkpt lat="43.66376825958986" lon="10.691402946102924"><ele>19.0</ele><time>2026-05-01T07:09:22.998Z</time></trkpt><trkpt lat="43.6637049227495" lon="10.691212821467477"><ele>19.0</ele><time>2026-05-01T07:09:23.998Z</time></trkpt><trkpt lat="43.66367875457197" lon="10.691014376626855"><ele>19.0</ele><time>2026-05-01T07:09:24.998Z</time></trkpt><trkpt lat="43.66367385282389" lon="10.690812343350515"><ele>19.0</ele><time>2026-05-01T07:09:25.998Z</time></trkpt><trkpt lat="43.66367801128649" lon="10.690610726053576"><ele>19.25</ele><time>2026-05-01T07:09:26.998Z</time></trkpt><trkpt lat="43.663680532661026" lon="10.690410848471542"><ele>19.5</ele><time>2026-05-01T07:09:27.998Z</time></trkpt><trkpt lat="43.66368181637618" lon="10.690211420327666"><ele>19.75</ele><time>2026-05-01T07:09:28.998Z</time></trkpt><trkpt lat="43.66368402678062" lon="10.690011906629971"><ele>20.0</ele><time>2026-05-01T07:09:29.998Z</time></trkpt><trkpt lat="43.66368741360069" lon="10.689815287190243"><ele>20.0</ele><time>2026-05-01T07:09:30.998Z</time></trkpt><trkpt lat="43.66369238336445" lon="10.689618772502747"><ele>20.0</ele><time>2026-05-01T07:09:31.998Z</time></trkpt><trkpt lat="43.66370110663652" lon="10.689428436995023"><ele>20.0</ele><time>2026-05-01T07:09:32.998Z</time></trkpt><trkpt lat="43.66369094972486" lon="10.689228457129465"><ele>20.0</ele><time>2026-05-01T07:09:33.998Z</time></trkpt><trkpt lat="43.66365535741338" lon="10.689016908295503"><ele>19.333333333333336</ele><time>2026-05-01T07:09:34.998Z</time></trkpt><trkpt lat="43.6636012342692" lon="10.6887947975419"><ele>18.666666666666668</ele><time>2026-05-01T07:09:35.998Z</time></trkpt><trkpt lat="43.66353271786278" lon="10.6885742433162"><ele>18.0</ele><time>2026-05-01T07:09:36.998Z</time></trkpt><trkpt lat="43.66345360405033" lon="10.688357953191643"><ele>18.0</ele><time>2026-05-01T07:09:37.998Z</time></trkpt><trkpt lat="43.66337299199948" lon="10.68813886152849"><ele>18.0</ele><time>2026-05-01T07:09:38.998Z</time></trkpt><trkpt lat="43.66328298405933" lon="10.687910576083762"><ele>18.0</ele><time>2026-05-01T07:09:39.998Z</time></trkpt><trkpt lat="43.66320052727512" lon="10.687641850607998"><ele>18.0</ele><time>2026-05-01T07:09:40.998Z</time></trkpt><trkpt lat="43.663099446963805" lon="10.687361647554429"><ele>18.0</ele><time>2026-05-01T07:09:41.998Z</time></trkpt><trkpt lat="43.662992056308845" lon="10.687066482899562"><ele>18.0</ele><time>2026-05-01T07:09:42.998Z</time></trkpt><trkpt lat="43.66288122739379" lon="10.686785984166292"><ele>18.0</ele><time>2026-05-01T07:09:44Z</time></trkpt><trkpt lat="43.66278720972666" lon="10.686515353063031"><ele>18.0</ele><time>2026-05-01T07:09:45Z</time></trkpt><trkpt lat="43.662690359765236" lon="10.686262268862638"><ele>18.666666666666668</ele><time>2026-05-01T07:09:46Z</time></trkpt><trkpt lat="43.66259862197338" lon="10.686007488357706"><ele>19.333333333333336</ele><time>2026-05-01T07:09:47Z</time></trkpt><trkpt lat="43.66251446299973" lon="10.685763196447704"><ele>20.0</ele><time>2026-05-01T07:09:48Z</time></trkpt><trkpt lat="43.66243231313063" lon="10.685537641518453"><ele>20.0</ele><time>2026-05-01T07:09:49Z</time></trkpt><trkpt lat="43.66235275539339" lon="10.68532566488331"><ele>20.0</ele><time>2026-05-01T07:09:50Z</time></trkpt><trkpt lat="43.662277937413165" lon="10.685127933648948"><ele>20.0</ele><time>2026-05-01T07:09:51Z</time></trkpt><trkpt lat="43.662206308783986" lon="10.684947116859469"><ele>19.5</ele><time>2026-05-01T07:09:52Z</time></trkpt><trkpt lat="43.66213795380447" lon="10.6847765794402"><ele>19.0</ele><time>2026-05-01T07:09:53Z</time></trkpt><trkpt lat="43.66206928969516" lon="10.684612654253181"><ele>18.5</ele><time>2026-05-01T07:09:54Z</time></trkpt><trkpt lat="43.66200037053293" lon="10.684454350517058"><ele>18.0</ele><time>2026-05-01T07:09:55Z</time></trkpt><trkpt lat="43.66192933049243" lon="10.684301969544208"><ele>17.75</ele><time>2026-05-01T07:09:56Z</time></trkpt><trkpt lat="43.66185749100717" lon="10.68415064510959"><ele>17.5</ele><time>2026-05-01T07:09:57Z</time></trkpt><trkpt lat="43.66178376550817" lon="10.684007160141377"><ele>17.25</ele><time>2026-05-01T07:09:58Z</time></trkpt><trkpt lat="43.661712979718544" lon="10.683864955635787"><ele>17.0</ele><time>2026-05-01T07:09:59Z</time></trkpt><trkpt lat="43.66164889024674" lon="10.683731364192466"><ele>16.75</ele><time>2026-05-01T07:10:00Z</time></trkpt><trkpt lat="43.661584655531875" lon="10.683593459595944"><ele>16.5</ele><time>2026-05-01T07:10:01Z</time></trkpt><trkpt lat="43.66151827107992" lon="10.683463329341214"><ele>16.25</ele><time>2026-05-01T07:10:02Z</time></trkpt><trkpt lat="43.66144652318756" lon="10.683331295553767"><ele>16.0</ele><time>2026-05-01T07:10:03Z</time></trkpt><trkpt lat="43.661373961491215" lon="10.683193523295651"><ele>16.0</ele><time>2026-05-01T07:10:04Z</time></trkpt><trkpt lat="43.66130431568041" lon="10.68304876531578"><ele>16.0</ele><time>2026-05-01T07:10:05Z</time></trkpt><trkpt lat="43.66123707258382" lon="10.68290336139598"><ele>16.0</ele><time>2026-05-01T07:10:06Z</time></trkpt><trkpt lat="43.6611737466073" lon="10.682763488905465"><ele>16.0</ele><time>2026-05-01T07:10:07Z</time></trkpt><trkpt lat="43.66111209952979" lon="10.682637510496688"><ele>17.200000000000003</ele><time>2026-05-01T07:10:08Z</time></trkpt><trkpt lat="43.661053905676816" lon="10.682525973414593"><ele>18.400000000000002</ele><time>2026-05-01T07:10:09Z</time></trkpt><trkpt lat="43.66099983116854" lon="10.682423192428205"><ele>19.6</ele><time>2026-05-01T07:10:10Z</time></trkpt><trkpt lat="43.66094999351067" lon="10.682331801037675"><ele>20.8</ele><time>2026-05-01T07:10:11Z</time></trkpt><trkpt lat="43.660898357987804" lon="10.682234501674442"><ele>22.0</ele><time>2026-05-01T07:10:12Z</time></trkpt><trkpt lat="43.660844589661245" lon="10.682134982772293"><ele>22.0</ele><time>2026-05-01T07:10:13Z</time></trkpt><trkpt lat="43.66077929086642" lon="10.682033013395033"><ele>22.0</ele><time>2026-05-01T07:10:14Z</time></trkpt><trkpt lat="43.66069921018235" lon="10.681929285890382"><ele>22.0</ele><time>2026-05-01T07:10:15Z</time></trkpt><trkpt lat="43.660606077879784" lon="10.681822983030557"><ele>22.0</ele><time>2026-05-01T07:10:16Z</time></trkpt><trkpt lat="43.66050989750163" lon="10.681719600359243"><ele>21.75</ele><time>2026-05-01T07:10:17Z</time></trkpt><trkpt lat="43.66041874326814" lon="10.681613697498529"><ele>21.5</ele><time>2026-05-01T07:10:18Z</time></trkpt><trkpt lat="43.66033311973702" lon="10.681498143504923"><ele>21.25</ele><time>2026-05-01T07:10:19Z</time></trkpt><trkpt lat="43.66025788660259" lon="10.681373176220939"><ele>21.0</ele><time>2026-05-01T07:10:20Z</time></trkpt><trkpt lat="43.66021387739639" lon="10.681219901322388"><ele>22.5</ele><time>2026-05-01T07:10:21Z</time></trkpt><trkpt lat="43.66016451167487" lon="10.681061163619876"><ele>24.0</ele><time>2026-05-01T07:10:22Z</time></trkpt><trkpt lat="43.66010012241311" lon="10.680906949080189"><ele>25.5</ele><time>2026-05-01T07:10:23Z</time></trkpt><trkpt lat="43.66003836056429" lon="10.680740786353919"><ele>27.0</ele><time>2026-05-01T07:10:24Z</time></trkpt><trkpt lat="43.65996577617576" lon="10.680575376336696"><ele>27.0</ele><time>2026-05-01T07:10:25Z</time></trkpt><trkpt lat="43.659893460820776" lon="10.680409214028161"><ele>27.0</ele><time>2026-05-01T07:10:26Z</time></trkpt><trkpt lat="43.65983358630723" lon="10.680220101491946"><ele>27.0</ele><time>2026-05-01T07:10:27Z</time></trkpt><trkpt lat="43.659812851491495" lon="10.680013605748451"><ele>27.0</ele><time>2026-05-01T07:10:28Z</time></trkpt><trkpt lat="43.65979230330291" lon="10.679806531649387"><ele>27.0</ele><time>2026-05-01T07:10:29Z</time></trkpt><trkpt lat="43.65976282648182" lon="10.67959636589928"><ele>27.0</ele><time>2026-05-01T07:10:30Z</time></trkpt><trkpt lat="43.659741020615876" lon="10.679384739461586"><ele>27.0</ele><time>2026-05-01T07:10:31Z</time></trkpt><trkpt lat="43.659718041132315" lon="10.679172085456637"><ele>26.75</ele><time>2026-05-01T07:10:32Z</time></trkpt><trkpt lat="43.65970162361966" lon="10.678961058238457"><ele>26.5</ele><time>2026-05-01T07:10:33Z</time></trkpt><trkpt lat="43.65968389733123" lon="10.678757993037204"><ele>26.25</ele><time>2026-05-01T07:10:34Z</time></trkpt><trkpt lat="43.659652478255474" lon="10.678558295729133"><ele>26.0</ele><time>2026-05-01T07:10:34.999Z</time></trkpt><trkpt lat="43.65961243855167" lon="10.678381163798733"><ele>24.75</ele><time>2026-05-01T07:10:35.999Z</time></trkpt><trkpt lat="43.65957332978535" lon="10.678223001147124"><ele>23.5</ele><time>2026-05-01T07:10:36.999Z</time></trkpt><trkpt lat="43.65953631297059" lon="10.678063386909615"><ele>22.25</ele><time>2026-05-01T07:10:37.999Z</time></trkpt><trkpt lat="43.65949521596664" lon="10.67789248421871"><ele>21.0</ele><time>2026-05-01T07:10:38.999Z</time></trkpt><trkpt lat="43.65945168718367" lon="10.677714764114839"><ele>21.5</ele><time>2026-05-01T07:10:39.999Z</time></trkpt><trkpt lat="43.65941011307359" lon="10.677538210904475"><ele>22.0</ele><time>2026-05-01T07:10:40.999Z</time></trkpt><trkpt lat="43.65937056059191" lon="10.677367760962825"><ele>22.5</ele><time>2026-05-01T07:10:41.999Z</time></trkpt><trkpt lat="43.65933435028553" lon="10.677201898529242"><ele>23.0</ele><time>2026-05-01T07:10:42.999Z</time></trkpt><trkpt lat="43.65929757223138" lon="10.677045692539588"><ele>22.599999999999998</ele><time>2026-05-01T07:10:43.999Z</time></trkpt><trkpt lat="43.65926252015635" lon="10.67689633708064"><ele>22.2</ele><time>2026-05-01T07:10:44.999Z</time></trkpt><trkpt lat="43.65922813963793" lon="10.676754234699622"><ele>21.8</ele><time>2026-05-01T07:10:45.999Z</time></trkpt><trkpt lat="43.65919933460575" lon="10.67661352963484"><ele>21.4</ele><time>2026-05-01T07:10:46.999Z</time></trkpt><trkpt lat="43.659167685684956" lon="10.676467456453018"><ele>21.0</ele><time>2026-05-01T07:10:47.999Z</time></trkpt><trkpt lat="43.6591347418042" lon="10.676315072137498"><ele>21.0</ele><time>2026-05-01T07:10:48.999Z</time></trkpt><trkpt lat="43.65909819646355" lon="10.676158846558252"><ele>21.0</ele><time>2026-05-01T07:10:49.999Z</time></trkpt><trkpt lat="43.659060862366594" lon="10.675990868600657"><ele>21.0</ele><time>2026-05-01T07:10:50.999Z</time></trkpt><trkpt lat="43.65902010703906" lon="10.675806033846479"><ele>21.0</ele><time>2026-05-01T07:10:51.999Z</time></trkpt><trkpt lat="43.65898494884507" lon="10.675619144420418"><ele>22.0</ele><time>2026-05-01T07:10:52.999Z</time></trkpt><trkpt lat="43.658953122425075" lon="10.675439460697152"><ele>23.0</ele><time>2026-05-01T07:10:53.999Z</time></trkpt><trkpt lat="43.658951379289334" lon="10.675266919336874"><ele>24.0</ele><time>2026-05-01T07:10:54.999Z</time></trkpt><trkpt lat="43.65898784352727" lon="10.67509853064337"><ele>25.0</ele><time>2026-05-01T07:10:55.999Z</time></trkpt><trkpt lat="43.65904907355101" lon="10.674940966700111"><ele>26.5</ele><time>2026-05-01T07:10:56.999Z</time></trkpt><trkpt lat="43.65912875497335" lon="10.674803414086034"><ele>28.0</ele><time>2026-05-01T07:10:57.999Z</time></trkpt><trkpt lat="43.65921253618009" lon="10.674697417748527"><ele>29.5</ele><time>2026-05-01T07:10:58.999Z</time></trkpt><trkpt lat="43.65929281267417" lon="10.67460116078082"><ele>31.0</ele><time>2026-05-01T07:10:59.999Z</time></trkpt><trkpt lat="43.659371532327704" lon="10.674502519529417"><ele>28.5</ele><time>2026-05-01T07:11:00.999Z</time></trkpt><trkpt lat="43.65945497342424" lon="10.674400665363065"><ele>26.0</ele><time>2026-05-01T07:11:01.999Z</time></trkpt><trkpt lat="43.65954608679855" lon="10.674291284060327"><ele>23.5</ele><time>2026-05-01T07:11:02.999Z</time></trkpt><trkpt lat="43.65964459467845" lon="10.67417304694914"><ele>21.0</ele><time>2026-05-01T07:11:03.999Z</time></trkpt><trkpt lat="43.65974644716542" lon="10.67404819595057"><ele>21.0</ele><time>2026-05-01T07:11:04.999Z</time></trkpt><trkpt lat="43.65983851496771" lon="10.673929136999785"><ele>21.0</ele><time>2026-05-01T07:11:05.999Z</time></trkpt><trkpt lat="43.65992147923719" lon="10.673814288972201"><ele>21.0</ele><time>2026-05-01T07:11:06.999Z</time></trkpt><trkpt lat="43.65999252512252" lon="10.6737046516767"><ele>21.0</ele><time>2026-05-01T07:11:07.999Z</time></trkpt><trkpt lat="43.66005289546641" lon="10.673590364683639"><ele>20.75</ele><time>2026-05-01T07:11:08.999Z</time></trkpt><trkpt lat="43.66011366316432" lon="10.673466340010586"><ele>20.5</ele><time>2026-05-01T07:11:09.999Z</time></trkpt><trkpt lat="43.66018324545975" lon="10.673328765471014"><ele>20.25</ele><time>2026-05-01T07:11:10.999Z</time></trkpt><trkpt lat="43.66025067302075" lon="10.67317738119989"><ele>20.0</ele><time>2026-05-01T07:11:11.999Z</time></trkpt><trkpt lat="43.660317068734685" lon="10.673017086780636"><ele>18.666666666666668</ele><time>2026-05-01T07:11:12.999Z</time></trkpt><trkpt lat="43.66038975592944" lon="10.67284390379933"><ele>17.333333333333332</ele><time>2026-05-01T07:11:13.999Z</time></trkpt><trkpt lat="43.660475456996224" lon="10.67266117487118"><ele>16.0</ele><time>2026-05-01T07:11:14.999Z</time></trkpt><trkpt lat="43.66056629248902" lon="10.672493641684495"><ele>16.0</ele><time>2026-05-01T07:11:15.999Z</time></trkpt><trkpt lat="43.660670218340414" lon="10.672340159775993"><ele>16.0</ele><time>2026-05-01T07:11:16.999Z</time></trkpt><trkpt lat="43.660786423759106" lon="10.672200236880151"><ele>16.0</ele><time>2026-05-01T07:11:17.999Z</time></trkpt><trkpt lat="43.6609029362392" lon="10.672052985285173"><ele>16.0</ele><time>2026-05-01T07:11:18.999Z</time></trkpt><trkpt lat="43.661013942265605" lon="10.671891522256262"><ele>16.0</ele><time>2026-05-01T07:11:19.999Z</time></trkpt><trkpt lat="43.661131112184655" lon="10.671731965725952"><ele>16.0</ele><time>2026-05-01T07:11:20.998Z</time></trkpt><trkpt lat="43.66124977574768" lon="10.671570034184715"><ele>15.666666666666666</ele><time>2026-05-01T07:11:21.998Z</time></trkpt><trkpt lat="43.661366769173355" lon="10.671399571633623"><ele>15.333333333333332</ele><time>2026-05-01T07:11:22.998Z</time></trkpt><trkpt lat="43.66148192423447" lon="10.671226952375239"><ele>15.0</ele><time>2026-05-01T07:11:23.998Z</time></trkpt><trkpt lat="43.66159589158957" lon="10.671051625462683"><ele>15.0</ele><time>2026-05-01T07:11:24.998Z</time></trkpt><trkpt lat="43.66170390897035" lon="10.67087240380504"><ele>15.0</ele><time>2026-05-01T07:11:25.998Z</time></trkpt><trkpt lat="43.661804388937796" lon="10.67067830543101"><ele>15.0</ele><time>2026-05-01T07:11:26.998Z</time></trkpt><trkpt lat="43.66189877336287" lon="10.6704738989984"><ele>14.666666666666668</ele><time>2026-05-01T07:11:27.998Z</time></trkpt><trkpt lat="43.661989904435565" lon="10.6702730350904"><ele>14.333333333333334</ele><time>2026-05-01T07:11:28.998Z</time></trkpt><trkpt lat="43.66207829964481" lon="10.670071176052359"><ele>14.0</ele><time>2026-05-01T07:11:29.998Z</time></trkpt><trkpt lat="43.662162965107335" lon="10.669868416729694"><ele>14.0</ele><time>2026-05-01T07:11:30.998Z</time></trkpt><trkpt lat="43.66224795646012" lon="10.669668317937305"><ele>14.0</ele><time>2026-05-01T07:11:31.998Z</time></trkpt><trkpt lat="43.66233302631484" lon="10.669471148787954"><ele>14.0</ele><time>2026-05-01T07:11:32.998Z</time></trkpt><trkpt lat="43.66242387827924" lon="10.669281925768916"><ele>15.0</ele><time>2026-05-01T07:11:33.998Z</time></trkpt><trkpt lat="43.66253216659355" lon="10.669110156245658"><ele>16.0</ele><time>2026-05-01T07:11:34.998Z</time></trkpt><trkpt lat="43.66265260217635" lon="10.668954954589877"><ele>17.0</ele><time>2026-05-01T07:11:35.998Z</time></trkpt><trkpt lat="43.662767583132485" lon="10.668794011994763"><ele>17.0</ele><time>2026-05-01T07:11:36.998Z</time></trkpt><trkpt lat="43.662869965783386" lon="10.668628249293635"><ele>17.0</ele><time>2026-05-01T07:11:37.998Z</time></trkpt><trkpt lat="43.662975297566085" lon="10.668467771376188"><ele>17.0</ele><time>2026-05-01T07:11:38.998Z</time></trkpt><trkpt lat="43.66308036902063" lon="10.668316036446424"><ele>17.0</ele><time>2026-05-01T07:11:39.998Z</time></trkpt><trkpt lat="43.66318339221083" lon="10.668163405445602"><ele>17.0</ele><time>2026-05-01T07:11:40.998Z</time></trkpt><trkpt lat="43.66327611451256" lon="10.668002640278504"><ele>17.0</ele><time>2026-05-01T07:11:41.998Z</time></trkpt><trkpt lat="43.663353707954364" lon="10.667828052282797"><ele>17.0</ele><time>2026-05-01T07:11:42.998Z</time></trkpt><trkpt lat="43.66340445742915" lon="10.667634611951852"><ele>17.0</ele><time>2026-05-01T07:11:43.998Z</time></trkpt><trkpt lat="43.66344325973504" lon="10.66744094637192"><ele>17.0</ele><time>2026-05-01T07:11:44.998Z</time></trkpt><trkpt lat="43.66347586289356" lon="10.667251090274739"><ele>17.0</ele><time>2026-05-01T07:11:45.998Z</time></trkpt><trkpt lat="43.66350742294506" lon="10.667067657253568"><ele>17.0</ele><time>2026-05-01T07:11:46.998Z</time></trkpt><trkpt lat="43.66353562477318" lon="10.66688025234641"><ele>16.5</ele><time>2026-05-01T07:11:47.998Z</time></trkpt><trkpt lat="43.66356600323145" lon="10.666697922870839"><ele>16.0</ele><time>2026-05-01T07:11:48.998Z</time></trkpt><trkpt lat="43.6635993968321" lon="10.666515383541647"><ele>15.5</ele><time>2026-05-01T07:11:50Z</time></trkpt><trkpt lat="43.66363096419018" lon="10.666340668596748"><ele>15.0</ele><time>2026-05-01T07:11:51Z</time></trkpt><trkpt lat="43.663660578175104" lon="10.666172829681612"><ele>15.0</ele><time>2026-05-01T07:11:52Z</time></trkpt><trkpt lat="43.66368739161555" lon="10.666019391661832"><ele>15.0</ele><time>2026-05-01T07:11:53Z</time></trkpt><trkpt lat="43.66371413583824" lon="10.665881957994491"><ele>15.0</ele><time>2026-05-01T07:11:54Z</time></trkpt><trkpt lat="43.66373805865869" lon="10.665753803007341"><ele>15.0</ele><time>2026-05-01T07:11:55Z</time></trkpt><trkpt lat="43.663756309016364" lon="10.665636802587443"><ele>15.0</ele><time>2026-05-01T07:11:56Z</time></trkpt><trkpt lat="43.663778299874394" lon="10.665510354781539"><ele>15.0</ele><time>2026-05-01T07:11:57Z</time></trkpt><trkpt lat="43.663802936256836" lon="10.665368737172642"><ele>15.0</ele><time>2026-05-01T07:11:58Z</time></trkpt><trkpt lat="43.663830401708324" lon="10.665215805189403"><ele>15.0</ele><time>2026-05-01T07:11:59Z</time></trkpt><trkpt lat="43.6638573494326" lon="10.665058413341669"><ele>15.0</ele><time>2026-05-01T07:12:00Z</time></trkpt><trkpt lat="43.663887624562" lon="10.664895399038189"><ele>15.0</ele><time>2026-05-01T07:12:01Z</time></trkpt><trkpt lat="43.66392483338708" lon="10.664731335910398"><ele>15.0</ele><time>2026-05-01T07:12:02Z</time></trkpt><trkpt lat="43.66395886908592" lon="10.664560125429356"><ele>15.0</ele><time>2026-05-01T07:12:03Z</time></trkpt><trkpt lat="43.66398590987468" lon="10.664395964155728"><ele>15.0</ele><time>2026-05-01T07:12:04Z</time></trkpt><trkpt lat="43.6640142089838" lon="10.664226361430856"><ele>14.5</ele><time>2026-05-01T07:12:05Z</time></trkpt><trkpt lat="43.664046818157914" lon="10.664052275809674"><ele>14.0</ele><time>2026-05-01T07:12:06Z</time></trkpt><trkpt lat="43.66408069482429" lon="10.663876466992463"><ele>13.5</ele><time>2026-05-01T07:12:07Z</time></trkpt><trkpt lat="43.66411439674204" lon="10.663696063732779"><ele>13.0</ele><time>2026-05-01T07:12:08Z</time></trkpt><trkpt lat="43.664146254653964" lon="10.663516805701306"><ele>13.0</ele><time>2026-05-01T07:12:09Z</time></trkpt><trkpt lat="43.66417575555791" lon="10.663345790649272"><ele>13.0</ele><time>2026-05-01T07:12:10Z</time></trkpt><trkpt lat="43.664203187776664" lon="10.66318801999651"><ele>13.0</ele><time>2026-05-01T07:12:11Z</time></trkpt><trkpt lat="43.66422939238411" lon="10.663046609306507"><ele>13.0</ele><time>2026-05-01T07:12:12Z</time></trkpt><trkpt lat="43.66425366656415" lon="10.662909920193849"><ele>13.5</ele><time>2026-05-01T07:12:13Z</time></trkpt><trkpt lat="43.664278412027066" lon="10.66275590143333"><ele>14.0</ele><time>2026-05-01T07:12:14Z</time></trkpt><trkpt lat="43.664301895135495" lon="10.662591606158331"><ele>14.5</ele><time>2026-05-01T07:12:15Z</time></trkpt><trkpt lat="43.6643266529248" lon="10.66241389298484"><ele>15.0</ele><time>2026-05-01T07:12:16Z</time></trkpt><trkpt lat="43.6643601255516" lon="10.66223530623449"><ele>15.0</ele><time>2026-05-01T07:12:17Z</time></trkpt><trkpt lat="43.66439443519399" lon="10.662050859507545"><ele>15.0</ele><time>2026-05-01T07:12:18Z</time></trkpt><trkpt lat="43.66443179702033" lon="10.661850404396178"><ele>15.0</ele><time>2026-05-01T07:12:19Z</time></trkpt><trkpt lat="43.66446890346826" lon="10.661653377215131"><ele>15.0</ele><time>2026-05-01T07:12:20Z</time></trkpt><trkpt lat="43.66450333828731" lon="10.661463466111249"><ele>15.0</ele><time>2026-05-01T07:12:21Z</time></trkpt><trkpt lat="43.66453585542165" lon="10.66127735910205"><ele>15.0</ele><time>2026-05-01T07:12:22Z</time></trkpt><trkpt lat="43.66456814872447" lon="10.66108385493687"><ele>15.0</ele><time>2026-05-01T07:12:23Z</time></trkpt><trkpt lat="43.66460192878682" lon="10.660891082811904"><ele>15.0</ele><time>2026-05-01T07:12:24Z</time></trkpt><trkpt lat="43.66464067026204" lon="10.660706418881361"><ele>14.75</ele><time>2026-05-01T07:12:25Z</time></trkpt><trkpt lat="43.66467291551247" lon="10.660520593420785"><ele>14.5</ele><time>2026-05-01T07:12:26Z</time></trkpt><trkpt lat="43.664697375923204" lon="10.660337252383203"><ele>14.25</ele><time>2026-05-01T07:12:27Z</time></trkpt><trkpt lat="43.6647292037742" lon="10.660165486843326"><ele>14.0</ele><time>2026-05-01T07:12:28Z</time></trkpt><trkpt lat="43.664763400136216" lon="10.660006714045394"><ele>14.0</ele><time>2026-05-01T07:12:29Z</time></trkpt><trkpt lat="43.66479056075357" lon="10.659854589699837"><ele>13.999999999999998</ele><time>2026-05-01T07:12:30Z</time></trkpt><trkpt lat="43.66481374124418" lon="10.659712699112504"><ele>13.999999999999998</ele><time>2026-05-01T07:12:31Z</time></trkpt><trkpt lat="43.664836387975754" lon="10.65958262899723"><ele>14.0</ele><time>2026-05-01T07:12:32Z</time></trkpt><trkpt lat="43.66486051964849" lon="10.659459965211848"><ele>14.0</ele><time>2026-05-01T07:12:33Z</time></trkpt><trkpt lat="43.66488263088631" lon="10.65934951642645"><ele>14.166666666666668</ele><time>2026-05-01T07:12:34Z</time></trkpt><trkpt lat="43.66490137751977" lon="10.659242073985572"><ele>14.333333333333334</ele><time>2026-05-01T07:12:35Z</time></trkpt><trkpt lat="43.66491703406593" lon="10.659155004931653"><ele>14.5</ele><time>2026-05-01T07:12:36Z</time></trkpt><trkpt lat="43.66493583225434" lon="10.659042009681759"><ele>14.666666666666668</ele><time>2026-05-01T07:12:38Z</time></trkpt><trkpt lat="43.66493693818044" lon="10.658927250380756"><ele>14.833333333333334</ele><time>2026-05-01T07:12:44Z</time></trkpt><trkpt lat="43.66494649670044" lon="10.658808419248235"><ele>15.0</ele><time>2026-05-01T07:12:46.999Z</time></trkpt><trkpt lat="43.66498557353788" lon="10.658704403119485"><ele>14.8</ele><time>2026-05-01T07:12:53.999Z</time></trkpt><trkpt lat="43.665044179612" lon="10.65856614573471"><ele>14.6</ele><time>2026-05-01T07:12:55.999Z</time></trkpt><trkpt lat="43.665067428050406" lon="10.658466094131375"><ele>14.399999999999999</ele><time>2026-05-01T07:12:56.999Z</time></trkpt><trkpt lat="43.66508121872426" lon="10.658348050492672"><ele>14.2</ele><time>2026-05-01T07:12:57.999Z</time></trkpt><trkpt lat="43.66507300691124" lon="10.65822855166938"><ele>14.0</ele><time>2026-05-01T07:12:58.999Z</time></trkpt><trkpt lat="43.6650436792382" lon="10.65811065313064"><ele>14.0</ele><time>2026-05-01T07:12:59.999Z</time></trkpt><trkpt lat="43.66499318435993" lon="10.6580057828575"><ele>13.999999999999998</ele><time>2026-05-01T07:13:00.999Z</time></trkpt><trkpt lat="43.66492359365107" lon="10.657929436579664"><ele>13.999999999999998</ele><time>2026-05-01T07:13:01.999Z</time></trkpt><trkpt lat="43.6648325836699" lon="10.657875174472153"><ele>14.0</ele><time>2026-05-01T07:13:02.999Z</time></trkpt><trkpt lat="43.66472176881603" lon="10.657858345747638"><ele>14.0</ele><time>2026-05-01T07:13:03.999Z</time></trkpt><trkpt lat="43.66460246342778" lon="10.65786764992589"><ele>14.0</ele><time>2026-05-01T07:13:04.999Z</time></trkpt><trkpt lat="43.6644838039689" lon="10.657876180221487"><ele>14.0</ele><time>2026-05-01T07:13:05.999Z</time></trkpt><trkpt lat="43.66435714217541" lon="10.657831982832304"><ele>14.0</ele><time>2026-05-01T07:13:06.999Z</time></trkpt><trkpt lat="43.66422886174141" lon="10.657756493980237"><ele>14.0</ele><time>2026-05-01T07:13:07.999Z</time></trkpt><trkpt lat="43.66408843557739" lon="10.657679643857827"><ele>14.333333333333334</ele><time>2026-05-01T07:13:08.999Z</time></trkpt><trkpt lat="43.66393673317941" lon="10.657620317731801"><ele>14.666666666666668</ele><time>2026-05-01T07:13:09.999Z</time></trkpt><trkpt lat="43.663784679249986" lon="10.657573396716929"><ele>15.0</ele><time>2026-05-01T07:13:10.999Z</time></trkpt><trkpt lat="43.66362440812115" lon="10.657533836049902"><ele>14.666666666666668</ele><time>2026-05-01T07:13:11.999Z</time></trkpt><trkpt lat="43.6634653521053" lon="10.65750354297375"><ele>14.333333333333334</ele><time>2026-05-01T07:13:12.999Z</time></trkpt><trkpt lat="43.66330120658299" lon="10.657485791302244"><ele>14.0</ele><time>2026-05-01T07:13:13.999Z</time></trkpt><trkpt lat="43.663133866295006" lon="10.65747983107512"><ele>14.0</ele><time>2026-05-01T07:13:14.999Z</time></trkpt><trkpt lat="43.66296505156998" lon="10.657482506726403"><ele>14.0</ele><time>2026-05-01T07:13:15.999Z</time></trkpt><trkpt lat="43.66279422494557" lon="10.657490015698766"><ele>14.0</ele><time>2026-05-01T07:13:16.999Z</time></trkpt><trkpt lat="43.662621200442885" lon="10.657500154474866"><ele>13.666666666666668</ele><time>2026-05-01T07:13:17.999Z</time></trkpt><trkpt lat="43.662449449036345" lon="10.657509857702939"><ele>13.333333333333332</ele><time>2026-05-01T07:13:18.999Z</time></trkpt><trkpt lat="43.66227665564112" lon="10.657518420843898"><ele>13.0</ele><time>2026-05-01T07:13:19.999Z</time></trkpt><trkpt lat="43.66210195732301" lon="10.657522073197024"><ele>13.0</ele><time>2026-05-01T07:13:20.999Z</time></trkpt><trkpt lat="43.66192341617874" lon="10.657526522007162"><ele>13.0</ele><time>2026-05-01T07:13:21.999Z</time></trkpt><trkpt lat="43.66174489620207" lon="10.65753680231523"><ele>13.0</ele><time>2026-05-01T07:13:22.999Z</time></trkpt><trkpt lat="43.66156743774933" lon="10.657548450498933"><ele>13.0</ele><time>2026-05-01T07:13:23.999Z</time></trkpt><trkpt lat="43.661391504286684" lon="10.657556446255253"><ele>13.0</ele><time>2026-05-01T07:13:24.999Z</time></trkpt><trkpt lat="43.66121551825958" lon="10.657567664411674"><ele>13.0</ele><time>2026-05-01T07:13:25.999Z</time></trkpt><trkpt lat="43.66104032078863" lon="10.657580440851786"><ele>13.0</ele><time>2026-05-01T07:13:26.999Z</time></trkpt><trkpt lat="43.660865692533086" lon="10.657592000057738"><ele>13.0</ele><time>2026-05-01T07:13:27.999Z</time></trkpt><trkpt lat="43.660691802879384" lon="10.657602375129352"><ele>13.0</ele><time>2026-05-01T07:13:28.999Z</time></trkpt><trkpt lat="43.66051892597413" lon="10.657606222000087"><ele>13.0</ele><time>2026-05-01T07:13:29.999Z</time></trkpt><trkpt lat="43.660345804420565" lon="10.65761116821786"><ele>13.0</ele><time>2026-05-01T07:13:30.998Z</time></trkpt><trkpt lat="43.660173690786785" lon="10.657617820774341"><ele>13.0</ele><time>2026-05-01T07:13:31.998Z</time></trkpt><trkpt lat="43.66000089881301" lon="10.657624012408354"><ele>13.0</ele><time>2026-05-01T07:13:32.998Z</time></trkpt><trkpt lat="43.65983080708175" lon="10.657635568565881"><ele>13.0</ele><time>2026-05-01T07:13:33.998Z</time></trkpt><trkpt lat="43.659657997921826" lon="10.657642196748265"><ele>13.0</ele><time>2026-05-01T07:13:34.997Z</time></trkpt><trkpt lat="43.65948798778622" lon="10.657649061435238"><ele>13.666666666666666</ele><time>2026-05-01T07:13:35.997Z</time></trkpt><trkpt lat="43.659315435577845" lon="10.657657852687741"><ele>14.333333333333332</ele><time>2026-05-01T07:13:36.997Z</time></trkpt><trkpt lat="43.659142382169875" lon="10.657665801094257"><ele>15.0</ele><time>2026-05-01T07:13:37.997Z</time></trkpt><trkpt lat="43.65897156149572" lon="10.657674597900693"><ele>15.0</ele><time>2026-05-01T07:13:38.997Z</time></trkpt><trkpt lat="43.65880051810427" lon="10.657682317627257"><ele>15.0</ele><time>2026-05-01T07:13:39.997Z</time></trkpt><trkpt lat="43.65863204980044" lon="10.657689597389433"><ele>15.0</ele><time>2026-05-01T07:13:40.997Z</time></trkpt><trkpt lat="43.658460827592826" lon="10.657699144908594"><ele>15.0</ele><time>2026-05-01T07:13:41.997Z</time></trkpt><trkpt lat="43.65828779327479" lon="10.657706486700313"><ele>15.0</ele><time>2026-05-01T07:13:42.997Z</time></trkpt><trkpt lat="43.658114386790444" lon="10.657716821979834"><ele>15.0</ele><time>2026-05-01T07:13:43.997Z</time></trkpt><trkpt lat="43.657940675469604" lon="10.657726052461625"><ele>15.333333333333332</ele><time>2026-05-01T07:13:44.997Z</time></trkpt><trkpt lat="43.6577671356732" lon="10.657732423281836"><ele>15.666666666666666</ele><time>2026-05-01T07:13:45.997Z</time></trkpt><trkpt lat="43.65759528516638" lon="10.65774130217062"><ele>16.0</ele><time>2026-05-01T07:13:46.997Z</time></trkpt><trkpt lat="43.6574210199916" lon="10.657756068350093"><ele>16.0</ele><time>2026-05-01T07:13:47.997Z</time></trkpt><trkpt lat="43.65724748908406" lon="10.657773712986813"><ele>16.0</ele><time>2026-05-01T07:13:48.997Z</time></trkpt><trkpt lat="43.65707168425898" lon="10.65777031760356"><ele>16.0</ele><time>2026-05-01T07:13:49.997Z</time></trkpt><trkpt lat="43.65689764098137" lon="10.657752944542779"><ele>16.0</ele><time>2026-05-01T07:13:50.997Z</time></trkpt><trkpt lat="43.65672314853836" lon="10.657724261506718"><ele>16.0</ele><time>2026-05-01T07:13:51.997Z</time></trkpt><trkpt lat="43.65654933883879" lon="10.657685122227816"><ele>16.0</ele><time>2026-05-01T07:13:52.997Z</time></trkpt><trkpt lat="43.65637637452514" lon="10.657620874021358"><ele>16.0</ele><time>2026-05-01T07:13:53.997Z</time></trkpt><trkpt lat="43.65620932995328" lon="10.657534083338005"><ele>16.0</ele><time>2026-05-01T07:13:54.997Z</time></trkpt><trkpt lat="43.656044698108865" lon="10.657429808639739"><ele>16.0</ele><time>2026-05-01T07:13:56Z</time></trkpt><trkpt lat="43.65589043595215" lon="10.657309898455969"><ele>15.666666666666666</ele><time>2026-05-01T07:13:57Z</time></trkpt><trkpt lat="43.65573988484046" lon="10.657174093466857"><ele>15.333333333333332</ele><time>2026-05-01T07:13:58Z</time></trkpt><trkpt lat="43.65560427091537" lon="10.65702678655582"><ele>15.0</ele><time>2026-05-01T07:13:59Z</time></trkpt><trkpt lat="43.65548101661963" lon="10.656876482111993"><ele>15.0</ele><time>2026-05-01T07:14:00Z</time></trkpt><trkpt lat="43.65537052902521" lon="10.656727109138805"><ele>15.0</ele><time>2026-05-01T07:14:01Z</time></trkpt><trkpt lat="43.6552753762632" lon="10.656586998624102"><ele>15.0</ele><time>2026-05-01T07:14:02Z</time></trkpt><trkpt lat="43.65519090786299" lon="10.656458664521502"><ele>15.0</ele><time>2026-05-01T07:14:03Z</time></trkpt><trkpt lat="43.65511215277549" lon="10.656339566833987"><ele>15.0</ele><time>2026-05-01T07:14:04Z</time></trkpt><trkpt lat="43.65504256136583" lon="10.656218282987119"><ele>15.0</ele><time>2026-05-01T07:14:05Z</time></trkpt><trkpt lat="43.65498969012788" lon="10.656085422041963"><ele>15.0</ele><time>2026-05-01T07:14:06Z</time></trkpt><trkpt lat="43.65495779922028" lon="10.655928004291418"><ele>15.0</ele><time>2026-05-01T07:14:07Z</time></trkpt><trkpt lat="43.654941328007176" lon="10.65575979829383"><ele>15.0</ele><time>2026-05-01T07:14:08Z</time></trkpt><trkpt lat="43.6549055914387" lon="10.655592230453559"><ele>15.0</ele><time>2026-05-01T07:14:09Z</time></trkpt><trkpt lat="43.65484294216367" lon="10.655437896102894"><ele>15.0</ele><time>2026-05-01T07:14:10Z</time></trkpt><trkpt lat="43.65475847621726" lon="10.655291523662914"><ele>15.0</ele><time>2026-05-01T07:14:11Z</time></trkpt><trkpt lat="43.65466635827361" lon="10.655161303178527"><ele>15.0</ele><time>2026-05-01T07:14:11.999Z</time></trkpt><trkpt lat="43.65457029601769" lon="10.655054123880562"><ele>15.0</ele><time>2026-05-01T07:14:12.999Z</time></trkpt><trkpt lat="43.65447298661538" lon="10.654977487154955"><ele>15.0</ele><time>2026-05-01T07:14:13.999Z</time></trkpt><trkpt lat="43.65437267203909" lon="10.654941739392953"><ele>15.0</ele><time>2026-05-01T07:14:14.999Z</time></trkpt><trkpt lat="43.654263008282875" lon="10.654916375963431"><ele>15.0</ele><time>2026-05-01T07:14:15.999Z</time></trkpt><trkpt lat="43.65414891099534" lon="10.654980289110183"><ele>15.0</ele><time>2026-05-01T07:14:16.999Z</time></trkpt><trkpt lat="43.65404367235816" lon="10.655056339251999"><ele>15.0</ele><time>2026-05-01T07:14:17.999Z</time></trkpt><trkpt lat="43.653963132632654" lon="10.655142700665529"><ele>15.0</ele><time>2026-05-01T07:14:18.999Z</time></trkpt><trkpt lat="43.65392351610945" lon="10.655237533703378"><ele>15.0</ele><time>2026-05-01T07:14:19.999Z</time></trkpt><trkpt lat="43.653744210098" lon="10.655225221082093"><ele>15.0</ele><time>2026-05-01T07:14:21.999Z</time></trkpt><trkpt lat="43.653651425281474" lon="10.65519562485922"><ele>15.0</ele><time>2026-05-01T07:14:22.999Z</time></trkpt><trkpt lat="43.65355496980166" lon="10.65516040063949"><ele>15.0</ele><time>2026-05-01T07:14:23.999Z</time></trkpt><trkpt lat="43.65345028339243" lon="10.655134397361836"><ele>15.0</ele><time>2026-05-01T07:14:24.999Z</time></trkpt><trkpt lat="43.65333662070675" lon="10.65511087684872"><ele>15.0</ele><time>2026-05-01T07:14:25.999Z</time></trkpt><trkpt lat="43.6532243726787" lon="10.655088971687443"><ele>16.0</ele><time>2026-05-01T07:14:26.999Z</time></trkpt><trkpt lat="43.65310158048568" lon="10.655079767068269"><ele>17.0</ele><time>2026-05-01T07:14:27.999Z</time></trkpt><trkpt lat="43.65296759147136" lon="10.655085624575877"><ele>18.0</ele><time>2026-05-01T07:14:28.999Z</time></trkpt><trkpt lat="43.65283024444306" lon="10.65509745733828"><ele>19.0</ele><time>2026-05-01T07:14:29.999Z</time></trkpt><trkpt lat="43.65269087413468" lon="10.655119399967347"><ele>19.75</ele><time>2026-05-01T07:14:30.999Z</time></trkpt><trkpt lat="43.652553099050536" lon="10.655150968657566"><ele>20.5</ele><time>2026-05-01T07:14:31.999Z</time></trkpt><trkpt lat="43.65241457630769" lon="10.655198445245878"><ele>21.25</ele><time>2026-05-01T07:14:32.999Z</time></trkpt><trkpt lat="43.65228184559145" lon="10.655254279512189"><ele>22.0</ele><time>2026-05-01T07:14:33.999Z</time></trkpt><trkpt lat="43.65215001854252" lon="10.655314305239912"><ele>22.5</ele><time>2026-05-01T07:14:34.999Z</time></trkpt><trkpt lat="43.65201649458445" lon="10.65538033511697"><ele>23.0</ele><time>2026-05-01T07:14:35.999Z</time></trkpt><trkpt lat="43.6518798254284" lon="10.655447157618074"><ele>23.5</ele><time>2026-05-01T07:14:36.999Z</time></trkpt><trkpt lat="43.651742102721045" lon="10.655513986994427"><ele>24.0</ele><time>2026-05-01T07:14:37.999Z</time></trkpt><trkpt lat="43.651605658230736" lon="10.655581112731998"><ele>24.5</ele><time>2026-05-01T07:14:38.999Z</time></trkpt><trkpt lat="43.651471667905994" lon="10.655650027209685"><ele>25.0</ele><time>2026-05-01T07:14:39.999Z</time></trkpt><trkpt lat="43.651340790627934" lon="10.655717749982411"><ele>25.5</ele><time>2026-05-01T07:14:40.999Z</time></trkpt><trkpt lat="43.65121281229995" lon="10.655780172129628"><ele>26.0</ele><time>2026-05-01T07:14:41.999Z</time></trkpt><trkpt lat="43.65109362258345" lon="10.655833128693704"><ele>26.5</ele><time>2026-05-01T07:14:42.999Z</time></trkpt><trkpt lat="43.65097357409921" lon="10.655889938770326"><ele>27.0</ele><time>2026-05-01T07:14:43.999Z</time></trkpt><trkpt lat="43.65085057836752" lon="10.655955387410286"><ele>27.5</ele><time>2026-05-01T07:14:44.999Z</time></trkpt><trkpt lat="43.65074021803235" lon="10.65601213882743"><ele>28.0</ele><time>2026-05-01T07:14:45.999Z</time></trkpt><trkpt lat="43.6506412708999" lon="10.656052714367622"><ele>28.0</ele><time>2026-05-01T07:14:46.999Z</time></trkpt><trkpt lat="43.65053998621799" lon="10.656060590239342"><ele>27.999999999999996</ele><time>2026-05-01T07:14:48.999Z</time></trkpt><trkpt lat="43.65046091272527" lon="10.656069300670415"><ele>27.999999999999996</ele><time>2026-05-01T07:14:50.999Z</time></trkpt><trkpt lat="43.65038116832139" lon="10.656099743042487"><ele>28.0</ele><time>2026-05-01T07:14:51.999Z</time></trkpt><trkpt lat="43.650283231165574" lon="10.656120609382242"><ele>28.0</ele><time>2026-05-01T07:14:52.999Z</time></trkpt><trkpt lat="43.65016122046905" lon="10.656124510374827"><ele>28.5</ele><time>2026-05-01T07:14:53.999Z</time></trkpt><trkpt lat="43.65001612321904" lon="10.656124215239414"><ele>29.0</ele><time>2026-05-01T07:14:54.999Z</time></trkpt><trkpt lat="43.64987664710853" lon="10.656116326045407"><ele>29.5</ele><time>2026-05-01T07:14:55.999Z</time></trkpt><trkpt lat="43.64972885637161" lon="10.656108266076917"><ele>30.0</ele><time>2026-05-01T07:14:56.999Z</time></trkpt><trkpt lat="43.649577873837195" lon="10.656094531459091"><ele>29.5</ele><time>2026-05-01T07:14:57.999Z</time></trkpt><trkpt lat="43.64942605535885" lon="10.656075682399928"><ele>29.0</ele><time>2026-05-01T07:14:58.998Z</time></trkpt><trkpt lat="43.649278450668795" lon="10.65604685837905"><ele>28.5</ele><time>2026-05-01T07:14:59.998Z</time></trkpt><trkpt lat="43.649135637537626" lon="10.656019151257414"><ele>28.0</ele><time>2026-05-01T07:15:00.998Z</time></trkpt><trkpt lat="43.64899220869717" lon="10.655990884135589"><ele>28.0</ele><time>2026-05-01T07:15:01.998Z</time></trkpt><trkpt lat="43.648848688338724" lon="10.655964720723112"><ele>28.0</ele><time>2026-05-01T07:15:02.998Z</time></trkpt><trkpt lat="43.64870455292259" lon="10.655935332478554"><ele>28.0</ele><time>2026-05-01T07:15:03.998Z</time></trkpt><trkpt lat="43.64855458564011" lon="10.6559055208063"><ele>28.0</ele><time>2026-05-01T07:15:04.998Z</time></trkpt><trkpt lat="43.6484023205307" lon="10.655878502332882"><ele>29.0</ele><time>2026-05-01T07:15:05.998Z</time></trkpt><trkpt lat="43.64824826361264" lon="10.655840925978673"><ele>30.0</ele><time>2026-05-01T07:15:06.998Z</time></trkpt><trkpt lat="43.64809458058505" lon="10.65578837099301"><ele>31.0</ele><time>2026-05-01T07:15:07.998Z</time></trkpt><trkpt lat="43.64794110945166" lon="10.655723877441991"><ele>31.0</ele><time>2026-05-01T07:15:08.998Z</time></trkpt><trkpt lat="43.6477875017373" lon="10.655645605823166"><ele>31.0</ele><time>2026-05-01T07:15:09.998Z</time></trkpt><trkpt lat="43.64763833397056" lon="10.655553303386261"><ele>31.0</ele><time>2026-05-01T07:15:10.998Z</time></trkpt><trkpt lat="43.64749366304856" lon="10.655448259485988"><ele>31.0</ele><time>2026-05-01T07:15:11.998Z</time></trkpt><trkpt lat="43.647349900094994" lon="10.655335436086345"><ele>31.0</ele><time>2026-05-01T07:15:12.998Z</time></trkpt><trkpt lat="43.6472049551268" lon="10.65521841098283"><ele>31.0</ele><time>2026-05-01T07:15:13.998Z</time></trkpt><trkpt lat="43.64706568241786" lon="10.655084310072807"><ele>30.666666666666668</ele><time>2026-05-01T07:15:14.998Z</time></trkpt><trkpt lat="43.64694167391759" lon="10.654943374575787"><ele>30.333333333333336</ele><time>2026-05-01T07:15:15.998Z</time></trkpt><trkpt lat="43.646814546567754" lon="10.654789782416069"><ele>30.0</ele><time>2026-05-01T07:15:16.998Z</time></trkpt><trkpt lat="43.64669027360791" lon="10.65462267526584"><ele>28.666666666666664</ele><time>2026-05-01T07:15:17.998Z</time></trkpt><trkpt lat="43.646572292767246" lon="10.654445239145046"><ele>27.333333333333332</ele><time>2026-05-01T07:15:18.998Z</time></trkpt><trkpt lat="43.646460873735045" lon="10.654254743013954"><ele>26.0</ele><time>2026-05-01T07:15:19.998Z</time></trkpt><trkpt lat="43.64635722319809" lon="10.654054249328619"><ele>26.0</ele><time>2026-05-01T07:15:20.998Z</time></trkpt><trkpt lat="43.64626500745377" lon="10.653846381689347"><ele>26.0</ele><time>2026-05-01T07:15:21.998Z</time></trkpt><trkpt lat="43.64618059236823" lon="10.65363177848976"><ele>26.0</ele><time>2026-05-01T07:15:22.998Z</time></trkpt><trkpt lat="43.64610014565015" lon="10.653409474778359"><ele>24.333333333333332</ele><time>2026-05-01T07:15:23.998Z</time></trkpt><trkpt lat="43.64602282103738" lon="10.653187218066039"><ele>22.666666666666664</ele><time>2026-05-01T07:15:24.998Z</time></trkpt><trkpt lat="43.645942688085604" lon="10.65295516085511"><ele>21.0</ele><time>2026-05-01T07:15:25.998Z</time></trkpt><trkpt lat="43.645865970010654" lon="10.652733803460452"><ele>19.666666666666668</ele><time>2026-05-01T07:15:26.998Z</time></trkpt><trkpt lat="43.64578858308451" lon="10.652503866258925"><ele>18.333333333333336</ele><time>2026-05-01T07:15:27.998Z</time></trkpt><trkpt lat="43.64571066739025" lon="10.652276768311573"><ele>17.0</ele><time>2026-05-01T07:15:28.998Z</time></trkpt><trkpt lat="43.64562961323166" lon="10.65205125506555"><ele>16.0</ele><time>2026-05-01T07:15:29.998Z</time></trkpt><trkpt lat="43.645555793546706" lon="10.651814750711674"><ele>15.0</ele><time>2026-05-01T07:15:30.998Z</time></trkpt><trkpt lat="43.64547947714944" lon="10.651589599064721"><ele>14.0</ele><time>2026-05-01T07:15:31.998Z</time></trkpt><trkpt lat="43.6453976280517" lon="10.651358550980115"><ele>13.666666666666668</ele><time>2026-05-01T07:15:32.998Z</time></trkpt><trkpt lat="43.645308791370745" lon="10.651120222933681"><ele>13.333333333333332</ele><time>2026-05-01T07:15:33.998Z</time></trkpt><trkpt lat="43.645232592712695" lon="10.650923097212742"><ele>13.0</ele><time>2026-05-01T07:15:34.998Z</time></trkpt><trkpt lat="43.645119531466754" lon="10.650712080818344"><ele>14.333333333333332</ele><time>2026-05-01T07:15:35.998Z</time></trkpt><trkpt lat="43.6449963771323" lon="10.650527213184652"><ele>15.666666666666668</ele><time>2026-05-01T07:15:36.998Z</time></trkpt><trkpt lat="43.64486255393093" lon="10.650348325747467"><ele>17.0</ele><time>2026-05-01T07:15:37.998Z</time></trkpt><trkpt lat="43.64471659386822" lon="10.650180763147137"><ele>17.0</ele><time>2026-05-01T07:15:38.998Z</time></trkpt><trkpt lat="43.644565460489524" lon="10.650028194750067"><ele>17.0</ele><time>2026-05-01T07:15:39.998Z</time></trkpt><trkpt lat="43.64440582437088" lon="10.64990087033037"><ele>17.0</ele><time>2026-05-01T07:15:40.998Z</time></trkpt><trkpt lat="43.64423089806987" lon="10.649806706170239"><ele>18.666666666666668</ele><time>2026-05-01T07:15:41.998Z</time></trkpt><trkpt lat="43.64404725257467" lon="10.64973826760716"><ele>20.333333333333332</ele><time>2026-05-01T07:15:42.998Z</time></trkpt><trkpt lat="43.6438617869056" lon="10.649690474655273"><ele>22.0</ele><time>2026-05-01T07:15:43.998Z</time></trkpt><trkpt lat="43.643676135783785" lon="10.649665681567555"><ele>22.333333333333332</ele><time>2026-05-01T07:15:44.997Z</time></trkpt><trkpt lat="43.643489614568566" lon="10.649664332193147"><ele>22.666666666666668</ele><time>2026-05-01T07:15:45.997Z</time></trkpt><trkpt lat="43.64330285919321" lon="10.649690563520771"><ele>23.0</ele><time>2026-05-01T07:15:46.997Z</time></trkpt><trkpt lat="43.64312191128203" lon="10.649738260890514"><ele>23.0</ele><time>2026-05-01T07:15:47.997Z</time></trkpt><trkpt lat="43.64294500811545" lon="10.649791376776053"><ele>23.0</ele><time>2026-05-01T07:15:48.997Z</time></trkpt><trkpt lat="43.6427680186938" lon="10.64984433091469"><ele>23.0</ele><time>2026-05-01T07:15:49.997Z</time></trkpt><trkpt lat="43.64259141515074" lon="10.649895458744703"><ele>22.666666666666668</ele><time>2026-05-01T07:15:50.997Z</time></trkpt><trkpt lat="43.64241582452524" lon="10.649951538656666"><ele>22.333333333333332</ele><time>2026-05-01T07:15:51.997Z</time></trkpt><trkpt lat="43.64224424999978" lon="10.650012855945326"><ele>22.0</ele><time>2026-05-01T07:15:52.997Z</time></trkpt><trkpt lat="43.64207604582957" lon="10.65007625856238"><ele>22.666666666666664</ele><time>2026-05-01T07:15:53.997Z</time></trkpt><trkpt lat="43.641905920531975" lon="10.650136162944346"><ele>23.333333333333332</ele><time>2026-05-01T07:15:54.997Z</time></trkpt><trkpt lat="43.64173235078731" lon="10.650188725984748"><ele>24.0</ele><time>2026-05-01T07:15:55.997Z</time></trkpt><trkpt lat="43.641557251306935" lon="10.650235123389244"><ele>24.0</ele><time>2026-05-01T07:15:56.997Z</time></trkpt><trkpt lat="43.641383186801995" lon="10.650280749973923"><ele>24.0</ele><time>2026-05-01T07:15:57.997Z</time></trkpt><trkpt lat="43.6412120089355" lon="10.650327784577087"><ele>24.0</ele><time>2026-05-01T07:15:58.997Z</time></trkpt><trkpt lat="43.641041595082925" lon="10.650375865505657"><ele>24.0</ele><time>2026-05-01T07:15:59.997Z</time></trkpt><trkpt lat="43.64087437082588" lon="10.650417230990842"><ele>24.0</ele><time>2026-05-01T07:16:00.997Z</time></trkpt><trkpt lat="43.640713726452006" lon="10.650446840375347"><ele>24.0</ele><time>2026-05-01T07:16:02Z</time></trkpt><trkpt lat="43.64055731469182" lon="10.650472174536208"><ele>24.0</ele><time>2026-05-01T07:16:03Z</time></trkpt><trkpt lat="43.6404098189616" lon="10.650503958684823"><ele>24.0</ele><time>2026-05-01T07:16:04Z</time></trkpt><trkpt lat="43.640275913575856" lon="10.650547871167008"><ele>24.0</ele><time>2026-05-01T07:16:05Z</time></trkpt><trkpt lat="43.64015315171756" lon="10.650594868632247"><ele>24.0</ele><time>2026-05-01T07:16:06Z</time></trkpt><trkpt lat="43.6400400124699" lon="10.650640244008152"><ele>23.833333333333332</ele><time>2026-05-01T07:16:07Z</time></trkpt><trkpt lat="43.639939199635904" lon="10.650683347581756"><ele>23.666666666666668</ele><time>2026-05-01T07:16:08Z</time></trkpt><trkpt lat="43.639843740875044" lon="10.650725280307565"><ele>23.5</ele><time>2026-05-01T07:16:09Z</time></trkpt><trkpt lat="43.639761827828664" lon="10.650756178018103"><ele>23.333333333333336</ele><time>2026-05-01T07:16:10Z</time></trkpt><trkpt lat="43.639685925981794" lon="10.650777335312977"><ele>23.166666666666668</ele><time>2026-05-01T07:16:11Z</time></trkpt><trkpt lat="43.63960909888453" lon="10.650784759791424"><ele>23.0</ele><time>2026-05-01T07:16:12Z</time></trkpt><trkpt lat="43.6395284024364" lon="10.650785195049666"><ele>23.2</ele><time>2026-05-01T07:16:13Z</time></trkpt><trkpt lat="43.6394538121991" lon="10.650817853623003"><ele>23.4</ele><time>2026-05-01T07:16:14Z</time></trkpt><trkpt lat="43.63939393646586" lon="10.650898984375226"><ele>23.599999999999998</ele><time>2026-05-01T07:16:15Z</time></trkpt><trkpt lat="43.63934138884247" lon="10.651012091608656"><ele>23.799999999999997</ele><time>2026-05-01T07:16:16Z</time></trkpt><trkpt lat="43.63928677410308" lon="10.651146993112174"><ele>24.0</ele><time>2026-05-01T07:16:17Z</time></trkpt><trkpt lat="43.63921463010989" lon="10.651262348606595"><ele>24.0</ele><time>2026-05-01T07:16:18Z</time></trkpt><trkpt lat="43.63913541205889" lon="10.65135281109749"><ele>24.0</ele><time>2026-05-01T07:16:19Z</time></trkpt><trkpt lat="43.63904792884951" lon="10.651467318054534"><ele>24.0</ele><time>2026-05-01T07:16:20Z</time></trkpt><trkpt lat="43.638963537801516" lon="10.651594858526485"><ele>24.0</ele><time>2026-05-01T07:16:21Z</time></trkpt><trkpt lat="43.63887004702555" lon="10.651709784022158"><ele>24.0</ele><time>2026-05-01T07:16:22Z</time></trkpt><trkpt lat="43.63877545442457" lon="10.651817278570386"><ele>24.0</ele><time>2026-05-01T07:16:23Z</time></trkpt><trkpt lat="43.63868279379923" lon="10.651926680908266"><ele>24.0</ele><time>2026-05-01T07:16:23.999Z</time></trkpt><trkpt lat="43.63858862729675" lon="10.65203618605927"><ele>24.0</ele><time>2026-05-01T07:16:24.999Z</time></trkpt><trkpt lat="43.63849020368443" lon="10.652144687168075"><ele>24.0</ele><time>2026-05-01T07:16:25.999Z</time></trkpt><trkpt lat="43.638389441779935" lon="10.652256702101633"><ele>24.0</ele><time>2026-05-01T07:16:26.999Z</time></trkpt><trkpt lat="43.63828510538827" lon="10.652378231016085"><ele>24.0</ele><time>2026-05-01T07:16:27.999Z</time></trkpt><trkpt lat="43.63817798533208" lon="10.652504674870208"><ele>24.0</ele><time>2026-05-01T07:16:28.999Z</time></trkpt><trkpt lat="43.63807043952144" lon="10.652630893944202"><ele>24.0</ele><time>2026-05-01T07:16:29.999Z</time></trkpt><trkpt lat="43.637968826953106" lon="10.652750038951998"><ele>24.0</ele><time>2026-05-01T07:16:30.999Z</time></trkpt><trkpt lat="43.63786500778155" lon="10.652873415053179"><ele>24.0</ele><time>2026-05-01T07:16:31.999Z</time></trkpt><trkpt lat="43.63776155847057" lon="10.652997258056468"><ele>24.0</ele><time>2026-05-01T07:16:32.999Z</time></trkpt><trkpt lat="43.637661236824286" lon="10.653124086959336"><ele>24.5</ele><time>2026-05-01T07:16:33.999Z</time></trkpt><trkpt lat="43.637562435179035" lon="10.653254633677491"><ele>25.0</ele><time>2026-05-01T07:16:34.999Z</time></trkpt><trkpt lat="43.637462292826406" lon="10.653384239447787"><ele>25.5</ele><time>2026-05-01T07:16:35.999Z</time></trkpt><trkpt lat="43.637360594111854" lon="10.653514342735956"><ele>26.0</ele><time>2026-05-01T07:16:36.999Z</time></trkpt><trkpt lat="43.63725845183426" lon="10.653643613371267"><ele>26.0</ele><time>2026-05-01T07:16:37.999Z</time></trkpt><trkpt lat="43.63715543385741" lon="10.6537737168377"><ele>26.0</ele><time>2026-05-01T07:16:38.999Z</time></trkpt><trkpt lat="43.637052742398765" lon="10.653906475705142"><ele>26.0</ele><time>2026-05-01T07:16:39.999Z</time></trkpt><trkpt lat="43.63695134749944" lon="10.654042454695817"><ele>26.0</ele><time>2026-05-01T07:16:40.999Z</time></trkpt><trkpt lat="43.63684793045338" lon="10.654179203899945"><ele>25.5</ele><time>2026-05-01T07:16:41.999Z</time></trkpt><trkpt lat="43.63674265860019" lon="10.654317967860734"><ele>25.0</ele><time>2026-05-01T07:16:42.999Z</time></trkpt><trkpt lat="43.63663569843833" lon="10.654462833820803"><ele>24.5</ele><time>2026-05-01T07:16:43.999Z</time></trkpt><trkpt lat="43.63652648696926" lon="10.654602283224003"><ele>24.0</ele><time>2026-05-01T07:16:44.999Z</time></trkpt><trkpt lat="43.63641620308312" lon="10.654744358636043"><ele>24.666666666666664</ele><time>2026-05-01T07:16:45.999Z</time></trkpt><trkpt lat="43.63630503176622" lon="10.654889275880231"><ele>25.333333333333332</ele><time>2026-05-01T07:16:46.999Z</time></trkpt><trkpt lat="43.636188250363475" lon="10.65503320737818"><ele>26.0</ele><time>2026-05-01T07:16:47.999Z</time></trkpt><trkpt lat="43.63606140058042" lon="10.655173617619312"><ele>26.333333333333332</ele><time>2026-05-01T07:16:48.999Z</time></trkpt><trkpt lat="43.635922365705234" lon="10.655309712276638"><ele>26.666666666666664</ele><time>2026-05-01T07:16:49.999Z</time></trkpt><trkpt lat="43.63577426127706" lon="10.655437276144783"><ele>27.0</ele><time>2026-05-01T07:16:50.999Z</time></trkpt><trkpt lat="43.63561935660618" lon="10.655556766254538"><ele>27.0</ele><time>2026-05-01T07:16:51.999Z</time></trkpt><trkpt lat="43.635466565594506" lon="10.655673602195062"><ele>27.0</ele><time>2026-05-01T07:16:52.999Z</time></trkpt><trkpt lat="43.63531214196246" lon="10.6557919642521"><ele>27.0</ele><time>2026-05-01T07:16:53.999Z</time></trkpt><trkpt lat="43.63515946953049" lon="10.6559072875989"><ele>27.0</ele><time>2026-05-01T07:16:54.999Z</time></trkpt><trkpt lat="43.63500659955156" lon="10.656023306638877"><ele>27.0</ele><time>2026-05-01T07:16:55.999Z</time></trkpt><trkpt lat="43.63485544711301" lon="10.656140110567215"><ele>27.0</ele><time>2026-05-01T07:16:56.999Z</time></trkpt><trkpt lat="43.634704980252884" lon="10.656256240462968"><ele>26.666666666666664</ele><time>2026-05-01T07:16:57.999Z</time></trkpt><trkpt lat="43.63455614992756" lon="10.656370445770822"><ele>26.333333333333332</ele><time>2026-05-01T07:16:58.999Z</time></trkpt><trkpt lat="43.634409022687706" lon="10.656482150377679"><ele>26.0</ele><time>2026-05-01T07:16:59.999Z</time></trkpt><trkpt lat="43.63426289143811" lon="10.656588687643795"><ele>26.0</ele><time>2026-05-01T07:17:00.999Z</time></trkpt><trkpt lat="43.63411721686646" lon="10.656702516165327"><ele>26.0</ele><time>2026-05-01T07:17:01.999Z</time></trkpt><trkpt lat="43.63397291565133" lon="10.65682109509148"><ele>26.0</ele><time>2026-05-01T07:17:02.999Z</time></trkpt><trkpt lat="43.63382705986368" lon="10.656936845904918"><ele>25.666666666666664</ele><time>2026-05-01T07:17:03.999Z</time></trkpt><trkpt lat="43.63367918435195" lon="10.657052254672447"><ele>25.333333333333336</ele><time>2026-05-01T07:17:04.999Z</time></trkpt><trkpt lat="43.633535189879844" lon="10.657163634492928"><ele>25.0</ele><time>2026-05-01T07:17:05.999Z</time></trkpt><trkpt lat="43.63338866561014" lon="10.65727525688866"><ele>25.0</ele><time>2026-05-01T07:17:06.999Z</time></trkpt><trkpt lat="43.63324104384732" lon="10.657387212961956"><ele>25.0</ele><time>2026-05-01T07:17:07.998Z</time></trkpt><trkpt lat="43.633093520839864" lon="10.657500633709406"><ele>25.0</ele><time>2026-05-01T07:17:08.998Z</time></trkpt><trkpt lat="43.63294622124397" lon="10.657611825806363"><ele>24.333333333333336</ele><time>2026-05-01T07:17:09.998Z</time></trkpt><trkpt lat="43.63280278459175" lon="10.657725381153584"><ele>23.666666666666668</ele><time>2026-05-01T07:17:10.998Z</time></trkpt><trkpt lat="43.63265674731112" lon="10.657839516800538"><ele>23.0</ele><time>2026-05-01T07:17:11.998Z</time></trkpt><trkpt lat="43.6325118808376" lon="10.657947665655865"><ele>23.0</ele><time>2026-05-01T07:17:12.998Z</time></trkpt><trkpt lat="43.632369192632034" lon="10.658060717202348"><ele>23.0</ele><time>2026-05-01T07:17:13.998Z</time></trkpt><trkpt lat="43.63222847116788" lon="10.658169279659264"><ele>23.0</ele><time>2026-05-01T07:17:14.998Z</time></trkpt><trkpt lat="43.63209154881362" lon="10.658270493694296"><ele>22.75</ele><time>2026-05-01T07:17:15.998Z</time></trkpt><trkpt lat="43.631972692950086" lon="10.658356639220951"><ele>22.5</ele><time>2026-05-01T07:17:16.998Z</time></trkpt><trkpt lat="43.63185938987002" lon="10.65843935207038"><ele>22.25</ele><time>2026-05-01T07:17:17.998Z</time></trkpt><trkpt lat="43.631762127341176" lon="10.658507072259146"><ele>22.0</ele><time>2026-05-01T07:17:18.998Z</time></trkpt><trkpt lat="43.631659399188926" lon="10.658551633959735"><ele>22.0</ele><time>2026-05-01T07:17:19.998Z</time></trkpt><trkpt lat="43.631568943301446" lon="10.658553881872686"><ele>22.0</ele><time>2026-05-01T07:17:20.998Z</time></trkpt><trkpt lat="43.631484829878616" lon="10.65848064616925"><ele>22.0</ele><time>2026-05-01T07:17:21.998Z</time></trkpt><trkpt lat="43.631402418003915" lon="10.658448143667346"><ele>22.0</ele><time>2026-05-01T07:17:22.998Z</time></trkpt><trkpt lat="43.631296384396656" lon="10.658520770030918"><ele>22.0</ele><time>2026-05-01T07:17:23.998Z</time></trkpt><trkpt lat="43.63119986842312" lon="10.658565870886399"><ele>22.166666666666664</ele><time>2026-05-01T07:17:24.998Z</time></trkpt><trkpt lat="43.631105273188915" lon="10.658616239906442"><ele>22.333333333333332</ele><time>2026-05-01T07:17:25.998Z</time></trkpt><trkpt lat="43.63102476325195" lon="10.658648610834499"><ele>22.5</ele><time>2026-05-01T07:17:26.998Z</time></trkpt><trkpt lat="43.630947549683654" lon="10.658672670065355"><ele>22.666666666666668</ele><time>2026-05-01T07:17:27.998Z</time></trkpt><trkpt lat="43.63087573255482" lon="10.658706538758123"><ele>22.833333333333336</ele><time>2026-05-01T07:17:28.998Z</time></trkpt><trkpt lat="43.6308167435565" lon="10.65875108721731"><ele>23.0</ele><time>2026-05-01T07:17:29.998Z</time></trkpt><trkpt lat="43.6307523663461" lon="10.65884343705413"><ele>23.2</ele><time>2026-05-01T07:17:31.998Z</time></trkpt><trkpt lat="43.630730202443665" lon="10.658980849363777"><ele>23.4</ele><time>2026-05-01T07:17:47.998Z</time></trkpt><trkpt lat="43.63074528061144" lon="10.659072040749614"><ele>23.599999999999998</ele><time>2026-05-01T07:17:58.997Z</time></trkpt><trkpt lat="43.630596479391265" lon="10.659158025278705"><ele>23.799999999999997</ele><time>2026-05-01T07:18:00.997Z</time></trkpt><trkpt lat="43.630508080588676" lon="10.659193359268926"><ele>24.0</ele><time>2026-05-01T07:18:01.997Z</time></trkpt><trkpt lat="43.63040657819247" lon="10.65923410058938"><ele>24.25</ele><time>2026-05-01T07:18:02.997Z</time></trkpt><trkpt lat="43.63029288990328" lon="10.659284728436983"><ele>24.5</ele><time>2026-05-01T07:18:03.997Z</time></trkpt><trkpt lat="43.63016903981947" lon="10.65933459700141"><ele>24.75</ele><time>2026-05-01T07:18:04.997Z</time></trkpt><trkpt lat="43.63003269677135" lon="10.659388406890034"><ele>25.0</ele><time>2026-05-01T07:18:05.997Z</time></trkpt><trkpt lat="43.629889974777434" lon="10.659449574754346"><ele>25.333333333333336</ele><time>2026-05-01T07:18:06.997Z</time></trkpt><trkpt lat="43.629738799231326" lon="10.65950626063711"><ele>25.666666666666664</ele><time>2026-05-01T07:18:08Z</time></trkpt><trkpt lat="43.62958447432785" lon="10.65955128826761"><ele>26.0</ele><time>2026-05-01T07:18:09Z</time></trkpt><trkpt lat="43.62942492415798" lon="10.659598603014496"><ele>26.0</ele><time>2026-05-01T07:18:10Z</time></trkpt><trkpt lat="43.6292624202783" lon="10.659649716865054"><ele>26.0</ele><time>2026-05-01T07:18:11Z</time></trkpt><trkpt lat="43.62909976546725" lon="10.659700666456926"><ele>26.0</ele><time>2026-05-01T07:18:12Z</time></trkpt><trkpt lat="43.62894057373862" lon="10.659747160163946"><ele>26.0</ele><time>2026-05-01T07:18:13Z</time></trkpt><trkpt lat="43.628794871777934" lon="10.659783373255506"><ele>26.0</ele><time>2026-05-01T07:18:14Z</time></trkpt><trkpt lat="43.62866135145722" lon="10.65980669123345"><ele>26.0</ele><time>2026-05-01T07:18:15Z</time></trkpt><trkpt lat="43.62854254217241" lon="10.659808108673866"><ele>26.0</ele><time>2026-05-01T07:18:16Z</time></trkpt><trkpt lat="43.628435409294255" lon="10.659786914375195"><ele>26.200000000000003</ele><time>2026-05-01T07:18:17Z</time></trkpt><trkpt lat="43.6283432141597" lon="10.659744467386444"><ele>26.400000000000002</ele><time>2026-05-01T07:18:18Z</time></trkpt><trkpt lat="43.628264047293285" lon="10.65967862673765"><ele>26.6</ele><time>2026-05-01T07:18:19Z</time></trkpt><trkpt lat="43.6281711318437" lon="10.659642137090087"><ele>26.8</ele><time>2026-05-01T07:18:20Z</time></trkpt><trkpt lat="43.62807370134372" lon="10.659652595493881"><ele>27.0</ele><time>2026-05-01T07:18:21Z</time></trkpt><trkpt lat="43.62796873637375" lon="10.6596752300276"><ele>27.0</ele><time>2026-05-01T07:18:22Z</time></trkpt><trkpt lat="43.627887721114" lon="10.65979417177164"><ele>27.0</ele><time>2026-05-01T07:18:23Z</time></trkpt><trkpt lat="43.62781780619032" lon="10.659931295607198"><ele>27.0</ele><time>2026-05-01T07:18:24Z</time></trkpt><trkpt lat="43.62775047930088" lon="10.660094738637174"><ele>27.0</ele><time>2026-05-01T07:18:25Z</time></trkpt><trkpt lat="43.627657788784326" lon="10.66025604826115"><ele>27.0</ele><time>2026-05-01T07:18:26Z</time></trkpt><trkpt lat="43.62753822191224" lon="10.66038831854322"><ele>27.0</ele><time>2026-05-01T07:18:27Z</time></trkpt><trkpt lat="43.62740252550468" lon="10.660500500469448"><ele>27.0</ele><time>2026-05-01T07:18:28Z</time></trkpt><trkpt lat="43.62725867553874" lon="10.66062192298177"><ele>27.0</ele><time>2026-05-01T07:18:29Z</time></trkpt><trkpt lat="43.627105237399206" lon="10.6607534633569"><ele>27.0</ele><time>2026-05-01T07:18:30Z</time></trkpt><trkpt lat="43.62694510376162" lon="10.660877364708494"><ele>27.0</ele><time>2026-05-01T07:18:31Z</time></trkpt><trkpt lat="43.62679032675561" lon="10.660996837658987"><ele>27.0</ele><time>2026-05-01T07:18:32Z</time></trkpt><trkpt lat="43.626635569063275" lon="10.661121844348505"><ele>27.0</ele><time>2026-05-01T07:18:33Z</time></trkpt><trkpt lat="43.62647898898003" lon="10.661246396327936"><ele>27.0</ele><time>2026-05-01T07:18:34Z</time></trkpt><trkpt lat="43.626322253199305" lon="10.661374827697207"><ele>27.0</ele><time>2026-05-01T07:18:35Z</time></trkpt><trkpt lat="43.6261634272835" lon="10.661502311520309"><ele>27.0</ele><time>2026-05-01T07:18:35.999Z</time></trkpt><trkpt lat="43.62600389426737" lon="10.661629677891664"><ele>27.0</ele><time>2026-05-01T07:18:36.999Z</time></trkpt><trkpt lat="43.62584301311423" lon="10.661755899243927"><ele>27.0</ele><time>2026-05-01T07:18:37.999Z</time></trkpt><trkpt lat="43.62567989208204" lon="10.661883325728544"><ele>27.0</ele><time>2026-05-01T07:18:38.999Z</time></trkpt><trkpt lat="43.6255155882898" lon="10.662014384519559"><ele>27.0</ele><time>2026-05-01T07:18:39.999Z</time></trkpt><trkpt lat="43.625351128663425" lon="10.662141925020535"><ele>27.666666666666664</ele><time>2026-05-01T07:18:40.999Z</time></trkpt><trkpt lat="43.62518677287681" lon="10.66227344901472"><ele>28.333333333333332</ele><time>2026-05-01T07:18:41.999Z</time></trkpt><trkpt lat="43.62502275723533" lon="10.662405871690373"><ele>29.0</ele><time>2026-05-01T07:18:42.999Z</time></trkpt><trkpt lat="43.62485613645563" lon="10.662537161942783"><ele>29.0</ele><time>2026-05-01T07:18:43.999Z</time></trkpt><trkpt lat="43.62469035279676" lon="10.662667648820067"><ele>29.0</ele><time>2026-05-01T07:18:44.999Z</time></trkpt><trkpt lat="43.62452699477768" lon="10.662802807262098"><ele>29.0</ele><time>2026-05-01T07:18:45.999Z</time></trkpt><trkpt lat="43.624361692241585" lon="10.662938850738344"><ele>29.666666666666664</ele><time>2026-05-01T07:18:46.999Z</time></trkpt><trkpt lat="43.62419417487402" lon="10.663072023165203"><ele>30.333333333333336</ele><time>2026-05-01T07:18:47.999Z</time></trkpt><trkpt lat="43.6240258851929" lon="10.663206242658335"><ele>31.0</ele><time>2026-05-01T07:18:48.999Z</time></trkpt><trkpt lat="43.62385646808663" lon="10.663343167780711"><ele>31.0</ele><time>2026-05-01T07:18:49.999Z</time></trkpt><trkpt lat="43.623689666347076" lon="10.663475662694122"><ele>31.0</ele><time>2026-05-01T07:18:50.999Z</time></trkpt><trkpt lat="43.623523877217195" lon="10.66361049905883"><ele>31.0</ele><time>2026-05-01T07:18:51.999Z</time></trkpt><trkpt lat="43.623358596269135" lon="10.663742842144869"><ele>31.0</ele><time>2026-05-01T07:18:52.999Z</time></trkpt><trkpt lat="43.62319251910288" lon="10.663873001427687"><ele>31.0</ele><time>2026-05-01T07:18:53.999Z</time></trkpt><trkpt lat="43.62302835337865" lon="10.664001971044218"><ele>31.0</ele><time>2026-05-01T07:18:54.999Z</time></trkpt><trkpt lat="43.62286491542984" lon="10.664128928991136"><ele>30.333333333333336</ele><time>2026-05-01T07:18:55.999Z</time></trkpt><trkpt lat="43.622701254955686" lon="10.664253399787741"><ele>29.666666666666664</ele><time>2026-05-01T07:18:56.999Z</time></trkpt><trkpt lat="43.62253958219427" lon="10.664378456358351"><ele>29.0</ele><time>2026-05-01T07:18:57.999Z</time></trkpt><trkpt lat="43.62237914838589" lon="10.664509817907144"><ele>29.0</ele><time>2026-05-01T07:18:58.999Z</time></trkpt><trkpt lat="43.622219267359455" lon="10.664640413299644"><ele>29.0</ele><time>2026-05-01T07:18:59.999Z</time></trkpt><trkpt lat="43.62206086455773" lon="10.664769368333477"><ele>29.0</ele><time>2026-05-01T07:19:00.999Z</time></trkpt><trkpt lat="43.621903015505175" lon="10.664894864981658"><ele>29.0</ele><time>2026-05-01T07:19:01.999Z</time></trkpt><trkpt lat="43.62174568333035" lon="10.665019844387835"><ele>29.0</ele><time>2026-05-01T07:19:02.999Z</time></trkpt><trkpt lat="43.62158790748322" lon="10.665153403617936"><ele>29.0</ele><time>2026-05-01T07:19:03.999Z</time></trkpt><trkpt lat="43.62142895771888" lon="10.665288695662749"><ele>29.0</ele><time>2026-05-01T07:19:04.999Z</time></trkpt><trkpt lat="43.62126929135196" lon="10.665425819808839"><ele>29.0</ele><time>2026-05-01T07:19:05.999Z</time></trkpt><trkpt lat="43.621110476335176" lon="10.665568236128946"><ele>29.0</ele><time>2026-05-01T07:19:06.999Z</time></trkpt><trkpt lat="43.62095487476337" lon="10.66571879593889"><ele>28.333333333333332</ele><time>2026-05-01T07:19:07.999Z</time></trkpt><trkpt lat="43.62080106846821" lon="10.665878062313022"><ele>27.666666666666664</ele><time>2026-05-01T07:19:08.999Z</time></trkpt><trkpt lat="43.62064980059632" lon="10.666040707670538"><ele>27.0</ele><time>2026-05-01T07:19:09.999Z</time></trkpt><trkpt lat="43.62050132174804" lon="10.666211645062692"><ele>27.0</ele><time>2026-05-01T07:19:10.999Z</time></trkpt><trkpt lat="43.6203568680432" lon="10.666388182737913"><ele>27.0</ele><time>2026-05-01T07:19:11.999Z</time></trkpt><trkpt lat="43.62021564960513" lon="10.666574114600433"><ele>27.0</ele><time>2026-05-01T07:19:12.999Z</time></trkpt><trkpt lat="43.62007818268621" lon="10.666766101344876"><ele>27.666666666666664</ele><time>2026-05-01T07:19:13.999Z</time></trkpt><trkpt lat="43.61994432180843" lon="10.666964010447998"><ele>28.333333333333332</ele><time>2026-05-01T07:19:14.999Z</time></trkpt><trkpt lat="43.61981343776542" lon="10.667165365345738"><ele>29.0</ele><time>2026-05-01T07:19:15.999Z</time></trkpt><trkpt lat="43.619689623355946" lon="10.667366006053776"><ele>29.0</ele><time>2026-05-01T07:19:16.999Z</time></trkpt><trkpt lat="43.619571873284684" lon="10.667580181684201"><ele>29.0</ele><time>2026-05-01T07:19:17.999Z</time></trkpt><trkpt lat="43.61946027942964" lon="10.667799498429714"><ele>29.0</ele><time>2026-05-01T07:19:18.999Z</time></trkpt><trkpt lat="43.619355910295205" lon="10.668022103910573"><ele>28.0</ele><time>2026-05-01T07:19:19.999Z</time></trkpt><trkpt lat="43.61925300451334" lon="10.668248158044358"><ele>27.0</ele><time>2026-05-01T07:19:20.999Z</time></trkpt><trkpt lat="43.619154988567686" lon="10.668479279238413"><ele>26.0</ele><time>2026-05-01T07:19:21.999Z</time></trkpt><trkpt lat="43.61906118166066" lon="10.668709873247812"><ele>26.0</ele><time>2026-05-01T07:19:22.998Z</time></trkpt><trkpt lat="43.61897159220829" lon="10.66894295097394"><ele>26.0</ele><time>2026-05-01T07:19:23.998Z</time></trkpt><trkpt lat="43.61888436436593" lon="10.669177345962128"><ele>26.0</ele><time>2026-05-01T07:19:24.998Z</time></trkpt><trkpt lat="43.61880020604324" lon="10.669409252210151"><ele>26.333333333333332</ele><time>2026-05-01T07:19:25.998Z</time></trkpt><trkpt lat="43.61871808022215" lon="10.669639935827265"><ele>26.666666666666664</ele><time>2026-05-01T07:19:26.998Z</time></trkpt><trkpt lat="43.618642823146175" lon="10.669869098691464"><ele>27.0</ele><time>2026-05-01T07:19:27.998Z</time></trkpt><trkpt lat="43.6185725988907" lon="10.670100439584987"><ele>27.0</ele><time>2026-05-01T07:19:28.998Z</time></trkpt><trkpt lat="43.61850668422614" lon="10.670332805084229"><ele>27.0</ele><time>2026-05-01T07:19:29.998Z</time></trkpt><trkpt lat="43.618452221108136" lon="10.670568901379538"><ele>27.0</ele><time>2026-05-01T07:19:30.998Z</time></trkpt><trkpt lat="43.61840601212033" lon="10.670805442291122"><ele>27.0</ele><time>2026-05-01T07:19:31.998Z</time></trkpt><trkpt lat="43.61836831943181" lon="10.671046319042388"><ele>27.0</ele><time>2026-05-01T07:19:32.998Z</time></trkpt><trkpt lat="43.618338747157345" lon="10.671283074037044"><ele>27.0</ele><time>2026-05-01T07:19:33.998Z</time></trkpt><trkpt lat="43.618315303569034" lon="10.6715258796206"><ele>27.0</ele><time>2026-05-01T07:19:34.998Z</time></trkpt><trkpt lat="43.61829987496214" lon="10.671768234102439"><ele>27.0</ele><time>2026-05-01T07:19:35.998Z</time></trkpt><trkpt lat="43.61829329345457" lon="10.672009083257688"><ele>27.0</ele><time>2026-05-01T07:19:36.998Z</time></trkpt><trkpt lat="43.61829087007495" lon="10.67224845647705"><ele>27.0</ele><time>2026-05-01T07:19:37.998Z</time></trkpt><trkpt lat="43.61829777886948" lon="10.672481796209219"><ele>27.0</ele><time>2026-05-01T07:19:38.998Z</time></trkpt><trkpt lat="43.6183150413062" lon="10.672711424476928"><ele>27.0</ele><time>2026-05-01T07:19:39.998Z</time></trkpt><trkpt lat="43.61833701361256" lon="10.67293474423008"><ele>27.0</ele><time>2026-05-01T07:19:40.998Z</time></trkpt><trkpt lat="43.618360891142345" lon="10.673154005027769"><ele>27.0</ele><time>2026-05-01T07:19:41.998Z</time></trkpt><trkpt lat="43.61838916196136" lon="10.673365718566329"><ele>27.0</ele><time>2026-05-01T07:19:42.998Z</time></trkpt><trkpt lat="43.6184210751432" lon="10.673565639826844"><ele>27.200000000000003</ele><time>2026-05-01T07:19:43.998Z</time></trkpt><trkpt lat="43.61845174689325" lon="10.673749304447044"><ele>27.400000000000002</ele><time>2026-05-01T07:19:44.998Z</time></trkpt><trkpt lat="43.618473070052836" lon="10.673905738239432"><ele>27.599999999999998</ele><time>2026-05-01T07:19:45.998Z</time></trkpt><trkpt lat="43.61847853272241" lon="10.674043554274974"><ele>27.799999999999997</ele><time>2026-05-01T07:19:46.998Z</time></trkpt><trkpt lat="43.61847327177933" lon="10.674176760522348"><ele>28.0</ele><time>2026-05-01T07:19:47.998Z</time></trkpt><trkpt lat="43.61844456274065" lon="10.674316429332938"><ele>28.25</ele><time>2026-05-01T07:19:48.998Z</time></trkpt><trkpt lat="43.61840594958315" lon="10.674460345274463"><ele>28.5</ele><time>2026-05-01T07:19:49.998Z</time></trkpt><trkpt lat="43.61837911291381" lon="10.674623007134068"><ele>28.75</ele><time>2026-05-01T07:19:50.998Z</time></trkpt><trkpt lat="43.618359673601695" lon="10.674792192965212"><ele>29.0</ele><time>2026-05-01T07:19:51.998Z</time></trkpt><trkpt lat="43.6183042094594" lon="10.674959410971121"><ele>29.0</ele><time>2026-05-01T07:19:52.998Z</time></trkpt><trkpt lat="43.61821567740494" lon="10.675111293412725"><ele>29.0</ele><time>2026-05-01T07:19:53.998Z</time></trkpt><trkpt lat="43.618098504979606" lon="10.675252203129117"><ele>29.0</ele><time>2026-05-01T07:19:54.998Z</time></trkpt><trkpt lat="43.61797570258122" lon="10.675378162258145"><ele>29.0</ele><time>2026-05-01T07:19:55.998Z</time></trkpt><trkpt lat="43.61785123617235" lon="10.67551460942551"><ele>28.666666666666664</ele><time>2026-05-01T07:19:56.998Z</time></trkpt><trkpt lat="43.61772169614201" lon="10.675658523314594"><ele>28.333333333333336</ele><time>2026-05-01T07:19:57.998Z</time></trkpt><trkpt lat="43.61758658640518" lon="10.675809168443621"><ele>28.0</ele><time>2026-05-01T07:19:58.998Z</time></trkpt><trkpt lat="43.61744878692125" lon="10.6759659146991"><ele>28.0</ele><time>2026-05-01T07:19:59.998Z</time></trkpt><trkpt lat="43.617308780401856" lon="10.67612595256037"><ele>28.0</ele><time>2026-05-01T07:20:00.998Z</time></trkpt><trkpt lat="43.61717291624966" lon="10.676280993125479"><ele>28.0</ele><time>2026-05-01T07:20:01.998Z</time></trkpt><trkpt lat="43.61703617116638" lon="10.676439449725702"><ele>28.333333333333336</ele><time>2026-05-01T07:20:02.998Z</time></trkpt><trkpt lat="43.61689652011954" lon="10.67659657046282"><ele>28.666666666666664</ele><time>2026-05-01T07:20:03.998Z</time></trkpt><trkpt lat="43.616754420958245" lon="10.67674999904775"><ele>29.0</ele><time>2026-05-01T07:20:04.998Z</time></trkpt><trkpt lat="43.61661734286582" lon="10.676912494275053"><ele>29.333333333333332</ele><time>2026-05-01T07:20:05.998Z</time></trkpt><trkpt lat="43.61647861272204" lon="10.677077219026836"><ele>29.666666666666664</ele><time>2026-05-01T07:20:06.998Z</time></trkpt><trkpt lat="43.61633497832158" lon="10.67723252730408"><ele>30.0</ele><time>2026-05-01T07:20:07.998Z</time></trkpt><trkpt lat="43.616191298903516" lon="10.677390764850934"><ele>30.0</ele><time>2026-05-01T07:20:08.997Z</time></trkpt><trkpt lat="43.61604958995661" lon="10.677553269644699"><ele>30.0</ele><time>2026-05-01T07:20:09.997Z</time></trkpt><trkpt lat="43.615906254012096" lon="10.677716552778568"><ele>30.0</ele><time>2026-05-01T07:20:10.997Z</time></trkpt><trkpt lat="43.61576439041803" lon="10.677876751818387"><ele>30.0</ele><time>2026-05-01T07:20:11.997Z</time></trkpt><trkpt lat="43.61562275803526" lon="10.678038136920247"><ele>30.0</ele><time>2026-05-01T07:20:12.997Z</time></trkpt><trkpt lat="43.61548810098938" lon="10.67821293407931"><ele>30.0</ele><time>2026-05-01T07:20:14Z</time></trkpt><trkpt lat="43.6153622927489" lon="10.678401060874032"><ele>30.0</ele><time>2026-05-01T07:20:15Z</time></trkpt><trkpt lat="43.615247011667215" lon="10.67859966214454"><ele>30.0</ele><time>2026-05-01T07:20:16Z</time></trkpt><trkpt lat="43.615138651092" lon="10.678809110773036"><ele>30.0</ele><time>2026-05-01T07:20:17Z</time></trkpt><trkpt lat="43.61503032079927" lon="10.679025027134486"><ele>30.0</ele><time>2026-05-01T07:20:18Z</time></trkpt><trkpt lat="43.614920569854334" lon="10.67924344784511"><ele>30.0</ele><time>2026-05-01T07:20:19Z</time></trkpt><trkpt lat="43.61480965986552" lon="10.679461100664193"><ele>30.0</ele><time>2026-05-01T07:20:20Z</time></trkpt><trkpt lat="43.61469648991585" lon="10.679680593895181"><ele>31.0</ele><time>2026-05-01T07:20:21Z</time></trkpt><trkpt lat="43.61458692624317" lon="10.67990005669495"><ele>32.0</ele><time>2026-05-01T07:20:22Z</time></trkpt><trkpt lat="43.61448392978474" lon="10.680109842917147"><ele>33.0</ele><time>2026-05-01T07:20:23Z</time></trkpt><trkpt lat="43.61437708190816" lon="10.68031668313786"><ele>33.333333333333336</ele><time>2026-05-01T07:20:24Z</time></trkpt><trkpt lat="43.61426872469188" lon="10.68052105678891"><ele>33.66666666666667</ele><time>2026-05-01T07:20:25Z</time></trkpt><trkpt lat="43.614165426460545" lon="10.680727678383363"><ele>34.0</ele><time>2026-05-01T07:20:26Z</time></trkpt><trkpt lat="43.614065059334344" lon="10.68093585424259"><ele>35.0</ele><time>2026-05-01T07:20:27Z</time></trkpt><trkpt lat="43.61396357683221" lon="10.6811371855449"><ele>36.0</ele><time>2026-05-01T07:20:28Z</time></trkpt><trkpt lat="43.613863511428654" lon="10.681333047423344"><ele>37.0</ele><time>2026-05-01T07:20:29Z</time></trkpt><trkpt lat="43.61376552579094" lon="10.681526476284217"><ele>37.0</ele><time>2026-05-01T07:20:30Z</time></trkpt><trkpt lat="43.61366578464333" lon="10.6817189693395"><ele>37.0</ele><time>2026-05-01T07:20:31Z</time></trkpt><trkpt lat="43.613564863693384" lon="10.681909604785927"><ele>37.0</ele><time>2026-05-01T07:20:32Z</time></trkpt><trkpt lat="43.61346595423027" lon="10.682102412527422"><ele>36.66666666666667</ele><time>2026-05-01T07:20:33Z</time></trkpt><trkpt lat="43.61336849134383" lon="10.68229235489182"><ele>36.333333333333336</ele><time>2026-05-01T07:20:34Z</time></trkpt><trkpt lat="43.61327072818706" lon="10.68248050083188"><ele>36.0</ele><time>2026-05-01T07:20:35Z</time></trkpt><trkpt lat="43.61317802996816" lon="10.682671644583673"><ele>36.0</ele><time>2026-05-01T07:20:36Z</time></trkpt><trkpt lat="43.613087454869444" lon="10.682859809825683"><ele>36.0</ele><time>2026-05-01T07:20:37Z</time></trkpt><trkpt lat="43.61299572782008" lon="10.683044896881595"><ele>36.0</ele><time>2026-05-01T07:20:38Z</time></trkpt><trkpt lat="43.612903753824455" lon="10.683235784929568"><ele>35.666666666666664</ele><time>2026-05-01T07:20:39Z</time></trkpt><trkpt lat="43.61281197250847" lon="10.683426234682473"><ele>35.33333333333333</ele><time>2026-05-01T07:20:40Z</time></trkpt><trkpt lat="43.61271895489965" lon="10.683620871843774"><ele>35.0</ele><time>2026-05-01T07:20:41Z</time></trkpt><trkpt lat="43.61262574843411" lon="10.683815188922"><ele>35.0</ele><time>2026-05-01T07:20:42Z</time></trkpt><trkpt lat="43.612534910047124" lon="10.68401192870461"><ele>35.0</ele><time>2026-05-01T07:20:43Z</time></trkpt><trkpt lat="43.61244747504935" lon="10.684212792222366"><ele>35.0</ele><time>2026-05-01T07:20:44Z</time></trkpt><trkpt lat="43.612357096750216" lon="10.684413610014083"><ele>36.666666666666664</ele><time>2026-05-01T07:20:45Z</time></trkpt><trkpt lat="43.61226894049026" lon="10.684615271682203"><ele>38.333333333333336</ele><time>2026-05-01T07:20:46Z</time></trkpt><trkpt lat="43.61218273518919" lon="10.684819246450527"><ele>40.0</ele><time>2026-05-01T07:20:47Z</time></trkpt><trkpt lat="43.612093584443926" lon="10.685019583837127"><ele>40.0</ele><time>2026-05-01T07:20:48Z</time></trkpt><trkpt lat="43.612006091123334" lon="10.68521822396242"><ele>40.0</ele><time>2026-05-01T07:20:49Z</time></trkpt><trkpt lat="43.611919936552326" lon="10.685418012179706"><ele>40.0</ele><time>2026-05-01T07:20:49.999Z</time></trkpt><trkpt lat="43.61183228469638" lon="10.68561507308172"><ele>40.0</ele><time>2026-05-01T07:20:50.999Z</time></trkpt><trkpt lat="43.61174696919408" lon="10.685808333715157"><ele>40.0</ele><time>2026-05-01T07:20:51.999Z</time></trkpt><trkpt lat="43.61166171978241" lon="10.68600534683914"><ele>40.0</ele><time>2026-05-01T07:20:52.999Z</time></trkpt><trkpt lat="43.61157449181108" lon="10.686197727560707"><ele>40.0</ele><time>2026-05-01T07:20:53.999Z</time></trkpt><trkpt lat="43.6114862492103" lon="10.686390321806241"><ele>40.0</ele><time>2026-05-01T07:20:54.999Z</time></trkpt><trkpt lat="43.61139489387267" lon="10.686582671301437"><ele>40.0</ele><time>2026-05-01T07:20:55.999Z</time></trkpt><trkpt lat="43.6113027253324" lon="10.686772681760683"><ele>38.0</ele><time>2026-05-01T07:20:56.999Z</time></trkpt><trkpt lat="43.611212367978084" lon="10.686963432589227"><ele>36.0</ele><time>2026-05-01T07:20:57.999Z</time></trkpt><trkpt lat="43.61112514750301" lon="10.687161152245249"><ele>34.0</ele><time>2026-05-01T07:20:58.999Z</time></trkpt><trkpt lat="43.611042306418454" lon="10.687361644582305"><ele>34.0</ele><time>2026-05-01T07:20:59.999Z</time></trkpt><trkpt lat="43.610960684059016" lon="10.687564406479078"><ele>34.0</ele><time>2026-05-01T07:21:00.999Z</time></trkpt><trkpt lat="43.610876947237074" lon="10.687766802279226"><ele>34.0</ele><time>2026-05-01T07:21:01.999Z</time></trkpt><trkpt lat="43.610795805467326" lon="10.687967644377949"><ele>35.333333333333336</ele><time>2026-05-01T07:21:02.999Z</time></trkpt><trkpt lat="43.61071906456566" lon="10.688169615196005"><ele>36.666666666666664</ele><time>2026-05-01T07:21:03.999Z</time></trkpt><trkpt lat="43.61064302391675" lon="10.688370447739347"><ele>38.0</ele><time>2026-05-01T07:21:04.999Z</time></trkpt><trkpt lat="43.61056608275222" lon="10.688565519972691"><ele>39.33333333333333</ele><time>2026-05-01T07:21:05.999Z</time></trkpt><trkpt lat="43.61048969458867" lon="10.68875729178227"><ele>40.666666666666664</ele><time>2026-05-01T07:21:06.999Z</time></trkpt><trkpt lat="43.61040983264348" lon="10.688946355888335"><ele>42.0</ele><time>2026-05-01T07:21:07.999Z</time></trkpt><trkpt lat="43.61032384662802" lon="10.689131056490151"><ele>39.75</ele><time>2026-05-01T07:21:08.999Z</time></trkpt><trkpt lat="43.61023118954724" lon="10.689297700014759"><ele>37.5</ele><time>2026-05-01T07:21:09.999Z</time></trkpt><trkpt lat="43.61013544026212" lon="10.689444652837606"><ele>35.25</ele><time>2026-05-01T07:21:10.999Z</time></trkpt><trkpt lat="43.61003820990886" lon="10.689572067576734"><ele>33.0</ele><time>2026-05-01T07:21:11.999Z</time></trkpt><trkpt lat="43.609944366655185" lon="10.689683007940454"><ele>33.0</ele><time>2026-05-01T07:21:12.999Z</time></trkpt><trkpt lat="43.60985381863905" lon="10.689779519549687"><ele>33.0</ele><time>2026-05-01T07:21:13.999Z</time></trkpt><trkpt lat="43.60976363306028" lon="10.68985999362772"><ele>33.0</ele><time>2026-05-01T07:21:14.999Z</time></trkpt><trkpt lat="43.609668445440555" lon="10.68991417561828"><ele>33.0</ele><time>2026-05-01T07:21:15.999Z</time></trkpt><trkpt lat="43.60956454284116" lon="10.689937331212635"><ele>33.0</ele><time>2026-05-01T07:21:16.999Z</time></trkpt><trkpt lat="43.609458965311134" lon="10.689920650217434"><ele>32.75</ele><time>2026-05-01T07:21:17.999Z</time></trkpt><trkpt lat="43.60935189185768" lon="10.68994784731284"><ele>32.5</ele><time>2026-05-01T07:21:18.999Z</time></trkpt><trkpt lat="43.60923807872339" lon="10.690023333307874"><ele>32.25</ele><time>2026-05-01T07:21:19.999Z</time></trkpt><trkpt lat="43.60910953445604" lon="10.690090300759822"><ele>32.0</ele><time>2026-05-01T07:21:20.999Z</time></trkpt><trkpt lat="43.608950293432784" lon="10.69011164097496"><ele>32.0</ele><time>2026-05-01T07:21:21.999Z</time></trkpt><trkpt lat="43.608768062480905" lon="10.690132676940927"><ele>32.0</ele><time>2026-05-01T07:21:22.999Z</time></trkpt><trkpt lat="43.60855594903231" lon="10.69014641342135"><ele>32.0</ele><time>2026-05-01T07:21:23.999Z</time></trkpt><trkpt lat="43.608346607234715" lon="10.690134914114397"><ele>31.0</ele><time>2026-05-01T07:21:24.999Z</time></trkpt><trkpt lat="43.6081426176802" lon="10.690113865416773"><ele>30.0</ele><time>2026-05-01T07:21:25.999Z</time></trkpt><trkpt lat="43.607948881626264" lon="10.690105837751515"><ele>29.0</ele><time>2026-05-01T07:21:26.999Z</time></trkpt><trkpt lat="43.60775150807248" lon="10.690101099102693"><ele>29.0</ele><time>2026-05-01T07:21:27.999Z</time></trkpt><trkpt lat="43.60755659572375" lon="10.69009337902394"><ele>29.0</ele><time>2026-05-01T07:21:28.999Z</time></trkpt><trkpt lat="43.60736362125774" lon="10.690084366205566"><ele>29.0</ele><time>2026-05-01T07:21:29.999Z</time></trkpt><trkpt lat="43.60717292593401" lon="10.69007822901164"><ele>30.333333333333332</ele><time>2026-05-01T07:21:30.999Z</time></trkpt><trkpt lat="43.606984687799546" lon="10.690081574881475"><ele>31.666666666666664</ele><time>2026-05-01T07:21:31.999Z</time></trkpt><trkpt lat="43.606796750407845" lon="10.690100148183665"><ele>33.0</ele><time>2026-05-01T07:21:32.999Z</time></trkpt><trkpt lat="43.60661197677478" lon="10.690141156293759"><ele>33.0</ele><time>2026-05-01T07:21:33.999Z</time></trkpt><trkpt lat="43.606427809302254" lon="10.690203310598388"><ele>33.0</ele><time>2026-05-01T07:21:34.999Z</time></trkpt><trkpt lat="43.606247586509255" lon="10.690279869714233"><ele>33.0</ele><time>2026-05-01T07:21:35.999Z</time></trkpt><trkpt lat="43.606069189329794" lon="10.690371510458334"><ele>32.333333333333336</ele><time>2026-05-01T07:21:36.998Z</time></trkpt><trkpt lat="43.60589494325358" lon="10.690479000134106"><ele>31.666666666666668</ele><time>2026-05-01T07:21:37.998Z</time></trkpt><trkpt lat="43.60572872411965" lon="10.690605230304874"><ele>31.0</ele><time>2026-05-01T07:21:38.998Z</time></trkpt><trkpt lat="43.60556931506932" lon="10.690752759724923"><ele>31.0</ele><time>2026-05-01T07:21:39.998Z</time></trkpt><trkpt lat="43.60541724357054" lon="10.69091465758775"><ele>31.0</ele><time>2026-05-01T07:21:40.998Z</time></trkpt><trkpt lat="43.60527919279165" lon="10.69108065202651"><ele>31.0</ele><time>2026-05-01T07:21:41.998Z</time></trkpt><trkpt lat="43.60514591142749" lon="10.691259662390783"><ele>31.0</ele><time>2026-05-01T07:21:42.998Z</time></trkpt><trkpt lat="43.60501789151788" lon="10.691445418295809"><ele>31.0</ele><time>2026-05-01T07:21:43.998Z</time></trkpt><trkpt lat="43.604899269954295" lon="10.691642066426759"><ele>31.0</ele><time>2026-05-01T07:21:44.998Z</time></trkpt><trkpt lat="43.60478437094979" lon="10.691841776193735"><ele>31.0</ele><time>2026-05-01T07:21:45.998Z</time></trkpt><trkpt lat="43.604665885683694" lon="10.692037708655798"><ele>31.0</ele><time>2026-05-01T07:21:46.998Z</time></trkpt><trkpt lat="43.6045459586953" lon="10.692230878172229"><ele>31.0</ele><time>2026-05-01T07:21:47.998Z</time></trkpt><trkpt lat="43.6044234633472" lon="10.692420518253531"><ele>31.333333333333336</ele><time>2026-05-01T07:21:48.998Z</time></trkpt><trkpt lat="43.60429421126062" lon="10.692599478640794"><ele>31.666666666666664</ele><time>2026-05-01T07:21:49.998Z</time></trkpt><trkpt lat="43.604160958047125" lon="10.69277380538693"><ele>32.0</ele><time>2026-05-01T07:21:50.998Z</time></trkpt><trkpt lat="43.60402397898201" lon="10.692939454811485"><ele>32.0</ele><time>2026-05-01T07:21:51.998Z</time></trkpt><trkpt lat="43.60388051532398" lon="10.693096824406442"><ele>32.0</ele><time>2026-05-01T07:21:52.998Z</time></trkpt><trkpt lat="43.60373100968836" lon="10.693243507641396"><ele>32.0</ele><time>2026-05-01T07:21:53.998Z</time></trkpt><trkpt lat="43.60357731721657" lon="10.693381411804015"><ele>32.33333333333333</ele><time>2026-05-01T07:21:54.998Z</time></trkpt><trkpt lat="43.60341720674709" lon="10.693510719546413"><ele>32.666666666666664</ele><time>2026-05-01T07:21:55.998Z</time></trkpt><trkpt lat="43.603254162555274" lon="10.693627867672497"><ele>33.0</ele><time>2026-05-01T07:21:56.998Z</time></trkpt><trkpt lat="43.60308758455809" lon="10.69374145703224"><ele>33.0</ele><time>2026-05-01T07:21:57.998Z</time></trkpt><trkpt lat="43.602918763468516" lon="10.693843491788636"><ele>33.0</ele><time>2026-05-01T07:21:58.998Z</time></trkpt><trkpt lat="43.602746983386254" lon="10.693935352740024"><ele>33.0</ele><time>2026-05-01T07:21:59.998Z</time></trkpt><trkpt lat="43.60257102338258" lon="10.694012692339749"><ele>32.666666666666664</ele><time>2026-05-01T07:22:00.998Z</time></trkpt><trkpt lat="43.60239214302366" lon="10.694075682584712"><ele>32.33333333333333</ele><time>2026-05-01T07:22:01.998Z</time></trkpt><trkpt lat="43.602214039447944" lon="10.69413353858303"><ele>32.0</ele><time>2026-05-01T07:22:02.998Z</time></trkpt><trkpt lat="43.60203771195088" lon="10.694193963215378"><ele>32.33333333333333</ele><time>2026-05-01T07:22:03.998Z</time></trkpt><trkpt lat="43.601866849841784" lon="10.694255352912295"><ele>32.666666666666664</ele><time>2026-05-01T07:22:04.998Z</time></trkpt><trkpt lat="43.60170178178435" lon="10.694312054443884"><ele>33.0</ele><time>2026-05-01T07:22:05.998Z</time></trkpt><trkpt lat="43.60155144175429" lon="10.694361864738333"><ele>33.0</ele><time>2026-05-01T07:22:06.998Z</time></trkpt><trkpt lat="43.60142801311161" lon="10.694399684619107"><ele>33.0</ele><time>2026-05-01T07:22:07.998Z</time></trkpt><trkpt lat="43.60131649212249" lon="10.69443390982093"><ele>33.0</ele><time>2026-05-01T07:22:08.998Z</time></trkpt><trkpt lat="43.6012294718282" lon="10.694464982072908"><ele>33.0</ele><time>2026-05-01T07:22:09.998Z</time></trkpt><trkpt lat="43.60113915005728" lon="10.694493281697197"><ele>33.0</ele><time>2026-05-01T07:22:11.998Z</time></trkpt><trkpt lat="43.60105244038059" lon="10.694527471632995"><ele>32.8</ele><time>2026-05-01T07:22:13.998Z</time></trkpt><trkpt lat="43.60094480373522" lon="10.694573992021953"><ele>32.599999999999994</ele><time>2026-05-01T07:22:15.998Z</time></trkpt><trkpt lat="43.60082951297079" lon="10.694591432878223"><ele>32.400000000000006</ele><time>2026-05-01T07:22:17.998Z</time></trkpt><trkpt lat="43.60076208622237" lon="10.694595099890256"><ele>32.2</ele><time>2026-05-01T07:22:18.998Z</time></trkpt><trkpt lat="43.600682866851834" lon="10.694582405800286"><ele>32.0</ele><time>2026-05-01T07:22:20Z</time></trkpt><trkpt lat="43.60059970217499" lon="10.694541479708544"><ele>31.999999999999996</ele><time>2026-05-01T07:22:21Z</time></trkpt><trkpt lat="43.60051924220213" lon="10.694502731568843"><ele>32.0</ele><time>2026-05-01T07:22:22Z</time></trkpt><trkpt lat="43.600436994552375" lon="10.694492125428209"><ele>32.0</ele><time>2026-05-01T07:22:23Z</time></trkpt><trkpt lat="43.600357927346074" lon="10.69451673041982"><ele>32.0</ele><time>2026-05-01T07:22:24Z</time></trkpt><trkpt lat="43.60029462423777" lon="10.694580794173312"><ele>31.999999999999996</ele><time>2026-05-01T07:22:25Z</time></trkpt><trkpt lat="43.60024124030931" lon="10.694683835186947"><ele>32.0</ele><time>2026-05-01T07:22:26Z</time></trkpt><trkpt lat="43.6001911349267" lon="10.694810993584516"><ele>32.25</ele><time>2026-05-01T07:22:27Z</time></trkpt><trkpt lat="43.60011788968743" lon="10.694935085368485"><ele>32.5</ele><time>2026-05-01T07:22:28Z</time></trkpt><trkpt lat="43.60001716336522" lon="10.695036535534875"><ele>32.75</ele><time>2026-05-01T07:22:29Z</time></trkpt><trkpt lat="43.599893469885366" lon="10.695122572291934"><ele>33.0</ele><time>2026-05-01T07:22:30Z</time></trkpt><trkpt lat="43.59975363744652" lon="10.695216166008139"><ele>33.333333333333336</ele><time>2026-05-01T07:22:31Z</time></trkpt><trkpt lat="43.59961811876883" lon="10.695310809510618"><ele>33.66666666666667</ele><time>2026-05-01T07:22:32Z</time></trkpt><trkpt lat="43.599479864161246" lon="10.695401827242701"><ele>34.0</ele><time>2026-05-01T07:22:33Z</time></trkpt><trkpt lat="43.59933982380178" lon="10.695495647624522"><ele>34.0</ele><time>2026-05-01T07:22:34Z</time></trkpt><trkpt lat="43.59920083120112" lon="10.695594292109963"><ele>34.0</ele><time>2026-05-01T07:22:35Z</time></trkpt><trkpt lat="43.599057163674075" lon="10.69568964696963"><ele>34.0</ele><time>2026-05-01T07:22:36Z</time></trkpt><trkpt lat="43.598911473534095" lon="10.69578173964134"><ele>34.0</ele><time>2026-05-01T07:22:37Z</time></trkpt><trkpt lat="43.59876221006112" lon="10.695879561517536"><ele>34.0</ele><time>2026-05-01T07:22:38Z</time></trkpt><trkpt lat="43.598609088579806" lon="10.695983047373018"><ele>34.0</ele><time>2026-05-01T07:22:39Z</time></trkpt><trkpt lat="43.59844804091608" lon="10.696087720909723"><ele>33.66666666666667</ele><time>2026-05-01T07:22:40Z</time></trkpt><trkpt lat="43.59828145843372" lon="10.696191439389994"><ele>33.333333333333336</ele><time>2026-05-01T07:22:41Z</time></trkpt><trkpt lat="43.598119526242506" lon="10.696291754222921"><ele>33.0</ele><time>2026-05-01T07:22:42Z</time></trkpt><trkpt lat="43.59795450168418" lon="10.696391145066489"><ele>33.333333333333336</ele><time>2026-05-01T07:22:43Z</time></trkpt><trkpt lat="43.59778818154875" lon="10.69649292744898"><ele>33.66666666666667</ele><time>2026-05-01T07:22:44Z</time></trkpt><trkpt lat="43.597620955804686" lon="10.696597138944892"><ele>34.0</ele><time>2026-05-01T07:22:45Z</time></trkpt><trkpt lat="43.597454686151266" lon="10.69669809498616"><ele>34.0</ele><time>2026-05-01T07:22:46Z</time></trkpt><trkpt lat="43.59728806845876" lon="10.696802027061267"><ele>34.0</ele><time>2026-05-01T07:22:47Z</time></trkpt><trkpt lat="43.59712255159741" lon="10.696903347040296"><ele>34.0</ele><time>2026-05-01T07:22:48Z</time></trkpt><trkpt lat="43.59695372238342" lon="10.69700479891503"><ele>34.0</ele><time>2026-05-01T07:22:49Z</time></trkpt><trkpt lat="43.59678564179729" lon="10.697109434446961"><ele>34.0</ele><time>2026-05-01T07:22:50Z</time></trkpt><trkpt lat="43.59661842573413" lon="10.697210280484558"><ele>34.0</ele><time>2026-05-01T07:22:51Z</time></trkpt><trkpt lat="43.59644999508513" lon="10.69731082726946"><ele>34.0</ele><time>2026-05-01T07:22:52Z</time></trkpt><trkpt lat="43.59628100765455" lon="10.697413221221604"><ele>34.0</ele><time>2026-05-01T07:22:53Z</time></trkpt><trkpt lat="43.59611321404474" lon="10.697518151656467"><ele>34.0</ele><time>2026-05-01T07:22:54Z</time></trkpt><trkpt lat="43.59594628570521" lon="10.697623315064217"><ele>33.66666666666667</ele><time>2026-05-01T07:22:55Z</time></trkpt><trkpt lat="43.59577943756487" lon="10.697723118450405"><ele>33.333333333333336</ele><time>2026-05-01T07:22:56Z</time></trkpt><trkpt lat="43.595614952566486" lon="10.697820349210673"><ele>33.0</ele><time>2026-05-01T07:22:57Z</time></trkpt><trkpt lat="43.595450621336134" lon="10.697921743038197"><ele>33.333333333333336</ele><time>2026-05-01T07:22:58Z</time></trkpt><trkpt lat="43.59528742819124" lon="10.69802746187929"><ele>33.66666666666667</ele><time>2026-05-01T07:22:59Z</time></trkpt><trkpt lat="43.59512337738614" lon="10.698137330175484"><ele>34.0</ele><time>2026-05-01T07:23:00Z</time></trkpt><trkpt lat="43.5949563282341" lon="10.698236412946011"><ele>34.0</ele><time>2026-05-01T07:23:01Z</time></trkpt><trkpt lat="43.594787367920574" lon="10.698331499388559"><ele>34.0</ele><time>2026-05-01T07:23:02Z</time></trkpt><trkpt lat="43.59461795496722" lon="10.698431311196094"><ele>34.0</ele><time>2026-05-01T07:23:03Z</time></trkpt><trkpt lat="43.59444870036068" lon="10.698536037021245"><ele>34.66666666666667</ele><time>2026-05-01T07:23:04Z</time></trkpt><trkpt lat="43.59428051318061" lon="10.69863808093921"><ele>35.333333333333336</ele><time>2026-05-01T07:23:04.999Z</time></trkpt><trkpt lat="43.594114027960835" lon="10.698742993919563"><ele>36.0</ele><time>2026-05-01T07:23:05.999Z</time></trkpt><trkpt lat="43.59394614328139" lon="10.698852161609167"><ele>36.0</ele><time>2026-05-01T07:23:06.999Z</time></trkpt><trkpt lat="43.593778111633846" lon="10.698954688862763"><ele>36.0</ele><time>2026-05-01T07:23:07.999Z</time></trkpt><trkpt lat="43.59360695107295" lon="10.699056153837764"><ele>36.0</ele><time>2026-05-01T07:23:08.999Z</time></trkpt><trkpt lat="43.59343585864972" lon="10.699160540676333"><ele>35.666666666666664</ele><time>2026-05-01T07:23:09.999Z</time></trkpt><trkpt lat="43.5932667982257" lon="10.699262209969126"><ele>35.33333333333333</ele><time>2026-05-01T07:23:10.999Z</time></trkpt><trkpt lat="43.59310077640905" lon="10.699360413436873"><ele>35.0</ele><time>2026-05-01T07:23:11.999Z</time></trkpt><trkpt lat="43.59294150244759" lon="10.699459646534228"><ele>34.666666666666664</ele><time>2026-05-01T07:23:12.999Z</time></trkpt><trkpt lat="43.592778390537994" lon="10.699559065584973"><ele>34.333333333333336</ele><time>2026-05-01T07:23:13.999Z</time></trkpt><trkpt lat="43.5926106839212" lon="10.699652914051219"><ele>34.0</ele><time>2026-05-01T07:23:14.999Z</time></trkpt><trkpt lat="43.59244685507969" lon="10.699755555887508"><ele>34.0</ele><time>2026-05-01T07:23:15.999Z</time></trkpt><trkpt lat="43.59227921958134" lon="10.699861087025816"><ele>34.0</ele><time>2026-05-01T07:23:16.999Z</time></trkpt><trkpt lat="43.59211352013861" lon="10.699961014366078"><ele>34.0</ele><time>2026-05-01T07:23:17.999Z</time></trkpt><trkpt lat="43.591950249584805" lon="10.700059928700762"><ele>34.333333333333336</ele><time>2026-05-01T07:23:18.999Z</time></trkpt><trkpt lat="43.591786420269074" lon="10.700160939722236"><ele>34.666666666666664</ele><time>2026-05-01T07:23:19.999Z</time></trkpt><trkpt lat="43.59162350376553" lon="10.700258034816478"><ele>35.0</ele><time>2026-05-01T07:23:20.999Z</time></trkpt><trkpt lat="43.5914601444237" lon="10.700362034067613"><ele>35.0</ele><time>2026-05-01T07:23:21.999Z</time></trkpt><trkpt lat="43.591297997495" lon="10.70046438080528"><ele>35.0</ele><time>2026-05-01T07:23:22.999Z</time></trkpt><trkpt lat="43.59113085198619" lon="10.700554192621132"><ele>35.0</ele><time>2026-05-01T07:23:23.999Z</time></trkpt><trkpt lat="43.59095988291237" lon="10.700638994180549"><ele>34.33333333333333</ele><time>2026-05-01T07:23:24.999Z</time></trkpt><trkpt lat="43.590790535063206" lon="10.700728821510095"><ele>33.666666666666664</ele><time>2026-05-01T07:23:25.999Z</time></trkpt><trkpt lat="43.5906198379007" lon="10.700815004396873"><ele>33.0</ele><time>2026-05-01T07:23:26.999Z</time></trkpt><trkpt lat="43.59044595624906" lon="10.700887382017516"><ele>34.0</ele><time>2026-05-01T07:23:27.999Z</time></trkpt><trkpt lat="43.59027264060704" lon="10.70096308655306"><ele>35.0</ele><time>2026-05-01T07:23:28.999Z</time></trkpt><trkpt lat="43.590098320768625" lon="10.701037238693324"><ele>36.0</ele><time>2026-05-01T07:23:29.999Z</time></trkpt><trkpt lat="43.589923566954354" lon="10.701105483093308"><ele>36.0</ele><time>2026-05-01T07:23:30.999Z</time></trkpt><trkpt lat="43.58975070770437" lon="10.701168804061416"><ele>36.0</ele><time>2026-05-01T07:23:31.999Z</time></trkpt><trkpt lat="43.58957740035252" lon="10.701231632254192"><ele>36.0</ele><time>2026-05-01T07:23:32.999Z</time></trkpt><trkpt lat="43.58939883992445" lon="10.701294610452214"><ele>36.333333333333336</ele><time>2026-05-01T07:23:33.999Z</time></trkpt><trkpt lat="43.5892065299446" lon="10.70134049435952"><ele>36.66666666666667</ele><time>2026-05-01T07:23:34.999Z</time></trkpt><trkpt lat="43.58899942378409" lon="10.701412845017677"><ele>37.0</ele><time>2026-05-01T07:23:35.999Z</time></trkpt><trkpt lat="43.58877963353302" lon="10.701487949715384"><ele>36.5</ele><time>2026-05-01T07:23:36.999Z</time></trkpt><trkpt lat="43.58855234882886" lon="10.701565594059069"><ele>36.0</ele><time>2026-05-01T07:23:37.999Z</time></trkpt><trkpt lat="43.58833712093196" lon="10.701639114262383"><ele>36.0</ele><time>2026-05-01T07:23:38.999Z</time></trkpt><trkpt lat="43.58813693931553" lon="10.701707365946334"><ele>36.0</ele><time>2026-05-01T07:23:39.999Z</time></trkpt><trkpt lat="43.587947797111234" lon="10.701771853478135"><ele>36.0</ele><time>2026-05-01T07:23:40.999Z</time></trkpt><trkpt lat="43.587761429151996" lon="10.701852495851245"><ele>36.333333333333336</ele><time>2026-05-01T07:23:41.999Z</time></trkpt><trkpt lat="43.58757240886476" lon="10.701916070997163"><ele>36.66666666666667</ele><time>2026-05-01T07:23:42.999Z</time></trkpt><trkpt lat="43.58739083476088" lon="10.701979558455797"><ele>37.0</ele><time>2026-05-01T07:23:43.999Z</time></trkpt><trkpt lat="43.587222095365156" lon="10.702034179924603"><ele>37.0</ele><time>2026-05-01T07:23:44.999Z</time></trkpt><trkpt lat="43.587061481656264" lon="10.70208656402982"><ele>37.0</ele><time>2026-05-01T07:23:45.999Z</time></trkpt><trkpt lat="43.58690795375709" lon="10.702139646809396"><ele>37.0</ele><time>2026-05-01T07:23:46.999Z</time></trkpt><trkpt lat="43.5867496508615" lon="10.702198549810591"><ele>36.333333333333336</ele><time>2026-05-01T07:23:47.999Z</time></trkpt><trkpt lat="43.586588596733804" lon="10.702257099634444"><ele>35.666666666666664</ele><time>2026-05-01T07:23:48.999Z</time></trkpt><trkpt lat="43.586424056825855" lon="10.702309828590364"><ele>35.0</ele><time>2026-05-01T07:23:49.999Z</time></trkpt><trkpt lat="43.586248434543876" lon="10.702354800921702"><ele>34.666666666666664</ele><time>2026-05-01T07:23:50.999Z</time></trkpt><trkpt lat="43.586056778195434" lon="10.7024198879936"><ele>34.333333333333336</ele><time>2026-05-01T07:23:51.998Z</time></trkpt><trkpt lat="43.58585423503748" lon="10.702488672271794"><ele>34.0</ele><time>2026-05-01T07:23:52.998Z</time></trkpt><trkpt lat="43.58564632658333" lon="10.702559423639885"><ele>34.0</ele><time>2026-05-01T07:23:53.998Z</time></trkpt><trkpt lat="43.58544052450019" lon="10.70263015148083"><ele>34.0</ele><time>2026-05-01T07:23:54.998Z</time></trkpt><trkpt lat="43.5852323796566" lon="10.702701684463186"><ele>34.0</ele><time>2026-05-01T07:23:55.998Z</time></trkpt><trkpt lat="43.58501139415027" lon="10.702777314843539"><ele>34.66666666666667</ele><time>2026-05-01T07:23:56.998Z</time></trkpt><trkpt lat="43.58479437213419" lon="10.702851566495392"><ele>35.333333333333336</ele><time>2026-05-01T07:23:57.998Z</time></trkpt><trkpt lat="43.584588892788354" lon="10.702933617177562"><ele>36.0</ele><time>2026-05-01T07:23:58.998Z</time></trkpt><trkpt lat="43.584384946405635" lon="10.702995706275017"><ele>36.0</ele><time>2026-05-01T07:23:59.998Z</time></trkpt><trkpt lat="43.584184292560586" lon="10.703068327505953"><ele>36.0</ele><time>2026-05-01T07:24:00.998Z</time></trkpt><trkpt lat="43.58398956198241" lon="10.703130695589081"><ele>36.0</ele><time>2026-05-01T07:24:01.998Z</time></trkpt><trkpt lat="43.583799251827514" lon="10.703188248025628"><ele>36.333333333333336</ele><time>2026-05-01T07:24:02.998Z</time></trkpt><trkpt lat="43.58361476223066" lon="10.70325699854613"><ele>36.66666666666667</ele><time>2026-05-01T07:24:03.998Z</time></trkpt><trkpt lat="43.58342593346618" lon="10.703327433054252"><ele>37.0</ele><time>2026-05-01T07:24:04.998Z</time></trkpt><trkpt lat="43.58323363063739" lon="10.7033912781623"><ele>37.0</ele><time>2026-05-01T07:24:05.998Z</time></trkpt><trkpt lat="43.58304318657197" lon="10.703455572481145"><ele>37.0</ele><time>2026-05-01T07:24:06.998Z</time></trkpt><trkpt lat="43.582852105696915" lon="10.703523189254263"><ele>37.0</ele><time>2026-05-01T07:24:07.998Z</time></trkpt><trkpt lat="43.58266601528688" lon="10.70358573671659"><ele>36.0</ele><time>2026-05-01T07:24:08.998Z</time></trkpt><trkpt lat="43.58249462346224" lon="10.703643361404472"><ele>35.0</ele><time>2026-05-01T07:24:09.998Z</time></trkpt><trkpt lat="43.58233007661923" lon="10.703700709769855"><ele>34.0</ele><time>2026-05-01T07:24:10.998Z</time></trkpt><trkpt lat="43.582174654745735" lon="10.703755164644276"><ele>34.0</ele><time>2026-05-01T07:24:11.998Z</time></trkpt><trkpt lat="43.582025290411764" lon="10.703804752337106"><ele>34.0</ele><time>2026-05-01T07:24:12.998Z</time></trkpt><trkpt lat="43.58188774709216" lon="10.703847935996087"><ele>34.0</ele><time>2026-05-01T07:24:13.998Z</time></trkpt><trkpt lat="43.581756635673074" lon="10.70388677204577"><ele>34.0</ele><time>2026-05-01T07:24:14.998Z</time></trkpt><trkpt lat="43.58162731372259" lon="10.703915343086743"><ele>34.5</ele><time>2026-05-01T07:24:15.998Z</time></trkpt><trkpt lat="43.58149696279137" lon="10.70393709449237"><ele>35.0</ele><time>2026-05-01T07:24:16.998Z</time></trkpt><trkpt lat="43.58136931789266" lon="10.703957348605817"><ele>35.5</ele><time>2026-05-01T07:24:17.998Z</time></trkpt><trkpt lat="43.58123586443653" lon="10.703976764573364"><ele>36.0</ele><time>2026-05-01T07:24:18.998Z</time></trkpt><trkpt lat="43.581105563443565" lon="10.703989220402276"><ele>36.25</ele><time>2026-05-01T07:24:19.998Z</time></trkpt><trkpt lat="43.58097596668473" lon="10.703999959127033"><ele>36.5</ele><time>2026-05-01T07:24:20.998Z</time></trkpt><trkpt lat="43.58084852899511" lon="10.704009002071054"><ele>36.75</ele><time>2026-05-01T07:24:21.998Z</time></trkpt><trkpt lat="43.58071660277477" lon="10.704015289809954"><ele>37.0</ele><time>2026-05-01T07:24:22.998Z</time></trkpt><trkpt lat="43.58059480234294" lon="10.704023741302553"><ele>37.0</ele><time>2026-05-01T07:24:23.998Z</time></trkpt><trkpt lat="43.58046984727493" lon="10.70405626426183"><ele>37.0</ele><time>2026-05-01T07:24:24.998Z</time></trkpt><trkpt lat="43.580344098997024" lon="10.704124113840736"><ele>37.0</ele><time>2026-05-01T07:24:26Z</time></trkpt><trkpt lat="43.5802199257128" lon="10.704224384745388"><ele>37.0</ele><time>2026-05-01T07:24:27Z</time></trkpt><trkpt lat="43.5800894788266" lon="10.70434015046926"><ele>37.0</ele><time>2026-05-01T07:24:28Z</time></trkpt><trkpt lat="43.57995359516222" lon="10.704445709993415"><ele>37.0</ele><time>2026-05-01T07:24:29Z</time></trkpt><trkpt lat="43.579812380438945" lon="10.704545366573438"><ele>37.0</ele><time>2026-05-01T07:24:30Z</time></trkpt><trkpt lat="43.579656440153954" lon="10.704648359271136"><ele>36.66666666666667</ele><time>2026-05-01T07:24:31Z</time></trkpt><trkpt lat="43.57948456816256" lon="10.704741257624448"><ele>36.333333333333336</ele><time>2026-05-01T07:24:32Z</time></trkpt><trkpt lat="43.57931174155361" lon="10.704811532923353"><ele>36.0</ele><time>2026-05-01T07:24:33Z</time></trkpt><trkpt lat="43.57913324227042" lon="10.704876478311224"><ele>36.0</ele><time>2026-05-01T07:24:34Z</time></trkpt><trkpt lat="43.57895817063884" lon="10.70494298807102"><ele>36.0</ele><time>2026-05-01T07:24:35Z</time></trkpt><trkpt lat="43.578787884630536" lon="10.70501121087392"><ele>36.0</ele><time>2026-05-01T07:24:36Z</time></trkpt><trkpt lat="43.57862684952438" lon="10.705073334346006"><ele>36.0</ele><time>2026-05-01T07:24:37Z</time></trkpt><trkpt lat="43.57847575332908" lon="10.70513366105995"><ele>36.0</ele><time>2026-05-01T07:24:38Z</time></trkpt><trkpt lat="43.578322515406164" lon="10.705195641955461"><ele>36.0</ele><time>2026-05-01T07:24:39Z</time></trkpt><trkpt lat="43.57816456376882" lon="10.70526228473841"><ele>36.0</ele><time>2026-05-01T07:24:40Z</time></trkpt><trkpt lat="43.57800385076391" lon="10.705325399643318"><ele>36.0</ele><time>2026-05-01T07:24:41Z</time></trkpt><trkpt lat="43.57784395591361" lon="10.70538434284784"><ele>36.0</ele><time>2026-05-01T07:24:42Z</time></trkpt><trkpt lat="43.57768045344604" lon="10.705461290258851"><ele>36.333333333333336</ele><time>2026-05-01T07:24:43Z</time></trkpt><trkpt lat="43.577495467946044" lon="10.70552294303776"><ele>36.66666666666667</ele><time>2026-05-01T07:24:44Z</time></trkpt><trkpt lat="43.57729540206219" lon="10.705602072299168"><ele>37.0</ele><time>2026-05-01T07:24:45Z</time></trkpt><trkpt lat="43.577108972568794" lon="10.705675810070378"><ele>37.333333333333336</ele><time>2026-05-01T07:24:46Z</time></trkpt><trkpt lat="43.57693367323213" lon="10.705764272824865"><ele>37.666666666666664</ele><time>2026-05-01T07:24:47Z</time></trkpt><trkpt lat="43.57676309635818" lon="10.705823054684737"><ele>38.0</ele><time>2026-05-01T07:24:48Z</time></trkpt><trkpt lat="43.57660354674907" lon="10.705877031370605"><ele>38.0</ele><time>2026-05-01T07:24:49Z</time></trkpt><trkpt lat="43.57644473173569" lon="10.705938376911279"><ele>38.0</ele><time>2026-05-01T07:24:50Z</time></trkpt><trkpt lat="43.576285424919604" lon="10.706005100627062"><ele>38.0</ele><time>2026-05-01T07:24:51Z</time></trkpt><trkpt lat="43.57612291402827" lon="10.706068844892089"><ele>38.0</ele><time>2026-05-01T07:24:52Z</time></trkpt><trkpt lat="43.57595824324465" lon="10.706135804249723"><ele>38.0</ele><time>2026-05-01T07:24:53Z</time></trkpt><trkpt lat="43.57579339617569" lon="10.70619914940657"><ele>38.0</ele><time>2026-05-01T07:24:54Z</time></trkpt><trkpt lat="43.57562841578263" lon="10.706262808850155"><ele>38.0</ele><time>2026-05-01T07:24:55Z</time></trkpt><trkpt lat="43.57546642498571" lon="10.706331094950245"><ele>38.0</ele><time>2026-05-01T07:24:56Z</time></trkpt><trkpt lat="43.575301498198506" lon="10.706401333530684"><ele>38.0</ele><time>2026-05-01T07:24:57Z</time></trkpt><trkpt lat="43.575132512537266" lon="10.706468275559295"><ele>38.0</ele><time>2026-05-01T07:24:58Z</time></trkpt><trkpt lat="43.57495884375844" lon="10.706535524112956"><ele>38.0</ele><time>2026-05-01T07:24:59Z</time></trkpt><trkpt lat="43.57478357788991" lon="10.706607805084824"><ele>38.0</ele><time>2026-05-01T07:25:00Z</time></trkpt><trkpt lat="43.57460767213344" lon="10.706685536778412"><ele>37.666666666666664</ele><time>2026-05-01T07:25:01Z</time></trkpt><trkpt lat="43.57443299546204" lon="10.706755387447094"><ele>37.333333333333336</ele><time>2026-05-01T07:25:02Z</time></trkpt><trkpt lat="43.574260367932766" lon="10.706820680968272"><ele>37.0</ele><time>2026-05-01T07:25:03Z</time></trkpt><trkpt lat="43.57409392354198" lon="10.706886846051848"><ele>37.0</ele><time>2026-05-01T07:25:04Z</time></trkpt><trkpt lat="43.573928187207265" lon="10.706955945111604"><ele>37.0</ele><time>2026-05-01T07:25:05Z</time></trkpt><trkpt lat="43.573762069084445" lon="10.707020505054448"><ele>37.0</ele><time>2026-05-01T07:25:06Z</time></trkpt><trkpt lat="43.57358850254082" lon="10.707085210363227"><ele>37.66666666666667</ele><time>2026-05-01T07:25:07Z</time></trkpt><trkpt lat="43.5734079501375" lon="10.707153655174535"><ele>38.333333333333336</ele><time>2026-05-01T07:25:08Z</time></trkpt><trkpt lat="43.57322048570437" lon="10.707230342862434"><ele>39.0</ele><time>2026-05-01T07:25:09Z</time></trkpt><trkpt lat="43.57302174773833" lon="10.707312838910068"><ele>39.5</ele><time>2026-05-01T07:25:10Z</time></trkpt><trkpt lat="43.572805492348174" lon="10.707382221434587"><ele>40.0</ele><time>2026-05-01T07:25:11Z</time></trkpt><trkpt lat="43.57257717740772" lon="10.707472346915308"><ele>40.0</ele><time>2026-05-01T07:25:12Z</time></trkpt><trkpt lat="43.572351562192665" lon="10.707561448820226"><ele>40.0</ele><time>2026-05-01T07:25:13Z</time></trkpt><trkpt lat="43.57213120180375" lon="10.707648557166456"><ele>39.333333333333336</ele><time>2026-05-01T07:25:14Z</time></trkpt><trkpt lat="43.57192778749337" lon="10.707749854815383"><ele>38.666666666666664</ele><time>2026-05-01T07:25:15Z</time></trkpt><trkpt lat="43.57173111237395" lon="10.70782563121459"><ele>38.0</ele><time>2026-05-01T07:25:16Z</time></trkpt><trkpt lat="43.571545466695994" lon="10.707900139601113"><ele>38.0</ele><time>2026-05-01T07:25:16.999Z</time></trkpt><trkpt lat="43.57135945578439" lon="10.707972578830505"><ele>38.0</ele><time>2026-05-01T07:25:17.999Z</time></trkpt><trkpt lat="43.571170172349845" lon="10.708045889012865"><ele>38.0</ele><time>2026-05-01T07:25:18.999Z</time></trkpt><trkpt lat="43.57098247480517" lon="10.708118346239228"><ele>38.0</ele><time>2026-05-01T07:25:19.999Z</time></trkpt><trkpt lat="43.5707956919718" lon="10.708190456733487"><ele>38.0</ele><time>2026-05-01T07:25:20.999Z</time></trkpt><trkpt lat="43.570610439732654" lon="10.708262500934904"><ele>38.0</ele><time>2026-05-01T07:25:21.999Z</time></trkpt><trkpt lat="43.57042801674198" lon="10.708335991248452"><ele>38.666666666666664</ele><time>2026-05-01T07:25:22.999Z</time></trkpt><trkpt lat="43.570246833099034" lon="10.708409886539414"><ele>39.333333333333336</ele><time>2026-05-01T07:25:23.999Z</time></trkpt><trkpt lat="43.570064994136615" lon="10.708482494954337"><ele>40.0</ele><time>2026-05-01T07:25:24.999Z</time></trkpt><trkpt lat="43.56988350203333" lon="10.708555425629076"><ele>40.0</ele><time>2026-05-01T07:25:25.999Z</time></trkpt><trkpt lat="43.569700506266706" lon="10.708627913617553"><ele>40.0</ele><time>2026-05-01T07:25:26.999Z</time></trkpt><trkpt lat="43.569516096013615" lon="10.708699403339812"><ele>40.0</ele><time>2026-05-01T07:25:27.999Z</time></trkpt><trkpt lat="43.56933745826932" lon="10.708768820930397"><ele>40.333333333333336</ele><time>2026-05-01T07:25:28.999Z</time></trkpt><trkpt lat="43.56915894348483" lon="10.70883907279659"><ele>40.666666666666664</ele><time>2026-05-01T07:25:29.999Z</time></trkpt><trkpt lat="43.5689697807055" lon="10.708915489561987"><ele>41.0</ele><time>2026-05-01T07:25:30.999Z</time></trkpt><trkpt lat="43.568764364319094" lon="10.70900959251064"><ele>40.5</ele><time>2026-05-01T07:25:31.999Z</time></trkpt><trkpt lat="43.56852502819384" lon="10.709080931549986"><ele>40.0</ele><time>2026-05-01T07:25:32.999Z</time></trkpt><trkpt lat="43.56826817650048" lon="10.70918287028091"><ele>40.0</ele><time>2026-05-01T07:25:33.999Z</time></trkpt><trkpt lat="43.56798924192849" lon="10.70929357325265"><ele>40.0</ele><time>2026-05-01T07:25:34.999Z</time></trkpt><trkpt lat="43.56772433840683" lon="10.709412526031386"><ele>39.5</ele><time>2026-05-01T07:25:35.999Z</time></trkpt><trkpt lat="43.56746740307788" lon="10.709514308045838"><ele>39.0</ele><time>2026-05-01T07:25:36.999Z</time></trkpt><trkpt lat="43.5672199586466" lon="10.709616578461933"><ele>40.5</ele><time>2026-05-01T07:25:37.999Z</time></trkpt><trkpt lat="43.56698249909625" lon="10.709702722454082"><ele>42.0</ele><time>2026-05-01T07:25:38.999Z</time></trkpt><trkpt lat="43.56675124351224" lon="10.709796311957454"><ele>42.0</ele><time>2026-05-01T07:25:39.999Z</time></trkpt><trkpt lat="43.56652453804546" lon="10.709896066038267"><ele>42.0</ele><time>2026-05-01T07:25:40.999Z</time></trkpt><trkpt lat="43.56629499460969" lon="10.709985220899357"><ele>42.0</ele><time>2026-05-01T07:25:41.999Z</time></trkpt><trkpt lat="43.56606820161806" lon="10.71007106356056"><ele>42.0</ele><time>2026-05-01T07:25:42.999Z</time></trkpt><trkpt lat="43.565845896835754" lon="10.71016548722999"><ele>42.0</ele><time>2026-05-01T07:25:43.999Z</time></trkpt><trkpt lat="43.56562887168691" lon="10.710259443425127"><ele>42.0</ele><time>2026-05-01T07:25:44.999Z</time></trkpt><trkpt lat="43.56541280346229" lon="10.710344709269668"><ele>41.666666666666664</ele><time>2026-05-01T07:25:45.999Z</time></trkpt><trkpt lat="43.5651979761623" lon="10.710423197249657"><ele>41.33333333333333</ele><time>2026-05-01T07:25:46.999Z</time></trkpt><trkpt lat="43.564985006235354" lon="10.710500867248044"><ele>41.0</ele><time>2026-05-01T07:25:47.999Z</time></trkpt><trkpt lat="43.56477407824467" lon="10.710584073161737"><ele>41.0</ele><time>2026-05-01T07:25:48.999Z</time></trkpt><trkpt lat="43.564565224253364" lon="10.710668859699414"><ele>41.0</ele><time>2026-05-01T07:25:49.999Z</time></trkpt><trkpt lat="43.564356494582114" lon="10.710749738174723"><ele>41.0</ele><time>2026-05-01T07:25:50.999Z</time></trkpt><trkpt lat="43.56414774880244" lon="10.710825336827192"><ele>41.33333333333333</ele><time>2026-05-01T07:25:51.999Z</time></trkpt><trkpt lat="43.563940738303046" lon="10.710905488793454"><ele>41.666666666666664</ele><time>2026-05-01T07:25:52.999Z</time></trkpt><trkpt lat="43.56373483833731" lon="10.710987745236269"><ele>42.0</ele><time>2026-05-01T07:25:53.999Z</time></trkpt><trkpt lat="43.5635309559897" lon="10.711065340138386"><ele>42.0</ele><time>2026-05-01T07:25:54.999Z</time></trkpt><trkpt lat="43.56332802469431" lon="10.711142497313345"><ele>42.0</ele><time>2026-05-01T07:25:55.999Z</time></trkpt><trkpt lat="43.56312695800836" lon="10.7112214671387"><ele>42.0</ele><time>2026-05-01T07:25:56.999Z</time></trkpt><trkpt lat="43.56292380885869" lon="10.711298851927681"><ele>42.333333333333336</ele><time>2026-05-01T07:25:57.999Z</time></trkpt><trkpt lat="43.56272358001029" lon="10.711378081429341"><ele>42.66666666666667</ele><time>2026-05-01T07:25:58.999Z</time></trkpt><trkpt lat="43.562521264156544" lon="10.711458384079256"><ele>43.0</ele><time>2026-05-01T07:25:59.999Z</time></trkpt><trkpt lat="43.56231763301459" lon="10.71153624391887"><ele>43.0</ele><time>2026-05-01T07:26:00.999Z</time></trkpt><trkpt lat="43.56211647930206" lon="10.71161332292539"><ele>43.0</ele><time>2026-05-01T07:26:01.999Z</time></trkpt><trkpt lat="43.56191851805617" lon="10.711691341994664"><ele>43.0</ele><time>2026-05-01T07:26:02.998Z</time></trkpt><trkpt lat="43.56172402916935" lon="10.711767873023543"><ele>43.0</ele><time>2026-05-01T07:26:03.998Z</time></trkpt><trkpt lat="43.561535420115064" lon="10.711842907288931"><ele>43.0</ele><time>2026-05-01T07:26:04.998Z</time></trkpt><trkpt lat="43.56134922296301" lon="10.711916039404569"><ele>43.0</ele><time>2026-05-01T07:26:05.998Z</time></trkpt><trkpt lat="43.56116378470453" lon="10.71198488856377"><ele>43.0</ele><time>2026-05-01T07:26:06.998Z</time></trkpt><trkpt lat="43.56097648089043" lon="10.712045453838087"><ele>43.0</ele><time>2026-05-01T07:26:07.998Z</time></trkpt><trkpt lat="43.560788068769895" lon="10.712091834003454"><ele>43.0</ele><time>2026-05-01T07:26:08.998Z</time></trkpt><trkpt lat="43.56059796969997" lon="10.71212241048396"><ele>43.0</ele><time>2026-05-01T07:26:09.998Z</time></trkpt><trkpt lat="43.56040811454337" lon="10.71214467872728"><ele>43.0</ele><time>2026-05-01T07:26:10.998Z</time></trkpt><trkpt lat="43.56021827168112" lon="10.7121614457685"><ele>43.0</ele><time>2026-05-01T07:26:11.998Z</time></trkpt><trkpt lat="43.56002683132489" lon="10.712172989684783"><ele>43.333333333333336</ele><time>2026-05-01T07:26:12.998Z</time></trkpt><trkpt lat="43.559837193869726" lon="10.712181349627217"><ele>43.666666666666664</ele><time>2026-05-01T07:26:13.998Z</time></trkpt><trkpt lat="43.5596490778316" lon="10.712194505060188"><ele>44.0</ele><time>2026-05-01T07:26:14.998Z</time></trkpt><trkpt lat="43.559458691871725" lon="10.71221083478289"><ele>44.0</ele><time>2026-05-01T07:26:15.998Z</time></trkpt><trkpt lat="43.55926860279414" lon="10.712223388879387"><ele>44.0</ele><time>2026-05-01T07:26:16.998Z</time></trkpt><trkpt lat="43.55907750101874" lon="10.712233081926422"><ele>44.0</ele><time>2026-05-01T07:26:17.998Z</time></trkpt><trkpt lat="43.558888281799" lon="10.712243831485422"><ele>44.0</ele><time>2026-05-01T07:26:18.998Z</time></trkpt><trkpt lat="43.55869933412062" lon="10.712257615726232"><ele>44.0</ele><time>2026-05-01T07:26:19.998Z</time></trkpt><trkpt lat="43.55850911292223" lon="10.712269399377222"><ele>44.0</ele><time>2026-05-01T07:26:20.998Z</time></trkpt><trkpt lat="43.5583160214307" lon="10.712280552252238"><ele>44.0</ele><time>2026-05-01T07:26:21.998Z</time></trkpt><trkpt lat="43.558122167392305" lon="10.712293603182221"><ele>44.0</ele><time>2026-05-01T07:26:22.998Z</time></trkpt><trkpt lat="43.55792591441444" lon="10.71230498374035"><ele>44.0</ele><time>2026-05-01T07:26:23.998Z</time></trkpt><trkpt lat="43.55773023202138" lon="10.7123176527495"><ele>44.33333333333333</ele><time>2026-05-01T07:26:24.998Z</time></trkpt><trkpt lat="43.557533291950264" lon="10.712331221769851"><ele>44.666666666666664</ele><time>2026-05-01T07:26:25.998Z</time></trkpt><trkpt lat="43.557335850733125" lon="10.712343263527966"><ele>45.0</ele><time>2026-05-01T07:26:26.998Z</time></trkpt><trkpt lat="43.55713759962856" lon="10.712354178442254"><ele>45.333333333333336</ele><time>2026-05-01T07:26:27.998Z</time></trkpt><trkpt lat="43.556942386806725" lon="10.71236877004225"><ele>45.66666666666667</ele><time>2026-05-01T07:26:28.998Z</time></trkpt><trkpt lat="43.55674675563672" lon="10.712385658219807"><ele>46.0</ele><time>2026-05-01T07:26:29.998Z</time></trkpt><trkpt lat="43.55654932572211" lon="10.71239873981321"><ele>46.0</ele><time>2026-05-01T07:26:30.998Z</time></trkpt><trkpt lat="43.55635134003722" lon="10.712408955846179"><ele>46.0</ele><time>2026-05-01T07:26:32Z</time></trkpt><trkpt lat="43.556153232286704" lon="10.712423543399257"><ele>46.0</ele><time>2026-05-01T07:26:33Z</time></trkpt><trkpt lat="43.555954323388264" lon="10.712438911829867"><ele>46.333333333333336</ele><time>2026-05-01T07:26:34Z</time></trkpt><trkpt lat="43.555756889746235" lon="10.712453234935932"><ele>46.666666666666664</ele><time>2026-05-01T07:26:35Z</time></trkpt><trkpt lat="43.5555582455485" lon="10.712465826291947"><ele>47.0</ele><time>2026-05-01T07:26:36Z</time></trkpt><trkpt lat="43.55536021019561" lon="10.712478605534644"><ele>47.0</ele><time>2026-05-01T07:26:37Z</time></trkpt><trkpt lat="43.55516215996683" lon="10.712493669444056"><ele>47.0</ele><time>2026-05-01T07:26:38Z</time></trkpt><trkpt lat="43.55496559891537" lon="10.71250692180747"><ele>47.0</ele><time>2026-05-01T07:26:39Z</time></trkpt><trkpt lat="43.55476785401731" lon="10.71251486179448"><ele>47.0</ele><time>2026-05-01T07:26:40Z</time></trkpt><trkpt lat="43.55456950601201" lon="10.71252623191848"><ele>47.0</ele><time>2026-05-01T07:26:41Z</time></trkpt><trkpt lat="43.55437232134231" lon="10.712539810650611"><ele>47.0</ele><time>2026-05-01T07:26:42Z</time></trkpt><trkpt lat="43.5541757431124" lon="10.71255301934651"><ele>47.0</ele><time>2026-05-01T07:26:43Z</time></trkpt><trkpt lat="43.55398027102883" lon="10.7125682407414"><ele>47.0</ele><time>2026-05-01T07:26:44Z</time></trkpt><trkpt lat="43.5537840043052" lon="10.712581779770364"><ele>47.0</ele><time>2026-05-01T07:26:45Z</time></trkpt><trkpt lat="43.553590086816556" lon="10.712599666081942"><ele>47.0</ele><time>2026-05-01T07:26:46Z</time></trkpt><trkpt lat="43.55339651440809" lon="10.712614011607865"><ele>47.0</ele><time>2026-05-01T07:26:47Z</time></trkpt><trkpt lat="43.55320371140856" lon="10.71262298473009"><ele>47.0</ele><time>2026-05-01T07:26:48Z</time></trkpt><trkpt lat="43.5530138514343" lon="10.712632186505141"><ele>47.0</ele><time>2026-05-01T07:26:49Z</time></trkpt><trkpt lat="43.55282385446543" lon="10.71264506285996"><ele>47.0</ele><time>2026-05-01T07:26:50Z</time></trkpt><trkpt lat="43.552634503978226" lon="10.712666529105121"><ele>47.0</ele><time>2026-05-01T07:26:51Z</time></trkpt><trkpt lat="43.552444702832936" lon="10.712708269023018"><ele>48.0</ele><time>2026-05-01T07:26:52Z</time></trkpt><trkpt lat="43.552254637800736" lon="10.712770670672302"><ele>49.0</ele><time>2026-05-01T07:26:53Z</time></trkpt><trkpt lat="43.55206941333319" lon="10.712861995819834"><ele>50.0</ele><time>2026-05-01T07:26:54Z</time></trkpt><trkpt lat="43.55188401367934" lon="10.712963373725284"><ele>50.333333333333336</ele><time>2026-05-01T07:26:55Z</time></trkpt><trkpt lat="43.551696686417394" lon="10.71304907317095"><ele>50.66666666666667</ele><time>2026-05-01T07:26:56Z</time></trkpt><trkpt lat="43.55150987774258" lon="10.713138205156616"><ele>51.0</ele><time>2026-05-01T07:26:57Z</time></trkpt><trkpt lat="43.55132691457484" lon="10.713230320467732"><ele>51.33333333333333</ele><time>2026-05-01T07:26:58Z</time></trkpt><trkpt lat="43.55114133103226" lon="10.713318169365797"><ele>51.666666666666664</ele><time>2026-05-01T07:26:59Z</time></trkpt><trkpt lat="43.55095444829763" lon="10.713404976869443"><ele>52.0</ele><time>2026-05-01T07:27:00Z</time></trkpt><trkpt lat="43.55077004414636" lon="10.71349515487784"><ele>53.0</ele><time>2026-05-01T07:27:01Z</time></trkpt><trkpt lat="43.55058841655227" lon="10.713585439018958"><ele>54.0</ele><time>2026-05-01T07:27:02Z</time></trkpt><trkpt lat="43.55040760387539" lon="10.71367532481851"><ele>55.0</ele><time>2026-05-01T07:27:03Z</time></trkpt><trkpt lat="43.55022839101611" lon="10.713763640628612"><ele>55.33333333333333</ele><time>2026-05-01T07:27:04Z</time></trkpt><trkpt lat="43.550051611484875" lon="10.713849679391092"><ele>55.66666666666667</ele><time>2026-05-01T07:27:05Z</time></trkpt><trkpt lat="43.549877824050434" lon="10.713933097740288"><ele>56.0</ele><time>2026-05-01T07:27:06Z</time></trkpt><trkpt lat="43.549709826212194" lon="10.714013392252687"><ele>55.66666666666667</ele><time>2026-05-01T07:27:07Z</time></trkpt><trkpt lat="43.54953755435113" lon="10.714081720699836"><ele>55.33333333333333</ele><time>2026-05-01T07:27:08Z</time></trkpt><trkpt lat="43.549360613697516" lon="10.714127471346638"><ele>55.0</ele><time>2026-05-01T07:27:09Z</time></trkpt><trkpt lat="43.54917871587602" lon="10.714122282419398"><ele>55.0</ele><time>2026-05-01T07:27:10Z</time></trkpt><trkpt lat="43.548999759772656" lon="10.714131552062806"><ele>55.0</ele><time>2026-05-01T07:27:11Z</time></trkpt><trkpt lat="43.548816267689716" lon="10.71411100246266"><ele>55.0</ele><time>2026-05-01T07:27:11.999Z</time></trkpt><trkpt lat="43.54862614037788" lon="10.714099704009799"><ele>54.33333333333333</ele><time>2026-05-01T07:27:12.999Z</time></trkpt><trkpt lat="43.54843117300525" lon="10.714096818380098"><ele>53.66666666666667</ele><time>2026-05-01T07:27:13.999Z</time></trkpt><trkpt lat="43.548234046284335" lon="10.714099087767012"><ele>53.0</ele><time>2026-05-01T07:27:14.999Z</time></trkpt><trkpt lat="43.54803231492595" lon="10.714113907072692"><ele>53.0</ele><time>2026-05-01T07:27:15.999Z</time></trkpt><trkpt lat="43.54783234274862" lon="10.714140273781947"><ele>53.0</ele><time>2026-05-01T07:27:16.999Z</time></trkpt><trkpt lat="43.54763306942682" lon="10.714175675917037"><ele>53.0</ele><time>2026-05-01T07:27:17.999Z</time></trkpt><trkpt lat="43.547435941990386" lon="10.71421771764322"><ele>53.0</ele><time>2026-05-01T07:27:18.999Z</time></trkpt><trkpt lat="43.547245233936486" lon="10.714271491076625"><ele>53.0</ele><time>2026-05-01T07:27:19.999Z</time></trkpt><trkpt lat="43.547054504435515" lon="10.714336633539261"><ele>53.0</ele><time>2026-05-01T07:27:20.999Z</time></trkpt><trkpt lat="43.54686635317423" lon="10.714402954118786"><ele>55.333333333333336</ele><time>2026-05-01T07:27:21.999Z</time></trkpt><trkpt lat="43.54668206707063" lon="10.714468340011223"><ele>57.66666666666667</ele><time>2026-05-01T07:27:22.999Z</time></trkpt><trkpt lat="43.546505215610466" lon="10.714534247141255"><ele>60.0</ele><time>2026-05-01T07:27:23.999Z</time></trkpt><trkpt lat="43.546328409132656" lon="10.71458235816927"><ele>59.0</ele><time>2026-05-01T07:27:24.999Z</time></trkpt><trkpt lat="43.54617458960364" lon="10.71466488718173"><ele>58.0</ele><time>2026-05-01T07:27:25.999Z</time></trkpt><trkpt lat="43.54602406989002" lon="10.714712604516478"><ele>57.0</ele><time>2026-05-01T07:27:26.999Z</time></trkpt><trkpt lat="43.54587979645253" lon="10.71475112601243"><ele>57.0</ele><time>2026-05-01T07:27:27.999Z</time></trkpt><trkpt lat="43.54574306671869" lon="10.714768075130962"><ele>57.0</ele><time>2026-05-01T07:27:28.999Z</time></trkpt><trkpt lat="43.545603681002824" lon="10.714760867435826"><ele>57.0</ele><time>2026-05-01T07:27:29.999Z</time></trkpt><trkpt lat="43.545465842489236" lon="10.714744838451749"><ele>57.0</ele><time>2026-05-01T07:27:30.999Z</time></trkpt><trkpt lat="43.54533318215951" lon="10.714739253003733"><ele>57.0</ele><time>2026-05-01T07:27:31.998Z</time></trkpt><trkpt lat="43.54521010236245" lon="10.714747270797359"><ele>57.0</ele><time>2026-05-01T07:27:32.998Z</time></trkpt><trkpt lat="43.545104764999245" lon="10.714754676077913"><ele>57.0</ele><time>2026-05-01T07:27:33.998Z</time></trkpt><trkpt lat="43.54501054250832" lon="10.714757222501296"><ele>57.0</ele><time>2026-05-01T07:27:34.998Z</time></trkpt><trkpt lat="43.544931310828005" lon="10.714763311824722"><ele>57.0</ele><time>2026-05-01T07:27:35.998Z</time></trkpt><trkpt lat="43.54486908064745" lon="10.7147885077927"><ele>57.0</ele><time>2026-05-01T07:27:36.998Z</time></trkpt><trkpt lat="43.544774762412246" lon="10.7148720761928"><ele>57.0</ele><time>2026-05-01T07:27:38.998Z</time></trkpt><trkpt lat="43.54468427718905" lon="10.714909739191066"><ele>57.0</ele><time>2026-05-01T07:27:39.998Z</time></trkpt><trkpt lat="43.54458298004966" lon="10.714929692663961"><ele>57.0</ele><time>2026-05-01T07:27:40.998Z</time></trkpt><trkpt lat="43.544475118803874" lon="10.71492630509018"><ele>57.0</ele><time>2026-05-01T07:27:41.998Z</time></trkpt><trkpt lat="43.5443602457184" lon="10.714925144020583"><ele>56.400000000000006</ele><time>2026-05-01T07:27:42.998Z</time></trkpt><trkpt lat="43.54425929355663" lon="10.714924124668048"><ele>55.800000000000004</ele><time>2026-05-01T07:27:43.998Z</time></trkpt><trkpt lat="43.54416066816473" lon="10.71492224814558"><ele>55.2</ele><time>2026-05-01T07:27:44.998Z</time></trkpt><trkpt lat="43.544067680879564" lon="10.71491904893873"><ele>54.6</ele><time>2026-05-01T07:27:45.998Z</time></trkpt><trkpt lat="43.54397721463442" lon="10.714914611361499"><ele>54.0</ele><time>2026-05-01T07:27:46.998Z</time></trkpt><trkpt lat="43.54389346896503" lon="10.714894001368657"><ele>54.0</ele><time>2026-05-01T07:27:47.998Z</time></trkpt><trkpt lat="43.54381664456977" lon="10.714841022179346"><ele>54.00000000000001</ele><time>2026-05-01T07:27:48.998Z</time></trkpt><trkpt lat="43.5437475888099" lon="10.714748948183775"><ele>54.00000000000001</ele><time>2026-05-01T07:27:49.998Z</time></trkpt><trkpt lat="43.54370266456088" lon="10.714625866242184"><ele>54.0</ele><time>2026-05-01T07:27:50.998Z</time></trkpt><trkpt lat="43.54368066414045" lon="10.714481120519537"><ele>54.0</ele><time>2026-05-01T07:27:51.998Z</time></trkpt><trkpt lat="43.54366203559128" lon="10.714332605634473"><ele>49.666666666666664</ele><time>2026-05-01T07:27:52.998Z</time></trkpt><trkpt lat="43.54362979574916" lon="10.714155385025288"><ele>45.33333333333333</ele><time>2026-05-01T07:27:53.998Z</time></trkpt><trkpt lat="43.54361007791187" lon="10.713926896975652"><ele>41.0</ele><time>2026-05-01T07:27:54.998Z</time></trkpt><trkpt lat="43.543562421924555" lon="10.71368141891683"><ele>41.33333333333333</ele><time>2026-05-01T07:27:55.998Z</time></trkpt><trkpt lat="43.54354771030147" lon="10.713444364510774"><ele>41.666666666666664</ele><time>2026-05-01T07:27:56.998Z</time></trkpt><trkpt lat="43.543516375569816" lon="10.713203179285983"><ele>42.0</ele><time>2026-05-01T07:27:57.998Z</time></trkpt><trkpt lat="43.5434810356323" lon="10.712966546521182"><ele>42.333333333333336</ele><time>2026-05-01T07:27:58.998Z</time></trkpt><trkpt lat="43.54345313691636" lon="10.712734708408993"><ele>42.66666666666667</ele><time>2026-05-01T07:27:59.998Z</time></trkpt><trkpt lat="43.54342256463771" lon="10.712510630981148"><ele>43.0</ele><time>2026-05-01T07:28:00.998Z</time></trkpt><trkpt lat="43.54338862493152" lon="10.712288116238975"><ele>43.0</ele><time>2026-05-01T07:28:01.998Z</time></trkpt><trkpt lat="43.543356150574645" lon="10.712067012840002"><ele>43.0</ele><time>2026-05-01T07:28:02.998Z</time></trkpt><trkpt lat="43.54332752538904" lon="10.711847483793726"><ele>43.0</ele><time>2026-05-01T07:28:03.998Z</time></trkpt><trkpt lat="43.543298921862636" lon="10.711627738883573"><ele>43.0</ele><time>2026-05-01T07:28:04.998Z</time></trkpt><trkpt lat="43.543268901022216" lon="10.711403891289217"><ele>43.0</ele><time>2026-05-01T07:28:05.998Z</time></trkpt><trkpt lat="43.543239088926995" lon="10.711181628755897"><ele>43.0</ele><time>2026-05-01T07:28:06.998Z</time></trkpt><trkpt lat="43.54320946335146" lon="10.71095618097804"><ele>43.66666666666667</ele><time>2026-05-01T07:28:07.998Z</time></trkpt><trkpt lat="43.543177129184265" lon="10.710729510067713"><ele>44.333333333333336</ele><time>2026-05-01T07:28:08.998Z</time></trkpt><trkpt lat="43.543143399603494" lon="10.710504055092343"><ele>45.0</ele><time>2026-05-01T07:28:09.998Z</time></trkpt><trkpt lat="43.54311212245995" lon="10.710280726250126"><ele>46.0</ele><time>2026-05-01T07:28:10.998Z</time></trkpt><trkpt lat="43.54308019145543" lon="10.710055722193733"><ele>47.0</ele><time>2026-05-01T07:28:11.998Z</time></trkpt><trkpt lat="43.54304891938978" lon="10.709831899266248"><ele>48.0</ele><time>2026-05-01T07:28:12.998Z</time></trkpt><trkpt lat="43.54301967699595" lon="10.709604082066544"><ele>48.33333333333333</ele><time>2026-05-01T07:28:13.998Z</time></trkpt><trkpt lat="43.5429891563436" lon="10.709376829093289"><ele>48.666666666666664</ele><time>2026-05-01T07:28:14.998Z</time></trkpt><trkpt lat="43.54295802360992" lon="10.709149815544588"><ele>49.0</ele><time>2026-05-01T07:28:15.998Z</time></trkpt><trkpt lat="43.54292886597889" lon="10.708922668455685"><ele>49.0</ele><time>2026-05-01T07:28:16.998Z</time></trkpt><trkpt lat="43.54290058388709" lon="10.70869811869324"><ele>49.0</ele><time>2026-05-01T07:28:17.998Z</time></trkpt><trkpt lat="43.54286987785802" lon="10.708478338268247"><ele>49.0</ele><time>2026-05-01T07:28:18.997Z</time></trkpt><trkpt lat="43.54283766470844" lon="10.7082581114026"><ele>49.0</ele><time>2026-05-01T07:28:19.997Z</time></trkpt><trkpt lat="43.542804605672444" lon="10.70804526617396"><ele>49.0</ele><time>2026-05-01T07:28:20.997Z</time></trkpt><trkpt lat="43.542772479932616" lon="10.707832249609874"><ele>49.0</ele><time>2026-05-01T07:28:21.997Z</time></trkpt><trkpt lat="43.5427452165882" lon="10.70761815082168"><ele>49.0</ele><time>2026-05-01T07:28:22.997Z</time></trkpt><trkpt lat="43.542719429108885" lon="10.707406733661136"><ele>49.0</ele><time>2026-05-01T07:28:23.997Z</time></trkpt><trkpt lat="43.5426919839096" lon="10.707193410541347"><ele>49.0</ele><time>2026-05-01T07:28:24.997Z</time></trkpt><trkpt lat="43.54266212624964" lon="10.706985130213486"><ele>49.666666666666664</ele><time>2026-05-01T07:28:25.997Z</time></trkpt><trkpt lat="43.54263197852223" lon="10.706776366588022"><ele>50.33333333333333</ele><time>2026-05-01T07:28:26.997Z</time></trkpt><trkpt lat="43.54260255838401" lon="10.706564883771835"><ele>51.0</ele><time>2026-05-01T07:28:27.997Z</time></trkpt><trkpt lat="43.54258027588025" lon="10.706351597575406"><ele>51.0</ele><time>2026-05-01T07:28:28.997Z</time></trkpt><trkpt lat="43.54255240639112" lon="10.706135995054689"><ele>51.0</ele><time>2026-05-01T07:28:29.997Z</time></trkpt><trkpt lat="43.542524554079925" lon="10.70592358556611"><ele>51.0</ele><time>2026-05-01T07:28:30.997Z</time></trkpt><trkpt lat="43.54249213341651" lon="10.70570848108358"><ele>50.66666666666667</ele><time>2026-05-01T07:28:31.997Z</time></trkpt><trkpt lat="43.54246555721964" lon="10.705499579156136"><ele>50.333333333333336</ele><time>2026-05-01T07:28:32.997Z</time></trkpt><trkpt lat="43.542434642520256" lon="10.705284968389478"><ele>50.0</ele><time>2026-05-01T07:28:33.997Z</time></trkpt><trkpt lat="43.54240828999056" lon="10.705078392840557"><ele>49.66666666666667</ele><time>2026-05-01T07:28:34.997Z</time></trkpt><trkpt lat="43.542382225620706" lon="10.704869135943921"><ele>49.33333333333333</ele><time>2026-05-01T07:28:35.997Z</time></trkpt><trkpt lat="43.54235143094892" lon="10.704658159837235"><ele>49.0</ele><time>2026-05-01T07:28:36.997Z</time></trkpt><trkpt lat="43.54232072301784" lon="10.704458035749512"><ele>49.5</ele><time>2026-05-01T07:28:38Z</time></trkpt><trkpt lat="43.542295070651555" lon="10.704257452801665"><ele>50.0</ele><time>2026-05-01T07:28:39Z</time></trkpt><trkpt lat="43.54226309873202" lon="10.704056916666069"><ele>50.5</ele><time>2026-05-01T07:28:40Z</time></trkpt><trkpt lat="43.54223921954721" lon="10.703856354857956"><ele>51.0</ele><time>2026-05-01T07:28:41Z</time></trkpt><trkpt lat="43.54221646969158" lon="10.703662481620277"><ele>51.0</ele><time>2026-05-01T07:28:42Z</time></trkpt><trkpt lat="43.5421891794012" lon="10.70347226211906"><ele>51.0</ele><time>2026-05-01T07:28:43Z</time></trkpt><trkpt lat="43.54215698817488" lon="10.703283892173912"><ele>51.0</ele><time>2026-05-01T07:28:44Z</time></trkpt><trkpt lat="43.54213086480769" lon="10.703095651526457"><ele>51.0</ele><time>2026-05-01T07:28:45Z</time></trkpt><trkpt lat="43.54211120274048" lon="10.702904822405282"><ele>51.5</ele><time>2026-05-01T07:28:46Z</time></trkpt><trkpt lat="43.54208525663638" lon="10.702713386287234"><ele>52.0</ele><time>2026-05-01T07:28:47Z</time></trkpt><trkpt lat="43.54205633620151" lon="10.702511842495214"><ele>52.5</ele><time>2026-05-01T07:28:48Z</time></trkpt><trkpt lat="43.54203028417206" lon="10.702319456453562"><ele>53.0</ele><time>2026-05-01T07:28:49Z</time></trkpt><trkpt lat="43.54200862430717" lon="10.702133726259754"><ele>53.0</ele><time>2026-05-01T07:28:50Z</time></trkpt><trkpt lat="43.541986554946725" lon="10.701960134620764"><ele>53.0</ele><time>2026-05-01T07:28:51Z</time></trkpt><trkpt lat="43.54196137093743" lon="10.701798672197102"><ele>53.0</ele><time>2026-05-01T07:28:52Z</time></trkpt><trkpt lat="43.54194269434086" lon="10.701656262133286"><ele>53.0</ele><time>2026-05-01T07:28:53Z</time></trkpt><trkpt lat="43.54192838823779" lon="10.701516171628084"><ele>53.16666666666667</ele><time>2026-05-01T07:28:54Z</time></trkpt><trkpt lat="43.54191223482986" lon="10.701383145069032"><ele>53.333333333333336</ele><time>2026-05-01T07:28:55Z</time></trkpt><trkpt lat="43.54189305102044" lon="10.70125923670148"><ele>53.5</ele><time>2026-05-01T07:28:56Z</time></trkpt><trkpt lat="43.54187767575409" lon="10.70114946829715"><ele>53.66666666666667</ele><time>2026-05-01T07:28:57Z</time></trkpt><trkpt lat="43.541865614582505" lon="10.701052840548194"><ele>53.833333333333336</ele><time>2026-05-01T07:28:57.999Z</time></trkpt><trkpt lat="43.54185174006663" lon="10.700962482368656"><ele>54.0</ele><time>2026-05-01T07:28:58.999Z</time></trkpt><trkpt lat="43.54183144249832" lon="10.70080226294207"><ele>54.400000000000006</ele><time>2026-05-01T07:29:00.999Z</time></trkpt><trkpt lat="43.54180828388719" lon="10.70065729653418"><ele>54.800000000000004</ele><time>2026-05-01T07:29:02.999Z</time></trkpt><trkpt lat="43.54179148470574" lon="10.700527272614021"><ele>55.199999999999996</ele><time>2026-05-01T07:29:04.999Z</time></trkpt><trkpt lat="43.54178184376857" lon="10.700399017121168"><ele>55.599999999999994</ele><time>2026-05-01T07:29:06.999Z</time></trkpt><trkpt lat="43.541788753481526" lon="10.700260804249533"><ele>56.0</ele><time>2026-05-01T07:29:08.999Z</time></trkpt><trkpt lat="43.54182161119277" lon="10.70011248665432"><ele>56.00000000000001</ele><time>2026-05-01T07:29:10.999Z</time></trkpt><trkpt lat="43.54178324563125" lon="10.699957236812669"><ele>56.0</ele><time>2026-05-01T07:29:12.999Z</time></trkpt><trkpt lat="43.5417300699252" lon="10.69990761071855"><ele>56.0</ele><time>2026-05-01T07:29:13.999Z</time></trkpt><trkpt lat="43.54166419786295" lon="10.699915178154338"><ele>56.0</ele><time>2026-05-01T07:29:14.999Z</time></trkpt><trkpt lat="43.541582718319525" lon="10.699971990906555"><ele>56.00000000000001</ele><time>2026-05-01T07:29:15.999Z</time></trkpt><trkpt lat="43.541491125393755" lon="10.700032077148322"><ele>56.0</ele><time>2026-05-01T07:29:16.999Z</time></trkpt><trkpt lat="43.541397884070115" lon="10.700057432127354"><ele>56.0</ele><time>2026-05-01T07:29:17.999Z</time></trkpt><trkpt lat="43.54130061527875" lon="10.700071676925965"><ele>55.99999999999999</ele><time>2026-05-01T07:29:18.999Z</time></trkpt><trkpt lat="43.54120527966763" lon="10.70009169674871"><ele>55.99999999999999</ele><time>2026-05-01T07:29:19.999Z</time></trkpt><trkpt lat="43.54110782329712" lon="10.700114405297743"><ele>56.0</ele><time>2026-05-01T07:29:20.999Z</time></trkpt><trkpt lat="43.54099601836454" lon="10.700132702248542"><ele>56.0</ele><time>2026-05-01T07:29:21.999Z</time></trkpt><trkpt lat="43.54087507874287" lon="10.700143687250481"><ele>56.5</ele><time>2026-05-01T07:29:22.999Z</time></trkpt><trkpt lat="43.54075250239211" lon="10.700162268300002"><ele>57.0</ele><time>2026-05-01T07:29:23.999Z</time></trkpt><trkpt lat="43.540633101079095" lon="10.700183935058005"><ele>57.5</ele><time>2026-05-01T07:29:24.999Z</time></trkpt><trkpt lat="43.540511178092814" lon="10.700203496573616"><ele>58.0</ele><time>2026-05-01T07:29:25.999Z</time></trkpt><trkpt lat="43.540391475181956" lon="10.700220106060959"><ele>58.25</ele><time>2026-05-01T07:29:26.999Z</time></trkpt><trkpt lat="43.54026573595658" lon="10.700236765580492"><ele>58.5</ele><time>2026-05-01T07:29:27.999Z</time></trkpt><trkpt lat="43.540132556515324" lon="10.70026002486439"><ele>58.75</ele><time>2026-05-01T07:29:28.999Z</time></trkpt><trkpt lat="43.53997360475549" lon="10.700266876420732"><ele>59.0</ele><time>2026-05-01T07:29:29.999Z</time></trkpt><trkpt lat="43.539790404241096" lon="10.700334077210568"><ele>58.333333333333336</ele><time>2026-05-01T07:29:30.999Z</time></trkpt><trkpt lat="43.539602752689966" lon="10.70033283666303"><ele>57.66666666666667</ele><time>2026-05-01T07:29:31.999Z</time></trkpt><trkpt lat="43.53941896818331" lon="10.70034540990951"><ele>57.0</ele><time>2026-05-01T07:29:32.999Z</time></trkpt><trkpt lat="43.53923530084178" lon="10.70036893383334"><ele>57.0</ele><time>2026-05-01T07:29:33.999Z</time></trkpt><trkpt lat="43.53905693691626" lon="10.700393796487955"><ele>57.0</ele><time>2026-05-01T07:29:34.999Z</time></trkpt><trkpt lat="43.53887975467029" lon="10.700412233458758"><ele>57.0</ele><time>2026-05-01T07:29:35.999Z</time></trkpt><trkpt lat="43.53870136158881" lon="10.700436090611346"><ele>57.0</ele><time>2026-05-01T07:29:36.999Z</time></trkpt><trkpt lat="43.53852527206207" lon="10.70046227479276"><ele>57.0</ele><time>2026-05-01T07:29:37.999Z</time></trkpt><trkpt lat="43.538349466193985" lon="10.700484192694146"><ele>57.0</ele><time>2026-05-01T07:29:38.999Z</time></trkpt><trkpt lat="43.538175182266166" lon="10.700505633311687"><ele>57.0</ele><time>2026-05-01T07:29:39.999Z</time></trkpt><trkpt lat="43.53800198601089" lon="10.700531488667021"><ele>57.0</ele><time>2026-05-01T07:29:40.999Z</time></trkpt><trkpt lat="43.537829432060626" lon="10.70055726936065"><ele>57.0</ele><time>2026-05-01T07:29:41.999Z</time></trkpt><trkpt lat="43.537660464291434" lon="10.70058314630613"><ele>57.0</ele><time>2026-05-01T07:29:42.999Z</time></trkpt><trkpt lat="43.53749367085157" lon="10.700609918779382"><ele>57.0</ele><time>2026-05-01T07:29:43.998Z</time></trkpt><trkpt lat="43.53732417449737" lon="10.700643513025373"><ele>57.0</ele><time>2026-05-01T07:29:44.998Z</time></trkpt><trkpt lat="43.537157360124965" lon="10.70067736704282"><ele>56.33333333333333</ele><time>2026-05-01T07:29:45.998Z</time></trkpt><trkpt lat="43.53699845125132" lon="10.700707353985816"><ele>55.666666666666664</ele><time>2026-05-01T07:29:46.998Z</time></trkpt><trkpt lat="43.53684162562678" lon="10.70073801428254"><ele>55.0</ele><time>2026-05-01T07:29:47.998Z</time></trkpt><trkpt lat="43.536685586953666" lon="10.700769450677752"><ele>55.0</ele><time>2026-05-01T07:29:48.998Z</time></trkpt><trkpt lat="43.53652748510725" lon="10.700805223552141"><ele>55.0</ele><time>2026-05-01T07:29:49.998Z</time></trkpt><trkpt lat="43.53637274492475" lon="10.700838508962278"><ele>55.0</ele><time>2026-05-01T07:29:50.998Z</time></trkpt><trkpt lat="43.53621772483398" lon="10.700868758510978"><ele>55.666666666666664</ele><time>2026-05-01T07:29:51.998Z</time></trkpt><trkpt lat="43.536065167265704" lon="10.700900800524009"><ele>56.33333333333333</ele><time>2026-05-01T07:29:52.998Z</time></trkpt><trkpt lat="43.53591058432668" lon="10.700934081152376"><ele>57.0</ele><time>2026-05-01T07:29:53.998Z</time></trkpt><trkpt lat="43.53575306488972" lon="10.700970115648405"><ele>57.0</ele><time>2026-05-01T07:29:54.998Z</time></trkpt><trkpt lat="43.53559457407221" lon="10.701006300569176"><ele>57.0</ele><time>2026-05-01T07:29:55.998Z</time></trkpt><trkpt lat="43.53543216371036" lon="10.70104134225024"><ele>57.0</ele><time>2026-05-01T07:29:56.998Z</time></trkpt><trkpt lat="43.53526798847961" lon="10.70107458287121"><ele>56.66666666666667</ele><time>2026-05-01T07:29:57.998Z</time></trkpt><trkpt lat="43.53510392528499" lon="10.701104432457454"><ele>56.333333333333336</ele><time>2026-05-01T07:29:58.998Z</time></trkpt><trkpt lat="43.53493550374294" lon="10.701135978669209"><ele>56.0</ele><time>2026-05-01T07:29:59.998Z</time></trkpt><trkpt lat="43.534767461108764" lon="10.70117237939422"><ele>56.0</ele><time>2026-05-01T07:30:00.998Z</time></trkpt><trkpt lat="43.534596330107036" lon="10.701208708398028"><ele>56.0</ele><time>2026-05-01T07:30:01.998Z</time></trkpt><trkpt lat="43.53442643746811" lon="10.701243977502278"><ele>56.0</ele><time>2026-05-01T07:30:02.998Z</time></trkpt><trkpt lat="43.53425473913452" lon="10.701280315533392"><ele>56.0</ele><time>2026-05-01T07:30:03.998Z</time></trkpt><trkpt lat="43.53407566959376" lon="10.701320997571225"><ele>56.0</ele><time>2026-05-01T07:30:04.998Z</time></trkpt><trkpt lat="43.533893527085944" lon="10.7013554532559"><ele>56.0</ele><time>2026-05-01T07:30:05.998Z</time></trkpt><trkpt lat="43.53369266566025" lon="10.701410002049435"><ele>56.0</ele><time>2026-05-01T07:30:06.998Z</time></trkpt><trkpt lat="43.53346993170971" lon="10.701434958974945"><ele>56.0</ele><time>2026-05-01T07:30:07.998Z</time></trkpt><trkpt lat="43.53324240839286" lon="10.701481832981953"><ele>56.0</ele><time>2026-05-01T07:30:08.998Z</time></trkpt><trkpt lat="43.53302219778003" lon="10.70152867033261"><ele>56.0</ele><time>2026-05-01T07:30:09.998Z</time></trkpt><trkpt lat="43.532803288673726" lon="10.70156811040167"><ele>56.0</ele><time>2026-05-01T07:30:10.998Z</time></trkpt><trkpt lat="43.532580838566254" lon="10.70161445825774"><ele>55.5</ele><time>2026-05-01T07:30:11.998Z</time></trkpt><trkpt lat="43.532357092358346" lon="10.70165822599471"><ele>55.0</ele><time>2026-05-01T07:30:12.998Z</time></trkpt><trkpt lat="43.532132334680774" lon="10.701704872642122"><ele>55.0</ele><time>2026-05-01T07:30:13.998Z</time></trkpt><trkpt lat="43.53191251394642" lon="10.70175366686528"><ele>55.0</ele><time>2026-05-01T07:30:14.998Z</time></trkpt><trkpt lat="43.53169358309615" lon="10.701798346091316"><ele>55.0</ele><time>2026-05-01T07:30:15.998Z</time></trkpt><trkpt lat="43.5314770156669" lon="10.701840938710866"><ele>55.0</ele><time>2026-05-01T07:30:16.998Z</time></trkpt><trkpt lat="43.53126143084205" lon="10.701887391903046"><ele>55.0</ele><time>2026-05-01T07:30:17.998Z</time></trkpt><trkpt lat="43.53104390146714" lon="10.701930995323359"><ele>55.0</ele><time>2026-05-01T07:30:18.998Z</time></trkpt><trkpt lat="43.530824277256784" lon="10.701963443969172"><ele>55.0</ele><time>2026-05-01T07:30:19.998Z</time></trkpt><trkpt lat="43.53060463758256" lon="10.701992657217268"><ele>55.0</ele><time>2026-05-01T07:30:20.998Z</time></trkpt><trkpt lat="43.53038672370758" lon="10.702024501570623"><ele>55.0</ele><time>2026-05-01T07:30:21.998Z</time></trkpt><trkpt lat="43.530168430199566" lon="10.702057176026248"><ele>55.0</ele><time>2026-05-01T07:30:22.998Z</time></trkpt><trkpt lat="43.529950514424485" lon="10.702087952170256"><ele>55.0</ele><time>2026-05-01T07:30:23.998Z</time></trkpt><trkpt lat="43.52973474075211" lon="10.702113505607105"><ele>55.0</ele><time>2026-05-01T07:30:24.998Z</time></trkpt><trkpt lat="43.52952118521735" lon="10.702140058952939"><ele>55.0</ele><time>2026-05-01T07:30:25.998Z</time></trkpt><trkpt lat="43.52930504651095" lon="10.702168955254098"><ele>55.0</ele><time>2026-05-01T07:30:26.998Z</time></trkpt><trkpt lat="43.529088430428615" lon="10.702188167995706"><ele>55.0</ele><time>2026-05-01T07:30:27.998Z</time></trkpt><trkpt lat="43.52887072067552" lon="10.702196677985105"><ele>56.0</ele><time>2026-05-01T07:30:28.998Z</time></trkpt><trkpt lat="43.52865292533393" lon="10.702202903996753"><ele>57.0</ele><time>2026-05-01T07:30:29.997Z</time></trkpt><trkpt lat="43.52843517875059" lon="10.702211170218847"><ele>58.0</ele><time>2026-05-01T07:30:30.997Z</time></trkpt><trkpt lat="43.52821628941082" lon="10.70222349663915"><ele>58.0</ele><time>2026-05-01T07:30:31.997Z</time></trkpt><trkpt lat="43.52799847927881" lon="10.702232221163904"><ele>58.0</ele><time>2026-05-01T07:30:32.997Z</time></trkpt><trkpt lat="43.52778234960018" lon="10.70223909944066"><ele>58.0</ele><time>2026-05-01T07:30:33.997Z</time></trkpt><trkpt lat="43.52756476871274" lon="10.702246863113324"><ele>57.33333333333333</ele><time>2026-05-01T07:30:34.997Z</time></trkpt><trkpt lat="43.527350043628076" lon="10.702254002733552"><ele>56.66666666666667</ele><time>2026-05-01T07:30:35.997Z</time></trkpt><trkpt lat="43.5271365078745" lon="10.702257287973314"><ele>56.0</ele><time>2026-05-01T07:30:36.997Z</time></trkpt><trkpt lat="43.52693837121605" lon="10.702259453570647"><ele>56.0</ele><time>2026-05-01T07:30:37.997Z</time></trkpt><trkpt lat="43.526748446121886" lon="10.70227321586224"><ele>56.0</ele><time>2026-05-01T07:30:38.997Z</time></trkpt><trkpt lat="43.52657666100164" lon="10.702313120884542"><ele>56.0</ele><time>2026-05-01T07:30:39.997Z</time></trkpt><trkpt lat="43.526421193954306" lon="10.70238441750084"><ele>56.0</ele><time>2026-05-01T07:30:40.997Z</time></trkpt><trkpt lat="43.52629119702804" lon="10.70247662752223"><ele>56.0</ele><time>2026-05-01T07:30:41.997Z</time></trkpt><trkpt lat="43.526176954936126" lon="10.702578670500612"><ele>56.0</ele><time>2026-05-01T07:30:42.997Z</time></trkpt><trkpt lat="43.526049759038536" lon="10.702698361137125"><ele>56.0</ele><time>2026-05-01T07:30:44Z</time></trkpt><trkpt lat="43.52590263572546" lon="10.702820445336076"><ele>55.66666666666667</ele><time>2026-05-01T07:30:45Z</time></trkpt><trkpt lat="43.52574320479981" lon="10.702948821089599"><ele>55.33333333333333</ele><time>2026-05-01T07:30:46Z</time></trkpt><trkpt lat="43.52557537020728" lon="10.703104452984293"><ele>55.0</ele><time>2026-05-01T07:30:47Z</time></trkpt><trkpt lat="43.52540676342049" lon="10.703254122216991"><ele>54.33333333333333</ele><time>2026-05-01T07:30:48Z</time></trkpt><trkpt lat="43.5252409102191" lon="10.703391554960842"><ele>53.66666666666667</ele><time>2026-05-01T07:30:49Z</time></trkpt><trkpt lat="43.52507229409416" lon="10.703534194021344"><ele>53.0</ele><time>2026-05-01T07:30:50Z</time></trkpt><trkpt lat="43.52490598112371" lon="10.703676680562797"><ele>53.0</ele><time>2026-05-01T07:30:51Z</time></trkpt><trkpt lat="43.524736521800136" lon="10.70382121400413"><ele>53.0</ele><time>2026-05-01T07:30:52Z</time></trkpt><trkpt lat="43.52456702022093" lon="10.703962983813218"><ele>53.0</ele><time>2026-05-01T07:30:53Z</time></trkpt><trkpt lat="43.52439664253433" lon="10.704108027038046"><ele>53.66666666666667</ele><time>2026-05-01T07:30:54Z</time></trkpt><trkpt lat="43.524225108938026" lon="10.704257255088251"><ele>54.33333333333333</ele><time>2026-05-01T07:30:55Z</time></trkpt><trkpt lat="43.52405463107339" lon="10.70440435556707"><ele>55.0</ele><time>2026-05-01T07:30:56Z</time></trkpt><trkpt lat="43.5238832051621" lon="10.704553568724439"><ele>55.33333333333333</ele><time>2026-05-01T07:30:57Z</time></trkpt><trkpt lat="43.52371315942877" lon="10.704706528256999"><ele>55.66666666666667</ele><time>2026-05-01T07:30:58Z</time></trkpt><trkpt lat="43.52354455329716" lon="10.704857631890025"><ele>56.0</ele><time>2026-05-01T07:30:59Z</time></trkpt><trkpt lat="43.523375886150376" lon="10.705009277997629"><ele>56.0</ele><time>2026-05-01T07:31:00Z</time></trkpt><trkpt lat="43.52320519155224" lon="10.705157934285385"><ele>56.0</ele><time>2026-05-01T07:31:01Z</time></trkpt><trkpt lat="43.52303304396534" lon="10.705304776226619"><ele>56.0</ele><time>2026-05-01T07:31:02Z</time></trkpt><trkpt lat="43.52285738718828" lon="10.705456784165957"><ele>56.333333333333336</ele><time>2026-05-01T07:31:03Z</time></trkpt><trkpt lat="43.5226841324676" lon="10.705606713059257"><ele>56.66666666666667</ele><time>2026-05-01T07:31:04Z</time></trkpt><trkpt lat="43.5225127342208" lon="10.705760816452969"><ele>57.0</ele><time>2026-05-01T07:31:05Z</time></trkpt><trkpt lat="43.522342564697304" lon="10.705917557533162"><ele>57.0</ele><time>2026-05-01T07:31:06Z</time></trkpt><trkpt lat="43.52216831619811" lon="10.706066782511146"><ele>57.0</ele><time>2026-05-01T07:31:07Z</time></trkpt><trkpt lat="43.52199362272971" lon="10.706213394046372"><ele>57.0</ele><time>2026-05-01T07:31:08Z</time></trkpt><trkpt lat="43.52182158352776" lon="10.70635988242536"><ele>57.0</ele><time>2026-05-01T07:31:09Z</time></trkpt><trkpt lat="43.5216511180864" lon="10.706506708922758"><ele>57.0</ele><time>2026-05-01T07:31:10Z</time></trkpt><trkpt lat="43.521486521546386" lon="10.706668427845186"><ele>57.0</ele><time>2026-05-01T07:31:11Z</time></trkpt><trkpt lat="43.52132884295574" lon="10.706849105722089"><ele>56.66666666666667</ele><time>2026-05-01T07:31:11.999Z</time></trkpt><trkpt lat="43.521172820311" lon="10.70703568150873"><ele>56.333333333333336</ele><time>2026-05-01T07:31:12.999Z</time></trkpt><trkpt lat="43.521014058160254" lon="10.707222888774734"><ele>56.0</ele><time>2026-05-01T07:31:13.999Z</time></trkpt><trkpt lat="43.52085546626225" lon="10.707406561520163"><ele>56.0</ele><time>2026-05-01T07:31:14.999Z</time></trkpt><trkpt lat="43.520694871975365" lon="10.707585974638029"><ele>56.0</ele><time>2026-05-01T07:31:15.999Z</time></trkpt><trkpt lat="43.52053651111719" lon="10.707766538225139"><ele>56.0</ele><time>2026-05-01T07:31:16.999Z</time></trkpt><trkpt lat="43.52038514490153" lon="10.707956917457945"><ele>56.333333333333336</ele><time>2026-05-01T07:31:17.999Z</time></trkpt><trkpt lat="43.52024404610979" lon="10.708164282863258"><ele>56.66666666666667</ele><time>2026-05-01T07:31:18.999Z</time></trkpt><trkpt lat="43.52011219208265" lon="10.708386047181218"><ele>57.0</ele><time>2026-05-01T07:31:19.999Z</time></trkpt><trkpt lat="43.51998738507546" lon="10.708618990198369"><ele>57.33333333333333</ele><time>2026-05-01T07:31:20.999Z</time></trkpt><trkpt lat="43.51986318820039" lon="10.708856923629748"><ele>57.666666666666664</ele><time>2026-05-01T07:31:21.999Z</time></trkpt><trkpt lat="43.51973877319384" lon="10.709088576435663"><ele>58.0</ele><time>2026-05-01T07:31:22.999Z</time></trkpt><trkpt lat="43.51961317829422" lon="10.709321687746145"><ele>57.33333333333333</ele><time>2026-05-01T07:31:23.999Z</time></trkpt><trkpt lat="43.51948996224007" lon="10.709558062257035"><ele>56.66666666666667</ele><time>2026-05-01T07:31:24.999Z</time></trkpt><trkpt lat="43.519367097957904" lon="10.709794234058313"><ele>56.0</ele><time>2026-05-01T07:31:25.999Z</time></trkpt><trkpt lat="43.519244262976834" lon="10.710030237142858"><ele>55.66666666666667</ele><time>2026-05-01T07:31:26.999Z</time></trkpt><trkpt lat="43.51912293257984" lon="10.710265643149919"><ele>55.33333333333333</ele><time>2026-05-01T07:31:27.999Z</time></trkpt><trkpt lat="43.51899870133006" lon="10.710500240377396"><ele>55.0</ele><time>2026-05-01T07:31:28.999Z</time></trkpt><trkpt lat="43.518874743585144" lon="10.710734483455171"><ele>55.0</ele><time>2026-05-01T07:31:29.999Z</time></trkpt><trkpt lat="43.51875158213709" lon="10.71097398738383"><ele>55.0</ele><time>2026-05-01T07:31:30.999Z</time></trkpt><trkpt lat="43.51863134174304" lon="10.711211758170892"><ele>55.0</ele><time>2026-05-01T07:31:31.999Z</time></trkpt><trkpt lat="43.51850970708633" lon="10.711448756757"><ele>55.0</ele><time>2026-05-01T07:31:32.999Z</time></trkpt><trkpt lat="43.518385582677816" lon="10.711684521229067"><ele>55.0</ele><time>2026-05-01T07:31:33.999Z</time></trkpt><trkpt lat="43.51826135363896" lon="10.71191959536424"><ele>55.0</ele><time>2026-05-01T07:31:34.999Z</time></trkpt><trkpt lat="43.518138854414744" lon="10.712154610540779"><ele>55.0</ele><time>2026-05-01T07:31:35.999Z</time></trkpt><trkpt lat="43.51801816160124" lon="10.712394749660653"><ele>55.0</ele><time>2026-05-01T07:31:36.999Z</time></trkpt><trkpt lat="43.51789492858528" lon="10.712635533998052"><ele>55.0</ele><time>2026-05-01T07:31:37.999Z</time></trkpt><trkpt lat="43.51776924380026" lon="10.712868723146425"><ele>55.666666666666664</ele><time>2026-05-01T07:31:38.999Z</time></trkpt><trkpt lat="43.51764290340705" lon="10.71310240977658"><ele>56.33333333333333</ele><time>2026-05-01T07:31:39.999Z</time></trkpt><trkpt lat="43.51751897471491" lon="10.713338623984601"><ele>57.0</ele><time>2026-05-01T07:31:40.999Z</time></trkpt><trkpt lat="43.51739393895146" lon="10.71357481778662"><ele>57.0</ele><time>2026-05-01T07:31:41.999Z</time></trkpt><trkpt lat="43.51727035749107" lon="10.713809664471384"><ele>57.0</ele><time>2026-05-01T07:31:42.999Z</time></trkpt><trkpt lat="43.517143679406246" lon="10.714047986134819"><ele>57.0</ele><time>2026-05-01T07:31:43.999Z</time></trkpt><trkpt lat="43.51701253246792" lon="10.714279032340151"><ele>58.0</ele><time>2026-05-01T07:31:44.999Z</time></trkpt><trkpt lat="43.516874096415236" lon="10.71449899818941"><ele>59.0</ele><time>2026-05-01T07:31:45.999Z</time></trkpt><trkpt lat="43.516727147902" lon="10.714705484516998"><ele>60.0</ele><time>2026-05-01T07:31:46.999Z</time></trkpt><trkpt lat="43.51657093340806" lon="10.7149080899773"><ele>60.0</ele><time>2026-05-01T07:31:47.999Z</time></trkpt><trkpt lat="43.516408119387215" lon="10.715101626374967"><ele>60.0</ele><time>2026-05-01T07:31:48.999Z</time></trkpt><trkpt lat="43.51624122350062" lon="10.71528531553481"><ele>60.0</ele><time>2026-05-01T07:31:49.999Z</time></trkpt><trkpt lat="43.51606781084355" lon="10.715468531992643"><ele>59.66666666666667</ele><time>2026-05-01T07:31:50.999Z</time></trkpt><trkpt lat="43.51589047627168" lon="10.715637164244248"><ele>59.333333333333336</ele><time>2026-05-01T07:31:51.999Z</time></trkpt><trkpt lat="43.515708355726126" lon="10.715799392851677"><ele>59.0</ele><time>2026-05-01T07:31:52.999Z</time></trkpt><trkpt lat="43.5155200509281" lon="10.715950964348938"><ele>59.0</ele><time>2026-05-01T07:31:53.999Z</time></trkpt><trkpt lat="43.515327175651365" lon="10.716091905077311"><ele>59.0</ele><time>2026-05-01T07:31:54.999Z</time></trkpt><trkpt lat="43.51512872560991" lon="10.71622178229453"><ele>59.0</ele><time>2026-05-01T07:31:55.999Z</time></trkpt><trkpt lat="43.51492507513562" lon="10.716340347476114"><ele>59.0</ele><time>2026-05-01T07:31:56.999Z</time></trkpt><trkpt lat="43.51471798408179" lon="10.716451033531749"><ele>59.0</ele><time>2026-05-01T07:31:57.999Z</time></trkpt><trkpt lat="43.514505203794876" lon="10.716551731719806"><ele>59.0</ele><time>2026-05-01T07:31:58.998Z</time></trkpt><trkpt lat="43.51429138673399" lon="10.716647613395416"><ele>60.0</ele><time>2026-05-01T07:31:59.998Z</time></trkpt><trkpt lat="43.51407502334491" lon="10.716740913689202"><ele>61.0</ele><time>2026-05-01T07:32:00.998Z</time></trkpt><trkpt lat="43.513858611451234" lon="10.716831359087765"><ele>60.5</ele><time>2026-05-01T07:32:01.998Z</time></trkpt><trkpt lat="43.51364445562646" lon="10.716922896164242"><ele>60.0</ele><time>2026-05-01T07:32:02.998Z</time></trkpt><trkpt lat="43.51342885911087" lon="10.717014857030325"><ele>60.0</ele><time>2026-05-01T07:32:03.998Z</time></trkpt><trkpt lat="43.51321254433932" lon="10.717105772653792"><ele>60.0</ele><time>2026-05-01T07:32:04.998Z</time></trkpt><trkpt lat="43.51299759366189" lon="10.717195754082992"><ele>60.33333333333333</ele><time>2026-05-01T07:32:05.998Z</time></trkpt><trkpt lat="43.51278527887687" lon="10.717285579776238"><ele>60.666666666666664</ele><time>2026-05-01T07:32:06.998Z</time></trkpt><trkpt lat="43.512574128657505" lon="10.717370428976478"><ele>61.0</ele><time>2026-05-01T07:32:07.998Z</time></trkpt><trkpt lat="43.51236189721326" lon="10.717445752554504"><ele>61.0</ele><time>2026-05-01T07:32:08.998Z</time></trkpt><trkpt lat="43.512147804766045" lon="10.717504457276902"><ele>61.0</ele><time>2026-05-01T07:32:09.998Z</time></trkpt><trkpt lat="43.511931529606805" lon="10.71754388495511"><ele>61.0</ele><time>2026-05-01T07:32:10.998Z</time></trkpt><trkpt lat="43.51171623008315" lon="10.717566304470058"><ele>62.0</ele><time>2026-05-01T07:32:11.998Z</time></trkpt><trkpt lat="43.5115023962188" lon="10.71758000335992"><ele>63.0</ele><time>2026-05-01T07:32:12.998Z</time></trkpt><trkpt lat="43.51128595312608" lon="10.717586923320377"><ele>64.0</ele><time>2026-05-01T07:32:13.998Z</time></trkpt><trkpt lat="43.511067494431856" lon="10.717596640393058"><ele>65.0</ele><time>2026-05-01T07:32:14.998Z</time></trkpt><trkpt lat="43.510851173942136" lon="10.717619818075201"><ele>66.0</ele><time>2026-05-01T07:32:15.998Z</time></trkpt><trkpt lat="43.5106344501386" lon="10.71763849239808"><ele>67.0</ele><time>2026-05-01T07:32:16.998Z</time></trkpt><trkpt lat="43.51042061254887" lon="10.71765495504336"><ele>66.0</ele><time>2026-05-01T07:32:17.998Z</time></trkpt><trkpt lat="43.510221494466336" lon="10.71767987462889"><ele>65.0</ele><time>2026-05-01T07:32:18.998Z</time></trkpt><trkpt lat="43.510034316234474" lon="10.717718115383123"><ele>64.0</ele><time>2026-05-01T07:32:19.998Z</time></trkpt><trkpt lat="43.50985769885712" lon="10.717767266814107"><ele>64.0</ele><time>2026-05-01T07:32:20.998Z</time></trkpt><trkpt lat="43.50968363293161" lon="10.717828366203708"><ele>64.0</ele><time>2026-05-01T07:32:21.998Z</time></trkpt><trkpt lat="43.509502653552225" lon="10.717896120309417"><ele>64.0</ele><time>2026-05-01T07:32:22.998Z</time></trkpt><trkpt lat="43.50931681859833" lon="10.717961352138406"><ele>63.666666666666664</ele><time>2026-05-01T07:32:23.998Z</time></trkpt><trkpt lat="43.50912595322354" lon="10.718027829520071"><ele>63.33333333333333</ele><time>2026-05-01T07:32:24.998Z</time></trkpt><trkpt lat="43.50892971177855" lon="10.71810125330188"><ele>63.0</ele><time>2026-05-01T07:32:25.998Z</time></trkpt><trkpt lat="43.50872762222949" lon="10.718182210683214"><ele>63.0</ele><time>2026-05-01T07:32:26.998Z</time></trkpt><trkpt lat="43.50852427433059" lon="10.718261425952077"><ele>63.0</ele><time>2026-05-01T07:32:27.998Z</time></trkpt><trkpt lat="43.508318745402896" lon="10.718333971391086"><ele>63.0</ele><time>2026-05-01T07:32:28.998Z</time></trkpt><trkpt lat="43.50811294167709" lon="10.7184058630931"><ele>62.33333333333333</ele><time>2026-05-01T07:32:29.998Z</time></trkpt><trkpt lat="43.507905044794725" lon="10.718480537647213"><ele>61.666666666666664</ele><time>2026-05-01T07:32:30.998Z</time></trkpt><trkpt lat="43.507692707775604" lon="10.718536154578585"><ele>61.0</ele><time>2026-05-01T07:32:31.998Z</time></trkpt><trkpt lat="43.50748248573708" lon="10.718611236696526"><ele>61.0</ele><time>2026-05-01T07:32:32.998Z</time></trkpt><trkpt lat="43.507266972485205" lon="10.718688651936947"><ele>61.0</ele><time>2026-05-01T07:32:33.998Z</time></trkpt><trkpt lat="43.50705030811623" lon="10.71876691366677"><ele>61.0</ele><time>2026-05-01T07:32:34.998Z</time></trkpt><trkpt lat="43.5068462228019" lon="10.718862375055176"><ele>61.0</ele><time>2026-05-01T07:32:35.998Z</time></trkpt><trkpt lat="43.506630565185475" lon="10.718928864894899"><ele>61.0</ele><time>2026-05-01T07:32:36.998Z</time></trkpt><trkpt lat="43.5064274593747" lon="10.718999401727688"><ele>61.0</ele><time>2026-05-01T07:32:37.998Z</time></trkpt><trkpt lat="43.50622730670879" lon="10.719069174956502"><ele>62.0</ele><time>2026-05-01T07:32:38.998Z</time></trkpt><trkpt lat="43.506027544859705" lon="10.719139357606547"><ele>63.0</ele><time>2026-05-01T07:32:39.998Z</time></trkpt><trkpt lat="43.50583159778575" lon="10.719211294092862"><ele>64.0</ele><time>2026-05-01T07:32:40.998Z</time></trkpt><trkpt lat="43.505638077615025" lon="10.71927974613992"><ele>64.0</ele><time>2026-05-01T07:32:41.998Z</time></trkpt><trkpt lat="43.5054436152894" lon="10.719347497595217"><ele>64.0</ele><time>2026-05-01T07:32:42.998Z</time></trkpt><trkpt lat="43.505249846519526" lon="10.71941460376428"><ele>64.0</ele><time>2026-05-01T07:32:43.998Z</time></trkpt><trkpt lat="43.50505449964757" lon="10.719484245061405"><ele>64.0</ele><time>2026-05-01T07:32:44.998Z</time></trkpt><trkpt lat="43.50486063352551" lon="10.71955448005613"><ele>64.0</ele><time>2026-05-01T07:32:45.997Z</time></trkpt><trkpt lat="43.50466825889962" lon="10.719626265195394"><ele>64.0</ele><time>2026-05-01T07:32:46.997Z</time></trkpt><trkpt lat="43.50447092347725" lon="10.719696377495653"><ele>63.666666666666664</ele><time>2026-05-01T07:32:47.997Z</time></trkpt><trkpt lat="43.50427714731812" lon="10.719760771692187"><ele>63.33333333333333</ele><time>2026-05-01T07:32:48.997Z</time></trkpt><trkpt lat="43.50408309831699" lon="10.719827336752441"><ele>63.0</ele><time>2026-05-01T07:32:50Z</time></trkpt><trkpt lat="43.503892425923326" lon="10.719897121386872"><ele>63.0</ele><time>2026-05-01T07:32:51Z</time></trkpt><trkpt lat="43.5037001969162" lon="10.719964323595722"><ele>63.0</ele><time>2026-05-01T07:32:52Z</time></trkpt><trkpt lat="43.50350735255151" lon="10.720032994362889"><ele>63.0</ele><time>2026-05-01T07:32:53Z</time></trkpt><trkpt lat="43.5033155698964" lon="10.720108688425416"><ele>63.0</ele><time>2026-05-01T07:32:54Z</time></trkpt><trkpt lat="43.50312314999382" lon="10.720181544398374"><ele>63.0</ele><time>2026-05-01T07:32:55Z</time></trkpt><trkpt lat="43.50292907356862" lon="10.720247768195785"><ele>63.0</ele><time>2026-05-01T07:32:56Z</time></trkpt><trkpt lat="43.502736032071695" lon="10.720309943720064"><ele>63.66666666666667</ele><time>2026-05-01T07:32:57Z</time></trkpt><trkpt lat="43.50254347743254" lon="10.720377210251169"><ele>64.33333333333334</ele><time>2026-05-01T07:32:58Z</time></trkpt><trkpt lat="43.502355108339515" lon="10.720452181496555"><ele>65.0</ele><time>2026-05-01T07:32:59Z</time></trkpt><trkpt lat="43.502164780370414" lon="10.720523375319061"><ele>65.0</ele><time>2026-05-01T07:33:00Z</time></trkpt><trkpt lat="43.50198156174891" lon="10.720585070122288"><ele>65.0</ele><time>2026-05-01T07:33:01Z</time></trkpt><trkpt lat="43.50180527394192" lon="10.720642683929603"><ele>65.0</ele><time>2026-05-01T07:33:02Z</time></trkpt><trkpt lat="43.501630418078896" lon="10.720707126146918"><ele>65.0</ele><time>2026-05-01T07:33:03Z</time></trkpt><trkpt lat="43.501457651443275" lon="10.720773568537705"><ele>65.0</ele><time>2026-05-01T07:33:04Z</time></trkpt><trkpt lat="43.50128576848373" lon="10.720833489809252"><ele>65.0</ele><time>2026-05-01T07:33:05Z</time></trkpt><trkpt lat="43.50111846943906" lon="10.72088969032511"><ele>65.0</ele><time>2026-05-01T07:33:06Z</time></trkpt><trkpt lat="43.50096945270985" lon="10.720943334858157"><ele>65.0</ele><time>2026-05-01T07:33:07Z</time></trkpt><trkpt lat="43.500826487713205" lon="10.720997018016835"><ele>65.0</ele><time>2026-05-01T07:33:08Z</time></trkpt><trkpt lat="43.500691355923244" lon="10.721047302771058"><ele>65.0</ele><time>2026-05-01T07:33:09Z</time></trkpt><trkpt lat="43.50056231211221" lon="10.721094473351323"><ele>65.0</ele><time>2026-05-01T07:33:10Z</time></trkpt><trkpt lat="43.50044729402102" lon="10.721135737086485"><ele>65.0</ele><time>2026-05-01T07:33:11Z</time></trkpt><trkpt lat="43.500339613773626" lon="10.721171418192144"><ele>65.0</ele><time>2026-05-01T07:33:12Z</time></trkpt><trkpt lat="43.50023774956627" lon="10.721199053711675"><ele>65.0</ele><time>2026-05-01T07:33:13Z</time></trkpt><trkpt lat="43.500139710751526" lon="10.721220450099377"><ele>65.0</ele><time>2026-05-01T07:33:14Z</time></trkpt><trkpt lat="43.50003562354215" lon="10.721239281525433"><ele>65.6</ele><time>2026-05-01T07:33:15Z</time></trkpt><trkpt lat="43.49993669333862" lon="10.721256476462178"><ele>66.2</ele><time>2026-05-01T07:33:16Z</time></trkpt><trkpt lat="43.499842096272886" lon="10.721276758882889"><ele>66.8</ele><time>2026-05-01T07:33:17Z</time></trkpt><trkpt lat="43.49975076604812" lon="10.721297296392576"><ele>67.4</ele><time>2026-05-01T07:33:18Z</time></trkpt><trkpt lat="43.49967304539516" lon="10.721316827045033"><ele>68.0</ele><time>2026-05-01T07:33:19Z</time></trkpt><trkpt lat="43.49957515686398" lon="10.72133740537366"><ele>68.33333333333334</ele><time>2026-05-01T07:33:21Z</time></trkpt><trkpt lat="43.49948306622647" lon="10.721354029141265"><ele>68.66666666666667</ele><time>2026-05-01T07:33:24Z</time></trkpt><trkpt lat="43.49940650084806" lon="10.721360135153693"><ele>69.0</ele><time>2026-05-01T07:33:25.999Z</time></trkpt><trkpt lat="43.49931692015377" lon="10.721341699949841"><ele>69.33333333333333</ele><time>2026-05-01T07:33:27.999Z</time></trkpt><trkpt lat="43.4992249186104" lon="10.721270165340108"><ele>69.66666666666666</ele><time>2026-05-01T07:33:29.999Z</time></trkpt><trkpt lat="43.499152400494815" lon="10.721226285106448"><ele>70.0</ele><time>2026-05-01T07:33:31.999Z</time></trkpt><trkpt lat="43.49905945448887" lon="10.721233824809989"><ele>70.0</ele><time>2026-05-01T07:33:33.999Z</time></trkpt><trkpt lat="43.49898890132428" lon="10.721314641508107"><ele>70.0</ele><time>2026-05-01T07:33:35.999Z</time></trkpt><trkpt lat="43.49897556502901" lon="10.721454394289239"><ele>70.0</ele><time>2026-05-01T07:33:37.999Z</time></trkpt><trkpt lat="43.49898940210607" lon="10.721640230379197"><ele>70.0</ele><time>2026-05-01T07:33:39.999Z</time></trkpt><trkpt lat="43.49898373294061" lon="10.721750888436912"><ele>70.0</ele><time>2026-05-01T07:33:40.999Z</time></trkpt><trkpt lat="43.49896786151388" lon="10.721850054511728"><ele>69.6</ele><time>2026-05-01T07:33:41.999Z</time></trkpt><trkpt lat="43.49894732934019" lon="10.721951274275865"><ele>69.2</ele><time>2026-05-01T07:33:42.999Z</time></trkpt><trkpt lat="43.4989240178578" lon="10.722064713948456"><ele>68.8</ele><time>2026-05-01T07:33:43.999Z</time></trkpt><trkpt lat="43.49889724801584" lon="10.72218694319486"><ele>68.4</ele><time>2026-05-01T07:33:44.999Z</time></trkpt><trkpt lat="43.49886979056214" lon="10.722317145261789"><ele>68.0</ele><time>2026-05-01T07:33:45.999Z</time></trkpt><trkpt lat="43.498842566039116" lon="10.722452058822935"><ele>68.0</ele><time>2026-05-01T07:33:46.999Z</time></trkpt><trkpt lat="43.49881680791691" lon="10.7225808020496"><ele>68.0</ele><time>2026-05-01T07:33:47.999Z</time></trkpt><trkpt lat="43.49879283373668" lon="10.722701543746908"><ele>68.0</ele><time>2026-05-01T07:33:48.999Z</time></trkpt><trkpt lat="43.498767421989776" lon="10.722828933760532"><ele>68.0</ele><time>2026-05-01T07:33:49.999Z</time></trkpt><trkpt lat="43.49874091164623" lon="10.722957278169376"><ele>68.0</ele><time>2026-05-01T07:33:50.999Z</time></trkpt><trkpt lat="43.498713729939425" lon="10.723092371101586"><ele>68.0</ele><time>2026-05-01T07:33:51.999Z</time></trkpt><trkpt lat="43.4986848022288" lon="10.723230960411307"><ele>68.0</ele><time>2026-05-01T07:33:52.999Z</time></trkpt><trkpt lat="43.49865596112966" lon="10.723366483241215"><ele>68.0</ele><time>2026-05-01T07:33:53.999Z</time></trkpt><trkpt lat="43.49862804978226" lon="10.72349639167026"><ele>68.0</ele><time>2026-05-01T07:33:54.999Z</time></trkpt><trkpt lat="43.49859972346571" lon="10.723625488627796"><ele>68.0</ele><time>2026-05-01T07:33:55.999Z</time></trkpt><trkpt lat="43.49857564387007" lon="10.723758702745751"><ele>69.0</ele><time>2026-05-01T07:33:56.999Z</time></trkpt><trkpt lat="43.49855070931452" lon="10.723894475697024"><ele>70.0</ele><time>2026-05-01T07:33:57.999Z</time></trkpt><trkpt lat="43.49852441732882" lon="10.724034471911336"><ele>71.0</ele><time>2026-05-01T07:33:58.999Z</time></trkpt><trkpt lat="43.49850446108367" lon="10.724187187635755"><ele>72.0</ele><time>2026-05-01T07:33:59.999Z</time></trkpt><trkpt lat="43.498499902270225" lon="10.724343209048993"><ele>73.0</ele><time>2026-05-01T07:34:00.999Z</time></trkpt><trkpt lat="43.498497146390136" lon="10.724497344651654"><ele>73.6</ele><time>2026-05-01T07:34:01.999Z</time></trkpt><trkpt lat="43.49849928206941" lon="10.724640620304388"><ele>74.19999999999999</ele><time>2026-05-01T07:34:02.999Z</time></trkpt><trkpt lat="43.49850499710751" lon="10.724781997993922"><ele>74.8</ele><time>2026-05-01T07:34:03.999Z</time></trkpt><trkpt lat="43.49851399817062" lon="10.724915587029228"><ele>75.39999999999999</ele><time>2026-05-01T07:34:04.999Z</time></trkpt><trkpt lat="43.49853060885496" lon="10.725046448606399"><ele>76.0</ele><time>2026-05-01T07:34:05.999Z</time></trkpt><trkpt lat="43.49857066212988" lon="10.725178533586861"><ele>76.0</ele><time>2026-05-01T07:34:06.999Z</time></trkpt><trkpt lat="43.49862139262918" lon="10.725306218278755"><ele>76.0</ele><time>2026-05-01T07:34:07.999Z</time></trkpt><trkpt lat="43.49867511263811" lon="10.725432408535584"><ele>76.0</ele><time>2026-05-01T07:34:08.999Z</time></trkpt><trkpt lat="43.4987295830584" lon="10.72556228334105"><ele>76.0</ele><time>2026-05-01T07:34:09.998Z</time></trkpt><trkpt lat="43.498784426088505" lon="10.725694059427445"><ele>76.0</ele><time>2026-05-01T07:34:10.998Z</time></trkpt><trkpt lat="43.498844851887746" lon="10.725833706164341"><ele>76.0</ele><time>2026-05-01T07:34:11.998Z</time></trkpt><trkpt lat="43.49890629022024" lon="10.72597476027778"><ele>76.0</ele><time>2026-05-01T07:34:12.998Z</time></trkpt><trkpt lat="43.49896912235937" lon="10.726124261588792"><ele>76.0</ele><time>2026-05-01T07:34:13.998Z</time></trkpt><trkpt lat="43.49903608773056" lon="10.726280965918777"><ele>76.0</ele><time>2026-05-01T07:34:14.998Z</time></trkpt><trkpt lat="43.4991064731757" lon="10.726444656483057"><ele>75.25</ele><time>2026-05-01T07:34:15.998Z</time></trkpt><trkpt lat="43.49917871198972" lon="10.726610209578066"><ele>74.5</ele><time>2026-05-01T07:34:16.998Z</time></trkpt><trkpt lat="43.49924776014952" lon="10.7267690089206"><ele>73.75</ele><time>2026-05-01T07:34:17.998Z</time></trkpt><trkpt lat="43.4993174793669" lon="10.726931865247241"><ele>73.0</ele><time>2026-05-01T07:34:18.998Z</time></trkpt><trkpt lat="43.49938559988635" lon="10.727099578722108"><ele>72.5</ele><time>2026-05-01T07:34:19.998Z</time></trkpt><trkpt lat="43.49945409330935" lon="10.727264917268887"><ele>72.0</ele><time>2026-05-01T07:34:20.998Z</time></trkpt><trkpt lat="43.499527863967785" lon="10.727438011422866"><ele>71.5</ele><time>2026-05-01T07:34:21.998Z</time></trkpt><trkpt lat="43.499596990828735" lon="10.727603897334506"><ele>71.0</ele><time>2026-05-01T07:34:22.998Z</time></trkpt><trkpt lat="43.49965845036737" lon="10.727768623806664"><ele>72.5</ele><time>2026-05-01T07:34:23.998Z</time></trkpt><trkpt lat="43.4997164635991" lon="10.727945833800936"><ele>74.0</ele><time>2026-05-01T07:34:24.998Z</time></trkpt><trkpt lat="43.49977455716812" lon="10.728123357582266"><ele>75.5</ele><time>2026-05-01T07:34:25.998Z</time></trkpt><trkpt lat="43.49983235001862" lon="10.728300050259984"><ele>77.0</ele><time>2026-05-01T07:34:26.998Z</time></trkpt><trkpt lat="43.49988103346973" lon="10.728465164240458"><ele>75.25</ele><time>2026-05-01T07:34:27.998Z</time></trkpt><trkpt lat="43.49992950374015" lon="10.72863350109946"><ele>73.5</ele><time>2026-05-01T07:34:28.998Z</time></trkpt><trkpt lat="43.4999768179243" lon="10.728809909809687"><ele>71.75</ele><time>2026-05-01T07:34:29.998Z</time></trkpt><trkpt lat="43.50001936879614" lon="10.72898072176299"><ele>70.0</ele><time>2026-05-01T07:34:30.998Z</time></trkpt><trkpt lat="43.5000621736686" lon="10.729151883886782"><ele>70.0</ele><time>2026-05-01T07:34:31.998Z</time></trkpt><trkpt lat="43.50010077086799" lon="10.729325865483842"><ele>70.0</ele><time>2026-05-01T07:34:32.998Z</time></trkpt><trkpt lat="43.500133794542" lon="10.729509647359437"><ele>70.0</ele><time>2026-05-01T07:34:33.998Z</time></trkpt><trkpt lat="43.50015951140028" lon="10.72970038024578"><ele>70.0</ele><time>2026-05-01T07:34:34.998Z</time></trkpt><trkpt lat="43.50017356145042" lon="10.729891453405658"><ele>70.0</ele><time>2026-05-01T07:34:35.998Z</time></trkpt><trkpt lat="43.50018414576626" lon="10.730081205432256"><ele>70.0</ele><time>2026-05-01T07:34:36.998Z</time></trkpt><trkpt lat="43.500198588870695" lon="10.730282821798873"><ele>70.0</ele><time>2026-05-01T07:34:37.998Z</time></trkpt><trkpt lat="43.50021407597139" lon="10.730488265753968"><ele>70.0</ele><time>2026-05-01T07:34:38.998Z</time></trkpt><trkpt lat="43.500225615056564" lon="10.730691324306807"><ele>69.0</ele><time>2026-05-01T07:34:39.998Z</time></trkpt><trkpt lat="43.50023720173611" lon="10.730901039541425"><ele>68.0</ele><time>2026-05-01T07:34:40.998Z</time></trkpt><trkpt lat="43.50024506350793" lon="10.731109995931659"><ele>67.0</ele><time>2026-05-01T07:34:41.998Z</time></trkpt><trkpt lat="43.50024298059711" lon="10.731323127980382"><ele>67.0</ele><time>2026-05-01T07:34:42.998Z</time></trkpt><trkpt lat="43.500225210315605" lon="10.731533333261382"><ele>67.0</ele><time>2026-05-01T07:34:43.998Z</time></trkpt><trkpt lat="43.50019114402621" lon="10.731742666152927"><ele>67.0</ele><time>2026-05-01T07:34:44.998Z</time></trkpt><trkpt lat="43.50014127635553" lon="10.731948249149806"><ele>67.0</ele><time>2026-05-01T07:34:45.998Z</time></trkpt><trkpt lat="43.500068139373084" lon="10.732136891955415"><ele>67.0</ele><time>2026-05-01T07:34:46.998Z</time></trkpt><trkpt lat="43.499975704648584" lon="10.732305695660543"><ele>67.0</ele><time>2026-05-01T07:34:47.998Z</time></trkpt><trkpt lat="43.499869384635595" lon="10.732459881266609"><ele>67.0</ele><time>2026-05-01T07:34:48.998Z</time></trkpt><trkpt lat="43.499747853460704" lon="10.732601588054763"><ele>67.0</ele><time>2026-05-01T07:34:49.998Z</time></trkpt><trkpt lat="43.49960744922756" lon="10.732726596515182"><ele>67.0</ele><time>2026-05-01T07:34:50.998Z</time></trkpt><trkpt lat="43.49944940936068" lon="10.732833871983063"><ele>67.33333333333333</ele><time>2026-05-01T07:34:51.998Z</time></trkpt><trkpt lat="43.49928806074834" lon="10.732922738158251"><ele>67.66666666666667</ele><time>2026-05-01T07:34:52.998Z</time></trkpt><trkpt lat="43.499075956176426" lon="10.733010598546914"><ele>68.0</ele><time>2026-05-01T07:34:53.998Z</time></trkpt><trkpt lat="43.498852870875794" lon="10.733121526951377"><ele>69.0</ele><time>2026-05-01T07:34:54.998Z</time></trkpt><trkpt lat="43.498633250483124" lon="10.733234126848053"><ele>70.0</ele><time>2026-05-01T07:34:56Z</time></trkpt><trkpt lat="43.49842360073415" lon="10.733356636354417"><ele>70.0</ele><time>2026-05-01T07:34:57Z</time></trkpt><trkpt lat="43.4982141529424" lon="10.733450175351695"><ele>70.0</ele><time>2026-05-01T07:34:58Z</time></trkpt><trkpt lat="43.49801207910748" lon="10.733546888259816"><ele>70.0</ele><time>2026-05-01T07:34:59Z</time></trkpt><trkpt lat="43.497815536029755" lon="10.733642654439226"><ele>68.66666666666666</ele><time>2026-05-01T07:35:00Z</time></trkpt><trkpt lat="43.49762201526418" lon="10.733743260967477"><ele>67.33333333333333</ele><time>2026-05-01T07:35:01Z</time></trkpt><trkpt lat="43.49743288067674" lon="10.733864535797128"><ele>66.0</ele><time>2026-05-01T07:35:02Z</time></trkpt><trkpt lat="43.49725031357867" lon="10.734012352162047"><ele>66.5</ele><time>2026-05-01T07:35:03Z</time></trkpt><trkpt lat="43.49706786459457" lon="10.734194186687233"><ele>67.0</ele><time>2026-05-01T07:35:04Z</time></trkpt><trkpt lat="43.49686703489171" lon="10.734390899326725"><ele>67.0</ele><time>2026-05-01T07:35:05Z</time></trkpt><trkpt lat="43.49665374950535" lon="10.734618838076226"><ele>67.0</ele><time>2026-05-01T07:35:06Z</time></trkpt><trkpt lat="43.496441432119184" lon="10.73485214299293"><ele>67.5</ele><time>2026-05-01T07:35:07Z</time></trkpt><trkpt lat="43.49623139146252" lon="10.735070254547184"><ele>68.0</ele><time>2026-05-01T07:35:08Z</time></trkpt><trkpt lat="43.49601013521519" lon="10.735255803120944"><ele>68.0</ele><time>2026-05-01T07:35:09Z</time></trkpt><trkpt lat="43.49577772545354" lon="10.735426881392922"><ele>68.0</ele><time>2026-05-01T07:35:10Z</time></trkpt><trkpt lat="43.495523184794436" lon="10.735546468351634"><ele>69.5</ele><time>2026-05-01T07:35:11Z</time></trkpt><trkpt lat="43.49526639637003" lon="10.735661695575914"><ele>71.0</ele><time>2026-05-01T07:35:12Z</time></trkpt><trkpt lat="43.49501306258781" lon="10.735764086763881"><ele>71.0</ele><time>2026-05-01T07:35:13Z</time></trkpt><trkpt lat="43.494762748236774" lon="10.735868156009314"><ele>71.0</ele><time>2026-05-01T07:35:14Z</time></trkpt><trkpt lat="43.49452152594406" lon="10.735981850083116"><ele>70.5</ele><time>2026-05-01T07:35:15Z</time></trkpt><trkpt lat="43.49428843694673" lon="10.736106809992144"><ele>70.0</ele><time>2026-05-01T07:35:16Z</time></trkpt><trkpt lat="43.49407590801945" lon="10.736242774960463"><ele>70.0</ele><time>2026-05-01T07:35:17Z</time></trkpt><trkpt lat="43.49388720440982" lon="10.736383739996937"><ele>70.0</ele><time>2026-05-01T07:35:18Z</time></trkpt><trkpt lat="43.49371410543446" lon="10.736531997810443"><ele>70.0</ele><time>2026-05-01T07:35:19Z</time></trkpt><trkpt lat="43.49352572950048" lon="10.73669240054251"><ele>69.5</ele><time>2026-05-01T07:35:20Z</time></trkpt><trkpt lat="43.49333005409219" lon="10.736875041126481"><ele>69.0</ele><time>2026-05-01T07:35:21Z</time></trkpt><trkpt lat="43.49313666062626" lon="10.737079284583524"><ele>69.0</ele><time>2026-05-01T07:35:22Z</time></trkpt><trkpt lat="43.4929231631344" lon="10.737267274643933"><ele>69.0</ele><time>2026-05-01T07:35:23Z</time></trkpt><trkpt lat="43.49271509161397" lon="10.737490989402922"><ele>69.0</ele><time>2026-05-01T07:35:24Z</time></trkpt><trkpt lat="43.49251115488623" lon="10.737747115500632"><ele>69.0</ele><time>2026-05-01T07:35:25Z</time></trkpt><trkpt lat="43.49231070681168" lon="10.738023801041166"><ele>69.0</ele><time>2026-05-01T07:35:26Z</time></trkpt><trkpt lat="43.49212508588406" lon="10.738323237110546"><ele>69.0</ele><time>2026-05-01T07:35:27Z</time></trkpt><trkpt lat="43.49195016685724" lon="10.738652324320716"><ele>69.5</ele><time>2026-05-01T07:35:28Z</time></trkpt><trkpt lat="43.4917855549717" lon="10.738999841256245"><ele>70.0</ele><time>2026-05-01T07:35:29Z</time></trkpt><trkpt lat="43.49163869633496" lon="10.73933537672992"><ele>69.0</ele><time>2026-05-01T07:35:30Z</time></trkpt><trkpt lat="43.49149223309845" lon="10.739665631995335"><ele>68.0</ele><time>2026-05-01T07:35:31Z</time></trkpt><trkpt lat="43.491337132234825" lon="10.739979354847922"><ele>69.0</ele><time>2026-05-01T07:35:32Z</time></trkpt><trkpt lat="43.49116994712324" lon="10.740274788139121"><ele>70.0</ele><time>2026-05-01T07:35:33Z</time></trkpt><trkpt lat="43.490991665301294" lon="10.74055900889901"><ele>70.0</ele><time>2026-05-01T07:35:34Z</time></trkpt><trkpt lat="43.49080537233629" lon="10.740829290254277"><ele>70.0</ele><time>2026-05-01T07:35:35Z</time></trkpt><trkpt lat="43.49060354895439" lon="10.741078604007928"><ele>71.0</ele><time>2026-05-01T07:35:36Z</time></trkpt><trkpt lat="43.49038523682779" lon="10.741309768914482"><ele>72.0</ele><time>2026-05-01T07:35:37Z</time></trkpt><trkpt lat="43.49014980705358" lon="10.741522557481264"><ele>72.0</ele><time>2026-05-01T07:35:37.999Z</time></trkpt><trkpt lat="43.48990171899154" lon="10.74171580325938"><ele>72.0</ele><time>2026-05-01T07:35:38.999Z</time></trkpt><trkpt lat="43.489646024516894" lon="10.741881874355391"><ele>71.0</ele><time>2026-05-01T07:35:39.999Z</time></trkpt><trkpt lat="43.48938967437775" lon="10.742031833870767"><ele>70.0</ele><time>2026-05-01T07:35:40.999Z</time></trkpt><trkpt lat="43.48914326017875" lon="10.742197240558111"><ele>70.0</ele><time>2026-05-01T07:35:41.999Z</time></trkpt><trkpt lat="43.488907833910964" lon="10.742381386947791"><ele>70.0</ele><time>2026-05-01T07:35:42.999Z</time></trkpt><trkpt lat="43.48868064981768" lon="10.74259775472906"><ele>70.5</ele><time>2026-05-01T07:35:43.999Z</time></trkpt><trkpt lat="43.48846768157419" lon="10.742842574969254"><ele>71.0</ele><time>2026-05-01T07:35:44.999Z</time></trkpt><trkpt lat="43.488270183515546" lon="10.74311402753175"><ele>71.0</ele><time>2026-05-01T07:35:45.999Z</time></trkpt><trkpt lat="43.48805446621292" lon="10.743359139174212"><ele>71.0</ele><time>2026-05-01T07:35:46.999Z</time></trkpt><trkpt lat="43.48785438175261" lon="10.743622335750514"><ele>73.0</ele><time>2026-05-01T07:35:47.999Z</time></trkpt><trkpt lat="43.48778100373609" lon="10.74404503118404"><ele>75.0</ele><time>2026-05-01T07:35:48.999Z</time></trkpt><trkpt lat="43.487640969978855" lon="10.74436214421707"><ele>72.5</ele><time>2026-05-01T07:35:49.999Z</time></trkpt><trkpt lat="43.487485578943144" lon="10.744660344212187"><ele>70.0</ele><time>2026-05-01T07:35:50.999Z</time></trkpt><trkpt lat="43.48730978142137" lon="10.744941169217771"><ele>69.5</ele><time>2026-05-01T07:35:51.999Z</time></trkpt><trkpt lat="43.48711740865583" lon="10.745213382420337"><ele>69.0</ele><time>2026-05-01T07:35:52.999Z</time></trkpt><trkpt lat="43.48690681903585" lon="10.745463368658791"><ele>68.5</ele><time>2026-05-01T07:35:53.999Z</time></trkpt><trkpt lat="43.48667202797768" lon="10.745688079597846"><ele>68.0</ele><time>2026-05-01T07:35:54.999Z</time></trkpt><trkpt lat="43.48642867886327" lon="10.745886445921712"><ele>68.0</ele><time>2026-05-01T07:35:55.999Z</time></trkpt><trkpt lat="43.48618639044826" lon="10.746064696422739"><ele>68.0</ele><time>2026-05-01T07:35:56.999Z</time></trkpt><trkpt lat="43.48596192077392" lon="10.746251044311014"><ele>68.0</ele><time>2026-05-01T07:35:57.999Z</time></trkpt><trkpt lat="43.48575565474084" lon="10.746479375347915"><ele>68.0</ele><time>2026-05-01T07:35:58.999Z</time></trkpt><trkpt lat="43.48556815169921" lon="10.746740744791744"><ele>71.0</ele><time>2026-05-01T07:35:59.999Z</time></trkpt><trkpt lat="43.48540521906594" lon="10.747035468702917"><ele>74.0</ele><time>2026-05-01T07:36:00.999Z</time></trkpt><trkpt lat="43.48526034774541" lon="10.747332298913502"><ele>74.0</ele><time>2026-05-01T07:36:01.999Z</time></trkpt><trkpt lat="43.485123656988385" lon="10.747599066016"><ele>74.0</ele><time>2026-05-01T07:36:02.999Z</time></trkpt><trkpt lat="43.48496088174944" lon="10.747842980208334"><ele>73.0</ele><time>2026-05-01T07:36:03.999Z</time></trkpt><trkpt lat="43.48476403050306" lon="10.748058519210558"><ele>72.0</ele><time>2026-05-01T07:36:04.999Z</time></trkpt><trkpt lat="43.48454088874279" lon="10.748239699162449"><ele>72.0</ele><time>2026-05-01T07:36:05.999Z</time></trkpt><trkpt lat="43.48430362902278" lon="10.748376642504732"><ele>72.0</ele><time>2026-05-01T07:36:06.999Z</time></trkpt><trkpt lat="43.4840688242161" lon="10.748503652078506"><ele>72.0</ele><time>2026-05-01T07:36:07.999Z</time></trkpt><trkpt lat="43.48384506818071" lon="10.748645465222891"><ele>72.0</ele><time>2026-05-01T07:36:08.999Z</time></trkpt><trkpt lat="43.48363753603261" lon="10.748801309418075"><ele>72.0</ele><time>2026-05-01T07:36:09.999Z</time></trkpt><trkpt lat="43.4834422990216" lon="10.74897814908603"><ele>72.0</ele><time>2026-05-01T07:36:10.999Z</time></trkpt><trkpt lat="43.483251252586584" lon="10.749173431383657"><ele>72.5</ele><time>2026-05-01T07:36:11.999Z</time></trkpt><trkpt lat="43.48307074507737" lon="10.749381007087456"><ele>73.0</ele><time>2026-05-01T07:36:12.999Z</time></trkpt><trkpt lat="43.48289459435203" lon="10.749594045491143"><ele>73.0</ele><time>2026-05-01T07:36:13.999Z</time></trkpt><trkpt lat="43.482717072742666" lon="10.74980648081032"><ele>73.0</ele><time>2026-05-01T07:36:14.999Z</time></trkpt><trkpt lat="43.482534464526296" lon="10.750017443971345"><ele>69.0</ele><time>2026-05-01T07:36:15.999Z</time></trkpt><trkpt lat="43.48235028889591" lon="10.750237762976683"><ele>65.0</ele><time>2026-05-01T07:36:16.999Z</time></trkpt><trkpt lat="43.48216463053541" lon="10.750457821866021"><ele>69.5</ele><time>2026-05-01T07:36:17.999Z</time></trkpt><trkpt lat="43.48197736151294" lon="10.750678357801208"><ele>74.0</ele><time>2026-05-01T07:36:18.999Z</time></trkpt><trkpt lat="43.481789436158344" lon="10.750898514083294"><ele>71.0</ele><time>2026-05-01T07:36:19.999Z</time></trkpt><trkpt lat="43.481601938645206" lon="10.751118093849842"><ele>68.0</ele><time>2026-05-01T07:36:20.999Z</time></trkpt><trkpt lat="43.48141964493653" lon="10.751338472830144"><ele>71.5</ele><time>2026-05-01T07:36:21.999Z</time></trkpt><trkpt lat="43.481235895809675" lon="10.751552362246002"><ele>75.0</ele><time>2026-05-01T07:36:22.999Z</time></trkpt><trkpt lat="43.48106056671459" lon="10.751759702992898"><ele>74.0</ele><time>2026-05-01T07:36:23.998Z</time></trkpt><trkpt lat="43.48089266060762" lon="10.751973432003847"><ele>73.0</ele><time>2026-05-01T07:36:24.998Z</time></trkpt><trkpt lat="43.480744807891256" lon="10.752205779422738"><ele>73.0</ele><time>2026-05-01T07:36:25.998Z</time></trkpt><trkpt lat="43.48060717745255" lon="10.752464888246509"><ele>73.0</ele><time>2026-05-01T07:36:26.998Z</time></trkpt><trkpt lat="43.48047229715131" lon="10.752737699282658"><ele>76.0</ele><time>2026-05-01T07:36:27.998Z</time></trkpt><trkpt lat="43.48033731606708" lon="10.753008319919822"><ele>79.0</ele><time>2026-05-01T07:36:28.998Z</time></trkpt><trkpt lat="43.48020100729576" lon="10.753273184977978"><ele>79.0</ele><time>2026-05-01T07:36:29.998Z</time></trkpt><trkpt lat="43.48006131404863" lon="10.75353320740344"><ele>79.0</ele><time>2026-05-01T07:36:30.998Z</time></trkpt><trkpt lat="43.479913071996286" lon="10.753785317752303"><ele>81.0</ele><time>2026-05-01T07:36:31.998Z</time></trkpt><trkpt lat="43.47975515609006" lon="10.754028166243149"><ele>83.0</ele><time>2026-05-01T07:36:32.998Z</time></trkpt><trkpt lat="43.47958942914117" lon="10.75427231693474"><ele>79.0</ele><time>2026-05-01T07:36:33.998Z</time></trkpt><trkpt lat="43.479421598678535" lon="10.754518680851806"><ele>75.0</ele><time>2026-05-01T07:36:34.998Z</time></trkpt><trkpt lat="43.47925093852864" lon="10.754767542755554"><ele>75.0</ele><time>2026-05-01T07:36:35.998Z</time></trkpt><trkpt lat="43.47907921443855" lon="10.755018923536129"><ele>75.0</ele><time>2026-05-01T07:36:36.998Z</time></trkpt><trkpt lat="43.47890850588205" lon="10.755269617869388"><ele>75.0</ele><time>2026-05-01T07:36:37.998Z</time></trkpt><trkpt lat="43.47873792940404" lon="10.755515435084968"><ele>75.0</ele><time>2026-05-01T07:36:38.998Z</time></trkpt><trkpt lat="43.47857523005227" lon="10.755750826850955"><ele>75.0</ele><time>2026-05-01T07:36:39.998Z</time></trkpt><trkpt lat="43.478427469828056" lon="10.755961055354419"><ele>75.0</ele><time>2026-05-01T07:36:40.998Z</time></trkpt><trkpt lat="43.478297835649464" lon="10.756153209417493"><ele>75.0</ele><time>2026-05-01T07:36:41.998Z</time></trkpt><trkpt lat="43.478178381449794" lon="10.756361628017299"><ele>74.66666666666667</ele><time>2026-05-01T07:36:42.998Z</time></trkpt><trkpt lat="43.478073678592665" lon="10.756593249931717"><ele>74.33333333333334</ele><time>2026-05-01T07:36:43.998Z</time></trkpt><trkpt lat="43.4779827302117" lon="10.756861860769908"><ele>74.0</ele><time>2026-05-01T07:36:44.998Z</time></trkpt><trkpt lat="43.47790196762632" lon="10.757139902196078"><ele>73.66666666666667</ele><time>2026-05-01T07:36:45.998Z</time></trkpt><trkpt lat="43.47782059909645" lon="10.757412335250534"><ele>73.33333333333333</ele><time>2026-05-01T07:36:46.998Z</time></trkpt><trkpt lat="43.477740528073205" lon="10.757682114224334"><ele>73.0</ele><time>2026-05-01T07:36:47.998Z</time></trkpt><trkpt lat="43.47766097535134" lon="10.757947850288792"><ele>73.0</ele><time>2026-05-01T07:36:48.998Z</time></trkpt><trkpt lat="43.477582100830496" lon="10.758218718373389"><ele>73.0</ele><time>2026-05-01T07:36:49.998Z</time></trkpt><trkpt lat="43.477502324555495" lon="10.758496047459273"><ele>73.0</ele><time>2026-05-01T07:36:50.998Z</time></trkpt><trkpt lat="43.47741885161628" lon="10.758779104540404"><ele>72.0</ele><time>2026-05-01T07:36:51.998Z</time></trkpt><trkpt lat="43.477335777862876" lon="10.759059368682802"><ele>71.0</ele><time>2026-05-01T07:36:52.998Z</time></trkpt><trkpt lat="43.47724856151156" lon="10.759340518978723"><ele>70.0</ele><time>2026-05-01T07:36:53.998Z</time></trkpt><trkpt lat="43.477157962482465" lon="10.75961425710879"><ele>72.66666666666666</ele><time>2026-05-01T07:36:54.998Z</time></trkpt><trkpt lat="43.47706669353287" lon="10.759884534243866"><ele>75.33333333333333</ele><time>2026-05-01T07:36:55.998Z</time></trkpt><trkpt lat="43.47698125641383" lon="10.760158153692831"><ele>78.0</ele><time>2026-05-01T07:36:56.998Z</time></trkpt><trkpt lat="43.476898394329766" lon="10.760432866343846"><ele>78.0</ele><time>2026-05-01T07:36:57.998Z</time></trkpt><trkpt lat="43.476814751142086" lon="10.760705471546846"><ele>78.0</ele><time>2026-05-01T07:36:58.998Z</time></trkpt><trkpt lat="43.476738771964804" lon="10.76098062630642"><ele>78.0</ele><time>2026-05-01T07:36:59.998Z</time></trkpt><trkpt lat="43.476680969673254" lon="10.761259762279245"><ele>77.66666666666667</ele><time>2026-05-01T07:37:01Z</time></trkpt><trkpt lat="43.4766487442327" lon="10.76152853763989"><ele>77.33333333333334</ele><time>2026-05-01T07:37:02Z</time></trkpt><trkpt lat="43.47663293510996" lon="10.761803429067081"><ele>77.0</ele><time>2026-05-01T07:37:03Z</time></trkpt><trkpt lat="43.47662479122445" lon="10.762055843956345"><ele>77.0</ele><time>2026-05-01T07:37:04Z</time></trkpt><trkpt lat="43.47660865781406" lon="10.76230234702525"><ele>77.0</ele><time>2026-05-01T07:37:05Z</time></trkpt><trkpt lat="43.476571402088325" lon="10.762539131018547"><ele>77.0</ele><time>2026-05-01T07:37:06Z</time></trkpt><trkpt lat="43.47649942696671" lon="10.76274676813025"><ele>77.33333333333334</ele><time>2026-05-01T07:37:07Z</time></trkpt><trkpt lat="43.47639255388403" lon="10.762905120979482"><ele>77.66666666666667</ele><time>2026-05-01T07:37:08Z</time></trkpt><trkpt lat="43.476258253457196" lon="10.763013457315347"><ele>78.0</ele><time>2026-05-01T07:37:09Z</time></trkpt><trkpt lat="43.476106437923605" lon="10.763077415644489"><ele>79.0</ele><time>2026-05-01T07:37:10Z</time></trkpt><trkpt lat="43.47595843535876" lon="10.763123370532805"><ele>80.0</ele><time>2026-05-01T07:37:11Z</time></trkpt><trkpt lat="43.47582620778892" lon="10.763163593024348"><ele>81.0</ele><time>2026-05-01T07:37:12Z</time></trkpt><trkpt lat="43.475694367755196" lon="10.763202599631354"><ele>82.0</ele><time>2026-05-01T07:37:13Z</time></trkpt><trkpt lat="43.47555395961461" lon="10.763243989664542"><ele>82.25</ele><time>2026-05-01T07:37:14Z</time></trkpt><trkpt lat="43.47541056013501" lon="10.763284597611127"><ele>82.5</ele><time>2026-05-01T07:37:15Z</time></trkpt><trkpt lat="43.47526216255199" lon="10.763321963628156"><ele>82.75</ele><time>2026-05-01T07:37:16Z</time></trkpt><trkpt lat="43.47511543143348" lon="10.763362125578633"><ele>83.0</ele><time>2026-05-01T07:37:17Z</time></trkpt><trkpt lat="43.4749670548913" lon="10.76340327675164"><ele>83.0</ele><time>2026-05-01T07:37:18Z</time></trkpt><trkpt lat="43.474817489126856" lon="10.76343708660571"><ele>83.0</ele><time>2026-05-01T07:37:19Z</time></trkpt><trkpt lat="43.47466408619275" lon="10.763471147756578"><ele>83.0</ele><time>2026-05-01T07:37:20Z</time></trkpt><trkpt lat="43.474505483653516" lon="10.763497921680313"><ele>82.66666666666667</ele><time>2026-05-01T07:37:21Z</time></trkpt><trkpt lat="43.47434122771305" lon="10.763506256444396"><ele>82.33333333333333</ele><time>2026-05-01T07:37:22Z</time></trkpt><trkpt lat="43.47417660902182" lon="10.763493346297054"><ele>82.0</ele><time>2026-05-01T07:37:23Z</time></trkpt><trkpt lat="43.47402185484108" lon="10.763469819856567"><ele>82.0</ele><time>2026-05-01T07:37:24Z</time></trkpt><trkpt lat="43.47388081793604" lon="10.763445712717537"><ele>82.0</ele><time>2026-05-01T07:37:25Z</time></trkpt><trkpt lat="43.47374547243492" lon="10.763422990430477"><ele>82.0</ele><time>2026-05-01T07:37:26Z</time></trkpt><trkpt lat="43.473606708437" lon="10.763400380350998"><ele>82.0</ele><time>2026-05-01T07:37:27Z</time></trkpt><trkpt lat="43.473475183563906" lon="10.76337895645211"><ele>82.19999999999999</ele><time>2026-05-01T07:37:28Z</time></trkpt><trkpt lat="43.473354619997686" lon="10.763359541152035"><ele>82.4</ele><time>2026-05-01T07:37:29Z</time></trkpt><trkpt lat="43.473248478417474" lon="10.763340600654614"><ele>82.6</ele><time>2026-05-01T07:37:30Z</time></trkpt><trkpt lat="43.47315701041235" lon="10.76332085238369"><ele>82.80000000000001</ele><time>2026-05-01T07:37:31Z</time></trkpt><trkpt lat="43.47305989742669" lon="10.763299405598014"><ele>83.0</ele><time>2026-05-01T07:37:32Z</time></trkpt><trkpt lat="43.47293993192835" lon="10.763287291188165"><ele>82.33333333333334</ele><time>2026-05-01T07:37:33Z</time></trkpt><trkpt lat="43.47280424870684" lon="10.76327189455687"><ele>81.66666666666667</ele><time>2026-05-01T07:37:34Z</time></trkpt><trkpt lat="43.472646246970186" lon="10.763243278936448"><ele>81.0</ele><time>2026-05-01T07:37:35Z</time></trkpt><trkpt lat="43.47247143208756" lon="10.763205920869247"><ele>81.0</ele><time>2026-05-01T07:37:36Z</time></trkpt><trkpt lat="43.47229940340876" lon="10.763154312325502"><ele>81.0</ele><time>2026-05-01T07:37:37Z</time></trkpt><trkpt lat="43.47212023559699" lon="10.763072437686498"><ele>81.0</ele><time>2026-05-01T07:37:38Z</time></trkpt><trkpt lat="43.47193245854424" lon="10.762963375447926"><ele>80.66666666666667</ele><time>2026-05-01T07:37:39Z</time></trkpt><trkpt lat="43.47173956492553" lon="10.762849666014239"><ele>80.33333333333334</ele><time>2026-05-01T07:37:40Z</time></trkpt><trkpt lat="43.47154751940931" lon="10.762737092659393"><ele>80.0</ele><time>2026-05-01T07:37:41Z</time></trkpt><trkpt lat="43.47135902472351" lon="10.762618955072455"><ele>81.0</ele><time>2026-05-01T07:37:42Z</time></trkpt><trkpt lat="43.47116381237535" lon="10.762503200278022"><ele>82.0</ele><time>2026-05-01T07:37:43Z</time></trkpt><trkpt lat="43.470962645774726" lon="10.76238561400963"><ele>83.0</ele><time>2026-05-01T07:37:44Z</time></trkpt><trkpt lat="43.47075858533459" lon="10.762260655748992"><ele>83.0</ele><time>2026-05-01T07:37:45Z</time></trkpt><trkpt lat="43.47055500344411" lon="10.762136535227864"><ele>83.0</ele><time>2026-05-01T07:37:46Z</time></trkpt><trkpt lat="43.47035632006886" lon="10.762014166612497"><ele>83.0</ele><time>2026-05-01T07:37:47Z</time></trkpt><trkpt lat="43.47015983455123" lon="10.761894280577478"><ele>83.33333333333334</ele><time>2026-05-01T07:37:48Z</time></trkpt><trkpt lat="43.46996089044143" lon="10.761782832475893"><ele>83.66666666666667</ele><time>2026-05-01T07:37:48.999Z</time></trkpt><trkpt lat="43.46975547614213" lon="10.761682158602605"><ele>84.0</ele><time>2026-05-01T07:37:49.999Z</time></trkpt><trkpt lat="43.46953683241981" lon="10.761595492814601"><ele>84.0</ele><time>2026-05-01T07:37:50.999Z</time></trkpt><trkpt lat="43.469305543632736" lon="10.761520151254338"><ele>84.0</ele><time>2026-05-01T07:37:51.999Z</time></trkpt><trkpt lat="43.46908141143415" lon="10.761448879641375"><ele>84.0</ele><time>2026-05-01T07:37:52.999Z</time></trkpt><trkpt lat="43.468860728551626" lon="10.761380843941058"><ele>84.0</ele><time>2026-05-01T07:37:53.999Z</time></trkpt><trkpt lat="43.46864133773532" lon="10.761314195263722"><ele>82.5</ele><time>2026-05-01T07:37:54.999Z</time></trkpt><trkpt lat="43.46842153264628" lon="10.7612441597466"><ele>81.0</ele><time>2026-05-01T07:37:55.999Z</time></trkpt><trkpt lat="43.468203000346996" lon="10.761174728380908"><ele>81.0</ele><time>2026-05-01T07:37:56.999Z</time></trkpt><trkpt lat="43.46798285806048" lon="10.76110712651525"><ele>81.0</ele><time>2026-05-01T07:37:57.999Z</time></trkpt><trkpt lat="43.46776467107235" lon="10.761039922970907"><ele>81.0</ele><time>2026-05-01T07:37:58.999Z</time></trkpt><trkpt lat="43.46754644494667" lon="10.760971929055437"><ele>82.0</ele><time>2026-05-01T07:37:59.999Z</time></trkpt><trkpt lat="43.46732483252923" lon="10.760900983267925"><ele>83.0</ele><time>2026-05-01T07:38:00.999Z</time></trkpt><trkpt lat="43.46710356885577" lon="10.760831895463474"><ele>83.0</ele><time>2026-05-01T07:38:01.999Z</time></trkpt><trkpt lat="43.466884998653946" lon="10.760765580484435"><ele>83.0</ele><time>2026-05-01T07:38:02.999Z</time></trkpt><trkpt lat="43.46666824256541" lon="10.760704312464359"><ele>83.0</ele><time>2026-05-01T07:38:03.999Z</time></trkpt><trkpt lat="43.46646342689975" lon="10.760616447008646"><ele>82.33333333333334</ele><time>2026-05-01T07:38:04.999Z</time></trkpt><trkpt lat="43.46626048841165" lon="10.76057011873469"><ele>81.66666666666667</ele><time>2026-05-01T07:38:05.999Z</time></trkpt><trkpt lat="43.46605917607433" lon="10.760503493437746"><ele>81.0</ele><time>2026-05-01T07:38:06.999Z</time></trkpt><trkpt lat="43.465853645754045" lon="10.760455791787878"><ele>81.0</ele><time>2026-05-01T07:38:07.999Z</time></trkpt><trkpt lat="43.46563984494963" lon="10.760433356410136"><ele>81.0</ele><time>2026-05-01T07:38:08.999Z</time></trkpt><trkpt lat="43.46542079478079" lon="10.760432654823331"><ele>81.0</ele><time>2026-05-01T07:38:09.999Z</time></trkpt><trkpt lat="43.46519769089836" lon="10.760444461265395"><ele>81.33333333333333</ele><time>2026-05-01T07:38:10.999Z</time></trkpt><trkpt lat="43.464980130833126" lon="10.760472513020524"><ele>81.66666666666666</ele><time>2026-05-01T07:38:11.999Z</time></trkpt><trkpt lat="43.46476320316582" lon="10.760508889249158"><ele>82.0</ele><time>2026-05-01T07:38:12.999Z</time></trkpt><trkpt lat="43.46455029274213" lon="10.760546667247858"><ele>82.33333333333333</ele><time>2026-05-01T07:38:13.999Z</time></trkpt><trkpt lat="43.464343619174365" lon="10.760590019965017"><ele>82.66666666666667</ele><time>2026-05-01T07:38:14.999Z</time></trkpt><trkpt lat="43.464131106215" lon="10.760627609595916"><ele>83.0</ele><time>2026-05-01T07:38:15.999Z</time></trkpt><trkpt lat="43.46390996817326" lon="10.760636127002696"><ele>84.5</ele><time>2026-05-01T07:38:16.999Z</time></trkpt><trkpt lat="43.4636802147424" lon="10.760622529392135"><ele>86.0</ele><time>2026-05-01T07:38:17.999Z</time></trkpt><trkpt lat="43.463453329702276" lon="10.760593301569724"><ele>86.0</ele><time>2026-05-01T07:38:18.999Z</time></trkpt><trkpt lat="43.46324493104468" lon="10.760568837109684"><ele>86.0</ele><time>2026-05-01T07:38:19.999Z</time></trkpt><trkpt lat="43.46303595538482" lon="10.760578285023492"><ele>86.0</ele><time>2026-05-01T07:38:20.999Z</time></trkpt><trkpt lat="43.462819617048474" lon="10.760624406201773"><ele>86.66666666666667</ele><time>2026-05-01T07:38:21.999Z</time></trkpt><trkpt lat="43.46260735149272" lon="10.760692206543384"><ele>87.33333333333333</ele><time>2026-05-01T07:38:22.999Z</time></trkpt><trkpt lat="43.462409656225354" lon="10.760758737664965"><ele>88.0</ele><time>2026-05-01T07:38:23.999Z</time></trkpt><trkpt lat="43.46222870873192" lon="10.760802777546703"><ele>88.0</ele><time>2026-05-01T07:38:24.999Z</time></trkpt><trkpt lat="43.4620620016958" lon="10.760796605317267"><ele>88.0</ele><time>2026-05-01T07:38:25.999Z</time></trkpt><trkpt lat="43.461892549619314" lon="10.760740664335486"><ele>88.0</ele><time>2026-05-01T07:38:26.999Z</time></trkpt><trkpt lat="43.461718947934834" lon="10.760635431961958"><ele>88.0</ele><time>2026-05-01T07:38:27.999Z</time></trkpt><trkpt lat="43.46153488679139" lon="10.760513563355147"><ele>88.0</ele><time>2026-05-01T07:38:28.999Z</time></trkpt><trkpt lat="43.461341187275615" lon="10.760378511917166"><ele>88.0</ele><time>2026-05-01T07:38:29.999Z</time></trkpt><trkpt lat="43.46114313457514" lon="10.7602397841984"><ele>89.33333333333333</ele><time>2026-05-01T07:38:30.999Z</time></trkpt><trkpt lat="43.46094751599398" lon="10.760106109770721"><ele>90.66666666666667</ele><time>2026-05-01T07:38:31.999Z</time></trkpt><trkpt lat="43.46075971190428" lon="10.759978239758329"><ele>92.0</ele><time>2026-05-01T07:38:32.999Z</time></trkpt><trkpt lat="43.4605873559903" lon="10.759855703314615"><ele>90.66666666666667</ele><time>2026-05-01T07:38:33.999Z</time></trkpt><trkpt lat="43.46043041845104" lon="10.759743727189111"><ele>89.33333333333333</ele><time>2026-05-01T07:38:34.998Z</time></trkpt><trkpt lat="43.460285278202306" lon="10.759642249382805"><ele>88.0</ele><time>2026-05-01T07:38:35.998Z</time></trkpt><trkpt lat="43.4601493327902" lon="10.759551249477791"><ele>88.0</ele><time>2026-05-01T07:38:36.998Z</time></trkpt><trkpt lat="43.46001408122322" lon="10.759480132273612"><ele>88.0</ele><time>2026-05-01T07:38:37.998Z</time></trkpt><trkpt lat="43.45987334896001" lon="10.759447377292833"><ele>88.0</ele><time>2026-05-01T07:38:38.998Z</time></trkpt><trkpt lat="43.45972890240951" lon="10.759458452106356"><ele>88.0</ele><time>2026-05-01T07:38:39.998Z</time></trkpt><trkpt lat="43.45959005782905" lon="10.759511033457915"><ele>87.25</ele><time>2026-05-01T07:38:40.998Z</time></trkpt><trkpt lat="43.45946194280287" lon="10.75960438791684"><ele>86.5</ele><time>2026-05-01T07:38:41.998Z</time></trkpt><trkpt lat="43.45935403859371" lon="10.759732032618157"><ele>85.75</ele><time>2026-05-01T07:38:42.998Z</time></trkpt><trkpt lat="43.4592647412055" lon="10.759893584485408"><ele>85.0</ele><time>2026-05-01T07:38:43.998Z</time></trkpt><trkpt lat="43.45918818230055" lon="10.760103621434649"><ele>85.0</ele><time>2026-05-01T07:38:44.998Z</time></trkpt><trkpt lat="43.45910627954851" lon="10.760335427971633"><ele>85.0</ele><time>2026-05-01T07:38:45.998Z</time></trkpt><trkpt lat="43.45902278096249" lon="10.760562401649153"><ele>85.0</ele><time>2026-05-01T07:38:46.998Z</time></trkpt><trkpt lat="43.45893447215665" lon="10.760803915411136"><ele>85.33333333333333</ele><time>2026-05-01T07:38:47.998Z</time></trkpt><trkpt lat="43.45884454268581" lon="10.761063209927533"><ele>85.66666666666667</ele><time>2026-05-01T07:38:48.998Z</time></trkpt><trkpt lat="43.45875583862044" lon="10.761313770703653"><ele>86.0</ele><time>2026-05-01T07:38:49.998Z</time></trkpt><trkpt lat="43.45867173980509" lon="10.76155396873972"><ele>87.0</ele><time>2026-05-01T07:38:50.998Z</time></trkpt><trkpt lat="43.45859182395955" lon="10.761774714935893"><ele>88.0</ele><time>2026-05-01T07:38:51.998Z</time></trkpt><trkpt lat="43.45852410814621" lon="10.76198618169653"><ele>89.0</ele><time>2026-05-01T07:38:52.998Z</time></trkpt><trkpt lat="43.45848733476099" lon="10.76222398621582"><ele>89.33333333333334</ele><time>2026-05-01T07:38:53.998Z</time></trkpt><trkpt lat="43.45848065959781" lon="10.762493508636739"><ele>89.66666666666667</ele><time>2026-05-01T07:38:54.998Z</time></trkpt><trkpt lat="43.45848697376898" lon="10.762780492928654"><ele>90.0</ele><time>2026-05-01T07:38:55.998Z</time></trkpt><trkpt lat="43.4584877287703" lon="10.76303468094633"><ele>90.0</ele><time>2026-05-01T07:38:56.998Z</time></trkpt><trkpt lat="43.45848057549587" lon="10.763256819503505"><ele>90.0</ele><time>2026-05-01T07:38:57.998Z</time></trkpt><trkpt lat="43.45845117561838" lon="10.763452837350817"><ele>90.0</ele><time>2026-05-01T07:38:58.998Z</time></trkpt><trkpt lat="43.45838343307041" lon="10.763634879255639"><ele>89.0</ele><time>2026-05-01T07:38:59.998Z</time></trkpt><trkpt lat="43.45827753229862" lon="10.763795336617148"><ele>88.0</ele><time>2026-05-01T07:39:00.998Z</time></trkpt><trkpt lat="43.45814603892781" lon="10.763941089707604"><ele>87.0</ele><time>2026-05-01T07:39:01.998Z</time></trkpt><trkpt lat="43.45800015171161" lon="10.764098760326467"><ele>87.66666666666667</ele><time>2026-05-01T07:39:02.998Z</time></trkpt><trkpt lat="43.457853938662346" lon="10.764266767141374"><ele>88.33333333333334</ele><time>2026-05-01T07:39:03.998Z</time></trkpt><trkpt lat="43.45770508361964" lon="10.764437904088446"><ele>89.0</ele><time>2026-05-01T07:39:04.998Z</time></trkpt><trkpt lat="43.457547168142916" lon="10.76461656015001"><ele>89.0</ele><time>2026-05-01T07:39:05.998Z</time></trkpt><trkpt lat="43.45738242097653" lon="10.764803076180502"><ele>89.0</ele><time>2026-05-01T07:39:07Z</time></trkpt><trkpt lat="43.45721913792773" lon="10.76498800319018"><ele>89.0</ele><time>2026-05-01T07:39:08Z</time></trkpt><trkpt lat="43.4570602087304" lon="10.765165546643352"><ele>89.33333333333334</ele><time>2026-05-01T07:39:09Z</time></trkpt><trkpt lat="43.45689968165127" lon="10.765346451492244"><ele>89.66666666666667</ele><time>2026-05-01T07:39:10Z</time></trkpt><trkpt lat="43.45673944026485" lon="10.765533083157928"><ele>90.0</ele><time>2026-05-01T07:39:11Z</time></trkpt><trkpt lat="43.45657374040647" lon="10.765718210460497"><ele>90.0</ele><time>2026-05-01T07:39:12Z</time></trkpt><trkpt lat="43.456407963875826" lon="10.765901091791477"><ele>90.0</ele><time>2026-05-01T07:39:13Z</time></trkpt><trkpt lat="43.4562431636137" lon="10.766090546095459"><ele>90.0</ele><time>2026-05-01T07:39:14Z</time></trkpt><trkpt lat="43.45607786007877" lon="10.766276768629085"><ele>90.66666666666667</ele><time>2026-05-01T07:39:15Z</time></trkpt><trkpt lat="43.45590867171249" lon="10.766463845191234"><ele>91.33333333333334</ele><time>2026-05-01T07:39:16Z</time></trkpt><trkpt lat="43.4557395153992" lon="10.766650625495723"><ele>92.0</ele><time>2026-05-01T07:39:17Z</time></trkpt><trkpt lat="43.4555732376673" lon="10.766836059218436"><ele>93.0</ele><time>2026-05-01T07:39:18Z</time></trkpt><trkpt lat="43.455406393261555" lon="10.767021902936994"><ele>94.0</ele><time>2026-05-01T07:39:19Z</time></trkpt><trkpt lat="43.45524269093982" lon="10.767210505158273"><ele>95.0</ele><time>2026-05-01T07:39:20Z</time></trkpt><trkpt lat="43.455082027674926" lon="10.767398528480765"><ele>95.0</ele><time>2026-05-01T07:39:21Z</time></trkpt><trkpt lat="43.45492074854155" lon="10.767585251016344"><ele>95.0</ele><time>2026-05-01T07:39:22Z</time></trkpt><trkpt lat="43.454759907636394" lon="10.767766327736329"><ele>95.0</ele><time>2026-05-01T07:39:23Z</time></trkpt><trkpt lat="43.454591741388796" lon="10.767940085160644"><ele>95.33333333333334</ele><time>2026-05-01T07:39:24Z</time></trkpt><trkpt lat="43.45441181997362" lon="10.768096414049083"><ele>95.66666666666667</ele><time>2026-05-01T07:39:25Z</time></trkpt><trkpt lat="43.45421998503811" lon="10.768227916682873"><ele>96.0</ele><time>2026-05-01T07:39:26Z</time></trkpt><trkpt lat="43.45401772927728" lon="10.768338704951772"><ele>96.0</ele><time>2026-05-01T07:39:27Z</time></trkpt><trkpt lat="43.45381666331595" lon="10.768440082708349"><ele>96.0</ele><time>2026-05-01T07:39:28Z</time></trkpt><trkpt lat="43.45362062759783" lon="10.768550690936296"><ele>96.0</ele><time>2026-05-01T07:39:29Z</time></trkpt><trkpt lat="43.45342438391223" lon="10.768664337450543"><ele>96.33333333333334</ele><time>2026-05-01T07:39:30Z</time></trkpt><trkpt lat="43.45322666513827" lon="10.768775722556311"><ele>96.66666666666667</ele><time>2026-05-01T07:39:31Z</time></trkpt><trkpt lat="43.45302706576549" lon="10.768886352551698"><ele>97.0</ele><time>2026-05-01T07:39:32Z</time></trkpt><trkpt lat="43.452829263939925" lon="10.768995478807067"><ele>97.66666666666667</ele><time>2026-05-01T07:39:33Z</time></trkpt><trkpt lat="43.45263268127941" lon="10.769101198159795"><ele>98.33333333333334</ele><time>2026-05-01T07:39:34Z</time></trkpt><trkpt lat="43.45243831457042" lon="10.769207506296308"><ele>99.0</ele><time>2026-05-01T07:39:35Z</time></trkpt><trkpt lat="43.452247114309074" lon="10.769314609774664"><ele>99.0</ele><time>2026-05-01T07:39:36Z</time></trkpt><trkpt lat="43.45205750917892" lon="10.769423701593977"><ele>99.0</ele><time>2026-05-01T07:39:37Z</time></trkpt><trkpt lat="43.451872313951505" lon="10.769525410298657"><ele>99.0</ele><time>2026-05-01T07:39:38Z</time></trkpt><trkpt lat="43.451688508955584" lon="10.76962884691461"><ele>99.0</ele><time>2026-05-01T07:39:39Z</time></trkpt><trkpt lat="43.45150476479061" lon="10.769734278919994"><ele>99.0</ele><time>2026-05-01T07:39:40Z</time></trkpt><trkpt lat="43.45132169508894" lon="10.769838651938942"><ele>99.0</ele><time>2026-05-01T07:39:41Z</time></trkpt><trkpt lat="43.45114215683812" lon="10.769940960117907"><ele>99.33333333333334</ele><time>2026-05-01T07:39:42Z</time></trkpt><trkpt lat="43.450962670356866" lon="10.770041034624546"><ele>99.66666666666667</ele><time>2026-05-01T07:39:43Z</time></trkpt><trkpt lat="43.450794864532554" lon="10.77013639736765"><ele>100.0</ele><time>2026-05-01T07:39:44Z</time></trkpt><trkpt lat="43.45063825357392" lon="10.770225899576841"><ele>100.0</ele><time>2026-05-01T07:39:45Z</time></trkpt><trkpt lat="43.450488302691106" lon="10.770310959509542"><ele>100.0</ele><time>2026-05-01T07:39:46Z</time></trkpt><trkpt lat="43.450339803067344" lon="10.770391541525816"><ele>100.0</ele><time>2026-05-01T07:39:47Z</time></trkpt><trkpt lat="43.450202321690625" lon="10.770470988703"><ele>100.25</ele><time>2026-05-01T07:39:48Z</time></trkpt><trkpt lat="43.45008949880097" lon="10.770555230689071"><ele>100.5</ele><time>2026-05-01T07:39:49Z</time></trkpt><trkpt lat="43.450000513091474" lon="10.770678930434185"><ele>100.75</ele><time>2026-05-01T07:39:50Z</time></trkpt><trkpt lat="43.44993909273385" lon="10.77083596678491"><ele>101.0</ele><time>2026-05-01T07:39:51Z</time></trkpt><trkpt lat="43.44991897266964" lon="10.771011567008836"><ele>100.5</ele><time>2026-05-01T07:39:52Z</time></trkpt><trkpt lat="43.44992629577042" lon="10.77120533958406"><ele>100.0</ele><time>2026-05-01T07:39:53Z</time></trkpt><trkpt lat="43.44993898193517" lon="10.771413830165164"><ele>99.5</ele><time>2026-05-01T07:39:54Z</time></trkpt><trkpt lat="43.44994144734629" lon="10.771616724658596"><ele>99.0</ele><time>2026-05-01T07:39:55Z</time></trkpt><trkpt lat="43.44995136594542" lon="10.771792292241447"><ele>98.75</ele><time>2026-05-01T07:39:56Z</time></trkpt><trkpt lat="43.4499504358757" lon="10.771952265642533"><ele>98.5</ele><time>2026-05-01T07:39:57Z</time></trkpt><trkpt lat="43.449917402142404" lon="10.772093705459676"><ele>98.25</ele><time>2026-05-01T07:39:58Z</time></trkpt><trkpt lat="43.44984357456793" lon="10.772217331336424"><ele>98.0</ele><time>2026-05-01T07:39:59Z</time></trkpt><trkpt lat="43.44973752967973" lon="10.772296177546592"><ele>99.0</ele><time>2026-05-01T07:40:00Z</time></trkpt><trkpt lat="43.4496096864644" lon="10.772300799280654"><ele>100.0</ele><time>2026-05-01T07:40:01Z</time></trkpt><trkpt lat="43.44947450195406" lon="10.772277680474994"><ele>101.0</ele><time>2026-05-01T07:40:02Z</time></trkpt><trkpt lat="43.44932170850736" lon="10.772249950757733"><ele>102.0</ele><time>2026-05-01T07:40:02.999Z</time></trkpt><trkpt lat="43.449165746383024" lon="10.772237008355798"><ele>102.0</ele><time>2026-05-01T07:40:03.999Z</time></trkpt><trkpt lat="43.44901036010927" lon="10.7722089836586"><ele>102.0</ele><time>2026-05-01T07:40:04.999Z</time></trkpt><trkpt lat="43.4488513087132" lon="10.772182589935074"><ele>102.0</ele><time>2026-05-01T07:40:05.999Z</time></trkpt><trkpt lat="43.44869291301528" lon="10.77216160646176"><ele>104.33333333333334</ele><time>2026-05-01T07:40:06.999Z</time></trkpt><trkpt lat="43.448532280370856" lon="10.772161564962465"><ele>106.66666666666667</ele><time>2026-05-01T07:40:07.999Z</time></trkpt><trkpt lat="43.448365200922915" lon="10.77218021202795"><ele>109.0</ele><time>2026-05-01T07:40:08.999Z</time></trkpt><trkpt lat="43.44819112348199" lon="10.772209492835074"><ele>109.0</ele><time>2026-05-01T07:40:09.999Z</time></trkpt><trkpt lat="43.4480081582901" lon="10.772241138170953"><ele>109.0</ele><time>2026-05-01T07:40:10.999Z</time></trkpt><trkpt lat="43.447818038902696" lon="10.772267808407223"><ele>109.0</ele><time>2026-05-01T07:40:11.999Z</time></trkpt><trkpt lat="43.447633835858035" lon="10.772295746864577"><ele>109.0</ele><time>2026-05-01T07:40:12.999Z</time></trkpt><trkpt lat="43.44744472410941" lon="10.772329690330519"><ele>109.0</ele><time>2026-05-01T07:40:13.999Z</time></trkpt><trkpt lat="43.447255740040205" lon="10.77236266792275"><ele>109.0</ele><time>2026-05-01T07:40:14.999Z</time></trkpt><trkpt lat="43.44706303865454" lon="10.77239275718182"><ele>108.66666666666667</ele><time>2026-05-01T07:40:15.999Z</time></trkpt><trkpt lat="43.44686596516092" lon="10.772423211888153"><ele>108.33333333333334</ele><time>2026-05-01T07:40:16.999Z</time></trkpt><trkpt lat="43.44666644371725" lon="10.772459369154982"><ele>108.0</ele><time>2026-05-01T07:40:17.999Z</time></trkpt><trkpt lat="43.44646379155543" lon="10.772497513513029"><ele>108.33333333333334</ele><time>2026-05-01T07:40:18.999Z</time></trkpt><trkpt lat="43.446269168019555" lon="10.772533114141769"><ele>108.66666666666667</ele><time>2026-05-01T07:40:19.999Z</time></trkpt><trkpt lat="43.44608080478979" lon="10.772537760188024"><ele>109.0</ele><time>2026-05-01T07:40:20.999Z</time></trkpt><trkpt lat="43.445890903347994" lon="10.772556594814496"><ele>109.0</ele><time>2026-05-01T07:40:21.999Z</time></trkpt><trkpt lat="43.44569550554142" lon="10.772572572558262"><ele>109.0</ele><time>2026-05-01T07:40:22.999Z</time></trkpt><trkpt lat="43.445481359091296" lon="10.772587525364319"><ele>109.0</ele><time>2026-05-01T07:40:23.999Z</time></trkpt><trkpt lat="43.445249549868244" lon="10.77260371147278"><ele>110.0</ele><time>2026-05-01T07:40:24.999Z</time></trkpt><trkpt lat="43.445013225133" lon="10.772620212881003"><ele>111.0</ele><time>2026-05-01T07:40:25.999Z</time></trkpt><trkpt lat="43.44478288628092" lon="10.77263643617928"><ele>111.0</ele><time>2026-05-01T07:40:26.999Z</time></trkpt><trkpt lat="43.444567714485096" lon="10.772651625860599"><ele>111.0</ele><time>2026-05-01T07:40:27.999Z</time></trkpt><trkpt lat="43.444363060432444" lon="10.772679901627633"><ele>111.0</ele><time>2026-05-01T07:40:28.999Z</time></trkpt><trkpt lat="43.44415680858995" lon="10.77269132341351"><ele>111.33333333333334</ele><time>2026-05-01T07:40:29.999Z</time></trkpt><trkpt lat="43.44394880690784" lon="10.77270913679505"><ele>111.66666666666667</ele><time>2026-05-01T07:40:30.999Z</time></trkpt><trkpt lat="43.44373848789732" lon="10.772716923828217"><ele>112.0</ele><time>2026-05-01T07:40:31.999Z</time></trkpt><trkpt lat="43.44352977628492" lon="10.772702349024799"><ele>112.66666666666667</ele><time>2026-05-01T07:40:32.999Z</time></trkpt><trkpt lat="43.44331953393506" lon="10.772654448223493"><ele>113.33333333333334</ele><time>2026-05-01T07:40:33.999Z</time></trkpt><trkpt lat="43.443109812207666" lon="10.772573581443643"><ele>114.0</ele><time>2026-05-01T07:40:34.999Z</time></trkpt><trkpt lat="43.44290403149409" lon="10.772473954089573"><ele>114.33333333333334</ele><time>2026-05-01T07:40:35.999Z</time></trkpt><trkpt lat="43.44270001300521" lon="10.772380079117282"><ele>114.66666666666667</ele><time>2026-05-01T07:40:36.999Z</time></trkpt><trkpt lat="43.44249557380233" lon="10.772300000862579"><ele>115.0</ele><time>2026-05-01T07:40:37.999Z</time></trkpt><trkpt lat="43.442295234274546" lon="10.772218668576006"><ele>116.66666666666667</ele><time>2026-05-01T07:40:38.999Z</time></trkpt><trkpt lat="43.44210474515629" lon="10.77214022885377"><ele>118.33333333333334</ele><time>2026-05-01T07:40:39.999Z</time></trkpt><trkpt lat="43.44192056005764" lon="10.772065658616066"><ele>120.0</ele><time>2026-05-01T07:40:40.999Z</time></trkpt><trkpt lat="43.441742427856475" lon="10.771991730866057"><ele>120.0</ele><time>2026-05-01T07:40:41.999Z</time></trkpt><trkpt lat="43.441567264261565" lon="10.771916780297046"><ele>120.0</ele><time>2026-05-01T07:40:42.999Z</time></trkpt><trkpt lat="43.44139303769215" lon="10.771843689559734"><ele>120.0</ele><time>2026-05-01T07:40:43.999Z</time></trkpt><trkpt lat="43.44121153002171" lon="10.7717729932277"><ele>119.33333333333334</ele><time>2026-05-01T07:40:44.999Z</time></trkpt><trkpt lat="43.44103874507611" lon="10.7717056192415"><ele>118.66666666666667</ele><time>2026-05-01T07:40:45.999Z</time></trkpt><trkpt lat="43.440880639977586" lon="10.771636641083388"><ele>118.0</ele><time>2026-05-01T07:40:46.999Z</time></trkpt><trkpt lat="43.44072133968683" lon="10.771567611790072"><ele>118.0</ele><time>2026-05-01T07:40:47.999Z</time></trkpt><trkpt lat="43.44055806787417" lon="10.771493325606317"><ele>118.0</ele><time>2026-05-01T07:40:48.999Z</time></trkpt><trkpt lat="43.44039928722366" lon="10.771388267615485"><ele>118.0</ele><time>2026-05-01T07:40:49.997Z</time></trkpt><trkpt lat="43.440253688965136" lon="10.771245756678699"><ele>118.33333333333334</ele><time>2026-05-01T07:40:50.997Z</time></trkpt><trkpt lat="43.44012596357508" lon="10.771082979160878"><ele>118.66666666666666</ele><time>2026-05-01T07:40:51.997Z</time></trkpt><trkpt lat="43.44000243093558" lon="10.770892227457304"><ele>119.0</ele><time>2026-05-01T07:40:52.997Z</time></trkpt><trkpt lat="43.43984925232467" lon="10.770702599330594"><ele>119.0</ele><time>2026-05-01T07:40:53.997Z</time></trkpt><trkpt lat="43.43969434831913" lon="10.770469650313228"><ele>119.0</ele><time>2026-05-01T07:40:54.997Z</time></trkpt><trkpt lat="43.43951503188222" lon="10.77022829640344"><ele>120.0</ele><time>2026-05-01T07:40:55.997Z</time></trkpt><trkpt lat="43.43931701070759" lon="10.769963647688865"><ele>121.0</ele><time>2026-05-01T07:40:56.997Z</time></trkpt><trkpt lat="43.43909648665978" lon="10.769700860892002"><ele>121.0</ele><time>2026-05-01T07:40:57.997Z</time></trkpt><trkpt lat="43.43890099517009" lon="10.769417289673571"><ele>121.0</ele><time>2026-05-01T07:40:58.997Z</time></trkpt><trkpt lat="43.43868896209628" lon="10.76912484954785"><ele>122.0</ele><time>2026-05-01T07:40:59.997Z</time></trkpt><trkpt lat="43.43847171502494" lon="10.768833799715024"><ele>123.0</ele><time>2026-05-01T07:41:00.997Z</time></trkpt><trkpt lat="43.438266657231516" lon="10.768560577760182"><ele>124.0</ele><time>2026-05-01T07:41:01.997Z</time></trkpt><trkpt lat="43.43806977248623" lon="10.768298279411143"><ele>125.0</ele><time>2026-05-01T07:41:02.997Z</time></trkpt><trkpt lat="43.437878627285194" lon="10.768048265557145"><ele>125.0</ele><time>2026-05-01T07:41:03.997Z</time></trkpt><trkpt lat="43.43769290859048" lon="10.767806962518284"><ele>125.0</ele><time>2026-05-01T07:41:04.997Z</time></trkpt><trkpt lat="43.43751301619672" lon="10.767568953788606"><ele>124.5</ele><time>2026-05-01T07:41:05.997Z</time></trkpt><trkpt lat="43.4373335684021" lon="10.767331885117665"><ele>124.0</ele><time>2026-05-01T07:41:06.997Z</time></trkpt><trkpt lat="43.43716110387514" lon="10.76709657920459"><ele>125.0</ele><time>2026-05-01T07:41:07.997Z</time></trkpt><trkpt lat="43.43699956984886" lon="10.766853648143982"><ele>126.0</ele><time>2026-05-01T07:41:08.997Z</time></trkpt><trkpt lat="43.43686168566399" lon="10.766588577403018"><ele>126.0</ele><time>2026-05-01T07:41:09.997Z</time></trkpt><trkpt lat="43.43674583966459" lon="10.76629833653325"><ele>126.0</ele><time>2026-05-01T07:41:10.997Z</time></trkpt><trkpt lat="43.43660379419013" lon="10.766038525930833"><ele>125.5</ele><time>2026-05-01T07:41:11.997Z</time></trkpt><trkpt lat="43.43652416791511" lon="10.765713357160873"><ele>125.0</ele><time>2026-05-01T07:41:13Z</time></trkpt><trkpt lat="43.43641597540726" lon="10.76542108956959"><ele>125.0</ele><time>2026-05-01T07:41:14Z</time></trkpt><trkpt lat="43.43630650316971" lon="10.765129399495695"><ele>125.0</ele><time>2026-05-01T07:41:15Z</time></trkpt><trkpt lat="43.436191772068454" lon="10.764845122646742"><ele>128.0</ele><time>2026-05-01T07:41:16Z</time></trkpt><trkpt lat="43.43608199898042" lon="10.764563290713932"><ele>131.0</ele><time>2026-05-01T07:41:17Z</time></trkpt><trkpt lat="43.43597825727644" lon="10.764278401458988"><ele>131.0</ele><time>2026-05-01T07:41:18Z</time></trkpt><trkpt lat="43.43587344240073" lon="10.764000279026758"><ele>131.0</ele><time>2026-05-01T07:41:19Z</time></trkpt><trkpt lat="43.43576426387595" lon="10.763731581159654"><ele>130.33333333333331</ele><time>2026-05-01T07:41:20Z</time></trkpt><trkpt lat="43.43565859304149" lon="10.763464935817453"><ele>129.66666666666666</ele><time>2026-05-01T07:41:21Z</time></trkpt><trkpt lat="43.43555566275909" lon="10.763194015399785"><ele>129.0</ele><time>2026-05-01T07:41:22Z</time></trkpt><trkpt lat="43.43545055551994" lon="10.762929496619742"><ele>130.33333333333334</ele><time>2026-05-01T07:41:23Z</time></trkpt><trkpt lat="43.435349686126955" lon="10.762661473280293"><ele>131.66666666666669</ele><time>2026-05-01T07:41:24Z</time></trkpt><trkpt lat="43.43524957400369" lon="10.762393000457646"><ele>133.0</ele><time>2026-05-01T07:41:25Z</time></trkpt><trkpt lat="43.43514857945289" lon="10.762128916958373"><ele>132.66666666666669</ele><time>2026-05-01T07:41:26Z</time></trkpt><trkpt lat="43.43504459189797" lon="10.761862667162864"><ele>132.33333333333334</ele><time>2026-05-01T07:41:27Z</time></trkpt><trkpt lat="43.43494631674764" lon="10.761599485310402"><ele>132.0</ele><time>2026-05-01T07:41:27.999Z</time></trkpt><trkpt lat="43.434855012709605" lon="10.761357523432832"><ele>132.0</ele><time>2026-05-01T07:41:28.999Z</time></trkpt><trkpt lat="43.43476568942934" lon="10.761126874675249"><ele>132.0</ele><time>2026-05-01T07:41:29.999Z</time></trkpt><trkpt lat="43.43466813998725" lon="10.760913547530162"><ele>132.0</ele><time>2026-05-01T07:41:30.999Z</time></trkpt><trkpt lat="43.43454223426268" lon="10.760710524927632"><ele>132.66666666666666</ele><time>2026-05-01T07:41:31.999Z</time></trkpt><trkpt lat="43.43439256855787" lon="10.76051721159718"><ele>133.33333333333331</ele><time>2026-05-01T07:41:32.999Z</time></trkpt><trkpt lat="43.43423587283626" lon="10.760338400727914"><ele>134.0</ele><time>2026-05-01T07:41:33.999Z</time></trkpt><trkpt lat="43.434083602368226" lon="10.76016309643048"><ele>134.0</ele><time>2026-05-01T07:41:34.999Z</time></trkpt><trkpt lat="43.4339484751104" lon="10.760000319239994"><ele>134.0</ele><time>2026-05-01T07:41:35.999Z</time></trkpt><trkpt lat="43.43382732708677" lon="10.759853537415008"><ele>134.0</ele><time>2026-05-01T07:41:36.999Z</time></trkpt><trkpt lat="43.43370276757846" lon="10.759725182105315"><ele>136.0</ele><time>2026-05-01T07:41:37.999Z</time></trkpt><trkpt lat="43.43355427073894" lon="10.75962210393032"><ele>138.0</ele><time>2026-05-01T07:41:38.999Z</time></trkpt><trkpt lat="43.43338770950922" lon="10.759546221526065"><ele>140.0</ele><time>2026-05-01T07:41:39.999Z</time></trkpt><trkpt lat="43.433205683197855" lon="10.759480283652488"><ele>140.0</ele><time>2026-05-01T07:41:40.999Z</time></trkpt><trkpt lat="43.43301644922217" lon="10.759421846513566"><ele>140.0</ele><time>2026-05-01T07:41:41.999Z</time></trkpt><trkpt lat="43.43282573420667" lon="10.759360397483857"><ele>140.0</ele><time>2026-05-01T07:41:42.999Z</time></trkpt><trkpt lat="43.43263655011671" lon="10.759305465757627"><ele>139.33333333333331</ele><time>2026-05-01T07:41:43.999Z</time></trkpt><trkpt lat="43.43245522451849" lon="10.759275291346833"><ele>138.66666666666666</ele><time>2026-05-01T07:41:44.999Z</time></trkpt><trkpt lat="43.432279187729726" lon="10.759266736007127"><ele>138.0</ele><time>2026-05-01T07:41:45.999Z</time></trkpt><trkpt lat="43.432112646466734" lon="10.759275204959682"><ele>139.66666666666666</ele><time>2026-05-01T07:41:46.999Z</time></trkpt><trkpt lat="43.4319325142295" lon="10.759310315002145"><ele>141.33333333333331</ele><time>2026-05-01T07:41:47.999Z</time></trkpt><trkpt lat="43.43173734329293" lon="10.75937494010314"><ele>143.0</ele><time>2026-05-01T07:41:48.999Z</time></trkpt><trkpt lat="43.431527955209205" lon="10.759444703748265"><ele>145.0</ele><time>2026-05-01T07:41:49.999Z</time></trkpt><trkpt lat="43.43132821447104" lon="10.759501797264605"><ele>147.0</ele><time>2026-05-01T07:41:50.999Z</time></trkpt><trkpt lat="43.431141274681565" lon="10.759558325024015"><ele>149.0</ele><time>2026-05-01T07:41:51.999Z</time></trkpt><trkpt lat="43.4309726585799" lon="10.759612593412692"><ele>149.0</ele><time>2026-05-01T07:41:52.999Z</time></trkpt><trkpt lat="43.430815861295784" lon="10.759661223325317"><ele>149.0</ele><time>2026-05-01T07:41:53.999Z</time></trkpt><trkpt lat="43.43066613231608" lon="10.759706631325791"><ele>149.0</ele><time>2026-05-01T07:41:54.999Z</time></trkpt><trkpt lat="43.43051083057113" lon="10.759749765366587"><ele>148.33333333333331</ele><time>2026-05-01T07:41:55.999Z</time></trkpt><trkpt lat="43.43034255886739" lon="10.759777029670815"><ele>147.66666666666666</ele><time>2026-05-01T07:41:56.999Z</time></trkpt><trkpt lat="43.43016245256361" lon="10.759767576902634"><ele>147.0</ele><time>2026-05-01T07:41:57.999Z</time></trkpt><trkpt lat="43.42997825348224" lon="10.759709749479173"><ele>147.0</ele><time>2026-05-01T07:41:58.999Z</time></trkpt><trkpt lat="43.42979870023924" lon="10.759632189351558"><ele>147.0</ele><time>2026-05-01T07:41:59.999Z</time></trkpt><trkpt lat="43.42963331011768" lon="10.759554395210909"><ele>147.0</ele><time>2026-05-01T07:42:00.999Z</time></trkpt><trkpt lat="43.42948615550195" lon="10.75949723290064"><ele>148.66666666666666</ele><time>2026-05-01T07:42:01.999Z</time></trkpt><trkpt lat="43.42934405473242" lon="10.759480237617923"><ele>150.33333333333331</ele><time>2026-05-01T07:42:02.999Z</time></trkpt><trkpt lat="43.429193161947424" lon="10.759508807209313"><ele>152.0</ele><time>2026-05-01T07:42:03.999Z</time></trkpt><trkpt lat="43.429049118345645" lon="10.759587945128272"><ele>152.0</ele><time>2026-05-01T07:42:04.999Z</time></trkpt><trkpt lat="43.42891631992415" lon="10.759715102612317"><ele>152.0</ele><time>2026-05-01T07:42:05.999Z</time></trkpt><trkpt lat="43.42878694689021" lon="10.75987180097997"><ele>152.0</ele><time>2026-05-01T07:42:06.999Z</time></trkpt><trkpt lat="43.428674515762225" lon="10.760019604326956"><ele>153.5</ele><time>2026-05-01T07:42:07.999Z</time></trkpt><trkpt lat="43.428561208575104" lon="10.760143678216748"><ele>155.0</ele><time>2026-05-01T07:42:08.999Z</time></trkpt><trkpt lat="43.428432700590086" lon="10.760227834431365"><ele>156.5</ele><time>2026-05-01T07:42:09.999Z</time></trkpt><trkpt lat="43.42830546773746" lon="10.760270851233441"><ele>158.0</ele><time>2026-05-01T07:42:10.999Z</time></trkpt><trkpt lat="43.42819579281452" lon="10.760289062787564"><ele>158.0</ele><time>2026-05-01T07:42:11.999Z</time></trkpt><trkpt lat="43.42809933507324" lon="10.76032512568596"><ele>158.0</ele><time>2026-05-01T07:42:12.999Z</time></trkpt><trkpt lat="43.428012600011826" lon="10.760404396683404"><ele>158.0</ele><time>2026-05-01T07:42:13.998Z</time></trkpt><trkpt lat="43.427940396361585" lon="10.760527589541852"><ele>158.0</ele><time>2026-05-01T07:42:14.998Z</time></trkpt><trkpt lat="43.42788219738021" lon="10.760666715834727"><ele>158.0</ele><time>2026-05-01T07:42:15.998Z</time></trkpt><trkpt lat="43.427832629018084" lon="10.760818370884373"><ele>156.75</ele><time>2026-05-01T07:42:16.998Z</time></trkpt><trkpt lat="43.4277748541679" lon="10.7609711059288"><ele>155.5</ele><time>2026-05-01T07:42:17.998Z</time></trkpt><trkpt lat="43.42770247586163" lon="10.76111659969472"><ele>154.25</ele><time>2026-05-01T07:42:18.998Z</time></trkpt><trkpt lat="43.427624058087844" lon="10.761257711045781"><ele>153.0</ele><time>2026-05-01T07:42:19.998Z</time></trkpt><trkpt lat="43.42755128469851" lon="10.761408162222233"><ele>153.0</ele><time>2026-05-01T07:42:20.998Z</time></trkpt><trkpt lat="43.42749429604593" lon="10.761557570367358"><ele>153.0</ele><time>2026-05-01T07:42:21.998Z</time></trkpt><trkpt lat="43.427453443334976" lon="10.761718302702908"><ele>153.0</ele><time>2026-05-01T07:42:22.998Z</time></trkpt><trkpt lat="43.42743601775231" lon="10.761894560872191"><ele>153.0</ele><time>2026-05-01T07:42:23.998Z</time></trkpt><trkpt lat="43.42744121006218" lon="10.762069550750894"><ele>153.20000000000002</ele><time>2026-05-01T07:42:24.998Z</time></trkpt><trkpt lat="43.427459138026094" lon="10.762232848562581"><ele>153.4</ele><time>2026-05-01T07:42:25.998Z</time></trkpt><trkpt lat="43.42747814069717" lon="10.762383007075654"><ele>153.60000000000002</ele><time>2026-05-01T07:42:26.998Z</time></trkpt><trkpt lat="43.427486056389114" lon="10.762526782835772"><ele>153.8</ele><time>2026-05-01T07:42:27.998Z</time></trkpt><trkpt lat="43.427462274539565" lon="10.762673366128295"><ele>154.0</ele><time>2026-05-01T07:42:28.998Z</time></trkpt><trkpt lat="43.427392661225625" lon="10.76279557620277"><ele>154.75</ele><time>2026-05-01T07:42:29.998Z</time></trkpt><trkpt lat="43.42729182006191" lon="10.762881702461124"><ele>155.5</ele><time>2026-05-01T07:42:30.998Z</time></trkpt><trkpt lat="43.427182589533984" lon="10.762932647760268"><ele>156.25</ele><time>2026-05-01T07:42:31.998Z</time></trkpt><trkpt lat="43.427074775115834" lon="10.762981769476635"><ele>157.0</ele><time>2026-05-01T07:42:32.998Z</time></trkpt><trkpt lat="43.4269672383428" lon="10.763036871943273"><ele>154.0</ele><time>2026-05-01T07:42:33.998Z</time></trkpt><trkpt lat="43.42686431862184" lon="10.763094709833991"><ele>151.0</ele><time>2026-05-01T07:42:34.998Z</time></trkpt><trkpt lat="43.426776266704415" lon="10.763165013168242"><ele>148.0</ele><time>2026-05-01T07:42:35.998Z</time></trkpt><trkpt lat="43.42669695426257" lon="10.763272314468722"><ele>145.0</ele><time>2026-05-01T07:42:36.998Z</time></trkpt><trkpt lat="43.42663648462142" lon="10.76342735393643"><ele>145.75</ele><time>2026-05-01T07:42:37.998Z</time></trkpt><trkpt lat="43.42659962662139" lon="10.76360072378605"><ele>146.5</ele><time>2026-05-01T07:42:38.998Z</time></trkpt><trkpt lat="43.42658329234268" lon="10.76376684449601"><ele>147.25</ele><time>2026-05-01T07:42:39.998Z</time></trkpt><trkpt lat="43.4265754557233" lon="10.763918400994722"><ele>148.0</ele><time>2026-05-01T07:42:40.998Z</time></trkpt><trkpt lat="43.426540743870795" lon="10.764053830483224"><ele>148.0</ele><time>2026-05-01T07:42:41.998Z</time></trkpt><trkpt lat="43.42646937024195" lon="10.764153643932266"><ele>148.0</ele><time>2026-05-01T07:42:42.998Z</time></trkpt><trkpt lat="43.4263796371408" lon="10.764200136835"><ele>148.0</ele><time>2026-05-01T07:42:43.998Z</time></trkpt><trkpt lat="43.426293232947174" lon="10.764240517814596"><ele>148.0</ele><time>2026-05-01T07:42:44.998Z</time></trkpt><trkpt lat="43.42621763571645" lon="10.764317765821245"><ele>148.0</ele><time>2026-05-01T07:42:45.998Z</time></trkpt><trkpt lat="43.426153932873596" lon="10.764438360385103"><ele>145.0</ele><time>2026-05-01T07:42:46.998Z</time></trkpt><trkpt lat="43.42611198352736" lon="10.764597888904646"><ele>142.0</ele><time>2026-05-01T07:42:47.998Z</time></trkpt><trkpt lat="43.426093450642455" lon="10.76477406425697"><ele>139.0</ele><time>2026-05-01T07:42:48.998Z</time></trkpt><trkpt lat="43.42610077372061" lon="10.764951900259895"><ele>136.0</ele><time>2026-05-01T07:42:49.998Z</time></trkpt><trkpt lat="43.426114655528764" lon="10.765124225598965"><ele>136.0</ele><time>2026-05-01T07:42:50.998Z</time></trkpt><trkpt lat="43.42610769309916" lon="10.76528374484201"><ele>136.0</ele><time>2026-05-01T07:42:51.998Z</time></trkpt><trkpt lat="43.426063504106885" lon="10.765440131283494"><ele>136.0</ele><time>2026-05-01T07:42:52.998Z</time></trkpt><trkpt lat="43.4259825860669" lon="10.765581720492971"><ele>136.0</ele><time>2026-05-01T07:42:53.998Z</time></trkpt><trkpt lat="43.42588127063629" lon="10.765695000100571"><ele>136.0</ele><time>2026-05-01T07:42:54.998Z</time></trkpt><trkpt lat="43.42578196391398" lon="10.765803049155496"><ele>136.0</ele><time>2026-05-01T07:42:55.998Z</time></trkpt><trkpt lat="43.4256887407117" lon="10.765948639648789"><ele>136.0</ele><time>2026-05-01T07:42:56.998Z</time></trkpt><trkpt lat="43.425607119842724" lon="10.76612279235353"><ele>136.0</ele><time>2026-05-01T07:42:57.998Z</time></trkpt><trkpt lat="43.42553197491609" lon="10.766315264420578"><ele>133.66666666666669</ele><time>2026-05-01T07:42:58.998Z</time></trkpt><trkpt lat="43.42546157456824" lon="10.766506673795737"><ele>131.33333333333334</ele><time>2026-05-01T07:42:59.997Z</time></trkpt><trkpt lat="43.42538467829276" lon="10.766724296959056"><ele>129.0</ele><time>2026-05-01T07:43:00.997Z</time></trkpt><trkpt lat="43.42527667949167" lon="10.76696829820726"><ele>129.0</ele><time>2026-05-01T07:43:01.997Z</time></trkpt><trkpt lat="43.42517524652204" lon="10.767229391132688"><ele>129.0</ele><time>2026-05-01T07:43:02.997Z</time></trkpt><trkpt lat="43.425083459927606" lon="10.767465515247673"><ele>129.0</ele><time>2026-05-01T07:43:03.997Z</time></trkpt><trkpt lat="43.42499376999928" lon="10.767706539305625"><ele>127.66666666666666</ele><time>2026-05-01T07:43:04.997Z</time></trkpt><trkpt lat="43.42484349101712" lon="10.767899402931247"><ele>126.33333333333333</ele><time>2026-05-01T07:43:05.997Z</time></trkpt><trkpt lat="43.42468997824638" lon="10.768051912319308"><ele>125.0</ele><time>2026-05-01T07:43:06.997Z</time></trkpt><trkpt lat="43.424549425542466" lon="10.768193545630165"><ele>125.0</ele><time>2026-05-01T07:43:07.997Z</time></trkpt><trkpt lat="43.42441890885397" lon="10.768351450929655"><ele>125.0</ele><time>2026-05-01T07:43:08.997Z</time></trkpt><trkpt lat="43.424299484488955" lon="10.768517077753565"><ele>125.0</ele><time>2026-05-01T07:43:09.997Z</time></trkpt><trkpt lat="43.424196661653625" lon="10.768660199399715"><ele>124.2</ele><time>2026-05-01T07:43:10.997Z</time></trkpt><trkpt lat="43.424110382271024" lon="10.768776723376284"><ele>123.4</ele><time>2026-05-01T07:43:11.997Z</time></trkpt><trkpt lat="43.42403810330243" lon="10.768875349309187"><ele>122.6</ele><time>2026-05-01T07:43:12.997Z</time></trkpt><trkpt lat="43.423985448247166" lon="10.768954137288004"><ele>121.8</ele><time>2026-05-01T07:43:13.997Z</time></trkpt><trkpt lat="43.42393964654724" lon="10.769020980696126"><ele>121.0</ele><time>2026-05-01T07:43:14.997Z</time></trkpt><trkpt lat="43.42388367345655" lon="10.769186866581473"><ele>121.0</ele><time>2026-05-01T07:43:16.997Z</time></trkpt><trkpt lat="43.42389129178101" lon="10.769320733039532"><ele>121.0</ele><time>2026-05-01T07:43:18Z</time></trkpt><trkpt lat="43.42393264173407" lon="10.76947043544891"><ele>121.0</ele><time>2026-05-01T07:43:19Z</time></trkpt><trkpt lat="43.42400348524896" lon="10.769612218036908"><ele>121.0</ele><time>2026-05-01T07:43:20Z</time></trkpt><trkpt lat="43.424094490066835" lon="10.769764126207132"><ele>121.5</ele><time>2026-05-01T07:43:21Z</time></trkpt><trkpt lat="43.424160491634126" lon="10.769937725136458"><ele>122.0</ele><time>2026-05-01T07:43:22Z</time></trkpt><trkpt lat="43.42423432080448" lon="10.77007220336934"><ele>122.5</ele><time>2026-05-01T07:43:23Z</time></trkpt><trkpt lat="43.42427642833956" lon="10.77021855857049"><ele>123.0</ele><time>2026-05-01T07:43:24Z</time></trkpt><trkpt lat="43.4243024040143" lon="10.77036227360573"><ele>124.0</ele><time>2026-05-01T07:43:25Z</time></trkpt><trkpt lat="43.424298543125104" lon="10.770517910427925"><ele>125.0</ele><time>2026-05-01T07:43:26Z</time></trkpt><trkpt lat="43.42425857107028" lon="10.770674705889098"><ele>126.0</ele><time>2026-05-01T07:43:27Z</time></trkpt><trkpt lat="43.42419432117213" lon="10.770821893559651"><ele>127.0</ele><time>2026-05-01T07:43:28Z</time></trkpt><trkpt lat="43.42411632811519" lon="10.770959101736052"><ele>126.5</ele><time>2026-05-01T07:43:29Z</time></trkpt><trkpt lat="43.42403472717595" lon="10.771086393783776"><ele>126.0</ele><time>2026-05-01T07:43:30Z</time></trkpt><trkpt lat="43.42395673169758" lon="10.77121226847424"><ele>125.5</ele><time>2026-05-01T07:43:31Z</time></trkpt><trkpt lat="43.42388618796895" lon="10.77132856810031"><ele>125.0</ele><time>2026-05-01T07:43:32Z</time></trkpt><trkpt lat="43.42382301283233" lon="10.771432275545141"><ele>125.83333333333333</ele><time>2026-05-01T07:43:33Z</time></trkpt><trkpt lat="43.42376356621269" lon="10.771513846736562"><ele>126.66666666666666</ele><time>2026-05-01T07:43:34Z</time></trkpt><trkpt lat="43.42370490798654" lon="10.771584599937782"><ele>127.5</ele><time>2026-05-01T07:43:35Z</time></trkpt><trkpt lat="43.42364268167777" lon="10.771630008862896"><ele>128.33333333333334</ele><time>2026-05-01T07:43:36Z</time></trkpt><trkpt lat="43.42358450421867" lon="10.771681482524961"><ele>129.16666666666669</ele><time>2026-05-01T07:43:37Z</time></trkpt><trkpt lat="43.42349004490505" lon="10.771765400993328"><ele>130.0</ele><time>2026-05-01T07:43:39Z</time></trkpt><trkpt lat="43.423428619807126" lon="10.771808232917435"><ele>128.8</ele><time>2026-05-01T07:43:40.999Z</time></trkpt><trkpt lat="43.42335458842106" lon="10.771887938777143"><ele>127.6</ele><time>2026-05-01T07:43:49.999Z</time></trkpt><trkpt lat="43.423268431033385" lon="10.772028494330359"><ele>126.4</ele><time>2026-05-01T07:43:51.999Z</time></trkpt><trkpt lat="43.42323930562848" lon="10.772136810948444"><ele>125.2</ele><time>2026-05-01T07:43:52.999Z</time></trkpt><trkpt lat="43.42323444302525" lon="10.772275511138263"><ele>124.0</ele><time>2026-05-01T07:43:53.999Z</time></trkpt><trkpt lat="43.42325635368703" lon="10.772415812434176"><ele>124.0</ele><time>2026-05-01T07:43:54.999Z</time></trkpt><trkpt lat="43.42328706164589" lon="10.772545635128882"><ele>124.0</ele><time>2026-05-01T07:43:55.999Z</time></trkpt><trkpt lat="43.42329159855362" lon="10.77268818280121"><ele>124.0</ele><time>2026-05-01T07:43:56.999Z</time></trkpt><trkpt lat="43.4232492087448" lon="10.77284816476878"><ele>124.0</ele><time>2026-05-01T07:43:57.999Z</time></trkpt><trkpt lat="43.42316123939662" lon="10.773006977669429"><ele>124.0</ele><time>2026-05-01T07:43:58.999Z</time></trkpt><trkpt lat="43.42304704308289" lon="10.773150183133673"><ele>124.0</ele><time>2026-05-01T07:43:59.999Z</time></trkpt><trkpt lat="43.42291983364929" lon="10.773289460520072"><ele>124.0</ele><time>2026-05-01T07:44:00.999Z</time></trkpt><trkpt lat="43.42278527919761" lon="10.773440886447297"><ele>124.66666666666667</ele><time>2026-05-01T07:44:01.999Z</time></trkpt><trkpt lat="43.42265834933599" lon="10.773581894954386"><ele>125.33333333333334</ele><time>2026-05-01T07:44:02.999Z</time></trkpt><trkpt lat="43.42254167158846" lon="10.773713048420408"><ele>126.0</ele><time>2026-05-01T07:44:03.999Z</time></trkpt><trkpt lat="43.422421524521646" lon="10.773846007531205"><ele>126.0</ele><time>2026-05-01T07:44:04.999Z</time></trkpt><trkpt lat="43.42229191104045" lon="10.773974739210988"><ele>126.0</ele><time>2026-05-01T07:44:05.999Z</time></trkpt><trkpt lat="43.42214225049577" lon="10.774059983335048"><ele>126.0</ele><time>2026-05-01T07:44:06.999Z</time></trkpt><trkpt lat="43.42196986461232" lon="10.774050026770565"><ele>127.0</ele><time>2026-05-01T07:44:07.999Z</time></trkpt><trkpt lat="43.42178597114476" lon="10.774016650421691"><ele>128.0</ele><time>2026-05-01T07:44:08.999Z</time></trkpt><trkpt lat="43.42158563790685" lon="10.773991859707007"><ele>129.0</ele><time>2026-05-01T07:44:09.999Z</time></trkpt><trkpt lat="43.421371234551124" lon="10.77395580669331"><ele>129.66666666666666</ele><time>2026-05-01T07:44:10.999Z</time></trkpt><trkpt lat="43.42115655639457" lon="10.773924362378953"><ele>130.33333333333331</ele><time>2026-05-01T07:44:11.999Z</time></trkpt><trkpt lat="43.42093645068863" lon="10.773884718650594"><ele>131.0</ele><time>2026-05-01T07:44:12.999Z</time></trkpt><trkpt lat="43.4207086671194" lon="10.773829647625655"><ele>130.0</ele><time>2026-05-01T07:44:13.999Z</time></trkpt><trkpt lat="43.42047628795386" lon="10.773765188312973"><ele>129.0</ele><time>2026-05-01T07:44:14.999Z</time></trkpt><trkpt lat="43.420244327286106" lon="10.773695561009772"><ele>129.0</ele><time>2026-05-01T07:44:15.999Z</time></trkpt><trkpt lat="43.420013460838284" lon="10.773622148351913"><ele>129.0</ele><time>2026-05-01T07:44:16.999Z</time></trkpt><trkpt lat="43.41978221240052" lon="10.773554133525508"><ele>128.5</ele><time>2026-05-01T07:44:17.999Z</time></trkpt><trkpt lat="43.41955311815937" lon="10.773486489083231"><ele>128.0</ele><time>2026-05-01T07:44:18.999Z</time></trkpt><trkpt lat="43.41932428849808" lon="10.773411905801026"><ele>128.0</ele><time>2026-05-01T07:44:19.999Z</time></trkpt><trkpt lat="43.41909842118118" lon="10.773336462657914"><ele>128.0</ele><time>2026-05-01T07:44:20.999Z</time></trkpt><trkpt lat="43.41887450953593" lon="10.773268665040348"><ele>129.0</ele><time>2026-05-01T07:44:21.999Z</time></trkpt><trkpt lat="43.41865291876896" lon="10.77320478282631"><ele>130.0</ele><time>2026-05-01T07:44:22.999Z</time></trkpt><trkpt lat="43.41843466395504" lon="10.773137450087425"><ele>130.0</ele><time>2026-05-01T07:44:23.999Z</time></trkpt><trkpt lat="43.41822095241993" lon="10.773068544420036"><ele>130.0</ele><time>2026-05-01T07:44:24.998Z</time></trkpt><trkpt lat="43.41800577545238" lon="10.773000735911063"><ele>130.0</ele><time>2026-05-01T07:44:25.998Z</time></trkpt><trkpt lat="43.41779320170226" lon="10.772934209165998"><ele>130.33333333333334</ele><time>2026-05-01T07:44:26.998Z</time></trkpt><trkpt lat="43.417592719490855" lon="10.772870320335288"><ele>130.66666666666666</ele><time>2026-05-01T07:44:27.998Z</time></trkpt><trkpt lat="43.41741276269212" lon="10.772814293071344"><ele>131.0</ele><time>2026-05-01T07:44:28.998Z</time></trkpt><trkpt lat="43.41725886653129" lon="10.772766829019654"><ele>131.5</ele><time>2026-05-01T07:44:29.998Z</time></trkpt><trkpt lat="43.41711684062514" lon="10.772728096559788"><ele>132.0</ele><time>2026-05-01T07:44:30.998Z</time></trkpt><trkpt lat="43.41697610939767" lon="10.77271008878873"><ele>132.5</ele><time>2026-05-01T07:44:31.998Z</time></trkpt><trkpt lat="43.416823548550575" lon="10.772732499894687"><ele>133.0</ele><time>2026-05-01T07:44:32.998Z</time></trkpt><trkpt lat="43.4166772145553" lon="10.77280049433431"><ele>133.0</ele><time>2026-05-01T07:44:33.998Z</time></trkpt><trkpt lat="43.41656004042365" lon="10.772909442974118"><ele>133.0</ele><time>2026-05-01T07:44:34.998Z</time></trkpt><trkpt lat="43.416451530544435" lon="10.773072771218244"><ele>133.0</ele><time>2026-05-01T07:44:35.998Z</time></trkpt><trkpt lat="43.416359165983714" lon="10.773258467450718"><ele>132.66666666666669</ele><time>2026-05-01T07:44:36.998Z</time></trkpt><trkpt lat="43.416271462796615" lon="10.773434812757708"><ele>132.33333333333334</ele><time>2026-05-01T07:44:37.998Z</time></trkpt><trkpt lat="43.41614784636133" lon="10.773596781843104"><ele>132.0</ele><time>2026-05-01T07:44:38.998Z</time></trkpt><trkpt lat="43.41598554675271" lon="10.773725693801659"><ele>132.0</ele><time>2026-05-01T07:44:39.998Z</time></trkpt><trkpt lat="43.41578729645269" lon="10.773798704208506"><ele>132.0</ele><time>2026-05-01T07:44:40.998Z</time></trkpt><trkpt lat="43.41560272834555" lon="10.77388990453579"><ele>132.0</ele><time>2026-05-01T07:44:41.998Z</time></trkpt><trkpt lat="43.4154258401754" lon="10.773959446310906"><ele>133.33333333333334</ele><time>2026-05-01T07:44:42.998Z</time></trkpt><trkpt lat="43.41525021882576" lon="10.77403669828595"><ele>134.66666666666669</ele><time>2026-05-01T07:44:43.998Z</time></trkpt><trkpt lat="43.41509070656797" lon="10.774106107588286"><ele>136.0</ele><time>2026-05-01T07:44:44.998Z</time></trkpt><trkpt lat="43.414936384011064" lon="10.774177572068615"><ele>136.0</ele><time>2026-05-01T07:44:45.998Z</time></trkpt><trkpt lat="43.41479295222175" lon="10.774240369280632"><ele>136.0</ele><time>2026-05-01T07:44:46.998Z</time></trkpt><trkpt lat="43.41463923106559" lon="10.774275974809832"><ele>136.0</ele><time>2026-05-01T07:44:47.998Z</time></trkpt><trkpt lat="43.41447687462662" lon="10.774247122399073"><ele>136.33333333333334</ele><time>2026-05-01T07:44:48.998Z</time></trkpt><trkpt lat="43.414318774489146" lon="10.774131978313875"><ele>136.66666666666666</ele><time>2026-05-01T07:44:49.998Z</time></trkpt><trkpt lat="43.41413965851215" lon="10.774020114396922"><ele>137.0</ele><time>2026-05-01T07:44:50.998Z</time></trkpt><trkpt lat="43.41394977136575" lon="10.773871815392608"><ele>136.5</ele><time>2026-05-01T07:44:51.998Z</time></trkpt><trkpt lat="43.41374249758409" lon="10.773717870176455"><ele>136.0</ele><time>2026-05-01T07:44:52.998Z</time></trkpt><trkpt lat="43.41354766196723" lon="10.77357585089058"><ele>138.0</ele><time>2026-05-01T07:44:53.998Z</time></trkpt><trkpt lat="43.41337245335772" lon="10.773452237700942"><ele>140.0</ele><time>2026-05-01T07:44:54.998Z</time></trkpt><trkpt lat="43.41321796577807" lon="10.773348595295255"><ele>142.0</ele><time>2026-05-01T07:44:55.998Z</time></trkpt><trkpt lat="43.41307300004555" lon="10.77327162635077"><ele>141.25</ele><time>2026-05-01T07:44:56.998Z</time></trkpt><trkpt lat="43.41293368946495" lon="10.773216140244859"><ele>140.5</ele><time>2026-05-01T07:44:57.998Z</time></trkpt><trkpt lat="43.41280213409605" lon="10.773165329736559"><ele>139.75</ele><time>2026-05-01T07:44:58.998Z</time></trkpt><trkpt lat="43.412678885227635" lon="10.773130251505236"><ele>139.0</ele><time>2026-05-01T07:44:59.998Z</time></trkpt><trkpt lat="43.41254838712798" lon="10.773147531040538"><ele>139.0</ele><time>2026-05-01T07:45:00.998Z</time></trkpt><trkpt lat="43.41241675644473" lon="10.773227919935369"><ele>139.0</ele><time>2026-05-01T07:45:01.998Z</time></trkpt><trkpt lat="43.412298531987105" lon="10.773361894136253"><ele>139.0</ele><time>2026-05-01T07:45:02.998Z</time></trkpt><trkpt lat="43.41217159715545" lon="10.773507058212848"><ele>138.33333333333334</ele><time>2026-05-01T07:45:03.998Z</time></trkpt><trkpt lat="43.412016539278305" lon="10.773606355295046"><ele>137.66666666666666</ele><time>2026-05-01T07:45:04.998Z</time></trkpt><trkpt lat="43.41185915112713" lon="10.773686798945425"><ele>137.0</ele><time>2026-05-01T07:45:05.998Z</time></trkpt><trkpt lat="43.41170141439981" lon="10.773751786909388"><ele>137.0</ele><time>2026-05-01T07:45:06.998Z</time></trkpt><trkpt lat="43.41153283205843" lon="10.773763685417123"><ele>137.0</ele><time>2026-05-01T07:45:07.998Z</time></trkpt><trkpt lat="43.41135704814631" lon="10.773709604502937"><ele>137.0</ele><time>2026-05-01T07:45:08.998Z</time></trkpt><trkpt lat="43.41117974099879" lon="10.773644503871765"><ele>137.66666666666666</ele><time>2026-05-01T07:45:09.998Z</time></trkpt><trkpt lat="43.410988687913445" lon="10.77362130165317"><ele>138.33333333333334</ele><time>2026-05-01T07:45:10.998Z</time></trkpt><trkpt lat="43.4108104222887" lon="10.773639699313897"><ele>139.0</ele><time>2026-05-01T07:45:11.997Z</time></trkpt><trkpt lat="43.41064660048662" lon="10.773657141713596"><ele>139.0</ele><time>2026-05-01T07:45:12.997Z</time></trkpt><trkpt lat="43.41048549982599" lon="10.773640916672669"><ele>139.0</ele><time>2026-05-01T07:45:13.997Z</time></trkpt><trkpt lat="43.410342698634174" lon="10.77359140544173"><ele>139.0</ele><time>2026-05-01T07:45:14.997Z</time></trkpt><trkpt lat="43.41022010794209" lon="10.77352290175674"><ele>139.0</ele><time>2026-05-01T07:45:15.997Z</time></trkpt><trkpt lat="43.41010330430903" lon="10.77346252663859"><ele>139.0</ele><time>2026-05-01T07:45:16.997Z</time></trkpt><trkpt lat="43.40998534032451" lon="10.77345989352164"><ele>139.0</ele><time>2026-05-01T07:45:17.997Z</time></trkpt><trkpt lat="43.40986333933306" lon="10.773514662338048"><ele>139.0</ele><time>2026-05-01T07:45:18.997Z</time></trkpt><trkpt lat="43.409758386561194" lon="10.773624848249394"><ele>139.0</ele><time>2026-05-01T07:45:19.997Z</time></trkpt><trkpt lat="43.40968233317258" lon="10.773778978286847"><ele>140.25</ele><time>2026-05-01T07:45:20.997Z</time></trkpt><trkpt lat="43.409635905304924" lon="10.773973155526395"><ele>141.5</ele><time>2026-05-01T07:45:21.997Z</time></trkpt><trkpt lat="43.409606499948964" lon="10.774169077087915"><ele>142.75</ele><time>2026-05-01T07:45:22.997Z</time></trkpt><trkpt lat="43.40955343630231" lon="10.77436892056201"><ele>144.0</ele><time>2026-05-01T07:45:24Z</time></trkpt><trkpt lat="43.409461167971216" lon="10.7745567288932"><ele>144.0</ele><time>2026-05-01T07:45:25Z</time></trkpt><trkpt lat="43.40933474062734" lon="10.77471703593379"><ele>144.0</ele><time>2026-05-01T07:45:26Z</time></trkpt><trkpt lat="43.409205864615984" lon="10.774831683168518"><ele>144.0</ele><time>2026-05-01T07:45:27Z</time></trkpt><trkpt lat="43.40908760374164" lon="10.774923206567797"><ele>144.0</ele><time>2026-05-01T07:45:28Z</time></trkpt><trkpt lat="43.40895273242285" lon="10.775020359880855"><ele>144.0</ele><time>2026-05-01T07:45:29Z</time></trkpt><trkpt lat="43.40878923310227" lon="10.775120477050748"><ele>144.0</ele><time>2026-05-01T07:45:30Z</time></trkpt><trkpt lat="43.408609690720134" lon="10.775213379094545"><ele>143.33333333333334</ele><time>2026-05-01T07:45:31Z</time></trkpt><trkpt lat="43.40842144513761" lon="10.775286265054701"><ele>142.66666666666669</ele><time>2026-05-01T07:45:32Z</time></trkpt><trkpt lat="43.40823627017459" lon="10.775348374615676"><ele>142.0</ele><time>2026-05-01T07:45:33Z</time></trkpt><trkpt lat="43.408047472880824" lon="10.775393813812183"><ele>143.0</ele><time>2026-05-01T07:45:34Z</time></trkpt><trkpt lat="43.40785803259945" lon="10.775420186709312"><ele>144.0</ele><time>2026-05-01T07:45:35Z</time></trkpt><trkpt lat="43.40766657292487" lon="10.775422729278898"><ele>145.0</ele><time>2026-05-01T07:45:36Z</time></trkpt><trkpt lat="43.407479166023506" lon="10.77541278435664"><ele>145.0</ele><time>2026-05-01T07:45:37Z</time></trkpt><trkpt lat="43.40729760246292" lon="10.775421955701754"><ele>145.0</ele><time>2026-05-01T07:45:38Z</time></trkpt><trkpt lat="43.40711206808494" lon="10.775475634230103"><ele>145.0</ele><time>2026-05-01T07:45:39Z</time></trkpt><trkpt lat="43.40693627433368" lon="10.775555939392701"><ele>145.33333333333334</ele><time>2026-05-01T07:45:40Z</time></trkpt><trkpt lat="43.40676468013408" lon="10.775583322741518"><ele>145.66666666666666</ele><time>2026-05-01T07:45:41Z</time></trkpt><trkpt lat="43.406578702660795" lon="10.77558165201546"><ele>146.0</ele><time>2026-05-01T07:45:42Z</time></trkpt><trkpt lat="43.406381066063254" lon="10.77556617580755"><ele>145.66666666666666</ele><time>2026-05-01T07:45:43Z</time></trkpt><trkpt lat="43.40618263387883" lon="10.77549734200562"><ele>145.33333333333334</ele><time>2026-05-01T07:45:44Z</time></trkpt><trkpt lat="43.40598639606658" lon="10.775381250583122"><ele>145.0</ele><time>2026-05-01T07:45:45Z</time></trkpt><trkpt lat="43.405775761317344" lon="10.775294404607747"><ele>146.66666666666669</ele><time>2026-05-01T07:45:46Z</time></trkpt><trkpt lat="43.40556617175617" lon="10.775183995200292"><ele>148.33333333333334</ele><time>2026-05-01T07:45:47Z</time></trkpt><trkpt lat="43.40536237621696" lon="10.77507977829722"><ele>150.0</ele><time>2026-05-01T07:45:48Z</time></trkpt><trkpt lat="43.40516715545959" lon="10.774977106618447"><ele>150.0</ele><time>2026-05-01T07:45:49Z</time></trkpt><trkpt lat="43.40497353992341" lon="10.774877509034868"><ele>150.0</ele><time>2026-05-01T07:45:50Z</time></trkpt><trkpt lat="43.40478781460726" lon="10.774779553164633"><ele>150.0</ele><time>2026-05-01T07:45:51Z</time></trkpt><trkpt lat="43.404615469833566" lon="10.774694007946934"><ele>150.0</ele><time>2026-05-01T07:45:52Z</time></trkpt><trkpt lat="43.40444174389597" lon="10.774627585554065"><ele>150.0</ele><time>2026-05-01T07:45:53Z</time></trkpt><trkpt lat="43.40425993529895" lon="10.77459348271465"><ele>150.0</ele><time>2026-05-01T07:45:54Z</time></trkpt><trkpt lat="43.404079062606996" lon="10.774601492776776"><ele>150.0</ele><time>2026-05-01T07:45:54.999Z</time></trkpt><trkpt lat="43.403905036143286" lon="10.774658421334635"><ele>150.0</ele><time>2026-05-01T07:45:55.999Z</time></trkpt><trkpt lat="43.40373647899811" lon="10.774765485955418"><ele>150.0</ele><time>2026-05-01T07:45:56.999Z</time></trkpt><trkpt lat="43.4035721245547" lon="10.774891406976362"><ele>151.0</ele><time>2026-05-01T07:45:57.999Z</time></trkpt><trkpt lat="43.40340186994179" lon="10.774982157710042"><ele>152.0</ele><time>2026-05-01T07:45:58.999Z</time></trkpt><trkpt lat="43.40324554700762" lon="10.775098526034254"><ele>153.0</ele><time>2026-05-01T07:45:59.999Z</time></trkpt><trkpt lat="43.403086548301765" lon="10.775192567178719"><ele>154.66666666666666</ele><time>2026-05-01T07:46:00.999Z</time></trkpt><trkpt lat="43.40293911770754" lon="10.775284509521164"><ele>156.33333333333331</ele><time>2026-05-01T07:46:01.999Z</time></trkpt><trkpt lat="43.402804383640536" lon="10.77536819490906"><ele>158.0</ele><time>2026-05-01T07:46:02.999Z</time></trkpt><trkpt lat="43.40266905290918" lon="10.775456408467264"><ele>158.0</ele><time>2026-05-01T07:46:03.999Z</time></trkpt><trkpt lat="43.40254826888144" lon="10.775562898586232"><ele>158.0</ele><time>2026-05-01T07:46:04.999Z</time></trkpt><trkpt lat="43.40244900819447" lon="10.775712603989259"><ele>158.0</ele><time>2026-05-01T07:46:05.999Z</time></trkpt><trkpt lat="43.40237809229771" lon="10.775898564375508"><ele>158.0</ele><time>2026-05-01T07:46:06.999Z</time></trkpt><trkpt lat="43.40234106602483" lon="10.776119041058982"><ele>158.0</ele><time>2026-05-01T07:46:07.999Z</time></trkpt><trkpt lat="43.402328282536466" lon="10.776373751917633"><ele>158.0</ele><time>2026-05-01T07:46:08.999Z</time></trkpt><trkpt lat="43.402307375644305" lon="10.776655053329211"><ele>158.0</ele><time>2026-05-01T07:46:09.999Z</time></trkpt><trkpt lat="43.402250936836424" lon="10.776930861518018"><ele>157.33333333333331</ele><time>2026-05-01T07:46:10.999Z</time></trkpt><trkpt lat="43.40217099771365" lon="10.777208359191645"><ele>156.66666666666666</ele><time>2026-05-01T07:46:11.999Z</time></trkpt><trkpt lat="43.40209868994144" lon="10.777477475259676"><ele>156.0</ele><time>2026-05-01T07:46:12.999Z</time></trkpt><trkpt lat="43.402050819838664" lon="10.777756622506256"><ele>159.33333333333334</ele><time>2026-05-01T07:46:13.999Z</time></trkpt><trkpt lat="43.4020197057275" lon="10.77803655363529"><ele>162.66666666666669</ele><time>2026-05-01T07:46:14.999Z</time></trkpt><trkpt lat="43.40200330441035" lon="10.778321714457846"><ele>166.0</ele><time>2026-05-01T07:46:15.999Z</time></trkpt><trkpt lat="43.402006101231635" lon="10.778602903185574"><ele>166.0</ele><time>2026-05-01T07:46:16.999Z</time></trkpt><trkpt lat="43.4020175905238" lon="10.77888073340134"><ele>166.0</ele><time>2026-05-01T07:46:17.999Z</time></trkpt><trkpt lat="43.40202972193246" lon="10.779153972249148"><ele>166.0</ele><time>2026-05-01T07:46:18.999Z</time></trkpt><trkpt lat="43.402039610250895" lon="10.779415598717776"><ele>166.0</ele><time>2026-05-01T07:46:19.999Z</time></trkpt><trkpt lat="43.40204918079324" lon="10.779675873456709"><ele>166.0</ele><time>2026-05-01T07:46:20.999Z</time></trkpt><trkpt lat="43.40205260852664" lon="10.779935301450248"><ele>166.0</ele><time>2026-05-01T07:46:21.999Z</time></trkpt><trkpt lat="43.402036272132875" lon="10.78019632219774"><ele>165.66666666666669</ele><time>2026-05-01T07:46:22.999Z</time></trkpt><trkpt lat="43.40200447167074" lon="10.780452382720847"><ele>165.33333333333334</ele><time>2026-05-01T07:46:23.999Z</time></trkpt><trkpt lat="43.4019662869528" lon="10.780706303375688"><ele>165.0</ele><time>2026-05-01T07:46:24.999Z</time></trkpt><trkpt lat="43.40192871439348" lon="10.780956042175557"><ele>165.0</ele><time>2026-05-01T07:46:25.999Z</time></trkpt><trkpt lat="43.401896498624225" lon="10.781206692633251"><ele>165.0</ele><time>2026-05-01T07:46:26.999Z</time></trkpt><trkpt lat="43.40187387602537" lon="10.781453793224896"><ele>165.0</ele><time>2026-05-01T07:46:27.999Z</time></trkpt><trkpt lat="43.40186280247127" lon="10.781699507987769"><ele>164.66666666666666</ele><time>2026-05-01T07:46:28.999Z</time></trkpt><trkpt lat="43.40186712120113" lon="10.781945305755599"><ele>164.33333333333331</ele><time>2026-05-01T07:46:29.999Z</time></trkpt><trkpt lat="43.4018857133795" lon="10.782184116474697"><ele>164.0</ele><time>2026-05-01T07:46:30.999Z</time></trkpt><trkpt lat="43.40190561497464" lon="10.78239030734332"><ele>164.0</ele><time>2026-05-01T07:46:31.999Z</time></trkpt><trkpt lat="43.401924195528515" lon="10.782561024644634"><ele>164.0</ele><time>2026-05-01T07:46:32.999Z</time></trkpt><trkpt lat="43.40193833522997" lon="10.782698252193688"><ele>164.0</ele><time>2026-05-01T07:46:33.999Z</time></trkpt><trkpt lat="43.40194100293688" lon="10.782814518916545"><ele>164.0</ele><time>2026-05-01T07:46:34.999Z</time></trkpt><trkpt lat="43.401901009527016" lon="10.782964630654982"><ele>164.0</ele><time>2026-05-01T07:46:36.999Z</time></trkpt><trkpt lat="43.40187995231234" lon="10.783079013519611"><ele>163.5</ele><time>2026-05-01T07:46:39.999Z</time></trkpt><trkpt lat="43.401915470432634" lon="10.78316368088625"><ele>163.0</ele><time>2026-05-01T07:46:42.998Z</time></trkpt><trkpt lat="43.40185996450875" lon="10.783247925949816"><ele>162.5</ele><time>2026-05-01T07:51:56Z</time></trkpt><trkpt lat="43.401808282278054" lon="10.783324401452221"><ele>162.0</ele><time>2026-05-01T07:51:59Z</time></trkpt><trkpt lat="43.40176554881739" lon="10.783407365698801"><ele>161.5</ele><time>2026-05-01T07:52:02Z</time></trkpt><trkpt lat="43.401804837437524" lon="10.783505044564647"><ele>161.0</ele><time>2026-05-01T07:52:27Z</time></trkpt><trkpt lat="43.40188190548691" lon="10.783535672104708"><ele>160.5</ele><time>2026-05-01T07:52:30Z</time></trkpt><trkpt lat="43.401960228444054" lon="10.783531843554863"><ele>160.0</ele><time>2026-05-01T07:59:23.998Z</time></trkpt><trkpt lat="43.40201702318748" lon="10.783572477858607"><ele>159.5</ele><time>2026-05-01T07:59:27.998Z</time></trkpt><trkpt lat="43.402035292523024" lon="10.783762010848342"><ele>159.0</ele><time>2026-05-01T07:59:29.998Z</time></trkpt><trkpt lat="43.4020416046317" lon="10.783863323870142"><ele>158.5</ele><time>2026-05-01T07:59:30.998Z</time></trkpt><trkpt lat="43.4020546301356" lon="10.783981241146458"><ele>158.0</ele><time>2026-05-01T07:59:31.998Z</time></trkpt><trkpt lat="43.40207491463368" lon="10.784118695072236"><ele>158.0</ele><time>2026-05-01T07:59:32.998Z</time></trkpt><trkpt lat="43.40209437500588" lon="10.784257253594685"><ele>158.0</ele><time>2026-05-01T07:59:33.998Z</time></trkpt><trkpt lat="43.402126088074034" lon="10.784407545226717"><ele>158.0</ele><time>2026-05-01T07:59:34.998Z</time></trkpt><trkpt lat="43.402160302376785" lon="10.784577753286621"><ele>158.0</ele><time>2026-05-01T07:59:35.998Z</time></trkpt><trkpt lat="43.402204900629236" lon="10.784780121298938"><ele>160.0</ele><time>2026-05-01T07:59:36.998Z</time></trkpt><trkpt lat="43.40227022287554" lon="10.785044963191353"><ele>162.0</ele><time>2026-05-01T07:59:37.998Z</time></trkpt><trkpt lat="43.40234330851901" lon="10.785328642035207"><ele>164.0</ele><time>2026-05-01T07:59:38.998Z</time></trkpt><trkpt lat="43.40241995794777" lon="10.785640714984815"><ele>164.0</ele><time>2026-05-01T07:59:39.998Z</time></trkpt><trkpt lat="43.40249143442827" lon="10.785935815219133"><ele>164.0</ele><time>2026-05-01T07:59:40.998Z</time></trkpt><trkpt lat="43.40255816579973" lon="10.786194199617505"><ele>164.0</ele><time>2026-05-01T07:59:41.998Z</time></trkpt><trkpt lat="43.40262061572685" lon="10.786431198997889"><ele>164.66666666666666</ele><time>2026-05-01T07:59:42.998Z</time></trkpt><trkpt lat="43.40267703715015" lon="10.786660189440518"><ele>165.33333333333334</ele><time>2026-05-01T07:59:43.998Z</time></trkpt><trkpt lat="43.40272953516386" lon="10.78687797298533"><ele>166.0</ele><time>2026-05-01T07:59:44.998Z</time></trkpt><trkpt lat="43.40278077847881" lon="10.787086653920413"><ele>166.5</ele><time>2026-05-01T07:59:45.998Z</time></trkpt><trkpt lat="43.402830784143354" lon="10.787291035324968"><ele>167.0</ele><time>2026-05-01T07:59:46.998Z</time></trkpt><trkpt lat="43.40287212323181" lon="10.787488818799481"><ele>167.5</ele><time>2026-05-01T07:59:47.998Z</time></trkpt><trkpt lat="43.40289210209746" lon="10.787673354046206"><ele>168.0</ele><time>2026-05-01T07:59:48.998Z</time></trkpt><trkpt lat="43.40289148212416" lon="10.787864191618842"><ele>170.33333333333334</ele><time>2026-05-01T07:59:49.998Z</time></trkpt><trkpt lat="43.40285782364844" lon="10.78806118378028"><ele>172.66666666666669</ele><time>2026-05-01T07:59:50.998Z</time></trkpt><trkpt lat="43.402797040058964" lon="10.788252525937766"><ele>175.0</ele><time>2026-05-01T07:59:51.998Z</time></trkpt><trkpt lat="43.40270440475914" lon="10.788426384763715"><ele>177.0</ele><time>2026-05-01T07:59:52.997Z</time></trkpt><trkpt lat="43.40259413694532" lon="10.788585896921862"><ele>179.0</ele><time>2026-05-01T07:59:53.997Z</time></trkpt><trkpt lat="43.40248301803262" lon="10.788742841087405"><ele>181.0</ele><time>2026-05-01T07:59:54.997Z</time></trkpt><trkpt lat="43.402370071079076" lon="10.788897959364256"><ele>181.0</ele><time>2026-05-01T07:59:55.997Z</time></trkpt><trkpt lat="43.402246598250194" lon="10.789020066694146"><ele>181.0</ele><time>2026-05-01T07:59:56.997Z</time></trkpt><trkpt lat="43.40211596518449" lon="10.789100602789224"><ele>181.0</ele><time>2026-05-01T07:59:57.997Z</time></trkpt><trkpt lat="43.40197780765762" lon="10.789150559672802"><ele>181.0</ele><time>2026-05-01T07:59:58.997Z</time></trkpt><trkpt lat="43.4018280270234" lon="10.789124066812942"><ele>178.75</ele><time>2026-05-01T07:59:59.997Z</time></trkpt><trkpt lat="43.40168380329808" lon="10.78910323137534"><ele>176.5</ele><time>2026-05-01T08:00:00.997Z</time></trkpt><trkpt lat="43.401552897581084" lon="10.78904860875503"><ele>174.25</ele><time>2026-05-01T08:00:01.997Z</time></trkpt><trkpt lat="43.401431558381894" lon="10.789011480246279"><ele>172.0</ele><time>2026-05-01T08:00:02.997Z</time></trkpt><trkpt lat="43.40131602794782" lon="10.789012241834687"><ele>169.0</ele><time>2026-05-01T08:00:04Z</time></trkpt><trkpt lat="43.40121554710368" lon="10.789058163891397"><ele>166.0</ele><time>2026-05-01T08:00:05Z</time></trkpt><trkpt lat="43.40113183871216" lon="10.789135199341448"><ele>163.0</ele><time>2026-05-01T08:00:06Z</time></trkpt><trkpt lat="43.40107373987652" lon="10.78924359956606"><ele>160.0</ele><time>2026-05-01T08:00:07Z</time></trkpt><trkpt lat="43.401037943717334" lon="10.789382430873836"><ele>157.0</ele><time>2026-05-01T08:00:08Z</time></trkpt><trkpt lat="43.40103271616476" lon="10.789537690795711"><ele>156.0</ele><time>2026-05-01T08:00:09Z</time></trkpt><trkpt lat="43.40106162773251" lon="10.78968045131501"><ele>155.0</ele><time>2026-05-01T08:00:10Z</time></trkpt><trkpt lat="43.40110785839329" lon="10.789812007379963"><ele>154.0</ele><time>2026-05-01T08:00:11Z</time></trkpt><trkpt lat="43.40116379878918" lon="10.789926440624027"><ele>153.0</ele><time>2026-05-01T08:00:12Z</time></trkpt><trkpt lat="43.40122150055845" lon="10.790039473746175"><ele>152.0</ele><time>2026-05-01T08:00:13Z</time></trkpt><trkpt lat="43.40128061249291" lon="10.790143290101678"><ele>153.33333333333331</ele><time>2026-05-01T08:00:14Z</time></trkpt><trkpt lat="43.40133970619372" lon="10.790241926831202"><ele>154.66666666666666</ele><time>2026-05-01T08:00:15Z</time></trkpt><trkpt lat="43.40139521579094" lon="10.790336190224696"><ele>156.0</ele><time>2026-05-01T08:00:16Z</time></trkpt><trkpt lat="43.40144409225139" lon="10.790433809376232"><ele>157.33333333333334</ele><time>2026-05-01T08:00:17Z</time></trkpt><trkpt lat="43.401478232639946" lon="10.79054194825811"><ele>158.66666666666669</ele><time>2026-05-01T08:00:18Z</time></trkpt><trkpt lat="43.40149288188542" lon="10.790668867907348"><ele>160.0</ele><time>2026-05-01T08:00:19Z</time></trkpt><trkpt lat="43.401474038721595" lon="10.790805480346602"><ele>160.0</ele><time>2026-05-01T08:00:20Z</time></trkpt><trkpt lat="43.40141714662388" lon="10.790919444176792"><ele>160.0</ele><time>2026-05-01T08:00:21Z</time></trkpt><trkpt lat="43.40134728469658" lon="10.7910042149006"><ele>160.0</ele><time>2026-05-01T08:00:22Z</time></trkpt><trkpt lat="43.40126959030099" lon="10.791070260079692"><ele>160.0</ele><time>2026-05-01T08:00:23Z</time></trkpt><trkpt lat="43.40119157023251" lon="10.791139635266115"><ele>160.0</ele><time>2026-05-01T08:00:24Z</time></trkpt><trkpt lat="43.40110101824258" lon="10.79118969013553"><ele>158.0</ele><time>2026-05-01T08:00:25Z</time></trkpt><trkpt lat="43.40101342097566" lon="10.791238832146659"><ele>156.0</ele><time>2026-05-01T08:00:26Z</time></trkpt><trkpt lat="43.40092593102687" lon="10.791299227590908"><ele>154.0</ele><time>2026-05-01T08:00:27Z</time></trkpt><trkpt lat="43.40083066327742" lon="10.7913310279572"><ele>152.0</ele><time>2026-05-01T08:00:28Z</time></trkpt><trkpt lat="43.4007315461965" lon="10.791372177762877"><ele>150.0</ele><time>2026-05-01T08:00:29Z</time></trkpt><trkpt lat="43.40062880109558" lon="10.791410763944096"><ele>150.0</ele><time>2026-05-01T08:00:30Z</time></trkpt><trkpt lat="43.40053126776639" lon="10.791445237314326"><ele>150.0</ele><time>2026-05-01T08:00:31Z</time></trkpt><trkpt lat="43.40043609829818" lon="10.791494607758597"><ele>150.0</ele><time>2026-05-01T08:00:32Z</time></trkpt><trkpt lat="43.400341694172845" lon="10.791556666382093"><ele>150.0</ele><time>2026-05-01T08:00:33Z</time></trkpt><trkpt lat="43.40024956007964" lon="10.791633932106896"><ele>150.0</ele><time>2026-05-01T08:00:34Z</time></trkpt><trkpt lat="43.40016820694275" lon="10.791732902823394"><ele>148.8</ele><time>2026-05-01T08:00:35Z</time></trkpt><trkpt lat="43.40009998379216" lon="10.791846864839652"><ele>147.6</ele><time>2026-05-01T08:00:35.999Z</time></trkpt><trkpt lat="43.40004988914051" lon="10.791978108014632"><ele>146.4</ele><time>2026-05-01T08:00:36.999Z</time></trkpt><trkpt lat="43.400011918196974" lon="10.792111401842854"><ele>145.2</ele><time>2026-05-01T08:00:37.999Z</time></trkpt><trkpt lat="43.399976692547725" lon="10.792246143405803"><ele>144.0</ele><time>2026-05-01T08:00:38.999Z</time></trkpt><trkpt lat="43.39993917490924" lon="10.79237691094397"><ele>144.0</ele><time>2026-05-01T08:00:39.999Z</time></trkpt><trkpt lat="43.39989800928768" lon="10.792494486831117"><ele>144.0</ele><time>2026-05-01T08:00:40.999Z</time></trkpt><trkpt lat="43.39984500193681" lon="10.792601998017746"><ele>144.0</ele><time>2026-05-01T08:00:41.999Z</time></trkpt><trkpt lat="43.39977011562125" lon="10.792705749172079"><ele>144.0</ele><time>2026-05-01T08:00:42.999Z</time></trkpt><trkpt lat="43.399665126064384" lon="10.79277245581311"><ele>144.0</ele><time>2026-05-01T08:00:43.999Z</time></trkpt><trkpt lat="43.39955505219643" lon="10.792827318798233"><ele>142.75</ele><time>2026-05-01T08:00:44.999Z</time></trkpt><trkpt lat="43.39944649723862" lon="10.792886236441653"><ele>141.5</ele><time>2026-05-01T08:00:45.999Z</time></trkpt><trkpt lat="43.39933124343114" lon="10.792914822417917"><ele>140.25</ele><time>2026-05-01T08:00:46.999Z</time></trkpt><trkpt lat="43.39921258905821" lon="10.79293558101228"><ele>139.0</ele><time>2026-05-01T08:00:47.999Z</time></trkpt><trkpt lat="43.399091212424096" lon="10.792904603987937"><ele>139.0</ele><time>2026-05-01T08:00:48.999Z</time></trkpt><trkpt lat="43.398967546124574" lon="10.79285452932923"><ele>139.0</ele><time>2026-05-01T08:00:49.999Z</time></trkpt><trkpt lat="43.398836241159636" lon="10.792805752430501"><ele>139.0</ele><time>2026-05-01T08:00:50.999Z</time></trkpt><trkpt lat="43.39870661966473" lon="10.792731215430553"><ele>139.0</ele><time>2026-05-01T08:00:51.999Z</time></trkpt><trkpt lat="43.39857700825819" lon="10.792659985544736"><ele>138.25</ele><time>2026-05-01T08:00:52.999Z</time></trkpt><trkpt lat="43.39845172014023" lon="10.792586909034265"><ele>137.5</ele><time>2026-05-01T08:00:53.999Z</time></trkpt><trkpt lat="43.39832818543688" lon="10.79251781528873"><ele>136.75</ele><time>2026-05-01T08:00:54.999Z</time></trkpt><trkpt lat="43.39820790312716" lon="10.792459891057877"><ele>136.0</ele><time>2026-05-01T08:00:55.999Z</time></trkpt><trkpt lat="43.39808358432187" lon="10.792411088417419"><ele>136.5</ele><time>2026-05-01T08:00:56.999Z</time></trkpt><trkpt lat="43.39795613311133" lon="10.792379337330761"><ele>137.0</ele><time>2026-05-01T08:00:57.999Z</time></trkpt><trkpt lat="43.39782785036805" lon="10.79236993636162"><ele>137.5</ele><time>2026-05-01T08:00:58.999Z</time></trkpt><trkpt lat="43.39770169364571" lon="10.79237716218576"><ele>138.0</ele><time>2026-05-01T08:00:59.999Z</time></trkpt><trkpt lat="43.39758047591552" lon="10.792394869170465"><ele>138.0</ele><time>2026-05-01T08:01:00.999Z</time></trkpt><trkpt lat="43.39746845003724" lon="10.792415056476994"><ele>138.0</ele><time>2026-05-01T08:01:01.999Z</time></trkpt><trkpt lat="43.397360975819325" lon="10.79243291104814"><ele>138.0</ele><time>2026-05-01T08:01:02.999Z</time></trkpt><trkpt lat="43.39725315096828" lon="10.792445760904606"><ele>138.0</ele><time>2026-05-01T08:01:03.999Z</time></trkpt><trkpt lat="43.39714225634195" lon="10.792454770461433"><ele>138.0</ele><time>2026-05-01T08:01:04.999Z</time></trkpt><trkpt lat="43.397024693921374" lon="10.792447959198253"><ele>137.5</ele><time>2026-05-01T08:01:05.999Z</time></trkpt><trkpt lat="43.39690742318099" lon="10.792426404178913"><ele>137.0</ele><time>2026-05-01T08:01:06.999Z</time></trkpt><trkpt lat="43.39678640111512" lon="10.792402268241032"><ele>136.5</ele><time>2026-05-01T08:01:07.999Z</time></trkpt><trkpt lat="43.39665906587095" lon="10.792402397657407"><ele>136.0</ele><time>2026-05-01T08:01:08.999Z</time></trkpt><trkpt lat="43.39652689958342" lon="10.792431887980063"><ele>136.0</ele><time>2026-05-01T08:01:09.999Z</time></trkpt><trkpt lat="43.39639392293317" lon="10.79247286046715"><ele>136.0</ele><time>2026-05-01T08:01:10.999Z</time></trkpt><trkpt lat="43.396262975490565" lon="10.792529031878283"><ele>136.0</ele><time>2026-05-01T08:01:11.999Z</time></trkpt><trkpt lat="43.396139247272906" lon="10.792605141140742"><ele>136.0</ele><time>2026-05-01T08:01:12.999Z</time></trkpt><trkpt lat="43.39602310258727" lon="10.792714077320332"><ele>133.75</ele><time>2026-05-01T08:01:13.999Z</time></trkpt><trkpt lat="43.39592225768351" lon="10.792841212647197"><ele>131.5</ele><time>2026-05-01T08:01:14.999Z</time></trkpt><trkpt lat="43.39583320864927" lon="10.792962272887708"><ele>129.25</ele><time>2026-05-01T08:01:15.999Z</time></trkpt><trkpt lat="43.395749344212255" lon="10.793074831736755"><ele>127.0</ele><time>2026-05-01T08:01:16.999Z</time></trkpt><trkpt lat="43.39566518800875" lon="10.79318493941668"><ele>127.0</ele><time>2026-05-01T08:01:17.999Z</time></trkpt><trkpt lat="43.39558114299899" lon="10.793304563297815"><ele>127.0</ele><time>2026-05-01T08:01:18.999Z</time></trkpt><trkpt lat="43.39549976920734" lon="10.793431680399367"><ele>127.0</ele><time>2026-05-01T08:01:19.999Z</time></trkpt><trkpt lat="43.39541490164666" lon="10.793553379978198"><ele>127.0</ele><time>2026-05-01T08:01:20.999Z</time></trkpt><trkpt lat="43.39533134645407" lon="10.79366742868008"><ele>126.0</ele><time>2026-05-01T08:01:21.999Z</time></trkpt><trkpt lat="43.39525247315068" lon="10.793774756442046"><ele>125.0</ele><time>2026-05-01T08:01:22.999Z</time></trkpt><trkpt lat="43.395166600255735" lon="10.793877293576545"><ele>124.0</ele><time>2026-05-01T08:01:23.999Z</time></trkpt><trkpt lat="43.3950733226725" lon="10.7939715580416"><ele>123.0</ele><time>2026-05-01T08:01:24.999Z</time></trkpt><trkpt lat="43.39497195880301" lon="10.79404728573509"><ele>123.0</ele><time>2026-05-01T08:01:25.999Z</time></trkpt><trkpt lat="43.39485910473737" lon="10.794092840325618"><ele>123.0</ele><time>2026-05-01T08:01:26.999Z</time></trkpt><trkpt lat="43.394740503009" lon="10.794095722892461"><ele>123.0</ele><time>2026-05-01T08:01:27.999Z</time></trkpt><trkpt lat="43.39462509666368" lon="10.794052759493608"><ele>123.0</ele><time>2026-05-01T08:01:28.998Z</time></trkpt><trkpt lat="43.394513917204534" lon="10.793994217930715"><ele>121.75</ele><time>2026-05-01T08:01:29.998Z</time></trkpt><trkpt lat="43.39440694568492" lon="10.793943138603407"><ele>120.5</ele><time>2026-05-01T08:01:30.998Z</time></trkpt><trkpt lat="43.394299588228996" lon="10.793893289134797"><ele>119.25</ele><time>2026-05-01T08:01:31.998Z</time></trkpt><trkpt lat="43.394189773018084" lon="10.79383813438576"><ele>118.0</ele><time>2026-05-01T08:01:32.998Z</time></trkpt><trkpt lat="43.39407662266292" lon="10.793789992477588"><ele>118.0</ele><time>2026-05-01T08:01:33.998Z</time></trkpt><trkpt lat="43.39395224385932" lon="10.793756652037208"><ele>118.0</ele><time>2026-05-01T08:01:34.998Z</time></trkpt><trkpt lat="43.39380704219101" lon="10.793712549505766"><ele>118.0</ele><time>2026-05-01T08:01:35.998Z</time></trkpt><trkpt lat="43.39362442141953" lon="10.793704821886623"><ele>115.5</ele><time>2026-05-01T08:01:36.998Z</time></trkpt><trkpt lat="43.39340152939207" lon="10.793697317273237"><ele>113.0</ele><time>2026-05-01T08:01:37.998Z</time></trkpt><trkpt lat="43.39315271957214" lon="10.793690328002567"><ele>112.0</ele><time>2026-05-01T08:01:38.998Z</time></trkpt><trkpt lat="43.39291509559061" lon="10.793684109747765"><ele>111.0</ele><time>2026-05-01T08:01:39.998Z</time></trkpt><trkpt lat="43.39270180489343" lon="10.793678528256715"><ele>111.0</ele><time>2026-05-01T08:01:40.998Z</time></trkpt><trkpt lat="43.39250543018512" lon="10.793694660681629"><ele>111.0</ele><time>2026-05-01T08:01:41.998Z</time></trkpt><trkpt lat="43.39232062995948" lon="10.793676841111825"><ele>111.0</ele><time>2026-05-01T08:01:42.998Z</time></trkpt><trkpt lat="43.3921492398664" lon="10.793671005975188"><ele>110.75</ele><time>2026-05-01T08:01:43.998Z</time></trkpt><trkpt lat="43.39198983639931" lon="10.79367323829558"><ele>110.5</ele><time>2026-05-01T08:01:44.998Z</time></trkpt><trkpt lat="43.39184605228153" lon="10.793663303236332"><ele>110.25</ele><time>2026-05-01T08:01:45.998Z</time></trkpt><trkpt lat="43.39171260582272" lon="10.79365435194485"><ele>110.0</ele><time>2026-05-01T08:01:46.998Z</time></trkpt><trkpt lat="43.391591720163746" lon="10.793660110015821"><ele>110.0</ele><time>2026-05-01T08:01:47.998Z</time></trkpt><trkpt lat="43.39148108813305" lon="10.793689676839557"><ele>110.0</ele><time>2026-05-01T08:01:48.998Z</time></trkpt><trkpt lat="43.39137536044848" lon="10.793755503357533"><ele>110.0</ele><time>2026-05-01T08:01:49.998Z</time></trkpt><trkpt lat="43.39127634186919" lon="10.793867428246683"><ele>110.0</ele><time>2026-05-01T08:01:50.998Z</time></trkpt><trkpt lat="43.39117288495545" lon="10.79399281084487"><ele>110.33333333333333</ele><time>2026-05-01T08:01:51.998Z</time></trkpt><trkpt lat="43.39108328749773" lon="10.794173240002976"><ele>110.66666666666666</ele><time>2026-05-01T08:01:52.998Z</time></trkpt><trkpt lat="43.390987081070755" lon="10.794401340599201"><ele>111.0</ele><time>2026-05-01T08:01:53.998Z</time></trkpt><trkpt lat="43.390875950151006" lon="10.794657477102582"><ele>111.0</ele><time>2026-05-01T08:01:54.998Z</time></trkpt><trkpt lat="43.39075572476889" lon="10.794884370087773"><ele>111.0</ele><time>2026-05-01T08:01:55.998Z</time></trkpt><trkpt lat="43.390636642968396" lon="10.795084324647602"><ele>111.0</ele><time>2026-05-01T08:01:56.998Z</time></trkpt><trkpt lat="43.390534101091404" lon="10.795285723419978"><ele>110.33333333333334</ele><time>2026-05-01T08:01:57.998Z</time></trkpt><trkpt lat="43.39042304770647" lon="10.795454422216418"><ele>109.66666666666667</ele><time>2026-05-01T08:01:58.998Z</time></trkpt><trkpt lat="43.39032740049548" lon="10.795618280867458"><ele>109.0</ele><time>2026-05-01T08:01:59.998Z</time></trkpt><trkpt lat="43.39023447608833" lon="10.795771850357093"><ele>109.0</ele><time>2026-05-01T08:02:00.998Z</time></trkpt><trkpt lat="43.39014524012856" lon="10.795913355399458"><ele>109.0</ele><time>2026-05-01T08:02:01.998Z</time></trkpt><trkpt lat="43.390062861952465" lon="10.796054732441945"><ele>109.0</ele><time>2026-05-01T08:02:02.998Z</time></trkpt><trkpt lat="43.389980769972965" lon="10.796196145968036"><ele>109.0</ele><time>2026-05-01T08:02:03.998Z</time></trkpt><trkpt lat="43.38989783404086" lon="10.796320923994243"><ele>107.4</ele><time>2026-05-01T08:02:04.998Z</time></trkpt><trkpt lat="43.38981497704523" lon="10.796428688120644"><ele>105.80000000000001</ele><time>2026-05-01T08:02:05.998Z</time></trkpt><trkpt lat="43.38972895160158" lon="10.796517082647897"><ele>104.19999999999999</ele><time>2026-05-01T08:02:06.998Z</time></trkpt><trkpt lat="43.38964026206796" lon="10.796593038210396"><ele>102.6</ele><time>2026-05-01T08:02:07.998Z</time></trkpt><trkpt lat="43.38953951586341" lon="10.7966618299409"><ele>101.0</ele><time>2026-05-01T08:02:09Z</time></trkpt><trkpt lat="43.38941528355496" lon="10.796701470246548"><ele>101.0</ele><time>2026-05-01T08:02:10Z</time></trkpt><trkpt lat="43.389283996322256" lon="10.796709401536956"><ele>101.0</ele><time>2026-05-01T08:02:11Z</time></trkpt><trkpt lat="43.389152805013275" lon="10.796697930740235"><ele>101.0</ele><time>2026-05-01T08:02:12Z</time></trkpt><trkpt lat="43.38901889882597" lon="10.796680716900736"><ele>101.0</ele><time>2026-05-01T08:02:13Z</time></trkpt><trkpt lat="43.38888169684003" lon="10.796664351967097"><ele>100.75</ele><time>2026-05-01T08:02:14Z</time></trkpt><trkpt lat="43.38874155376743" lon="10.796649786891635"><ele>100.5</ele><time>2026-05-01T08:02:15Z</time></trkpt><trkpt lat="43.388603767300076" lon="10.796629610799426"><ele>100.25</ele><time>2026-05-01T08:02:16Z</time></trkpt><trkpt lat="43.38847154904231" lon="10.796605771680394"><ele>100.0</ele><time>2026-05-01T08:02:17Z</time></trkpt><trkpt lat="43.388342735643185" lon="10.796558395838705"><ele>100.0</ele><time>2026-05-01T08:02:18Z</time></trkpt><trkpt lat="43.38822770811652" lon="10.796460087483553"><ele>100.0</ele><time>2026-05-01T08:02:19Z</time></trkpt><trkpt lat="43.388105977859844" lon="10.796368543497668"><ele>100.0</ele><time>2026-05-01T08:02:20Z</time></trkpt><trkpt lat="43.38800087542242" lon="10.796236223508075"><ele>100.0</ele><time>2026-05-01T08:02:21Z</time></trkpt><trkpt lat="43.38789978833211" lon="10.796103798149625"><ele>100.0</ele><time>2026-05-01T08:02:22Z</time></trkpt><trkpt lat="43.38779787427401" lon="10.79596717188139"><ele>100.0</ele><time>2026-05-01T08:02:23Z</time></trkpt><trkpt lat="43.387699092264135" lon="10.795829282694362"><ele>100.0</ele><time>2026-05-01T08:02:24Z</time></trkpt><trkpt lat="43.38759843189843" lon="10.795688806063621"><ele>100.0</ele><time>2026-05-01T08:02:25Z</time></trkpt><trkpt lat="43.38748740397073" lon="10.79554878937246"><ele>100.0</ele><time>2026-05-01T08:02:26Z</time></trkpt><trkpt lat="43.387367681857945" lon="10.79542337299731"><ele>100.0</ele><time>2026-05-01T08:02:27Z</time></trkpt><trkpt lat="43.38724747365829" lon="10.795309447375601"><ele>100.0</ele><time>2026-05-01T08:02:28Z</time></trkpt><trkpt lat="43.38712525899422" lon="10.795199084250529"><ele>100.0</ele><time>2026-05-01T08:02:29Z</time></trkpt><trkpt lat="43.387002832237535" lon="10.795093017600735"><ele>98.5</ele><time>2026-05-01T08:02:30Z</time></trkpt><trkpt lat="43.38688040686483" lon="10.79499146517109"><ele>97.0</ele><time>2026-05-01T08:02:31Z</time></trkpt><trkpt lat="43.386759994390076" lon="10.79489928852993"><ele>95.5</ele><time>2026-05-01T08:02:32Z</time></trkpt><trkpt lat="43.38663969943922" lon="10.794815907629854"><ele>94.0</ele><time>2026-05-01T08:02:33Z</time></trkpt><trkpt lat="43.38651722229421" lon="10.79474543230552"><ele>94.0</ele><time>2026-05-01T08:02:34Z</time></trkpt><trkpt lat="43.38639845308127" lon="10.794692546207374"><ele>94.0</ele><time>2026-05-01T08:02:35Z</time></trkpt><trkpt lat="43.38627903351825" lon="10.794664629453502"><ele>94.0</ele><time>2026-05-01T08:02:36Z</time></trkpt><trkpt lat="43.38615305726359" lon="10.794658451136634"><ele>94.0</ele><time>2026-05-01T08:02:37Z</time></trkpt><trkpt lat="43.386028568985985" lon="10.794687203371135"><ele>93.25</ele><time>2026-05-01T08:02:38Z</time></trkpt><trkpt lat="43.385901927856125" lon="10.794742122973163"><ele>92.5</ele><time>2026-05-01T08:02:39Z</time></trkpt><trkpt lat="43.385775434178456" lon="10.794831037719568"><ele>91.75</ele><time>2026-05-01T08:02:40Z</time></trkpt><trkpt lat="43.38564587036138" lon="10.794967315065406"><ele>91.0</ele><time>2026-05-01T08:02:41Z</time></trkpt><trkpt lat="43.38549292775499" lon="10.795115186295202"><ele>89.0</ele><time>2026-05-01T08:02:42Z</time></trkpt><trkpt lat="43.38531880553524" lon="10.795303599930532"><ele>87.0</ele><time>2026-05-01T08:02:43Z</time></trkpt><trkpt lat="43.38514049891929" lon="10.795497799525409"><ele>85.0</ele><time>2026-05-01T08:02:44Z</time></trkpt><trkpt lat="43.38493675839226" lon="10.795716153282148"><ele>85.0</ele><time>2026-05-01T08:02:45Z</time></trkpt><trkpt lat="43.384740067420985" lon="10.795948805734035"><ele>85.0</ele><time>2026-05-01T08:02:46Z</time></trkpt><trkpt lat="43.384536888597516" lon="10.796159591637712"><ele>83.5</ele><time>2026-05-01T08:02:47Z</time></trkpt><trkpt lat="43.38434097385354" lon="10.7963662818801"><ele>82.0</ele><time>2026-05-01T08:02:48Z</time></trkpt><trkpt lat="43.38414847058706" lon="10.796576073050636"><ele>82.0</ele><time>2026-05-01T08:02:49Z</time></trkpt><trkpt lat="43.38395617114433" lon="10.796781750716686"><ele>82.0</ele><time>2026-05-01T08:02:50Z</time></trkpt><trkpt lat="43.38376467755037" lon="10.796987192915035"><ele>81.5</ele><time>2026-05-01T08:02:51Z</time></trkpt><trkpt lat="43.38357548878956" lon="10.797191596437946"><ele>81.0</ele><time>2026-05-01T08:02:52Z</time></trkpt><trkpt lat="43.38338705616466" lon="10.7973948602101"><ele>81.0</ele><time>2026-05-01T08:02:53Z</time></trkpt><trkpt lat="43.383197115144135" lon="10.797596670475123"><ele>81.0</ele><time>2026-05-01T08:02:54Z</time></trkpt><trkpt lat="43.383007117557696" lon="10.797798288807245"><ele>81.5</ele><time>2026-05-01T08:02:55Z</time></trkpt><trkpt lat="43.38281748193535" lon="10.798000455677592"><ele>82.0</ele><time>2026-05-01T08:02:56Z</time></trkpt><trkpt lat="43.38262610067428" lon="10.798200279401257"><ele>82.0</ele><time>2026-05-01T08:02:57Z</time></trkpt><trkpt lat="43.38243582565937" lon="10.798402347623478"><ele>82.0</ele><time>2026-05-01T08:02:57.999Z</time></trkpt><trkpt lat="43.3822467065838" lon="10.798610435123594"><ele>82.0</ele><time>2026-05-01T08:02:58.999Z</time></trkpt><trkpt lat="43.382056150838295" lon="10.798818711920278"><ele>82.0</ele><time>2026-05-01T08:02:59.999Z</time></trkpt><trkpt lat="43.38186483554879" lon="10.799022060324372"><ele>82.0</ele><time>2026-05-01T08:03:00.999Z</time></trkpt><trkpt lat="43.381672365874515" lon="10.799226785830978"><ele>82.0</ele><time>2026-05-01T08:03:01.999Z</time></trkpt><trkpt lat="43.38148117673072" lon="10.799431470993717"><ele>81.0</ele><time>2026-05-01T08:03:02.999Z</time></trkpt><trkpt lat="43.3812893426503" lon="10.799636476129946"><ele>80.0</ele><time>2026-05-01T08:03:03.999Z</time></trkpt><trkpt lat="43.381098729163796" lon="10.799839961138753"><ele>80.0</ele><time>2026-05-01T08:03:04.999Z</time></trkpt><trkpt lat="43.38091311759509" lon="10.800038111838436"><ele>80.0</ele><time>2026-05-01T08:03:05.999Z</time></trkpt><trkpt lat="43.38073508538268" lon="10.800232367904558"><ele>80.33333333333334</ele><time>2026-05-01T08:03:06.999Z</time></trkpt><trkpt lat="43.380562351955724" lon="10.8004230755024"><ele>80.66666666666667</ele><time>2026-05-01T08:03:07.999Z</time></trkpt><trkpt lat="43.38040179571557" lon="10.800600417632099"><ele>81.0</ele><time>2026-05-01T08:03:08.999Z</time></trkpt><trkpt lat="43.380241342179815" lon="10.800742495863675"><ele>80.33333333333333</ele><time>2026-05-01T08:03:09.999Z</time></trkpt><trkpt lat="43.380092543848185" lon="10.800873772336836"><ele>79.66666666666666</ele><time>2026-05-01T08:03:10.999Z</time></trkpt><trkpt lat="43.379937268867025" lon="10.80097633288554"><ele>79.0</ele><time>2026-05-01T08:03:11.999Z</time></trkpt><trkpt lat="43.37974655922469" lon="10.800969896273324"><ele>78.33333333333333</ele><time>2026-05-01T08:03:12.999Z</time></trkpt><trkpt lat="43.37954515552778" lon="10.800934813226958"><ele>77.66666666666667</ele><time>2026-05-01T08:03:13.999Z</time></trkpt><trkpt lat="43.37932335751335" lon="10.800883633753058"><ele>77.0</ele><time>2026-05-01T08:03:14.999Z</time></trkpt><trkpt lat="43.37908219324351" lon="10.800824560332664"><ele>77.5</ele><time>2026-05-01T08:03:15.999Z</time></trkpt><trkpt lat="43.37882620083659" lon="10.800784102190532"><ele>78.0</ele><time>2026-05-01T08:03:16.999Z</time></trkpt><trkpt lat="43.37855198354593" lon="10.800715373769316"><ele>78.0</ele><time>2026-05-01T08:03:17.999Z</time></trkpt><trkpt lat="43.37827756637379" lon="10.800651675523037"><ele>78.0</ele><time>2026-05-01T08:03:18.999Z</time></trkpt><trkpt lat="43.37801459428403" lon="10.800590252856798"><ele>77.0</ele><time>2026-05-01T08:03:19.999Z</time></trkpt><trkpt lat="43.377761922420355" lon="10.800529454954951"><ele>76.0</ele><time>2026-05-01T08:03:20.999Z</time></trkpt><trkpt lat="43.377525724908374" lon="10.800468641312596"><ele>76.0</ele><time>2026-05-01T08:03:21.999Z</time></trkpt><trkpt lat="43.37730481780559" lon="10.800411546096523"><ele>76.0</ele><time>2026-05-01T08:03:22.999Z</time></trkpt><trkpt lat="43.377097298595025" lon="10.800372034993847"><ele>76.0</ele><time>2026-05-01T08:03:23.999Z</time></trkpt><trkpt lat="43.376888879812405" lon="10.800366198677835"><ele>76.33333333333333</ele><time>2026-05-01T08:03:24.999Z</time></trkpt><trkpt lat="43.37667668476072" lon="10.800386137671902"><ele>76.66666666666667</ele><time>2026-05-01T08:03:25.999Z</time></trkpt><trkpt lat="43.376460978597535" lon="10.80046629256354"><ele>77.0</ele><time>2026-05-01T08:03:26.999Z</time></trkpt><trkpt lat="43.376246988476744" lon="10.800616939124833"><ele>77.0</ele><time>2026-05-01T08:03:27.999Z</time></trkpt><trkpt lat="43.37601661753349" lon="10.800788437699914"><ele>77.0</ele><time>2026-05-01T08:03:28.999Z</time></trkpt><trkpt lat="43.37577017704411" lon="10.800977550790671"><ele>77.0</ele><time>2026-05-01T08:03:29.999Z</time></trkpt><trkpt lat="43.37552544523177" lon="10.801160652015605"><ele>77.0</ele><time>2026-05-01T08:03:30.999Z</time></trkpt><trkpt lat="43.37528604424229" lon="10.801344996153322"><ele>76.0</ele><time>2026-05-01T08:03:31.999Z</time></trkpt><trkpt lat="43.375049596977014" lon="10.801528785213142"><ele>75.0</ele><time>2026-05-01T08:03:32.999Z</time></trkpt><trkpt lat="43.37481575613549" lon="10.801704088082973"><ele>74.5</ele><time>2026-05-01T08:03:33.999Z</time></trkpt><trkpt lat="43.37458672444864" lon="10.801877921539146"><ele>74.0</ele><time>2026-05-01T08:03:34.999Z</time></trkpt><trkpt lat="43.37435894888077" lon="10.802051729734382"><ele>74.0</ele><time>2026-05-01T08:03:35.999Z</time></trkpt><trkpt lat="43.37413594036897" lon="10.80222222019498"><ele>74.0</ele><time>2026-05-01T08:03:36.999Z</time></trkpt><trkpt lat="43.37391541192729" lon="10.802390944281814"><ele>74.0</ele><time>2026-05-01T08:03:37.999Z</time></trkpt><trkpt lat="43.373697022986605" lon="10.802557530467181"><ele>74.0</ele><time>2026-05-01T08:03:38.999Z</time></trkpt><trkpt lat="43.37347969427479" lon="10.80272448112387"><ele>74.0</ele><time>2026-05-01T08:03:39.999Z</time></trkpt><trkpt lat="43.37326386723901" lon="10.802891720115715"><ele>74.0</ele><time>2026-05-01T08:03:40.999Z</time></trkpt><trkpt lat="43.37304570075086" lon="10.80305048096774"><ele>75.5</ele><time>2026-05-01T08:03:41.999Z</time></trkpt><trkpt lat="43.372827013336504" lon="10.803210089743859"><ele>77.0</ele><time>2026-05-01T08:03:42.999Z</time></trkpt><trkpt lat="43.37261249160361" lon="10.803377280387183"><ele>75.5</ele><time>2026-05-01T08:03:43.999Z</time></trkpt><trkpt lat="43.37239801316413" lon="10.803544945813389"><ele>74.0</ele><time>2026-05-01T08:03:44.999Z</time></trkpt><trkpt lat="43.37218535725023" lon="10.803708181092398"><ele>73.5</ele><time>2026-05-01T08:03:45.999Z</time></trkpt><trkpt lat="43.371972098587584" lon="10.803870225033872"><ele>73.0</ele><time>2026-05-01T08:03:46.999Z</time></trkpt><trkpt lat="43.371763654344846" lon="10.80403155219628"><ele>73.0</ele><time>2026-05-01T08:03:47.999Z</time></trkpt><trkpt lat="43.37155653328693" lon="10.804194316789545"><ele>73.0</ele><time>2026-05-01T08:03:48.998Z</time></trkpt><trkpt lat="43.37134909948427" lon="10.804355292323624"><ele>73.5</ele><time>2026-05-01T08:03:49.998Z</time></trkpt><trkpt lat="43.37113986402705" lon="10.80451300185066"><ele>74.0</ele><time>2026-05-01T08:03:50.998Z</time></trkpt><trkpt lat="43.37093296146747" lon="10.804667171287642"><ele>74.0</ele><time>2026-05-01T08:03:51.998Z</time></trkpt><trkpt lat="43.370727552112406" lon="10.804821915566523"><ele>74.0</ele><time>2026-05-01T08:03:52.998Z</time></trkpt><trkpt lat="43.37052446676759" lon="10.804977581622344"><ele>73.5</ele><time>2026-05-01T08:03:53.998Z</time></trkpt><trkpt lat="43.37032253326584" lon="10.805132437691046"><ele>73.0</ele><time>2026-05-01T08:03:54.998Z</time></trkpt><trkpt lat="43.37013023634578" lon="10.80528923350373"><ele>72.0</ele><time>2026-05-01T08:03:55.998Z</time></trkpt><trkpt lat="43.369947093432316" lon="10.805473047291533"><ele>71.0</ele><time>2026-05-01T08:03:56.998Z</time></trkpt><trkpt lat="43.369776386524094" lon="10.805680602909176"><ele>71.0</ele><time>2026-05-01T08:03:57.998Z</time></trkpt><trkpt lat="43.3696106710912" lon="10.805903053411686"><ele>71.0</ele><time>2026-05-01T08:03:58.998Z</time></trkpt><trkpt lat="43.369444254616724" lon="10.806126348759074"><ele>71.0</ele><time>2026-05-01T08:03:59.998Z</time></trkpt><trkpt lat="43.369277301994764" lon="10.806347239569435"><ele>71.0</ele><time>2026-05-01T08:04:00.998Z</time></trkpt><trkpt lat="43.36911205759207" lon="10.806565999207505"><ele>71.0</ele><time>2026-05-01T08:04:01.998Z</time></trkpt><trkpt lat="43.36894569191542" lon="10.806782091087646"><ele>71.0</ele><time>2026-05-01T08:04:02.998Z</time></trkpt><trkpt lat="43.368778705302596" lon="10.806991955876248"><ele>71.66666666666667</ele><time>2026-05-01T08:04:03.998Z</time></trkpt><trkpt lat="43.36861421174255" lon="10.807202256958638"><ele>72.33333333333333</ele><time>2026-05-01T08:04:04.998Z</time></trkpt><trkpt lat="43.368451788292774" lon="10.807411966811811"><ele>73.0</ele><time>2026-05-01T08:04:05.998Z</time></trkpt><trkpt lat="43.36828724131537" lon="10.807624484935332"><ele>73.33333333333333</ele><time>2026-05-01T08:04:06.998Z</time></trkpt><trkpt lat="43.368125816175024" lon="10.807833433427055"><ele>73.66666666666667</ele><time>2026-05-01T08:04:07.998Z</time></trkpt><trkpt lat="43.36796365302164" lon="10.808034825662917"><ele>74.0</ele><time>2026-05-01T08:04:08.998Z</time></trkpt><trkpt lat="43.36779040485887" lon="10.808219063819411"><ele>74.0</ele><time>2026-05-01T08:04:09.998Z</time></trkpt><trkpt lat="43.367604200189675" lon="10.808381786255445"><ele>74.0</ele><time>2026-05-01T08:04:10.998Z</time></trkpt><trkpt lat="43.367413782485364" lon="10.80852882758548"><ele>74.0</ele><time>2026-05-01T08:04:11.998Z</time></trkpt><trkpt lat="43.367228663060885" lon="10.808659552220078"><ele>75.33333333333334</ele><time>2026-05-01T08:04:12.998Z</time></trkpt><trkpt lat="43.36705936511079" lon="10.808779371196403"><ele>76.66666666666667</ele><time>2026-05-01T08:04:13.998Z</time></trkpt><trkpt lat="43.366905676226004" lon="10.808905759284277"><ele>78.0</ele><time>2026-05-01T08:04:15Z</time></trkpt><trkpt lat="43.36676441190235" lon="10.80903919801689"><ele>78.0</ele><time>2026-05-01T08:04:16Z</time></trkpt><trkpt lat="43.36664293467162" lon="10.809202356814897"><ele>78.0</ele><time>2026-05-01T08:04:17Z</time></trkpt><trkpt lat="43.36654556704906" lon="10.809399266832672"><ele>78.0</ele><time>2026-05-01T08:04:18Z</time></trkpt><trkpt lat="43.36645975509031" lon="10.80961172203029"><ele>80.33333333333333</ele><time>2026-05-01T08:04:19Z</time></trkpt><trkpt lat="43.36637130887735" lon="10.809814454012793"><ele>82.66666666666666</ele><time>2026-05-01T08:04:20Z</time></trkpt><trkpt lat="43.36627937593834" lon="10.810011649471296"><ele>85.0</ele><time>2026-05-01T08:04:21Z</time></trkpt><trkpt lat="43.36618961861716" lon="10.810203603045272"><ele>85.33333333333333</ele><time>2026-05-01T08:04:22Z</time></trkpt><trkpt lat="43.3661040288375" lon="10.810387302434538"><ele>85.66666666666667</ele><time>2026-05-01T08:04:23Z</time></trkpt><trkpt lat="43.36602221087662" lon="10.810562557781866"><ele>86.0</ele><time>2026-05-01T08:04:24Z</time></trkpt><trkpt lat="43.36594271131494" lon="10.810724370774203"><ele>86.0</ele><time>2026-05-01T08:04:25Z</time></trkpt><trkpt lat="43.36586547728285" lon="10.810864096499664"><ele>86.0</ele><time>2026-05-01T08:04:26Z</time></trkpt><trkpt lat="43.36578091309222" lon="10.810983987171053"><ele>86.0</ele><time>2026-05-01T08:04:27Z</time></trkpt><trkpt lat="43.36568209578359" lon="10.811090387194001"><ele>86.0</ele><time>2026-05-01T08:04:28Z</time></trkpt><trkpt lat="43.36557956036386" lon="10.811198369747885"><ele>85.0</ele><time>2026-05-01T08:04:29Z</time></trkpt><trkpt lat="43.36547716366737" lon="10.811317822621515"><ele>84.0</ele><time>2026-05-01T08:04:30Z</time></trkpt><trkpt lat="43.36537066350585" lon="10.811440724463123"><ele>83.0</ele><time>2026-05-01T08:04:31Z</time></trkpt><trkpt lat="43.36526133947509" lon="10.811564445345384"><ele>82.0</ele><time>2026-05-01T08:04:32Z</time></trkpt><trkpt lat="43.36515086993205" lon="10.811689907222542"><ele>82.0</ele><time>2026-05-01T08:04:33Z</time></trkpt><trkpt lat="43.36504664526284" lon="10.811809794888743"><ele>82.0</ele><time>2026-05-01T08:04:34Z</time></trkpt><trkpt lat="43.36494726573026" lon="10.811923192775836"><ele>82.0</ele><time>2026-05-01T08:04:35Z</time></trkpt><trkpt lat="43.364854091978295" lon="10.812033089229804"><ele>82.0</ele><time>2026-05-01T08:04:36Z</time></trkpt><trkpt lat="43.364760359356886" lon="10.812139024719958"><ele>81.39999999999999</ele><time>2026-05-01T08:04:37Z</time></trkpt><trkpt lat="43.36467179646942" lon="10.812241189720648"><ele>80.8</ele><time>2026-05-01T08:04:38Z</time></trkpt><trkpt lat="43.364586491137295" lon="10.81234217686684"><ele>80.2</ele><time>2026-05-01T08:04:39Z</time></trkpt><trkpt lat="43.3645016887532" lon="10.8124330280346"><ele>79.6</ele><time>2026-05-01T08:04:40Z</time></trkpt><trkpt lat="43.36441507994304" lon="10.812511679019371"><ele>79.0</ele><time>2026-05-01T08:04:41Z</time></trkpt><trkpt lat="43.364322894610474" lon="10.812569287359214"><ele>79.0</ele><time>2026-05-01T08:04:42Z</time></trkpt><trkpt lat="43.364230409759855" lon="10.812602075628238"><ele>79.0</ele><time>2026-05-01T08:04:43Z</time></trkpt><trkpt lat="43.36413659235495" lon="10.812621072790026"><ele>79.0</ele><time>2026-05-01T08:04:44Z</time></trkpt><trkpt lat="43.364048534773936" lon="10.812633343043291"><ele>79.0</ele><time>2026-05-01T08:04:45Z</time></trkpt><trkpt lat="43.36397169518137" lon="10.812637660589385"><ele>79.0</ele><time>2026-05-01T08:04:46Z</time></trkpt><trkpt lat="43.36390044678111" lon="10.812640772708697"><ele>79.0</ele><time>2026-05-01T08:04:47Z</time></trkpt><trkpt lat="43.36381486152156" lon="10.812662298274592"><ele>78.8</ele><time>2026-05-01T08:04:49Z</time></trkpt><trkpt lat="43.363754012119244" lon="10.812693961723175"><ele>78.60000000000001</ele><time>2026-05-01T08:04:51Z</time></trkpt><trkpt lat="43.36369910236065" lon="10.81274472939105"><ele>78.4</ele><time>2026-05-01T08:04:52Z</time></trkpt><trkpt lat="43.36386897864187" lon="10.812874698488622"><ele>78.2</ele><time>2026-05-01T08:04:54Z</time></trkpt><trkpt lat="43.36393734971947" lon="10.812946866533881"><ele>78.0</ele><time>2026-05-01T08:04:56Z</time></trkpt><trkpt lat="43.36404137905429" lon="10.812997983465277"><ele>78.0</ele><time>2026-05-01T08:05:33.999Z</time></trkpt><trkpt lat="43.36410499137334" lon="10.81305370062157"><ele>78.0</ele><time>2026-05-01T08:05:34.999Z</time></trkpt><trkpt lat="43.36417951601477" lon="10.813116941554139"><ele>78.0</ele><time>2026-05-01T08:05:35.999Z</time></trkpt><trkpt lat="43.36425468237372" lon="10.81318700389756"><ele>78.0</ele><time>2026-05-01T08:05:36.999Z</time></trkpt><trkpt lat="43.364344244990576" lon="10.813269667391742"><ele>78.0</ele><time>2026-05-01T08:05:37.999Z</time></trkpt><trkpt lat="43.364439941058194" lon="10.813358635741563"><ele>78.0</ele><time>2026-05-01T08:05:38.999Z</time></trkpt><trkpt lat="43.36454650572572" lon="10.813455665875823"><ele>78.0</ele><time>2026-05-01T08:05:39.999Z</time></trkpt><trkpt lat="43.36465263065361" lon="10.813556475802962"><ele>78.0</ele><time>2026-05-01T08:05:40.999Z</time></trkpt><trkpt lat="43.36475966927616" lon="10.813662022587437"><ele>78.0</ele><time>2026-05-01T08:05:41.999Z</time></trkpt><trkpt lat="43.36487582164305" lon="10.813767881798475"><ele>78.33333333333333</ele><time>2026-05-01T08:05:42.999Z</time></trkpt><trkpt lat="43.36499318640576" lon="10.813879146495943"><ele>78.66666666666666</ele><time>2026-05-01T08:05:43.999Z</time></trkpt><trkpt lat="43.36512413152492" lon="10.81400950602699"><ele>79.0</ele><time>2026-05-01T08:05:44.999Z</time></trkpt><trkpt lat="43.36526843033879" lon="10.814150003826464"><ele>79.0</ele><time>2026-05-01T08:05:45.999Z</time></trkpt><trkpt lat="43.36541413558447" lon="10.814288476828033"><ele>79.0</ele><time>2026-05-01T08:05:46.999Z</time></trkpt><trkpt lat="43.36555863500839" lon="10.814415592785144"><ele>79.0</ele><time>2026-05-01T08:05:47.999Z</time></trkpt><trkpt lat="43.36569547442199" lon="10.814539064462483"><ele>80.33333333333333</ele><time>2026-05-01T08:05:48.999Z</time></trkpt><trkpt lat="43.3658339199394" lon="10.814655302970571"><ele>81.66666666666667</ele><time>2026-05-01T08:05:49.999Z</time></trkpt><trkpt lat="43.36596885236766" lon="10.81475577419998"><ele>83.0</ele><time>2026-05-01T08:05:50.999Z</time></trkpt><trkpt lat="43.36611278485186" lon="10.81484241372089"><ele>83.0</ele><time>2026-05-01T08:05:51.999Z</time></trkpt><trkpt lat="43.36625645100568" lon="10.814913819388444"><ele>83.0</ele><time>2026-05-01T08:05:52.999Z</time></trkpt><trkpt lat="43.36639451895021" lon="10.814985547741491"><ele>83.0</ele><time>2026-05-01T08:05:53.999Z</time></trkpt><trkpt lat="43.36652874557583" lon="10.815050198520378"><ele>83.0</ele><time>2026-05-01T08:05:54.999Z</time></trkpt><trkpt lat="43.366658985226614" lon="10.815104190079722"><ele>85.25</ele><time>2026-05-01T08:05:55.999Z</time></trkpt><trkpt lat="43.3667969434667" lon="10.815144899139845"><ele>87.5</ele><time>2026-05-01T08:05:56.999Z</time></trkpt><trkpt lat="43.36693890864262" lon="10.815162570176456"><ele>89.75</ele><time>2026-05-01T08:05:57.999Z</time></trkpt><trkpt lat="43.367079536022125" lon="10.815163421506782"><ele>92.0</ele><time>2026-05-01T08:05:58.999Z</time></trkpt><trkpt lat="43.36721556714245" lon="10.815113754278405"><ele>92.5</ele><time>2026-05-01T08:05:59.998Z</time></trkpt><trkpt lat="43.367358048238394" lon="10.81504072365648"><ele>93.0</ele><time>2026-05-01T08:06:00.998Z</time></trkpt><trkpt lat="43.36749270712564" lon="10.81496875228385"><ele>93.5</ele><time>2026-05-01T08:06:01.998Z</time></trkpt><trkpt lat="43.367629274058565" lon="10.814905113227553"><ele>94.0</ele><time>2026-05-01T08:06:02.998Z</time></trkpt><trkpt lat="43.36776645861544" lon="10.814845932081115"><ele>94.0</ele><time>2026-05-01T08:06:03.998Z</time></trkpt><trkpt lat="43.36790756984199" lon="10.814802214773275"><ele>94.0</ele><time>2026-05-01T08:06:04.998Z</time></trkpt><trkpt lat="43.368043632921584" lon="10.814777063266748"><ele>94.0</ele><time>2026-05-01T08:06:05.998Z</time></trkpt><trkpt lat="43.368175217581374" lon="10.8147746426463"><ele>94.0</ele><time>2026-05-01T08:06:06.998Z</time></trkpt><trkpt lat="43.36829787567683" lon="10.814812767842222"><ele>94.5</ele><time>2026-05-01T08:06:07.998Z</time></trkpt><trkpt lat="43.36839537216332" lon="10.814906620735728"><ele>95.0</ele><time>2026-05-01T08:06:08.998Z</time></trkpt><trkpt lat="43.368461070918414" lon="10.815049050841072"><ele>95.5</ele><time>2026-05-01T08:06:09.998Z</time></trkpt><trkpt lat="43.36849091676984" lon="10.815218331913771"><ele>96.0</ele><time>2026-05-01T08:06:10.998Z</time></trkpt><trkpt lat="43.36849227251746" lon="10.815404517729156"><ele>97.25</ele><time>2026-05-01T08:06:11.998Z</time></trkpt><trkpt lat="43.36847949441622" lon="10.815588908239564"><ele>98.5</ele><time>2026-05-01T08:06:12.998Z</time></trkpt><trkpt lat="43.36846666323665" lon="10.815764725335164"><ele>99.75</ele><time>2026-05-01T08:06:13.998Z</time></trkpt><trkpt lat="43.368463220627305" lon="10.815939110296709"><ele>101.0</ele><time>2026-05-01T08:06:14.998Z</time></trkpt><trkpt lat="43.368480504484594" lon="10.816110037771852"><ele>102.25</ele><time>2026-05-01T08:06:15.998Z</time></trkpt><trkpt lat="43.36852761495191" lon="10.816264864061017"><ele>103.5</ele><time>2026-05-01T08:06:16.998Z</time></trkpt><trkpt lat="43.36860077179734" lon="10.816394653732415"><ele>104.75</ele><time>2026-05-01T08:06:17.998Z</time></trkpt><trkpt lat="43.36869861418925" lon="10.816499523171592"><ele>106.0</ele><time>2026-05-01T08:06:18.998Z</time></trkpt><trkpt lat="43.36881282684866" lon="10.816578457364315"><ele>105.5</ele><time>2026-05-01T08:06:19.998Z</time></trkpt><trkpt lat="43.36891215153401" lon="10.816661974590488"><ele>105.0</ele><time>2026-05-01T08:06:21.001Z</time></trkpt><trkpt lat="43.36897115049612" lon="10.81678762365946"><ele>104.5</ele><time>2026-05-01T08:06:22.001Z</time></trkpt><trkpt lat="43.369014896961" lon="10.816956204021997"><ele>104.0</ele><time>2026-05-01T08:06:23.001Z</time></trkpt><trkpt lat="43.369068627567756" lon="10.817156273878457"><ele>106.33333333333333</ele><time>2026-05-01T08:06:24.001Z</time></trkpt><trkpt lat="43.36914850069425" lon="10.817383270252998"><ele>108.66666666666666</ele><time>2026-05-01T08:06:25.001Z</time></trkpt><trkpt lat="43.369218138124765" lon="10.817673571395344"><ele>111.0</ele><time>2026-05-01T08:06:26.001Z</time></trkpt><trkpt lat="43.369307897862" lon="10.817991101525962"><ele>113.66666666666666</ele><time>2026-05-01T08:06:27.001Z</time></trkpt><trkpt lat="43.36939108751524" lon="10.818281513409937"><ele>116.33333333333333</ele><time>2026-05-01T08:06:28.001Z</time></trkpt><trkpt lat="43.36946285989715" lon="10.818535893564786"><ele>119.0</ele><time>2026-05-01T08:06:29.001Z</time></trkpt><trkpt lat="43.36957310566264" lon="10.818789663095307"><ele>117.0</ele><time>2026-05-01T08:06:30.001Z</time></trkpt><trkpt lat="43.369717821608766" lon="10.819065866374473"><ele>115.0</ele><time>2026-05-01T08:06:31.001Z</time></trkpt><trkpt lat="43.369880854060135" lon="10.819340479632418"><ele>119.0</ele><time>2026-05-01T08:06:32.001Z</time></trkpt><trkpt lat="43.37002951154427" lon="10.81959663300167"><ele>123.0</ele><time>2026-05-01T08:06:33.001Z</time></trkpt><trkpt lat="43.3701632683103" lon="10.819839555220554"><ele>123.0</ele><time>2026-05-01T08:06:34.001Z</time></trkpt><trkpt lat="43.37029144090113" lon="10.82005700916448"><ele>123.0</ele><time>2026-05-01T08:06:35.001Z</time></trkpt><trkpt lat="43.370437296806024" lon="10.820251318952991"><ele>123.0</ele><time>2026-05-01T08:06:36.001Z</time></trkpt><trkpt lat="43.37061775831262" lon="10.820426897359177"><ele>123.0</ele><time>2026-05-01T08:06:37.001Z</time></trkpt><trkpt lat="43.37083407386536" lon="10.820593763559577"><ele>123.0</ele><time>2026-05-01T08:06:38.001Z</time></trkpt><trkpt lat="43.3710635521441" lon="10.820789612788067"><ele>123.5</ele><time>2026-05-01T08:06:39Z</time></trkpt><trkpt lat="43.371289593987626" lon="10.820987550981314"><ele>124.0</ele><time>2026-05-01T08:06:40Z</time></trkpt><trkpt lat="43.37149806166707" lon="10.821169336691717"><ele>124.0</ele><time>2026-05-01T08:06:41Z</time></trkpt><trkpt lat="43.37168247234323" lon="10.821334044859809"><ele>124.0</ele><time>2026-05-01T08:06:42Z</time></trkpt><trkpt lat="43.37184755212885" lon="10.82148307541919"><ele>124.0</ele><time>2026-05-01T08:06:43Z</time></trkpt><trkpt lat="43.37199317214076" lon="10.821611137858623"><ele>124.0</ele><time>2026-05-01T08:06:44Z</time></trkpt><trkpt lat="43.37212540133115" lon="10.82172284188123"><ele>124.0</ele><time>2026-05-01T08:06:45Z</time></trkpt><trkpt lat="43.37225846312105" lon="10.821804759057768"><ele>124.0</ele><time>2026-05-01T08:06:46Z</time></trkpt><trkpt lat="43.372414502572006" lon="10.821833907256085"><ele>124.0</ele><time>2026-05-01T08:06:47Z</time></trkpt><trkpt lat="43.37259613335632" lon="10.821810604860582"><ele>124.0</ele><time>2026-05-01T08:06:48Z</time></trkpt><trkpt lat="43.372764058557706" lon="10.821781740568733"><ele>124.0</ele><time>2026-05-01T08:06:49Z</time></trkpt><trkpt lat="43.372900988385226" lon="10.82183396347571"><ele>124.66666666666667</ele><time>2026-05-01T08:06:50Z</time></trkpt><trkpt lat="43.37301595577543" lon="10.821958131973917"><ele>125.33333333333334</ele><time>2026-05-01T08:06:51Z</time></trkpt><trkpt lat="43.3731492500947" lon="10.822112297622924"><ele>126.0</ele><time>2026-05-01T08:06:52Z</time></trkpt><trkpt lat="43.37326116506329" lon="10.822299410327208"><ele>126.0</ele><time>2026-05-01T08:06:53Z</time></trkpt><trkpt lat="43.37337688290479" lon="10.822438333349012"><ele>126.0</ele><time>2026-05-01T08:06:54Z</time></trkpt><trkpt lat="43.37351621104157" lon="10.822530818713123"><ele>126.0</ele><time>2026-05-01T08:06:55Z</time></trkpt><trkpt lat="43.37366877008215" lon="10.822573922182942"><ele>126.0</ele><time>2026-05-01T08:06:56Z</time></trkpt><trkpt lat="43.3738357872372" lon="10.822579037214457"><ele>126.0</ele><time>2026-05-01T08:06:57Z</time></trkpt><trkpt lat="43.374013290057746" lon="10.822560449738853"><ele>126.0</ele><time>2026-05-01T08:06:58Z</time></trkpt><trkpt lat="43.374195860485095" lon="10.82252476739204"><ele>128.33333333333334</ele><time>2026-05-01T08:06:59Z</time></trkpt><trkpt lat="43.37438125241349" lon="10.822440496653357"><ele>130.66666666666669</ele><time>2026-05-01T08:07:00Z</time></trkpt><trkpt lat="43.37455987007339" lon="10.822330986343303"><ele>133.0</ele><time>2026-05-01T08:07:01Z</time></trkpt><trkpt lat="43.37470232471056" lon="10.822241028134204"><ele>133.0</ele><time>2026-05-01T08:07:02Z</time></trkpt><trkpt lat="43.37483874063626" lon="10.822174415467673"><ele>133.0</ele><time>2026-05-01T08:07:03Z</time></trkpt><trkpt lat="43.375001140356034" lon="10.822177026347038"><ele>133.0</ele><time>2026-05-01T08:07:04Z</time></trkpt><trkpt lat="43.37518508593727" lon="10.822227461794126"><ele>133.0</ele><time>2026-05-01T08:07:05Z</time></trkpt><trkpt lat="43.37539406436736" lon="10.822281230689407"><ele>133.0</ele><time>2026-05-01T08:07:06Z</time></trkpt><trkpt lat="43.37562708368212" lon="10.822355651691652"><ele>131.0</ele><time>2026-05-01T08:07:07Z</time></trkpt><trkpt lat="43.37588541624965" lon="10.822400584705868"><ele>129.0</ele><time>2026-05-01T08:07:08Z</time></trkpt><trkpt lat="43.3761628235384" lon="10.822433836534831"><ele>129.0</ele><time>2026-05-01T08:07:09Z</time></trkpt><trkpt lat="43.37642222370203" lon="10.822458435154493"><ele>129.0</ele><time>2026-05-01T08:07:10Z</time></trkpt><trkpt lat="43.37664560006268" lon="10.822475901959558"><ele>129.0</ele><time>2026-05-01T08:07:11Z</time></trkpt><trkpt lat="43.37685462697814" lon="10.822490637430493"><ele>129.0</ele><time>2026-05-01T08:07:12Z</time></trkpt><trkpt lat="43.377052916164004" lon="10.822503305325515"><ele>129.0</ele><time>2026-05-01T08:07:13Z</time></trkpt><trkpt lat="43.3772366128208" lon="10.822530196714371"><ele>129.66666666666666</ele><time>2026-05-01T08:07:14Z</time></trkpt><trkpt lat="43.37739265264943" lon="10.822591171259143"><ele>130.33333333333331</ele><time>2026-05-01T08:07:15Z</time></trkpt><trkpt lat="43.37751785767122" lon="10.822709892109492"><ele>131.0</ele><time>2026-05-01T08:07:16Z</time></trkpt><trkpt lat="43.3776306069114" lon="10.822890037420118"><ele>131.0</ele><time>2026-05-01T08:07:17Z</time></trkpt><trkpt lat="43.377726328268935" lon="10.82311080940688"><ele>131.0</ele><time>2026-05-01T08:07:18Z</time></trkpt><trkpt lat="43.37780996798699" lon="10.823324561445453"><ele>131.0</ele><time>2026-05-01T08:07:19Z</time></trkpt><trkpt lat="43.377904600131174" lon="10.823475825550238"><ele>133.0</ele><time>2026-05-01T08:07:20Z</time></trkpt><trkpt lat="43.37802297977907" lon="10.823581030033841"><ele>135.0</ele><time>2026-05-01T08:07:21Z</time></trkpt><trkpt lat="43.378174707261564" lon="10.823652108743676"><ele>137.0</ele><time>2026-05-01T08:07:22Z</time></trkpt><trkpt lat="43.378363677570356" lon="10.82370501431038"><ele>137.0</ele><time>2026-05-01T08:07:23Z</time></trkpt><trkpt lat="43.378564844425036" lon="10.823767615557399"><ele>137.0</ele><time>2026-05-01T08:07:24Z</time></trkpt><trkpt lat="43.3787617260549" lon="10.82383780655559"><ele>137.0</ele><time>2026-05-01T08:07:25Z</time></trkpt><trkpt lat="43.378940420356294" lon="10.823949957904762"><ele>139.33333333333331</ele><time>2026-05-01T08:07:26Z</time></trkpt><trkpt lat="43.37909500178842" lon="10.824160950310043"><ele>141.66666666666666</ele><time>2026-05-01T08:07:26.999Z</time></trkpt><trkpt lat="43.37924576518304" lon="10.824355831645228"><ele>144.0</ele><time>2026-05-01T08:07:27.999Z</time></trkpt><trkpt lat="43.37942438368607" lon="10.824514826933678"><ele>146.0</ele><time>2026-05-01T08:07:28.999Z</time></trkpt><trkpt lat="43.37963352476185" lon="10.824652277647616"><ele>148.0</ele><time>2026-05-01T08:07:29.999Z</time></trkpt><trkpt lat="43.379830517744395" lon="10.82476780173543"><ele>150.0</ele><time>2026-05-01T08:07:30.999Z</time></trkpt><trkpt lat="43.37998237971922" lon="10.824878953099859"><ele>151.0</ele><time>2026-05-01T08:07:31.999Z</time></trkpt><trkpt lat="43.38010196349363" lon="10.825001174621468"><ele>152.0</ele><time>2026-05-01T08:07:32.999Z</time></trkpt><trkpt lat="43.380201208019926" lon="10.825152032173637"><ele>153.0</ele><time>2026-05-01T08:07:33.999Z</time></trkpt><trkpt lat="43.38026584538977" lon="10.825345532151944"><ele>154.66666666666666</ele><time>2026-05-01T08:07:34.999Z</time></trkpt><trkpt lat="43.38028302703499" lon="10.825579451790823"><ele>156.33333333333331</ele><time>2026-05-01T08:07:35.999Z</time></trkpt><trkpt lat="43.38028471526136" lon="10.82583389893329"><ele>158.0</ele><time>2026-05-01T08:07:36.999Z</time></trkpt><trkpt lat="43.38028792309904" lon="10.82611468420109"><ele>158.0</ele><time>2026-05-01T08:07:37.999Z</time></trkpt><trkpt lat="43.38029473964894" lon="10.826359457670394"><ele>158.0</ele><time>2026-05-01T08:07:38.999Z</time></trkpt><trkpt lat="43.38030712924428" lon="10.82656942115673"><ele>158.0</ele><time>2026-05-01T08:07:39.999Z</time></trkpt><trkpt lat="43.38034328810439" lon="10.826746586827506"><ele>158.33333333333331</ele><time>2026-05-01T08:07:40.999Z</time></trkpt><trkpt lat="43.380430058317295" lon="10.826902574798398"><ele>158.66666666666666</ele><time>2026-05-01T08:07:41.999Z</time></trkpt><trkpt lat="43.380553771652636" lon="10.827033164557003"><ele>159.0</ele><time>2026-05-01T08:07:42.999Z</time></trkpt><trkpt lat="43.38070413088513" lon="10.82714766811462"><ele>160.0</ele><time>2026-05-01T08:07:43.999Z</time></trkpt><trkpt lat="43.38082429183619" lon="10.82729213045276"><ele>161.0</ele><time>2026-05-01T08:07:44.999Z</time></trkpt><trkpt lat="43.38090520935637" lon="10.827479053989576"><ele>162.0</ele><time>2026-05-01T08:07:45.999Z</time></trkpt><trkpt lat="43.38096885247148" lon="10.827704460157964"><ele>162.0</ele><time>2026-05-01T08:07:46.999Z</time></trkpt><trkpt lat="43.38102271741043" lon="10.82794422827723"><ele>162.0</ele><time>2026-05-01T08:07:47.999Z</time></trkpt><trkpt lat="43.3810453770277" lon="10.828187872611272"><ele>162.0</ele><time>2026-05-01T08:07:48.999Z</time></trkpt><trkpt lat="43.38103118694821" lon="10.828451750946586"><ele>161.33333333333334</ele><time>2026-05-01T08:07:49.999Z</time></trkpt><trkpt lat="43.38099674764533" lon="10.828744695587368"><ele>160.66666666666669</ele><time>2026-05-01T08:07:50.999Z</time></trkpt><trkpt lat="43.38095821755322" lon="10.82904520340049"><ele>160.0</ele><time>2026-05-01T08:07:51.999Z</time></trkpt><trkpt lat="43.38092295360849" lon="10.829333001126674"><ele>160.0</ele><time>2026-05-01T08:07:52.999Z</time></trkpt><trkpt lat="43.38089011668419" lon="10.829635019224273"><ele>160.0</ele><time>2026-05-01T08:07:53.999Z</time></trkpt><trkpt lat="43.38085637477137" lon="10.829936413227653"><ele>160.0</ele><time>2026-05-01T08:07:54.999Z</time></trkpt><trkpt lat="43.38082527504111" lon="10.830236023668194"><ele>160.33333333333334</ele><time>2026-05-01T08:07:55.999Z</time></trkpt><trkpt lat="43.38079172765189" lon="10.830529518456808"><ele>160.66666666666666</ele><time>2026-05-01T08:07:56.999Z</time></trkpt><trkpt lat="43.380763015347995" lon="10.830814620280561"><ele>161.0</ele><time>2026-05-01T08:07:57.999Z</time></trkpt><trkpt lat="43.380752600948206" lon="10.831080939808233"><ele>162.33333333333331</ele><time>2026-05-01T08:07:58.999Z</time></trkpt><trkpt lat="43.380772711533396" lon="10.831326235262202"><ele>163.66666666666666</ele><time>2026-05-01T08:07:59.999Z</time></trkpt><trkpt lat="43.3808211833594" lon="10.83157067292529"><ele>165.0</ele><time>2026-05-01T08:08:00.999Z</time></trkpt><trkpt lat="43.38087110939314" lon="10.831807759702516"><ele>165.0</ele><time>2026-05-01T08:08:01.999Z</time></trkpt><trkpt lat="43.3809182734834" lon="10.832018628639856"><ele>165.0</ele><time>2026-05-01T08:08:02.998Z</time></trkpt><trkpt lat="43.38096731877994" lon="10.83220979472046"><ele>165.0</ele><time>2026-05-01T08:08:03.998Z</time></trkpt><trkpt lat="43.381019290147194" lon="10.832375141675676"><ele>165.0</ele><time>2026-05-01T08:08:04.998Z</time></trkpt><trkpt lat="43.38107872772572" lon="10.832526445539735"><ele>165.0</ele><time>2026-05-01T08:08:05.998Z</time></trkpt><trkpt lat="43.3811398294333" lon="10.832678721606136"><ele>165.0</ele><time>2026-05-01T08:08:06.998Z</time></trkpt><trkpt lat="43.381202901543425" lon="10.83283183005746"><ele>165.0</ele><time>2026-05-01T08:08:07.998Z</time></trkpt><trkpt lat="43.38127785574423" lon="10.83298322711134"><ele>165.0</ele><time>2026-05-01T08:08:08.998Z</time></trkpt><trkpt lat="43.38136812463973" lon="10.833147742357376"><ele>166.0</ele><time>2026-05-01T08:08:09.998Z</time></trkpt><trkpt lat="43.38146915506911" lon="10.833329505798654"><ele>167.0</ele><time>2026-05-01T08:08:10.998Z</time></trkpt><trkpt lat="43.38158434890389" lon="10.833535458064107"><ele>168.0</ele><time>2026-05-01T08:08:11.998Z</time></trkpt><trkpt lat="43.38171255783889" lon="10.833763523797378"><ele>171.5</ele><time>2026-05-01T08:08:12.998Z</time></trkpt><trkpt lat="43.381852621029346" lon="10.834006608017981"><ele>175.0</ele><time>2026-05-01T08:08:13.998Z</time></trkpt><trkpt lat="43.38199795873043" lon="10.83425248613364"><ele>174.0</ele><time>2026-05-01T08:08:14.998Z</time></trkpt><trkpt lat="43.38214474487328" lon="10.83449313679928"><ele>173.0</ele><time>2026-05-01T08:08:15.998Z</time></trkpt><trkpt lat="43.38230475166293" lon="10.834737245056505"><ele>174.5</ele><time>2026-05-01T08:08:16.997Z</time></trkpt><trkpt lat="43.38247472478873" lon="10.834974542696267"><ele>176.0</ele><time>2026-05-01T08:08:17.997Z</time></trkpt><trkpt lat="43.38265473198727" lon="10.835220502445013"><ele>176.0</ele><time>2026-05-01T08:08:18.997Z</time></trkpt><trkpt lat="43.3828251778804" lon="10.835460396282265"><ele>176.0</ele><time>2026-05-01T08:08:19.997Z</time></trkpt><trkpt lat="43.38299069863602" lon="10.835689856202128"><ele>176.66666666666666</ele><time>2026-05-01T08:08:20.997Z</time></trkpt><trkpt lat="43.3831430322833" lon="10.835893596669743"><ele>177.33333333333334</ele><time>2026-05-01T08:08:21.997Z</time></trkpt><trkpt lat="43.38330029342407" lon="10.83609050245641"><ele>178.0</ele><time>2026-05-01T08:08:22.997Z</time></trkpt><trkpt lat="43.38346790715649" lon="10.836279826700805"><ele>178.0</ele><time>2026-05-01T08:08:23.997Z</time></trkpt><trkpt lat="43.38363321166509" lon="10.836459960008247"><ele>178.0</ele><time>2026-05-01T08:08:24.997Z</time></trkpt><trkpt lat="43.383789860665104" lon="10.836639298878467"><ele>178.0</ele><time>2026-05-01T08:08:25.997Z</time></trkpt><trkpt lat="43.38393493766267" lon="10.836805381766563"><ele>178.66666666666669</ele><time>2026-05-01T08:08:27Z</time></trkpt><trkpt lat="43.384067402445766" lon="10.836957808709785"><ele>179.33333333333334</ele><time>2026-05-01T08:08:28Z</time></trkpt><trkpt lat="43.384187634029736" lon="10.83709425000293"><ele>180.0</ele><time>2026-05-01T08:08:29Z</time></trkpt><trkpt lat="43.38430124098708" lon="10.837223728993452"><ele>180.0</ele><time>2026-05-01T08:08:30Z</time></trkpt><trkpt lat="43.38441700317552" lon="10.837361607814005"><ele>180.0</ele><time>2026-05-01T08:08:31Z</time></trkpt><trkpt lat="43.38453076403648" lon="10.83748760206276"><ele>180.0</ele><time>2026-05-01T08:08:32Z</time></trkpt><trkpt lat="43.38465053814889" lon="10.837587719520508"><ele>180.0</ele><time>2026-05-01T08:08:33Z</time></trkpt><trkpt lat="43.38479831624249" lon="10.837657127057556"><ele>183.33333333333334</ele><time>2026-05-01T08:08:34Z</time></trkpt><trkpt lat="43.38497290493069" lon="10.837684758337508"><ele>186.66666666666669</ele><time>2026-05-01T08:08:35Z</time></trkpt><trkpt lat="43.38517064511068" lon="10.837683858292815"><ele>190.0</ele><time>2026-05-01T08:08:36Z</time></trkpt><trkpt lat="43.38536471796039" lon="10.837681950239183"><ele>192.66666666666669</ele><time>2026-05-01T08:08:37Z</time></trkpt><trkpt lat="43.385560990710715" lon="10.83770809995141"><ele>195.33333333333334</ele><time>2026-05-01T08:08:38Z</time></trkpt><trkpt lat="43.38576823321815" lon="10.837787412733164"><ele>198.0</ele><time>2026-05-01T08:08:39Z</time></trkpt><trkpt lat="43.385987309551176" lon="10.837895862715955"><ele>198.0</ele><time>2026-05-01T08:08:40Z</time></trkpt><trkpt lat="43.38621186759251" lon="10.83801607725659"><ele>198.0</ele><time>2026-05-01T08:08:41Z</time></trkpt><trkpt lat="43.386421952637896" lon="10.83814296046531"><ele>199.33333333333331</ele><time>2026-05-01T08:08:42Z</time></trkpt><trkpt lat="43.386598116155476" lon="10.838267643950095"><ele>200.66666666666666</ele><time>2026-05-01T08:08:43Z</time></trkpt><trkpt lat="43.3867520658476" lon="10.838372025728653"><ele>202.0</ele><time>2026-05-01T08:08:44Z</time></trkpt><trkpt lat="43.386884057916326" lon="10.838473760318076"><ele>205.33333333333331</ele><time>2026-05-01T08:08:45Z</time></trkpt><trkpt lat="43.38698555673087" lon="10.83861194317632"><ele>208.66666666666669</ele><time>2026-05-01T08:08:46Z</time></trkpt><trkpt lat="43.38706717110073" lon="10.838807447003107"><ele>212.0</ele><time>2026-05-01T08:08:47Z</time></trkpt><trkpt lat="43.387128386427996" lon="10.839019435100317"><ele>214.0</ele><time>2026-05-01T08:08:48Z</time></trkpt><trkpt lat="43.387208271444344" lon="10.839210856422415"><ele>216.0</ele><time>2026-05-01T08:08:49Z</time></trkpt><trkpt lat="43.3873375567442" lon="10.83938362873335"><ele>218.0</ele><time>2026-05-01T08:08:49.999Z</time></trkpt><trkpt lat="43.38750228328767" lon="10.83955336245099"><ele>218.0</ele><time>2026-05-01T08:08:50.999Z</time></trkpt><trkpt lat="43.38768120418722" lon="10.839723976908747"><ele>218.0</ele><time>2026-05-01T08:08:51.999Z</time></trkpt><trkpt lat="43.38786220418387" lon="10.839933272183922"><ele>219.5</ele><time>2026-05-01T08:08:52.999Z</time></trkpt><trkpt lat="43.38804055681446" lon="10.840137537236428"><ele>221.0</ele><time>2026-05-01T08:08:53.999Z</time></trkpt><trkpt lat="43.388210727730964" lon="10.84033032648837"><ele>221.0</ele><time>2026-05-01T08:08:54.999Z</time></trkpt><trkpt lat="43.3883643615537" lon="10.840542040769602"><ele>221.0</ele><time>2026-05-01T08:08:55.999Z</time></trkpt><trkpt lat="43.3884997550427" lon="10.84075077627669"><ele>221.0</ele><time>2026-05-01T08:08:56.999Z</time></trkpt><trkpt lat="43.388630925696944" lon="10.840936380443695"><ele>222.66666666666669</ele><time>2026-05-01T08:08:57.999Z</time></trkpt><trkpt lat="43.38874680118517" lon="10.841092466973397"><ele>224.33333333333331</ele><time>2026-05-01T08:08:58.999Z</time></trkpt><trkpt lat="43.38884080770872" lon="10.841261110022675"><ele>226.0</ele><time>2026-05-01T08:08:59.999Z</time></trkpt><trkpt lat="43.388899290422096" lon="10.841434570131604"><ele>226.0</ele><time>2026-05-01T08:09:00.999Z</time></trkpt><trkpt lat="43.38896451567786" lon="10.841585293857916"><ele>226.0</ele><time>2026-05-01T08:09:01.999Z</time></trkpt><trkpt lat="43.38905512548579" lon="10.84169974060769"><ele>226.0</ele><time>2026-05-01T08:09:02.999Z</time></trkpt><trkpt lat="43.38917002670483" lon="10.841782173716158"><ele>226.0</ele><time>2026-05-01T08:09:03.999Z</time></trkpt><trkpt lat="43.389316195805726" lon="10.841816541224835"><ele>226.66666666666666</ele><time>2026-05-01T08:09:04.999Z</time></trkpt><trkpt lat="43.38948043090691" lon="10.841815542342813"><ele>227.33333333333331</ele><time>2026-05-01T08:09:05.999Z</time></trkpt><trkpt lat="43.38965851303989" lon="10.841799769231521"><ele>228.0</ele><time>2026-05-01T08:09:06.999Z</time></trkpt><trkpt lat="43.38983644504864" lon="10.841791970820754"><ele>228.0</ele><time>2026-05-01T08:09:07.999Z</time></trkpt><trkpt lat="43.39001820209395" lon="10.841789293456051"><ele>228.0</ele><time>2026-05-01T08:09:08.999Z</time></trkpt><trkpt lat="43.39020811379787" lon="10.841778550704655"><ele>228.0</ele><time>2026-05-01T08:09:09.999Z</time></trkpt><trkpt lat="43.39037963868517" lon="10.841763805647846"><ele>228.0</ele><time>2026-05-01T08:09:10.999Z</time></trkpt><trkpt lat="43.39053418502886" lon="10.841768927310506"><ele>228.0</ele><time>2026-05-01T08:09:11.999Z</time></trkpt><trkpt lat="43.39067680458546" lon="10.841819186233614"><ele>228.0</ele><time>2026-05-01T08:09:12.999Z</time></trkpt><trkpt lat="43.39081440510698" lon="10.841921771625199"><ele>232.33333333333331</ele><time>2026-05-01T08:09:13.999Z</time></trkpt><trkpt lat="43.390947754369485" lon="10.842068440753795"><ele>236.66666666666666</ele><time>2026-05-01T08:09:14.999Z</time></trkpt><trkpt lat="43.39106766217412" lon="10.842223117424318"><ele>241.0</ele><time>2026-05-01T08:09:15.999Z</time></trkpt><trkpt lat="43.391164107489715" lon="10.842346836009558"><ele>241.0</ele><time>2026-05-01T08:09:16.999Z</time></trkpt><trkpt lat="43.39123420443544" lon="10.842452419744937"><ele>241.00000000000003</ele><time>2026-05-01T08:09:17.999Z</time></trkpt><trkpt lat="43.39126869572569" lon="10.842567850088034"><ele>241.00000000000003</ele><time>2026-05-01T08:09:18.999Z</time></trkpt><trkpt lat="43.3912509826862" lon="10.842685043232729"><ele>241.0</ele><time>2026-05-01T08:09:19.999Z</time></trkpt><trkpt lat="43.391184427704445" lon="10.84277374471861"><ele>241.0</ele><time>2026-05-01T08:09:20.999Z</time></trkpt><trkpt lat="43.39109099885702" lon="10.842795460028166"><ele>241.0</ele><time>2026-05-01T08:09:21.999Z</time></trkpt><trkpt lat="43.39100243720524" lon="10.842729397975884"><ele>241.0</ele><time>2026-05-01T08:09:22.999Z</time></trkpt><trkpt lat="43.390918763775616" lon="10.842637895239319"><ele>241.0</ele><time>2026-05-01T08:09:23.999Z</time></trkpt><trkpt lat="43.39080216790835" lon="10.842564985359195"><ele>241.0</ele><time>2026-05-01T08:09:24.999Z</time></trkpt><trkpt lat="43.39068454420533" lon="10.842497640195333"><ele>241.0</ele><time>2026-05-01T08:09:25.999Z</time></trkpt><trkpt lat="43.39057690120559" lon="10.842479497338397"><ele>241.00000000000003</ele><time>2026-05-01T08:09:26.999Z</time></trkpt><trkpt lat="43.39046398274795" lon="10.842505619925669"><ele>241.00000000000003</ele><time>2026-05-01T08:09:27.999Z</time></trkpt><trkpt lat="43.39037042458059" lon="10.84258596051731"><ele>241.0</ele><time>2026-05-01T08:09:28.999Z</time></trkpt><trkpt lat="43.39030370380552" lon="10.842709246582901"><ele>241.0</ele><time>2026-05-01T08:09:29.999Z</time></trkpt><trkpt lat="43.39026035527125" lon="10.842853334314054"><ele>244.5</ele><time>2026-05-01T08:09:30.999Z</time></trkpt><trkpt lat="43.39025064796313" lon="10.843018389205161"><ele>248.0</ele><time>2026-05-01T08:09:31.999Z</time></trkpt><trkpt lat="43.39027451224233" lon="10.8431920711481"><ele>251.5</ele><time>2026-05-01T08:09:32.999Z</time></trkpt><trkpt lat="43.390333177410575" lon="10.843340833459278"><ele>255.0</ele><time>2026-05-01T08:09:33.999Z</time></trkpt><trkpt lat="43.39043055982379" lon="10.843463516280414"><ele>256.25</ele><time>2026-05-01T08:09:34.999Z</time></trkpt><trkpt lat="43.39056052085906" lon="10.84356974107298"><ele>257.5</ele><time>2026-05-01T08:09:35.999Z</time></trkpt><trkpt lat="43.39070345985225" lon="10.843680315166091"><ele>258.75</ele><time>2026-05-01T08:09:36.998Z</time></trkpt><trkpt lat="43.39080972548703" lon="10.843768370082046"><ele>260.0</ele><time>2026-05-01T08:09:37.998Z</time></trkpt><trkpt lat="43.39089301104037" lon="10.84385774188486"><ele>260.0</ele><time>2026-05-01T08:09:38.998Z</time></trkpt><trkpt lat="43.39094382444771" lon="10.843987446819883"><ele>260.0</ele><time>2026-05-01T08:09:39.998Z</time></trkpt><trkpt lat="43.390937404208515" lon="10.844132479774666"><ele>260.0</ele><time>2026-05-01T08:09:40.998Z</time></trkpt><trkpt lat="43.39087823216295" lon="10.844262482810445"><ele>260.0</ele><time>2026-05-01T08:09:41.998Z</time></trkpt><trkpt lat="43.390787171629846" lon="10.844341045473572"><ele>260.0</ele><time>2026-05-01T08:09:42.998Z</time></trkpt><trkpt lat="43.390687105915866" lon="10.844312145345011"><ele>260.0</ele><time>2026-05-01T08:09:43.998Z</time></trkpt><trkpt lat="43.39057387492638" lon="10.844291387963413"><ele>260.0</ele><time>2026-05-01T08:09:44.998Z</time></trkpt><trkpt lat="43.390437318026244" lon="10.844268748985135"><ele>260.0</ele><time>2026-05-01T08:09:45.998Z</time></trkpt><trkpt lat="43.3902787106927" lon="10.844225962543241"><ele>260.0</ele><time>2026-05-01T08:09:46.998Z</time></trkpt><trkpt lat="43.39013894611368" lon="10.844188350888894"><ele>261.25</ele><time>2026-05-01T08:09:47.998Z</time></trkpt><trkpt lat="43.39000733278612" lon="10.844156746437013"><ele>262.5</ele><time>2026-05-01T08:09:48.998Z</time></trkpt><trkpt lat="43.38988135957351" lon="10.84415626861845"><ele>263.75</ele><time>2026-05-01T08:09:49.998Z</time></trkpt><trkpt lat="43.38975863678006" lon="10.844179112937399"><ele>265.0</ele><time>2026-05-01T08:09:50.998Z</time></trkpt><trkpt lat="43.38964533851037" lon="10.844216454228631"><ele>265.0</ele><time>2026-05-01T08:09:51.998Z</time></trkpt><trkpt lat="43.38953841679993" lon="10.844252046913581"><ele>265.0</ele><time>2026-05-01T08:09:52.998Z</time></trkpt><trkpt lat="43.38943303411118" lon="10.844286621103732"><ele>265.0</ele><time>2026-05-01T08:09:53.998Z</time></trkpt><trkpt lat="43.38932669060881" lon="10.844321497268496"><ele>265.0</ele><time>2026-05-01T08:09:54.998Z</time></trkpt><trkpt lat="43.389222838358656" lon="10.84434640844532"><ele>265.0</ele><time>2026-05-01T08:09:55.998Z</time></trkpt><trkpt lat="43.38913201123573" lon="10.844372354962589"><ele>264.6</ele><time>2026-05-01T08:09:56.998Z</time></trkpt><trkpt lat="43.38904364595248" lon="10.844406283516829"><ele>264.2</ele><time>2026-05-01T08:09:57.998Z</time></trkpt><trkpt lat="43.38895688729362" lon="10.844456660188445"><ele>263.8</ele><time>2026-05-01T08:09:58.998Z</time></trkpt><trkpt lat="43.38887571253168" lon="10.844534833055231"><ele>263.4</ele><time>2026-05-01T08:09:59.998Z</time></trkpt><trkpt lat="43.388802237839386" lon="10.844630823868815"><ele>263.0</ele><time>2026-05-01T08:10:00.998Z</time></trkpt><trkpt lat="43.388745303443045" lon="10.844744247353642"><ele>263.0</ele><time>2026-05-01T08:10:01.998Z</time></trkpt><trkpt lat="43.3887095313577" lon="10.844871592405184"><ele>263.0</ele><time>2026-05-01T08:10:02.998Z</time></trkpt><trkpt lat="43.38868316929827" lon="10.845007284382602"><ele>263.0</ele><time>2026-05-01T08:10:03.998Z</time></trkpt><trkpt lat="43.38866163471839" lon="10.845147227496161"><ele>263.0</ele><time>2026-05-01T08:10:04.998Z</time></trkpt><trkpt lat="43.38864293367682" lon="10.84529314364069"><ele>263.0</ele><time>2026-05-01T08:10:05.998Z</time></trkpt><trkpt lat="43.38863255950737" lon="10.845439346303005"><ele>263.2</ele><time>2026-05-01T08:10:06.998Z</time></trkpt><trkpt lat="43.38863881803652" lon="10.84558309843089"><ele>263.4</ele><time>2026-05-01T08:10:07.998Z</time></trkpt><trkpt lat="43.38866112627422" lon="10.845723600854624"><ele>263.59999999999997</ele><time>2026-05-01T08:10:08.998Z</time></trkpt><trkpt lat="43.38869937485532" lon="10.845849867771479"><ele>263.8</ele><time>2026-05-01T08:10:09.998Z</time></trkpt><trkpt lat="43.38875034456738" lon="10.845956685762529"><ele>264.0</ele><time>2026-05-01T08:10:10.998Z</time></trkpt><trkpt lat="43.38882412637131" lon="10.846044780513266"><ele>266.59999999999997</ele><time>2026-05-01T08:10:11.998Z</time></trkpt><trkpt lat="43.38891035102121" lon="10.846119301516879"><ele>269.2</ele><time>2026-05-01T08:10:12.998Z</time></trkpt><trkpt lat="43.38900288797202" lon="10.84618023159245"><ele>271.79999999999995</ele><time>2026-05-01T08:10:13.998Z</time></trkpt><trkpt lat="43.38909259785866" lon="10.846231588916249"><ele>274.4</ele><time>2026-05-01T08:10:14.998Z</time></trkpt><trkpt lat="43.389180748451054" lon="10.846285469430612"><ele>277.0</ele><time>2026-05-01T08:10:15.998Z</time></trkpt><trkpt lat="43.38927086561017" lon="10.846337953181383"><ele>277.0</ele><time>2026-05-01T08:10:16.998Z</time></trkpt><trkpt lat="43.389366684750904" lon="10.846375237100135"><ele>277.0</ele><time>2026-05-01T08:10:17.998Z</time></trkpt><trkpt lat="43.38947298249556" lon="10.846384594819781"><ele>277.0</ele><time>2026-05-01T08:10:18.998Z</time></trkpt><trkpt lat="43.38958036052964" lon="10.846368450293943"><ele>277.0</ele><time>2026-05-01T08:10:19.998Z</time></trkpt><trkpt lat="43.38968876164394" lon="10.846316122249084"><ele>277.0</ele><time>2026-05-01T08:10:20.998Z</time></trkpt><trkpt lat="43.389791786949026" lon="10.846242763401982"><ele>279.6</ele><time>2026-05-01T08:10:21.998Z</time></trkpt><trkpt lat="43.38988765702732" lon="10.846162813307405"><ele>282.2</ele><time>2026-05-01T08:10:22.998Z</time></trkpt><trkpt lat="43.38998594897105" lon="10.846093104242268"><ele>284.8</ele><time>2026-05-01T08:10:23.998Z</time></trkpt><trkpt lat="43.3900886038174" lon="10.846041467738576"><ele>287.4</ele><time>2026-05-01T08:10:24.998Z</time></trkpt><trkpt lat="43.390194293148404" lon="10.846013802806882"><ele>290.0</ele><time>2026-05-01T08:10:25.997Z</time></trkpt><trkpt lat="43.390303802444414" lon="10.846010571234608"><ele>290.0</ele><time>2026-05-01T08:10:26.997Z</time></trkpt><trkpt lat="43.39040664762087" lon="10.846030893835655"><ele>290.0</ele><time>2026-05-01T08:10:27.997Z</time></trkpt><trkpt lat="43.390500319997905" lon="10.846076815168427"><ele>290.0</ele><time>2026-05-01T08:10:28.997Z</time></trkpt><trkpt lat="43.390582818891154" lon="10.846155108287286"><ele>290.0</ele><time>2026-05-01T08:10:29.997Z</time></trkpt><trkpt lat="43.39065526453344" lon="10.846259823973073"><ele>290.0</ele><time>2026-05-01T08:10:30.997Z</time></trkpt><trkpt lat="43.390724417556356" lon="10.846389323291604"><ele>290.33333333333337</ele><time>2026-05-01T08:10:32Z</time></trkpt><trkpt lat="43.39079907108761" lon="10.846536949019528"><ele>290.6666666666667</ele><time>2026-05-01T08:10:33Z</time></trkpt><trkpt lat="43.39087586373347" lon="10.846741439980566"><ele>291.0</ele><time>2026-05-01T08:10:34Z</time></trkpt><trkpt lat="43.39097169632534" lon="10.846964426259548"><ele>291.6666666666667</ele><time>2026-05-01T08:10:35Z</time></trkpt><trkpt lat="43.391060563424794" lon="10.847160475742"><ele>292.33333333333337</ele><time>2026-05-01T08:10:36Z</time></trkpt><trkpt lat="43.39114202987399" lon="10.847366229227942"><ele>293.0</ele><time>2026-05-01T08:10:37Z</time></trkpt><trkpt lat="43.3912247423658" lon="10.847556912961588"><ele>292.33333333333337</ele><time>2026-05-01T08:10:38Z</time></trkpt><trkpt lat="43.39131307402953" lon="10.847738662410846"><ele>291.6666666666667</ele><time>2026-05-01T08:10:39Z</time></trkpt><trkpt lat="43.3914237829633" lon="10.84791172908991"><ele>291.0</ele><time>2026-05-01T08:10:40Z</time></trkpt><trkpt lat="43.39156108476379" lon="10.848083827638584"><ele>291.0</ele><time>2026-05-01T08:10:41Z</time></trkpt><trkpt lat="43.39172529318152" lon="10.848259498929682"><ele>291.0</ele><time>2026-05-01T08:10:42Z</time></trkpt><trkpt lat="43.391903877390305" lon="10.848447216552014"><ele>291.0</ele><time>2026-05-01T08:10:43Z</time></trkpt><trkpt lat="43.392080023278176" lon="10.848630565795991"><ele>293.6666666666667</ele><time>2026-05-01T08:10:44Z</time></trkpt><trkpt lat="43.392234142612004" lon="10.848781449987472"><ele>296.33333333333337</ele><time>2026-05-01T08:10:45Z</time></trkpt><trkpt lat="43.39239167773296" lon="10.848908708461538"><ele>299.0</ele><time>2026-05-01T08:10:46Z</time></trkpt><trkpt lat="43.392566258386864" lon="10.849006604454761"><ele>299.0</ele><time>2026-05-01T08:10:47Z</time></trkpt><trkpt lat="43.392743797983215" lon="10.849082108925622"><ele>299.0</ele><time>2026-05-01T08:10:48Z</time></trkpt><trkpt lat="43.39290980047499" lon="10.849126852910215"><ele>299.0</ele><time>2026-05-01T08:10:49Z</time></trkpt><trkpt lat="43.39309335851795" lon="10.849138226159576"><ele>302.6666666666667</ele><time>2026-05-01T08:10:50Z</time></trkpt><trkpt lat="43.39329037903477" lon="10.849122007981158"><ele>306.3333333333333</ele><time>2026-05-01T08:10:51Z</time></trkpt><trkpt lat="43.393482628418" lon="10.849084612428328"><ele>310.0</ele><time>2026-05-01T08:10:52Z</time></trkpt><trkpt lat="43.393672822293716" lon="10.849063166549712"><ele>311.3333333333333</ele><time>2026-05-01T08:10:53Z</time></trkpt><trkpt lat="43.39387809825643" lon="10.849077102601054"><ele>312.6666666666667</ele><time>2026-05-01T08:10:54Z</time></trkpt><trkpt lat="43.39405590297682" lon="10.849127063914535"><ele>314.0</ele><time>2026-05-01T08:10:55Z</time></trkpt><trkpt lat="43.39419787070525" lon="10.849175905293322"><ele>314.0</ele><time>2026-05-01T08:10:56Z</time></trkpt><trkpt lat="43.394324607617" lon="10.84919152942463"><ele>314.0</ele><time>2026-05-01T08:10:57Z</time></trkpt><trkpt lat="43.394434290858435" lon="10.84914920198596"><ele>314.0</ele><time>2026-05-01T08:10:58Z</time></trkpt><trkpt lat="43.39453872424351" lon="10.849048341416513"><ele>314.0</ele><time>2026-05-01T08:10:58.999Z</time></trkpt><trkpt lat="43.39462347086547" lon="10.848891259558473"><ele>315.25</ele><time>2026-05-01T08:10:59.999Z</time></trkpt><trkpt lat="43.39468386156022" lon="10.848692034307584"><ele>316.5</ele><time>2026-05-01T08:11:00.999Z</time></trkpt><trkpt lat="43.39472498979734" lon="10.848502811851983"><ele>317.75</ele><time>2026-05-01T08:11:01.999Z</time></trkpt><trkpt lat="43.39478182591491" lon="10.848339628196676"><ele>319.0</ele><time>2026-05-01T08:11:02.999Z</time></trkpt><trkpt lat="43.39486388851997" lon="10.848201108404918"><ele>319.0</ele><time>2026-05-01T08:11:03.999Z</time></trkpt><trkpt lat="43.394969641007826" lon="10.848113648047534"><ele>319.0</ele><time>2026-05-01T08:11:04.999Z</time></trkpt><trkpt lat="43.395077084950266" lon="10.848068874489757"><ele>319.0</ele><time>2026-05-01T08:11:05.999Z</time></trkpt><trkpt lat="43.39517213618704" lon="10.84807818612455"><ele>319.0</ele><time>2026-05-01T08:11:06.999Z</time></trkpt><trkpt lat="43.39523799594314" lon="10.848146979795104"><ele>319.0</ele><time>2026-05-01T08:11:07.999Z</time></trkpt><trkpt lat="43.39527780682154" lon="10.84826204607092"><ele>319.0</ele><time>2026-05-01T08:11:08.999Z</time></trkpt><trkpt lat="43.395277440143786" lon="10.848393362239273"><ele>319.0</ele><time>2026-05-01T08:11:09.999Z</time></trkpt><trkpt lat="43.39524210244797" lon="10.848511130941533"><ele>319.0</ele><time>2026-05-01T08:11:10.999Z</time></trkpt><trkpt lat="43.3952137980074" lon="10.84862332032619"><ele>319.0</ele><time>2026-05-01T08:11:11.999Z</time></trkpt><trkpt lat="43.39519029027538" lon="10.84873257467597"><ele>319.0</ele><time>2026-05-01T08:11:12.999Z</time></trkpt><trkpt lat="43.39516338690579" lon="10.848845311309832"><ele>319.0</ele><time>2026-05-01T08:11:13.999Z</time></trkpt><trkpt lat="43.39513539195081" lon="10.848957300424075"><ele>320.2</ele><time>2026-05-01T08:11:14.999Z</time></trkpt><trkpt lat="43.39510360539533" lon="10.849073958948672"><ele>321.4</ele><time>2026-05-01T08:11:15.999Z</time></trkpt><trkpt lat="43.39506964797367" lon="10.849193409839035"><ele>322.6</ele><time>2026-05-01T08:11:16.999Z</time></trkpt><trkpt lat="43.39503866963655" lon="10.849321439669026"><ele>323.8</ele><time>2026-05-01T08:11:17.999Z</time></trkpt><trkpt lat="43.395005312344466" lon="10.849452306276168"><ele>325.0</ele><time>2026-05-01T08:11:18.999Z</time></trkpt><trkpt lat="43.39496268584757" lon="10.849580479747486"><ele>326.6</ele><time>2026-05-01T08:11:19.999Z</time></trkpt><trkpt lat="43.3949145792369" lon="10.849704552752366"><ele>328.2</ele><time>2026-05-01T08:11:20.999Z</time></trkpt><trkpt lat="43.39487184623449" lon="10.84983016613719"><ele>329.79999999999995</ele><time>2026-05-01T08:11:21.999Z</time></trkpt><trkpt lat="43.394835801021955" lon="10.849954587223364"><ele>331.4</ele><time>2026-05-01T08:11:22.999Z</time></trkpt><trkpt lat="43.39479716908073" lon="10.850071249370542"><ele>333.0</ele><time>2026-05-01T08:11:23.999Z</time></trkpt><trkpt lat="43.39475765350389" lon="10.850178164541669"><ele>333.0</ele><time>2026-05-01T08:11:24.999Z</time></trkpt><trkpt lat="43.394726290483064" lon="10.850279566225598"><ele>333.0</ele><time>2026-05-01T08:11:25.999Z</time></trkpt><trkpt lat="43.39471087050627" lon="10.850375447462422"><ele>333.0</ele><time>2026-05-01T08:11:26.999Z</time></trkpt><trkpt lat="43.394745456477644" lon="10.850517767740886"><ele>333.0</ele><time>2026-05-01T08:11:28.999Z</time></trkpt><trkpt lat="43.39486434939909" lon="10.850553948056326"><ele>333.0</ele><time>2026-05-01T08:11:30.999Z</time></trkpt><trkpt lat="43.39492177853224" lon="10.850493076920358"><ele>333.0</ele><time>2026-05-01T08:11:31.999Z</time></trkpt><trkpt lat="43.39495867840663" lon="10.850383724043331"><ele>333.0</ele><time>2026-05-01T08:11:32.999Z</time></trkpt><trkpt lat="43.39498833743338" lon="10.850265941847505"><ele>333.0</ele><time>2026-05-01T08:11:33.999Z</time></trkpt><trkpt lat="43.395021950220794" lon="10.850135498589198"><ele>333.0</ele><time>2026-05-01T08:11:34.999Z</time></trkpt><trkpt lat="43.39507057701164" lon="10.850008708873576"><ele>333.0</ele><time>2026-05-01T08:11:35.999Z</time></trkpt><trkpt lat="43.3951476341196" lon="10.849895702787247"><ele>333.25</ele><time>2026-05-01T08:11:36.999Z</time></trkpt><trkpt lat="43.39524243494227" lon="10.849791602886377"><ele>333.5</ele><time>2026-05-01T08:11:37.999Z</time></trkpt><trkpt lat="43.39534461617594" lon="10.849692034244418"><ele>333.75</ele><time>2026-05-01T08:11:38.999Z</time></trkpt><trkpt lat="43.39544150023483" lon="10.84959333454831"><ele>334.0</ele><time>2026-05-01T08:11:39.999Z</time></trkpt><trkpt lat="43.39554119071583" lon="10.849495091593212"><ele>335.0</ele><time>2026-05-01T08:11:40.999Z</time></trkpt><trkpt lat="43.39565512483777" lon="10.849406873460685"><ele>336.0</ele><time>2026-05-01T08:11:41.999Z</time></trkpt><trkpt lat="43.39577681014645" lon="10.849336074503876"><ele>337.0</ele><time>2026-05-01T08:11:42.999Z</time></trkpt><trkpt lat="43.39589913100348" lon="10.849279473991228"><ele>338.0</ele><time>2026-05-01T08:11:43.999Z</time></trkpt><trkpt lat="43.39602293982433" lon="10.84923143373543"><ele>338.0</ele><time>2026-05-01T08:11:44.999Z</time></trkpt><trkpt lat="43.396142017297365" lon="10.849185125940839"><ele>338.0</ele><time>2026-05-01T08:11:45.998Z</time></trkpt><trkpt lat="43.3962500883988" lon="10.84912649040712"><ele>338.0</ele><time>2026-05-01T08:11:46.998Z</time></trkpt><trkpt lat="43.3963555092769" lon="10.849050634369767"><ele>338.0</ele><time>2026-05-01T08:11:47.998Z</time></trkpt><trkpt lat="43.39645156349319" lon="10.848957702625293"><ele>341.0</ele><time>2026-05-01T08:11:48.998Z</time></trkpt><trkpt lat="43.39654018260503" lon="10.848851454471129"><ele>344.0</ele><time>2026-05-01T08:11:49.998Z</time></trkpt><trkpt lat="43.39662367398673" lon="10.848736188741816"><ele>347.0</ele><time>2026-05-01T08:11:50.998Z</time></trkpt><trkpt lat="43.39670835832109" lon="10.84862573477556"><ele>350.0</ele><time>2026-05-01T08:11:51.998Z</time></trkpt><trkpt lat="43.396792607351905" lon="10.848526538886706"><ele>348.8</ele><time>2026-05-01T08:11:52.998Z</time></trkpt><trkpt lat="43.39687142250074" lon="10.848437062142299"><ele>347.6</ele><time>2026-05-01T08:11:53.998Z</time></trkpt><trkpt lat="43.39694082006197" lon="10.848364433802418"><ele>346.4</ele><time>2026-05-01T08:11:54.998Z</time></trkpt><trkpt lat="43.39700163906404" lon="10.848316517825268"><ele>345.2</ele><time>2026-05-01T08:11:55.998Z</time></trkpt><trkpt lat="43.397108571330484" lon="10.848305760485093"><ele>344.0</ele><time>2026-05-01T08:11:57.998Z</time></trkpt><trkpt lat="43.397209985902286" lon="10.848426700441133"><ele>345.2</ele><time>2026-05-01T08:11:59.998Z</time></trkpt><trkpt lat="43.39722498835067" lon="10.848536034377323"><ele>346.4</ele><time>2026-05-01T08:12:00.998Z</time></trkpt><trkpt lat="43.397205002982744" lon="10.848647522881057"><ele>347.6</ele><time>2026-05-01T08:12:01.998Z</time></trkpt><trkpt lat="43.39716027648247" lon="10.848757700008358"><ele>348.8</ele><time>2026-05-01T08:12:02.998Z</time></trkpt><trkpt lat="43.397110362496434" lon="10.848871275907976"><ele>350.0</ele><time>2026-05-01T08:12:03.998Z</time></trkpt><trkpt lat="43.397059821549" lon="10.848994903000417"><ele>350.0</ele><time>2026-05-01T08:12:04.998Z</time></trkpt><trkpt lat="43.39699890816079" lon="10.849131824740326"><ele>350.0</ele><time>2026-05-01T08:12:05.998Z</time></trkpt><trkpt lat="43.39692951179995" lon="10.849291503576634"><ele>350.0</ele><time>2026-05-01T08:12:06.998Z</time></trkpt><trkpt lat="43.39686391085399" lon="10.849452497212758"><ele>350.0</ele><time>2026-05-01T08:12:07.998Z</time></trkpt><trkpt lat="43.39679803570678" lon="10.849609487211511"><ele>352.5</ele><time>2026-05-01T08:12:08.998Z</time></trkpt><trkpt lat="43.39673223690844" lon="10.849766401363107"><ele>355.0</ele><time>2026-05-01T08:12:09.998Z</time></trkpt><trkpt lat="43.39667083234224" lon="10.849924664309517"><ele>357.5</ele><time>2026-05-01T08:12:10.998Z</time></trkpt><trkpt lat="43.39661943636703" lon="10.850089970169982"><ele>360.0</ele><time>2026-05-01T08:12:11.998Z</time></trkpt><trkpt lat="43.39658099352181" lon="10.85026159691112"><ele>362.0</ele><time>2026-05-01T08:12:12.998Z</time></trkpt><trkpt lat="43.39654428944998" lon="10.85043160273944"><ele>364.0</ele><time>2026-05-01T08:12:13.998Z</time></trkpt><trkpt lat="43.396506750241095" lon="10.850599124307534"><ele>366.0</ele><time>2026-05-01T08:12:14.998Z</time></trkpt><trkpt lat="43.396473336840366" lon="10.850771187464504"><ele>368.0</ele><time>2026-05-01T08:12:15.998Z</time></trkpt><trkpt lat="43.39644437302756" lon="10.85094482169267"><ele>369.5</ele><time>2026-05-01T08:12:16.998Z</time></trkpt><trkpt lat="43.3964129060707" lon="10.851119754147806"><ele>371.0</ele><time>2026-05-01T08:12:17.998Z</time></trkpt><trkpt lat="43.396379637938225" lon="10.851291128241224"><ele>372.5</ele><time>2026-05-01T08:12:18.998Z</time></trkpt><trkpt lat="43.396352119202916" lon="10.851468186976856"><ele>374.0</ele><time>2026-05-01T08:12:19.998Z</time></trkpt><trkpt lat="43.39633839726154" lon="10.851647504160137"><ele>371.5</ele><time>2026-05-01T08:12:20.998Z</time></trkpt><trkpt lat="43.39632323617939" lon="10.851827209211445"><ele>369.0</ele><time>2026-05-01T08:12:21.998Z</time></trkpt><trkpt lat="43.396307707293715" lon="10.852003670041817"><ele>366.5</ele><time>2026-05-01T08:12:22.998Z</time></trkpt><trkpt lat="43.396289780606445" lon="10.852178767844816"><ele>364.0</ele><time>2026-05-01T08:12:23.998Z</time></trkpt><trkpt lat="43.396257819866506" lon="10.852347766461973"><ele>364.0</ele><time>2026-05-01T08:12:24.998Z</time></trkpt><trkpt lat="43.396211861525906" lon="10.85250480324929"><ele>364.0</ele><time>2026-05-01T08:12:25.998Z</time></trkpt><trkpt lat="43.39615380296672" lon="10.852648180827188"><ele>364.0</ele><time>2026-05-01T08:12:26.998Z</time></trkpt><trkpt lat="43.39607634844529" lon="10.852760879863252"><ele>364.0</ele><time>2026-05-01T08:12:27.998Z</time></trkpt><trkpt lat="43.3959872265479" lon="10.852844527995307"><ele>365.3333333333333</ele><time>2026-05-01T08:12:28.998Z</time></trkpt><trkpt lat="43.39589668159417" lon="10.852915395334339"><ele>366.66666666666663</ele><time>2026-05-01T08:12:29.998Z</time></trkpt><trkpt lat="43.39581805729645" lon="10.852987534189616"><ele>368.0</ele><time>2026-05-01T08:12:30.998Z</time></trkpt><trkpt lat="43.39575064013161" lon="10.853065517409664"><ele>369.3333333333333</ele><time>2026-05-01T08:12:31.998Z</time></trkpt><trkpt lat="43.395704432021255" lon="10.85313816485994"><ele>370.6666666666667</ele><time>2026-05-01T08:12:32.998Z</time></trkpt><trkpt lat="43.395673918982894" lon="10.85321914555405"><ele>372.0</ele><time>2026-05-01T08:12:33.998Z</time></trkpt><trkpt lat="43.39566075656264" lon="10.853380330279968"><ele>372.0</ele><time>2026-05-01T08:12:35.997Z</time></trkpt><trkpt lat="43.39572229846087" lon="10.853505918771951"><ele>372.0</ele><time>2026-05-01T08:12:38Z</time></trkpt><trkpt lat="43.39579073948476" lon="10.853531134070975"><ele>372.0</ele><time>2026-05-01T08:12:39Z</time></trkpt><trkpt lat="43.39587684302864" lon="10.853500592437266"><ele>372.0</ele><time>2026-05-01T08:12:40Z</time></trkpt><trkpt lat="43.3959516046408" lon="10.853436975687346"><ele>372.0</ele><time>2026-05-01T08:12:41Z</time></trkpt><trkpt lat="43.39602884838161" lon="10.85336137079646"><ele>372.0</ele><time>2026-05-01T08:12:42Z</time></trkpt><trkpt lat="43.39611180226264" lon="10.853294543757045"><ele>372.0</ele><time>2026-05-01T08:12:43Z</time></trkpt><trkpt lat="43.39620370108459" lon="10.853226599265392"><ele>372.0</ele><time>2026-05-01T08:12:44Z</time></trkpt><trkpt lat="43.39630131684825" lon="10.853151091300598"><ele>372.0</ele><time>2026-05-01T08:12:45Z</time></trkpt><trkpt lat="43.39640333714637" lon="10.853072500739762"><ele>372.0</ele><time>2026-05-01T08:12:46Z</time></trkpt><trkpt lat="43.39650936612173" lon="10.852990911713821"><ele>376.0</ele><time>2026-05-01T08:12:47Z</time></trkpt><trkpt lat="43.39661423036155" lon="10.852910927851141"><ele>380.0</ele><time>2026-05-01T08:12:48Z</time></trkpt><trkpt lat="43.396715992286396" lon="10.852826566946005"><ele>384.0</ele><time>2026-05-01T08:12:49Z</time></trkpt><trkpt lat="43.39681272589146" lon="10.852734778053998"><ele>388.0</ele><time>2026-05-01T08:12:50Z</time></trkpt><trkpt lat="43.396895008909716" lon="10.852625599500845"><ele>386.79999999999995</ele><time>2026-05-01T08:12:51Z</time></trkpt><trkpt lat="43.3969694680104" lon="10.852518865035625"><ele>385.6</ele><time>2026-05-01T08:12:52Z</time></trkpt><trkpt lat="43.39703712666135" lon="10.852413169754838"><ele>384.4</ele><time>2026-05-01T08:12:53Z</time></trkpt><trkpt lat="43.397100054902204" lon="10.852308689011563"><ele>383.20000000000005</ele><time>2026-05-01T08:12:54Z</time></trkpt><trkpt lat="43.39716359810544" lon="10.85220711010536"><ele>382.0</ele><time>2026-05-01T08:12:55Z</time></trkpt><trkpt lat="43.39722385512947" lon="10.852106315567935"><ele>383.20000000000005</ele><time>2026-05-01T08:12:56Z</time></trkpt><trkpt lat="43.39728382561833" lon="10.852002274816186"><ele>384.4</ele><time>2026-05-01T08:12:57Z</time></trkpt><trkpt lat="43.39734901562003" lon="10.851901570139344"><ele>385.6</ele><time>2026-05-01T08:12:58Z</time></trkpt><trkpt lat="43.39741647443509" lon="10.851797046015882"><ele>386.79999999999995</ele><time>2026-05-01T08:12:59Z</time></trkpt><trkpt lat="43.39749082271373" lon="10.851697479506448"><ele>388.0</ele><time>2026-05-01T08:13:00Z</time></trkpt><trkpt lat="43.397577368365965" lon="10.851608493221043"><ele>388.0</ele><time>2026-05-01T08:13:01Z</time></trkpt><trkpt lat="43.39767380205341" lon="10.85153276409598"><ele>388.0</ele><time>2026-05-01T08:13:02Z</time></trkpt><trkpt lat="43.39777401724773" lon="10.851464840436591"><ele>388.0</ele><time>2026-05-01T08:13:03Z</time></trkpt><trkpt lat="43.39786831474889" lon="10.851393640182641"><ele>388.0</ele><time>2026-05-01T08:13:04Z</time></trkpt><trkpt lat="43.39795610471256" lon="10.85133113301766"><ele>388.0</ele><time>2026-05-01T08:13:05Z</time></trkpt><trkpt lat="43.398033882613404" lon="10.85127776194881"><ele>389.6666666666667</ele><time>2026-05-01T08:13:06Z</time></trkpt><trkpt lat="43.39809792537721" lon="10.851230462017417"><ele>391.33333333333337</ele><time>2026-05-01T08:13:07Z</time></trkpt><trkpt lat="43.398160742102384" lon="10.851194664421183"><ele>393.0</ele><time>2026-05-01T08:13:08Z</time></trkpt><trkpt lat="43.39823355115107" lon="10.85118599277999"><ele>394.66666666666663</ele><time>2026-05-01T08:13:09Z</time></trkpt><trkpt lat="43.398314692302556" lon="10.85121697602453"><ele>396.3333333333333</ele><time>2026-05-01T08:13:09.999Z</time></trkpt><trkpt lat="43.398385721577235" lon="10.851284346964404"><ele>398.0</ele><time>2026-05-01T08:13:10.999Z</time></trkpt><trkpt lat="43.39844234856391" lon="10.851370154628427"><ele>398.0</ele><time>2026-05-01T08:13:11.999Z</time></trkpt><trkpt lat="43.39848245185185" lon="10.85147230548086"><ele>398.0</ele><time>2026-05-01T08:13:12.999Z</time></trkpt><trkpt lat="43.398512828086524" lon="10.85159486662972"><ele>398.0</ele><time>2026-05-01T08:13:13.999Z</time></trkpt><trkpt lat="43.39854028801391" lon="10.85172305725458"><ele>398.0</ele><time>2026-05-01T08:13:14.999Z</time></trkpt><trkpt lat="43.398574110000744" lon="10.851860134360438"><ele>398.0</ele><time>2026-05-01T08:13:15.999Z</time></trkpt><trkpt lat="43.398606648623094" lon="10.851997919554572"><ele>398.59999999999997</ele><time>2026-05-01T08:13:16.999Z</time></trkpt><trkpt lat="43.398633065072254" lon="10.852131914623993"><ele>399.2</ele><time>2026-05-01T08:13:17.999Z</time></trkpt><trkpt lat="43.398666382327654" lon="10.852269285367386"><ele>399.8</ele><time>2026-05-01T08:13:18.999Z</time></trkpt><trkpt lat="43.39871719826825" lon="10.852395567322668"><ele>400.4</ele><time>2026-05-01T08:13:19.999Z</time></trkpt><trkpt lat="43.39878564261134" lon="10.852505334496781"><ele>401.0</ele><time>2026-05-01T08:13:20.999Z</time></trkpt><trkpt lat="43.39886164856685" lon="10.852599790821712"><ele>402.8</ele><time>2026-05-01T08:13:21.999Z</time></trkpt><trkpt lat="43.39893838483837" lon="10.85268452298893"><ele>404.6</ele><time>2026-05-01T08:13:22.999Z</time></trkpt><trkpt lat="43.39901667307709" lon="10.852769461455555"><ele>406.4</ele><time>2026-05-01T08:13:23.999Z</time></trkpt><trkpt lat="43.39909212204288" lon="10.852861818946959"><ele>408.2</ele><time>2026-05-01T08:13:24.999Z</time></trkpt><trkpt lat="43.39916494432741" lon="10.852960559559564"><ele>410.0</ele><time>2026-05-01T08:13:25.999Z</time></trkpt><trkpt lat="43.39923804069084" lon="10.853052379082374"><ele>410.0</ele><time>2026-05-01T08:13:26.999Z</time></trkpt><trkpt lat="43.39931716517505" lon="10.853123913685778"><ele>410.0</ele><time>2026-05-01T08:13:27.999Z</time></trkpt><trkpt lat="43.39940542972493" lon="10.853167035277465"><ele>410.0</ele><time>2026-05-01T08:13:28.999Z</time></trkpt><trkpt lat="43.39950010071199" lon="10.853179820746664"><ele>410.0</ele><time>2026-05-01T08:13:29.999Z</time></trkpt><trkpt lat="43.39959431619916" lon="10.85314472554152"><ele>410.0</ele><time>2026-05-01T08:13:30.999Z</time></trkpt><trkpt lat="43.39967917168053" lon="10.85305270295517"><ele>410.2</ele><time>2026-05-01T08:13:31.999Z</time></trkpt><trkpt lat="43.39974686329868" lon="10.852930247981243"><ele>410.4</ele><time>2026-05-01T08:13:32.999Z</time></trkpt><trkpt lat="43.39980490410922" lon="10.852800476281859"><ele>410.6</ele><time>2026-05-01T08:13:33.999Z</time></trkpt><trkpt lat="43.3998626734819" lon="10.852678702141578"><ele>410.8</ele><time>2026-05-01T08:13:34.999Z</time></trkpt><trkpt lat="43.3999300960379" lon="10.852566731907709"><ele>411.0</ele><time>2026-05-01T08:13:35.999Z</time></trkpt><trkpt lat="43.400013907738966" lon="10.85247007188333"><ele>411.0</ele><time>2026-05-01T08:13:36.999Z</time></trkpt><trkpt lat="43.400107661953626" lon="10.852388275792674"><ele>411.0</ele><time>2026-05-01T08:13:37.999Z</time></trkpt><trkpt lat="43.40020321772159" lon="10.85231088624922"><ele>411.0</ele><time>2026-05-01T08:13:38.999Z</time></trkpt><trkpt lat="43.400294630298504" lon="10.852231263071776"><ele>411.0</ele><time>2026-05-01T08:13:39.999Z</time></trkpt><trkpt lat="43.400381498632505" lon="10.85215076147889"><ele>411.0</ele><time>2026-05-01T08:13:40.999Z</time></trkpt><trkpt lat="43.40046565087819" lon="10.852073876460572"><ele>411.4</ele><time>2026-05-01T08:13:41.999Z</time></trkpt><trkpt lat="43.400553040911674" lon="10.852001245729934"><ele>411.8</ele><time>2026-05-01T08:13:42.999Z</time></trkpt><trkpt lat="43.40064191604813" lon="10.851928765737926"><ele>412.2</ele><time>2026-05-01T08:13:43.999Z</time></trkpt><trkpt lat="43.40072374592525" lon="10.851852637530826"><ele>412.59999999999997</ele><time>2026-05-01T08:13:44.999Z</time></trkpt><trkpt lat="43.40080298762785" lon="10.851772962836133"><ele>413.0</ele><time>2026-05-01T08:13:45.999Z</time></trkpt><trkpt lat="43.40088651849791" lon="10.851702707619278"><ele>413.0</ele><time>2026-05-01T08:13:46.999Z</time></trkpt><trkpt lat="43.40097646153826" lon="10.851648201089972"><ele>413.0</ele><time>2026-05-01T08:13:47.999Z</time></trkpt><trkpt lat="43.40107561063799" lon="10.851612064539111"><ele>413.0</ele><time>2026-05-01T08:13:48.999Z</time></trkpt><trkpt lat="43.40117728486067" lon="10.851584309241904"><ele>413.0</ele><time>2026-05-01T08:13:49.999Z</time></trkpt><trkpt lat="43.40127871692435" lon="10.851551098565974"><ele>413.0</ele><time>2026-05-01T08:13:50.999Z</time></trkpt><trkpt lat="43.401380742188245" lon="10.851512484134554"><ele>415.16666666666663</ele><time>2026-05-01T08:13:51.999Z</time></trkpt><trkpt lat="43.40148346690644" lon="10.851471115016613"><ele>417.3333333333333</ele><time>2026-05-01T08:13:52.999Z</time></trkpt><trkpt lat="43.40158284318465" lon="10.851429802739808"><ele>419.5</ele><time>2026-05-01T08:13:53.999Z</time></trkpt><trkpt lat="43.40166494814908" lon="10.851397052578747"><ele>421.66666666666663</ele><time>2026-05-01T08:13:54.999Z</time></trkpt><trkpt lat="43.40174324958072" lon="10.85137038079899"><ele>423.8333333333333</ele><time>2026-05-01T08:13:55.999Z</time></trkpt><trkpt lat="43.40181040663352" lon="10.851348800799553"><ele>426.0</ele><time>2026-05-01T08:13:56.999Z</time></trkpt><trkpt lat="43.40191486667372" lon="10.85132907000214"><ele>426.0</ele><time>2026-05-01T08:13:58.998Z</time></trkpt><trkpt lat="43.40200392389462" lon="10.851388532524448"><ele>426.0</ele><time>2026-05-01T08:14:00.998Z</time></trkpt><trkpt lat="43.401999424954745" lon="10.851546231840562"><ele>426.0</ele><time>2026-05-01T08:14:02.998Z</time></trkpt><trkpt lat="43.4018908028054" lon="10.851642877140169"><ele>426.0</ele><time>2026-05-01T08:14:04.998Z</time></trkpt><trkpt lat="43.401811511253584" lon="10.851682385438622"><ele>426.0</ele><time>2026-05-01T08:14:05.998Z</time></trkpt><trkpt lat="43.40172451180542" lon="10.851737448169198"><ele>426.0</ele><time>2026-05-01T08:14:06.998Z</time></trkpt><trkpt lat="43.401630735370965" lon="10.851774879268289"><ele>426.0</ele><time>2026-05-01T08:14:07.998Z</time></trkpt><trkpt lat="43.40153903747763" lon="10.851839508216685"><ele>426.0</ele><time>2026-05-01T08:14:08.998Z</time></trkpt><trkpt lat="43.40145225163738" lon="10.85193021304904"><ele>426.0</ele><time>2026-05-01T08:14:09.998Z</time></trkpt><trkpt lat="43.401362132413695" lon="10.85202142681538"><ele>426.0</ele><time>2026-05-01T08:14:10.998Z</time></trkpt><trkpt lat="43.40128129009519" lon="10.852126076189526"><ele>425.4</ele><time>2026-05-01T08:14:11.998Z</time></trkpt><trkpt lat="43.40120202497492" lon="10.8522264444429"><ele>424.8</ele><time>2026-05-01T08:14:12.998Z</time></trkpt><trkpt lat="43.40112471398231" lon="10.852326146581033"><ele>424.2</ele><time>2026-05-01T08:14:13.998Z</time></trkpt><trkpt lat="43.4010593674814" lon="10.852445348700677"><ele>423.59999999999997</ele><time>2026-05-01T08:14:14.998Z</time></trkpt><trkpt lat="43.40101768179456" lon="10.852586311256303"><ele>423.0</ele><time>2026-05-01T08:14:15.998Z</time></trkpt><trkpt lat="43.40100082572317" lon="10.852736635084783"><ele>424.59999999999997</ele><time>2026-05-01T08:14:16.998Z</time></trkpt><trkpt lat="43.40099695116562" lon="10.852878743487839"><ele>426.2</ele><time>2026-05-01T08:14:17.998Z</time></trkpt><trkpt lat="43.40098752886697" lon="10.85301653764082"><ele>427.8</ele><time>2026-05-01T08:14:18.998Z</time></trkpt><trkpt lat="43.40096462654442" lon="10.853151015492971"><ele>429.4</ele><time>2026-05-01T08:14:19.998Z</time></trkpt><trkpt lat="43.400924785736215" lon="10.853277847914857"><ele>431.0</ele><time>2026-05-01T08:14:20.998Z</time></trkpt><trkpt lat="43.40087866590093" lon="10.853401189578841"><ele>432.3333333333333</ele><time>2026-05-01T08:14:21.998Z</time></trkpt><trkpt lat="43.40083682103199" lon="10.853520224450527"><ele>433.66666666666663</ele><time>2026-05-01T08:14:22.998Z</time></trkpt><trkpt lat="43.40079220237004" lon="10.853632186509387"><ele>435.0</ele><time>2026-05-01T08:14:23.998Z</time></trkpt><trkpt lat="43.400751225905324" lon="10.853737626111577"><ele>436.33333333333337</ele><time>2026-05-01T08:14:24.998Z</time></trkpt><trkpt lat="43.400717731820095" lon="10.85383517139357"><ele>437.6666666666667</ele><time>2026-05-01T08:14:25.998Z</time></trkpt><trkpt lat="43.40069663366376" lon="10.853928054970337"><ele>439.0</ele><time>2026-05-01T08:14:26.998Z</time></trkpt><trkpt lat="43.400683149887065" lon="10.854019448194435"><ele>439.0</ele><time>2026-05-01T08:14:27.998Z</time></trkpt><trkpt lat="43.4006767051469" lon="10.85411623654178"><ele>439.0</ele><time>2026-05-01T08:14:28.998Z</time></trkpt><trkpt lat="43.40066980562762" lon="10.85421080618116"><ele>439.0</ele><time>2026-05-01T08:14:29.998Z</time></trkpt><trkpt lat="43.400662113290466" lon="10.854305026840468"><ele>439.0</ele><time>2026-05-01T08:14:30.998Z</time></trkpt><trkpt lat="43.40064779209857" lon="10.854394406857885"><ele>439.0</ele><time>2026-05-01T08:14:31.998Z</time></trkpt><trkpt lat="43.40062266079276" lon="10.854486691591811"><ele>439.0</ele><time>2026-05-01T08:14:32.998Z</time></trkpt><trkpt lat="43.40058926724969" lon="10.854580399679088"><ele>439.0</ele><time>2026-05-01T08:14:33.998Z</time></trkpt><trkpt lat="43.400539677633844" lon="10.854674135473404"><ele>439.2</ele><time>2026-05-01T08:14:34.998Z</time></trkpt><trkpt lat="43.400480118011366" lon="10.854763048550273"><ele>439.4</ele><time>2026-05-01T08:14:35.998Z</time></trkpt><trkpt lat="43.40039893158305" lon="10.85482466482308"><ele>439.6</ele><time>2026-05-01T08:14:36.998Z</time></trkpt><trkpt lat="43.40032794330183" lon="10.854908580488896"><ele>439.8</ele><time>2026-05-01T08:14:37.998Z</time></trkpt><trkpt lat="43.40024422893201" lon="10.854971124342754"><ele>440.0</ele><time>2026-05-01T08:14:38.998Z</time></trkpt><trkpt lat="43.4001598043914" lon="10.855037976824592"><ele>440.0</ele><time>2026-05-01T08:14:39.998Z</time></trkpt><trkpt lat="43.400074619084535" lon="10.855101533578091"><ele>440.0</ele><time>2026-05-01T08:14:40.998Z</time></trkpt><trkpt lat="43.39998808608944" lon="10.855168936699942"><ele>440.0</ele><time>2026-05-01T08:14:41.998Z</time></trkpt><trkpt lat="43.399898562439645" lon="10.855238804273078"><ele>440.0</ele><time>2026-05-01T08:14:43Z</time></trkpt><trkpt lat="43.399804386753274" lon="10.85530365257753"><ele>440.0</ele><time>2026-05-01T08:14:44Z</time></trkpt><trkpt lat="43.39970790199201" lon="10.855371409252685"><ele>443.0</ele><time>2026-05-01T08:14:45Z</time></trkpt><trkpt lat="43.39960274332335" lon="10.85542700823261"><ele>446.0</ele><time>2026-05-01T08:14:46Z</time></trkpt><trkpt lat="43.39949159616979" lon="10.855469676162766"><ele>449.0</ele><time>2026-05-01T08:14:47Z</time></trkpt><trkpt lat="43.39937843050602" lon="10.855499311310503"><ele>452.0</ele><time>2026-05-01T08:14:48Z</time></trkpt><trkpt lat="43.399266949832" lon="10.85551666545808"><ele>452.0</ele><time>2026-05-01T08:14:49Z</time></trkpt><trkpt lat="43.39915665608731" lon="10.85552964229883"><ele>452.00000000000006</ele><time>2026-05-01T08:14:50Z</time></trkpt><trkpt lat="43.39905459853381" lon="10.85555296000831"><ele>452.00000000000006</ele><time>2026-05-01T08:14:51Z</time></trkpt><trkpt lat="43.398967723681864" lon="10.855595391396271"><ele>452.0</ele><time>2026-05-01T08:14:52Z</time></trkpt><trkpt lat="43.39889217267606" lon="10.855663218869807"><ele>452.0</ele><time>2026-05-01T08:14:53Z</time></trkpt><trkpt lat="43.398844095817104" lon="10.85577135381862"><ele>451.20000000000005</ele><time>2026-05-01T08:14:54Z</time></trkpt><trkpt lat="43.398819783134414" lon="10.85590523049493"><ele>450.40000000000003</ele><time>2026-05-01T08:14:55Z</time></trkpt><trkpt lat="43.39881219535842" lon="10.856038647102364"><ele>449.59999999999997</ele><time>2026-05-01T08:14:56Z</time></trkpt><trkpt lat="43.398806296866226" lon="10.856161962783283"><ele>448.79999999999995</ele><time>2026-05-01T08:14:57Z</time></trkpt><trkpt lat="43.398794726792616" lon="10.856281740381649"><ele>448.0</ele><time>2026-05-01T08:14:58Z</time></trkpt><trkpt lat="43.398784439183046" lon="10.8564018727264"><ele>448.0</ele><time>2026-05-01T08:14:59Z</time></trkpt><trkpt lat="43.39877776856769" lon="10.856528163820316"><ele>447.99999999999994</ele><time>2026-05-01T08:15:00Z</time></trkpt><trkpt lat="43.39877689107294" lon="10.856671109651035"><ele>447.99999999999994</ele><time>2026-05-01T08:15:01Z</time></trkpt><trkpt lat="43.39877709323415" lon="10.856822158195184"><ele>448.0</ele><time>2026-05-01T08:15:02Z</time></trkpt><trkpt lat="43.39877921640337" lon="10.856970467434639"><ele>448.0</ele><time>2026-05-01T08:15:03Z</time></trkpt><trkpt lat="43.39878204010395" lon="10.857107995558886"><ele>449.2</ele><time>2026-05-01T08:15:04Z</time></trkpt><trkpt lat="43.398769741878" lon="10.857247656049024"><ele>450.4</ele><time>2026-05-01T08:15:05Z</time></trkpt><trkpt lat="43.39873746579166" lon="10.857383345544555"><ele>451.59999999999997</ele><time>2026-05-01T08:15:06Z</time></trkpt><trkpt lat="43.39869445282399" lon="10.857514908988675"><ele>452.79999999999995</ele><time>2026-05-01T08:15:07Z</time></trkpt><trkpt lat="43.398651732146355" lon="10.857641586805423"><ele>454.0</ele><time>2026-05-01T08:15:08Z</time></trkpt><trkpt lat="43.39861502269772" lon="10.85775817134258"><ele>454.33333333333337</ele><time>2026-05-01T08:15:09Z</time></trkpt><trkpt lat="43.39857941359288" lon="10.857866128385396"><ele>454.6666666666667</ele><time>2026-05-01T08:15:10Z</time></trkpt><trkpt lat="43.39854522188115" lon="10.857970704443948"><ele>455.0</ele><time>2026-05-01T08:15:11Z</time></trkpt><trkpt lat="43.3985181862282" lon="10.858074319623176"><ele>455.33333333333337</ele><time>2026-05-01T08:15:12Z</time></trkpt><trkpt lat="43.398506051588065" lon="10.858184996693776"><ele>455.6666666666667</ele><time>2026-05-01T08:15:13Z</time></trkpt><trkpt lat="43.39851590495543" lon="10.858301924422321"><ele>456.0</ele><time>2026-05-01T08:15:14Z</time></trkpt><trkpt lat="43.398532186410506" lon="10.85841908570071"><ele>456.1666666666667</ele><time>2026-05-01T08:15:15Z</time></trkpt><trkpt lat="43.398549002964366" lon="10.858531683775858"><ele>456.33333333333337</ele><time>2026-05-01T08:15:16Z</time></trkpt><trkpt lat="43.3985626001225" lon="10.858648518174522"><ele>456.5</ele><time>2026-05-01T08:15:17Z</time></trkpt><trkpt lat="43.3985756070377" lon="10.858772305169275"><ele>456.6666666666667</ele><time>2026-05-01T08:15:18Z</time></trkpt><trkpt lat="43.39859218609199" lon="10.858891332965722"><ele>456.83333333333337</ele><time>2026-05-01T08:15:19Z</time></trkpt><trkpt lat="43.39859769732947" lon="10.859005100868373"><ele>457.0</ele><time>2026-05-01T08:15:20Z</time></trkpt><trkpt lat="43.398591989217465" lon="10.859155742104862"><ele>457.0</ele><time>2026-05-01T08:15:21.999Z</time></trkpt><trkpt lat="43.39859302985791" lon="10.859266125148872"><ele>457.00000000000006</ele><time>2026-05-01T08:15:23.999Z</time></trkpt><trkpt lat="43.39862700208415" lon="10.85939274318312"><ele>457.00000000000006</ele><time>2026-05-01T08:15:25.999Z</time></trkpt><trkpt lat="43.398726903242164" lon="10.859432336453859"><ele>457.0</ele><time>2026-05-01T08:15:27.999Z</time></trkpt><trkpt lat="43.3988138195933" lon="10.859324602394494"><ele>457.0</ele><time>2026-05-01T08:15:29.999Z</time></trkpt><trkpt lat="43.39884027775761" lon="10.859234440211248"><ele>460.83333333333337</ele><time>2026-05-01T08:15:30.999Z</time></trkpt><trkpt lat="43.39887443592933" lon="10.859145949550236"><ele>464.6666666666667</ele><time>2026-05-01T08:15:31.999Z</time></trkpt><trkpt lat="43.398915062444324" lon="10.859044718116373"><ele>468.5</ele><time>2026-05-01T08:15:32.999Z</time></trkpt><trkpt lat="43.398959707650235" lon="10.858944450198765"><ele>472.33333333333337</ele><time>2026-05-01T08:15:33.999Z</time></trkpt><trkpt lat="43.39901120776328" lon="10.858837575330979"><ele>476.1666666666667</ele><time>2026-05-01T08:15:34.999Z</time></trkpt><trkpt lat="43.39908193667207" lon="10.858722723101424"><ele>480.0</ele><time>2026-05-01T08:15:35.999Z</time></trkpt><trkpt lat="43.39917506389396" lon="10.85861066085496"><ele>480.0</ele><time>2026-05-01T08:15:36.999Z</time></trkpt><trkpt lat="43.399271863781436" lon="10.85851797985113"><ele>480.0</ele><time>2026-05-01T08:15:37.999Z</time></trkpt><trkpt lat="43.39936944084543" lon="10.858448123929996"><ele>480.0</ele><time>2026-05-01T08:15:38.999Z</time></trkpt><trkpt lat="43.39946748427404" lon="10.858404750620311"><ele>480.0</ele><time>2026-05-01T08:15:39.999Z</time></trkpt><trkpt lat="43.39956400840425" lon="10.858379029506445"><ele>480.0</ele><time>2026-05-01T08:15:40.999Z</time></trkpt><trkpt lat="43.399653683177604" lon="10.858349704420625"><ele>480.8571428571429</ele><time>2026-05-01T08:15:41.999Z</time></trkpt><trkpt lat="43.39972876282742" lon="10.858319556624924"><ele>481.71428571428567</ele><time>2026-05-01T08:15:42.999Z</time></trkpt><trkpt lat="43.39979106172938" lon="10.858296176943934"><ele>482.57142857142856</ele><time>2026-05-01T08:15:43.999Z</time></trkpt><trkpt lat="43.39985229976405" lon="10.858275458879461"><ele>483.42857142857144</ele><time>2026-05-01T08:15:44.999Z</time></trkpt><trkpt lat="43.39991461110357" lon="10.858254454431028"><ele>484.28571428571433</ele><time>2026-05-01T08:15:45.999Z</time></trkpt><trkpt lat="43.39997545001065" lon="10.858229587517075"><ele>485.1428571428571</ele><time>2026-05-01T08:15:46.999Z</time></trkpt><trkpt lat="43.40005548991389" lon="10.858197894817874"><ele>486.0</ele><time>2026-05-01T08:15:48.999Z</time></trkpt><trkpt lat="43.400125500041" lon="10.858160317946478"><ele>486.0</ele><time>2026-05-01T08:15:57.999Z</time></trkpt><trkpt lat="43.400191603457046" lon="10.858138835646"><ele>486.0</ele><time>2026-05-01T08:16:03.999Z</time></trkpt><trkpt lat="43.40026335075861" lon="10.858102354065819"><ele>486.0</ele><time>2026-05-01T08:16:06.999Z</time></trkpt><trkpt lat="43.400336551380846" lon="10.85807612202009"><ele>486.0</ele><time>2026-05-01T08:16:08.998Z</time></trkpt><trkpt lat="43.400405938416085" lon="10.85810182265609"><ele>486.0</ele><time>2026-05-01T08:16:10.998Z</time></trkpt><trkpt lat="43.40053204239701" lon="10.858114195671833"><ele>486.0</ele><time>2026-05-01T08:16:12.998Z</time></trkpt><trkpt lat="43.40061115789369" lon="10.858051514786714"><ele>487.4</ele><time>2026-05-01T08:16:13.998Z</time></trkpt><trkpt lat="43.40067502921287" lon="10.85798445013531"><ele>488.8</ele><time>2026-05-01T08:16:14.998Z</time></trkpt><trkpt lat="43.4007522434936" lon="10.857893137443908"><ele>490.19999999999993</ele><time>2026-05-01T08:16:15.998Z</time></trkpt><trkpt lat="43.400827451957134" lon="10.857791747266983"><ele>491.59999999999997</ele><time>2026-05-01T08:16:16.998Z</time></trkpt><trkpt lat="43.40091423343873" lon="10.857677320129207"><ele>493.0</ele><time>2026-05-01T08:16:17.998Z</time></trkpt><trkpt lat="43.401002288048424" lon="10.857560925064641"><ele>493.0</ele><time>2026-05-01T08:16:18.998Z</time></trkpt><trkpt lat="43.40109000603413" lon="10.857442010586997"><ele>492.99999999999994</ele><time>2026-05-01T08:16:19.998Z</time></trkpt><trkpt lat="43.40116773291053" lon="10.857341911115604"><ele>492.99999999999994</ele><time>2026-05-01T08:16:20.998Z</time></trkpt><trkpt lat="43.40123051353047" lon="10.857261682500638"><ele>493.0</ele><time>2026-05-01T08:16:21.998Z</time></trkpt><trkpt lat="43.40128631801571" lon="10.857190666731999"><ele>493.0</ele><time>2026-05-01T08:16:22.998Z</time></trkpt><trkpt lat="43.40134506611852" lon="10.857113569909124"><ele>494.25</ele><time>2026-05-01T08:16:23.998Z</time></trkpt><trkpt lat="43.40141564391546" lon="10.857015167826813"><ele>495.5</ele><time>2026-05-01T08:16:24.998Z</time></trkpt><trkpt lat="43.40149503033019" lon="10.856899547481875"><ele>496.75</ele><time>2026-05-01T08:16:25.998Z</time></trkpt><trkpt lat="43.40157896093992" lon="10.856787320717174"><ele>498.0</ele><time>2026-05-01T08:16:26.998Z</time></trkpt><trkpt lat="43.40166720568869" lon="10.856669487679028"><ele>498.0</ele><time>2026-05-01T08:16:27.998Z</time></trkpt><trkpt lat="43.401754174840946" lon="10.856552901599176"><ele>498.0</ele><time>2026-05-01T08:16:28.998Z</time></trkpt><trkpt lat="43.401849414934" lon="10.856441820372362"><ele>498.0</ele><time>2026-05-01T08:16:29.998Z</time></trkpt><trkpt lat="43.40196066156115" lon="10.856344821762377"><ele>498.0</ele><time>2026-05-01T08:16:30.998Z</time></trkpt><trkpt lat="43.4020824316253" lon="10.856258471306692"><ele>502.75</ele><time>2026-05-01T08:16:31.998Z</time></trkpt><trkpt lat="43.402211802140855" lon="10.856178961579339"><ele>507.5</ele><time>2026-05-01T08:16:32.998Z</time></trkpt><trkpt lat="43.40234119866888" lon="10.856108315395101"><ele>512.25</ele><time>2026-05-01T08:16:33.998Z</time></trkpt><trkpt lat="43.4024680551374" lon="10.85604105361646"><ele>517.0</ele><time>2026-05-01T08:16:34.998Z</time></trkpt><trkpt lat="43.402587511099654" lon="10.855981412311843"><ele>515.0</ele><time>2026-05-01T08:16:35.998Z</time></trkpt><trkpt lat="43.40270784038319" lon="10.855929729412397"><ele>513.0</ele><time>2026-05-01T08:16:36.998Z</time></trkpt><trkpt lat="43.402822410877015" lon="10.855884081022904"><ele>511.0</ele><time>2026-05-01T08:16:37.998Z</time></trkpt><trkpt lat="43.40292607593835" lon="10.855835935935431"><ele>509.0</ele><time>2026-05-01T08:16:38.998Z</time></trkpt><trkpt lat="43.40301191941372" lon="10.855776473785246"><ele>509.0</ele><time>2026-05-01T08:16:39.998Z</time></trkpt><trkpt lat="43.40307871514491" lon="10.855696782949043"><ele>509.0</ele><time>2026-05-01T08:16:40.998Z</time></trkpt><trkpt lat="43.40311944244638" lon="10.855579200362726"><ele>509.0</ele><time>2026-05-01T08:16:41.998Z</time></trkpt><trkpt lat="43.40314292747331" lon="10.855453589853"><ele>509.0</ele><time>2026-05-01T08:16:42.998Z</time></trkpt><trkpt lat="43.403185026788485" lon="10.855342596716737"><ele>509.0</ele><time>2026-05-01T08:16:43.998Z</time></trkpt><trkpt lat="43.403250268727376" lon="10.855244872974467"><ele>509.0</ele><time>2026-05-01T08:16:44.998Z</time></trkpt><trkpt lat="43.40332098230384" lon="10.85514272125396"><ele>509.0</ele><time>2026-05-01T08:16:45.998Z</time></trkpt><trkpt lat="43.40339297122922" lon="10.85503577508962"><ele>509.0</ele><time>2026-05-01T08:16:46.998Z</time></trkpt><trkpt lat="43.403470785390624" lon="10.854930184504674"><ele>509.0</ele><time>2026-05-01T08:16:47.998Z</time></trkpt><trkpt lat="43.403554416595256" lon="10.854828701106708"><ele>509.0</ele><time>2026-05-01T08:16:49Z</time></trkpt><trkpt lat="43.403631809051795" lon="10.854747852763015"><ele>509.4</ele><time>2026-05-01T08:16:50Z</time></trkpt><trkpt lat="43.40370447084635" lon="10.854688106645389"><ele>509.79999999999995</ele><time>2026-05-01T08:16:51Z</time></trkpt><trkpt lat="43.40377087735247" lon="10.854643612415225"><ele>510.20000000000005</ele><time>2026-05-01T08:16:52Z</time></trkpt><trkpt lat="43.403878727127555" lon="10.85462146700219"><ele>510.6</ele><time>2026-05-01T08:16:54Z</time></trkpt><trkpt lat="43.40398101977669" lon="10.854719722905998"><ele>511.0</ele><time>2026-05-01T08:16:56Z</time></trkpt><trkpt lat="43.404030264925936" lon="10.854790834891947"><ele>511.0</ele><time>2026-05-01T08:16:57Z</time></trkpt><trkpt lat="43.404081145713754" lon="10.854858782420164"><ele>511.0</ele><time>2026-05-01T08:16:58Z</time></trkpt><trkpt lat="43.404127458360314" lon="10.854923847984395"><ele>511.0</ele><time>2026-05-01T08:16:59Z</time></trkpt><trkpt lat="43.40421522267703" lon="10.855025784196041"><ele>511.0</ele><time>2026-05-01T08:17:01Z</time></trkpt><trkpt lat="43.40433792615438" lon="10.855087938142818"><ele>511.0</ele><time>2026-05-01T08:17:03Z</time></trkpt><trkpt lat="43.404414434953836" lon="10.855101375044553"><ele>511.00000000000006</ele><time>2026-05-01T08:17:04Z</time></trkpt><trkpt lat="43.404490690060214" lon="10.855106852673643"><ele>511.0</ele><time>2026-05-01T08:17:05Z</time></trkpt><trkpt lat="43.40456956117574" lon="10.85511666391471"><ele>511.0</ele><time>2026-05-01T08:17:06Z</time></trkpt><trkpt lat="43.40464648903666" lon="10.855128006014347"><ele>511.0</ele><time>2026-05-01T08:17:07Z</time></trkpt><trkpt lat="43.404723647331856" lon="10.855129237647153"><ele>511.00000000000006</ele><time>2026-05-01T08:17:08Z</time></trkpt><trkpt lat="43.404789863932784" lon="10.85512713412611"><ele>511.0</ele><time>2026-05-01T08:17:09Z</time></trkpt><trkpt lat="43.40489129176778" lon="10.855134984459223"><ele>510.4</ele><time>2026-05-01T08:17:11Z</time></trkpt><trkpt lat="43.40498089513402" lon="10.855174753755449"><ele>509.8</ele><time>2026-05-01T08:17:13Z</time></trkpt><trkpt lat="43.405034821634196" lon="10.855292532092859"><ele>509.19999999999993</ele><time>2026-05-01T08:17:15Z</time></trkpt><trkpt lat="43.405057316784735" lon="10.85544898168257"><ele>508.59999999999997</ele><time>2026-05-01T08:17:17Z</time></trkpt><trkpt lat="43.405074501670015" lon="10.855599339189936"><ele>508.0</ele><time>2026-05-01T08:17:19Z</time></trkpt><trkpt lat="43.405087429966244" lon="10.855702251559105"><ele>508.00000000000006</ele><time>2026-05-01T08:17:21Z</time></trkpt><trkpt lat="43.405067767771726" lon="10.855786508511823"><ele>508.0</ele><time>2026-05-01T08:17:24Z</time></trkpt><trkpt lat="43.40509313150972" lon="10.855869832798637"><ele>508.0</ele><time>2026-05-01T08:17:52.999Z</time></trkpt><trkpt lat="43.40508654317692" lon="10.856028543906683"><ele>508.0</ele><time>2026-05-01T08:17:54.999Z</time></trkpt><trkpt lat="43.405024308809466" lon="10.85616614934182"><ele>508.00000000000006</ele><time>2026-05-01T08:17:56.999Z</time></trkpt><trkpt lat="43.40497906543237" lon="10.856226502427848"><ele>508.0</ele><time>2026-05-01T08:17:57.999Z</time></trkpt><trkpt lat="43.40493048760027" lon="10.856293266085752"><ele>508.33333333333337</ele><time>2026-05-01T08:17:58.999Z</time></trkpt><trkpt lat="43.40487952657436" lon="10.856372797781951"><ele>508.6666666666667</ele><time>2026-05-01T08:17:59.999Z</time></trkpt><trkpt lat="43.40482562008538" lon="10.856464251891653"><ele>509.0</ele><time>2026-05-01T08:18:00.999Z</time></trkpt><trkpt lat="43.40476856311138" lon="10.856563372547022"><ele>509.33333333333337</ele><time>2026-05-01T08:18:01.999Z</time></trkpt><trkpt lat="43.40470675066488" lon="10.856664740376626"><ele>509.6666666666667</ele><time>2026-05-01T08:18:02.999Z</time></trkpt><trkpt lat="43.40464742680108" lon="10.856758017246149"><ele>510.0</ele><time>2026-05-01T08:18:03.999Z</time></trkpt><trkpt lat="43.40458437946973" lon="10.856855914769971"><ele>510.0</ele><time>2026-05-01T08:18:04.999Z</time></trkpt><trkpt lat="43.404502683836014" lon="10.856942544137876"><ele>510.0</ele><time>2026-05-01T08:18:05.999Z</time></trkpt><trkpt lat="43.404452940801114" lon="10.857063276363677"><ele>510.0</ele><time>2026-05-01T08:18:06.999Z</time></trkpt><trkpt lat="43.40438567486096" lon="10.857171216140062"><ele>510.0</ele><time>2026-05-01T08:18:07.999Z</time></trkpt><trkpt lat="43.40435592309194" lon="10.85731993660854"><ele>510.0</ele><time>2026-05-01T08:18:08.999Z</time></trkpt><trkpt lat="43.40431685390829" lon="10.857470882853939"><ele>508.6</ele><time>2026-05-01T08:18:09.999Z</time></trkpt><trkpt lat="43.404276993663856" lon="10.857624377351772"><ele>507.2</ele><time>2026-05-01T08:18:10.999Z</time></trkpt><trkpt lat="43.40423488008707" lon="10.857770865650743"><ele>505.79999999999995</ele><time>2026-05-01T08:18:11.999Z</time></trkpt><trkpt lat="43.40419902082743" lon="10.857906454979691"><ele>504.4</ele><time>2026-05-01T08:18:12.999Z</time></trkpt><trkpt lat="43.40417648806481" lon="10.85804958629678"><ele>503.0</ele><time>2026-05-01T08:18:13.999Z</time></trkpt><trkpt lat="43.40416341744118" lon="10.85820927569299"><ele>503.0</ele><time>2026-05-01T08:18:14.999Z</time></trkpt><trkpt lat="43.40416278747402" lon="10.858368807189612"><ele>503.0</ele><time>2026-05-01T08:18:15.999Z</time></trkpt><trkpt lat="43.40417090646986" lon="10.85853179125103"><ele>503.0</ele><time>2026-05-01T08:18:16.999Z</time></trkpt><trkpt lat="43.40417961628999" lon="10.85869644841102"><ele>503.0</ele><time>2026-05-01T08:18:17.999Z</time></trkpt><trkpt lat="43.40417942903382" lon="10.858861744599318"><ele>502.59999999999997</ele><time>2026-05-01T08:18:18.999Z</time></trkpt><trkpt lat="43.40417422211558" lon="10.859021906032565"><ele>502.19999999999993</ele><time>2026-05-01T08:18:19.999Z</time></trkpt><trkpt lat="43.404177447796556" lon="10.859175312699305"><ele>501.8</ele><time>2026-05-01T08:18:20.999Z</time></trkpt><trkpt lat="43.40417599468316" lon="10.859328617482863"><ele>501.4</ele><time>2026-05-01T08:18:21.999Z</time></trkpt><trkpt lat="43.404167078841965" lon="10.859475449330942"><ele>501.0</ele><time>2026-05-01T08:18:22.999Z</time></trkpt><trkpt lat="43.40415581305315" lon="10.859617888254693"><ele>501.0</ele><time>2026-05-01T08:18:23.999Z</time></trkpt><trkpt lat="43.40414065238278" lon="10.859761787132872"><ele>501.0</ele><time>2026-05-01T08:18:24.999Z</time></trkpt><trkpt lat="43.404117313000214" lon="10.859902826598647"><ele>501.0</ele><time>2026-05-01T08:18:25.998Z</time></trkpt><trkpt lat="43.40410585552019" lon="10.860045312670762"><ele>501.0</ele><time>2026-05-01T08:18:26.998Z</time></trkpt><trkpt lat="43.40410640008286" lon="10.860191970979605"><ele>501.0</ele><time>2026-05-01T08:18:27.998Z</time></trkpt><trkpt lat="43.40410783869221" lon="10.860336062296922"><ele>502.8</ele><time>2026-05-01T08:18:28.998Z</time></trkpt><trkpt lat="43.404110043949046" lon="10.860478384868795"><ele>504.6</ele><time>2026-05-01T08:18:29.998Z</time></trkpt><trkpt lat="43.40411371032085" lon="10.860610170768716"><ele>506.4</ele><time>2026-05-01T08:18:30.998Z</time></trkpt><trkpt lat="43.40410683062202" lon="10.860739660344052"><ele>508.2</ele><time>2026-05-01T08:18:31.998Z</time></trkpt><trkpt lat="43.40410355734254" lon="10.860855474531627"><ele>510.0</ele><time>2026-05-01T08:18:32.998Z</time></trkpt><trkpt lat="43.40409934504341" lon="10.860954787113338"><ele>510.8333333333333</ele><time>2026-05-01T08:18:33.998Z</time></trkpt><trkpt lat="43.40409980421019" lon="10.86110219151068"><ele>511.66666666666663</ele><time>2026-05-01T08:18:35.998Z</time></trkpt><trkpt lat="43.40410612542187" lon="10.86120004100392"><ele>512.5</ele><time>2026-05-01T08:18:37.998Z</time></trkpt><trkpt lat="43.40413253518489" lon="10.861301743564598"><ele>513.3333333333333</ele><time>2026-05-01T08:18:40.998Z</time></trkpt><trkpt lat="43.40424509485453" lon="10.86126986515705"><ele>514.1666666666666</ele><time>2026-05-01T08:18:41.998Z</time></trkpt><trkpt lat="43.4043038492471" lon="10.861229009424362"><ele>515.0</ele><time>2026-05-01T08:18:42.998Z</time></trkpt><trkpt lat="43.40436384963581" lon="10.861185965057528"><ele>515.0</ele><time>2026-05-01T08:18:43.998Z</time></trkpt><trkpt lat="43.40442618053885" lon="10.86113649682517"><ele>515.0</ele><time>2026-05-01T08:18:44.998Z</time></trkpt><trkpt lat="43.40448899167118" lon="10.861088687591792"><ele>515.0</ele><time>2026-05-01T08:18:45.998Z</time></trkpt><trkpt lat="43.404552307606544" lon="10.861040544038545"><ele>515.0</ele><time>2026-05-01T08:18:46.998Z</time></trkpt><trkpt lat="43.40462218843413" lon="10.860997655450907"><ele>515.0</ele><time>2026-05-01T08:18:47.998Z</time></trkpt><trkpt lat="43.404694071496934" lon="10.860959231272487"><ele>515.0</ele><time>2026-05-01T08:18:48.998Z</time></trkpt><trkpt lat="43.404763044531045" lon="10.860910468779371"><ele>515.0</ele><time>2026-05-01T08:18:49.998Z</time></trkpt><trkpt lat="43.40482792295206" lon="10.860854332770893"><ele>512.8333333333333</ele><time>2026-05-01T08:18:50.998Z</time></trkpt><trkpt lat="43.40489559274604" lon="10.860798616916542"><ele>510.66666666666663</ele><time>2026-05-01T08:18:51.998Z</time></trkpt><trkpt lat="43.40496230605975" lon="10.860750186905316"><ele>508.5</ele><time>2026-05-01T08:18:52.998Z</time></trkpt><trkpt lat="43.40503624656653" lon="10.860708558058244"><ele>506.33333333333337</ele><time>2026-05-01T08:18:53.998Z</time></trkpt><trkpt lat="43.40511356410802" lon="10.860675879532938"><ele>504.1666666666667</ele><time>2026-05-01T08:18:55Z</time></trkpt><trkpt lat="43.40518749785667" lon="10.860649269660158"><ele>502.0</ele><time>2026-05-01T08:18:56Z</time></trkpt><trkpt lat="43.40525753015831" lon="10.860623809894426"><ele>502.0</ele><time>2026-05-01T08:18:57Z</time></trkpt><trkpt lat="43.405327849450174" lon="10.860598400071492"><ele>502.00000000000006</ele><time>2026-05-01T08:18:58Z</time></trkpt><trkpt lat="43.40539533708856" lon="10.860583559134934"><ele>502.00000000000006</ele><time>2026-05-01T08:18:59Z</time></trkpt><trkpt lat="43.40551043857467" lon="10.860571596286539"><ele>502.0</ele><time>2026-05-01T08:19:01Z</time></trkpt><trkpt lat="43.405612471168894" lon="10.860643826263226"><ele>502.0</ele><time>2026-05-01T08:19:03Z</time></trkpt><trkpt lat="43.40570949937208" lon="10.860745483062352"><ele>500.6666666666667</ele><time>2026-05-01T08:19:05Z</time></trkpt><trkpt lat="43.405760116290196" lon="10.86080148268089"><ele>499.33333333333337</ele><time>2026-05-01T08:19:06Z</time></trkpt><trkpt lat="43.405815402778686" lon="10.860862821691905"><ele>498.0</ele><time>2026-05-01T08:19:07Z</time></trkpt><trkpt lat="43.40587696736133" lon="10.860918724658388"><ele>496.66666666666663</ele><time>2026-05-01T08:19:08Z</time></trkpt><trkpt lat="43.40594882428121" lon="10.8609610770282"><ele>495.3333333333333</ele><time>2026-05-01T08:19:09Z</time></trkpt><trkpt lat="43.4060087936663" lon="10.861043178810876"><ele>494.0</ele><time>2026-05-01T08:19:10Z</time></trkpt><trkpt lat="43.40609929224272" lon="10.860990068343229"><ele>493.99999999999994</ele><time>2026-05-01T08:19:11Z</time></trkpt><trkpt lat="43.4061703013745" lon="10.860986999279534"><ele>494.0</ele><time>2026-05-01T08:19:12Z</time></trkpt><trkpt lat="43.406245608432435" lon="10.860958894134837"><ele>494.0</ele><time>2026-05-01T08:19:13Z</time></trkpt><trkpt lat="43.406318797230135" lon="10.860916293430362"><ele>494.0</ele><time>2026-05-01T08:19:14Z</time></trkpt><trkpt lat="43.40638375852441" lon="10.86085146931896"><ele>493.99999999999994</ele><time>2026-05-01T08:19:15Z</time></trkpt><trkpt lat="43.40644938746866" lon="10.860764405553867"><ele>494.0</ele><time>2026-05-01T08:19:16Z</time></trkpt><trkpt lat="43.40651819856823" lon="10.860647801167172"><ele>491.5</ele><time>2026-05-01T08:19:17Z</time></trkpt><trkpt lat="43.406611495165926" lon="10.860521006076928"><ele>489.0</ele><time>2026-05-01T08:19:18Z</time></trkpt><trkpt lat="43.40668221295486" lon="10.860364231468669"><ele>486.5</ele><time>2026-05-01T08:19:19Z</time></trkpt><trkpt lat="43.40676458629575" lon="10.860243645284134"><ele>484.0</ele><time>2026-05-01T08:19:20Z</time></trkpt><trkpt lat="43.40684029858698" lon="10.860123599508288"><ele>484.4</ele><time>2026-05-01T08:19:21Z</time></trkpt><trkpt lat="43.40689909122553" lon="10.86001511095723"><ele>484.79999999999995</ele><time>2026-05-01T08:19:22Z</time></trkpt><trkpt lat="43.40696359228909" lon="10.859904017179591"><ele>485.20000000000005</ele><time>2026-05-01T08:19:23Z</time></trkpt><trkpt lat="43.407021478519304" lon="10.859812953015561"><ele>485.6</ele><time>2026-05-01T08:19:24Z</time></trkpt><trkpt lat="43.40710455159502" lon="10.85974607421049"><ele>486.0</ele><time>2026-05-01T08:19:25Z</time></trkpt><trkpt lat="43.40719983871257" lon="10.85970785446701"><ele>484.0</ele><time>2026-05-01T08:19:26Z</time></trkpt><trkpt lat="43.407292007514606" lon="10.859719292750814"><ele>482.0</ele><time>2026-05-01T08:19:27Z</time></trkpt><trkpt lat="43.40737103530947" lon="10.859767237859423"><ele>480.0</ele><time>2026-05-01T08:19:28Z</time></trkpt><trkpt lat="43.407436820658525" lon="10.859850528178299"><ele>478.0</ele><time>2026-05-01T08:19:29Z</time></trkpt><trkpt lat="43.40748870036978" lon="10.859969814144083"><ele>476.0</ele><time>2026-05-01T08:19:30Z</time></trkpt><trkpt lat="43.40750916621964" lon="10.860101219153925"><ele>475.8</ele><time>2026-05-01T08:19:31Z</time></trkpt><trkpt lat="43.4074935003144" lon="10.860237344832413"><ele>475.6</ele><time>2026-05-01T08:19:32Z</time></trkpt><trkpt lat="43.40743349341746" lon="10.860372222077794"><ele>475.4</ele><time>2026-05-01T08:19:33Z</time></trkpt><trkpt lat="43.40737954385907" lon="10.860507552414658"><ele>475.2</ele><time>2026-05-01T08:19:34Z</time></trkpt><trkpt lat="43.40732704381065" lon="10.860638188181456"><ele>475.0</ele><time>2026-05-01T08:19:35Z</time></trkpt><trkpt lat="43.407277174752274" lon="10.860760109646252"><ele>475.0</ele><time>2026-05-01T08:19:36Z</time></trkpt><trkpt lat="43.4072369840016" lon="10.860855310854989"><ele>475.0</ele><time>2026-05-01T08:19:37Z</time></trkpt><trkpt lat="43.407202157616375" lon="10.86094035026813"><ele>475.0</ele><time>2026-05-01T08:19:38Z</time></trkpt><trkpt lat="43.407183815792926" lon="10.861077133032778"><ele>475.0</ele><time>2026-05-01T08:19:40Z</time></trkpt><trkpt lat="43.40727936228936" lon="10.861199518765838"><ele>475.0</ele><time>2026-05-01T08:19:42Z</time></trkpt><trkpt lat="43.40735861156593" lon="10.861253096950945"><ele>473.00000000000006</ele><time>2026-05-01T08:19:43Z</time></trkpt><trkpt lat="43.4074363065041" lon="10.861308901779843"><ele>471.0</ele><time>2026-05-01T08:19:43.999Z</time></trkpt><trkpt lat="43.407511629399764" lon="10.861366258140789"><ele>469.0</ele><time>2026-05-01T08:19:44.999Z</time></trkpt><trkpt lat="43.4075921734138" lon="10.861423267084579"><ele>467.0</ele><time>2026-05-01T08:19:45.999Z</time></trkpt><trkpt lat="43.40767061528164" lon="10.861478945330894"><ele>465.00000000000006</ele><time>2026-05-01T08:19:46.999Z</time></trkpt><trkpt lat="43.40774727543574" lon="10.861530447373188"><ele>463.0</ele><time>2026-05-01T08:19:47.999Z</time></trkpt><trkpt lat="43.40781629107576" lon="10.861589939494504"><ele>463.0</ele><time>2026-05-01T08:19:48.999Z</time></trkpt><trkpt lat="43.40788348117528" lon="10.861662590110894"><ele>462.99999999999994</ele><time>2026-05-01T08:19:49.999Z</time></trkpt><trkpt lat="43.40796394593384" lon="10.861721291116128"><ele>462.99999999999994</ele><time>2026-05-01T08:19:50.999Z</time></trkpt><trkpt lat="43.40805141035412" lon="10.861785529093089"><ele>463.0</ele><time>2026-05-01T08:19:51.999Z</time></trkpt><trkpt lat="43.4081370488716" lon="10.861858611768486"><ele>463.0</ele><time>2026-05-01T08:19:52.999Z</time></trkpt><trkpt lat="43.40822434414339" lon="10.861939086404824"><ele>462.00000000000006</ele><time>2026-05-01T08:19:53.999Z</time></trkpt><trkpt lat="43.40830397829383" lon="10.862023859642363"><ele>461.0</ele><time>2026-05-01T08:19:54.999Z</time></trkpt><trkpt lat="43.408372608211415" lon="10.862100312835562"><ele>460.0</ele><time>2026-05-01T08:19:55.999Z</time></trkpt><trkpt lat="43.408442695085434" lon="10.862174906988812"><ele>459.0</ele><time>2026-05-01T08:19:56.999Z</time></trkpt><trkpt lat="43.408500176160636" lon="10.86225774235158"><ele>458.00000000000006</ele><time>2026-05-01T08:19:57.999Z</time></trkpt><trkpt lat="43.408554997338854" lon="10.862342871873446"><ele>457.0</ele><time>2026-05-01T08:19:58.999Z</time></trkpt><trkpt lat="43.40859802830618" lon="10.862429664626985"><ele>457.00000000000006</ele><time>2026-05-01T08:19:59.999Z</time></trkpt><trkpt lat="43.40863462350386" lon="10.862524222272903"><ele>457.0</ele><time>2026-05-01T08:20:00.999Z</time></trkpt><trkpt lat="43.40867082418423" lon="10.862629394018864"><ele>457.0</ele><time>2026-05-01T08:20:01.999Z</time></trkpt><trkpt lat="43.40869743456454" lon="10.862744902627476"><ele>457.0</ele><time>2026-05-01T08:20:02.999Z</time></trkpt><trkpt lat="43.40872695443779" lon="10.862868154853738"><ele>457.00000000000006</ele><time>2026-05-01T08:20:03.999Z</time></trkpt><trkpt lat="43.408755212510734" lon="10.862988556560518"><ele>457.0</ele><time>2026-05-01T08:20:04.999Z</time></trkpt><trkpt lat="43.4087784136166" lon="10.863096412672688"><ele>457.20000000000005</ele><time>2026-05-01T08:20:05.999Z</time></trkpt><trkpt lat="43.40880296054357" lon="10.863191765116882"><ele>457.40000000000003</ele><time>2026-05-01T08:20:06.999Z</time></trkpt><trkpt lat="43.40881483024418" lon="10.863288665158304"><ele>457.59999999999997</ele><time>2026-05-01T08:20:07.999Z</time></trkpt><trkpt lat="43.40887024234406" lon="10.863438756250188"><ele>457.79999999999995</ele><time>2026-05-01T08:20:09.999Z</time></trkpt><trkpt lat="43.40892982344265" lon="10.863585331594155"><ele>458.0</ele><time>2026-05-01T08:20:11.999Z</time></trkpt><trkpt lat="43.40902349405599" lon="10.863702025704924"><ele>453.3333333333333</ele><time>2026-05-01T08:20:13.999Z</time></trkpt><trkpt lat="43.40909014362548" lon="10.86375107463127"><ele>448.66666666666663</ele><time>2026-05-01T08:20:14.999Z</time></trkpt><trkpt lat="43.40917584782822" lon="10.863776667267723"><ele>444.0</ele><time>2026-05-01T08:20:15.999Z</time></trkpt><trkpt lat="43.40926873268259" lon="10.863789569263252"><ele>439.33333333333337</ele><time>2026-05-01T08:20:16.999Z</time></trkpt><trkpt lat="43.409361663765566" lon="10.863801062250445"><ele>434.6666666666667</ele><time>2026-05-01T08:20:17.999Z</time></trkpt><trkpt lat="43.409447649093764" lon="10.863810392251946"><ele>430.0</ele><time>2026-05-01T08:20:18.999Z</time></trkpt><trkpt lat="43.40951959980785" lon="10.863816452444029"><ele>430.0</ele><time>2026-05-01T08:20:19.999Z</time></trkpt><trkpt lat="43.40958434122534" lon="10.863811718951718"><ele>430.0</ele><time>2026-05-01T08:20:20.999Z</time></trkpt><trkpt lat="43.409652381210144" lon="10.863764752528148"><ele>430.0</ele><time>2026-05-01T08:20:21.999Z</time></trkpt><trkpt lat="43.4097188619353" lon="10.863680133705879"><ele>430.0</ele><time>2026-05-01T08:20:22.999Z</time></trkpt><trkpt lat="43.40978467846116" lon="10.8635620361608"><ele>430.0</ele><time>2026-05-01T08:20:23.999Z</time></trkpt><trkpt lat="43.409853148964686" lon="10.86344324561738"><ele>433.75</ele><time>2026-05-01T08:20:24.999Z</time></trkpt><trkpt lat="43.40993306988435" lon="10.8633235728316"><ele>437.5</ele><time>2026-05-01T08:20:25.999Z</time></trkpt><trkpt lat="43.410019341935545" lon="10.863205737106432"><ele>441.25</ele><time>2026-05-01T08:20:26.999Z</time></trkpt><trkpt lat="43.410103351300116" lon="10.86309680066985"><ele>445.0</ele><time>2026-05-01T08:20:27.999Z</time></trkpt><trkpt lat="43.41018611481461" lon="10.862999213351385"><ele>445.0</ele><time>2026-05-01T08:20:28.999Z</time></trkpt><trkpt lat="43.4102726334241" lon="10.862913789460222"><ele>445.0</ele><time>2026-05-01T08:20:29.999Z</time></trkpt><trkpt lat="43.41037114291388" lon="10.862874819925597"><ele>445.0</ele><time>2026-05-01T08:20:30.999Z</time></trkpt><trkpt lat="43.41047531686929" lon="10.86288000520785"><ele>445.0</ele><time>2026-05-01T08:20:31.998Z</time></trkpt><trkpt lat="43.410578838690924" lon="10.862931518748612"><ele>445.0</ele><time>2026-05-01T08:20:32.998Z</time></trkpt><trkpt lat="43.41067372594127" lon="10.863030459128485"><ele>442.5</ele><time>2026-05-01T08:20:33.998Z</time></trkpt><trkpt lat="43.41077215302432" lon="10.86315229294133"><ele>440.0</ele><time>2026-05-01T08:20:34.998Z</time></trkpt><trkpt lat="43.41089117743115" lon="10.863279235086354"><ele>437.5</ele><time>2026-05-01T08:20:35.998Z</time></trkpt><trkpt lat="43.41100210407353" lon="10.863406112962974"><ele>435.0</ele><time>2026-05-01T08:20:36.998Z</time></trkpt><trkpt lat="43.41110940688542" lon="10.863529991554158"><ele>435.0</ele><time>2026-05-01T08:20:37.998Z</time></trkpt><trkpt lat="43.41121381092044" lon="10.863655161628122"><ele>435.0</ele><time>2026-05-01T08:20:38.998Z</time></trkpt><trkpt lat="43.41130032201544" lon="10.863799276950061"><ele>435.0</ele><time>2026-05-01T08:20:39.998Z</time></trkpt><trkpt lat="43.4113679517128" lon="10.863959214063394"><ele>435.0</ele><time>2026-05-01T08:20:40.998Z</time></trkpt><trkpt lat="43.411440639768166" lon="10.864102898461926"><ele>431.0</ele><time>2026-05-01T08:20:41.998Z</time></trkpt><trkpt lat="43.411527731373184" lon="10.86421631964215"><ele>427.0</ele><time>2026-05-01T08:20:42.998Z</time></trkpt><trkpt lat="43.41162478405395" lon="10.864293506096322"><ele>423.0</ele><time>2026-05-01T08:20:43.998Z</time></trkpt><trkpt lat="43.41173295924934" lon="10.864328784154829"><ele>419.0</ele><time>2026-05-01T08:20:44.998Z</time></trkpt><trkpt lat="43.411863343871325" lon="10.864335683812975"><ele>419.0</ele><time>2026-05-01T08:20:45.998Z</time></trkpt><trkpt lat="43.41201391982507" lon="10.864319079646979"><ele>419.0</ele><time>2026-05-01T08:20:46.998Z</time></trkpt><trkpt lat="43.41217543549544" lon="10.864298987885432"><ele>419.0</ele><time>2026-05-01T08:20:47.998Z</time></trkpt><trkpt lat="43.412333921878385" lon="10.864280125264198"><ele>415.25</ele><time>2026-05-01T08:20:48.998Z</time></trkpt><trkpt lat="43.412479577249414" lon="10.86424121352374"><ele>411.5</ele><time>2026-05-01T08:20:49.998Z</time></trkpt><trkpt lat="43.41261652732895" lon="10.864194325027904"><ele>407.75</ele><time>2026-05-01T08:20:50.998Z</time></trkpt><trkpt lat="43.412745904029244" lon="10.864167677077893"><ele>404.0</ele><time>2026-05-01T08:20:51.998Z</time></trkpt><trkpt lat="43.412875750504924" lon="10.864162516741045"><ele>402.75</ele><time>2026-05-01T08:20:52.998Z</time></trkpt><trkpt lat="43.413007307989346" lon="10.864191565786136"><ele>401.5</ele><time>2026-05-01T08:20:53.998Z</time></trkpt><trkpt lat="43.41315397963734" lon="10.864236238576419"><ele>400.25</ele><time>2026-05-01T08:20:54.998Z</time></trkpt><trkpt lat="43.41330878368529" lon="10.864285050674669"><ele>399.0</ele><time>2026-05-01T08:20:55.998Z</time></trkpt><trkpt lat="43.41345880344874" lon="10.864334810501756"><ele>399.0</ele><time>2026-05-01T08:20:56.998Z</time></trkpt><trkpt lat="43.41360795768858" lon="10.864380484675314"><ele>399.0</ele><time>2026-05-01T08:20:57.998Z</time></trkpt><trkpt lat="43.41376520806443" lon="10.864415877096308"><ele>399.0</ele><time>2026-05-01T08:20:58.998Z</time></trkpt><trkpt lat="43.41392905579299" lon="10.864455714945944"><ele>396.66666666666663</ele><time>2026-05-01T08:20:59.998Z</time></trkpt><trkpt lat="43.41410113662513" lon="10.864484570619036"><ele>394.3333333333333</ele><time>2026-05-01T08:21:01Z</time></trkpt><trkpt lat="43.41427892824616" lon="10.864497199783509"><ele>392.0</ele><time>2026-05-01T08:21:02Z</time></trkpt><trkpt lat="43.41445423698593" lon="10.864512189310302"><ele>392.0</ele><time>2026-05-01T08:21:03Z</time></trkpt><trkpt lat="43.41461774089313" lon="10.864520910407403"><ele>392.0</ele><time>2026-05-01T08:21:04Z</time></trkpt><trkpt lat="43.41477236682383" lon="10.864528418851489"><ele>392.0</ele><time>2026-05-01T08:21:05Z</time></trkpt><trkpt lat="43.41492793462797" lon="10.864543172984733"><ele>390.66666666666663</ele><time>2026-05-01T08:21:06Z</time></trkpt><trkpt lat="43.41508427522654" lon="10.864565557823182"><ele>389.33333333333337</ele><time>2026-05-01T08:21:07Z</time></trkpt><trkpt lat="43.41523761263895" lon="10.864587418670089"><ele>388.0</ele><time>2026-05-01T08:21:08Z</time></trkpt><trkpt lat="43.415383703452854" lon="10.864601776138205"><ele>384.0</ele><time>2026-05-01T08:21:09Z</time></trkpt><trkpt lat="43.41551566727234" lon="10.864615226616863"><ele>380.0</ele><time>2026-05-01T08:21:10Z</time></trkpt><trkpt lat="43.4156358519208" lon="10.86465285899714"><ele>376.0</ele><time>2026-05-01T08:21:11Z</time></trkpt><trkpt lat="43.41574567627871" lon="10.864724772889124"><ele>372.0</ele><time>2026-05-01T08:21:12Z</time></trkpt><trkpt lat="43.41584461696445" lon="10.864842183143384"><ele>372.0</ele><time>2026-05-01T08:21:13Z</time></trkpt><trkpt lat="43.41595523402964" lon="10.864972259380348"><ele>372.0</ele><time>2026-05-01T08:21:14Z</time></trkpt><trkpt lat="43.41608536718151" lon="10.865107930975695"><ele>372.0</ele><time>2026-05-01T08:21:15Z</time></trkpt><trkpt lat="43.41621728022849" lon="10.86525450951042"><ele>366.75</ele><time>2026-05-01T08:21:16Z</time></trkpt><trkpt lat="43.41634722646645" lon="10.865393563403103"><ele>361.5</ele><time>2026-05-01T08:21:17Z</time></trkpt><trkpt lat="43.416464207431964" lon="10.865517265524606"><ele>356.25</ele><time>2026-05-01T08:21:18Z</time></trkpt><trkpt lat="43.41657047290439" lon="10.865624925382884"><ele>351.0</ele><time>2026-05-01T08:21:19Z</time></trkpt><trkpt lat="43.41665267358733" lon="10.865714540449705"><ele>351.0</ele><time>2026-05-01T08:21:20Z</time></trkpt><trkpt lat="43.4167231048463" lon="10.865777966812527"><ele>351.0</ele><time>2026-05-01T08:21:21Z</time></trkpt><trkpt lat="43.41678958811046" lon="10.865793722598285"><ele>351.0</ele><time>2026-05-01T08:21:22Z</time></trkpt><trkpt lat="43.41685020903977" lon="10.865764063159613"><ele>351.0</ele><time>2026-05-01T08:21:23Z</time></trkpt><trkpt lat="43.416894601466225" lon="10.865601448249585"><ele>351.0</ele><time>2026-05-01T08:21:25Z</time></trkpt><trkpt lat="43.41685931866591" lon="10.865495431953173"><ele>351.0</ele><time>2026-05-01T08:21:26Z</time></trkpt><trkpt lat="43.41676245983695" lon="10.865412913531214"><ele>351.0</ele><time>2026-05-01T08:21:27Z</time></trkpt><trkpt lat="43.41665008715413" lon="10.865358293387123"><ele>351.0</ele><time>2026-05-01T08:21:28Z</time></trkpt><trkpt lat="43.4165656360749" lon="10.865313036870836"><ele>351.0</ele><time>2026-05-01T08:21:29Z</time></trkpt><trkpt lat="43.41650613139872" lon="10.865229547402437"><ele>351.0</ele><time>2026-05-01T08:21:31Z</time></trkpt><trkpt lat="43.41659676824161" lon="10.865138434473227"><ele>351.0</ele><time>2026-05-01T08:21:33Z</time></trkpt><trkpt lat="43.416688855770545" lon="10.865174984910597"><ele>351.0</ele><time>2026-05-01T08:21:34Z</time></trkpt><trkpt lat="43.416790757175384" lon="10.86523887278497"><ele>351.0</ele><time>2026-05-01T08:21:35Z</time></trkpt><trkpt lat="43.41689861793241" lon="10.865312589453591"><ele>351.0</ele><time>2026-05-01T08:21:36Z</time></trkpt><trkpt lat="43.41699670574156" lon="10.865408541192565"><ele>351.0</ele><time>2026-05-01T08:21:37Z</time></trkpt><trkpt lat="43.417070287415186" lon="10.865542564684576"><ele>351.0</ele><time>2026-05-01T08:21:38Z</time></trkpt><trkpt lat="43.41711441568803" lon="10.865687450737434"><ele>351.0</ele><time>2026-05-01T08:21:39Z</time></trkpt><trkpt lat="43.41709914937127" lon="10.865804389938956"><ele>351.0</ele><time>2026-05-01T08:21:39.999Z</time></trkpt><trkpt lat="43.417078727922195" lon="10.86588695451261"><ele>351.0</ele><time>2026-05-01T08:21:40.999Z</time></trkpt><trkpt lat="43.416980086153515" lon="10.866012885212333"><ele>351.0</ele><time>2026-05-01T08:21:42.999Z</time></trkpt><trkpt lat="43.41690205503725" lon="10.86606641092717"><ele>347.0</ele><time>2026-05-01T08:21:43.999Z</time></trkpt><trkpt lat="43.41681109176989" lon="10.866117981582322"><ele>343.0</ele><time>2026-05-01T08:21:44.999Z</time></trkpt><trkpt lat="43.41671001990724" lon="10.866153542755807"><ele>339.0</ele><time>2026-05-01T08:21:45.999Z</time></trkpt><trkpt lat="43.41660432645423" lon="10.86616930047796"><ele>335.0</ele><time>2026-05-01T08:21:46.999Z</time></trkpt><trkpt lat="43.416494264531075" lon="10.86619278925334"><ele>331.0</ele><time>2026-05-01T08:21:47.999Z</time></trkpt><trkpt lat="43.416386698283965" lon="10.866225001724734"><ele>334.8</ele><time>2026-05-01T08:21:48.999Z</time></trkpt><trkpt lat="43.41627477427875" lon="10.86629429455956"><ele>338.6</ele><time>2026-05-01T08:21:49.999Z</time></trkpt><trkpt lat="43.416177821564624" lon="10.866375465584074"><ele>342.4</ele><time>2026-05-01T08:21:50.999Z</time></trkpt><trkpt lat="43.416090026759214" lon="10.866456035319272"><ele>346.2</ele><time>2026-05-01T08:21:51.999Z</time></trkpt><trkpt lat="43.41601424251214" lon="10.866526557607372"><ele>350.0</ele><time>2026-05-01T08:21:52.999Z</time></trkpt><trkpt lat="43.415953997487726" lon="10.866591898454356"><ele>350.0</ele><time>2026-05-01T08:21:53.999Z</time></trkpt><trkpt lat="43.41590965750448" lon="10.866665763774133"><ele>350.0</ele><time>2026-05-01T08:21:54.999Z</time></trkpt><trkpt lat="43.415897368869494" lon="10.86678372623607"><ele>350.0</ele><time>2026-05-01T08:21:55.999Z</time></trkpt><trkpt lat="43.41591838170124" lon="10.866884230142155"><ele>350.0</ele><time>2026-05-01T08:21:56.999Z</time></trkpt><trkpt lat="43.41599756220923" lon="10.866957807806589"><ele>350.0</ele><time>2026-05-01T08:21:57.999Z</time></trkpt><trkpt lat="43.416089061757276" lon="10.867006523131666"><ele>350.0</ele><time>2026-05-01T08:21:58.999Z</time></trkpt><trkpt lat="43.41619941762001" lon="10.867036173277821"><ele>348.4</ele><time>2026-05-01T08:21:59.999Z</time></trkpt><trkpt lat="43.41631039655137" lon="10.867062830559993"><ele>346.8</ele><time>2026-05-01T08:22:00.999Z</time></trkpt><trkpt lat="43.41641871566764" lon="10.867097536522106"><ele>345.20000000000005</ele><time>2026-05-01T08:22:01.999Z</time></trkpt><trkpt lat="43.41652707556588" lon="10.86713777477678"><ele>343.6</ele><time>2026-05-01T08:22:02.999Z</time></trkpt><trkpt lat="43.4166363820833" lon="10.867171964191774"><ele>342.0</ele><time>2026-05-01T08:22:03.998Z</time></trkpt><trkpt lat="43.41674807173684" lon="10.86720372882913"><ele>340.0</ele><time>2026-05-01T08:22:04.998Z</time></trkpt><trkpt lat="43.41686577600583" lon="10.867243159789293"><ele>338.0</ele><time>2026-05-01T08:22:05.998Z</time></trkpt><trkpt lat="43.41698557891836" lon="10.867287547193516"><ele>336.0</ele><time>2026-05-01T08:22:06.998Z</time></trkpt><trkpt lat="43.41710485267585" lon="10.867341109981295"><ele>334.0</ele><time>2026-05-01T08:22:07.998Z</time></trkpt><trkpt lat="43.41721875854251" lon="10.86742519747783"><ele>328.5</ele><time>2026-05-01T08:22:08.998Z</time></trkpt><trkpt lat="43.41733104672633" lon="10.867519150605146"><ele>323.0</ele><time>2026-05-01T08:22:09.998Z</time></trkpt><trkpt lat="43.41743549045623" lon="10.867621574013604"><ele>317.5</ele><time>2026-05-01T08:22:10.998Z</time></trkpt><trkpt lat="43.41752267292736" lon="10.86774008473763"><ele>312.0</ele><time>2026-05-01T08:22:11.998Z</time></trkpt><trkpt lat="43.41759848851008" lon="10.867862320091612"><ele>310.5</ele><time>2026-05-01T08:22:12.998Z</time></trkpt><trkpt lat="43.41767491971748" lon="10.867971218182479"><ele>309.0</ele><time>2026-05-01T08:22:13.998Z</time></trkpt><trkpt lat="43.41778080989052" lon="10.868052293127596"><ele>307.5</ele><time>2026-05-01T08:22:14.998Z</time></trkpt><trkpt lat="43.417911810391374" lon="10.86810903453502"><ele>306.0</ele><time>2026-05-01T08:22:15.998Z</time></trkpt><trkpt lat="43.418051107380066" lon="10.868152801935507"><ele>305.5</ele><time>2026-05-01T08:22:16.998Z</time></trkpt><trkpt lat="43.418191831703886" lon="10.868190630119846"><ele>305.0</ele><time>2026-05-01T08:22:17.998Z</time></trkpt><trkpt lat="43.41833336092551" lon="10.868220376728079"><ele>304.5</ele><time>2026-05-01T08:22:18.998Z</time></trkpt><trkpt lat="43.41847729636262" lon="10.86823174795322"><ele>304.0</ele><time>2026-05-01T08:22:19.998Z</time></trkpt><trkpt lat="43.418622229539075" lon="10.868217089403728"><ele>304.0</ele><time>2026-05-01T08:22:20.998Z</time></trkpt><trkpt lat="43.41876665111003" lon="10.868199147343633"><ele>304.0</ele><time>2026-05-01T08:22:21.998Z</time></trkpt><trkpt lat="43.418911567377705" lon="10.868191409643332"><ele>304.0</ele><time>2026-05-01T08:22:22.998Z</time></trkpt><trkpt lat="43.41905209204835" lon="10.868195358550846"><ele>304.0</ele><time>2026-05-01T08:22:23.998Z</time></trkpt><trkpt lat="43.41919068627579" lon="10.868217839800062"><ele>304.0</ele><time>2026-05-01T08:22:24.998Z</time></trkpt><trkpt lat="43.419323535819316" lon="10.868264041348475"><ele>304.0</ele><time>2026-05-01T08:22:25.998Z</time></trkpt><trkpt lat="43.419449269803664" lon="10.86832328825505"><ele>304.0</ele><time>2026-05-01T08:22:26.998Z</time></trkpt><trkpt lat="43.41956126272503" lon="10.86837218383734"><ele>304.0</ele><time>2026-05-01T08:22:27.998Z</time></trkpt><trkpt lat="43.41966409166758" lon="10.86839738889828"><ele>302.8</ele><time>2026-05-01T08:22:28.998Z</time></trkpt><trkpt lat="43.419753659179406" lon="10.868372538176574"><ele>301.59999999999997</ele><time>2026-05-01T08:22:29.998Z</time></trkpt><trkpt lat="43.41984696332664" lon="10.868310002375114"><ele>300.4</ele><time>2026-05-01T08:22:30.998Z</time></trkpt><trkpt lat="43.41991510054296" lon="10.86821805407899"><ele>299.2</ele><time>2026-05-01T08:22:31.998Z</time></trkpt><trkpt lat="43.41995345229703" lon="10.868095287762758"><ele>298.0</ele><time>2026-05-01T08:22:32.998Z</time></trkpt><trkpt lat="43.41997725048802" lon="10.867941592450192"><ele>298.0</ele><time>2026-05-01T08:22:33.998Z</time></trkpt><trkpt lat="43.419987220516035" lon="10.867767071278076"><ele>298.0</ele><time>2026-05-01T08:22:34.998Z</time></trkpt><trkpt lat="43.419991136018766" lon="10.867585359843863"><ele>298.0</ele><time>2026-05-01T08:22:35.998Z</time></trkpt><trkpt lat="43.41999737005299" lon="10.867424287087971"><ele>298.0</ele><time>2026-05-01T08:22:36.998Z</time></trkpt><trkpt lat="43.42000534438826" lon="10.867283599953739"><ele>297.4</ele><time>2026-05-01T08:22:37.998Z</time></trkpt><trkpt lat="43.42001162703511" lon="10.867176944783276"><ele>296.8</ele><time>2026-05-01T08:22:38.998Z</time></trkpt><trkpt lat="43.420026610764694" lon="10.867083835390044"><ele>296.2</ele><time>2026-05-01T08:22:39.998Z</time></trkpt><trkpt lat="43.42010179210402" lon="10.86693940964277"><ele>295.6</ele><time>2026-05-01T08:22:41.998Z</time></trkpt><trkpt lat="43.42018318749724" lon="10.866925947975583"><ele>295.0</ele><time>2026-05-01T08:22:42.998Z</time></trkpt><trkpt lat="43.42027385218883" lon="10.866964240468928"><ele>295.0</ele><time>2026-05-01T08:22:43.998Z</time></trkpt><trkpt lat="43.42035091207965" lon="10.867034496311472"><ele>295.0</ele><time>2026-05-01T08:22:44.998Z</time></trkpt><trkpt lat="43.42039775628959" lon="10.86712653890027"><ele>295.0</ele><time>2026-05-01T08:22:45.998Z</time></trkpt><trkpt lat="43.420388371487654" lon="10.867227672955753"><ele>295.0</ele><time>2026-05-01T08:22:46.998Z</time></trkpt><trkpt lat="43.420348007965146" lon="10.867325592179506"><ele>295.0</ele><time>2026-05-01T08:22:47.998Z</time></trkpt><trkpt lat="43.42030387704429" lon="10.867448417940734"><ele>295.0</ele><time>2026-05-01T08:22:48.998Z</time></trkpt><trkpt lat="43.42026814176624" lon="10.867571203377866"><ele>295.6</ele><time>2026-05-01T08:22:49.998Z</time></trkpt><trkpt lat="43.42024476341226" lon="10.867710857104706"><ele>296.2</ele><time>2026-05-01T08:22:50.998Z</time></trkpt><trkpt lat="43.42025130871408" lon="10.867855918425397"><ele>296.8</ele><time>2026-05-01T08:22:51.997Z</time></trkpt><trkpt lat="43.42025688908007" lon="10.86800921261958"><ele>297.4</ele><time>2026-05-01T08:22:52.997Z</time></trkpt><trkpt lat="43.42028449793059" lon="10.868167073058546"><ele>298.0</ele><time>2026-05-01T08:22:53.997Z</time></trkpt><trkpt lat="43.42031170314403" lon="10.868301865300678"><ele>298.0</ele><time>2026-05-01T08:22:54.997Z</time></trkpt><trkpt lat="43.42033461011014" lon="10.868410194968519"><ele>298.0</ele><time>2026-05-01T08:22:55.997Z</time></trkpt><trkpt lat="43.42036299128003" lon="10.868496093580553"><ele>298.0</ele><time>2026-05-01T08:22:56.997Z</time></trkpt><trkpt lat="43.420456197603464" lon="10.868579117864387"><ele>298.0</ele><time>2026-05-01T08:22:58.997Z</time></trkpt><trkpt lat="43.420532360740964" lon="10.868488500314774"><ele>298.0</ele><time>2026-05-01T08:23:00.997Z</time></trkpt><trkpt lat="43.42052673352328" lon="10.868387767881456"><ele>298.0</ele><time>2026-05-01T08:23:01.997Z</time></trkpt><trkpt lat="43.42048351727173" lon="10.868271770399044"><ele>298.0</ele><time>2026-05-01T08:23:02.997Z</time></trkpt><trkpt lat="43.420444941006764" lon="10.868148379893428"><ele>298.0</ele><time>2026-05-01T08:23:03.997Z</time></trkpt><trkpt lat="43.42043504840913" lon="10.868022998186996"><ele>298.0</ele><time>2026-05-01T08:23:04.997Z</time></trkpt><trkpt lat="43.42045490809619" lon="10.867895959483814"><ele>298.0</ele><time>2026-05-01T08:23:05.997Z</time></trkpt><trkpt lat="43.42050868736668" lon="10.86777799824957"><ele>298.0</ele><time>2026-05-01T08:23:07Z</time></trkpt><trkpt lat="43.42058744559988" lon="10.867680062849193"><ele>294.0</ele><time>2026-05-01T08:23:08Z</time></trkpt><trkpt lat="43.42066109913224" lon="10.867590752024318"><ele>290.0</ele><time>2026-05-01T08:23:09Z</time></trkpt><trkpt lat="43.4207480827581" lon="10.867524116914641"><ele>286.0</ele><time>2026-05-01T08:23:10Z</time></trkpt><trkpt lat="43.42086275527129" lon="10.867492115669277"><ele>282.0</ele><time>2026-05-01T08:23:11Z</time></trkpt><trkpt lat="43.42098299291696" lon="10.867473938744185"><ele>278.0</ele><time>2026-05-01T08:23:12Z</time></trkpt><trkpt lat="43.42109923965974" lon="10.867431715927252"><ele>278.0</ele><time>2026-05-01T08:23:13Z</time></trkpt><trkpt lat="43.42121414722483" lon="10.867359859617213"><ele>278.0</ele><time>2026-05-01T08:23:14Z</time></trkpt><trkpt lat="43.42131793898705" lon="10.867284394664583"><ele>278.0</ele><time>2026-05-01T08:23:15Z</time></trkpt><trkpt lat="43.421401512320216" lon="10.867219214487921"><ele>278.0</ele><time>2026-05-01T08:23:16Z</time></trkpt><trkpt lat="43.42147358647895" lon="10.86713806037554"><ele>278.0</ele><time>2026-05-01T08:23:17Z</time></trkpt><trkpt lat="43.42152175758335" lon="10.867040505737954"><ele>274.8</ele><time>2026-05-01T08:23:18Z</time></trkpt><trkpt lat="43.42154757581047" lon="10.866908602977446"><ele>271.6</ele><time>2026-05-01T08:23:19Z</time></trkpt><trkpt lat="43.42155817326324" lon="10.866746527877794"><ele>268.4</ele><time>2026-05-01T08:23:20Z</time></trkpt><trkpt lat="43.42156013448018" lon="10.866599035701624"><ele>265.2</ele><time>2026-05-01T08:23:21Z</time></trkpt><trkpt lat="43.421558693809864" lon="10.866470260893662"><ele>262.0</ele><time>2026-05-01T08:23:22Z</time></trkpt><trkpt lat="43.42154470110131" lon="10.86635061713307"><ele>262.0</ele><time>2026-05-01T08:23:23Z</time></trkpt><trkpt lat="43.421520263537424" lon="10.866234688912165"><ele>262.0</ele><time>2026-05-01T08:23:24Z</time></trkpt><trkpt lat="43.4214833423406" lon="10.866149560532396"><ele>262.0</ele><time>2026-05-01T08:23:25Z</time></trkpt><trkpt lat="43.42145065498886" lon="10.866006021785667"><ele>262.0</ele><time>2026-05-01T08:23:26.999Z</time></trkpt><trkpt lat="43.42154258330688" lon="10.865914437457942"><ele>262.0</ele><time>2026-05-01T08:23:28.999Z</time></trkpt><trkpt lat="43.421655555604026" lon="10.865968935734676"><ele>262.0</ele><time>2026-05-01T08:23:30.999Z</time></trkpt><trkpt lat="43.42169768309612" lon="10.866041906236877"><ele>262.0</ele><time>2026-05-01T08:23:31.999Z</time></trkpt><trkpt lat="43.42172512010352" lon="10.866144850450983"><ele>262.0</ele><time>2026-05-01T08:23:32.999Z</time></trkpt><trkpt lat="43.42176759668524" lon="10.86625818899308"><ele>262.0</ele><time>2026-05-01T08:23:33.999Z</time></trkpt><trkpt lat="43.421818286988625" lon="10.866375991035651"><ele>262.0</ele><time>2026-05-01T08:23:34.999Z</time></trkpt><trkpt lat="43.42186347571744" lon="10.866495673869872"><ele>262.0</ele><time>2026-05-01T08:23:35.999Z</time></trkpt><trkpt lat="43.42191482233479" lon="10.866621220066108"><ele>262.0</ele><time>2026-05-01T08:23:36.999Z</time></trkpt><trkpt lat="43.42197097503335" lon="10.866753777333372"><ele>262.0</ele><time>2026-05-01T08:23:37.999Z</time></trkpt><trkpt lat="43.422020113839324" lon="10.866902157922627"><ele>262.0</ele><time>2026-05-01T08:23:38.999Z</time></trkpt><trkpt lat="43.42204678276575" lon="10.867066885760575"><ele>262.0</ele><time>2026-05-01T08:23:39.999Z</time></trkpt><trkpt lat="43.42204314812251" lon="10.8672373092139"><ele>261.6</ele><time>2026-05-01T08:23:40.999Z</time></trkpt><trkpt lat="43.42205015747709" lon="10.867401797848693"><ele>261.2</ele><time>2026-05-01T08:23:41.999Z</time></trkpt><trkpt lat="43.422069534170184" lon="10.867554997666735"><ele>260.8</ele><time>2026-05-01T08:23:42.999Z</time></trkpt><trkpt lat="43.42208223311332" lon="10.867691461634488"><ele>260.4</ele><time>2026-05-01T08:23:43.999Z</time></trkpt><trkpt lat="43.42211400578545" lon="10.867814562391418"><ele>260.0</ele><time>2026-05-01T08:23:44.999Z</time></trkpt><trkpt lat="43.42217346710999" lon="10.867924729712104"><ele>255.5</ele><time>2026-05-01T08:23:45.999Z</time></trkpt><trkpt lat="43.42226615271417" lon="10.86802726014012"><ele>251.0</ele><time>2026-05-01T08:23:46.999Z</time></trkpt><trkpt lat="43.42237801475216" lon="10.868111681517785"><ele>246.5</ele><time>2026-05-01T08:23:47.999Z</time></trkpt><trkpt lat="43.422487184916335" lon="10.868191964484426"><ele>242.0</ele><time>2026-05-01T08:23:48.999Z</time></trkpt><trkpt lat="43.422581542646924" lon="10.868269151627729"><ele>242.0</ele><time>2026-05-01T08:23:49.999Z</time></trkpt><trkpt lat="43.42266461550658" lon="10.868352058751292"><ele>242.0</ele><time>2026-05-01T08:23:50.999Z</time></trkpt><trkpt lat="43.42273350161843" lon="10.868457681302752"><ele>242.0</ele><time>2026-05-01T08:23:51.999Z</time></trkpt><trkpt lat="43.42278406735428" lon="10.868606722285877"><ele>242.0</ele><time>2026-05-01T08:23:52.999Z</time></trkpt><trkpt lat="43.42282082411989" lon="10.868751791608922"><ele>242.0</ele><time>2026-05-01T08:23:53.999Z</time></trkpt><trkpt lat="43.422873057668724" lon="10.868876473614693"><ele>244.5</ele><time>2026-05-01T08:23:54.999Z</time></trkpt><trkpt lat="43.422943418709515" lon="10.868991265350061"><ele>247.0</ele><time>2026-05-01T08:23:55.999Z</time></trkpt><trkpt lat="43.42302653077626" lon="10.869104647938254"><ele>249.5</ele><time>2026-05-01T08:23:56.999Z</time></trkpt><trkpt lat="43.42310858455028" lon="10.869224966549341"><ele>252.0</ele><time>2026-05-01T08:23:57.999Z</time></trkpt><trkpt lat="43.42318406705745" lon="10.869362049392786"><ele>246.75</ele><time>2026-05-01T08:23:58.999Z</time></trkpt><trkpt lat="43.42323579141387" lon="10.869518701439604"><ele>241.5</ele><time>2026-05-01T08:23:59.999Z</time></trkpt><trkpt lat="43.423291667164655" lon="10.869682061612764"><ele>236.25</ele><time>2026-05-01T08:24:00.999Z</time></trkpt><trkpt lat="43.42336267384325" lon="10.869842717641557"><ele>231.0</ele><time>2026-05-01T08:24:01.999Z</time></trkpt><trkpt lat="43.42341491053997" lon="10.870011095551996"><ele>231.8</ele><time>2026-05-01T08:24:02.999Z</time></trkpt><trkpt lat="43.42346965890653" lon="10.870162185256484"><ele>232.60000000000002</ele><time>2026-05-01T08:24:03.999Z</time></trkpt><trkpt lat="43.423511816995955" lon="10.870303820329138"><ele>233.4</ele><time>2026-05-01T08:24:04.999Z</time></trkpt><trkpt lat="43.42355134294581" lon="10.8704316019336"><ele>234.2</ele><time>2026-05-01T08:24:05.999Z</time></trkpt><trkpt lat="43.42359152262948" lon="10.870540994604077"><ele>235.0</ele><time>2026-05-01T08:24:06.999Z</time></trkpt><trkpt lat="43.423622680593645" lon="10.87061996606439"><ele>235.0</ele><time>2026-05-01T08:24:07.999Z</time></trkpt><trkpt lat="43.42370534545172" lon="10.870703639388854"><ele>235.0</ele><time>2026-05-01T08:24:09.999Z</time></trkpt><trkpt lat="43.423795115168524" lon="10.870611138851126"><ele>235.0</ele><time>2026-05-01T08:24:11.999Z</time></trkpt><trkpt lat="43.42380609789987" lon="10.87050487853567"><ele>235.0</ele><time>2026-05-01T08:24:12.999Z</time></trkpt><trkpt lat="43.42379112543607" lon="10.870372134411221"><ele>235.0</ele><time>2026-05-01T08:24:13.998Z</time></trkpt><trkpt lat="43.42377572698694" lon="10.870229474137885"><ele>234.0</ele><time>2026-05-01T08:24:14.998Z</time></trkpt><trkpt lat="43.42375797785289" lon="10.870078527103406"><ele>233.0</ele><time>2026-05-01T08:24:15.998Z</time></trkpt><trkpt lat="43.4237377445731" lon="10.869911999985575"><ele>232.0</ele><time>2026-05-01T08:24:16.998Z</time></trkpt><trkpt lat="43.42371295378847" lon="10.86973680554419"><ele>231.0</ele><time>2026-05-01T08:24:17.998Z</time></trkpt><trkpt lat="43.42368366679136" lon="10.869558851223983"><ele>231.0</ele><time>2026-05-01T08:24:18.998Z</time></trkpt><trkpt lat="43.42365913548096" lon="10.869394000602126"><ele>231.00000000000003</ele><time>2026-05-01T08:24:19.998Z</time></trkpt><trkpt lat="43.42363810328923" lon="10.869245690789"><ele>231.00000000000003</ele><time>2026-05-01T08:24:20.998Z</time></trkpt><trkpt lat="43.4236172124004" lon="10.869124896089575"><ele>231.0</ele><time>2026-05-01T08:24:21.998Z</time></trkpt><trkpt lat="43.42360771766922" lon="10.869029699810785"><ele>231.0</ele><time>2026-05-01T08:24:22.998Z</time></trkpt><trkpt lat="43.42365276582318" lon="10.868900548306922"><ele>229.8</ele><time>2026-05-01T08:24:24.998Z</time></trkpt><trkpt lat="43.423763295114014" lon="10.868934424429726"><ele>228.60000000000002</ele><time>2026-05-01T08:24:26.998Z</time></trkpt><trkpt lat="43.42378504084285" lon="10.869055059246499"><ele>227.4</ele><time>2026-05-01T08:24:27.998Z</time></trkpt><trkpt lat="43.423829029770076" lon="10.869177369188739"><ele>226.2</ele><time>2026-05-01T08:24:28.998Z</time></trkpt><trkpt lat="43.423864151985796" lon="10.869315596072429"><ele>225.0</ele><time>2026-05-01T08:24:29.998Z</time></trkpt><trkpt lat="43.423905150229764" lon="10.869448130192614"><ele>220.25</ele><time>2026-05-01T08:24:30.998Z</time></trkpt><trkpt lat="43.423944734974945" lon="10.869601958141228"><ele>215.5</ele><time>2026-05-01T08:24:31.998Z</time></trkpt><trkpt lat="43.4239846349841" lon="10.869759788920465"><ele>210.75</ele><time>2026-05-01T08:24:32.998Z</time></trkpt><trkpt lat="43.42404933992919" lon="10.869917500692063"><ele>206.0</ele><time>2026-05-01T08:24:33.998Z</time></trkpt><trkpt lat="43.42412354126263" lon="10.870067571189304"><ele>207.0</ele><time>2026-05-01T08:24:34.998Z</time></trkpt><trkpt lat="43.424191812568665" lon="10.870210113048495"><ele>208.0</ele><time>2026-05-01T08:24:35.998Z</time></trkpt><trkpt lat="43.42425141511553" lon="10.870354115276543"><ele>209.0</ele><time>2026-05-01T08:24:36.998Z</time></trkpt><trkpt lat="43.42429527548735" lon="10.870502267484797"><ele>210.0</ele><time>2026-05-01T08:24:37.998Z</time></trkpt><trkpt lat="43.4243339860668" lon="10.870656311851233"><ele>210.0</ele><time>2026-05-01T08:24:38.998Z</time></trkpt><trkpt lat="43.424366619378944" lon="10.870812528420952"><ele>210.0</ele><time>2026-05-01T08:24:39.998Z</time></trkpt><trkpt lat="43.42440067958132" lon="10.870962554039421"><ele>210.0</ele><time>2026-05-01T08:24:40.998Z</time></trkpt><trkpt lat="43.42445139119343" lon="10.871103148030443"><ele>210.0</ele><time>2026-05-01T08:24:41.998Z</time></trkpt><trkpt lat="43.42452313585086" lon="10.871244925020287"><ele>209.25</ele><time>2026-05-01T08:24:42.998Z</time></trkpt><trkpt lat="43.42461649221868" lon="10.87138727919937"><ele>208.5</ele><time>2026-05-01T08:24:43.998Z</time></trkpt><trkpt lat="43.42471129688833" lon="10.87151786542912"><ele>207.75</ele><time>2026-05-01T08:24:44.998Z</time></trkpt><trkpt lat="43.424801151472245" lon="10.871643012110392"><ele>207.0</ele><time>2026-05-01T08:24:45.998Z</time></trkpt><trkpt lat="43.424887512693886" lon="10.87176382560129"><ele>202.75</ele><time>2026-05-01T08:24:46.998Z</time></trkpt><trkpt lat="43.42497062307738" lon="10.87188496450887"><ele>198.5</ele><time>2026-05-01T08:24:47.998Z</time></trkpt><trkpt lat="43.42505531578571" lon="10.872007464042467"><ele>194.25</ele><time>2026-05-01T08:24:48.998Z</time></trkpt><trkpt lat="43.42514379043609" lon="10.872131689934777"><ele>190.0</ele><time>2026-05-01T08:24:49.998Z</time></trkpt><trkpt lat="43.42523342600499" lon="10.872255445009928"><ele>190.0</ele><time>2026-05-01T08:24:50.998Z</time></trkpt><trkpt lat="43.42532299915203" lon="10.872379707067862"><ele>190.0</ele><time>2026-05-01T08:24:51.998Z</time></trkpt><trkpt lat="43.42540439235977" lon="10.872491209482602"><ele>190.0</ele><time>2026-05-01T08:24:52.998Z</time></trkpt><trkpt lat="43.42547682358564" lon="10.872587782104455"><ele>190.0</ele><time>2026-05-01T08:24:53.998Z</time></trkpt><trkpt lat="43.42552622289482" lon="10.872669562502619"><ele>190.0</ele><time>2026-05-01T08:24:54.998Z</time></trkpt><trkpt lat="43.42555805626325" lon="10.872753765159116"><ele>189.2</ele><time>2026-05-01T08:24:55.998Z</time></trkpt><trkpt lat="43.4255326032621" lon="10.872905447741545"><ele>188.4</ele><time>2026-05-01T08:24:57.998Z</time></trkpt><trkpt lat="43.4254714421666" lon="10.872930689707223"><ele>187.60000000000002</ele><time>2026-05-01T08:24:58.998Z</time></trkpt><trkpt lat="43.425407141515436" lon="10.872986118101696"><ele>186.8</ele><time>2026-05-01T08:24:59.998Z</time></trkpt><trkpt lat="43.42532628851272" lon="10.873056596768057"><ele>186.0</ele><time>2026-05-01T08:25:00.998Z</time></trkpt><trkpt lat="43.425237959379245" lon="10.873133592290573"><ele>186.0</ele><time>2026-05-01T08:25:01.997Z</time></trkpt><trkpt lat="43.425145955510466" lon="10.873219040646125"><ele>186.0</ele><time>2026-05-01T08:25:02.997Z</time></trkpt><trkpt lat="43.425063022246206" lon="10.873312118174812"><ele>186.0</ele><time>2026-05-01T08:25:03.997Z</time></trkpt><trkpt lat="43.424990627904336" lon="10.873429364373145"><ele>186.0</ele><time>2026-05-01T08:25:04.997Z</time></trkpt><trkpt lat="43.42492809106092" lon="10.87358308468139"><ele>184.75</ele><time>2026-05-01T08:25:05.997Z</time></trkpt><trkpt lat="43.42486994054919" lon="10.873745191785254"><ele>183.5</ele><time>2026-05-01T08:25:06.997Z</time></trkpt><trkpt lat="43.42479721896129" lon="10.873900348661197"><ele>182.25</ele><time>2026-05-01T08:25:07.997Z</time></trkpt><trkpt lat="43.42471422470672" lon="10.874055496790378"><ele>181.0</ele><time>2026-05-01T08:25:08.997Z</time></trkpt><trkpt lat="43.42462174644282" lon="10.874204226026228"><ele>177.75</ele><time>2026-05-01T08:25:09.997Z</time></trkpt><trkpt lat="43.42453849837419" lon="10.874357690495405"><ele>174.5</ele><time>2026-05-01T08:25:10.997Z</time></trkpt><trkpt lat="43.42446493185249" lon="10.874509861755117"><ele>171.25</ele><time>2026-05-01T08:25:11.997Z</time></trkpt><trkpt lat="43.42439836697281" lon="10.874653648040212"><ele>168.0</ele><time>2026-05-01T08:25:13Z</time></trkpt><trkpt lat="43.424339574818426" lon="10.874790849208724"><ele>168.0</ele><time>2026-05-01T08:25:14Z</time></trkpt><trkpt lat="43.42428761028388" lon="10.874919831651761"><ele>168.0</ele><time>2026-05-01T08:25:15Z</time></trkpt><trkpt lat="43.424240872570955" lon="10.875054887216937"><ele>168.0</ele><time>2026-05-01T08:25:16Z</time></trkpt><trkpt lat="43.424200752522545" lon="10.875198704600928"><ele>168.0</ele><time>2026-05-01T08:25:17Z</time></trkpt><trkpt lat="43.424174987332705" lon="10.875355909976198"><ele>168.0</ele><time>2026-05-01T08:25:18Z</time></trkpt><trkpt lat="43.4241667532508" lon="10.875487178085104"><ele>167.28571428571428</ele><time>2026-05-01T08:25:19Z</time></trkpt><trkpt lat="43.42416009861445" lon="10.87558754981348"><ele>166.57142857142856</ele><time>2026-05-01T08:25:20Z</time></trkpt><trkpt lat="43.42415294013227" lon="10.875683490939938"><ele>165.85714285714286</ele><time>2026-05-01T08:25:21Z</time></trkpt><trkpt lat="43.424148214831284" lon="10.875773752371307"><ele>165.14285714285714</ele><time>2026-05-01T08:25:22Z</time></trkpt><trkpt lat="43.42414458096737" lon="10.875879936706834"><ele>164.42857142857142</ele><time>2026-05-01T08:25:23Z</time></trkpt><trkpt lat="43.424151236103185" lon="10.875995338284094"><ele>163.71428571428572</ele><time>2026-05-01T08:25:24Z</time></trkpt><trkpt lat="43.42419127778977" lon="10.876083126076368"><ele>163.0</ele><time>2026-05-01T08:25:25Z</time></trkpt><trkpt lat="43.42423298032459" lon="10.876165799040837"><ele>162.8</ele><time>2026-05-01T08:25:26Z</time></trkpt><trkpt lat="43.42430149215297" lon="10.87625118938493"><ele>162.60000000000002</ele><time>2026-05-01T08:25:27Z</time></trkpt><trkpt lat="43.42438569132342" lon="10.876328459190983"><ele>162.39999999999998</ele><time>2026-05-01T08:25:28Z</time></trkpt><trkpt lat="43.42447502695769" lon="10.876393895460096"><ele>162.2</ele><time>2026-05-01T08:25:29Z</time></trkpt><trkpt lat="43.424558427476384" lon="10.876442383896277"><ele>162.0</ele><time>2026-05-01T08:25:30Z</time></trkpt><trkpt lat="43.42463976532862" lon="10.876467791062687"><ele>161.33333333333334</ele><time>2026-05-01T08:25:31Z</time></trkpt><trkpt lat="43.42472045577733" lon="10.87647275997937"><ele>160.66666666666666</ele><time>2026-05-01T08:25:32Z</time></trkpt><trkpt lat="43.42479687596657" lon="10.876466116440266"><ele>160.0</ele><time>2026-05-01T08:25:33Z</time></trkpt><trkpt lat="43.42490828620115" lon="10.876468158438875"><ele>159.33333333333331</ele><time>2026-05-01T08:25:35Z</time></trkpt><trkpt lat="43.42499974919577" lon="10.876466014397899"><ele>158.66666666666666</ele><time>2026-05-01T08:25:42.999Z</time></trkpt><trkpt lat="43.42506648967816" lon="10.876417304155819"><ele>158.0</ele><time>2026-05-01T08:25:44.999Z</time></trkpt><trkpt lat="43.425133983129996" lon="10.876276349754296"><ele>158.0</ele><time>2026-05-01T08:25:46.999Z</time></trkpt><trkpt lat="43.42517096104741" lon="10.876186094680188"><ele>158.0</ele><time>2026-05-01T08:25:47.999Z</time></trkpt><trkpt lat="43.42520786427014" lon="10.876076031443247"><ele>158.0</ele><time>2026-05-01T08:25:48.999Z</time></trkpt><trkpt lat="43.42524340156477" lon="10.875958309840529"><ele>158.0</ele><time>2026-05-01T08:25:49.999Z</time></trkpt><trkpt lat="43.42527844009563" lon="10.875840063962254"><ele>158.0</ele><time>2026-05-01T08:25:50.999Z</time></trkpt><trkpt lat="43.42531362727554" lon="10.875726165733388"><ele>158.0</ele><time>2026-05-01T08:25:51.999Z</time></trkpt><trkpt lat="43.42534942642635" lon="10.87560443662945"><ele>157.8</ele><time>2026-05-01T08:25:52.999Z</time></trkpt><trkpt lat="43.42538848508008" lon="10.87548061339607"><ele>157.60000000000002</ele><time>2026-05-01T08:25:53.999Z</time></trkpt><trkpt lat="43.42542699515528" lon="10.875358357162929"><ele>157.39999999999998</ele><time>2026-05-01T08:25:54.999Z</time></trkpt><trkpt lat="43.42546972117954" lon="10.875237406559142"><ele>157.2</ele><time>2026-05-01T08:25:55.999Z</time></trkpt><trkpt lat="43.42551476338407" lon="10.875114591617008"><ele>157.0</ele><time>2026-05-01T08:25:56.999Z</time></trkpt><trkpt lat="43.42556441380825" lon="10.874986925014312"><ele>155.75</ele><time>2026-05-01T08:25:57.999Z</time></trkpt><trkpt lat="43.42560836752428" lon="10.87484800417709"><ele>154.5</ele><time>2026-05-01T08:25:58.999Z</time></trkpt><trkpt lat="43.42565453147215" lon="10.874709745869678"><ele>153.25</ele><time>2026-05-01T08:25:59.999Z</time></trkpt><trkpt lat="43.42574929284661" lon="10.874541640060398"><ele>152.0</ele><time>2026-05-01T08:26:00.999Z</time></trkpt><trkpt lat="43.42583431272761" lon="10.874338003593342"><ele>151.33333333333331</ele><time>2026-05-01T08:26:01.999Z</time></trkpt><trkpt lat="43.42595025387566" lon="10.874128967402745"><ele>150.66666666666666</ele><time>2026-05-01T08:26:02.999Z</time></trkpt><trkpt lat="43.42607538582361" lon="10.87388017994046"><ele>150.0</ele><time>2026-05-01T08:26:03.999Z</time></trkpt><trkpt lat="43.42620563128045" lon="10.873607008429506"><ele>148.5</ele><time>2026-05-01T08:26:04.999Z</time></trkpt><trkpt lat="43.42633558684416" lon="10.873341999558443"><ele>147.0</ele><time>2026-05-01T08:26:05.999Z</time></trkpt><trkpt lat="43.426463772524905" lon="10.873085885100641"><ele>147.0</ele><time>2026-05-01T08:26:06.999Z</time></trkpt><trkpt lat="43.42658538168596" lon="10.872837640372879"><ele>147.0</ele><time>2026-05-01T08:26:07.999Z</time></trkpt><trkpt lat="43.42669616627339" lon="10.872610507278818"><ele>147.0</ele><time>2026-05-01T08:26:08.999Z</time></trkpt><trkpt lat="43.426800879809136" lon="10.87239865641748"><ele>149.33333333333334</ele><time>2026-05-01T08:26:09.999Z</time></trkpt><trkpt lat="43.426893735130214" lon="10.872200791131592"><ele>151.66666666666669</ele><time>2026-05-01T08:26:10.999Z</time></trkpt><trkpt lat="43.42698040321334" lon="10.871996804328242"><ele>154.0</ele><time>2026-05-01T08:26:11.999Z</time></trkpt><trkpt lat="43.42705308812176" lon="10.87175956823346"><ele>155.66666666666669</ele><time>2026-05-01T08:26:12.999Z</time></trkpt><trkpt lat="43.42710645009442" lon="10.871489012330997"><ele>157.33333333333334</ele><time>2026-05-01T08:26:13.999Z</time></trkpt><trkpt lat="43.42714826673685" lon="10.871186274152175"><ele>159.0</ele><time>2026-05-01T08:26:14.999Z</time></trkpt><trkpt lat="43.427183006015234" lon="10.870885906263084"><ele>155.66666666666666</ele><time>2026-05-01T08:26:15.999Z</time></trkpt><trkpt lat="43.42722046715855" lon="10.870601788374008"><ele>152.33333333333331</ele><time>2026-05-01T08:26:16.999Z</time></trkpt><trkpt lat="43.42725371339529" lon="10.870343802959683"><ele>149.0</ele><time>2026-05-01T08:26:17.999Z</time></trkpt><trkpt lat="43.42729176933852" lon="10.870108287274132"><ele>149.0</ele><time>2026-05-01T08:26:18.999Z</time></trkpt><trkpt lat="43.42735556857728" lon="10.869885787993452"><ele>149.0</ele><time>2026-05-01T08:26:19.999Z</time></trkpt><trkpt lat="43.427453781321276" lon="10.869659905125365"><ele>149.0</ele><time>2026-05-01T08:26:20.999Z</time></trkpt><trkpt lat="43.42757040023271" lon="10.869428208083843"><ele>149.33333333333331</ele><time>2026-05-01T08:26:21.999Z</time></trkpt><trkpt lat="43.42769249759584" lon="10.869205107229352"><ele>149.66666666666666</ele><time>2026-05-01T08:26:22.999Z</time></trkpt><trkpt lat="43.427814475737456" lon="10.86897639335953"><ele>150.0</ele><time>2026-05-01T08:26:23.999Z</time></trkpt><trkpt lat="43.427943865232265" lon="10.868734157434687"><ele>150.0</ele><time>2026-05-01T08:26:24.999Z</time></trkpt><trkpt lat="43.42808304628459" lon="10.868492666262622"><ele>150.0</ele><time>2026-05-01T08:26:25.999Z</time></trkpt><trkpt lat="43.428223248807036" lon="10.868254418293274"><ele>150.0</ele><time>2026-05-01T08:26:26.999Z</time></trkpt><trkpt lat="43.4283681509144" lon="10.868026424892532"><ele>150.0</ele><time>2026-05-01T08:26:27.999Z</time></trkpt><trkpt lat="43.42851922538226" lon="10.867817642812334"><ele>150.0</ele><time>2026-05-01T08:26:28.998Z</time></trkpt><trkpt lat="43.42867192074678" lon="10.867629768251417"><ele>150.0</ele><time>2026-05-01T08:26:29.998Z</time></trkpt><trkpt lat="43.428822366023006" lon="10.867447924517023"><ele>149.33333333333334</ele><time>2026-05-01T08:26:30.998Z</time></trkpt><trkpt lat="43.42897348534651" lon="10.867268775550738"><ele>148.66666666666669</ele><time>2026-05-01T08:26:31.998Z</time></trkpt><trkpt lat="43.42912469196543" lon="10.867093495428195"><ele>148.0</ele><time>2026-05-01T08:26:32.998Z</time></trkpt><trkpt lat="43.429267770821085" lon="10.866906794881748"><ele>146.66666666666669</ele><time>2026-05-01T08:26:33.998Z</time></trkpt><trkpt lat="43.429406187594154" lon="10.866707676543696"><ele>145.33333333333334</ele><time>2026-05-01T08:26:34.998Z</time></trkpt><trkpt lat="43.42954888152814" lon="10.866503731088626"><ele>144.0</ele><time>2026-05-01T08:26:35.998Z</time></trkpt><trkpt lat="43.42969664914901" lon="10.866300107145983"><ele>144.0</ele><time>2026-05-01T08:26:36.998Z</time></trkpt><trkpt lat="43.42984769354503" lon="10.86609137896177"><ele>144.0</ele><time>2026-05-01T08:26:37.998Z</time></trkpt><trkpt lat="43.42999995504008" lon="10.865871608829746"><ele>144.0</ele><time>2026-05-01T08:26:38.998Z</time></trkpt><trkpt lat="43.43014784576366" lon="10.8656517464086"><ele>144.0</ele><time>2026-05-01T08:26:39.998Z</time></trkpt><trkpt lat="43.43029644547202" lon="10.865428156987415"><ele>144.0</ele><time>2026-05-01T08:26:40.998Z</time></trkpt><trkpt lat="43.4304515936864" lon="10.86520631057828"><ele>144.0</ele><time>2026-05-01T08:26:41.998Z</time></trkpt><trkpt lat="43.43061472287887" lon="10.864992317742642"><ele>143.0</ele><time>2026-05-01T08:26:42.998Z</time></trkpt><trkpt lat="43.430772929453084" lon="10.864769303544936"><ele>142.0</ele><time>2026-05-01T08:26:43.998Z</time></trkpt><trkpt lat="43.430928081344774" lon="10.864542309760676"><ele>142.0</ele><time>2026-05-01T08:26:44.998Z</time></trkpt><trkpt lat="43.43108177829176" lon="10.86431960184109"><ele>142.0</ele><time>2026-05-01T08:26:45.998Z</time></trkpt><trkpt lat="43.43123184806402" lon="10.86410028304678"><ele>142.0</ele><time>2026-05-01T08:26:46.998Z</time></trkpt><trkpt lat="43.43137613144207" lon="10.863890135451454"><ele>141.33333333333334</ele><time>2026-05-01T08:26:47.998Z</time></trkpt><trkpt lat="43.43150851987594" lon="10.86369846420812"><ele>140.66666666666666</ele><time>2026-05-01T08:26:48.998Z</time></trkpt><trkpt lat="43.431626537197346" lon="10.863521119354015"><ele>140.0</ele><time>2026-05-01T08:26:49.998Z</time></trkpt><trkpt lat="43.43173841266519" lon="10.863364372296349"><ele>140.0</ele><time>2026-05-01T08:26:50.998Z</time></trkpt><trkpt lat="43.43185910800271" lon="10.863231478964288"><ele>140.0</ele><time>2026-05-01T08:26:51.998Z</time></trkpt><trkpt lat="43.43201125303713" lon="10.863124355590953"><ele>140.0</ele><time>2026-05-01T08:26:52.998Z</time></trkpt><trkpt lat="43.43217635746218" lon="10.863064250531682"><ele>139.0</ele><time>2026-05-01T08:26:53.998Z</time></trkpt><trkpt lat="43.432347250385696" lon="10.863037902547372"><ele>138.0</ele><time>2026-05-01T08:26:54.998Z</time></trkpt><trkpt lat="43.432526583363064" lon="10.863017297357198"><ele>137.0</ele><time>2026-05-01T08:26:55.998Z</time></trkpt><trkpt lat="43.43271610643514" lon="10.863001974211366"><ele>137.0</ele><time>2026-05-01T08:26:56.998Z</time></trkpt><trkpt lat="43.432917477795826" lon="10.862985488478525"><ele>137.0</ele><time>2026-05-01T08:26:57.998Z</time></trkpt><trkpt lat="43.433136944024774" lon="10.862964224010163"><ele>137.0</ele><time>2026-05-01T08:26:58.998Z</time></trkpt><trkpt lat="43.43335541809466" lon="10.862943820422235"><ele>137.33333333333331</ele><time>2026-05-01T08:26:59.998Z</time></trkpt><trkpt lat="43.43356504828374" lon="10.86292464868572"><ele>137.66666666666666</ele><time>2026-05-01T08:27:00.998Z</time></trkpt><trkpt lat="43.433774551176924" lon="10.862905118339352"><ele>138.0</ele><time>2026-05-01T08:27:01.998Z</time></trkpt><trkpt lat="43.433980968530214" lon="10.862885473793554"><ele>138.33333333333334</ele><time>2026-05-01T08:27:02.998Z</time></trkpt><trkpt lat="43.434184820596535" lon="10.862863185281038"><ele>138.66666666666669</ele><time>2026-05-01T08:27:03.998Z</time></trkpt><trkpt lat="43.434384758240135" lon="10.862844723993891"><ele>139.0</ele><time>2026-05-01T08:27:04.998Z</time></trkpt><trkpt lat="43.43457867071214" lon="10.862827181072253"><ele>140.0</ele><time>2026-05-01T08:27:05.998Z</time></trkpt><trkpt lat="43.43476074290765" lon="10.86281377692834"><ele>141.0</ele><time>2026-05-01T08:27:06.998Z</time></trkpt><trkpt lat="43.434930793348286" lon="10.862799347625362"><ele>142.0</ele><time>2026-05-01T08:27:07.998Z</time></trkpt><trkpt lat="43.435083930184966" lon="10.86277857088537"><ele>142.0</ele><time>2026-05-01T08:27:08.998Z</time></trkpt><trkpt lat="43.435233839214" lon="10.862742902211805"><ele>142.0</ele><time>2026-05-01T08:27:09.998Z</time></trkpt><trkpt lat="43.435385415693055" lon="10.862671977476243"><ele>142.0</ele><time>2026-05-01T08:27:10.998Z</time></trkpt><trkpt lat="43.4355337478969" lon="10.862560407514186"><ele>142.66666666666669</ele><time>2026-05-01T08:27:11.998Z</time></trkpt><trkpt lat="43.43567548840201" lon="10.86241604797039"><ele>143.33333333333334</ele><time>2026-05-01T08:27:12.998Z</time></trkpt><trkpt lat="43.43581177189255" lon="10.86225850272773"><ele>144.0</ele><time>2026-05-01T08:27:13.998Z</time></trkpt><trkpt lat="43.43594265011601" lon="10.862096179379686"><ele>144.0</ele><time>2026-05-01T08:27:14.998Z</time></trkpt><trkpt lat="43.43607798986425" lon="10.86193540642002"><ele>144.0</ele><time>2026-05-01T08:27:15.998Z</time></trkpt><trkpt lat="43.43622096967452" lon="10.86177666935009"><ele>144.0</ele><time>2026-05-01T08:27:16.998Z</time></trkpt><trkpt lat="43.43636839266893" lon="10.861607284630681"><ele>144.0</ele><time>2026-05-01T08:27:17.998Z</time></trkpt><trkpt lat="43.43652420709408" lon="10.861425861457839"><ele>144.0</ele><time>2026-05-01T08:27:19Z</time></trkpt><trkpt lat="43.43668832523592" lon="10.861233350411036"><ele>144.0</ele><time>2026-05-01T08:27:20Z</time></trkpt><trkpt lat="43.4368520179656" lon="10.861039438867378"><ele>143.33333333333334</ele><time>2026-05-01T08:27:21Z</time></trkpt><trkpt lat="43.437015578955204" lon="10.86085076939683"><ele>142.66666666666669</ele><time>2026-05-01T08:27:22Z</time></trkpt><trkpt lat="43.43717637123034" lon="10.860664037535091"><ele>142.0</ele><time>2026-05-01T08:27:23Z</time></trkpt><trkpt lat="43.43733407493253" lon="10.860482018163095"><ele>142.0</ele><time>2026-05-01T08:27:24Z</time></trkpt><trkpt lat="43.43748817321116" lon="10.860306078501335"><ele>142.0</ele><time>2026-05-01T08:27:25Z</time></trkpt><trkpt lat="43.43763825318261" lon="10.860128596447234"><ele>142.0</ele><time>2026-05-01T08:27:26Z</time></trkpt><trkpt lat="43.43778541866773" lon="10.859953763473463"><ele>141.33333333333334</ele><time>2026-05-01T08:27:27Z</time></trkpt><trkpt lat="43.43792865458123" lon="10.859785994130021"><ele>140.66666666666666</ele><time>2026-05-01T08:27:28Z</time></trkpt><trkpt lat="43.438078921014394" lon="10.859626648148561"><ele>140.0</ele><time>2026-05-01T08:27:29Z</time></trkpt><trkpt lat="43.43824121366437" lon="10.859480532796757"><ele>140.33333333333331</ele><time>2026-05-01T08:27:30Z</time></trkpt><trkpt lat="43.438414793503604" lon="10.859343546275014"><ele>140.66666666666666</ele><time>2026-05-01T08:27:31Z</time></trkpt><trkpt lat="43.43859206446741" lon="10.859210482746551"><ele>141.0</ele><time>2026-05-01T08:27:32Z</time></trkpt><trkpt lat="43.43877271594621" lon="10.85907024174519"><ele>140.66666666666666</ele><time>2026-05-01T08:27:33Z</time></trkpt><trkpt lat="43.438956310533875" lon="10.858923731444863"><ele>140.33333333333331</ele><time>2026-05-01T08:27:34Z</time></trkpt><trkpt lat="43.43914395769162" lon="10.858778027110308"><ele>140.0</ele><time>2026-05-01T08:27:35Z</time></trkpt><trkpt lat="43.439331595922944" lon="10.858638764099684"><ele>140.0</ele><time>2026-05-01T08:27:36Z</time></trkpt><trkpt lat="43.43951262362569" lon="10.85849462961492"><ele>140.0</ele><time>2026-05-01T08:27:37Z</time></trkpt><trkpt lat="43.43969483731673" lon="10.858349741484561"><ele>140.0</ele><time>2026-05-01T08:27:38Z</time></trkpt><trkpt lat="43.439878609757315" lon="10.85820684026854"><ele>138.66666666666666</ele><time>2026-05-01T08:27:39Z</time></trkpt><trkpt lat="43.440062910619524" lon="10.858063315064575"><ele>137.33333333333334</ele><time>2026-05-01T08:27:40Z</time></trkpt><trkpt lat="43.44024539206161" lon="10.857923387448775"><ele>136.0</ele><time>2026-05-01T08:27:41Z</time></trkpt><trkpt lat="43.44042337995663" lon="10.857784097802828"><ele>135.33333333333334</ele><time>2026-05-01T08:27:42Z</time></trkpt><trkpt lat="43.44058981568014" lon="10.857648628898833"><ele>134.66666666666666</ele><time>2026-05-01T08:27:43Z</time></trkpt><trkpt lat="43.44074880911543" lon="10.857499302127888"><ele>134.0</ele><time>2026-05-01T08:27:44Z</time></trkpt><trkpt lat="43.440901498757256" lon="10.85731249431582"><ele>131.5</ele><time>2026-05-01T08:27:45Z</time></trkpt><trkpt lat="43.441041444333166" lon="10.85707738812"><ele>129.0</ele><time>2026-05-01T08:27:46Z</time></trkpt><trkpt lat="43.44117366083492" lon="10.85681896781472"><ele>127.0</ele><time>2026-05-01T08:27:47Z</time></trkpt><trkpt lat="43.44130730940992" lon="10.856563028712346"><ele>125.0</ele><time>2026-05-01T08:27:48Z</time></trkpt><trkpt lat="43.44143620132281" lon="10.856312330157348"><ele>125.0</ele><time>2026-05-01T08:27:49Z</time></trkpt><trkpt lat="43.441555168622244" lon="10.856082609926817"><ele>125.0</ele><time>2026-05-01T08:27:50Z</time></trkpt><trkpt lat="43.44166802668734" lon="10.855865235842106"><ele>125.0</ele><time>2026-05-01T08:27:51Z</time></trkpt><trkpt lat="43.441773136074815" lon="10.855656813232919"><ele>125.33333333333333</ele><time>2026-05-01T08:27:52Z</time></trkpt><trkpt lat="43.441871901725655" lon="10.85546653433756"><ele>125.66666666666666</ele><time>2026-05-01T08:27:52.999Z</time></trkpt><trkpt lat="43.441990754647726" lon="10.85528148437259"><ele>126.0</ele><time>2026-05-01T08:27:53.999Z</time></trkpt><trkpt lat="43.442142609921845" lon="10.855121024419761"><ele>124.0</ele><time>2026-05-01T08:27:54.999Z</time></trkpt><trkpt lat="43.44231157568305" lon="10.854999602784819"><ele>122.0</ele><time>2026-05-01T08:27:55.999Z</time></trkpt><trkpt lat="43.442493912112596" lon="10.854921156449686"><ele>120.0</ele><time>2026-05-01T08:27:56.999Z</time></trkpt><trkpt lat="43.442690484979316" lon="10.854876254758288"><ele>120.0</ele><time>2026-05-01T08:27:57.999Z</time></trkpt><trkpt lat="43.44289698867213" lon="10.85483887356321"><ele>120.0</ele><time>2026-05-01T08:27:58.999Z</time></trkpt><trkpt lat="43.44309700331652" lon="10.854797420152217"><ele>120.0</ele><time>2026-05-01T08:27:59.999Z</time></trkpt><trkpt lat="43.44329502363413" lon="10.854756943536996"><ele>120.0</ele><time>2026-05-01T08:28:00.999Z</time></trkpt><trkpt lat="43.44349517780407" lon="10.854719525020906"><ele>120.0</ele><time>2026-05-01T08:28:01.999Z</time></trkpt><trkpt lat="43.44369288961308" lon="10.854684308580506"><ele>120.0</ele><time>2026-05-01T08:28:02.999Z</time></trkpt><trkpt lat="43.44388914253395" lon="10.854648390084074"><ele>120.0</ele><time>2026-05-01T08:28:03.999Z</time></trkpt><trkpt lat="43.444084258128605" lon="10.854614183306873"><ele>120.0</ele><time>2026-05-01T08:28:04.999Z</time></trkpt><trkpt lat="43.44427946734632" lon="10.854575954528789"><ele>120.0</ele><time>2026-05-01T08:28:05.999Z</time></trkpt><trkpt lat="43.44447473677103" lon="10.854533430164173"><ele>119.66666666666666</ele><time>2026-05-01T08:28:06.999Z</time></trkpt><trkpt lat="43.44467312147913" lon="10.85449071164563"><ele>119.33333333333333</ele><time>2026-05-01T08:28:07.999Z</time></trkpt><trkpt lat="43.44487120128797" lon="10.854452724531589"><ele>119.0</ele><time>2026-05-01T08:28:08.999Z</time></trkpt><trkpt lat="43.445067016732786" lon="10.854415606656437"><ele>119.0</ele><time>2026-05-01T08:28:09.999Z</time></trkpt><trkpt lat="43.44525931357316" lon="10.85437663011712"><ele>119.0</ele><time>2026-05-01T08:28:10.999Z</time></trkpt><trkpt lat="43.44544838193615" lon="10.854343862605848"><ele>119.0</ele><time>2026-05-01T08:28:11.999Z</time></trkpt><trkpt lat="43.44563391986083" lon="10.854309187108283"><ele>118.0</ele><time>2026-05-01T08:28:12.999Z</time></trkpt><trkpt lat="43.445811152950576" lon="10.854274199538706"><ele>117.0</ele><time>2026-05-01T08:28:13.999Z</time></trkpt><trkpt lat="43.44598780449498" lon="10.854225180010028"><ele>116.0</ele><time>2026-05-01T08:28:14.999Z</time></trkpt><trkpt lat="43.44616470000116" lon="10.854153734559894"><ele>115.33333333333333</ele><time>2026-05-01T08:28:15.999Z</time></trkpt><trkpt lat="43.44634187145818" lon="10.854055086124536"><ele>114.66666666666666</ele><time>2026-05-01T08:28:16.999Z</time></trkpt><trkpt lat="43.44652225160086" lon="10.853937182414256"><ele>114.0</ele><time>2026-05-01T08:28:17.999Z</time></trkpt><trkpt lat="43.44670707627441" lon="10.853813292937788"><ele>114.0</ele><time>2026-05-01T08:28:18.999Z</time></trkpt><trkpt lat="43.44689237359143" lon="10.853686166659907"><ele>114.0</ele><time>2026-05-01T08:28:19.999Z</time></trkpt><trkpt lat="43.44707469355919" lon="10.853559992900461"><ele>114.0</ele><time>2026-05-01T08:28:20.999Z</time></trkpt><trkpt lat="43.44725684842174" lon="10.853434990364985"><ele>114.33333333333334</ele><time>2026-05-01T08:28:21.999Z</time></trkpt><trkpt lat="43.447437825584316" lon="10.853307471115624"><ele>114.66666666666667</ele><time>2026-05-01T08:28:22.999Z</time></trkpt><trkpt lat="43.44761367507811" lon="10.853181657338663"><ele>115.0</ele><time>2026-05-01T08:28:23.999Z</time></trkpt><trkpt lat="43.44778597046881" lon="10.853062646744375"><ele>115.0</ele><time>2026-05-01T08:28:24.999Z</time></trkpt><trkpt lat="43.4479518853835" lon="10.852947855713674"><ele>115.0</ele><time>2026-05-01T08:28:25.999Z</time></trkpt><trkpt lat="43.44811281676395" lon="10.852835629691507"><ele>115.0</ele><time>2026-05-01T08:28:26.999Z</time></trkpt><trkpt lat="43.44827096515644" lon="10.852725855516443"><ele>115.33333333333334</ele><time>2026-05-01T08:28:27.999Z</time></trkpt><trkpt lat="43.44842505730884" lon="10.852615997058358"><ele>115.66666666666666</ele><time>2026-05-01T08:28:28.999Z</time></trkpt><trkpt lat="43.44857489493771" lon="10.852506701232679"><ele>116.0</ele><time>2026-05-01T08:28:29.999Z</time></trkpt><trkpt lat="43.448726017114716" lon="10.8523971335636"><ele>115.33333333333333</ele><time>2026-05-01T08:28:30.999Z</time></trkpt><trkpt lat="43.448877196839966" lon="10.852286616757613"><ele>114.66666666666666</ele><time>2026-05-01T08:28:31.999Z</time></trkpt><trkpt lat="43.449028045317334" lon="10.852174445588858"><ele>114.0</ele><time>2026-05-01T08:28:32.999Z</time></trkpt><trkpt lat="43.449175366243274" lon="10.852071344420587"><ele>114.0</ele><time>2026-05-01T08:28:33.999Z</time></trkpt><trkpt lat="43.4493206568502" lon="10.851973615179595"><ele>114.0</ele><time>2026-05-01T08:28:34.999Z</time></trkpt><trkpt lat="43.44946655764678" lon="10.851889040848612"><ele>114.0</ele><time>2026-05-01T08:28:35.999Z</time></trkpt><trkpt lat="43.449615099701475" lon="10.851808468413301"><ele>114.0</ele><time>2026-05-01T08:28:36.999Z</time></trkpt><trkpt lat="43.449774691434264" lon="10.85173393404422"><ele>114.0</ele><time>2026-05-01T08:28:37.999Z</time></trkpt><trkpt lat="43.44993141016401" lon="10.851664735017435"><ele>114.0</ele><time>2026-05-01T08:28:38.999Z</time></trkpt><trkpt lat="43.45009918050255" lon="10.851591154224215"><ele>114.0</ele><time>2026-05-01T08:28:39.999Z</time></trkpt><trkpt lat="43.4502745895" lon="10.851536070551665"><ele>114.0</ele><time>2026-05-01T08:28:40.998Z</time></trkpt><trkpt lat="43.45046407430276" lon="10.851498657813453"><ele>114.0</ele><time>2026-05-01T08:28:41.998Z</time></trkpt><trkpt lat="43.45066489055572" lon="10.85147401436501"><ele>114.66666666666666</ele><time>2026-05-01T08:28:42.998Z</time></trkpt><trkpt lat="43.450867946548705" lon="10.8514521951633"><ele>115.33333333333333</ele><time>2026-05-01T08:28:43.998Z</time></trkpt><trkpt lat="43.45106319681049" lon="10.851435144535852"><ele>116.0</ele><time>2026-05-01T08:28:44.998Z</time></trkpt><trkpt lat="43.45123671526939" lon="10.851417565344647"><ele>116.66666666666666</ele><time>2026-05-01T08:28:45.998Z</time></trkpt><trkpt lat="43.45140679400276" lon="10.851399419788585"><ele>117.33333333333334</ele><time>2026-05-01T08:28:46.998Z</time></trkpt><trkpt lat="43.45155199127495" lon="10.851383723216445"><ele>118.0</ele><time>2026-05-01T08:28:47.998Z</time></trkpt><trkpt lat="43.45169830456762" lon="10.851343778961136"><ele>118.0</ele><time>2026-05-01T08:28:48.998Z</time></trkpt><trkpt lat="43.45183437663117" lon="10.85127399308036"><ele>118.0</ele><time>2026-05-01T08:28:49.998Z</time></trkpt><trkpt lat="43.45194787491444" lon="10.851174772080634"><ele>118.0</ele><time>2026-05-01T08:28:50.998Z</time></trkpt><trkpt lat="43.452053098353645" lon="10.851048437291213"><ele>118.0</ele><time>2026-05-01T08:28:51.998Z</time></trkpt><trkpt lat="43.45214210230121" lon="10.850891113224597"><ele>119.33333333333334</ele><time>2026-05-01T08:28:52.998Z</time></trkpt><trkpt lat="43.45220788154283" lon="10.8507071256989"><ele>120.66666666666666</ele><time>2026-05-01T08:28:53.998Z</time></trkpt><trkpt lat="43.452243510030065" lon="10.850500094157363"><ele>122.0</ele><time>2026-05-01T08:28:54.998Z</time></trkpt><trkpt lat="43.45225105742725" lon="10.850253361413818"><ele>121.0</ele><time>2026-05-01T08:28:55.998Z</time></trkpt><trkpt lat="43.452236184779494" lon="10.849963890942977"><ele>120.0</ele><time>2026-05-01T08:28:56.998Z</time></trkpt><trkpt lat="43.45222081978796" lon="10.849643746817168"><ele>119.0</ele><time>2026-05-01T08:28:57.998Z</time></trkpt><trkpt lat="43.45221048940332" lon="10.849324102588183"><ele>119.0</ele><time>2026-05-01T08:28:58.998Z</time></trkpt><trkpt lat="43.452193569441" lon="10.848997100416465"><ele>119.0</ele><time>2026-05-01T08:28:59.998Z</time></trkpt><trkpt lat="43.4521759950161" lon="10.848675776648989"><ele>118.5</ele><time>2026-05-01T08:29:00.998Z</time></trkpt><trkpt lat="43.452160552961196" lon="10.848360040432247"><ele>118.0</ele><time>2026-05-01T08:29:01.998Z</time></trkpt><trkpt lat="43.45214709225963" lon="10.848048211312754"><ele>118.0</ele><time>2026-05-01T08:29:02.998Z</time></trkpt><trkpt lat="43.45213176537194" lon="10.847736529126596"><ele>118.0</ele><time>2026-05-01T08:29:03.998Z</time></trkpt><trkpt lat="43.452117427870085" lon="10.847433736055391"><ele>118.0</ele><time>2026-05-01T08:29:04.998Z</time></trkpt><trkpt lat="43.45210477004138" lon="10.84713600738247"><ele>117.33333333333334</ele><time>2026-05-01T08:29:05.998Z</time></trkpt><trkpt lat="43.452096602737576" lon="10.846834938500738"><ele>116.66666666666666</ele><time>2026-05-01T08:29:06.998Z</time></trkpt><trkpt lat="43.45210438848466" lon="10.846533255871922"><ele>116.0</ele><time>2026-05-01T08:29:07.998Z</time></trkpt><trkpt lat="43.45213329652394" lon="10.84623255423172"><ele>115.33333333333333</ele><time>2026-05-01T08:29:08.998Z</time></trkpt><trkpt lat="43.45218057567706" lon="10.845933820476246"><ele>114.66666666666666</ele><time>2026-05-01T08:29:09.998Z</time></trkpt><trkpt lat="43.45225032667855" lon="10.845640612996567"><ele>114.0</ele><time>2026-05-01T08:29:10.998Z</time></trkpt><trkpt lat="43.452333654327354" lon="10.845362156380437"><ele>112.66666666666666</ele><time>2026-05-01T08:29:11.998Z</time></trkpt><trkpt lat="43.45242612576322" lon="10.84509340081512"><ele>111.33333333333333</ele><time>2026-05-01T08:29:12.998Z</time></trkpt><trkpt lat="43.45251877060522" lon="10.844828594507241"><ele>110.0</ele><time>2026-05-01T08:29:13.998Z</time></trkpt><trkpt lat="43.45261100068466" lon="10.844567920240285"><ele>110.0</ele><time>2026-05-01T08:29:14.998Z</time></trkpt><trkpt lat="43.45270477466942" lon="10.844307901508028"><ele>110.0</ele><time>2026-05-01T08:29:15.998Z</time></trkpt><trkpt lat="43.4527965860592" lon="10.844051431694652"><ele>110.0</ele><time>2026-05-01T08:29:16.998Z</time></trkpt><trkpt lat="43.45288692208437" lon="10.843796396400114"><ele>109.66666666666666</ele><time>2026-05-01T08:29:17.998Z</time></trkpt><trkpt lat="43.452974122089685" lon="10.843540665641509"><ele>109.33333333333334</ele><time>2026-05-01T08:29:18.998Z</time></trkpt><trkpt lat="43.453061686964205" lon="10.843283991806793"><ele>109.0</ele><time>2026-05-01T08:29:19.998Z</time></trkpt><trkpt lat="43.453151763516004" lon="10.84303052939364"><ele>108.66666666666667</ele><time>2026-05-01T08:29:20.998Z</time></trkpt><trkpt lat="43.45324119357664" lon="10.842776371647904"><ele>108.33333333333334</ele><time>2026-05-01T08:29:21.998Z</time></trkpt><trkpt lat="43.45332945235004" lon="10.842518371905705"><ele>108.0</ele><time>2026-05-01T08:29:22.998Z</time></trkpt><trkpt lat="43.45341778109468" lon="10.842262378618004"><ele>108.0</ele><time>2026-05-01T08:29:24Z</time></trkpt><trkpt lat="43.45350697817125" lon="10.842006322032232"><ele>108.0</ele><time>2026-05-01T08:29:25Z</time></trkpt><trkpt lat="43.45359742408889" lon="10.841750618031636"><ele>108.0</ele><time>2026-05-01T08:29:26Z</time></trkpt><trkpt lat="43.453687712485575" lon="10.841493365047553"><ele>107.66666666666666</ele><time>2026-05-01T08:29:27Z</time></trkpt><trkpt lat="43.453780933097136" lon="10.841237573105222"><ele>107.33333333333333</ele><time>2026-05-01T08:29:28Z</time></trkpt><trkpt lat="43.45386810881174" lon="10.840975538957005"><ele>107.0</ele><time>2026-05-01T08:29:29Z</time></trkpt><trkpt lat="43.453957021385726" lon="10.840714340922336"><ele>110.33333333333333</ele><time>2026-05-01T08:29:30Z</time></trkpt><trkpt lat="43.45404671597035" lon="10.84046318773487"><ele>113.66666666666666</ele><time>2026-05-01T08:29:31Z</time></trkpt><trkpt lat="43.45412836002325" lon="10.840227371814128"><ele>117.0</ele><time>2026-05-01T08:29:32Z</time></trkpt><trkpt lat="43.454207068175684" lon="10.839993171080605"><ele>117.0</ele><time>2026-05-01T08:29:33Z</time></trkpt><trkpt lat="43.45429968369777" lon="10.839765932095492"><ele>117.0</ele><time>2026-05-01T08:29:34Z</time></trkpt><trkpt lat="43.45440993743395" lon="10.83954175859306"><ele>117.0</ele><time>2026-05-01T08:29:35Z</time></trkpt><trkpt lat="43.45453058970885" lon="10.8393247112568"><ele>115.33333333333334</ele><time>2026-05-01T08:29:36Z</time></trkpt><trkpt lat="43.454658780481154" lon="10.839111511749953"><ele>113.66666666666667</ele><time>2026-05-01T08:29:37Z</time></trkpt><trkpt lat="43.454796878862346" lon="10.838903756644807"><ele>112.0</ele><time>2026-05-01T08:29:38Z</time></trkpt><trkpt lat="43.45494484618743" lon="10.838699483030009"><ele>112.0</ele><time>2026-05-01T08:29:39Z</time></trkpt><trkpt lat="43.455092051177495" lon="10.838493083754788"><ele>112.0</ele><time>2026-05-01T08:29:40Z</time></trkpt><trkpt lat="43.455238801803176" lon="10.83828344712143"><ele>112.0</ele><time>2026-05-01T08:29:41Z</time></trkpt><trkpt lat="43.45538542257376" lon="10.838072724216092"><ele>111.0</ele><time>2026-05-01T08:29:42Z</time></trkpt><trkpt lat="43.45553124940113" lon="10.837861340729827"><ele>110.0</ele><time>2026-05-01T08:29:43Z</time></trkpt><trkpt lat="43.455674684094355" lon="10.837650111716744"><ele>109.0</ele><time>2026-05-01T08:29:44Z</time></trkpt><trkpt lat="43.45581499168448" lon="10.83744109507669"><ele>109.0</ele><time>2026-05-01T08:29:45Z</time></trkpt><trkpt lat="43.4559484053553" lon="10.837252064981278"><ele>109.0</ele><time>2026-05-01T08:29:46Z</time></trkpt><trkpt lat="43.4560751663981" lon="10.837075573178671"><ele>109.0</ele><time>2026-05-01T08:29:47Z</time></trkpt><trkpt lat="43.45619503318908" lon="10.836905805006655"><ele>108.33333333333334</ele><time>2026-05-01T08:29:48Z</time></trkpt><trkpt lat="43.456309432579275" lon="10.836718358706294"><ele>107.66666666666666</ele><time>2026-05-01T08:29:49Z</time></trkpt><trkpt lat="43.456417399633175" lon="10.836509506749074"><ele>107.0</ele><time>2026-05-01T08:29:50Z</time></trkpt><trkpt lat="43.456512907340496" lon="10.836275355840796"><ele>107.0</ele><time>2026-05-01T08:29:51Z</time></trkpt><trkpt lat="43.4565980180662" lon="10.836016546249974"><ele>107.0</ele><time>2026-05-01T08:29:52Z</time></trkpt><trkpt lat="43.45667725852906" lon="10.835740304187075"><ele>107.0</ele><time>2026-05-01T08:29:53Z</time></trkpt><trkpt lat="43.45675224982164" lon="10.835458806168793"><ele>106.0</ele><time>2026-05-01T08:29:54Z</time></trkpt><trkpt lat="43.45682500125249" lon="10.835173746518297"><ele>105.0</ele><time>2026-05-01T08:29:55Z</time></trkpt><trkpt lat="43.45689621994642" lon="10.83489216252611"><ele>104.0</ele><time>2026-05-01T08:29:56Z</time></trkpt><trkpt lat="43.45697040855706" lon="10.834618909650573"><ele>104.0</ele><time>2026-05-01T08:29:57Z</time></trkpt><trkpt lat="43.457040478399165" lon="10.834351993085997"><ele>104.0</ele><time>2026-05-01T08:29:58Z</time></trkpt><trkpt lat="43.457095076405196" lon="10.834075912529844"><ele>104.0</ele><time>2026-05-01T08:29:59Z</time></trkpt><trkpt lat="43.45712979866386" lon="10.83378337372646"><ele>104.0</ele><time>2026-05-01T08:30:00Z</time></trkpt><trkpt lat="43.45713980189983" lon="10.833475872910958"><ele>104.0</ele><time>2026-05-01T08:30:01Z</time></trkpt><trkpt lat="43.457127204826214" lon="10.833156784123886"><ele>104.0</ele><time>2026-05-01T08:30:02Z</time></trkpt><trkpt lat="43.4571112334855" lon="10.832844257406782"><ele>104.0</ele><time>2026-05-01T08:30:03Z</time></trkpt><trkpt lat="43.45709946587865" lon="10.832537582333925"><ele>103.33333333333333</ele><time>2026-05-01T08:30:04Z</time></trkpt><trkpt lat="43.4570890029354" lon="10.832237823459407"><ele>102.66666666666666</ele><time>2026-05-01T08:30:05Z</time></trkpt><trkpt lat="43.45707765367288" lon="10.831941117268471"><ele>102.0</ele><time>2026-05-01T08:30:06Z</time></trkpt><trkpt lat="43.45706670346941" lon="10.831644766579231"><ele>102.0</ele><time>2026-05-01T08:30:06.999Z</time></trkpt><trkpt lat="43.45705611385047" lon="10.831359996049688"><ele>102.0</ele><time>2026-05-01T08:30:07.999Z</time></trkpt><trkpt lat="43.4570474575732" lon="10.831095240790859"><ele>102.0</ele><time>2026-05-01T08:30:08.999Z</time></trkpt><trkpt lat="43.45703837978134" lon="10.830850767599795"><ele>101.75</ele><time>2026-05-01T08:30:09.999Z</time></trkpt><trkpt lat="43.45702971167256" lon="10.83064112689282"><ele>101.5</ele><time>2026-05-01T08:30:10.999Z</time></trkpt><trkpt lat="43.45702476964187" lon="10.830445210141736"><ele>101.25</ele><time>2026-05-01T08:30:11.999Z</time></trkpt><trkpt lat="43.45701949919081" lon="10.830266452346738"><ele>101.0</ele><time>2026-05-01T08:30:12.999Z</time></trkpt><trkpt lat="43.45700802398319" lon="10.830124131682709"><ele>101.0</ele><time>2026-05-01T08:30:13.999Z</time></trkpt><trkpt lat="43.456998536417245" lon="10.830006997527079"><ele>101.0</ele><time>2026-05-01T08:30:14.999Z</time></trkpt><trkpt lat="43.45701073550305" lon="10.829915421029053"><ele>101.0</ele><time>2026-05-01T08:30:15.999Z</time></trkpt><trkpt lat="43.45711100045606" lon="10.829798023658608"><ele>101.0</ele><time>2026-05-01T08:30:17.999Z</time></trkpt><trkpt lat="43.45719580091932" lon="10.829798359051466"><ele>101.0</ele><time>2026-05-01T08:30:18.999Z</time></trkpt><trkpt lat="43.457293182552085" lon="10.829830005887677"><ele>101.0</ele><time>2026-05-01T08:30:19.999Z</time></trkpt><trkpt lat="43.4574154650837" lon="10.829866575194359"><ele>101.0</ele><time>2026-05-01T08:30:20.999Z</time></trkpt><trkpt lat="43.45754185425106" lon="10.829909553409632"><ele>101.0</ele><time>2026-05-01T08:30:21.999Z</time></trkpt><trkpt lat="43.45767841749774" lon="10.82996265418476"><ele>101.0</ele><time>2026-05-01T08:30:22.999Z</time></trkpt><trkpt lat="43.45783253151021" lon="10.830023916460016"><ele>101.0</ele><time>2026-05-01T08:30:23.999Z</time></trkpt><trkpt lat="43.458001672029766" lon="10.830097667403297"><ele>101.0</ele><time>2026-05-01T08:30:24.999Z</time></trkpt><trkpt lat="43.45817154865458" lon="10.830176772351686"><ele>101.0</ele><time>2026-05-01T08:30:25.999Z</time></trkpt><trkpt lat="43.458341427529064" lon="10.830254422951088"><ele>101.0</ele><time>2026-05-01T08:30:26.999Z</time></trkpt><trkpt lat="43.45852881203938" lon="10.830334651413986"><ele>101.0</ele><time>2026-05-01T08:30:27.999Z</time></trkpt><trkpt lat="43.458721704930134" lon="10.8304158415476"><ele>101.0</ele><time>2026-05-01T08:30:28.999Z</time></trkpt><trkpt lat="43.458915020923044" lon="10.830494792798518"><ele>104.33333333333333</ele><time>2026-05-01T08:30:29.999Z</time></trkpt><trkpt lat="43.45911308337885" lon="10.830576481336525"><ele>107.66666666666666</ele><time>2026-05-01T08:30:30.999Z</time></trkpt><trkpt lat="43.45930239674624" lon="10.830664483894228"><ele>111.0</ele><time>2026-05-01T08:30:31.999Z</time></trkpt><trkpt lat="43.459488015833706" lon="10.83074864700512"><ele>113.66666666666666</ele><time>2026-05-01T08:30:32.999Z</time></trkpt><trkpt lat="43.45967525387222" lon="10.830825108615741"><ele>116.33333333333333</ele><time>2026-05-01T08:30:33.999Z</time></trkpt><trkpt lat="43.45985987240455" lon="10.830902456920112"><ele>119.0</ele><time>2026-05-01T08:30:34.999Z</time></trkpt><trkpt lat="43.46004274841404" lon="10.830987009236097"><ele>123.0</ele><time>2026-05-01T08:30:35.999Z</time></trkpt><trkpt lat="43.460225937092275" lon="10.83107185369148"><ele>127.0</ele><time>2026-05-01T08:30:36.999Z</time></trkpt><trkpt lat="43.46040762059184" lon="10.831154803724255"><ele>131.0</ele><time>2026-05-01T08:30:37.999Z</time></trkpt><trkpt lat="43.46058964337633" lon="10.831232034005073"><ele>131.33333333333331</ele><time>2026-05-01T08:30:38.999Z</time></trkpt><trkpt lat="43.46077589761945" lon="10.831305481613942"><ele>131.66666666666666</ele><time>2026-05-01T08:30:39.999Z</time></trkpt><trkpt lat="43.460959996868304" lon="10.831384890471996"><ele>132.0</ele><time>2026-05-01T08:30:40.999Z</time></trkpt><trkpt lat="43.46113995205905" lon="10.831468560327462"><ele>132.0</ele><time>2026-05-01T08:30:41.999Z</time></trkpt><trkpt lat="43.46132024285935" lon="10.831547733466207"><ele>132.0</ele><time>2026-05-01T08:30:42.999Z</time></trkpt><trkpt lat="43.461502614569945" lon="10.83162783601859"><ele>132.0</ele><time>2026-05-01T08:30:43.999Z</time></trkpt><trkpt lat="43.46168369997089" lon="10.831710496949688"><ele>132.0</ele><time>2026-05-01T08:30:44.999Z</time></trkpt><trkpt lat="43.46186388705902" lon="10.831791356581798"><ele>132.0</ele><time>2026-05-01T08:30:45.999Z</time></trkpt><trkpt lat="43.462046201116294" lon="10.83187167660962"><ele>132.0</ele><time>2026-05-01T08:30:46.999Z</time></trkpt><trkpt lat="43.46222751096012" lon="10.831954208378376"><ele>132.66666666666666</ele><time>2026-05-01T08:30:47.999Z</time></trkpt><trkpt lat="43.46240960569332" lon="10.8320330642015"><ele>133.33333333333331</ele><time>2026-05-01T08:30:48.999Z</time></trkpt><trkpt lat="43.4625902862742" lon="10.832103948017826"><ele>134.0</ele><time>2026-05-01T08:30:49.999Z</time></trkpt><trkpt lat="43.462774483591474" lon="10.832174213218343"><ele>138.66666666666666</ele><time>2026-05-01T08:30:50.999Z</time></trkpt><trkpt lat="43.46295854497476" lon="10.83222956209677"><ele>143.33333333333334</ele><time>2026-05-01T08:30:51.999Z</time></trkpt><trkpt lat="43.46315053955752" lon="10.832282988065696"><ele>148.0</ele><time>2026-05-01T08:30:52.999Z</time></trkpt><trkpt lat="43.46334205494409" lon="10.832330740900234"><ele>148.0</ele><time>2026-05-01T08:30:53.999Z</time></trkpt><trkpt lat="43.4635333827829" lon="10.832373034714854"><ele>148.0</ele><time>2026-05-01T08:30:54.999Z</time></trkpt><trkpt lat="43.46371436833265" lon="10.832416250863291"><ele>148.0</ele><time>2026-05-01T08:30:55.998Z</time></trkpt><trkpt lat="43.463877768677236" lon="10.832458188580963"><ele>148.33333333333334</ele><time>2026-05-01T08:30:56.998Z</time></trkpt><trkpt lat="43.464038366097355" lon="10.832508127532805"><ele>148.66666666666666</ele><time>2026-05-01T08:30:57.998Z</time></trkpt><trkpt lat="43.464193489091215" lon="10.832586428390162"><ele>149.0</ele><time>2026-05-01T08:30:58.998Z</time></trkpt><trkpt lat="43.46434247095769" lon="10.832689226745641"><ele>149.0</ele><time>2026-05-01T08:30:59.998Z</time></trkpt><trkpt lat="43.464482560842065" lon="10.832808314469391"><ele>149.0</ele><time>2026-05-01T08:31:00.998Z</time></trkpt><trkpt lat="43.46461138809794" lon="10.832952286604423"><ele>149.0</ele><time>2026-05-01T08:31:01.998Z</time></trkpt><trkpt lat="43.46472562767198" lon="10.833115832751352"><ele>152.66666666666666</ele><time>2026-05-01T08:31:02.998Z</time></trkpt><trkpt lat="43.46482908441743" lon="10.833295645300957"><ele>156.33333333333334</ele><time>2026-05-01T08:31:03.998Z</time></trkpt><trkpt lat="43.46492835432805" lon="10.833488767622224"><ele>160.0</ele><time>2026-05-01T08:31:04.998Z</time></trkpt><trkpt lat="43.46502202640688" lon="10.833684692401176"><ele>161.0</ele><time>2026-05-01T08:31:05.998Z</time></trkpt><trkpt lat="43.465115983951065" lon="10.83387945706683"><ele>162.0</ele><time>2026-05-01T08:31:06.998Z</time></trkpt><trkpt lat="43.46521493460958" lon="10.834071944556003"><ele>163.0</ele><time>2026-05-01T08:31:07.998Z</time></trkpt><trkpt lat="43.46530971283788" lon="10.834269252321597"><ele>163.33333333333334</ele><time>2026-05-01T08:31:08.998Z</time></trkpt><trkpt lat="43.46540695969725" lon="10.83447069240342"><ele>163.66666666666666</ele><time>2026-05-01T08:31:09.998Z</time></trkpt><trkpt lat="43.465504667853736" lon="10.834672769636363"><ele>164.0</ele><time>2026-05-01T08:31:10.998Z</time></trkpt><trkpt lat="43.46559987357394" lon="10.83487237920937"><ele>165.0</ele><time>2026-05-01T08:31:11.998Z</time></trkpt><trkpt lat="43.46569366932565" lon="10.835074054529798"><ele>166.0</ele><time>2026-05-01T08:31:12.998Z</time></trkpt><trkpt lat="43.465787997288594" lon="10.835274583798146"><ele>167.0</ele><time>2026-05-01T08:31:13.998Z</time></trkpt><trkpt lat="43.46588602317172" lon="10.835471867839386"><ele>169.66666666666666</ele><time>2026-05-01T08:31:14.998Z</time></trkpt><trkpt lat="43.465985689070756" lon="10.83566360494146"><ele>172.33333333333334</ele><time>2026-05-01T08:31:15.998Z</time></trkpt><trkpt lat="43.46609521547413" lon="10.835849991116296"><ele>175.0</ele><time>2026-05-01T08:31:16.998Z</time></trkpt><trkpt lat="43.46621399722757" lon="10.836030246190646"><ele>176.0</ele><time>2026-05-01T08:31:17.998Z</time></trkpt><trkpt lat="43.46634484743431" lon="10.836197472433568"><ele>177.0</ele><time>2026-05-01T08:31:18.998Z</time></trkpt><trkpt lat="43.466493462485694" lon="10.836354457891117"><ele>178.0</ele><time>2026-05-01T08:31:19.998Z</time></trkpt><trkpt lat="43.466654165573566" lon="10.836500354102185"><ele>178.0</ele><time>2026-05-01T08:31:20.998Z</time></trkpt><trkpt lat="43.46682509773795" lon="10.836631526043146"><ele>178.0</ele><time>2026-05-01T08:31:21.998Z</time></trkpt><trkpt lat="43.46701079521612" lon="10.836737699892106"><ele>178.0</ele><time>2026-05-01T08:31:22.998Z</time></trkpt><trkpt lat="43.46721029595016" lon="10.83682553432436"><ele>181.33333333333334</ele><time>2026-05-01T08:31:23.998Z</time></trkpt><trkpt lat="43.46738852690283" lon="10.836891424134821"><ele>184.66666666666666</ele><time>2026-05-01T08:31:24.998Z</time></trkpt><trkpt lat="43.467550743238434" lon="10.836958322316798"><ele>188.0</ele><time>2026-05-01T08:31:25.998Z</time></trkpt><trkpt lat="43.46770694128373" lon="10.837041681818302"><ele>188.0</ele><time>2026-05-01T08:31:26.998Z</time></trkpt><trkpt lat="43.467860736352215" lon="10.837149066433621"><ele>188.0</ele><time>2026-05-01T08:31:27.998Z</time></trkpt><trkpt lat="43.46800928345805" lon="10.837280314481497"><ele>188.0</ele><time>2026-05-01T08:31:28.998Z</time></trkpt><trkpt lat="43.46815135770246" lon="10.837435122110389"><ele>190.0</ele><time>2026-05-01T08:31:30Z</time></trkpt><trkpt lat="43.468283624575996" lon="10.837606036874817"><ele>192.0</ele><time>2026-05-01T08:31:31Z</time></trkpt><trkpt lat="43.46840501168286" lon="10.837796483523391"><ele>194.0</ele><time>2026-05-01T08:31:32Z</time></trkpt><trkpt lat="43.468514162081604" lon="10.838002878337775"><ele>194.0</ele><time>2026-05-01T08:31:33Z</time></trkpt><trkpt lat="43.46860899874359" lon="10.838221940963127"><ele>194.0</ele><time>2026-05-01T08:31:34Z</time></trkpt><trkpt lat="43.46868712198471" lon="10.838456148158128"><ele>194.0</ele><time>2026-05-01T08:31:35Z</time></trkpt><trkpt lat="43.46875322121345" lon="10.838702446513746"><ele>193.0</ele><time>2026-05-01T08:31:36Z</time></trkpt><trkpt lat="43.46882153449292" lon="10.838948530538342"><ele>192.0</ele><time>2026-05-01T08:31:37Z</time></trkpt><trkpt lat="43.46889395866332" lon="10.839189856963475"><ele>191.0</ele><time>2026-05-01T08:31:38Z</time></trkpt><trkpt lat="43.46896794464971" lon="10.839423699421083"><ele>191.0</ele><time>2026-05-01T08:31:39Z</time></trkpt><trkpt lat="43.46903864608263" lon="10.839657174777884"><ele>191.0</ele><time>2026-05-01T08:31:40Z</time></trkpt><trkpt lat="43.46910611609584" lon="10.839888432376291"><ele>191.0</ele><time>2026-05-01T08:31:41Z</time></trkpt><trkpt lat="43.469175035296495" lon="10.840115105943024"><ele>193.33333333333331</ele><time>2026-05-01T08:31:42Z</time></trkpt><trkpt lat="43.46924195366458" lon="10.840327561900471"><ele>195.66666666666666</ele><time>2026-05-01T08:31:43Z</time></trkpt><trkpt lat="43.4692880393727" lon="10.84052372148804"><ele>198.0</ele><time>2026-05-01T08:31:44Z</time></trkpt><trkpt lat="43.4693429338383" lon="10.840716650671324"><ele>198.0</ele><time>2026-05-01T08:31:45Z</time></trkpt><trkpt lat="43.46937826146377" lon="10.840906393928838"><ele>198.0</ele><time>2026-05-01T08:31:46Z</time></trkpt><trkpt lat="43.469372918618824" lon="10.841101520970163"><ele>198.0</ele><time>2026-05-01T08:31:47Z</time></trkpt><trkpt lat="43.46932898492716" lon="10.841291857385626"><ele>198.0</ele><time>2026-05-01T08:31:48Z</time></trkpt><trkpt lat="43.46925487939407" lon="10.841483469233705"><ele>196.33333333333331</ele><time>2026-05-01T08:31:49Z</time></trkpt><trkpt lat="43.469181012836465" lon="10.84166779455592"><ele>194.66666666666666</ele><time>2026-05-01T08:31:50Z</time></trkpt><trkpt lat="43.46912153181533" lon="10.84185549797937"><ele>193.0</ele><time>2026-05-01T08:31:51Z</time></trkpt><trkpt lat="43.469090267693794" lon="10.842062910546202"><ele>192.66666666666666</ele><time>2026-05-01T08:31:52Z</time></trkpt><trkpt lat="43.46910171646505" lon="10.842282713293958"><ele>192.33333333333331</ele><time>2026-05-01T08:31:53Z</time></trkpt><trkpt lat="43.46915906516451" lon="10.842500705582623"><ele>192.0</ele><time>2026-05-01T08:31:54Z</time></trkpt><trkpt lat="43.46922275573113" lon="10.842734501054414"><ele>191.66666666666666</ele><time>2026-05-01T08:31:55Z</time></trkpt><trkpt lat="43.46929406210578" lon="10.842984134580295"><ele>191.33333333333331</ele><time>2026-05-01T08:31:56Z</time></trkpt><trkpt lat="43.469364819842575" lon="10.843242445309063"><ele>191.0</ele><time>2026-05-01T08:31:57Z</time></trkpt><trkpt lat="43.46943813935566" lon="10.843492132301755"><ele>189.0</ele><time>2026-05-01T08:31:58Z</time></trkpt><trkpt lat="43.46949861260277" lon="10.843749933165345"><ele>187.0</ele><time>2026-05-01T08:31:59Z</time></trkpt><trkpt lat="43.46953448258564" lon="10.844021301767043"><ele>185.0</ele><time>2026-05-01T08:32:00Z</time></trkpt><trkpt lat="43.46954456285564" lon="10.844313130490614"><ele>185.0</ele><time>2026-05-01T08:32:01Z</time></trkpt><trkpt lat="43.46950534011004" lon="10.844624392502316"><ele>185.0</ele><time>2026-05-01T08:32:02Z</time></trkpt><trkpt lat="43.469505546472796" lon="10.84493910337541"><ele>184.0</ele><time>2026-05-01T08:32:03Z</time></trkpt><trkpt lat="43.46949075099419" lon="10.845221627968844"><ele>183.0</ele><time>2026-05-01T08:32:04Z</time></trkpt><trkpt lat="43.46947737537009" lon="10.845473850360841"><ele>182.0</ele><time>2026-05-01T08:32:05Z</time></trkpt><trkpt lat="43.469454266574694" lon="10.845699352865925"><ele>182.0</ele><time>2026-05-01T08:32:06Z</time></trkpt><trkpt lat="43.46948566371529" lon="10.845900918608718"><ele>182.0</ele><time>2026-05-01T08:32:07Z</time></trkpt><trkpt lat="43.46953031190092" lon="10.846096610616058"><ele>182.0</ele><time>2026-05-01T08:32:08Z</time></trkpt><trkpt lat="43.46961077625471" lon="10.846303123697611"><ele>184.66666666666666</ele><time>2026-05-01T08:32:09Z</time></trkpt><trkpt lat="43.469726165997145" lon="10.846516014461816"><ele>187.33333333333334</ele><time>2026-05-01T08:32:10Z</time></trkpt><trkpt lat="43.46985369539348" lon="10.846748375923767"><ele>190.0</ele><time>2026-05-01T08:32:11Z</time></trkpt><trkpt lat="43.469983578657754" lon="10.846993661393936"><ele>190.0</ele><time>2026-05-01T08:32:12Z</time></trkpt><trkpt lat="43.47009934078499" lon="10.847247613663438"><ele>190.0</ele><time>2026-05-01T08:32:13Z</time></trkpt><trkpt lat="43.47020340765399" lon="10.847508581253603"><ele>190.0</ele><time>2026-05-01T08:32:14Z</time></trkpt><trkpt lat="43.4702984405343" lon="10.847777071192434"><ele>187.0</ele><time>2026-05-01T08:32:15Z</time></trkpt><trkpt lat="43.4703843601462" lon="10.848058059208514"><ele>184.0</ele><time>2026-05-01T08:32:16Z</time></trkpt><trkpt lat="43.470463108736865" lon="10.848346758477797"><ele>181.0</ele><time>2026-05-01T08:32:17Z</time></trkpt><trkpt lat="43.47053946364204" lon="10.848641117119747"><ele>185.66666666666669</ele><time>2026-05-01T08:32:18Z</time></trkpt><trkpt lat="43.47062137246984" lon="10.848926838941646"><ele>190.33333333333334</ele><time>2026-05-01T08:32:18.999Z</time></trkpt><trkpt lat="43.47070080887132" lon="10.849213399641538"><ele>195.0</ele><time>2026-05-01T08:32:19.999Z</time></trkpt><trkpt lat="43.47077032588934" lon="10.849503268017848"><ele>195.0</ele><time>2026-05-01T08:32:20.999Z</time></trkpt><trkpt lat="43.47083585552862" lon="10.84979317818044"><ele>195.0</ele><time>2026-05-01T08:32:21.999Z</time></trkpt><trkpt lat="43.47089839066986" lon="10.850078919544293"><ele>195.0</ele><time>2026-05-01T08:32:22.999Z</time></trkpt><trkpt lat="43.47096209907518" lon="10.85036193858937"><ele>193.33333333333334</ele><time>2026-05-01T08:32:23.999Z</time></trkpt><trkpt lat="43.47102762916792" lon="10.850642679922977"><ele>191.66666666666669</ele><time>2026-05-01T08:32:24.999Z</time></trkpt><trkpt lat="43.47109102524438" lon="10.850919920385495"><ele>190.0</ele><time>2026-05-01T08:32:25.999Z</time></trkpt><trkpt lat="43.47115085755131" lon="10.851180562055596"><ele>189.33333333333334</ele><time>2026-05-01T08:32:26.999Z</time></trkpt><trkpt lat="43.47121042479762" lon="10.851437445561526"><ele>188.66666666666666</ele><time>2026-05-01T08:32:27.999Z</time></trkpt><trkpt lat="43.47126177385638" lon="10.851701416964666"><ele>188.0</ele><time>2026-05-01T08:32:28.999Z</time></trkpt><trkpt lat="43.471287578438634" lon="10.851976330549553"><ele>189.66666666666666</ele><time>2026-05-01T08:32:29.999Z</time></trkpt><trkpt lat="43.47125307324252" lon="10.852253186178809"><ele>191.33333333333331</ele><time>2026-05-01T08:32:30.999Z</time></trkpt><trkpt lat="43.47120222147765" lon="10.852537398985604"><ele>193.0</ele><time>2026-05-01T08:32:31.999Z</time></trkpt><trkpt lat="43.47115865425596" lon="10.85282865005813"><ele>194.66666666666666</ele><time>2026-05-01T08:32:32.999Z</time></trkpt><trkpt lat="43.47110311553315" lon="10.853096367303781"><ele>196.33333333333331</ele><time>2026-05-01T08:32:33.999Z</time></trkpt><trkpt lat="43.47105068619609" lon="10.85334612223733"><ele>198.0</ele><time>2026-05-01T08:32:34.999Z</time></trkpt><trkpt lat="43.4710011298522" lon="10.853575175708233"><ele>199.66666666666669</ele><time>2026-05-01T08:32:35.999Z</time></trkpt><trkpt lat="43.47095818017659" lon="10.853796590527333"><ele>201.33333333333334</ele><time>2026-05-01T08:32:36.999Z</time></trkpt><trkpt lat="43.470937260907355" lon="10.854018638121387"><ele>203.0</ele><time>2026-05-01T08:32:37.999Z</time></trkpt><trkpt lat="43.470946864390264" lon="10.854250952319585"><ele>205.33333333333334</ele><time>2026-05-01T08:32:38.999Z</time></trkpt><trkpt lat="43.470987546358515" lon="10.854507020244226"><ele>207.66666666666669</ele><time>2026-05-01T08:32:39.999Z</time></trkpt><trkpt lat="43.47104038259928" lon="10.854778108720792"><ele>210.0</ele><time>2026-05-01T08:32:40.999Z</time></trkpt><trkpt lat="43.47109073433423" lon="10.855052977426862"><ele>210.66666666666669</ele><time>2026-05-01T08:32:41.999Z</time></trkpt><trkpt lat="43.4711358654044" lon="10.855321345110836"><ele>211.33333333333334</ele><time>2026-05-01T08:32:42.999Z</time></trkpt><trkpt lat="43.47117702979528" lon="10.855570038545082"><ele>212.0</ele><time>2026-05-01T08:32:43.999Z</time></trkpt><trkpt lat="43.4711975253578" lon="10.855828508228752"><ele>210.66666666666669</ele><time>2026-05-01T08:32:44.999Z</time></trkpt><trkpt lat="43.47119128319662" lon="10.85610055834665"><ele>209.33333333333331</ele><time>2026-05-01T08:32:45.999Z</time></trkpt><trkpt lat="43.471150354298516" lon="10.85636944988433"><ele>208.0</ele><time>2026-05-01T08:32:46.999Z</time></trkpt><trkpt lat="43.47113623207662" lon="10.856640074096386"><ele>206.0</ele><time>2026-05-01T08:32:47.999Z</time></trkpt><trkpt lat="43.47111186981877" lon="10.85691033943967"><ele>204.0</ele><time>2026-05-01T08:32:48.999Z</time></trkpt><trkpt lat="43.471109427523174" lon="10.857185075597352"><ele>202.0</ele><time>2026-05-01T08:32:49.999Z</time></trkpt><trkpt lat="43.47113697854481" lon="10.857471723111267"><ele>201.0</ele><time>2026-05-01T08:32:50.999Z</time></trkpt><trkpt lat="43.471186856083136" lon="10.857771754058973"><ele>200.0</ele><time>2026-05-01T08:32:51.999Z</time></trkpt><trkpt lat="43.471255471277765" lon="10.858070855497095"><ele>201.5</ele><time>2026-05-01T08:32:52.999Z</time></trkpt><trkpt lat="43.4713241609803" lon="10.858367524701928"><ele>203.0</ele><time>2026-05-01T08:32:53.999Z</time></trkpt><trkpt lat="43.47138572039386" lon="10.858671545891436"><ele>203.5</ele><time>2026-05-01T08:32:54.999Z</time></trkpt><trkpt lat="43.471455084253705" lon="10.858973206426871"><ele>204.0</ele><time>2026-05-01T08:32:55.999Z</time></trkpt><trkpt lat="43.47152228984424" lon="10.859271475295074"><ele>205.5</ele><time>2026-05-01T08:32:56.999Z</time></trkpt><trkpt lat="43.4715873264759" lon="10.859568875562502"><ele>207.0</ele><time>2026-05-01T08:32:57.999Z</time></trkpt><trkpt lat="43.4716621592999" lon="10.859861564179521"><ele>208.5</ele><time>2026-05-01T08:32:58.999Z</time></trkpt><trkpt lat="43.47175610551591" lon="10.86016340769861"><ele>210.0</ele><time>2026-05-01T08:32:59.999Z</time></trkpt><trkpt lat="43.47185334080303" lon="10.860434262102693"><ele>210.0</ele><time>2026-05-01T08:33:00.999Z</time></trkpt><trkpt lat="43.471943339273786" lon="10.860665384212064"><ele>210.0</ele><time>2026-05-01T08:33:01.999Z</time></trkpt><trkpt lat="43.472020527477845" lon="10.86088357380241"><ele>210.0</ele><time>2026-05-01T08:33:02.999Z</time></trkpt><trkpt lat="43.472080894045234" lon="10.861126641996869"><ele>208.0</ele><time>2026-05-01T08:33:03.999Z</time></trkpt><trkpt lat="43.47212274268507" lon="10.861387034556303"><ele>206.0</ele><time>2026-05-01T08:33:04.999Z</time></trkpt><trkpt lat="43.472141087950845" lon="10.861668731838554"><ele>204.0</ele><time>2026-05-01T08:33:05.999Z</time></trkpt><trkpt lat="43.47212023134518" lon="10.861964867468814"><ele>202.5</ele><time>2026-05-01T08:33:06.998Z</time></trkpt><trkpt lat="43.47212407061341" lon="10.862271519727807"><ele>201.0</ele><time>2026-05-01T08:33:07.998Z</time></trkpt><trkpt lat="43.4721095477472" lon="10.862597942204424"><ele>202.33333333333331</ele><time>2026-05-01T08:33:08.998Z</time></trkpt><trkpt lat="43.472096000753055" lon="10.862896803944219"><ele>203.66666666666666</ele><time>2026-05-01T08:33:09.998Z</time></trkpt><trkpt lat="43.4720860785259" lon="10.863150259066046"><ele>205.0</ele><time>2026-05-01T08:33:10.998Z</time></trkpt><trkpt lat="43.47208854550108" lon="10.863381514064454"><ele>205.66666666666666</ele><time>2026-05-01T08:33:11.998Z</time></trkpt><trkpt lat="43.47211312728712" lon="10.863616737185597"><ele>206.33333333333331</ele><time>2026-05-01T08:33:12.998Z</time></trkpt><trkpt lat="43.472166902670075" lon="10.86385356719818"><ele>207.0</ele><time>2026-05-01T08:33:13.998Z</time></trkpt><trkpt lat="43.47225094275373" lon="10.864090675652209"><ele>208.33333333333331</ele><time>2026-05-01T08:33:14.998Z</time></trkpt><trkpt lat="43.472369829842954" lon="10.864320435329292"><ele>209.66666666666666</ele><time>2026-05-01T08:33:15.998Z</time></trkpt><trkpt lat="43.472513096915854" lon="10.864551715221612"><ele>211.0</ele><time>2026-05-01T08:33:16.998Z</time></trkpt><trkpt lat="43.47264969511914" lon="10.864779446331848"><ele>211.0</ele><time>2026-05-01T08:33:17.998Z</time></trkpt><trkpt lat="43.472782843686986" lon="10.86500336885769"><ele>211.0</ele><time>2026-05-01T08:33:18.998Z</time></trkpt><trkpt lat="43.47291613450556" lon="10.865221623700904"><ele>211.0</ele><time>2026-05-01T08:33:19.998Z</time></trkpt><trkpt lat="43.47304404607079" lon="10.86543684341832"><ele>211.0</ele><time>2026-05-01T08:33:20.998Z</time></trkpt><trkpt lat="43.473165523264505" lon="10.86564497930161"><ele>211.0</ele><time>2026-05-01T08:33:21.998Z</time></trkpt><trkpt lat="43.47328398152845" lon="10.86584691097887"><ele>211.0</ele><time>2026-05-01T08:33:22.998Z</time></trkpt><trkpt lat="43.47340113829474" lon="10.86604557128012"><ele>210.66666666666666</ele><time>2026-05-01T08:33:23.998Z</time></trkpt><trkpt lat="43.47351714541964" lon="10.866239739765913"><ele>210.33333333333331</ele><time>2026-05-01T08:33:24.998Z</time></trkpt><trkpt lat="43.47363218770754" lon="10.866432020330114"><ele>210.0</ele><time>2026-05-01T08:33:25.998Z</time></trkpt><trkpt lat="43.473747627342604" lon="10.866626580170713"><ele>211.0</ele><time>2026-05-01T08:33:26.998Z</time></trkpt><trkpt lat="43.47386306172841" lon="10.866820284024284"><ele>212.0</ele><time>2026-05-01T08:33:27.998Z</time></trkpt><trkpt lat="43.47397733252125" lon="10.867012230436849"><ele>213.0</ele><time>2026-05-01T08:33:28.998Z</time></trkpt><trkpt lat="43.474090447459005" lon="10.867204827259656"><ele>213.0</ele><time>2026-05-01T08:33:29.998Z</time></trkpt><trkpt lat="43.474206069976326" lon="10.86739533934593"><ele>213.0</ele><time>2026-05-01T08:33:30.998Z</time></trkpt><trkpt lat="43.474323748462716" lon="10.867581710272052"><ele>213.0</ele><time>2026-05-01T08:33:31.998Z</time></trkpt><trkpt lat="43.47443955415239" lon="10.867772116449842"><ele>212.33333333333331</ele><time>2026-05-01T08:33:32.998Z</time></trkpt><trkpt lat="43.47455120974321" lon="10.867974332280768"><ele>211.66666666666666</ele><time>2026-05-01T08:33:33.998Z</time></trkpt><trkpt lat="43.47465098768418" lon="10.8681947487571"><ele>211.0</ele><time>2026-05-01T08:33:35Z</time></trkpt><trkpt lat="43.47473582722674" lon="10.868440018606568"><ele>213.66666666666666</ele><time>2026-05-01T08:33:36Z</time></trkpt><trkpt lat="43.47480412165624" lon="10.868705321159785"><ele>216.33333333333331</ele><time>2026-05-01T08:33:37Z</time></trkpt><trkpt lat="43.47485770078249" lon="10.868998753968643"><ele>219.0</ele><time>2026-05-01T08:33:38Z</time></trkpt><trkpt lat="43.474904043421326" lon="10.869299168032446"><ele>219.0</ele><time>2026-05-01T08:33:39Z</time></trkpt><trkpt lat="43.474951476343314" lon="10.86959116619648"><ele>219.0</ele><time>2026-05-01T08:33:40Z</time></trkpt><trkpt lat="43.47500098994078" lon="10.869872228517135"><ele>219.0</ele><time>2026-05-01T08:33:41Z</time></trkpt><trkpt lat="43.47504642930773" lon="10.870150979303304"><ele>218.66666666666669</ele><time>2026-05-01T08:33:42Z</time></trkpt><trkpt lat="43.47509418666994" lon="10.870430322490702"><ele>218.33333333333334</ele><time>2026-05-01T08:33:43Z</time></trkpt><trkpt lat="43.47514162940187" lon="10.870707402323246"><ele>218.0</ele><time>2026-05-01T08:33:44Z</time></trkpt><trkpt lat="43.475187803246214" lon="10.870972945630934"><ele>217.0</ele><time>2026-05-01T08:33:45Z</time></trkpt><trkpt lat="43.47523645049633" lon="10.87122484031232"><ele>216.0</ele><time>2026-05-01T08:33:46Z</time></trkpt><trkpt lat="43.47529588574121" lon="10.871480314176315"><ele>215.0</ele><time>2026-05-01T08:33:47Z</time></trkpt><trkpt lat="43.47537386305071" lon="10.871728754682632"><ele>217.0</ele><time>2026-05-01T08:33:48Z</time></trkpt><trkpt lat="43.475466002247146" lon="10.871970056988458"><ele>219.0</ele><time>2026-05-01T08:33:49Z</time></trkpt><trkpt lat="43.4755640873024" lon="10.872198933885835"><ele>221.0</ele><time>2026-05-01T08:33:50Z</time></trkpt><trkpt lat="43.47566395968449" lon="10.87241780831255"><ele>219.66666666666669</ele><time>2026-05-01T08:33:51Z</time></trkpt><trkpt lat="43.47578390745422" lon="10.872625472562904"><ele>218.33333333333331</ele><time>2026-05-01T08:33:52Z</time></trkpt><trkpt lat="43.47593383459372" lon="10.872824896474967"><ele>217.0</ele><time>2026-05-01T08:33:53Z</time></trkpt><trkpt lat="43.47610817665745" lon="10.873021571669494"><ele>221.5</ele><time>2026-05-01T08:33:54Z</time></trkpt><trkpt lat="43.47630166788386" lon="10.873219018279812"><ele>226.0</ele><time>2026-05-01T08:33:55Z</time></trkpt><trkpt lat="43.47650621383993" lon="10.873422832832164"><ele>228.5</ele><time>2026-05-01T08:33:56Z</time></trkpt><trkpt lat="43.47670530331646" lon="10.873622171521385"><ele>231.0</ele><time>2026-05-01T08:33:57Z</time></trkpt><trkpt lat="43.476892176341394" lon="10.873815613650859"><ele>231.0</ele><time>2026-05-01T08:33:58Z</time></trkpt><trkpt lat="43.47707568504323" lon="10.874008091593312"><ele>231.0</ele><time>2026-05-01T08:33:59Z</time></trkpt><trkpt lat="43.47725025652932" lon="10.874181353250261"><ele>231.0</ele><time>2026-05-01T08:34:00Z</time></trkpt><trkpt lat="43.47741947500457" lon="10.874343482721459"><ele>234.33333333333331</ele><time>2026-05-01T08:34:01Z</time></trkpt><trkpt lat="43.47759528890111" lon="10.874490662036553"><ele>237.66666666666666</ele><time>2026-05-01T08:34:02Z</time></trkpt><trkpt lat="43.477787038803996" lon="10.874622134708813"><ele>241.0</ele><time>2026-05-01T08:34:03Z</time></trkpt><trkpt lat="43.47798008918868" lon="10.874743784112562"><ele>241.66666666666666</ele><time>2026-05-01T08:34:04Z</time></trkpt><trkpt lat="43.4781708078684" lon="10.87486412621706"><ele>242.33333333333331</ele><time>2026-05-01T08:34:05Z</time></trkpt><trkpt lat="43.4783512498229" lon="10.874977037619082"><ele>243.0</ele><time>2026-05-01T08:34:06Z</time></trkpt><trkpt lat="43.478526963218734" lon="10.875092290938662"><ele>245.0</ele><time>2026-05-01T08:34:07Z</time></trkpt><trkpt lat="43.47868573315476" lon="10.875200146116455"><ele>247.0</ele><time>2026-05-01T08:34:08Z</time></trkpt><trkpt lat="43.478827893424516" lon="10.875288038651497"><ele>249.0</ele><time>2026-05-01T08:34:09Z</time></trkpt><trkpt lat="43.47896136474915" lon="10.875373434104176"><ele>249.0</ele><time>2026-05-01T08:34:10Z</time></trkpt><trkpt lat="43.47908182178108" lon="10.87546768463163"><ele>249.0</ele><time>2026-05-01T08:34:11Z</time></trkpt><trkpt lat="43.47917327330685" lon="10.875584397743264"><ele>249.0</ele><time>2026-05-01T08:34:12Z</time></trkpt><trkpt lat="43.479231522070656" lon="10.875757680188896"><ele>249.0</ele><time>2026-05-01T08:34:13Z</time></trkpt><trkpt lat="43.47926595357881" lon="10.875964777329967"><ele>250.0</ele><time>2026-05-01T08:34:14Z</time></trkpt><trkpt lat="43.47927464325743" lon="10.876188394745178"><ele>251.0</ele><time>2026-05-01T08:34:15Z</time></trkpt><trkpt lat="43.479289798497824" lon="10.876423229341718"><ele>252.0</ele><time>2026-05-01T08:34:16Z</time></trkpt><trkpt lat="43.47931695116092" lon="10.876645223652949"><ele>252.0</ele><time>2026-05-01T08:34:17Z</time></trkpt><trkpt lat="43.479356221952614" lon="10.876874054375657"><ele>252.0</ele><time>2026-05-01T08:34:18Z</time></trkpt><trkpt lat="43.47942873441866" lon="10.877124301784004"><ele>252.0</ele><time>2026-05-01T08:34:19Z</time></trkpt><trkpt lat="43.47952980383057" lon="10.877393819341192"><ele>252.0</ele><time>2026-05-01T08:34:20Z</time></trkpt><trkpt lat="43.4796599255294" lon="10.877682698968323"><ele>252.0</ele><time>2026-05-01T08:34:21Z</time></trkpt><trkpt lat="43.4798064811781" lon="10.877994263657403"><ele>252.0</ele><time>2026-05-01T08:34:22Z</time></trkpt><trkpt lat="43.47995518712311" lon="10.878326074802894"><ele>252.0</ele><time>2026-05-01T08:34:23Z</time></trkpt><trkpt lat="43.48010889900566" lon="10.878659722201581"><ele>256.5</ele><time>2026-05-01T08:34:24Z</time></trkpt><trkpt lat="43.480247340932316" lon="10.87894837421658"><ele>261.0</ele><time>2026-05-01T08:34:25Z</time></trkpt><trkpt lat="43.480372572251355" lon="10.879219548868784"><ele>261.5</ele><time>2026-05-01T08:34:26Z</time></trkpt><trkpt lat="43.480490084132526" lon="10.879488619151697"><ele>262.0</ele><time>2026-05-01T08:34:27Z</time></trkpt><trkpt lat="43.48060922854671" lon="10.879755226263468"><ele>262.0</ele><time>2026-05-01T08:34:28Z</time></trkpt><trkpt lat="43.48073487376647" lon="10.880012799903431"><ele>262.0</ele><time>2026-05-01T08:34:29Z</time></trkpt><trkpt lat="43.480850965735286" lon="10.880267351828182"><ele>262.0</ele><time>2026-05-01T08:34:30Z</time></trkpt><trkpt lat="43.48096135293423" lon="10.880511206925622"><ele>264.0</ele><time>2026-05-01T08:34:31Z</time></trkpt><trkpt lat="43.481071429219426" lon="10.880747320980028"><ele>266.0</ele><time>2026-05-01T08:34:32Z</time></trkpt><trkpt lat="43.48117730988216" lon="10.880985548698533"><ele>268.0</ele><time>2026-05-01T08:34:33Z</time></trkpt><trkpt lat="43.481263027749016" lon="10.88123287040802"><ele>269.3333333333333</ele><time>2026-05-01T08:34:33.999Z</time></trkpt><trkpt lat="43.48131575401938" lon="10.881498447129689"><ele>270.6666666666667</ele><time>2026-05-01T08:34:34.999Z</time></trkpt><trkpt lat="43.48135132565469" lon="10.881756623452498"><ele>272.0</ele><time>2026-05-01T08:34:35.999Z</time></trkpt><trkpt lat="43.481381089607744" lon="10.88197839171865"><ele>272.0</ele><time>2026-05-01T08:34:36.999Z</time></trkpt><trkpt lat="43.4814130313482" lon="10.882172914377199"><ele>272.0</ele><time>2026-05-01T08:34:37.999Z</time></trkpt><trkpt lat="43.481446497658645" lon="10.882340757833465"><ele>272.0</ele><time>2026-05-01T08:34:38.999Z</time></trkpt><trkpt lat="43.48150074535682" lon="10.882464922749037"><ele>272.0</ele><time>2026-05-01T08:34:39.999Z</time></trkpt><trkpt lat="43.48158075144117" lon="10.882553675315377"><ele>272.0</ele><time>2026-05-01T08:34:40.999Z</time></trkpt><trkpt lat="43.481686732243226" lon="10.882592777424877"><ele>272.0</ele><time>2026-05-01T08:34:41.999Z</time></trkpt><trkpt lat="43.48180111986679" lon="10.882575115750065"><ele>272.0</ele><time>2026-05-01T08:34:42.999Z</time></trkpt><trkpt lat="43.48191297736427" lon="10.882508609560562"><ele>272.0</ele><time>2026-05-01T08:34:43.999Z</time></trkpt><trkpt lat="43.48202488685593" lon="10.882388149556585"><ele>274.6666666666667</ele><time>2026-05-01T08:34:44.999Z</time></trkpt><trkpt lat="43.482148928264785" lon="10.88223567644013"><ele>277.3333333333333</ele><time>2026-05-01T08:34:45.999Z</time></trkpt><trkpt lat="43.482289539744386" lon="10.882090507025598"><ele>280.0</ele><time>2026-05-01T08:34:46.999Z</time></trkpt><trkpt lat="43.48241945739959" lon="10.881956416163908"><ele>280.0</ele><time>2026-05-01T08:34:47.999Z</time></trkpt><trkpt lat="43.48254475243743" lon="10.881838109997465"><ele>280.0</ele><time>2026-05-01T08:34:48.999Z</time></trkpt><trkpt lat="43.482691016282125" lon="10.881754327245678"><ele>280.0</ele><time>2026-05-01T08:34:49.999Z</time></trkpt><trkpt lat="43.482845191356276" lon="10.881722682628807"><ele>280.0</ele><time>2026-05-01T08:34:50.999Z</time></trkpt><trkpt lat="43.483012761895694" lon="10.881721999450937"><ele>280.0</ele><time>2026-05-01T08:34:51.999Z</time></trkpt><trkpt lat="43.48317627908585" lon="10.881750569411446"><ele>280.0</ele><time>2026-05-01T08:34:52.999Z</time></trkpt><trkpt lat="43.483309741598" lon="10.88180302092876"><ele>280.0</ele><time>2026-05-01T08:34:53.999Z</time></trkpt><trkpt lat="43.483419766806335" lon="10.881888987559604"><ele>280.0</ele><time>2026-05-01T08:34:54.999Z</time></trkpt><trkpt lat="43.483511645478686" lon="10.882028981352288"><ele>280.0</ele><time>2026-05-01T08:34:55.999Z</time></trkpt><trkpt lat="43.48355071061531" lon="10.882221613146863"><ele>280.0</ele><time>2026-05-01T08:34:56.999Z</time></trkpt><trkpt lat="43.48360909686284" lon="10.882431011454191"><ele>282.66666666666663</ele><time>2026-05-01T08:34:57.999Z</time></trkpt><trkpt lat="43.48364493374842" lon="10.882655337126966"><ele>285.3333333333333</ele><time>2026-05-01T08:34:58.999Z</time></trkpt><trkpt lat="43.48369491853979" lon="10.882882577214353"><ele>288.0</ele><time>2026-05-01T08:34:59.999Z</time></trkpt><trkpt lat="43.48376305673036" lon="10.883100648892997"><ele>287.6666666666667</ele><time>2026-05-01T08:35:00.999Z</time></trkpt><trkpt lat="43.48386707823421" lon="10.883309988676192"><ele>287.33333333333337</ele><time>2026-05-01T08:35:01.999Z</time></trkpt><trkpt lat="43.484003836599165" lon="10.883510515500967"><ele>287.0</ele><time>2026-05-01T08:35:02.999Z</time></trkpt><trkpt lat="43.48413583606544" lon="10.883690201493776"><ele>287.0</ele><time>2026-05-01T08:35:03.999Z</time></trkpt><trkpt lat="43.484216026390015" lon="10.883872281648227"><ele>287.0</ele><time>2026-05-01T08:35:04.999Z</time></trkpt><trkpt lat="43.48424442751719" lon="10.884101536875809"><ele>287.0</ele><time>2026-05-01T08:35:05.999Z</time></trkpt><trkpt lat="43.48430024345195" lon="10.884356120883735"><ele>288.33333333333337</ele><time>2026-05-01T08:35:06.999Z</time></trkpt><trkpt lat="43.48435074445658" lon="10.884635748086197"><ele>289.6666666666667</ele><time>2026-05-01T08:35:07.999Z</time></trkpt><trkpt lat="43.48439178125831" lon="10.88491446124347"><ele>291.0</ele><time>2026-05-01T08:35:08.999Z</time></trkpt><trkpt lat="43.48443764110515" lon="10.885151297451998"><ele>292.3333333333333</ele><time>2026-05-01T08:35:09.999Z</time></trkpt><trkpt lat="43.48448001026071" lon="10.885370106454358"><ele>293.66666666666663</ele><time>2026-05-01T08:35:10.999Z</time></trkpt><trkpt lat="43.484520755473845" lon="10.885583925280214"><ele>295.0</ele><time>2026-05-01T08:35:11.999Z</time></trkpt><trkpt lat="43.48455505940084" lon="10.8857743206888"><ele>294.5</ele><time>2026-05-01T08:35:12.999Z</time></trkpt><trkpt lat="43.48450977651071" lon="10.885938670247972"><ele>294.0</ele><time>2026-05-01T08:35:13.999Z</time></trkpt><trkpt lat="43.48443862990837" lon="10.886093423308882"><ele>293.5</ele><time>2026-05-01T08:35:14.999Z</time></trkpt><trkpt lat="43.48434849171266" lon="10.886271247695083"><ele>293.0</ele><time>2026-05-01T08:35:15.999Z</time></trkpt><trkpt lat="43.484246788771216" lon="10.886467958225897"><ele>293.0</ele><time>2026-05-01T08:35:16.998Z</time></trkpt><trkpt lat="43.484139319917794" lon="10.88667120980164"><ele>293.0</ele><time>2026-05-01T08:35:17.998Z</time></trkpt><trkpt lat="43.484027578094484" lon="10.886873745685834"><ele>293.0</ele><time>2026-05-01T08:35:18.998Z</time></trkpt><trkpt lat="43.48389771185317" lon="10.88708010545296"><ele>295.6666666666667</ele><time>2026-05-01T08:35:19.998Z</time></trkpt><trkpt lat="43.483760047299846" lon="10.887228055287984"><ele>298.3333333333333</ele><time>2026-05-01T08:35:20.998Z</time></trkpt><trkpt lat="43.48363107329394" lon="10.88735105356628"><ele>301.0</ele><time>2026-05-01T08:35:21.997Z</time></trkpt><trkpt lat="43.483519662073114" lon="10.887456720810325"><ele>301.0</ele><time>2026-05-01T08:35:22.997Z</time></trkpt><trkpt lat="43.48342618850836" lon="10.887567844607549"><ele>301.0</ele><time>2026-05-01T08:35:23.997Z</time></trkpt><trkpt lat="43.48336668877483" lon="10.887704694869148"><ele>301.0</ele><time>2026-05-01T08:35:24.997Z</time></trkpt><trkpt lat="43.48335479506315" lon="10.887843372867666"><ele>301.0</ele><time>2026-05-01T08:35:25.997Z</time></trkpt><trkpt lat="43.48341060389682" lon="10.887977491618951"><ele>302.0</ele><time>2026-05-01T08:35:26.997Z</time></trkpt><trkpt lat="43.48349001094749" lon="10.888085868191062"><ele>303.0</ele><time>2026-05-01T08:35:27.997Z</time></trkpt><trkpt lat="43.48359710532089" lon="10.888175151897046"><ele>304.0</ele><time>2026-05-01T08:35:28.997Z</time></trkpt><trkpt lat="43.4837196440536" lon="10.888263447338462"><ele>305.0</ele><time>2026-05-01T08:35:29.997Z</time></trkpt><trkpt lat="43.483826055801586" lon="10.888375908927028"><ele>302.33333333333337</ele><time>2026-05-01T08:35:30.997Z</time></trkpt><trkpt lat="43.48390040863323" lon="10.888552538602578"><ele>299.6666666666667</ele><time>2026-05-01T08:35:31.997Z</time></trkpt><trkpt lat="43.483951799972" lon="10.88875210693576"><ele>297.0</ele><time>2026-05-01T08:35:32.997Z</time></trkpt><trkpt lat="43.48400203345261" lon="10.888965499622149"><ele>297.0</ele><time>2026-05-01T08:35:33.997Z</time></trkpt><trkpt lat="43.48406812968943" lon="10.889159784567743"><ele>297.0</ele><time>2026-05-01T08:35:34.997Z</time></trkpt><trkpt lat="43.484123669991064" lon="10.889361364238809"><ele>297.0</ele><time>2026-05-01T08:35:35.997Z</time></trkpt><trkpt lat="43.484237521289195" lon="10.889503191789377"><ele>297.3333333333333</ele><time>2026-05-01T08:35:36.997Z</time></trkpt><trkpt lat="43.484368338044305" lon="10.889643611393549"><ele>297.66666666666663</ele><time>2026-05-01T08:35:37.997Z</time></trkpt><trkpt lat="43.48451525752985" lon="10.889775159130279"><ele>298.0</ele><time>2026-05-01T08:35:38.997Z</time></trkpt><trkpt lat="43.48465226755263" lon="10.889919431590165"><ele>299.3333333333333</ele><time>2026-05-01T08:35:39.997Z</time></trkpt><trkpt lat="43.48476640901628" lon="10.890101303419524"><ele>300.6666666666667</ele><time>2026-05-01T08:35:41Z</time></trkpt><trkpt lat="43.484847960555804" lon="10.890339705350968"><ele>302.0</ele><time>2026-05-01T08:35:42Z</time></trkpt><trkpt lat="43.48493919628421" lon="10.890603266557001"><ele>302.0</ele><time>2026-05-01T08:35:43Z</time></trkpt><trkpt lat="43.485051201398385" lon="10.890866096600929"><ele>302.0</ele><time>2026-05-01T08:35:44Z</time></trkpt><trkpt lat="43.485156273843984" lon="10.891173801778516"><ele>301.5</ele><time>2026-05-01T08:35:45Z</time></trkpt><trkpt lat="43.48527046982642" lon="10.891503128202286"><ele>301.0</ele><time>2026-05-01T08:35:46Z</time></trkpt><trkpt lat="43.48536779744924" lon="10.891825832419512"><ele>304.0</ele><time>2026-05-01T08:35:47Z</time></trkpt><trkpt lat="43.48547498055147" lon="10.892079954275385"><ele>307.0</ele><time>2026-05-01T08:35:48Z</time></trkpt><trkpt lat="43.48555933507948" lon="10.89232393247524"><ele>310.0</ele><time>2026-05-01T08:35:49Z</time></trkpt><trkpt lat="43.48564608670613" lon="10.892563759718461"><ele>311.3333333333333</ele><time>2026-05-01T08:35:50Z</time></trkpt><trkpt lat="43.48572410658681" lon="10.892810794749835"><ele>312.6666666666667</ele><time>2026-05-01T08:35:51Z</time></trkpt><trkpt lat="43.485779005901016" lon="10.893077667491525"><ele>314.0</ele><time>2026-05-01T08:35:52Z</time></trkpt><trkpt lat="43.48580735456349" lon="10.893350456596297"><ele>313.0</ele><time>2026-05-01T08:35:53Z</time></trkpt><trkpt lat="43.48583491677399" lon="10.893585899688667"><ele>312.0</ele><time>2026-05-01T08:35:54Z</time></trkpt><trkpt lat="43.485884525728615" lon="10.893795176248641"><ele>311.0</ele><time>2026-05-01T08:35:55Z</time></trkpt><trkpt lat="43.4859624012654" lon="10.893975251647477"><ele>311.0</ele><time>2026-05-01T08:35:56Z</time></trkpt><trkpt lat="43.48606540392532" lon="10.894117333162075"><ele>311.0</ele><time>2026-05-01T08:35:56.999Z</time></trkpt><trkpt lat="43.48619965367963" lon="10.894226695426179"><ele>311.0</ele><time>2026-05-01T08:35:57.999Z</time></trkpt><trkpt lat="43.486358378216195" lon="10.894317391431686"><ele>312.6666666666667</ele><time>2026-05-01T08:35:58.999Z</time></trkpt><trkpt lat="43.48654224039091" lon="10.894422542228492"><ele>314.3333333333333</ele><time>2026-05-01T08:35:59.999Z</time></trkpt><trkpt lat="43.48673098888724" lon="10.894543178062484"><ele>316.0</ele><time>2026-05-01T08:36:00.999Z</time></trkpt><trkpt lat="43.48693160580698" lon="10.894665954403726"><ele>321.3333333333333</ele><time>2026-05-01T08:36:01.999Z</time></trkpt><trkpt lat="43.48711781157922" lon="10.894780950659602"><ele>326.6666666666667</ele><time>2026-05-01T08:36:02.999Z</time></trkpt><trkpt lat="43.48727828724469" lon="10.894884653294813"><ele>332.0</ele><time>2026-05-01T08:36:03.999Z</time></trkpt><trkpt lat="43.487417793611286" lon="10.894988844468228"><ele>331.5</ele><time>2026-05-01T08:36:04.999Z</time></trkpt><trkpt lat="43.48752026355776" lon="10.895113945400686"><ele>331.0</ele><time>2026-05-01T08:36:05.999Z</time></trkpt><trkpt lat="43.487591392129474" lon="10.895271855977189"><ele>330.5</ele><time>2026-05-01T08:36:06.999Z</time></trkpt><trkpt lat="43.4876110388549" lon="10.895474274282892"><ele>330.0</ele><time>2026-05-01T08:36:07.999Z</time></trkpt><trkpt lat="43.487609835961266" lon="10.89570322095425"><ele>330.6666666666667</ele><time>2026-05-01T08:36:08.999Z</time></trkpt><trkpt lat="43.487627404527544" lon="10.8959519722141"><ele>331.33333333333337</ele><time>2026-05-01T08:36:09.999Z</time></trkpt><trkpt lat="43.48762836911439" lon="10.896205324591184"><ele>332.0</ele><time>2026-05-01T08:36:10.999Z</time></trkpt><trkpt lat="43.48763228935955" lon="10.896479173994548"><ele>333.0</ele><time>2026-05-01T08:36:11.999Z</time></trkpt><trkpt lat="43.48769660976984" lon="10.89676583799214"><ele>334.0</ele><time>2026-05-01T08:36:12.999Z</time></trkpt><trkpt lat="43.48775058785013" lon="10.897010819044587"><ele>335.0</ele><time>2026-05-01T08:36:13.999Z</time></trkpt><trkpt lat="43.48777832359671" lon="10.897238195787573"><ele>335.0</ele><time>2026-05-01T08:36:14.999Z</time></trkpt><trkpt lat="43.48779561270033" lon="10.897473208562156"><ele>335.0</ele><time>2026-05-01T08:36:15.999Z</time></trkpt><trkpt lat="43.48776957085135" lon="10.897708858752"><ele>335.0</ele><time>2026-05-01T08:36:16.999Z</time></trkpt><trkpt lat="43.487724265348234" lon="10.897955463941068"><ele>337.6666666666667</ele><time>2026-05-01T08:36:17.999Z</time></trkpt><trkpt lat="43.48767534830174" lon="10.898208620527356"><ele>340.3333333333333</ele><time>2026-05-01T08:36:18.999Z</time></trkpt><trkpt lat="43.48762593921977" lon="10.898466054028866"><ele>343.0</ele><time>2026-05-01T08:36:19.999Z</time></trkpt><trkpt lat="43.48758270283047" lon="10.898692859112838"><ele>343.66666666666663</ele><time>2026-05-01T08:36:20.999Z</time></trkpt><trkpt lat="43.48753635426243" lon="10.898936386204236"><ele>344.3333333333333</ele><time>2026-05-01T08:36:21.999Z</time></trkpt><trkpt lat="43.48752336715459" lon="10.899182091533667"><ele>345.0</ele><time>2026-05-01T08:36:22.999Z</time></trkpt><trkpt lat="43.48753964755229" lon="10.899369805431308"><ele>345.0</ele><time>2026-05-01T08:36:23.999Z</time></trkpt><trkpt lat="43.487607899595545" lon="10.899595980154498"><ele>345.0</ele><time>2026-05-01T08:36:24.999Z</time></trkpt><trkpt lat="43.487701028085894" lon="10.899807151141509"><ele>345.0</ele><time>2026-05-01T08:36:25.999Z</time></trkpt><trkpt lat="43.4877616416678" lon="10.900003462898226"><ele>346.5</ele><time>2026-05-01T08:36:26.999Z</time></trkpt><trkpt lat="43.48780062970143" lon="10.90018832841649"><ele>348.0</ele><time>2026-05-01T08:36:27.999Z</time></trkpt><trkpt lat="43.48777520207014" lon="10.900327420078792"><ele>349.5</ele><time>2026-05-01T08:36:28.999Z</time></trkpt><trkpt lat="43.48772049417624" lon="10.900478867073153"><ele>351.0</ele><time>2026-05-01T08:36:29.999Z</time></trkpt><trkpt lat="43.48762902284812" lon="10.90061161490921"><ele>351.0</ele><time>2026-05-01T08:36:30.999Z</time></trkpt><trkpt lat="43.48754171071358" lon="10.900755366086878"><ele>351.0</ele><time>2026-05-01T08:36:31.999Z</time></trkpt><trkpt lat="43.48749087335936" lon="10.900914165932512"><ele>351.0</ele><time>2026-05-01T08:36:32.999Z</time></trkpt><trkpt lat="43.487471724693656" lon="10.901054870855766"><ele>351.0</ele><time>2026-05-01T08:36:33.999Z</time></trkpt><trkpt lat="43.487469249589765" lon="10.901224569222878"><ele>351.0</ele><time>2026-05-01T08:36:34.999Z</time></trkpt><trkpt lat="43.48747365993947" lon="10.901446512742252"><ele>351.0</ele><time>2026-05-01T08:36:35.999Z</time></trkpt><trkpt lat="43.4874799682474" lon="10.901732261046188"><ele>351.0</ele><time>2026-05-01T08:36:36.999Z</time></trkpt><trkpt lat="43.4874854015504" lon="10.901978374101054"><ele>351.0</ele><time>2026-05-01T08:36:37.999Z</time></trkpt><trkpt lat="43.48750270092217" lon="10.902195967116871"><ele>351.0</ele><time>2026-05-01T08:36:38.999Z</time></trkpt><trkpt lat="43.48751307929587" lon="10.902392454324003"><ele>351.0</ele><time>2026-05-01T08:36:39.999Z</time></trkpt><trkpt lat="43.48754229527816" lon="10.902585357335559"><ele>351.0</ele><time>2026-05-01T08:36:40.999Z</time></trkpt><trkpt lat="43.48762832177174" lon="10.902768608957883"><ele>351.0</ele><time>2026-05-01T08:36:41.999Z</time></trkpt><trkpt lat="43.48774530385774" lon="10.902963881353969"><ele>351.0</ele><time>2026-05-01T08:36:42.999Z</time></trkpt><trkpt lat="43.487836967021174" lon="10.903161749503116"><ele>351.0</ele><time>2026-05-01T08:36:43.999Z</time></trkpt><trkpt lat="43.48784589944042" lon="10.903390735546246"><ele>351.0</ele><time>2026-05-01T08:36:44.999Z</time></trkpt><trkpt lat="43.48783159528043" lon="10.903612156350034"><ele>351.0</ele><time>2026-05-01T08:36:45.998Z</time></trkpt><trkpt lat="43.487802616877495" lon="10.903849625427451"><ele>351.0</ele><time>2026-05-01T08:36:46.998Z</time></trkpt><trkpt lat="43.4877801215508" lon="10.90406631503668"><ele>350.6666666666667</ele><time>2026-05-01T08:36:47.998Z</time></trkpt><trkpt lat="43.48778155792133" lon="10.904253794185063"><ele>350.33333333333337</ele><time>2026-05-01T08:36:48.998Z</time></trkpt><trkpt lat="43.4877912191921" lon="10.904475993424237"><ele>350.0</ele><time>2026-05-01T08:36:49.998Z</time></trkpt><trkpt lat="43.48779358026089" lon="10.904739672025936"><ele>350.0</ele><time>2026-05-01T08:36:50.998Z</time></trkpt><trkpt lat="43.487814475259995" lon="10.905047903221035"><ele>350.0</ele><time>2026-05-01T08:36:51.998Z</time></trkpt><trkpt lat="43.48785000229286" lon="10.90538706111052"><ele>351.0</ele><time>2026-05-01T08:36:52.998Z</time></trkpt><trkpt lat="43.48786909623985" lon="10.905750720020828"><ele>352.0</ele><time>2026-05-01T08:36:53.998Z</time></trkpt><trkpt lat="43.487898457936524" lon="10.906081509658566"><ele>352.3333333333333</ele><time>2026-05-01T08:36:54.998Z</time></trkpt><trkpt lat="43.48791874171108" lon="10.90638785666685"><ele>352.6666666666667</ele><time>2026-05-01T08:36:55.998Z</time></trkpt><trkpt lat="43.48793096178454" lon="10.90666240513664"><ele>353.0</ele><time>2026-05-01T08:36:56.998Z</time></trkpt><trkpt lat="43.487948849937915" lon="10.906928336854543"><ele>353.33333333333337</ele><time>2026-05-01T08:36:57.998Z</time></trkpt><trkpt lat="43.48795352197667" lon="10.90720903649913"><ele>353.6666666666667</ele><time>2026-05-01T08:36:58.998Z</time></trkpt><trkpt lat="43.48791107390282" lon="10.907507227811406"><ele>354.0</ele><time>2026-05-01T08:36:59.998Z</time></trkpt><trkpt lat="43.4878790429943" lon="10.907845983063888"><ele>355.0</ele><time>2026-05-01T08:37:00.998Z</time></trkpt><trkpt lat="43.48782759720525" lon="10.908178033577887"><ele>356.0</ele><time>2026-05-01T08:37:01.998Z</time></trkpt><trkpt lat="43.487781432384125" lon="10.908469882736654"><ele>357.0</ele><time>2026-05-01T08:37:02.998Z</time></trkpt><trkpt lat="43.48773178774454" lon="10.908743193934656"><ele>358.0</ele><time>2026-05-01T08:37:03.998Z</time></trkpt><trkpt lat="43.48766333600334" lon="10.90901373761907"><ele>359.0</ele><time>2026-05-01T08:37:04.998Z</time></trkpt><trkpt lat="43.48755250761354" lon="10.909260249534062"><ele>365.0</ele><time>2026-05-01T08:37:05.998Z</time></trkpt><trkpt lat="43.48744714288384" lon="10.909500770907012"><ele>371.0</ele><time>2026-05-01T08:37:06.998Z</time></trkpt><trkpt lat="43.48734947995839" lon="10.909720970995446"><ele>377.0</ele><time>2026-05-01T08:37:07.998Z</time></trkpt><trkpt lat="43.48725658604546" lon="10.909891355267785"><ele>377.0</ele><time>2026-05-01T08:37:08.998Z</time></trkpt><trkpt lat="43.48713180137269" lon="10.910045496149035"><ele>377.0</ele><time>2026-05-01T08:37:09.998Z</time></trkpt><trkpt lat="43.487008997521876" lon="10.910181899458177"><ele>377.0</ele><time>2026-05-01T08:37:10.998Z</time></trkpt><trkpt lat="43.48690353389622" lon="10.910293238950281"><ele>375.6666666666667</ele><time>2026-05-01T08:37:11.998Z</time></trkpt><trkpt lat="43.48678817588451" lon="10.91039073445511"><ele>374.3333333333333</ele><time>2026-05-01T08:37:12.998Z</time></trkpt><trkpt lat="43.48663492003835" lon="10.91040477438087"><ele>373.0</ele><time>2026-05-01T08:37:13.998Z</time></trkpt><trkpt lat="43.486449238862015" lon="10.910408232399613"><ele>375.66666666666663</ele><time>2026-05-01T08:37:14.998Z</time></trkpt><trkpt lat="43.48624819107996" lon="10.910408232405436"><ele>378.3333333333333</ele><time>2026-05-01T08:37:15.998Z</time></trkpt><trkpt lat="43.48603107276651" lon="10.9104149787658"><ele>381.0</ele><time>2026-05-01T08:37:16.998Z</time></trkpt><trkpt lat="43.48579660631889" lon="10.9104401948629"><ele>381.0</ele><time>2026-05-01T08:37:17.998Z</time></trkpt><trkpt lat="43.48554986573921" lon="10.910488720013335"><ele>381.0</ele><time>2026-05-01T08:37:18.998Z</time></trkpt><trkpt lat="43.485335645341955" lon="10.910527289761943"><ele>380.0</ele><time>2026-05-01T08:37:19.998Z</time></trkpt><trkpt lat="43.485169302293144" lon="10.910556967499238"><ele>379.0</ele><time>2026-05-01T08:37:20.998Z</time></trkpt><trkpt lat="43.485036328998895" lon="10.91058748918787"><ele>378.0</ele><time>2026-05-01T08:37:21.998Z</time></trkpt><trkpt lat="43.48492918739751" lon="10.910635435104748"><ele>377.0</ele><time>2026-05-01T08:37:22.998Z</time></trkpt><trkpt lat="43.484807472081556" lon="10.910738237027438"><ele>377.33333333333337</ele><time>2026-05-01T08:37:23.998Z</time></trkpt><trkpt lat="43.48468281249869" lon="10.910908370316827"><ele>377.6666666666667</ele><time>2026-05-01T08:37:24.998Z</time></trkpt><trkpt lat="43.484562219844214" lon="10.911123492189539"><ele>378.0</ele><time>2026-05-01T08:37:25.998Z</time></trkpt><trkpt lat="43.48443250282253" lon="10.91135340208416"><ele>378.0</ele><time>2026-05-01T08:37:26.998Z</time></trkpt><trkpt lat="43.48430675907328" lon="10.911576269762906"><ele>378.0</ele><time>2026-05-01T08:37:27.998Z</time></trkpt><trkpt lat="43.48418780671151" lon="10.91178710041341"><ele>378.0</ele><time>2026-05-01T08:37:28.998Z</time></trkpt><trkpt lat="43.484087136328775" lon="10.9119665649163"><ele>380.0</ele><time>2026-05-01T08:37:29.998Z</time></trkpt><trkpt lat="43.484000355102225" lon="10.912123939810115"><ele>382.0</ele><time>2026-05-01T08:37:30.998Z</time></trkpt><trkpt lat="43.483930783803" lon="10.91226281398226"><ele>384.0</ele><time>2026-05-01T08:37:31.998Z</time></trkpt><trkpt lat="43.48388777601121" lon="10.912411466695701"><ele>386.0</ele><time>2026-05-01T08:37:32.998Z</time></trkpt><trkpt lat="43.483906120308895" lon="10.912569972902897"><ele>384.75</ele><time>2026-05-01T08:37:33.998Z</time></trkpt><trkpt lat="43.483946697018006" lon="10.912733601325739"><ele>383.5</ele><time>2026-05-01T08:37:34.997Z</time></trkpt><trkpt lat="43.48403196886828" lon="10.912898527828563"><ele>382.25</ele><time>2026-05-01T08:37:35.997Z</time></trkpt><trkpt lat="43.48414876666009" lon="10.91308157766789"><ele>381.0</ele><time>2026-05-01T08:37:36.997Z</time></trkpt><trkpt lat="43.48427277538311" lon="10.91330798359458"><ele>379.3333333333333</ele><time>2026-05-01T08:37:37.997Z</time></trkpt><trkpt lat="43.4843984283391" lon="10.91356910681167"><ele>377.66666666666663</ele><time>2026-05-01T08:37:38.997Z</time></trkpt><trkpt lat="43.484526141076906" lon="10.913816757059656"><ele>376.0</ele><time>2026-05-01T08:37:39.997Z</time></trkpt><trkpt lat="43.48463663678261" lon="10.914072349814818"><ele>386.5</ele><time>2026-05-01T08:37:40.997Z</time></trkpt><trkpt lat="43.4846856393561" lon="10.914377431708857"><ele>397.0</ele><time>2026-05-01T08:37:41.997Z</time></trkpt><trkpt lat="43.48474499555907" lon="10.914684165184033"><ele>397.0</ele><time>2026-05-01T08:37:42.997Z</time></trkpt><trkpt lat="43.48482365520408" lon="10.914970578921345"><ele>397.0</ele><time>2026-05-01T08:37:43.997Z</time></trkpt><trkpt lat="43.48492394629974" lon="10.915274927620642"><ele>393.5</ele><time>2026-05-01T08:37:44.997Z</time></trkpt><trkpt lat="43.485044441404575" lon="10.915598553512327"><ele>390.0</ele><time>2026-05-01T08:37:46Z</time></trkpt><trkpt lat="43.48516768973211" lon="10.915929996197654"><ele>386.5</ele><time>2026-05-01T08:37:47Z</time></trkpt><trkpt lat="43.48529133154255" lon="10.916283307060741"><ele>383.0</ele><time>2026-05-01T08:37:48Z</time></trkpt><trkpt lat="43.48541218420436" lon="10.91662043019473"><ele>391.0</ele><time>2026-05-01T08:37:49Z</time></trkpt><trkpt lat="43.48552149742158" lon="10.916939022643922"><ele>399.0</ele><time>2026-05-01T08:37:50Z</time></trkpt><trkpt lat="43.485621171116605" lon="10.917225973756599"><ele>399.0</ele><time>2026-05-01T08:37:51Z</time></trkpt><trkpt lat="43.485713095556314" lon="10.917484823853643"><ele>399.0</ele><time>2026-05-01T08:37:52Z</time></trkpt><trkpt lat="43.48579936296356" lon="10.917721156523669"><ele>399.0</ele><time>2026-05-01T08:37:53Z</time></trkpt><trkpt lat="43.48588417566529" lon="10.917946360742347"><ele>398.0</ele><time>2026-05-01T08:37:54Z</time></trkpt><trkpt lat="43.485997876456096" lon="10.918172921172443"><ele>397.0</ele><time>2026-05-01T08:37:55Z</time></trkpt><trkpt lat="43.48615964054247" lon="10.918399680367811"><ele>396.0</ele><time>2026-05-01T08:37:56Z</time></trkpt><trkpt lat="43.486343332679944" lon="10.91862853546599"><ele>396.0</ele><time>2026-05-01T08:37:57Z</time></trkpt><trkpt lat="43.486519887208466" lon="10.918848157014445"><ele>396.0</ele><time>2026-05-01T08:37:58Z</time></trkpt><trkpt lat="43.48669700688925" lon="10.91907311127972"><ele>393.5</ele><time>2026-05-01T08:37:59Z</time></trkpt><trkpt lat="43.486885191277004" lon="10.919312688498467"><ele>391.0</ele><time>2026-05-01T08:38:00Z</time></trkpt><trkpt lat="43.487089293176815" lon="10.919564041058477"><ele>394.0</ele><time>2026-05-01T08:38:01Z</time></trkpt><trkpt lat="43.48729539733292" lon="10.91981790268565"><ele>397.0</ele><time>2026-05-01T08:38:02Z</time></trkpt><trkpt lat="43.48750443490225" lon="10.920085901198975"><ele>397.0</ele><time>2026-05-01T08:38:03Z</time></trkpt><trkpt lat="43.48771484828746" lon="10.920362614249871"><ele>397.0</ele><time>2026-05-01T08:38:04Z</time></trkpt><trkpt lat="43.48790664676153" lon="10.920602577482594"><ele>400.5</ele><time>2026-05-01T08:38:05Z</time></trkpt><trkpt lat="43.488079070604314" lon="10.92082053711919"><ele>404.0</ele><time>2026-05-01T08:38:05.999Z</time></trkpt><trkpt lat="43.48824585497382" lon="10.92103275586217"><ele>404.0</ele><time>2026-05-01T08:38:06.999Z</time></trkpt><trkpt lat="43.488405454633124" lon="10.921241626167463"><ele>404.0</ele><time>2026-05-01T08:38:07.999Z</time></trkpt><trkpt lat="43.4885610585213" lon="10.921442717309576"><ele>404.0</ele><time>2026-05-01T08:38:08.999Z</time></trkpt><trkpt lat="43.488706405767495" lon="10.921639742556989"><ele>408.0</ele><time>2026-05-01T08:38:09.999Z</time></trkpt><trkpt lat="43.48883125270283" lon="10.921841248160158"><ele>412.0</ele><time>2026-05-01T08:38:10.999Z</time></trkpt><trkpt lat="43.48894659865161" lon="10.922042938075094"><ele>416.0</ele><time>2026-05-01T08:38:11.999Z</time></trkpt><trkpt lat="43.48904224074464" lon="10.922240024312817"><ele>416.0</ele><time>2026-05-01T08:38:12.999Z</time></trkpt><trkpt lat="43.48913933506376" lon="10.922408551466694"><ele>416.0</ele><time>2026-05-01T08:38:13.999Z</time></trkpt><trkpt lat="43.4892769676974" lon="10.922564292202798"><ele>416.0</ele><time>2026-05-01T08:38:14.999Z</time></trkpt><trkpt lat="43.489432899483376" lon="10.922686697162867"><ele>415.0</ele><time>2026-05-01T08:38:15.999Z</time></trkpt><trkpt lat="43.48956334518794" lon="10.922777757178391"><ele>414.0</ele><time>2026-05-01T08:38:16.999Z</time></trkpt><trkpt lat="43.48967440279583" lon="10.922853833418475"><ele>413.0</ele><time>2026-05-01T08:38:17.999Z</time></trkpt><trkpt lat="43.48976083651087" lon="10.922938863683045"><ele>412.0</ele><time>2026-05-01T08:38:18.999Z</time></trkpt><trkpt lat="43.48983247312202" lon="10.923021383911836"><ele>414.1666666666667</ele><time>2026-05-01T08:38:19.999Z</time></trkpt><trkpt lat="43.48985793484018" lon="10.923121395583271"><ele>416.33333333333337</ele><time>2026-05-01T08:38:20.999Z</time></trkpt><trkpt lat="43.489872997668435" lon="10.92321867757373"><ele>418.5</ele><time>2026-05-01T08:38:21.999Z</time></trkpt><trkpt lat="43.48986970783193" lon="10.923326827118379"><ele>420.66666666666663</ele><time>2026-05-01T08:38:22.999Z</time></trkpt><trkpt lat="43.48985584452333" lon="10.923450049460975"><ele>422.8333333333333</ele><time>2026-05-01T08:38:23.999Z</time></trkpt><trkpt lat="43.489835900266655" lon="10.923597592710694"><ele>425.0</ele><time>2026-05-01T08:38:24.999Z</time></trkpt><trkpt lat="43.48981010783735" lon="10.923754999472287"><ele>425.0</ele><time>2026-05-01T08:38:25.999Z</time></trkpt><trkpt lat="43.489786613774825" lon="10.923909921007818"><ele>425.0</ele><time>2026-05-01T08:38:26.999Z</time></trkpt><trkpt lat="43.489761476550385" lon="10.924082672582344"><ele>425.0</ele><time>2026-05-01T08:38:27.999Z</time></trkpt><trkpt lat="43.48973392919845" lon="10.924271987416502"><ele>425.0</ele><time>2026-05-01T08:38:28.999Z</time></trkpt><trkpt lat="43.48970451328019" lon="10.924466150512698"><ele>425.0</ele><time>2026-05-01T08:38:29.999Z</time></trkpt><trkpt lat="43.48967228517598" lon="10.924673492939512"><ele>425.0</ele><time>2026-05-01T08:38:30.999Z</time></trkpt><trkpt lat="43.48963718927209" lon="10.924898378302538"><ele>425.0</ele><time>2026-05-01T08:38:31.999Z</time></trkpt><trkpt lat="43.48960127975747" lon="10.925128477163286"><ele>421.0</ele><time>2026-05-01T08:38:32.999Z</time></trkpt><trkpt lat="43.48956452362705" lon="10.9253640009384"><ele>417.0</ele><time>2026-05-01T08:38:33.999Z</time></trkpt><trkpt lat="43.48909745306354" lon="10.925614737917888"><ele>417.0</ele><time>2026-05-01T08:38:34.999Z</time></trkpt><trkpt lat="43.48910055311852" lon="10.925768452678879"><ele>417.0</ele><time>2026-05-01T08:38:35.999Z</time></trkpt><trkpt lat="43.4890788925411" lon="10.92594598008132"><ele>417.0</ele><time>2026-05-01T08:38:36.999Z</time></trkpt><trkpt lat="43.489042158838764" lon="10.926066744960899"><ele>417.0</ele><time>2026-05-01T08:38:37.999Z</time></trkpt><trkpt lat="43.488986301583026" lon="10.926203290795316"><ele>419.66666666666663</ele><time>2026-05-01T08:38:38.999Z</time></trkpt><trkpt lat="43.48892940543678" lon="10.926283696847753"><ele>422.3333333333333</ele><time>2026-05-01T08:38:39.999Z</time></trkpt><trkpt lat="43.48884353264991" lon="10.926426839570135"><ele>425.0</ele><time>2026-05-01T08:38:41.999Z</time></trkpt><trkpt lat="43.48932117913557" lon="10.927373059245179"><ele>428.0</ele><time>2026-05-01T08:38:42.999Z</time></trkpt><trkpt lat="43.48930396853854" lon="10.92758717862698"><ele>431.0</ele><time>2026-05-01T08:38:43.999Z</time></trkpt><trkpt lat="43.48929047278463" lon="10.927797945952141"><ele>434.0</ele><time>2026-05-01T08:38:44.999Z</time></trkpt><trkpt lat="43.48928033393147" lon="10.928001564078974"><ele>434.0</ele><time>2026-05-01T08:38:45.999Z</time></trkpt><trkpt lat="43.48926480854838" lon="10.928207129754629"><ele>434.0</ele><time>2026-05-01T08:38:46.999Z</time></trkpt><trkpt lat="43.48924568155906" lon="10.92840925779986"><ele>434.0</ele><time>2026-05-01T08:38:47.999Z</time></trkpt><trkpt lat="43.4892271874409" lon="10.928600598079552"><ele>434.0</ele><time>2026-05-01T08:38:48.999Z</time></trkpt><trkpt lat="43.48921368678458" lon="10.928781711765133"><ele>434.5</ele><time>2026-05-01T08:38:49.999Z</time></trkpt><trkpt lat="43.4892078706988" lon="10.928950684426786"><ele>435.0</ele><time>2026-05-01T08:38:50.999Z</time></trkpt><trkpt lat="43.48922479141154" lon="10.929123789545212"><ele>435.5</ele><time>2026-05-01T08:38:51.999Z</time></trkpt><trkpt lat="43.489270732633756" lon="10.929293961322305"><ele>436.0</ele><time>2026-05-01T08:38:52.999Z</time></trkpt><trkpt lat="43.48931808324126" lon="10.929458270832736"><ele>436.25</ele><time>2026-05-01T08:38:53.999Z</time></trkpt><trkpt lat="43.489369116346815" lon="10.929614636131163"><ele>436.5</ele><time>2026-05-01T08:38:54.998Z</time></trkpt><trkpt lat="43.48942133661923" lon="10.929764936552123"><ele>436.75</ele><time>2026-05-01T08:38:55.998Z</time></trkpt><trkpt lat="43.489473344069694" lon="10.929919530871334"><ele>437.0</ele><time>2026-05-01T08:38:56.998Z</time></trkpt><trkpt lat="43.48951795013491" lon="10.930082501257731"><ele>437.25</ele><time>2026-05-01T08:38:57.998Z</time></trkpt><trkpt lat="43.48955791354864" lon="10.930263117187836"><ele>437.5</ele><time>2026-05-01T08:38:58.998Z</time></trkpt><trkpt lat="43.48959095903241" lon="10.930464685231632"><ele>437.75</ele><time>2026-05-01T08:38:59.998Z</time></trkpt><trkpt lat="43.48961344348611" lon="10.930675246006734"><ele>438.0</ele><time>2026-05-01T08:39:00.998Z</time></trkpt><trkpt lat="43.4896343251156" lon="10.930887218907252"><ele>443.75</ele><time>2026-05-01T08:39:01.998Z</time></trkpt><trkpt lat="43.48965216496101" lon="10.931082806168074"><ele>449.5</ele><time>2026-05-01T08:39:02.998Z</time></trkpt><trkpt lat="43.48966352930302" lon="10.931269190922622"><ele>455.25</ele><time>2026-05-01T08:39:03.998Z</time></trkpt><trkpt lat="43.489676368409036" lon="10.93143815920141"><ele>461.0</ele><time>2026-05-01T08:39:04.998Z</time></trkpt><trkpt lat="43.4896912435515" lon="10.93159261330846"><ele>460.4</ele><time>2026-05-01T08:39:05.998Z</time></trkpt><trkpt lat="43.489703321011405" lon="10.93174379971505"><ele>459.8</ele><time>2026-05-01T08:39:06.998Z</time></trkpt><trkpt lat="43.48971304262124" lon="10.931893505384298"><ele>459.19999999999993</ele><time>2026-05-01T08:39:07.998Z</time></trkpt><trkpt lat="43.489721471449535" lon="10.932046061477793"><ele>458.59999999999997</ele><time>2026-05-01T08:39:08.998Z</time></trkpt><trkpt lat="43.489731032144384" lon="10.932191488165794"><ele>458.0</ele><time>2026-05-01T08:39:09.998Z</time></trkpt><trkpt lat="43.489745884021445" lon="10.932317325091226"><ele>457.99999999999994</ele><time>2026-05-01T08:39:10.998Z</time></trkpt><trkpt lat="43.48977449808816" lon="10.932425948649463"><ele>458.0</ele><time>2026-05-01T08:39:11.998Z</time></trkpt><trkpt lat="43.48981690798704" lon="10.932505411988622"><ele>458.0</ele><time>2026-05-01T08:39:12.998Z</time></trkpt><trkpt lat="43.489927520278904" lon="10.932582140184186"><ele>458.0</ele><time>2026-05-01T08:39:14.998Z</time></trkpt><trkpt lat="43.48999713752996" lon="10.93263060918193"><ele>457.99999999999994</ele><time>2026-05-01T08:39:15.998Z</time></trkpt><trkpt lat="43.490048365726125" lon="10.932715667948969"><ele>458.0</ele><time>2026-05-01T08:39:16.998Z</time></trkpt><trkpt lat="43.490076736858285" lon="10.932855533999943"><ele>458.0</ele><time>2026-05-01T08:39:17.998Z</time></trkpt><trkpt lat="43.49008256752892" lon="10.933029508169946"><ele>458.0</ele><time>2026-05-01T08:39:18.998Z</time></trkpt><trkpt lat="43.49007966382194" lon="10.933238436056882"><ele>458.0</ele><time>2026-05-01T08:39:19.998Z</time></trkpt><trkpt lat="43.49006404595247" lon="10.933446403135417"><ele>458.0</ele><time>2026-05-01T08:39:20.998Z</time></trkpt><trkpt lat="43.49003788966288" lon="10.933672735233912"><ele>458.0</ele><time>2026-05-01T08:39:21.998Z</time></trkpt><trkpt lat="43.49001233542624" lon="10.933921396110378"><ele>458.0</ele><time>2026-05-01T08:39:22.998Z</time></trkpt><trkpt lat="43.48998939601954" lon="10.934167602077002"><ele>458.0</ele><time>2026-05-01T08:39:23.998Z</time></trkpt><trkpt lat="43.48996412509781" lon="10.934417000064723"><ele>458.0</ele><time>2026-05-01T08:39:24.998Z</time></trkpt><trkpt lat="43.48993696312587" lon="10.934668339527194"><ele>458.0</ele><time>2026-05-01T08:39:25.998Z</time></trkpt><trkpt lat="43.4898926198561" lon="10.934919685934432"><ele>458.0</ele><time>2026-05-01T08:39:26.998Z</time></trkpt><trkpt lat="43.48986639133942" lon="10.935176071368913"><ele>456.66666666666663</ele><time>2026-05-01T08:39:27.998Z</time></trkpt><trkpt lat="43.489840142326784" lon="10.935432246868682"><ele>455.33333333333337</ele><time>2026-05-01T08:39:28.998Z</time></trkpt><trkpt lat="43.48981324382796" lon="10.93569482962774"><ele>454.0</ele><time>2026-05-01T08:39:29.998Z</time></trkpt><trkpt lat="43.489786405153914" lon="10.935958807935775"><ele>452.6666666666667</ele><time>2026-05-01T08:39:30.998Z</time></trkpt><trkpt lat="43.48975958281817" lon="10.936222635392262"><ele>451.33333333333337</ele><time>2026-05-01T08:39:31.998Z</time></trkpt><trkpt lat="43.48973261606739" lon="10.936487936556105"><ele>450.0</ele><time>2026-05-01T08:39:32.998Z</time></trkpt><trkpt lat="43.489705540037285" lon="10.936754429056633"><ele>449.66666666666663</ele><time>2026-05-01T08:39:33.998Z</time></trkpt><trkpt lat="43.489678370650424" lon="10.937021840409063"><ele>449.3333333333333</ele><time>2026-05-01T08:39:34.998Z</time></trkpt><trkpt lat="43.48966495406643" lon="10.937283471056128"><ele>449.0</ele><time>2026-05-01T08:39:35.998Z</time></trkpt><trkpt lat="43.48963941937818" lon="10.937538397885737"><ele>449.0</ele><time>2026-05-01T08:39:36.998Z</time></trkpt><trkpt lat="43.48961177518707" lon="10.937794322106503"><ele>449.0</ele><time>2026-05-01T08:39:37.998Z</time></trkpt><trkpt lat="43.489582381283675" lon="10.938049909524604"><ele>449.0</ele><time>2026-05-01T08:39:38.998Z</time></trkpt><trkpt lat="43.48955654961367" lon="10.938307626231563"><ele>450.3333333333333</ele><time>2026-05-01T08:39:39.998Z</time></trkpt><trkpt lat="43.489530122606595" lon="10.938565113106304"><ele>451.66666666666663</ele><time>2026-05-01T08:39:40.998Z</time></trkpt><trkpt lat="43.4895017518157" lon="10.938822625803152"><ele>453.0</ele><time>2026-05-01T08:39:41.998Z</time></trkpt><trkpt lat="43.48947765815945" lon="10.939061812147601"><ele>453.66666666666663</ele><time>2026-05-01T08:39:42.998Z</time></trkpt><trkpt lat="43.489456443290095" lon="10.939287992518373"><ele>454.3333333333333</ele><time>2026-05-01T08:39:43.997Z</time></trkpt><trkpt lat="43.489436222755806" lon="10.939509071929495"><ele>455.0</ele><time>2026-05-01T08:39:44.997Z</time></trkpt><trkpt lat="43.489397498454004" lon="10.93971442693314"><ele>455.0</ele><time>2026-05-01T08:39:45.997Z</time></trkpt><trkpt lat="43.48937308401409" lon="10.939902632178512"><ele>455.0</ele><time>2026-05-01T08:39:46.997Z</time></trkpt><trkpt lat="43.48933852388073" lon="10.940066959617456"><ele>455.0</ele><time>2026-05-01T08:39:47.997Z</time></trkpt><trkpt lat="43.48929683998883" lon="10.940237731109272"><ele>455.0</ele><time>2026-05-01T08:39:48.997Z</time></trkpt><trkpt lat="43.48919369346038" lon="10.940346352950023"><ele>453.3333333333333</ele><time>2026-05-01T08:39:49.997Z</time></trkpt><trkpt lat="43.48908598946773" lon="10.940452071885646"><ele>451.66666666666663</ele><time>2026-05-01T08:39:50.997Z</time></trkpt><trkpt lat="43.488948946463275" lon="10.94053987780495"><ele>450.0</ele><time>2026-05-01T08:39:52Z</time></trkpt><trkpt lat="43.48878806230774" lon="10.940632914221181"><ele>449.66666666666663</ele><time>2026-05-01T08:39:53Z</time></trkpt><trkpt lat="43.48862516756909" lon="10.940728772507464"><ele>449.3333333333333</ele><time>2026-05-01T08:39:54Z</time></trkpt><trkpt lat="43.488480062657615" lon="10.940816496700403"><ele>449.0</ele><time>2026-05-01T08:39:55Z</time></trkpt><trkpt lat="43.48835424536632" lon="10.940907209290533"><ele>450.75</ele><time>2026-05-01T08:39:56Z</time></trkpt><trkpt lat="43.4882540274172" lon="10.941016989110706"><ele>452.5</ele><time>2026-05-01T08:39:57Z</time></trkpt><trkpt lat="43.48818442187753" lon="10.94118119966877"><ele>454.25</ele><time>2026-05-01T08:39:58Z</time></trkpt><trkpt lat="43.48813653268073" lon="10.941384205076524"><ele>456.0</ele><time>2026-05-01T08:39:59Z</time></trkpt><trkpt lat="43.48809319763706" lon="10.941620777780976"><ele>457.66666666666663</ele><time>2026-05-01T08:40:00Z</time></trkpt><trkpt lat="43.488047449020605" lon="10.941861492760376"><ele>459.3333333333333</ele><time>2026-05-01T08:40:01Z</time></trkpt><trkpt lat="43.48799648842013" lon="10.942087901785005"><ele>461.0</ele><time>2026-05-01T08:40:02Z</time></trkpt><trkpt lat="43.487931835510395" lon="10.942300275528366"><ele>460.3333333333333</ele><time>2026-05-01T08:40:03Z</time></trkpt><trkpt lat="43.487836091569555" lon="10.94248579622178"><ele>459.66666666666663</ele><time>2026-05-01T08:40:04Z</time></trkpt><trkpt lat="43.48770496866547" lon="10.942661860581628"><ele>459.0</ele><time>2026-05-01T08:40:05Z</time></trkpt><trkpt lat="43.487548797504495" lon="10.94285067831448"><ele>459.0</ele><time>2026-05-01T08:40:06Z</time></trkpt><trkpt lat="43.48739318333359" lon="10.943038963504005"><ele>459.0</ele><time>2026-05-01T08:40:07Z</time></trkpt><trkpt lat="43.48725777861162" lon="10.943203797958981"><ele>459.0</ele><time>2026-05-01T08:40:08Z</time></trkpt><trkpt lat="43.487151744873586" lon="10.943343674796195"><ele>453.66666666666663</ele><time>2026-05-01T08:40:09Z</time></trkpt><trkpt lat="43.4870621135358" lon="10.943502513570195"><ele>448.3333333333333</ele><time>2026-05-01T08:40:10Z</time></trkpt><trkpt lat="43.48698966963445" lon="10.943713656178245"><ele>443.0</ele><time>2026-05-01T08:40:11Z</time></trkpt><trkpt lat="43.48692291100057" lon="10.943962213596302"><ele>443.0</ele><time>2026-05-01T08:40:12Z</time></trkpt><trkpt lat="43.48685491327876" lon="10.944230606880394"><ele>443.0</ele><time>2026-05-01T08:40:13Z</time></trkpt><trkpt lat="43.48678281321384" lon="10.944515192534327"><ele>443.0</ele><time>2026-05-01T08:40:14Z</time></trkpt><trkpt lat="43.486713244677944" lon="10.944788790912579"><ele>443.0</ele><time>2026-05-01T08:40:15Z</time></trkpt><trkpt lat="43.48663873502829" lon="10.945037610460883"><ele>443.0</ele><time>2026-05-01T08:40:16Z</time></trkpt><trkpt lat="43.48655176502152" lon="10.945256987042526"><ele>443.0</ele><time>2026-05-01T08:40:17Z</time></trkpt><trkpt lat="43.4864334888369" lon="10.945449558287766"><ele>443.0</ele><time>2026-05-01T08:40:18Z</time></trkpt><trkpt lat="43.48628609474837" lon="10.94565135444526"><ele>443.0</ele><time>2026-05-01T08:40:19Z</time></trkpt><trkpt lat="43.48613846627459" lon="10.945852665790001"><ele>443.0</ele><time>2026-05-01T08:40:20Z</time></trkpt><trkpt lat="43.48600454250892" lon="10.946054506320552"><ele>443.0</ele><time>2026-05-01T08:40:20.999Z</time></trkpt><trkpt lat="43.48590030878751" lon="10.946268505802202"><ele>443.0</ele><time>2026-05-01T08:40:21.999Z</time></trkpt><trkpt lat="43.48582989160112" lon="10.946497062281516"><ele>443.0</ele><time>2026-05-01T08:40:22.999Z</time></trkpt><trkpt lat="43.48576535760856" lon="10.946743238939042"><ele>443.3333333333333</ele><time>2026-05-01T08:40:23.999Z</time></trkpt><trkpt lat="43.4856997959877" lon="10.946993335509847"><ele>443.66666666666663</ele><time>2026-05-01T08:40:24.999Z</time></trkpt><trkpt lat="43.48563985732144" lon="10.947221442130934"><ele>444.0</ele><time>2026-05-01T08:40:25.999Z</time></trkpt><trkpt lat="43.48558579422991" lon="10.947426931786039"><ele>444.0</ele><time>2026-05-01T08:40:26.999Z</time></trkpt><trkpt lat="43.48553393924694" lon="10.947620416412978"><ele>444.0</ele><time>2026-05-01T08:40:27.999Z</time></trkpt><trkpt lat="43.485485091905446" lon="10.947801341598955"><ele>444.0</ele><time>2026-05-01T08:40:28.999Z</time></trkpt><trkpt lat="43.48545475664694" lon="10.947984969498197"><ele>444.0</ele><time>2026-05-01T08:40:29.999Z</time></trkpt><trkpt lat="43.4854057996367" lon="10.948176888679122"><ele>442.0</ele><time>2026-05-01T08:40:30.999Z</time></trkpt><trkpt lat="43.4853691431741" lon="10.948385639047167"><ele>440.0</ele><time>2026-05-01T08:40:31.999Z</time></trkpt><trkpt lat="43.48535025177913" lon="10.948607423275334"><ele>438.0</ele><time>2026-05-01T08:40:32.999Z</time></trkpt><trkpt lat="43.485343586651496" lon="10.948818426369433"><ele>438.0</ele><time>2026-05-01T08:40:33.999Z</time></trkpt><trkpt lat="43.48534838934629" lon="10.949017065046434"><ele>438.0</ele><time>2026-05-01T08:40:34.999Z</time></trkpt><trkpt lat="43.485360400283774" lon="10.949197286964823"><ele>438.0</ele><time>2026-05-01T08:40:35.999Z</time></trkpt><trkpt lat="43.485371737956044" lon="10.949360816349582"><ele>438.0</ele><time>2026-05-01T08:40:36.999Z</time></trkpt><trkpt lat="43.485384868234405" lon="10.949513927178035"><ele>439.59999999999997</ele><time>2026-05-01T08:40:37.999Z</time></trkpt><trkpt lat="43.48539786038393" lon="10.949673968532604"><ele>441.19999999999993</ele><time>2026-05-01T08:40:38.999Z</time></trkpt><trkpt lat="43.48538559933757" lon="10.94983464320644"><ele>442.8</ele><time>2026-05-01T08:40:39.999Z</time></trkpt><trkpt lat="43.48538407773375" lon="10.94998571911632"><ele>444.4</ele><time>2026-05-01T08:40:40.999Z</time></trkpt><trkpt lat="43.48532479071408" lon="10.950105023857223"><ele>446.0</ele><time>2026-05-01T08:40:41.999Z</time></trkpt><trkpt lat="43.48525261835999" lon="10.950209175284577"><ele>448.49999999999994</ele><time>2026-05-01T08:40:42.999Z</time></trkpt><trkpt lat="43.48516382370849" lon="10.950273713570628"><ele>451.0</ele><time>2026-05-01T08:40:43.999Z</time></trkpt><trkpt lat="43.48507695316908" lon="10.950317667049397"><ele>453.5</ele><time>2026-05-01T08:40:44.999Z</time></trkpt><trkpt lat="43.48500385665535" lon="10.950366294907445"><ele>456.0</ele><time>2026-05-01T08:40:45.999Z</time></trkpt><trkpt lat="43.48493563390122" lon="10.950405482165639"><ele>458.49999999999994</ele><time>2026-05-01T08:40:46.999Z</time></trkpt><trkpt lat="43.484864516287324" lon="10.950460016116454"><ele>461.0</ele><time>2026-05-01T08:40:47.999Z</time></trkpt><trkpt lat="43.484827463739414" lon="10.950550294767107"><ele>460.99999999999994</ele><time>2026-05-01T08:40:48.999Z</time></trkpt><trkpt lat="43.48480948002004" lon="10.95065800718536"><ele>461.0</ele><time>2026-05-01T08:40:49.999Z</time></trkpt><trkpt lat="43.48481236148621" lon="10.950762091213909"><ele>461.0</ele><time>2026-05-01T08:40:50.999Z</time></trkpt><trkpt lat="43.484818674498975" lon="10.950862937961631"><ele>461.0</ele><time>2026-05-01T08:40:51.999Z</time></trkpt><trkpt lat="43.4848266264525" lon="10.95096550268111"><ele>460.99999999999994</ele><time>2026-05-01T08:40:52.999Z</time></trkpt><trkpt lat="43.484836293695125" lon="10.951070799276067"><ele>461.0</ele><time>2026-05-01T08:40:53.999Z</time></trkpt><trkpt lat="43.484844852921206" lon="10.951182375901993"><ele>460.99999999999994</ele><time>2026-05-01T08:40:54.999Z</time></trkpt><trkpt lat="43.48485242861319" lon="10.951297694713935"><ele>461.0</ele><time>2026-05-01T08:40:55.999Z</time></trkpt><trkpt lat="43.48485736029568" lon="10.951411498260684"><ele>461.0</ele><time>2026-05-01T08:40:56.999Z</time></trkpt><trkpt lat="43.48485341227546" lon="10.951520467019828"><ele>461.0</ele><time>2026-05-01T08:40:57.999Z</time></trkpt><trkpt lat="43.484831129951445" lon="10.951621592567683"><ele>460.99999999999994</ele><time>2026-05-01T08:40:58.999Z</time></trkpt><trkpt lat="43.48479722908979" lon="10.951723811873343"><ele>461.0</ele><time>2026-05-01T08:40:59.999Z</time></trkpt><trkpt lat="43.48475313436433" lon="10.951830015554915"><ele>461.0</ele><time>2026-05-01T08:41:00.999Z</time></trkpt><trkpt lat="43.484706905455845" lon="10.951934633551675"><ele>461.0</ele><time>2026-05-01T08:41:01.999Z</time></trkpt><trkpt lat="43.48465568146256" lon="10.952046549731346"><ele>461.0</ele><time>2026-05-01T08:41:02.999Z</time></trkpt><trkpt lat="43.484603438640086" lon="10.952160691918007"><ele>461.0</ele><time>2026-05-01T08:41:03.999Z</time></trkpt><trkpt lat="43.484547950878486" lon="10.952279361998292"><ele>461.0</ele><time>2026-05-01T08:41:04.999Z</time></trkpt><trkpt lat="43.48448912559519" lon="10.952399829828451"><ele>461.6</ele><time>2026-05-01T08:41:05.999Z</time></trkpt><trkpt lat="43.4844307140488" lon="10.952508106347945"><ele>462.20000000000005</ele><time>2026-05-01T08:41:06.999Z</time></trkpt><trkpt lat="43.48435875080341" lon="10.952615052179295"><ele>462.79999999999995</ele><time>2026-05-01T08:41:07.999Z</time></trkpt><trkpt lat="43.48427169587769" lon="10.952699539369936"><ele>463.4</ele><time>2026-05-01T08:41:08.999Z</time></trkpt><trkpt lat="43.484171801337624" lon="10.952729887275188"><ele>464.0</ele><time>2026-05-01T08:41:09.999Z</time></trkpt><trkpt lat="43.48406542260012" lon="10.952772100056944"><ele>464.5</ele><time>2026-05-01T08:41:10.998Z</time></trkpt><trkpt lat="43.483961777959706" lon="10.952782229344363"><ele>465.0</ele><time>2026-05-01T08:41:11.998Z</time></trkpt><trkpt lat="43.48385206636145" lon="10.952769893446167"><ele>465.5</ele><time>2026-05-01T08:41:12.998Z</time></trkpt><trkpt lat="43.48372988184661" lon="10.952780622630618"><ele>466.0</ele><time>2026-05-01T08:41:13.998Z</time></trkpt><trkpt lat="43.4836058991938" lon="10.952791165155201"><ele>466.0</ele><time>2026-05-01T08:41:14.998Z</time></trkpt><trkpt lat="43.48348160845894" lon="10.95280003392212"><ele>466.0</ele><time>2026-05-01T08:41:15.998Z</time></trkpt><trkpt lat="43.48335875991777" lon="10.952808799796232"><ele>466.0</ele><time>2026-05-01T08:41:16.998Z</time></trkpt><trkpt lat="43.483236287178414" lon="10.952817538831058"><ele>466.0</ele><time>2026-05-01T08:41:17.998Z</time></trkpt><trkpt lat="43.4831110631095" lon="10.952826474212042"><ele>466.0</ele><time>2026-05-01T08:41:18.998Z</time></trkpt><trkpt lat="43.48298469385783" lon="10.952835992556324"><ele>466.0</ele><time>2026-05-01T08:41:19.998Z</time></trkpt><trkpt lat="43.48285754179568" lon="10.952846142304496"><ele>466.0</ele><time>2026-05-01T08:41:20.998Z</time></trkpt><trkpt lat="43.482725292180746" lon="10.952856698933086"><ele>466.0</ele><time>2026-05-01T08:41:21.998Z</time></trkpt><trkpt lat="43.4825933265439" lon="10.952867320222838"><ele>467.75</ele><time>2026-05-01T08:41:22.998Z</time></trkpt><trkpt lat="43.48246505712685" lon="10.952872833257478"><ele>469.5</ele><time>2026-05-01T08:41:23.998Z</time></trkpt><trkpt lat="43.48234752116062" lon="10.952859704016685"><ele>471.25</ele><time>2026-05-01T08:41:24.998Z</time></trkpt><trkpt lat="43.48224356589694" lon="10.952807344120577"><ele>473.0</ele><time>2026-05-01T08:41:25.998Z</time></trkpt><trkpt lat="43.48214555784438" lon="10.95274221733108"><ele>472.3333333333333</ele><time>2026-05-01T08:41:26.998Z</time></trkpt><trkpt lat="43.482058996182616" lon="10.952671716567046"><ele>471.66666666666663</ele><time>2026-05-01T08:41:27.998Z</time></trkpt><trkpt lat="43.481973298538215" lon="10.952637044243708"><ele>471.0</ele><time>2026-05-01T08:41:28.998Z</time></trkpt><trkpt lat="43.48189744256978" lon="10.952588835694993"><ele>470.33333333333337</ele><time>2026-05-01T08:41:29.998Z</time></trkpt><trkpt lat="43.48181470936125" lon="10.952593965186406"><ele>469.6666666666667</ele><time>2026-05-01T08:41:30.998Z</time></trkpt><trkpt lat="43.48172539308196" lon="10.95262946755149"><ele>469.0</ele><time>2026-05-01T08:41:31.998Z</time></trkpt><trkpt lat="43.481638767508535" lon="10.952703845906344"><ele>469.0</ele><time>2026-05-01T08:41:32.998Z</time></trkpt><trkpt lat="43.481563390746665" lon="10.952805155792142"><ele>469.0</ele><time>2026-05-01T08:41:33.998Z</time></trkpt><trkpt lat="43.481490146083836" lon="10.952910592851607"><ele>469.0</ele><time>2026-05-01T08:41:34.998Z</time></trkpt><trkpt lat="43.48141760284471" lon="10.953013470965145"><ele>469.0</ele><time>2026-05-01T08:41:35.998Z</time></trkpt><trkpt lat="43.48134020305505" lon="10.953115892835683"><ele>469.0</ele><time>2026-05-01T08:41:36.998Z</time></trkpt><trkpt lat="43.48126055327982" lon="10.953208668619801"><ele>469.0</ele><time>2026-05-01T08:41:37.998Z</time></trkpt><trkpt lat="43.481173161143026" lon="10.953293042181661"><ele>469.0</ele><time>2026-05-01T08:41:38.998Z</time></trkpt><trkpt lat="43.4810815632715" lon="10.95336513732902"><ele>469.0</ele><time>2026-05-01T08:41:39.998Z</time></trkpt><trkpt lat="43.48098992709749" lon="10.953436956978935"><ele>469.0</ele><time>2026-05-01T08:41:40.998Z</time></trkpt><trkpt lat="43.48090190955063" lon="10.953510841051425"><ele>469.0</ele><time>2026-05-01T08:41:41.998Z</time></trkpt><trkpt lat="43.48082315383756" lon="10.953596312378194"><ele>469.0</ele><time>2026-05-01T08:41:42.998Z</time></trkpt><trkpt lat="43.48075839216627" lon="10.953693096758622"><ele>469.0</ele><time>2026-05-01T08:41:43.998Z</time></trkpt><trkpt lat="43.480715924850465" lon="10.953810398218344"><ele>469.0</ele><time>2026-05-01T08:41:44.998Z</time></trkpt><trkpt lat="43.48070722485072" lon="10.953954214269514"><ele>469.0</ele><time>2026-05-01T08:41:45.998Z</time></trkpt><trkpt lat="43.48069267208096" lon="10.954072253198406"><ele>469.0</ele><time>2026-05-01T08:41:46.998Z</time></trkpt><trkpt lat="43.48067840945346" lon="10.954187939069028"><ele>468.75</ele><time>2026-05-01T08:41:47.998Z</time></trkpt><trkpt lat="43.48066202408075" lon="10.954323688270037"><ele>468.5</ele><time>2026-05-01T08:41:48.998Z</time></trkpt><trkpt lat="43.480648076418746" lon="10.954491998353364"><ele>468.25</ele><time>2026-05-01T08:41:49.998Z</time></trkpt><trkpt lat="43.48064053796648" lon="10.954683439446878"><ele>468.0</ele><time>2026-05-01T08:41:50.998Z</time></trkpt><trkpt lat="43.48063387632235" lon="10.954870813557768"><ele>466.75</ele><time>2026-05-01T08:41:51.998Z</time></trkpt><trkpt lat="43.48062712518396" lon="10.95506589095932"><ele>465.5</ele><time>2026-05-01T08:41:52.998Z</time></trkpt><trkpt lat="43.480620819648244" lon="10.95525850928821"><ele>464.25</ele><time>2026-05-01T08:41:53.998Z</time></trkpt><trkpt lat="43.4806148372501" lon="10.955441256922924"><ele>463.0</ele><time>2026-05-01T08:41:54.998Z</time></trkpt><trkpt lat="43.480608613877045" lon="10.955631365416926"><ele>463.0</ele><time>2026-05-01T08:41:55.998Z</time></trkpt><trkpt lat="43.48060263706796" lon="10.955815983676594"><ele>463.0</ele><time>2026-05-01T08:41:57Z</time></trkpt><trkpt lat="43.48059850283595" lon="10.956007664076544"><ele>463.0</ele><time>2026-05-01T08:41:58Z</time></trkpt><trkpt lat="43.480600653745775" lon="10.956196989819968"><ele>463.0</ele><time>2026-05-01T08:41:59Z</time></trkpt><trkpt lat="43.48061798276173" lon="10.956396606100832"><ele>462.33333333333337</ele><time>2026-05-01T08:42:00Z</time></trkpt><trkpt lat="43.48064767522807" lon="10.956613968555182"><ele>461.66666666666663</ele><time>2026-05-01T08:42:01Z</time></trkpt><trkpt lat="43.48068692379966" lon="10.956873449921684"><ele>461.0</ele><time>2026-05-01T08:42:02Z</time></trkpt><trkpt lat="43.480735930785215" lon="10.957186524422212"><ele>458.0</ele><time>2026-05-01T08:42:03Z</time></trkpt><trkpt lat="43.48078904016033" lon="10.95752798711543"><ele>455.0</ele><time>2026-05-01T08:42:04Z</time></trkpt><trkpt lat="43.48085191937303" lon="10.957849650405368"><ele>454.3333333333333</ele><time>2026-05-01T08:42:05Z</time></trkpt><trkpt lat="43.48090243707351" lon="10.958151923181672"><ele>453.66666666666663</ele><time>2026-05-01T08:42:06Z</time></trkpt><trkpt lat="43.4809328237118" lon="10.958433907737687"><ele>453.0</ele><time>2026-05-01T08:42:07Z</time></trkpt><trkpt lat="43.480976914954965" lon="10.958695502776324"><ele>453.0</ele><time>2026-05-01T08:42:08Z</time></trkpt><trkpt lat="43.481039043998166" lon="10.958943013233874"><ele>453.0</ele><time>2026-05-01T08:42:09Z</time></trkpt><trkpt lat="43.48109391198061" lon="10.959188135677174"><ele>453.0</ele><time>2026-05-01T08:42:10Z</time></trkpt><trkpt lat="43.48113477516457" lon="10.959420932978302"><ele>452.66666666666663</ele><time>2026-05-01T08:42:11Z</time></trkpt><trkpt lat="43.48118817316422" lon="10.959632642686625"><ele>452.3333333333333</ele><time>2026-05-01T08:42:12Z</time></trkpt><trkpt lat="43.48125264863199" lon="10.959827139373996"><ele>452.0</ele><time>2026-05-01T08:42:13Z</time></trkpt><trkpt lat="43.48129658405444" lon="10.960011107924556"><ele>452.75</ele><time>2026-05-01T08:42:14Z</time></trkpt><trkpt lat="43.481342866483445" lon="10.960177884534424"><ele>453.5</ele><time>2026-05-01T08:42:15Z</time></trkpt><trkpt lat="43.4813952207594" lon="10.960329974790447"><ele>454.25</ele><time>2026-05-01T08:42:16Z</time></trkpt><trkpt lat="43.4814610644181" lon="10.9604723480465"><ele>455.0</ele><time>2026-05-01T08:42:17Z</time></trkpt><trkpt lat="43.48153139697161" lon="10.960588189803175"><ele>454.99999999999994</ele><time>2026-05-01T08:42:18Z</time></trkpt><trkpt lat="43.481597694523465" lon="10.960679593911337"><ele>455.0</ele><time>2026-05-01T08:42:19Z</time></trkpt><trkpt lat="43.48166143249503" lon="10.960757815116835"><ele>455.0</ele><time>2026-05-01T08:42:20Z</time></trkpt><trkpt lat="43.48172338613155" lon="10.960824917218421"><ele>455.0</ele><time>2026-05-01T08:42:21Z</time></trkpt><trkpt lat="43.481785783893265" lon="10.960890290481297"><ele>454.99999999999994</ele><time>2026-05-01T08:42:22Z</time></trkpt><trkpt lat="43.481853139617314" lon="10.960956066393987"><ele>455.0</ele><time>2026-05-01T08:42:23Z</time></trkpt><trkpt lat="43.48193145147075" lon="10.961031051409684"><ele>455.4</ele><time>2026-05-01T08:42:24Z</time></trkpt><trkpt lat="43.48200875779027" lon="10.961110198874461"><ele>455.8</ele><time>2026-05-01T08:42:25Z</time></trkpt><trkpt lat="43.48208705919782" lon="10.961191703858107"><ele>456.20000000000005</ele><time>2026-05-01T08:42:26Z</time></trkpt><trkpt lat="43.48216318567902" lon="10.961273881482855"><ele>456.6</ele><time>2026-05-01T08:42:27Z</time></trkpt><trkpt lat="43.48223529821533" lon="10.961359409561094"><ele>457.0</ele><time>2026-05-01T08:42:28Z</time></trkpt><trkpt lat="43.482316435555354" lon="10.961459999181683"><ele>457.0</ele><time>2026-05-01T08:42:29Z</time></trkpt><trkpt lat="43.48240511188962" lon="10.961568391265512"><ele>457.0</ele><time>2026-05-01T08:42:30Z</time></trkpt><trkpt lat="43.48249874402815" lon="10.96167672553906"><ele>457.0</ele><time>2026-05-01T08:42:31Z</time></trkpt><trkpt lat="43.4826057252487" lon="10.961794820810567"><ele>457.0</ele><time>2026-05-01T08:42:32Z</time></trkpt><trkpt lat="43.48272565237988" lon="10.9619667021992"><ele>456.33333333333337</ele><time>2026-05-01T08:42:32.999Z</time></trkpt><trkpt lat="43.482874017233534" lon="10.962145321608093"><ele>455.66666666666663</ele><time>2026-05-01T08:42:33.999Z</time></trkpt><trkpt lat="43.483047074521416" lon="10.962335305540693"><ele>455.0</ele><time>2026-05-01T08:42:34.999Z</time></trkpt><trkpt lat="43.48321153263699" lon="10.962551073148742"><ele>451.66666666666663</ele><time>2026-05-01T08:42:35.999Z</time></trkpt><trkpt lat="43.48338158734209" lon="10.96275809228721"><ele>448.33333333333337</ele><time>2026-05-01T08:42:36.999Z</time></trkpt><trkpt lat="43.48354507134793" lon="10.962952011266115"><ele>445.0</ele><time>2026-05-01T08:42:37.999Z</time></trkpt><trkpt lat="43.48370508644976" lon="10.963162541633023"><ele>443.5</ele><time>2026-05-01T08:42:38.999Z</time></trkpt><trkpt lat="43.48385780147866" lon="10.963393938513763"><ele>442.0</ele><time>2026-05-01T08:42:39.999Z</time></trkpt><trkpt lat="43.48400131232808" lon="10.963657456605272"><ele>442.0</ele><time>2026-05-01T08:42:40.999Z</time></trkpt><trkpt lat="43.48412944249712" lon="10.963926603934354"><ele>442.0</ele><time>2026-05-01T08:42:41.999Z</time></trkpt><trkpt lat="43.48424923520513" lon="10.9641680998787"><ele>442.0</ele><time>2026-05-01T08:42:42.999Z</time></trkpt><trkpt lat="43.484366455990795" lon="10.96438723650484"><ele>440.33333333333337</ele><time>2026-05-01T08:42:43.999Z</time></trkpt><trkpt lat="43.48447602726385" lon="10.964616543421885"><ele>438.66666666666663</ele><time>2026-05-01T08:42:44.999Z</time></trkpt><trkpt lat="43.48458260768719" lon="10.964844240953758"><ele>437.0</ele><time>2026-05-01T08:42:45.999Z</time></trkpt><trkpt lat="43.484684467110235" lon="10.965037678422403"><ele>436.0</ele><time>2026-05-01T08:42:46.999Z</time></trkpt><trkpt lat="43.484770765323425" lon="10.965198779638218"><ele>435.0</ele><time>2026-05-01T08:42:47.999Z</time></trkpt><trkpt lat="43.484845059053455" lon="10.96534755761988"><ele>434.0</ele><time>2026-05-01T08:42:48.999Z</time></trkpt><trkpt lat="43.48490987407145" lon="10.96548245517437"><ele>433.0</ele><time>2026-05-01T08:42:49.999Z</time></trkpt><trkpt lat="43.48496446599533" lon="10.96561564612985"><ele>433.0</ele><time>2026-05-01T08:42:50.999Z</time></trkpt><trkpt lat="43.48500514626953" lon="10.965758775682767"><ele>433.0</ele><time>2026-05-01T08:42:51.999Z</time></trkpt><trkpt lat="43.48500946869549" lon="10.96592974706849"><ele>433.0</ele><time>2026-05-01T08:42:52.999Z</time></trkpt><trkpt lat="43.485004585983376" lon="10.966109567564207"><ele>433.0</ele><time>2026-05-01T08:42:53.999Z</time></trkpt><trkpt lat="43.48497286381524" lon="10.966288166718638"><ele>431.5</ele><time>2026-05-01T08:42:54.999Z</time></trkpt><trkpt lat="43.484940907527736" lon="10.966468265184774"><ele>430.0</ele><time>2026-05-01T08:42:55.999Z</time></trkpt><trkpt lat="43.48490991613735" lon="10.966642925861729"><ele>428.5</ele><time>2026-05-01T08:42:56.999Z</time></trkpt><trkpt lat="43.48487768073807" lon="10.966824263047164"><ele>427.0</ele><time>2026-05-01T08:42:57.999Z</time></trkpt><trkpt lat="43.48484502200122" lon="10.966997079657455"><ele>426.25</ele><time>2026-05-01T08:42:58.999Z</time></trkpt><trkpt lat="43.48481624585235" lon="10.967155367825637"><ele>425.5</ele><time>2026-05-01T08:42:59.999Z</time></trkpt><trkpt lat="43.48479095044335" lon="10.967306363028193"><ele>424.75</ele><time>2026-05-01T08:43:00.999Z</time></trkpt><trkpt lat="43.48477498988063" lon="10.967470308804412"><ele>424.0</ele><time>2026-05-01T08:43:01.999Z</time></trkpt><trkpt lat="43.48477214979148" lon="10.967641676423524"><ele>423.5</ele><time>2026-05-01T08:43:02.999Z</time></trkpt><trkpt lat="43.484784360630805" lon="10.967821159273424"><ele>423.0</ele><time>2026-05-01T08:43:03.999Z</time></trkpt><trkpt lat="43.484829581316546" lon="10.967999108267364"><ele>422.5</ele><time>2026-05-01T08:43:04.999Z</time></trkpt><trkpt lat="43.48486779868421" lon="10.968176485984532"><ele>422.0</ele><time>2026-05-01T08:43:05.999Z</time></trkpt><trkpt lat="43.484914888049126" lon="10.968346272528127"><ele>421.75</ele><time>2026-05-01T08:43:06.999Z</time></trkpt><trkpt lat="43.48494864127541" lon="10.968529066236044"><ele>421.5</ele><time>2026-05-01T08:43:07.999Z</time></trkpt><trkpt lat="43.48499544998307" lon="10.968708727224525"><ele>421.25</ele><time>2026-05-01T08:43:08.999Z</time></trkpt><trkpt lat="43.485043010886834" lon="10.968893855019154"><ele>421.0</ele><time>2026-05-01T08:43:09.999Z</time></trkpt><trkpt lat="43.485090565231154" lon="10.9690789571429"><ele>420.5</ele><time>2026-05-01T08:43:10.999Z</time></trkpt><trkpt lat="43.485136667854384" lon="10.969258409036968"><ele>420.0</ele><time>2026-05-01T08:43:11.999Z</time></trkpt><trkpt lat="43.48519531646369" lon="10.969435415912528"><ele>419.5</ele><time>2026-05-01T08:43:12.999Z</time></trkpt><trkpt lat="43.485242608911676" lon="10.969616127669944"><ele>419.0</ele><time>2026-05-01T08:43:13.999Z</time></trkpt><trkpt lat="43.485289425855534" lon="10.969795062882381"><ele>419.0</ele><time>2026-05-01T08:43:14.999Z</time></trkpt><trkpt lat="43.48533789370921" lon="10.969974776091947"><ele>419.0</ele><time>2026-05-01T08:43:15.999Z</time></trkpt><trkpt lat="43.48539048476575" lon="10.970154926820303"><ele>419.0</ele><time>2026-05-01T08:43:16.999Z</time></trkpt><trkpt lat="43.485430229402304" lon="10.970348009901054"><ele>419.0</ele><time>2026-05-01T08:43:17.999Z</time></trkpt><trkpt lat="43.485488045322064" lon="10.970529759931873"><ele>418.75</ele><time>2026-05-01T08:43:18.999Z</time></trkpt><trkpt lat="43.485546002531756" lon="10.970708519198341"><ele>418.5</ele><time>2026-05-01T08:43:19.999Z</time></trkpt><trkpt lat="43.4856046833306" lon="10.970889510714555"><ele>418.25</ele><time>2026-05-01T08:43:20.999Z</time></trkpt><trkpt lat="43.485662835963566" lon="10.971068982574325"><ele>418.0</ele><time>2026-05-01T08:43:21.999Z</time></trkpt><trkpt lat="43.4857345105014" lon="10.971246716779739"><ele>418.0</ele><time>2026-05-01T08:43:22.998Z</time></trkpt><trkpt lat="43.485795880192626" lon="10.97143828987934"><ele>418.0</ele><time>2026-05-01T08:43:23.998Z</time></trkpt><trkpt lat="43.48585798450212" lon="10.971628428331211"><ele>418.0</ele><time>2026-05-01T08:43:24.998Z</time></trkpt><trkpt lat="43.48592220130849" lon="10.971823281370492"><ele>416.0</ele><time>2026-05-01T08:43:25.998Z</time></trkpt><trkpt lat="43.485985239086865" lon="10.972022530203686"><ele>414.0</ele><time>2026-05-01T08:43:26.998Z</time></trkpt><trkpt lat="43.48604914350791" lon="10.97222038113536"><ele>412.0</ele><time>2026-05-01T08:43:27.998Z</time></trkpt><trkpt lat="43.48610800409756" lon="10.97240311573598"><ele>412.75</ele><time>2026-05-01T08:43:28.998Z</time></trkpt><trkpt lat="43.48615847887108" lon="10.972575774930906"><ele>413.5</ele><time>2026-05-01T08:43:29.998Z</time></trkpt><trkpt lat="43.48620721270594" lon="10.972726207829409"><ele>414.25</ele><time>2026-05-01T08:43:30.998Z</time></trkpt><trkpt lat="43.486252738009995" lon="10.972854249799717"><ele>415.0</ele><time>2026-05-01T08:43:31.998Z</time></trkpt><trkpt lat="43.48626984218057" lon="10.972978990853425"><ele>416.0</ele><time>2026-05-01T08:43:32.998Z</time></trkpt><trkpt lat="43.48629592153604" lon="10.973094756968024"><ele>417.0</ele><time>2026-05-01T08:43:33.998Z</time></trkpt><trkpt lat="43.48631319060221" lon="10.973217093767069"><ele>418.0</ele><time>2026-05-01T08:43:34.998Z</time></trkpt><trkpt lat="43.48632442066867" lon="10.97334347453617"><ele>419.0</ele><time>2026-05-01T08:43:35.998Z</time></trkpt><trkpt lat="43.48632416152419" lon="10.973476859795442"><ele>420.0</ele><time>2026-05-01T08:43:36.998Z</time></trkpt><trkpt lat="43.48631568707363" lon="10.973594258883708"><ele>420.8333333333333</ele><time>2026-05-01T08:43:37.998Z</time></trkpt><trkpt lat="43.4863057870951" lon="10.973705527640476"><ele>421.66666666666663</ele><time>2026-05-01T08:43:38.998Z</time></trkpt><trkpt lat="43.48629428089775" lon="10.973807091598637"><ele>422.5</ele><time>2026-05-01T08:43:39.998Z</time></trkpt><trkpt lat="43.48628332408226" lon="10.973906139961345"><ele>423.3333333333333</ele><time>2026-05-01T08:43:40.998Z</time></trkpt><trkpt lat="43.48627120125526" lon="10.974011884556804"><ele>424.16666666666663</ele><time>2026-05-01T08:43:41.998Z</time></trkpt><trkpt lat="43.48625844085165" lon="10.974124547694128"><ele>425.0</ele><time>2026-05-01T08:43:42.998Z</time></trkpt><trkpt lat="43.486245503250125" lon="10.974238775279346"><ele>425.8333333333333</ele><time>2026-05-01T08:43:43.998Z</time></trkpt><trkpt lat="43.48623201627271" lon="10.974357853332984"><ele>426.66666666666663</ele><time>2026-05-01T08:43:44.998Z</time></trkpt><trkpt lat="43.48621941100581" lon="10.974471289518004"><ele>427.5</ele><time>2026-05-01T08:43:45.998Z</time></trkpt><trkpt lat="43.4862080654528" lon="10.974575020324735"><ele>428.33333333333337</ele><time>2026-05-01T08:43:46.998Z</time></trkpt><trkpt lat="43.486197754100736" lon="10.9746692956763"><ele>429.1666666666667</ele><time>2026-05-01T08:43:47.998Z</time></trkpt><trkpt lat="43.48618731850389" lon="10.974764706799936"><ele>430.0</ele><time>2026-05-01T08:43:48.998Z</time></trkpt><trkpt lat="43.48617936414503" lon="10.974862630192773"><ele>430.00000000000006</ele><time>2026-05-01T08:43:49.998Z</time></trkpt><trkpt lat="43.48617346868706" lon="10.974964671756215"><ele>430.0</ele><time>2026-05-01T08:43:50.998Z</time></trkpt><trkpt lat="43.486171024084264" lon="10.97507427917122"><ele>430.0</ele><time>2026-05-01T08:43:51.998Z</time></trkpt><trkpt lat="43.48620254680963" lon="10.975195260594313"><ele>430.0</ele><time>2026-05-01T08:43:52.998Z</time></trkpt><trkpt lat="43.48621880303384" lon="10.975319293894264"><ele>430.00000000000006</ele><time>2026-05-01T08:43:53.998Z</time></trkpt><trkpt lat="43.48624234659981" lon="10.975448604856721"><ele>430.0</ele><time>2026-05-01T08:43:54.998Z</time></trkpt><trkpt lat="43.48626523963256" lon="10.975577827137226"><ele>434.0</ele><time>2026-05-01T08:43:55.998Z</time></trkpt><trkpt lat="43.48627004356762" lon="10.975713949894997"><ele>438.0</ele><time>2026-05-01T08:43:56.998Z</time></trkpt><trkpt lat="43.486295310052164" lon="10.97584180170175"><ele>442.0</ele><time>2026-05-01T08:43:57.998Z</time></trkpt><trkpt lat="43.48632021005489" lon="10.975967799077607"><ele>446.0</ele><time>2026-05-01T08:43:58.998Z</time></trkpt><trkpt lat="43.486345140326364" lon="10.976093949653295"><ele>450.0</ele><time>2026-05-01T08:43:59.998Z</time></trkpt><trkpt lat="43.48637135312107" lon="10.976223336062576"><ele>450.0</ele><time>2026-05-01T08:44:00.998Z</time></trkpt><trkpt lat="43.486397305380336" lon="10.976349880534977"><ele>450.0</ele><time>2026-05-01T08:44:01.998Z</time></trkpt><trkpt lat="43.48642593386304" lon="10.976480858637998"><ele>450.0</ele><time>2026-05-01T08:44:03Z</time></trkpt><trkpt lat="43.48645976191855" lon="10.976617938503603"><ele>450.0</ele><time>2026-05-01T08:44:04Z</time></trkpt><trkpt lat="43.48651702270943" lon="10.976740455474832"><ele>450.0</ele><time>2026-05-01T08:44:05Z</time></trkpt><trkpt lat="43.48656727804962" lon="10.97686130663501"><ele>448.6</ele><time>2026-05-01T08:44:06Z</time></trkpt><trkpt lat="43.486610965351176" lon="10.976987477487377"><ele>447.2</ele><time>2026-05-01T08:44:07Z</time></trkpt><trkpt lat="43.48666756864523" lon="10.977101699180546"><ele>445.79999999999995</ele><time>2026-05-01T08:44:08Z</time></trkpt><trkpt lat="43.4867273376271" lon="10.97721958634016"><ele>444.4</ele><time>2026-05-01T08:44:09Z</time></trkpt><trkpt lat="43.486798403459446" lon="10.977331585499753"><ele>443.0</ele><time>2026-05-01T08:44:10Z</time></trkpt><trkpt lat="43.4868550159512" lon="10.977456359830905"><ele>442.79999999999995</ele><time>2026-05-01T08:44:11Z</time></trkpt><trkpt lat="43.48691743686308" lon="10.977583045249707"><ele>442.59999999999997</ele><time>2026-05-01T08:44:12Z</time></trkpt><trkpt lat="43.486978115036145" lon="10.977710054759994"><ele>442.40000000000003</ele><time>2026-05-01T08:44:13Z</time></trkpt><trkpt lat="43.48704218286409" lon="10.977829938892791"><ele>442.20000000000005</ele><time>2026-05-01T08:44:14Z</time></trkpt><trkpt lat="43.487101879557535" lon="10.977945626362489"><ele>442.0</ele><time>2026-05-01T08:44:15Z</time></trkpt><trkpt lat="43.48715006008946" lon="10.978049584859493"><ele>442.0</ele><time>2026-05-01T08:44:16Z</time></trkpt><trkpt lat="43.487190364346766" lon="10.97815899324407"><ele>442.00000000000006</ele><time>2026-05-01T08:44:17Z</time></trkpt><trkpt lat="43.48719533336125" lon="10.978292932349367"><ele>442.00000000000006</ele><time>2026-05-01T08:44:18Z</time></trkpt><trkpt lat="43.487190561561064" lon="10.978426287864346"><ele>442.0</ele><time>2026-05-01T08:44:19Z</time></trkpt><trkpt lat="43.48715787179324" lon="10.97855594972931"><ele>442.0</ele><time>2026-05-01T08:44:20Z</time></trkpt><trkpt lat="43.48711690256024" lon="10.978690127250623"><ele>443.25</ele><time>2026-05-01T08:44:21Z</time></trkpt><trkpt lat="43.48707906191174" lon="10.978833957671116"><ele>444.5</ele><time>2026-05-01T08:44:22Z</time></trkpt><trkpt lat="43.487025859107085" lon="10.978972084878308"><ele>445.75</ele><time>2026-05-01T08:44:23Z</time></trkpt><trkpt lat="43.486952266071704" lon="10.979110728024411"><ele>447.0</ele><time>2026-05-01T08:44:24Z</time></trkpt><trkpt lat="43.4868899691641" lon="10.979265780621162"><ele>448.0</ele><time>2026-05-01T08:44:25Z</time></trkpt><trkpt lat="43.48682872855447" lon="10.979418204151315"><ele>449.0</ele><time>2026-05-01T08:44:26Z</time></trkpt><trkpt lat="43.486770390441286" lon="10.979568329659303"><ele>450.0</ele><time>2026-05-01T08:44:27Z</time></trkpt><trkpt lat="43.48671935474554" lon="10.979708138844067"><ele>451.0</ele><time>2026-05-01T08:44:28Z</time></trkpt><trkpt lat="43.48667339819632" lon="10.979851939425837"><ele>451.0</ele><time>2026-05-01T08:44:29Z</time></trkpt><trkpt lat="43.48665938007538" lon="10.980008590508639"><ele>451.0</ele><time>2026-05-01T08:44:30Z</time></trkpt><trkpt lat="43.486644477071245" lon="10.980164793545358"><ele>451.0</ele><time>2026-05-01T08:44:31Z</time></trkpt><trkpt lat="43.48665256172528" lon="10.980318260332526"><ele>451.0</ele><time>2026-05-01T08:44:32Z</time></trkpt><trkpt lat="43.4866818341465" lon="10.980473827476915"><ele>451.5</ele><time>2026-05-01T08:44:33Z</time></trkpt><trkpt lat="43.48672298856037" lon="10.980630523707735"><ele>452.0</ele><time>2026-05-01T08:44:34Z</time></trkpt><trkpt lat="43.48674275210805" lon="10.980786812488892"><ele>452.5</ele><time>2026-05-01T08:44:35Z</time></trkpt><trkpt lat="43.486786022074455" lon="10.980934494810425"><ele>453.0</ele><time>2026-05-01T08:44:36Z</time></trkpt><trkpt lat="43.48681987363148" lon="10.981095333030376"><ele>454.0</ele><time>2026-05-01T08:44:37Z</time></trkpt><trkpt lat="43.48685950926921" lon="10.98125600522304"><ele>455.0</ele><time>2026-05-01T08:44:38Z</time></trkpt><trkpt lat="43.48689566835735" lon="10.981411214788892"><ele>456.0</ele><time>2026-05-01T08:44:39Z</time></trkpt><trkpt lat="43.48692663701436" lon="10.981561447410307"><ele>457.0</ele><time>2026-05-01T08:44:40Z</time></trkpt><trkpt lat="43.486955091801626" lon="10.981696065305073"><ele>457.6</ele><time>2026-05-01T08:44:41Z</time></trkpt><trkpt lat="43.48698596920435" lon="10.98183662149798"><ele>458.20000000000005</ele><time>2026-05-01T08:44:42Z</time></trkpt><trkpt lat="43.48698990831588" lon="10.981988361180841"><ele>458.8</ele><time>2026-05-01T08:44:43Z</time></trkpt><trkpt lat="43.487015646666826" lon="10.982114178593722"><ele>459.4</ele><time>2026-05-01T08:44:44Z</time></trkpt><trkpt lat="43.48701236296138" lon="10.982216996757607"><ele>460.0</ele><time>2026-05-01T08:44:45Z</time></trkpt><trkpt lat="43.48700209208001" lon="10.982309039774202"><ele>460.0</ele><time>2026-05-01T08:44:46Z</time></trkpt><trkpt lat="43.4870002257723" lon="10.982502560419197"><ele>460.0</ele><time>2026-05-01T08:44:47.999Z</time></trkpt><trkpt lat="43.48699809267048" lon="10.982647951261528"><ele>460.0</ele><time>2026-05-01T08:44:48.999Z</time></trkpt><trkpt lat="43.486994575670934" lon="10.982843164933826"><ele>460.0</ele><time>2026-05-01T08:44:49.999Z</time></trkpt><trkpt lat="43.486990835093565" lon="10.983065712412742"><ele>460.0</ele><time>2026-05-01T08:44:50.999Z</time></trkpt><trkpt lat="43.486989653169815" lon="10.983280126570502"><ele>460.0</ele><time>2026-05-01T08:44:51.999Z</time></trkpt><trkpt lat="43.486991715461464" lon="10.98348135983467"><ele>460.0</ele><time>2026-05-01T08:44:52.999Z</time></trkpt><trkpt lat="43.48701480539725" lon="10.983698456801214"><ele>457.33333333333337</ele><time>2026-05-01T08:44:53.999Z</time></trkpt><trkpt lat="43.487090144005215" lon="10.983914848059564"><ele>454.66666666666663</ele><time>2026-05-01T08:44:54.999Z</time></trkpt><trkpt lat="43.48718324494772" lon="10.984160624188934"><ele>452.0</ele><time>2026-05-01T08:44:55.999Z</time></trkpt><trkpt lat="43.48729406183435" lon="10.98443150426419"><ele>451.0</ele><time>2026-05-01T08:44:56.999Z</time></trkpt><trkpt lat="43.48740677316158" lon="10.984727846283777"><ele>450.0</ele><time>2026-05-01T08:44:57.999Z</time></trkpt><trkpt lat="43.48751703250416" lon="10.985017109404414"><ele>449.66666666666663</ele><time>2026-05-01T08:44:58.999Z</time></trkpt><trkpt lat="43.487622577154184" lon="10.98529098653649"><ele>449.3333333333333</ele><time>2026-05-01T08:44:59.999Z</time></trkpt><trkpt lat="43.487722393335595" lon="10.985545404300385"><ele>449.0</ele><time>2026-05-01T08:45:00.999Z</time></trkpt><trkpt lat="43.48781900308762" lon="10.985791554454718"><ele>448.3333333333333</ele><time>2026-05-01T08:45:01.999Z</time></trkpt><trkpt lat="43.487899542714786" lon="10.986023633646978"><ele>447.66666666666663</ele><time>2026-05-01T08:45:02.999Z</time></trkpt><trkpt lat="43.48795408325886" lon="10.98626897891903"><ele>447.0</ele><time>2026-05-01T08:45:03.999Z</time></trkpt><trkpt lat="43.487966358986476" lon="10.986544050406259"><ele>445.66666666666663</ele><time>2026-05-01T08:45:04.999Z</time></trkpt><trkpt lat="43.48798514127575" lon="10.986795964825829"><ele>444.3333333333333</ele><time>2026-05-01T08:45:05.999Z</time></trkpt><trkpt lat="43.48800200978968" lon="10.987036192382474"><ele>443.0</ele><time>2026-05-01T08:45:06.999Z</time></trkpt><trkpt lat="43.48801452697738" lon="10.98727240370719"><ele>441.0</ele><time>2026-05-01T08:45:07.999Z</time></trkpt><trkpt lat="43.487997228166186" lon="10.987521244231916"><ele>439.0</ele><time>2026-05-01T08:45:08.999Z</time></trkpt><trkpt lat="43.48794718421817" lon="10.987767833354308"><ele>437.0</ele><time>2026-05-01T08:45:09.999Z</time></trkpt><trkpt lat="43.48786730575904" lon="10.988036322174898"><ele>435.5</ele><time>2026-05-01T08:45:10.999Z</time></trkpt><trkpt lat="43.4877788901384" lon="10.988338188287976"><ele>434.0</ele><time>2026-05-01T08:45:11.999Z</time></trkpt><trkpt lat="43.48769924289676" lon="10.988665682550527"><ele>433.0</ele><time>2026-05-01T08:45:12.999Z</time></trkpt><trkpt lat="43.487587134952314" lon="10.988984079688413"><ele>432.0</ele><time>2026-05-01T08:45:13.999Z</time></trkpt><trkpt lat="43.48748878001783" lon="10.989312313218136"><ele>428.0</ele><time>2026-05-01T08:45:14.999Z</time></trkpt><trkpt lat="43.4874078154528" lon="10.98964110996617"><ele>424.0</ele><time>2026-05-01T08:45:15.999Z</time></trkpt><trkpt lat="43.48730154928343" lon="10.989937865645105"><ele>419.0</ele><time>2026-05-01T08:45:16.999Z</time></trkpt><trkpt lat="43.48721408409757" lon="10.990236225348855"><ele>414.0</ele><time>2026-05-01T08:45:17.999Z</time></trkpt><trkpt lat="43.487134643279724" lon="10.990540868022585"><ele>412.5</ele><time>2026-05-01T08:45:18.999Z</time></trkpt><trkpt lat="43.48707941104569" lon="10.990862843472378"><ele>411.0</ele><time>2026-05-01T08:45:19.999Z</time></trkpt><trkpt lat="43.486993838818634" lon="10.99117393977623"><ele>411.0</ele><time>2026-05-01T08:45:20.999Z</time></trkpt><trkpt lat="43.486926929234585" lon="10.991487307228983"><ele>411.0</ele><time>2026-05-01T08:45:21.999Z</time></trkpt><trkpt lat="43.486860789740945" lon="10.99179751245862"><ele>410.5</ele><time>2026-05-01T08:45:22.999Z</time></trkpt><trkpt lat="43.48679448906951" lon="10.992103353761689"><ele>410.0</ele><time>2026-05-01T08:45:23.999Z</time></trkpt><trkpt lat="43.486730188623994" lon="10.992404296926232"><ele>409.66666666666663</ele><time>2026-05-01T08:45:24.999Z</time></trkpt><trkpt lat="43.48668397502426" lon="10.992690250014698"><ele>409.33333333333337</ele><time>2026-05-01T08:45:25.999Z</time></trkpt><trkpt lat="43.486654748957946" lon="10.992994590823512"><ele>409.0</ele><time>2026-05-01T08:45:26.999Z</time></trkpt><trkpt lat="43.48663603394474" lon="10.993319177208113"><ele>407.0</ele><time>2026-05-01T08:45:27.999Z</time></trkpt><trkpt lat="43.48661371284019" lon="10.993655376819135"><ele>405.0</ele><time>2026-05-01T08:45:28.999Z</time></trkpt><trkpt lat="43.48659108003266" lon="10.993982595113538"><ele>403.33333333333337</ele><time>2026-05-01T08:45:29.999Z</time></trkpt><trkpt lat="43.48657160504744" lon="10.994264158619783"><ele>401.6666666666667</ele><time>2026-05-01T08:45:30.999Z</time></trkpt><trkpt lat="43.486556964072186" lon="10.994521373965748"><ele>400.0</ele><time>2026-05-01T08:45:31.999Z</time></trkpt><trkpt lat="43.48654965556615" lon="10.994762395557881"><ele>401.6666666666667</ele><time>2026-05-01T08:45:32.999Z</time></trkpt><trkpt lat="43.48656890156452" lon="10.995024314032808"><ele>403.33333333333337</ele><time>2026-05-01T08:45:33.999Z</time></trkpt><trkpt lat="43.48661877936364" lon="10.995299876791629"><ele>405.0</ele><time>2026-05-01T08:45:34.999Z</time></trkpt><trkpt lat="43.486696219841775" lon="10.995596132099147"><ele>404.33333333333337</ele><time>2026-05-01T08:45:35.999Z</time></trkpt><trkpt lat="43.48677403242472" lon="10.995884764208519"><ele>403.6666666666667</ele><time>2026-05-01T08:45:36.998Z</time></trkpt><trkpt lat="43.486836851218015" lon="10.9961289059079"><ele>403.0</ele><time>2026-05-01T08:45:37.998Z</time></trkpt><trkpt lat="43.48688521798344" lon="10.996346832605518"><ele>403.0</ele><time>2026-05-01T08:45:38.998Z</time></trkpt><trkpt lat="43.4869104667882" lon="10.99658800554356"><ele>403.0</ele><time>2026-05-01T08:45:39.998Z</time></trkpt><trkpt lat="43.48690595057382" lon="10.996862501456198"><ele>403.0</ele><time>2026-05-01T08:45:40.998Z</time></trkpt><trkpt lat="43.48687535439505" lon="10.997156148248871"><ele>400.0</ele><time>2026-05-01T08:45:41.998Z</time></trkpt><trkpt lat="43.48683778792053" lon="10.997425444210874"><ele>397.0</ele><time>2026-05-01T08:45:42.998Z</time></trkpt><trkpt lat="43.4868018178083" lon="10.997681982908833"><ele>394.0</ele><time>2026-05-01T08:45:43.998Z</time></trkpt><trkpt lat="43.486755400051756" lon="10.997942329575615"><ele>389.6666666666667</ele><time>2026-05-01T08:45:44.998Z</time></trkpt><trkpt lat="43.486638998278075" lon="10.998195424375977"><ele>385.33333333333337</ele><time>2026-05-01T08:45:45.998Z</time></trkpt><trkpt lat="43.48651036479024" lon="10.998415068113403"><ele>381.0</ele><time>2026-05-01T08:45:46.998Z</time></trkpt><trkpt lat="43.48639357475771" lon="10.998633170703178"><ele>379.6666666666667</ele><time>2026-05-01T08:45:47.998Z</time></trkpt><trkpt lat="43.48627852431523" lon="10.998844705293186"><ele>378.33333333333337</ele><time>2026-05-01T08:45:48.998Z</time></trkpt><trkpt lat="43.486172657924456" lon="10.999049298656846"><ele>377.0</ele><time>2026-05-01T08:45:49.998Z</time></trkpt><trkpt lat="43.486071599492824" lon="10.999243619147165"><ele>377.0</ele><time>2026-05-01T08:45:50.998Z</time></trkpt><trkpt lat="43.48597309118806" lon="10.999424162281722"><ele>377.0</ele><time>2026-05-01T08:45:51.998Z</time></trkpt><trkpt lat="43.48588329102919" lon="10.999599530104838"><ele>377.0</ele><time>2026-05-01T08:45:52.998Z</time></trkpt><trkpt lat="43.48578656501815" lon="10.999799516663433"><ele>377.0</ele><time>2026-05-01T08:45:53.998Z</time></trkpt><trkpt lat="43.4856565690589" lon="10.999988673896109"><ele>377.0</ele><time>2026-05-01T08:45:54.998Z</time></trkpt><trkpt lat="43.48550860322644" lon="11.000163176349096"><ele>377.0</ele><time>2026-05-01T08:45:55.998Z</time></trkpt><trkpt lat="43.48537009976575" lon="11.000355573912058"><ele>376.33333333333337</ele><time>2026-05-01T08:45:56.998Z</time></trkpt><trkpt lat="43.48523482440966" lon="11.000555120226139"><ele>375.6666666666667</ele><time>2026-05-01T08:45:57.998Z</time></trkpt><trkpt lat="43.48510110608863" lon="11.000750763874434"><ele>375.0</ele><time>2026-05-01T08:45:58.998Z</time></trkpt><trkpt lat="43.48498129643312" lon="11.000969945260081"><ele>375.0</ele><time>2026-05-01T08:45:59.998Z</time></trkpt><trkpt lat="43.48486820256631" lon="11.001216031386852"><ele>375.0</ele><time>2026-05-01T08:46:00.998Z</time></trkpt><trkpt lat="43.48475783149138" lon="11.001493000073516"><ele>375.0</ele><time>2026-05-01T08:46:01.998Z</time></trkpt><trkpt lat="43.48464118793408" lon="11.001789220551641"><ele>368.0</ele><time>2026-05-01T08:46:02.998Z</time></trkpt><trkpt lat="43.4845154035941" lon="11.002088977399128"><ele>361.0</ele><time>2026-05-01T08:46:03.998Z</time></trkpt><trkpt lat="43.484387956219685" lon="11.002400457195508"><ele>364.0</ele><time>2026-05-01T08:46:04.998Z</time></trkpt><trkpt lat="43.484265666060416" lon="11.00270954359119"><ele>367.0</ele><time>2026-05-01T08:46:05.998Z</time></trkpt><trkpt lat="43.484148407463515" lon="11.002994596109296"><ele>367.0</ele><time>2026-05-01T08:46:06.998Z</time></trkpt><trkpt lat="43.48403560513143" lon="11.003264975431808"><ele>367.0</ele><time>2026-05-01T08:46:07.998Z</time></trkpt><trkpt lat="43.483929652951375" lon="11.003528469307886"><ele>367.0</ele><time>2026-05-01T08:46:09Z</time></trkpt><trkpt lat="43.48382480363681" lon="11.003785857634341"><ele>362.66666666666663</ele><time>2026-05-01T08:46:10Z</time></trkpt><trkpt lat="43.48371998150499" lon="11.004045380367813"><ele>358.3333333333333</ele><time>2026-05-01T08:46:11Z</time></trkpt><trkpt lat="43.483622410894355" lon="11.004315485230121"><ele>354.0</ele><time>2026-05-01T08:46:12Z</time></trkpt><trkpt lat="43.483541591181854" lon="11.004599464899934"><ele>354.0</ele><time>2026-05-01T08:46:13Z</time></trkpt><trkpt lat="43.48347319533981" lon="11.004892623674253"><ele>354.0</ele><time>2026-05-01T08:46:14Z</time></trkpt><trkpt lat="43.483418868801586" lon="11.00518753760267"><ele>354.0</ele><time>2026-05-01T08:46:15Z</time></trkpt><trkpt lat="43.483359955943506" lon="11.005480616962535"><ele>355.3333333333333</ele><time>2026-05-01T08:46:16Z</time></trkpt><trkpt lat="43.483302087982345" lon="11.005751711902871"><ele>356.66666666666663</ele><time>2026-05-01T08:46:17Z</time></trkpt><trkpt lat="43.48325490078206" lon="11.006005615923758"><ele>358.0</ele><time>2026-05-01T08:46:18Z</time></trkpt><trkpt lat="43.48321275058581" lon="11.006248677665598"><ele>358.3333333333333</ele><time>2026-05-01T08:46:19Z</time></trkpt><trkpt lat="43.483165507980175" lon="11.006476435102543"><ele>358.6666666666667</ele><time>2026-05-01T08:46:20Z</time></trkpt><trkpt lat="43.48311436039105" lon="11.006692912186306"><ele>359.0</ele><time>2026-05-01T08:46:21Z</time></trkpt><trkpt lat="43.48306460090859" lon="11.006893734388177"><ele>359.6666666666667</ele><time>2026-05-01T08:46:22Z</time></trkpt><trkpt lat="43.48299695506427" lon="11.007093492663905"><ele>360.3333333333333</ele><time>2026-05-01T08:46:23Z</time></trkpt><trkpt lat="43.4829029542605" lon="11.007287746000248"><ele>361.0</ele><time>2026-05-01T08:46:24Z</time></trkpt><trkpt lat="43.48278296659082" lon="11.00746537857578"><ele>359.0</ele><time>2026-05-01T08:46:25Z</time></trkpt><trkpt lat="43.482659461909854" lon="11.007618592508303"><ele>357.0</ele><time>2026-05-01T08:46:26Z</time></trkpt><trkpt lat="43.482545753291234" lon="11.007748309023551"><ele>355.0</ele><time>2026-05-01T08:46:27Z</time></trkpt><trkpt lat="43.4824400002022" lon="11.007859390413252"><ele>353.0</ele><time>2026-05-01T08:46:28Z</time></trkpt><trkpt lat="43.48234913172058" lon="11.00799430367927"><ele>353.0</ele><time>2026-05-01T08:46:29Z</time></trkpt><trkpt lat="43.48223546868461" lon="11.008183943276453"><ele>353.0</ele><time>2026-05-01T08:46:30Z</time></trkpt><trkpt lat="43.48209208993706" lon="11.008400855407592"><ele>353.0</ele><time>2026-05-01T08:46:31Z</time></trkpt><trkpt lat="43.48194193566366" lon="11.008663877905095"><ele>353.0</ele><time>2026-05-01T08:46:32Z</time></trkpt><trkpt lat="43.48179693841916" lon="11.008920873461271"><ele>353.0</ele><time>2026-05-01T08:46:33Z</time></trkpt><trkpt lat="43.48166511391436" lon="11.009142828384343"><ele>353.0</ele><time>2026-05-01T08:46:34Z</time></trkpt><trkpt lat="43.48154609297847" lon="11.009360871117275"><ele>353.0</ele><time>2026-05-01T08:46:35Z</time></trkpt><trkpt lat="43.4814389546342" lon="11.009617709801924"><ele>353.0</ele><time>2026-05-01T08:46:36Z</time></trkpt><trkpt lat="43.48134458526766" lon="11.009936811871263"><ele>348.0</ele><time>2026-05-01T08:46:37Z</time></trkpt><trkpt lat="43.481253291667024" lon="11.010302529798027"><ele>343.0</ele><time>2026-05-01T08:46:38Z</time></trkpt><trkpt lat="43.48114746898041" lon="11.01067835695981"><ele>342.0</ele><time>2026-05-01T08:46:39Z</time></trkpt><trkpt lat="43.48104284577636" lon="11.011057554825669"><ele>341.0</ele><time>2026-05-01T08:46:40Z</time></trkpt><trkpt lat="43.48094903221201" lon="11.011401216064497"><ele>339.5</ele><time>2026-05-01T08:46:41Z</time></trkpt><trkpt lat="43.480862394235146" lon="11.011727744024723"><ele>338.0</ele><time>2026-05-01T08:46:42Z</time></trkpt><trkpt lat="43.48077666416516" lon="11.012036806523568"><ele>338.0</ele><time>2026-05-01T08:46:43Z</time></trkpt><trkpt lat="43.48069501446867" lon="11.012335429069973"><ele>338.0</ele><time>2026-05-01T08:46:44Z</time></trkpt><trkpt lat="43.480614937050774" lon="11.012616906170347"><ele>337.6666666666667</ele><time>2026-05-01T08:46:45Z</time></trkpt><trkpt lat="43.480541179140445" lon="11.01287099993774"><ele>337.3333333333333</ele><time>2026-05-01T08:46:46Z</time></trkpt><trkpt lat="43.4804835631775" lon="11.013104308298377"><ele>337.0</ele><time>2026-05-01T08:46:47Z</time></trkpt><trkpt lat="43.48044398944129" lon="11.013351330613244"><ele>337.0</ele><time>2026-05-01T08:46:48Z</time></trkpt><trkpt lat="43.4804313187442" lon="11.013610813549926"><ele>337.0</ele><time>2026-05-01T08:46:49Z</time></trkpt><trkpt lat="43.48043934440597" lon="11.013891060976581"><ele>337.0</ele><time>2026-05-01T08:46:50Z</time></trkpt><trkpt lat="43.48043704651244" lon="11.01418457587717"><ele>335.0</ele><time>2026-05-01T08:46:51Z</time></trkpt><trkpt lat="43.480449014239646" lon="11.01449151298909"><ele>333.0</ele><time>2026-05-01T08:46:52Z</time></trkpt><trkpt lat="43.48045852873823" lon="11.0147599762668"><ele>331.0</ele><time>2026-05-01T08:46:53Z</time></trkpt><trkpt lat="43.480466649498055" lon="11.014993144066878"><ele>328.66666666666663</ele><time>2026-05-01T08:46:54Z</time></trkpt><trkpt lat="43.48046045850371" lon="11.015212996076276"><ele>326.3333333333333</ele><time>2026-05-01T08:46:55Z</time></trkpt><trkpt lat="43.48042858710946" lon="11.01542510220478"><ele>324.0</ele><time>2026-05-01T08:46:56Z</time></trkpt><trkpt lat="43.48035446129599" lon="11.015644297854564"><ele>319.6666666666667</ele><time>2026-05-01T08:46:57Z</time></trkpt><trkpt lat="43.48023378874373" lon="11.015869079200872"><ele>315.33333333333337</ele><time>2026-05-01T08:46:58Z</time></trkpt><trkpt lat="43.4800893664438" lon="11.016124860912663"><ele>311.0</ele><time>2026-05-01T08:46:59Z</time></trkpt><trkpt lat="43.47992996561685" lon="11.0163999268318"><ele>309.0</ele><time>2026-05-01T08:47:00Z</time></trkpt><trkpt lat="43.479769776286716" lon="11.01665864498433"><ele>307.0</ele><time>2026-05-01T08:47:01Z</time></trkpt><trkpt lat="43.4795981342461" lon="11.016914511967085"><ele>304.5</ele><time>2026-05-01T08:47:02Z</time></trkpt><trkpt lat="43.4794056166906" lon="11.017172241056173"><ele>302.0</ele><time>2026-05-01T08:47:03Z</time></trkpt><trkpt lat="43.47922613921535" lon="11.017407153432288"><ele>303.0</ele><time>2026-05-01T08:47:03.999Z</time></trkpt><trkpt lat="43.47906482252321" lon="11.017617064807208"><ele>304.0</ele><time>2026-05-01T08:47:04.999Z</time></trkpt><trkpt lat="43.478917286962115" lon="11.017801660652491"><ele>305.0</ele><time>2026-05-01T08:47:05.999Z</time></trkpt><trkpt lat="43.47879676224126" lon="11.01797935171312"><ele>304.6666666666667</ele><time>2026-05-01T08:47:06.999Z</time></trkpt><trkpt lat="43.47868874137641" lon="11.01819109213612"><ele>304.3333333333333</ele><time>2026-05-01T08:47:07.999Z</time></trkpt><trkpt lat="43.47858937973826" lon="11.018420126822924"><ele>304.0</ele><time>2026-05-01T08:47:08.999Z</time></trkpt><trkpt lat="43.478485521379234" lon="11.018667634128766"><ele>304.0</ele><time>2026-05-01T08:47:09.999Z</time></trkpt><trkpt lat="43.47838336839096" lon="11.018911077325164"><ele>304.0</ele><time>2026-05-01T08:47:10.999Z</time></trkpt><trkpt lat="43.478291804067" lon="11.019129286426503"><ele>304.0</ele><time>2026-05-01T08:47:11.999Z</time></trkpt><trkpt lat="43.478205679147315" lon="11.019334929789311"><ele>303.66666666666663</ele><time>2026-05-01T08:47:12.999Z</time></trkpt><trkpt lat="43.478129983960734" lon="11.019516538393287"><ele>303.3333333333333</ele><time>2026-05-01T08:47:13.999Z</time></trkpt><trkpt lat="43.47806151842005" lon="11.019704735940984"><ele>303.0</ele><time>2026-05-01T08:47:14.999Z</time></trkpt><trkpt lat="43.47801730599773" lon="11.019938156025962"><ele>301.3333333333333</ele><time>2026-05-01T08:47:15.999Z</time></trkpt><trkpt lat="43.47800851129309" lon="11.020210022867332"><ele>299.66666666666663</ele><time>2026-05-01T08:47:16.999Z</time></trkpt><trkpt lat="43.47797746900911" lon="11.020507037141366"><ele>298.0</ele><time>2026-05-01T08:47:17.999Z</time></trkpt><trkpt lat="43.47796906741111" lon="11.02082899811091"><ele>295.66666666666663</ele><time>2026-05-01T08:47:18.999Z</time></trkpt><trkpt lat="43.47798123207788" lon="11.02112542952126"><ele>293.3333333333333</ele><time>2026-05-01T08:47:19.999Z</time></trkpt><trkpt lat="43.477991428914244" lon="11.021393971827772"><ele>291.0</ele><time>2026-05-01T08:47:20.999Z</time></trkpt><trkpt lat="43.47799570180855" lon="11.021643545115246"><ele>290.0</ele><time>2026-05-01T08:47:21.999Z</time></trkpt><trkpt lat="43.4780091616381" lon="11.021904686753107"><ele>289.0</ele><time>2026-05-01T08:47:22.999Z</time></trkpt><trkpt lat="43.47799356684934" lon="11.02217257869844"><ele>288.0</ele><time>2026-05-01T08:47:23.999Z</time></trkpt><trkpt lat="43.47797579207293" lon="11.022435957195192"><ele>288.0</ele><time>2026-05-01T08:47:24.999Z</time></trkpt><trkpt lat="43.47795094110337" lon="11.022693008927854"><ele>288.0</ele><time>2026-05-01T08:47:25.999Z</time></trkpt><trkpt lat="43.4778880985703" lon="11.022946971129853"><ele>288.0</ele><time>2026-05-01T08:47:26.999Z</time></trkpt><trkpt lat="43.47782098350094" lon="11.023206687715716"><ele>286.0</ele><time>2026-05-01T08:47:27.999Z</time></trkpt><trkpt lat="43.47773325134476" lon="11.023469045852941"><ele>284.0</ele><time>2026-05-01T08:47:28.999Z</time></trkpt><trkpt lat="43.477644248714064" lon="11.023726817826535"><ele>282.0</ele><time>2026-05-01T08:47:29.999Z</time></trkpt><trkpt lat="43.47755880062284" lon="11.023974289635861"><ele>282.6666666666667</ele><time>2026-05-01T08:47:30.999Z</time></trkpt><trkpt lat="43.477475180956034" lon="11.024214247296857"><ele>283.33333333333337</ele><time>2026-05-01T08:47:31.999Z</time></trkpt><trkpt lat="43.4773936717165" lon="11.024448148827977"><ele>284.0</ele><time>2026-05-01T08:47:32.999Z</time></trkpt><trkpt lat="43.477316286013384" lon="11.024665176266952"><ele>284.0</ele><time>2026-05-01T08:47:33.999Z</time></trkpt><trkpt lat="43.47724344886871" lon="11.024870957522817"><ele>284.0</ele><time>2026-05-01T08:47:34.999Z</time></trkpt><trkpt lat="43.477175390723886" lon="11.025063237030011"><ele>284.0</ele><time>2026-05-01T08:47:35.999Z</time></trkpt><trkpt lat="43.477111558826124" lon="11.025243446467186"><ele>283.25</ele><time>2026-05-01T08:47:36.999Z</time></trkpt><trkpt lat="43.47705309333878" lon="11.02540733158444"><ele>282.5</ele><time>2026-05-01T08:47:37.999Z</time></trkpt><trkpt lat="43.476995896610816" lon="11.025567660240592"><ele>281.75</ele><time>2026-05-01T08:47:38.999Z</time></trkpt><trkpt lat="43.47694857346363" lon="11.025758043351473"><ele>281.0</ele><time>2026-05-01T08:47:39.999Z</time></trkpt><trkpt lat="43.47693016503125" lon="11.025970729086291"><ele>281.0</ele><time>2026-05-01T08:47:40.999Z</time></trkpt><trkpt lat="43.47688412998812" lon="11.02620208824086"><ele>281.0</ele><time>2026-05-01T08:47:41.999Z</time></trkpt><trkpt lat="43.476849943296266" lon="11.026454587164483"><ele>281.0</ele><time>2026-05-01T08:47:42.999Z</time></trkpt><trkpt lat="43.47681899115081" lon="11.026685767052301"><ele>279.33333333333337</ele><time>2026-05-01T08:47:43.999Z</time></trkpt><trkpt lat="43.47679003979602" lon="11.026903802985867"><ele>277.6666666666667</ele><time>2026-05-01T08:47:44.999Z</time></trkpt><trkpt lat="43.47676219017668" lon="11.027113541620498"><ele>276.0</ele><time>2026-05-01T08:47:45.999Z</time></trkpt><trkpt lat="43.476733916879404" lon="11.027317550962744"><ele>274.5</ele><time>2026-05-01T08:47:46.999Z</time></trkpt><trkpt lat="43.47670807310601" lon="11.027513827687857"><ele>273.0</ele><time>2026-05-01T08:47:47.999Z</time></trkpt><trkpt lat="43.47668371364456" lon="11.02770119595629"><ele>271.5</ele><time>2026-05-01T08:47:48.999Z</time></trkpt><trkpt lat="43.47666019091012" lon="11.02788212828017"><ele>270.0</ele><time>2026-05-01T08:47:49.999Z</time></trkpt><trkpt lat="43.4766377493079" lon="11.028054986130181"><ele>270.0</ele><time>2026-05-01T08:47:50.999Z</time></trkpt><trkpt lat="43.476631304399625" lon="11.028227981567992"><ele>270.0</ele><time>2026-05-01T08:47:51.999Z</time></trkpt><trkpt lat="43.47661242581399" lon="11.028376569676112"><ele>270.0</ele><time>2026-05-01T08:47:52.999Z</time></trkpt><trkpt lat="43.47658008383307" lon="11.028505347974425"><ele>270.0</ele><time>2026-05-01T08:47:53.998Z</time></trkpt><trkpt lat="43.47658244617538" lon="11.028617100184432"><ele>270.0</ele><time>2026-05-01T08:47:54.998Z</time></trkpt><trkpt lat="43.476541694632004" lon="11.028705831513507"><ele>269.1666666666667</ele><time>2026-05-01T08:47:55.998Z</time></trkpt><trkpt lat="43.47647278139197" lon="11.028781651110684"><ele>268.3333333333333</ele><time>2026-05-01T08:47:56.998Z</time></trkpt><trkpt lat="43.47640893047581" lon="11.028851463295888"><ele>267.5</ele><time>2026-05-01T08:47:57.998Z</time></trkpt><trkpt lat="43.47636116705848" lon="11.028939180865756"><ele>266.66666666666663</ele><time>2026-05-01T08:47:58.998Z</time></trkpt><trkpt lat="43.47633191811494" lon="11.029044317468179"><ele>265.8333333333333</ele><time>2026-05-01T08:47:59.998Z</time></trkpt><trkpt lat="43.47631809720639" lon="11.0291537080967"><ele>265.0</ele><time>2026-05-01T08:48:00.998Z</time></trkpt><trkpt lat="43.47630667543749" lon="11.029254858489066"><ele>265.0</ele><time>2026-05-01T08:48:01.998Z</time></trkpt><trkpt lat="43.47628808394395" lon="11.029347014154412"><ele>265.0</ele><time>2026-05-01T08:48:02.998Z</time></trkpt><trkpt lat="43.476244494481385" lon="11.029439733498755"><ele>265.0</ele><time>2026-05-01T08:48:03.998Z</time></trkpt><trkpt lat="43.47615879035703" lon="11.029493251820485"><ele>265.0</ele><time>2026-05-01T08:48:04.998Z</time></trkpt><trkpt lat="43.47606956569486" lon="11.02957274968588"><ele>265.0</ele><time>2026-05-01T08:48:05.998Z</time></trkpt><trkpt lat="43.47597393990112" lon="11.029659588858674"><ele>264.5</ele><time>2026-05-01T08:48:06.998Z</time></trkpt><trkpt lat="43.4758728870014" lon="11.02975242155479"><ele>264.0</ele><time>2026-05-01T08:48:07.998Z</time></trkpt><trkpt lat="43.475756614064814" lon="11.029859904000203"><ele>263.5</ele><time>2026-05-01T08:48:08.998Z</time></trkpt><trkpt lat="43.47561792759842" lon="11.029990818063274"><ele>263.0</ele><time>2026-05-01T08:48:09.998Z</time></trkpt><trkpt lat="43.47545383131529" lon="11.030146463637509"><ele>264.6666666666667</ele><time>2026-05-01T08:48:10.998Z</time></trkpt><trkpt lat="43.47528054796178" lon="11.030309728370792"><ele>266.3333333333333</ele><time>2026-05-01T08:48:11.998Z</time></trkpt><trkpt lat="43.47511337044527" lon="11.030464780611238"><ele>268.0</ele><time>2026-05-01T08:48:12.998Z</time></trkpt><trkpt lat="43.47494583707049" lon="11.03061952976961"><ele>268.0</ele><time>2026-05-01T08:48:13.998Z</time></trkpt><trkpt lat="43.474784823370925" lon="11.030766344472733"><ele>268.0</ele><time>2026-05-01T08:48:15Z</time></trkpt><trkpt lat="43.474615986549466" lon="11.030898285749464"><ele>268.0</ele><time>2026-05-01T08:48:16Z</time></trkpt><trkpt lat="43.47444270477834" lon="11.031015381826455"><ele>266.66666666666663</ele><time>2026-05-01T08:48:17Z</time></trkpt><trkpt lat="43.47426864266224" lon="11.031126413970355"><ele>265.3333333333333</ele><time>2026-05-01T08:48:18Z</time></trkpt><trkpt lat="43.47409579936535" lon="11.031235812513435"><ele>264.0</ele><time>2026-05-01T08:48:19Z</time></trkpt><trkpt lat="43.47392754114791" lon="11.03134229748459"><ele>260.6666666666667</ele><time>2026-05-01T08:48:20Z</time></trkpt><trkpt lat="43.473768417902555" lon="11.03144045398272"><ele>257.33333333333337</ele><time>2026-05-01T08:48:21Z</time></trkpt><trkpt lat="43.473619598084326" lon="11.031532193445246"><ele>254.0</ele><time>2026-05-01T08:48:22Z</time></trkpt><trkpt lat="43.47347904083358" lon="11.031618215273843"><ele>255.75</ele><time>2026-05-01T08:48:23Z</time></trkpt><trkpt lat="43.473344899922814" lon="11.031700310304586"><ele>257.5</ele><time>2026-05-01T08:48:24Z</time></trkpt><trkpt lat="43.47322002818809" lon="11.031776732860441"><ele>259.25</ele><time>2026-05-01T08:48:25Z</time></trkpt><trkpt lat="43.47310728396256" lon="11.031844057703909"><ele>261.0</ele><time>2026-05-01T08:48:26Z</time></trkpt><trkpt lat="43.473004791112245" lon="11.031905912458344"><ele>260.2</ele><time>2026-05-01T08:48:27Z</time></trkpt><trkpt lat="43.472915771966676" lon="11.031959635986045"><ele>259.40000000000003</ele><time>2026-05-01T08:48:28Z</time></trkpt><trkpt lat="43.472843027623625" lon="11.03200476594998"><ele>258.6</ele><time>2026-05-01T08:48:29Z</time></trkpt><trkpt lat="43.47272573542102" lon="11.032072942414445"><ele>257.8</ele><time>2026-05-01T08:48:31Z</time></trkpt><trkpt lat="43.472667536123446" lon="11.03215169835517"><ele>257.0</ele><time>2026-05-01T08:48:32Z</time></trkpt><trkpt lat="43.47258958078187" lon="11.032200650490928"><ele>257.0</ele><time>2026-05-01T08:48:33Z</time></trkpt><trkpt lat="43.4725084302105" lon="11.032243243334548"><ele>257.0</ele><time>2026-05-01T08:48:34Z</time></trkpt><trkpt lat="43.472433006006746" lon="11.032284553926699"><ele>257.0</ele><time>2026-05-01T08:48:35Z</time></trkpt><trkpt lat="43.47236345796928" lon="11.03232375953822"><ele>257.0</ele><time>2026-05-01T08:48:36Z</time></trkpt><trkpt lat="43.472296186543645" lon="11.032358971964435"><ele>257.0</ele><time>2026-05-01T08:48:37Z</time></trkpt><trkpt lat="43.472186131584756" lon="11.032385888691248"><ele>257.0</ele><time>2026-05-01T08:48:39Z</time></trkpt><trkpt lat="43.47210822548976" lon="11.032433317953547"><ele>257.83333333333337</ele><time>2026-05-01T08:48:41Z</time></trkpt><trkpt lat="43.47204883781651" lon="11.03246951073055"><ele>258.6666666666667</ele><time>2026-05-01T08:48:43Z</time></trkpt><trkpt lat="43.47197181614187" lon="11.032529844089641"><ele>259.5</ele><time>2026-05-01T08:49:23.998Z</time></trkpt><trkpt lat="43.471916624273945" lon="11.032574953870204"><ele>260.3333333333333</ele><time>2026-05-01T08:49:24.998Z</time></trkpt><trkpt lat="43.47185415241822" lon="11.032632351866523"><ele>261.16666666666663</ele><time>2026-05-01T08:49:25.998Z</time></trkpt><trkpt lat="43.47177462127889" lon="11.032711668015121"><ele>262.0</ele><time>2026-05-01T08:49:26.998Z</time></trkpt><trkpt lat="43.47168803272912" lon="11.03280420295952"><ele>262.0</ele><time>2026-05-01T08:49:27.998Z</time></trkpt><trkpt lat="43.471599261053534" lon="11.03291573118981"><ele>262.0</ele><time>2026-05-01T08:49:28.998Z</time></trkpt><trkpt lat="43.471511185181946" lon="11.033039933409293"><ele>262.0</ele><time>2026-05-01T08:49:29.998Z</time></trkpt><trkpt lat="43.47143104446194" lon="11.033181815464193"><ele>262.0</ele><time>2026-05-01T08:49:30.998Z</time></trkpt><trkpt lat="43.47136335424714" lon="11.033337931044771"><ele>262.0</ele><time>2026-05-01T08:49:31.998Z</time></trkpt><trkpt lat="43.47130783504777" lon="11.033497376665808"><ele>262.0</ele><time>2026-05-01T08:49:32.998Z</time></trkpt><trkpt lat="43.47126465187317" lon="11.033662321070915"><ele>262.0</ele><time>2026-05-01T08:49:33.998Z</time></trkpt><trkpt lat="43.47123213430384" lon="11.033830356014578"><ele>262.0</ele><time>2026-05-01T08:49:34.998Z</time></trkpt><trkpt lat="43.471206442211056" lon="11.034001555531988"><ele>263.25</ele><time>2026-05-01T08:49:35.998Z</time></trkpt><trkpt lat="43.471186810245904" lon="11.03417119113947"><ele>264.5</ele><time>2026-05-01T08:49:36.998Z</time></trkpt><trkpt lat="43.471174696334394" lon="11.034341506120734"><ele>265.75</ele><time>2026-05-01T08:49:37.998Z</time></trkpt><trkpt lat="43.47116439185937" lon="11.034507050707694"><ele>267.0</ele><time>2026-05-01T08:49:38.998Z</time></trkpt><trkpt lat="43.471173168493365" lon="11.034677680499081"><ele>267.0</ele><time>2026-05-01T08:49:39.998Z</time></trkpt><trkpt lat="43.47115114864938" lon="11.034841572337053"><ele>267.0</ele><time>2026-05-01T08:49:40.998Z</time></trkpt><trkpt lat="43.471149674029114" lon="11.035010025634529"><ele>267.0</ele><time>2026-05-01T08:49:41.998Z</time></trkpt><trkpt lat="43.47115258664123" lon="11.035176583436606"><ele>267.0</ele><time>2026-05-01T08:49:42.998Z</time></trkpt><trkpt lat="43.471168169136405" lon="11.035340181924079"><ele>267.25</ele><time>2026-05-01T08:49:43.998Z</time></trkpt><trkpt lat="43.471173687224386" lon="11.035503140361673"><ele>267.5</ele><time>2026-05-01T08:49:44.998Z</time></trkpt><trkpt lat="43.47117641417608" lon="11.035664130639855"><ele>267.75</ele><time>2026-05-01T08:49:45.998Z</time></trkpt><trkpt lat="43.471178408643006" lon="11.035817510454832"><ele>268.0</ele><time>2026-05-01T08:49:46.998Z</time></trkpt><trkpt lat="43.47117677715705" lon="11.035965161972287"><ele>268.8</ele><time>2026-05-01T08:49:47.998Z</time></trkpt><trkpt lat="43.47117778067305" lon="11.036123790889784"><ele>269.6</ele><time>2026-05-01T08:49:48.998Z</time></trkpt><trkpt lat="43.47117924587544" lon="11.036261723186394"><ele>270.4</ele><time>2026-05-01T08:49:49.998Z</time></trkpt><trkpt lat="43.47118071993709" lon="11.036375303991395"><ele>271.2</ele><time>2026-05-01T08:49:50.998Z</time></trkpt><trkpt lat="43.47117713120432" lon="11.036468734909318"><ele>272.0</ele><time>2026-05-01T08:49:51.998Z</time></trkpt><trkpt lat="43.471175725981034" lon="11.03663611202182"><ele>272.2</ele><time>2026-05-01T08:49:53.998Z</time></trkpt><trkpt lat="43.471179402650044" lon="11.036737910982664"><ele>272.4</ele><time>2026-05-01T08:49:54.998Z</time></trkpt><trkpt lat="43.47117768126485" lon="11.036858155609838"><ele>272.6</ele><time>2026-05-01T08:49:55.998Z</time></trkpt><trkpt lat="43.47117718384645" lon="11.036985374059508"><ele>272.8</ele><time>2026-05-01T08:49:56.998Z</time></trkpt><trkpt lat="43.47114340065045" lon="11.037119652997697"><ele>273.0</ele><time>2026-05-01T08:49:57.998Z</time></trkpt><trkpt lat="43.47113908950419" lon="11.037260031612027"><ele>273.0</ele><time>2026-05-01T08:49:58.998Z</time></trkpt><trkpt lat="43.47114014045584" lon="11.037405875146433"><ele>273.0</ele><time>2026-05-01T08:49:59.998Z</time></trkpt><trkpt lat="43.471143653800624" lon="11.037555241828715"><ele>273.0</ele><time>2026-05-01T08:50:00.998Z</time></trkpt><trkpt lat="43.471148338719345" lon="11.037718067117206"><ele>273.0</ele><time>2026-05-01T08:50:01.998Z</time></trkpt><trkpt lat="43.47115679630173" lon="11.037892125982387"><ele>273.0</ele><time>2026-05-01T08:50:02.998Z</time></trkpt><trkpt lat="43.47116878992278" lon="11.038069153630072"><ele>273.0</ele><time>2026-05-01T08:50:03.998Z</time></trkpt><trkpt lat="43.47119084522942" lon="11.038256926573597"><ele>273.0</ele><time>2026-05-01T08:50:04.998Z</time></trkpt><trkpt lat="43.47122250981176" lon="11.038454356788558"><ele>273.0</ele><time>2026-05-01T08:50:05.998Z</time></trkpt><trkpt lat="43.47127292994986" lon="11.03864476978326"><ele>272.75</ele><time>2026-05-01T08:50:06.997Z</time></trkpt><trkpt lat="43.47131099821937" lon="11.0388360607483"><ele>272.5</ele><time>2026-05-01T08:50:07.997Z</time></trkpt><trkpt lat="43.47135454627522" lon="11.039024330814662"><ele>272.25</ele><time>2026-05-01T08:50:08.997Z</time></trkpt><trkpt lat="43.47138912688628" lon="11.039212945916162"><ele>272.0</ele><time>2026-05-01T08:50:09.997Z</time></trkpt><trkpt lat="43.471455622966836" lon="11.039385452714743"><ele>273.5</ele><time>2026-05-01T08:50:10.997Z</time></trkpt><trkpt lat="43.47150912121482" lon="11.039571598406335"><ele>275.0</ele><time>2026-05-01T08:50:11.997Z</time></trkpt><trkpt lat="43.471564410626804" lon="11.039753009281664"><ele>276.5</ele><time>2026-05-01T08:50:12.997Z</time></trkpt><trkpt lat="43.47161752588329" lon="11.039931421618519"><ele>278.0</ele><time>2026-05-01T08:50:13.997Z</time></trkpt><trkpt lat="43.471670067343474" lon="11.040098574172134"><ele>280.25</ele><time>2026-05-01T08:50:14.997Z</time></trkpt><trkpt lat="43.471726189670186" lon="11.040257155261678"><ele>282.5</ele><time>2026-05-01T08:50:15.997Z</time></trkpt><trkpt lat="43.47177434833283" lon="11.040414215337657"><ele>284.75</ele><time>2026-05-01T08:50:16.997Z</time></trkpt><trkpt lat="43.471824779477366" lon="11.04056519145019"><ele>287.0</ele><time>2026-05-01T08:50:17.997Z</time></trkpt><trkpt lat="43.47187513792739" lon="11.040711848310295"><ele>289.2</ele><time>2026-05-01T08:50:18.997Z</time></trkpt><trkpt lat="43.47192412960148" lon="11.040859570190564"><ele>291.4</ele><time>2026-05-01T08:50:19.997Z</time></trkpt><trkpt lat="43.4719660561686" lon="11.04100731938283"><ele>293.6</ele><time>2026-05-01T08:50:21Z</time></trkpt><trkpt lat="43.47198857129826" lon="11.041147292540675"><ele>295.8</ele><time>2026-05-01T08:50:22Z</time></trkpt><trkpt lat="43.47198490351552" lon="11.041269783855403"><ele>298.0</ele><time>2026-05-01T08:50:23Z</time></trkpt><trkpt lat="43.471941064460715" lon="11.041370126347969"><ele>298.0</ele><time>2026-05-01T08:50:24Z</time></trkpt><trkpt lat="43.47187606873095" lon="11.041442964773761"><ele>298.0</ele><time>2026-05-01T08:50:25Z</time></trkpt><trkpt lat="43.47180943159135" lon="11.041475381850269"><ele>298.0</ele><time>2026-05-01T08:50:26Z</time></trkpt><trkpt lat="43.47173017811609" lon="11.041493539044897"><ele>298.0</ele><time>2026-05-01T08:50:28Z</time></trkpt><trkpt lat="43.47169234247931" lon="11.0416502301936"><ele>298.0</ele><time>2026-05-01T08:50:29Z</time></trkpt><trkpt lat="43.47162991124616" lon="11.041744259123913"><ele>298.0</ele><time>2026-05-01T08:50:30Z</time></trkpt><trkpt lat="43.47156342984192" lon="11.041843249377084"><ele>298.4</ele><time>2026-05-01T08:50:31Z</time></trkpt><trkpt lat="43.47149236744133" lon="11.041937297731304"><ele>298.8</ele><time>2026-05-01T08:50:32Z</time></trkpt><trkpt lat="43.47140450765287" lon="11.04202686658616"><ele>299.2</ele><time>2026-05-01T08:50:33Z</time></trkpt><trkpt lat="43.47130802842908" lon="11.042116929167838"><ele>299.6</ele><time>2026-05-01T08:50:34Z</time></trkpt><trkpt lat="43.47120987051298" lon="11.042208846590626"><ele>300.0</ele><time>2026-05-01T08:50:35Z</time></trkpt><trkpt lat="43.47110911155419" lon="11.042317578004125"><ele>300.75</ele><time>2026-05-01T08:50:36Z</time></trkpt><trkpt lat="43.47100642502807" lon="11.042441272593623"><ele>301.5</ele><time>2026-05-01T08:50:37Z</time></trkpt><trkpt lat="43.47091378228" lon="11.042558521047201"><ele>302.25</ele><time>2026-05-01T08:50:38Z</time></trkpt><trkpt lat="43.47083169329746" lon="11.042666809825848"><ele>303.0</ele><time>2026-05-01T08:50:39Z</time></trkpt><trkpt lat="43.47076030999292" lon="11.042765928568928"><ele>303.0</ele><time>2026-05-01T08:50:40Z</time></trkpt><trkpt lat="43.47069822745276" lon="11.04287022820873"><ele>303.0</ele><time>2026-05-01T08:50:41Z</time></trkpt><trkpt lat="43.47065869101231" lon="11.042980482189916"><ele>303.0</ele><time>2026-05-01T08:50:41.999Z</time></trkpt><trkpt lat="43.47063523839131" lon="11.043093842514983"><ele>303.0</ele><time>2026-05-01T08:50:42.999Z</time></trkpt><trkpt lat="43.470624334051195" lon="11.04320303914463"><ele>303.0</ele><time>2026-05-01T08:50:43.999Z</time></trkpt><trkpt lat="43.47063839736283" lon="11.04332067074383"><ele>303.0</ele><time>2026-05-01T08:50:44.999Z</time></trkpt><trkpt lat="43.47064492015244" lon="11.04343276475444"><ele>300.6666666666667</ele><time>2026-05-01T08:50:45.999Z</time></trkpt><trkpt lat="43.47065026836632" lon="11.043525654574365"><ele>298.3333333333333</ele><time>2026-05-01T08:50:46.999Z</time></trkpt><trkpt lat="43.47065288078635" lon="11.043674581222563"><ele>296.0</ele><time>2026-05-01T08:50:48.999Z</time></trkpt><trkpt lat="43.47065335558867" lon="11.043766985230011"><ele>293.66666666666663</ele><time>2026-05-01T08:50:49.999Z</time></trkpt><trkpt lat="43.47065591522093" lon="11.043872797457544"><ele>291.3333333333333</ele><time>2026-05-01T08:50:50.999Z</time></trkpt><trkpt lat="43.47066114049846" lon="11.043992459691339"><ele>289.0</ele><time>2026-05-01T08:50:51.999Z</time></trkpt><trkpt lat="43.47066729471928" lon="11.044111273903773"><ele>288.66666666666663</ele><time>2026-05-01T08:50:52.999Z</time></trkpt><trkpt lat="43.4706713962634" lon="11.044216761872347"><ele>288.3333333333333</ele><time>2026-05-01T08:50:53.999Z</time></trkpt><trkpt lat="43.4706792518479" lon="11.044317485356856"><ele>288.0</ele><time>2026-05-01T08:50:54.999Z</time></trkpt><trkpt lat="43.47069374113921" lon="11.044424891921246"><ele>287.6666666666667</ele><time>2026-05-01T08:50:55.999Z</time></trkpt><trkpt lat="43.47071076868982" lon="11.044518136082113"><ele>287.33333333333337</ele><time>2026-05-01T08:50:56.999Z</time></trkpt><trkpt lat="43.47075024868065" lon="11.044669852479254"><ele>287.0</ele><time>2026-05-01T08:50:58.999Z</time></trkpt><trkpt lat="43.47081295996265" lon="11.044827608744283"><ele>287.0</ele><time>2026-05-01T08:51:00.999Z</time></trkpt><trkpt lat="43.47085058589954" lon="11.044908029663807"><ele>287.0</ele><time>2026-05-01T08:51:01.999Z</time></trkpt><trkpt lat="43.4708838981979" lon="11.044981801264898"><ele>287.0</ele><time>2026-05-01T08:51:02.999Z</time></trkpt><trkpt lat="43.47089573873222" lon="11.045111976779847"><ele>287.0</ele><time>2026-05-01T08:51:04.999Z</time></trkpt><trkpt lat="43.470950448057145" lon="11.045030224653368"><ele>287.0</ele><time>2026-05-01T08:51:09.999Z</time></trkpt><trkpt lat="43.47095291549249" lon="11.044905017616497"><ele>287.0</ele><time>2026-05-01T08:51:11.999Z</time></trkpt><trkpt lat="43.47096693845789" lon="11.044793449624008"><ele>287.0</ele><time>2026-05-01T08:51:14.999Z</time></trkpt><trkpt lat="43.47101595162822" lon="11.044387285525755"><ele>287.0</ele><time>2026-05-01T08:51:20.999Z</time></trkpt><trkpt lat="43.47098540128594" lon="11.044257903443688"><ele>287.0</ele><time>2026-05-01T08:51:22.999Z</time></trkpt><trkpt lat="43.470961873188116" lon="11.04413040643008"><ele>287.5</ele><time>2026-05-01T08:51:24.999Z</time></trkpt><trkpt lat="43.47068409328957" lon="11.044031898689624"><ele>288.0</ele><time>2026-05-01T08:51:26.999Z</time></trkpt><trkpt lat="43.47068029446126" lon="11.043931738623673"><ele>288.5</ele><time>2026-05-01T08:51:27.999Z</time></trkpt><trkpt lat="43.47067387837865" lon="11.043822871439756"><ele>289.0</ele><time>2026-05-01T08:51:28.999Z</time></trkpt><trkpt lat="43.47067066124057" lon="11.043723142043195"><ele>289.0</ele><time>2026-05-01T08:51:29.999Z</time></trkpt><trkpt lat="43.470829184545586" lon="11.043628288228245"><ele>289.0</ele><time>2026-05-01T08:51:30.999Z</time></trkpt><trkpt lat="43.470821409140825" lon="11.043440524908782"><ele>289.0</ele><time>2026-05-01T08:51:32.998Z</time></trkpt><trkpt lat="43.47081643422766" lon="11.043320388909857"><ele>289.0</ele><time>2026-05-01T08:51:33.998Z</time></trkpt><trkpt lat="43.470671343983426" lon="11.043197450438687"><ele>292.5</ele><time>2026-05-01T08:51:34.998Z</time></trkpt><trkpt lat="43.47068857299856" lon="11.043061366046418"><ele>296.0</ele><time>2026-05-01T08:51:35.998Z</time></trkpt><trkpt lat="43.47073553987295" lon="11.04292288013731"><ele>299.5</ele><time>2026-05-01T08:51:36.998Z</time></trkpt><trkpt lat="43.47081054302182" lon="11.04279424622867"><ele>303.0</ele><time>2026-05-01T08:51:37.998Z</time></trkpt><trkpt lat="43.470906790541925" lon="11.042679182880027"><ele>303.0</ele><time>2026-05-01T08:51:38.998Z</time></trkpt><trkpt lat="43.470998529653244" lon="11.042571572382014"><ele>303.0</ele><time>2026-05-01T08:51:39.998Z</time></trkpt><trkpt lat="43.47108089633261" lon="11.042460283442441"><ele>303.0</ele><time>2026-05-01T08:51:40.998Z</time></trkpt><trkpt lat="43.47116460186028" lon="11.042352118918012"><ele>303.0</ele><time>2026-05-01T08:51:41.998Z</time></trkpt><trkpt lat="43.471243038907936" lon="11.042270018218225"><ele>303.0</ele><time>2026-05-01T08:51:42.998Z</time></trkpt><trkpt lat="43.47131876574121" lon="11.042195778187386"><ele>302.5</ele><time>2026-05-01T08:51:43.998Z</time></trkpt><trkpt lat="43.47140067252968" lon="11.042123192905109"><ele>302.0</ele><time>2026-05-01T08:51:44.998Z</time></trkpt><trkpt lat="43.47148183264338" lon="11.042048124506946"><ele>301.5</ele><time>2026-05-01T08:51:45.998Z</time></trkpt><trkpt lat="43.47154705634516" lon="11.04197225122831"><ele>301.0</ele><time>2026-05-01T08:51:46.998Z</time></trkpt><trkpt lat="43.47160168867973" lon="11.04190172959101"><ele>300.5</ele><time>2026-05-01T08:51:47.998Z</time></trkpt><trkpt lat="43.471646347241546" lon="11.04183460329921"><ele>300.0</ele><time>2026-05-01T08:51:48.998Z</time></trkpt><trkpt lat="43.47170471946701" lon="11.041729223788181"><ele>299.99999999999994</ele><time>2026-05-01T08:51:50.998Z</time></trkpt><trkpt lat="43.471751160108056" lon="11.041668257349261"><ele>300.0</ele><time>2026-05-01T08:51:52.998Z</time></trkpt><trkpt lat="43.471837591999325" lon="11.041631782785524"><ele>300.0</ele><time>2026-05-01T08:51:54.998Z</time></trkpt><trkpt lat="43.471900551249924" lon="11.041626823998486"><ele>300.0</ele><time>2026-05-01T08:51:55.998Z</time></trkpt><trkpt lat="43.47195833306706" lon="11.041591777332444"><ele>300.0</ele><time>2026-05-01T08:51:56.998Z</time></trkpt><trkpt lat="43.4720115452636" lon="11.041528810525786"><ele>299.99999999999994</ele><time>2026-05-01T08:51:57.998Z</time></trkpt><trkpt lat="43.4720412549442" lon="11.041441252150184"><ele>300.0</ele><time>2026-05-01T08:51:58.998Z</time></trkpt><trkpt lat="43.47205289386923" lon="11.041337921539224"><ele>299.71428571428567</ele><time>2026-05-01T08:51:59.998Z</time></trkpt><trkpt lat="43.47204594332247" lon="11.0412363033963"><ele>299.42857142857144</ele><time>2026-05-01T08:52:00.998Z</time></trkpt><trkpt lat="43.47203392415595" lon="11.041134955246191"><ele>299.1428571428571</ele><time>2026-05-01T08:52:01.998Z</time></trkpt><trkpt lat="43.47201297049338" lon="11.041043485039525"><ele>298.85714285714283</ele><time>2026-05-01T08:52:02.998Z</time></trkpt><trkpt lat="43.47198204765505" lon="11.040955375682982"><ele>298.57142857142856</ele><time>2026-05-01T08:52:03.998Z</time></trkpt><trkpt lat="43.47195002440131" lon="11.04086499523892"><ele>298.2857142857143</ele><time>2026-05-01T08:52:04.998Z</time></trkpt><trkpt lat="43.47191680655779" lon="11.040770225019536"><ele>298.0</ele><time>2026-05-01T08:52:05.998Z</time></trkpt><trkpt lat="43.47188252553358" lon="11.040672899705317"><ele>296.16666666666663</ele><time>2026-05-01T08:52:06.998Z</time></trkpt><trkpt lat="43.471846967758985" lon="11.040577911080357"><ele>294.3333333333333</ele><time>2026-05-01T08:52:07.998Z</time></trkpt><trkpt lat="43.471820777731324" lon="11.040496874948635"><ele>292.5</ele><time>2026-05-01T08:52:08.998Z</time></trkpt><trkpt lat="43.471779019501575" lon="11.040372659491041"><ele>290.6666666666667</ele><time>2026-05-01T08:52:10.998Z</time></trkpt><trkpt lat="43.47173170070507" lon="11.040218909397764"><ele>288.83333333333337</ele><time>2026-05-01T08:52:12.998Z</time></trkpt><trkpt lat="43.471696381797315" lon="11.040114726581525"><ele>287.0</ele><time>2026-05-01T08:52:13.998Z</time></trkpt><trkpt lat="43.47165609484357" lon="11.039995988457935"><ele>285.2</ele><time>2026-05-01T08:52:14.998Z</time></trkpt><trkpt lat="43.47161281708307" lon="11.039867893358933"><ele>283.4</ele><time>2026-05-01T08:52:15.998Z</time></trkpt><trkpt lat="43.471566793336976" lon="11.039735442656495"><ele>281.6</ele><time>2026-05-01T08:52:16.998Z</time></trkpt><trkpt lat="43.47152760545309" lon="11.039597900748326"><ele>279.8</ele><time>2026-05-01T08:52:17.998Z</time></trkpt><trkpt lat="43.47148679040536" lon="11.039450414399152"><ele>278.0</ele><time>2026-05-01T08:52:18.998Z</time></trkpt><trkpt lat="43.471444115655935" lon="11.039305972906668"><ele>278.0</ele><time>2026-05-01T08:52:19.998Z</time></trkpt><trkpt lat="43.4714070112566" lon="11.039170436607462"><ele>278.0</ele><time>2026-05-01T08:52:20.998Z</time></trkpt><trkpt lat="43.471374636659235" lon="11.03903908337731"><ele>278.0</ele><time>2026-05-01T08:52:21.997Z</time></trkpt><trkpt lat="43.47134455319091" lon="11.038912327845662"><ele>278.0</ele><time>2026-05-01T08:52:22.997Z</time></trkpt><trkpt lat="43.4713150100058" lon="11.038790904950602"><ele>278.0</ele><time>2026-05-01T08:52:23.997Z</time></trkpt><trkpt lat="43.471287775374456" lon="11.038675889384226"><ele>277.57142857142856</ele><time>2026-05-01T08:52:24.997Z</time></trkpt><trkpt lat="43.471271315145074" lon="11.038570404546068"><ele>277.14285714285717</ele><time>2026-05-01T08:52:25.997Z</time></trkpt><trkpt lat="43.4712549848061" lon="11.038470630860681"><ele>276.7142857142857</ele><time>2026-05-01T08:52:27Z</time></trkpt><trkpt lat="43.47123929932159" lon="11.038375773358752"><ele>276.2857142857143</ele><time>2026-05-01T08:52:28Z</time></trkpt><trkpt lat="43.471224076196" lon="11.03828260198363"><ele>275.85714285714283</ele><time>2026-05-01T08:52:29Z</time></trkpt><trkpt lat="43.47121303845741" lon="11.03819683274179"><ele>275.42857142857144</ele><time>2026-05-01T08:52:30Z</time></trkpt><trkpt lat="43.47120482338749" lon="11.038105200605973"><ele>275.0</ele><time>2026-05-01T08:52:31Z</time></trkpt><trkpt lat="43.471195684774315" lon="11.038004984335103"><ele>274.6666666666667</ele><time>2026-05-01T08:52:32Z</time></trkpt><trkpt lat="43.47118754236313" lon="11.037896648652307"><ele>274.33333333333337</ele><time>2026-05-01T08:52:33Z</time></trkpt><trkpt lat="43.47118111501154" lon="11.037787436586216"><ele>274.0</ele><time>2026-05-01T08:52:34Z</time></trkpt><trkpt lat="43.47117524193718" lon="11.03767276584654"><ele>273.6666666666667</ele><time>2026-05-01T08:52:35Z</time></trkpt><trkpt lat="43.47117165926084" lon="11.037548740208642"><ele>273.3333333333333</ele><time>2026-05-01T08:52:36Z</time></trkpt><trkpt lat="43.471171395255936" lon="11.03741009176355"><ele>273.0</ele><time>2026-05-01T08:52:37Z</time></trkpt><trkpt lat="43.47117503642346" lon="11.037267727051688"><ele>273.0</ele><time>2026-05-01T08:52:38Z</time></trkpt><trkpt lat="43.47118320901878" lon="11.037125244609317"><ele>273.0</ele><time>2026-05-01T08:52:39Z</time></trkpt><trkpt lat="43.47118916076444" lon="11.036985286911543"><ele>273.0</ele><time>2026-05-01T08:52:40Z</time></trkpt><trkpt lat="43.471197142628824" lon="11.036847151588441"><ele>273.0</ele><time>2026-05-01T08:52:41Z</time></trkpt><trkpt lat="43.47120147603417" lon="11.036728872730702"><ele>273.0</ele><time>2026-05-01T08:52:42Z</time></trkpt><trkpt lat="43.471204878257346" lon="11.036639537920296"><ele>272.8333333333333</ele><time>2026-05-01T08:52:43Z</time></trkpt><trkpt lat="43.47120880244079" lon="11.036501208814526"><ele>272.6666666666667</ele><time>2026-05-01T08:52:45Z</time></trkpt><trkpt lat="43.471208009120474" lon="11.036413135628166"><ele>272.5</ele><time>2026-05-01T08:52:46Z</time></trkpt><trkpt lat="43.47120868997798" lon="11.036312065360061"><ele>272.33333333333337</ele><time>2026-05-01T08:52:47Z</time></trkpt><trkpt lat="43.471205195979806" lon="11.036195632095186"><ele>272.1666666666667</ele><time>2026-05-01T08:52:48Z</time></trkpt><trkpt lat="43.47119788355065" lon="11.036069767467078"><ele>272.0</ele><time>2026-05-01T08:52:49Z</time></trkpt><trkpt lat="43.47119662769958" lon="11.035937096920964"><ele>271.2</ele><time>2026-05-01T08:52:50Z</time></trkpt><trkpt lat="43.47120372486721" lon="11.03580119945844"><ele>270.4</ele><time>2026-05-01T08:52:51Z</time></trkpt><trkpt lat="43.471206531282995" lon="11.035666570758256"><ele>269.6</ele><time>2026-05-01T08:52:52Z</time></trkpt><trkpt lat="43.47120173954718" lon="11.03552808456659"><ele>268.8</ele><time>2026-05-01T08:52:53Z</time></trkpt><trkpt lat="43.47119460038622" lon="11.035387178799658"><ele>268.0</ele><time>2026-05-01T08:52:54Z</time></trkpt><trkpt lat="43.47119005771295" lon="11.035240842514865"><ele>268.0</ele><time>2026-05-01T08:52:54.999Z</time></trkpt><trkpt lat="43.47118607468801" lon="11.035093894486833"><ele>268.0</ele><time>2026-05-01T08:52:55.999Z</time></trkpt><trkpt lat="43.47118441711384" lon="11.03494844065467"><ele>268.0</ele><time>2026-05-01T08:52:56.999Z</time></trkpt><trkpt lat="43.47118660923004" lon="11.03480266609956"><ele>268.0</ele><time>2026-05-01T08:52:57.999Z</time></trkpt><trkpt lat="43.47119145381269" lon="11.034654531042756"><ele>268.0</ele><time>2026-05-01T08:52:58.999Z</time></trkpt><trkpt lat="43.47119973883643" lon="11.034507440117553"><ele>267.8</ele><time>2026-05-01T08:52:59.999Z</time></trkpt><trkpt lat="43.47121134162185" lon="11.034370299481829"><ele>267.6</ele><time>2026-05-01T08:53:00.999Z</time></trkpt><trkpt lat="43.47122086817262" lon="11.034238543264046"><ele>267.4</ele><time>2026-05-01T08:53:01.999Z</time></trkpt><trkpt lat="43.4712319175048" lon="11.034108702279116"><ele>267.2</ele><time>2026-05-01T08:53:02.999Z</time></trkpt><trkpt lat="43.47124565872347" lon="11.033987586618787"><ele>267.0</ele><time>2026-05-01T08:53:03.999Z</time></trkpt><trkpt lat="43.471262966738145" lon="11.033871788118697"><ele>266.8333333333333</ele><time>2026-05-01T08:53:04.999Z</time></trkpt><trkpt lat="43.47128189870702" lon="11.033771063660735"><ele>266.6666666666667</ele><time>2026-05-01T08:53:05.999Z</time></trkpt><trkpt lat="43.471299512203245" lon="11.033673878754351"><ele>266.5</ele><time>2026-05-01T08:53:06.999Z</time></trkpt><trkpt lat="43.4713223403059" lon="11.033581382080856"><ele>266.33333333333337</ele><time>2026-05-01T08:53:07.999Z</time></trkpt><trkpt lat="43.4713498212035" lon="11.033496638933904"><ele>266.1666666666667</ele><time>2026-05-01T08:53:08.999Z</time></trkpt><trkpt lat="43.471406324314366" lon="11.033345886634661"><ele>266.0</ele><time>2026-05-01T08:53:10.999Z</time></trkpt><trkpt lat="43.47143743669367" lon="11.033257687432641"><ele>266.0</ele><time>2026-05-01T08:53:11.999Z</time></trkpt><trkpt lat="43.47147702298625" lon="11.033152725127218"><ele>266.0</ele><time>2026-05-01T08:53:12.999Z</time></trkpt><trkpt lat="43.471519576419375" lon="11.033068306879155"><ele>266.0</ele><time>2026-05-01T08:53:13.999Z</time></trkpt><trkpt lat="43.47156717336354" lon="11.032996621668312"><ele>266.0</ele><time>2026-05-01T08:53:14.999Z</time></trkpt><trkpt lat="43.471612049845625" lon="11.032932618875034"><ele>266.0</ele><time>2026-05-01T08:53:15.999Z</time></trkpt><trkpt lat="43.471668848425594" lon="11.032888540078421"><ele>266.0</ele><time>2026-05-01T08:53:16.999Z</time></trkpt><trkpt lat="43.47172142871054" lon="11.032824693815558"><ele>266.0</ele><time>2026-05-01T08:53:17.999Z</time></trkpt><trkpt lat="43.47177702832349" lon="11.032766383317671"><ele>266.0</ele><time>2026-05-01T08:53:18.999Z</time></trkpt><trkpt lat="43.47183430742312" lon="11.032708456160712"><ele>266.0</ele><time>2026-05-01T08:53:19.999Z</time></trkpt><trkpt lat="43.47188818547988" lon="11.032656101873005"><ele>266.0</ele><time>2026-05-01T08:53:20.999Z</time></trkpt><trkpt lat="43.47199401389344" lon="11.032578411423541"><ele>266.0</ele><time>2026-05-01T08:53:22.999Z</time></trkpt><trkpt lat="43.47210872131865" lon="11.032525468233326"><ele>266.0</ele><time>2026-05-01T08:53:24.999Z</time></trkpt><trkpt lat="43.472171168714965" lon="11.032483428886732"><ele>266.0</ele><time>2026-05-01T08:53:25.999Z</time></trkpt><trkpt lat="43.472230294957015" lon="11.032440335099386"><ele>264.2</ele><time>2026-05-01T08:53:26.999Z</time></trkpt><trkpt lat="43.47228838730758" lon="11.032401244973657"><ele>262.40000000000003</ele><time>2026-05-01T08:53:27.999Z</time></trkpt><trkpt lat="43.47240235156089" lon="11.032337291000395"><ele>260.6</ele><time>2026-05-01T08:53:29.999Z</time></trkpt><trkpt lat="43.472495118894365" lon="11.032281805481128"><ele>258.8</ele><time>2026-05-01T08:53:31.999Z</time></trkpt><trkpt lat="43.47258192996196" lon="11.032234070260179"><ele>257.0</ele><time>2026-05-01T08:53:33.999Z</time></trkpt><trkpt lat="43.4726601108518" lon="11.03219024864525"><ele>257.0</ele><time>2026-05-01T08:53:35.999Z</time></trkpt><trkpt lat="43.47273362500836" lon="11.032147487343552"><ele>257.0</ele><time>2026-05-01T08:53:38.999Z</time></trkpt><trkpt lat="43.472801907524115" lon="11.032104788677211"><ele>257.0</ele><time>2026-05-01T08:53:40.999Z</time></trkpt><trkpt lat="43.472873967444116" lon="11.032063966127385"><ele>257.0</ele><time>2026-05-01T08:53:42.998Z</time></trkpt><trkpt lat="43.47295161471034" lon="11.032023953251919"><ele>257.0</ele><time>2026-05-01T08:53:44.998Z</time></trkpt><trkpt lat="43.47302882697107" lon="11.031979924212907"><ele>257.0</ele><time>2026-05-01T08:53:46.998Z</time></trkpt><trkpt lat="43.47313276409572" lon="11.031909115334452"><ele>256.4</ele><time>2026-05-01T08:53:48.998Z</time></trkpt><trkpt lat="43.47323165878081" lon="11.031841094478741"><ele>255.79999999999998</ele><time>2026-05-01T08:53:50.998Z</time></trkpt><trkpt lat="43.473337563944995" lon="11.031775437018057"><ele>255.2</ele><time>2026-05-01T08:53:52.998Z</time></trkpt><trkpt lat="43.47344899972956" lon="11.031705996730087"><ele>254.6</ele><time>2026-05-01T08:53:54.998Z</time></trkpt><trkpt lat="43.47351305389514" lon="11.03166503097685"><ele>254.0</ele><time>2026-05-01T08:53:55.998Z</time></trkpt><trkpt lat="43.47358588652646" lon="11.031622020563118"><ele>254.00000000000003</ele><time>2026-05-01T08:53:56.998Z</time></trkpt><trkpt lat="43.47366486198043" lon="11.031582705282199"><ele>254.0</ele><time>2026-05-01T08:53:57.998Z</time></trkpt><trkpt lat="43.473744209789096" lon="11.031538901301985"><ele>254.0</ele><time>2026-05-01T08:53:58.998Z</time></trkpt><trkpt lat="43.47382370756053" lon="11.031491276166749"><ele>254.0</ele><time>2026-05-01T08:53:59.998Z</time></trkpt><trkpt lat="43.473901707983664" lon="11.03144130090381"><ele>254.00000000000003</ele><time>2026-05-01T08:54:00.998Z</time></trkpt><trkpt lat="43.47397437449531" lon="11.031391729521888"><ele>254.0</ele><time>2026-05-01T08:54:01.998Z</time></trkpt><trkpt lat="43.47404779579228" lon="11.03133911702808"><ele>255.66666666666669</ele><time>2026-05-01T08:54:02.998Z</time></trkpt><trkpt lat="43.474120007618986" lon="11.031288696809112"><ele>257.33333333333337</ele><time>2026-05-01T08:54:03.998Z</time></trkpt><trkpt lat="43.474194907219115" lon="11.03124143533651"><ele>259.0</ele><time>2026-05-01T08:54:04.998Z</time></trkpt><trkpt lat="43.47426743524833" lon="11.031198415954403"><ele>260.6666666666667</ele><time>2026-05-01T08:54:05.998Z</time></trkpt><trkpt lat="43.47434103069438" lon="11.031155487329567"><ele>262.3333333333333</ele><time>2026-05-01T08:54:06.998Z</time></trkpt><trkpt lat="43.474415224178735" lon="11.031108947545224"><ele>264.0</ele><time>2026-05-01T08:54:07.998Z</time></trkpt><trkpt lat="43.474484197512304" lon="11.031062851114815"><ele>264.0</ele><time>2026-05-01T08:54:08.998Z</time></trkpt><trkpt lat="43.47454784685172" lon="11.03102153041457"><ele>264.0</ele><time>2026-05-01T08:54:09.998Z</time></trkpt><trkpt lat="43.47460542100292" lon="11.030985629850036"><ele>264.0</ele><time>2026-05-01T08:54:10.998Z</time></trkpt><trkpt lat="43.47471149285191" lon="11.030908993902196"><ele>264.0</ele><time>2026-05-01T08:54:12.998Z</time></trkpt><trkpt lat="43.4747662325683" lon="11.030864404605046"><ele>264.0</ele><time>2026-05-01T08:54:13.998Z</time></trkpt><trkpt lat="43.47482380608821" lon="11.03081791668121"><ele>264.0</ele><time>2026-05-01T08:54:14.998Z</time></trkpt><trkpt lat="43.47488145916724" lon="11.030769474143256"><ele>264.57142857142856</ele><time>2026-05-01T08:54:15.998Z</time></trkpt><trkpt lat="43.47493903611878" lon="11.030720558596933"><ele>265.14285714285717</ele><time>2026-05-01T08:54:16.998Z</time></trkpt><trkpt lat="43.47499775434295" lon="11.030668377571489"><ele>265.7142857142857</ele><time>2026-05-01T08:54:17.998Z</time></trkpt><trkpt lat="43.47505667893168" lon="11.030610862557245"><ele>266.2857142857143</ele><time>2026-05-01T08:54:18.998Z</time></trkpt><trkpt lat="43.475117629898186" lon="11.030547534606628"><ele>266.85714285714283</ele><time>2026-05-01T08:54:19.998Z</time></trkpt><trkpt lat="43.475181655276494" lon="11.030484375740745"><ele>267.42857142857144</ele><time>2026-05-01T08:54:20.998Z</time></trkpt><trkpt lat="43.47524215611312" lon="11.03043327799327"><ele>268.0</ele><time>2026-05-01T08:54:21.998Z</time></trkpt><trkpt lat="43.475335808977285" lon="11.030357648449419"><ele>268.0</ele><time>2026-05-01T08:54:23.998Z</time></trkpt><trkpt lat="43.47540731163476" lon="11.030293660447061"><ele>268.0</ele><time>2026-05-01T08:54:25.998Z</time></trkpt><trkpt lat="43.47549663469844" lon="11.030203737237455"><ele>268.0</ele><time>2026-05-01T08:54:27.998Z</time></trkpt><trkpt lat="43.475553148236656" lon="11.030143242185801"><ele>268.0</ele><time>2026-05-01T08:54:28.998Z</time></trkpt><trkpt lat="43.47560836051594" lon="11.03008973224443"><ele>268.0</ele><time>2026-05-01T08:54:29.998Z</time></trkpt><trkpt lat="43.47566427311798" lon="11.03003677368714"><ele>268.0</ele><time>2026-05-01T08:54:30.998Z</time></trkpt><trkpt lat="43.47571883624387" lon="11.02998719806317"><ele>266.8571428571429</ele><time>2026-05-01T08:54:31.998Z</time></trkpt><trkpt lat="43.47577310923207" lon="11.029936583467025"><ele>265.7142857142857</ele><time>2026-05-01T08:54:33Z</time></trkpt><trkpt lat="43.47582628515124" lon="11.029882730393265"><ele>264.57142857142856</ele><time>2026-05-01T08:54:34Z</time></trkpt><trkpt lat="43.47587836783023" lon="11.029827035990603"><ele>263.42857142857144</ele><time>2026-05-01T08:54:35Z</time></trkpt><trkpt lat="43.47593211719181" lon="11.029772472035184"><ele>262.2857142857143</ele><time>2026-05-01T08:54:36Z</time></trkpt><trkpt lat="43.47599234496401" lon="11.029718983203729"><ele>261.14285714285717</ele><time>2026-05-01T08:54:37Z</time></trkpt><trkpt lat="43.47605904611417" lon="11.029663697468267"><ele>260.0</ele><time>2026-05-01T08:54:38Z</time></trkpt><trkpt lat="43.47612535137899" lon="11.029608365347617"><ele>260.0</ele><time>2026-05-01T08:54:39Z</time></trkpt><trkpt lat="43.47618792557835" lon="11.029557026282834"><ele>260.0</ele><time>2026-05-01T08:54:40Z</time></trkpt><trkpt lat="43.47625054923986" lon="11.029514811370804"><ele>260.0</ele><time>2026-05-01T08:54:41Z</time></trkpt><trkpt lat="43.47631262443903" lon="11.029479869819983"><ele>260.0</ele><time>2026-05-01T08:54:42Z</time></trkpt><trkpt lat="43.47640290683133" lon="11.02942432874097"><ele>260.0</ele><time>2026-05-01T08:54:44Z</time></trkpt><trkpt lat="43.476466212369566" lon="11.029552381901032"><ele>260.0</ele><time>2026-05-01T08:54:55Z</time></trkpt><trkpt lat="43.47647604129163" lon="11.029414010065553"><ele>261.0</ele><time>2026-05-01T08:55:11.999Z</time></trkpt><trkpt lat="43.47646818246622" lon="11.029561002381566"><ele>262.0</ele><time>2026-05-01T08:55:30.999Z</time></trkpt><trkpt lat="43.476473698205865" lon="11.02941370870997"><ele>263.0</ele><time>2026-05-01T08:55:57.999Z</time></trkpt><trkpt lat="43.47646820239792" lon="11.029543839854442"><ele>264.0</ele><time>2026-05-01T08:57:56.999Z</time></trkpt><trkpt lat="43.47648999570552" lon="11.029415205640468"><ele>265.0</ele><time>2026-05-01T09:00:02.999Z</time></trkpt><trkpt lat="43.47646572176633" lon="11.029562080663629"><ele>265.0</ele><time>2026-05-01T09:00:06.999Z</time></trkpt><trkpt lat="43.47649549122284" lon="11.029416918213018"><ele>265.0</ele><time>2026-05-01T09:00:41.998Z</time></trkpt><trkpt lat="43.476555206052" lon="11.029550563945257"><ele>265.0</ele><time>2026-05-01T09:00:55Z</time></trkpt><trkpt lat="43.47662660709452" lon="11.029505440522003"><ele>265.0</ele><time>2026-05-01T09:00:57Z</time></trkpt><trkpt lat="43.47669972835237" lon="11.029340553748847"><ele>265.0</ele><time>2026-05-01T09:00:59Z</time></trkpt><trkpt lat="43.47676027412665" lon="11.029292769540458"><ele>265.0</ele><time>2026-05-01T09:01:00Z</time></trkpt><trkpt lat="43.476890507138975" lon="11.029414035937268"><ele>265.0</ele><time>2026-05-01T09:01:01Z</time></trkpt><trkpt lat="43.47698402415676" lon="11.02943944194741"><ele>265.0</ele><time>2026-05-01T09:01:02Z</time></trkpt><trkpt lat="43.47708455288343" lon="11.02945570246936"><ele>265.0</ele><time>2026-05-01T09:01:03Z</time></trkpt><trkpt lat="43.47718187110373" lon="11.029469389536928"><ele>265.5</ele><time>2026-05-01T09:01:04Z</time></trkpt><trkpt lat="43.477289934764215" lon="11.029478149604866"><ele>266.0</ele><time>2026-05-01T09:01:05Z</time></trkpt><trkpt lat="43.47740271883572" lon="11.029489567496748"><ele>266.5</ele><time>2026-05-01T09:01:06Z</time></trkpt><trkpt lat="43.477518954348476" lon="11.029500723152594"><ele>267.0</ele><time>2026-05-01T09:01:07Z</time></trkpt><trkpt lat="43.47763927292988" lon="11.029512013985858"><ele>267.0</ele><time>2026-05-01T09:01:08Z</time></trkpt><trkpt lat="43.477767392436164" lon="11.029542698403548"><ele>267.0</ele><time>2026-05-01T09:01:09Z</time></trkpt><trkpt lat="43.47789842648566" lon="11.029583292614372"><ele>267.0</ele><time>2026-05-01T09:01:10Z</time></trkpt><trkpt lat="43.47803205556588" lon="11.029618927443382"><ele>267.0</ele><time>2026-05-01T09:01:11Z</time></trkpt><trkpt lat="43.47816437143025" lon="11.02966047060078"><ele>268.0</ele><time>2026-05-01T09:01:12Z</time></trkpt><trkpt lat="43.47829657492719" lon="11.029706498745107"><ele>269.0</ele><time>2026-05-01T09:01:13Z</time></trkpt><trkpt lat="43.478424646901466" lon="11.029748349048987"><ele>270.0</ele><time>2026-05-01T09:01:14Z</time></trkpt><trkpt lat="43.47855019407633" lon="11.029790003466644"><ele>271.0</ele><time>2026-05-01T09:01:15Z</time></trkpt><trkpt lat="43.47867190570794" lon="11.029834591642432"><ele>271.25</ele><time>2026-05-01T09:01:16Z</time></trkpt><trkpt lat="43.478793859847634" lon="11.02987872281298"><ele>271.5</ele><time>2026-05-01T09:01:17Z</time></trkpt><trkpt lat="43.47891591709861" lon="11.0299147588545"><ele>271.75</ele><time>2026-05-01T09:01:18Z</time></trkpt><trkpt lat="43.479044309386545" lon="11.029932918151525"><ele>272.0</ele><time>2026-05-01T09:01:19Z</time></trkpt><trkpt lat="43.47916408937506" lon="11.029921405012228"><ele>272.0</ele><time>2026-05-01T09:01:20Z</time></trkpt><trkpt lat="43.479263675688586" lon="11.029883647967944"><ele>272.0</ele><time>2026-05-01T09:01:21Z</time></trkpt><trkpt lat="43.47934205546613" lon="11.029810171135079"><ele>272.0</ele><time>2026-05-01T09:01:22Z</time></trkpt><trkpt lat="43.479399110837036" lon="11.02969530315983"><ele>272.0</ele><time>2026-05-01T09:01:23Z</time></trkpt><trkpt lat="43.479425812166895" lon="11.02955079553357"><ele>272.0</ele><time>2026-05-01T09:01:24Z</time></trkpt><trkpt lat="43.47941604593384" lon="11.029391233594655"><ele>272.0</ele><time>2026-05-01T09:01:25Z</time></trkpt><trkpt lat="43.479386776577506" lon="11.029215702910058"><ele>272.0</ele><time>2026-05-01T09:01:26Z</time></trkpt><trkpt lat="43.47935294285969" lon="11.029017569582894"><ele>272.0</ele><time>2026-05-01T09:01:27Z</time></trkpt><trkpt lat="43.47932260183251" lon="11.028793036826553"><ele>272.0</ele><time>2026-05-01T09:01:28Z</time></trkpt><trkpt lat="43.479289948806105" lon="11.028548799115304"><ele>272.0</ele><time>2026-05-01T09:01:28.999Z</time></trkpt><trkpt lat="43.47926419044503" lon="11.028300552774816"><ele>272.0</ele><time>2026-05-01T09:01:29.999Z</time></trkpt><trkpt lat="43.47926314398771" lon="11.028065374565575"><ele>272.0</ele><time>2026-05-01T09:01:30.999Z</time></trkpt><trkpt lat="43.47927359332395" lon="11.027855041148072"><ele>272.0</ele><time>2026-05-01T09:01:31.999Z</time></trkpt><trkpt lat="43.47927843161162" lon="11.027652115535151"><ele>272.0</ele><time>2026-05-01T09:01:32.999Z</time></trkpt><trkpt lat="43.47925792177394" lon="11.027431223192906"><ele>272.0</ele><time>2026-05-01T09:01:33.999Z</time></trkpt><trkpt lat="43.479204415427574" lon="11.027207709985353"><ele>270.6666666666667</ele><time>2026-05-01T09:01:34.999Z</time></trkpt><trkpt lat="43.47912518115586" lon="11.02698142675147"><ele>269.3333333333333</ele><time>2026-05-01T09:01:35.999Z</time></trkpt><trkpt lat="43.4790313100932" lon="11.026742937885473"><ele>268.0</ele><time>2026-05-01T09:01:36.999Z</time></trkpt><trkpt lat="43.47893677265401" lon="11.026500994703902"><ele>264.3333333333333</ele><time>2026-05-01T09:01:37.999Z</time></trkpt><trkpt lat="43.4788489665128" lon="11.026257554889673"><ele>260.6666666666667</ele><time>2026-05-01T09:01:38.999Z</time></trkpt><trkpt lat="43.478785919636735" lon="11.026010568426345"><ele>257.0</ele><time>2026-05-01T09:01:39.999Z</time></trkpt><trkpt lat="43.47875473584653" lon="11.02575693589813"><ele>258.6666666666667</ele><time>2026-05-01T09:01:40.999Z</time></trkpt><trkpt lat="43.47874713086098" lon="11.025494926566282"><ele>260.3333333333333</ele><time>2026-05-01T09:01:41.999Z</time></trkpt><trkpt lat="43.478768880224536" lon="11.025254980441721"><ele>262.0</ele><time>2026-05-01T09:01:42.999Z</time></trkpt><trkpt lat="43.47882160131981" lon="11.025034743941402"><ele>264.0</ele><time>2026-05-01T09:01:43.999Z</time></trkpt><trkpt lat="43.4789023409454" lon="11.024824771186863"><ele>266.0</ele><time>2026-05-01T09:01:44.999Z</time></trkpt><trkpt lat="43.47899065341828" lon="11.024635098095187"><ele>268.0</ele><time>2026-05-01T09:01:45.999Z</time></trkpt><trkpt lat="43.4790527996268" lon="11.02443731004532"><ele>268.0</ele><time>2026-05-01T09:01:46.999Z</time></trkpt><trkpt lat="43.47908328641054" lon="11.024211638506518"><ele>268.0</ele><time>2026-05-01T09:01:47.999Z</time></trkpt><trkpt lat="43.479100581741186" lon="11.023962999603594"><ele>268.0</ele><time>2026-05-01T09:01:48.999Z</time></trkpt><trkpt lat="43.47911371297174" lon="11.023707695183782"><ele>268.66666666666663</ele><time>2026-05-01T09:01:49.999Z</time></trkpt><trkpt lat="43.47913003911161" lon="11.023444386382536"><ele>269.3333333333333</ele><time>2026-05-01T09:01:50.999Z</time></trkpt><trkpt lat="43.47916429254374" lon="11.023185246953618"><ele>270.0</ele><time>2026-05-01T09:01:51.999Z</time></trkpt><trkpt lat="43.47920807177667" lon="11.022953714292665"><ele>270.3333333333333</ele><time>2026-05-01T09:01:52.999Z</time></trkpt><trkpt lat="43.47925099575779" lon="11.02274769469554"><ele>270.66666666666663</ele><time>2026-05-01T09:01:53.999Z</time></trkpt><trkpt lat="43.47927729590394" lon="11.0225522738987"><ele>271.0</ele><time>2026-05-01T09:01:54.999Z</time></trkpt><trkpt lat="43.47928085993272" lon="11.022331643580534"><ele>271.66666666666663</ele><time>2026-05-01T09:01:55.999Z</time></trkpt><trkpt lat="43.47926278303681" lon="11.022095107904057"><ele>272.3333333333333</ele><time>2026-05-01T09:01:56.999Z</time></trkpt><trkpt lat="43.47923423361525" lon="11.021855008778337"><ele>273.0</ele><time>2026-05-01T09:01:57.999Z</time></trkpt><trkpt lat="43.47920672276125" lon="11.02163772408093"><ele>273.5</ele><time>2026-05-01T09:01:58.999Z</time></trkpt><trkpt lat="43.47920053247831" lon="11.021436843437607"><ele>274.0</ele><time>2026-05-01T09:01:59.999Z</time></trkpt><trkpt lat="43.47922910781055" lon="11.021237800584023"><ele>274.5</ele><time>2026-05-01T09:02:00.999Z</time></trkpt><trkpt lat="43.47928008583908" lon="11.021052352404924"><ele>275.0</ele><time>2026-05-01T09:02:01.999Z</time></trkpt><trkpt lat="43.47934604927291" lon="11.020900765470037"><ele>275.0</ele><time>2026-05-01T09:02:02.999Z</time></trkpt><trkpt lat="43.47944456388333" lon="11.020764060669888"><ele>275.0</ele><time>2026-05-01T09:02:03.999Z</time></trkpt><trkpt lat="43.479574135507505" lon="11.020645225157965"><ele>275.0</ele><time>2026-05-01T09:02:04.999Z</time></trkpt><trkpt lat="43.479717645612986" lon="11.020536573425968"><ele>275.0</ele><time>2026-05-01T09:02:05.999Z</time></trkpt><trkpt lat="43.479859651898266" lon="11.020414762958799"><ele>275.0</ele><time>2026-05-01T09:02:06.999Z</time></trkpt><trkpt lat="43.48000030877107" lon="11.0202604147719"><ele>275.0</ele><time>2026-05-01T09:02:07.999Z</time></trkpt><trkpt lat="43.480134883841565" lon="11.020083579680303"><ele>276.33333333333337</ele><time>2026-05-01T09:02:08.999Z</time></trkpt><trkpt lat="43.48025881872088" lon="11.01991262220927"><ele>277.6666666666667</ele><time>2026-05-01T09:02:09.999Z</time></trkpt><trkpt lat="43.48037311136387" lon="11.019768952037197"><ele>279.0</ele><time>2026-05-01T09:02:10.999Z</time></trkpt><trkpt lat="43.48048714944918" lon="11.01966105798612"><ele>279.0</ele><time>2026-05-01T09:02:11.999Z</time></trkpt><trkpt lat="43.480598868882566" lon="11.019584760408913"><ele>279.0</ele><time>2026-05-01T09:02:12.999Z</time></trkpt><trkpt lat="43.480725510710876" lon="11.019528044691523"><ele>279.0</ele><time>2026-05-01T09:02:13.999Z</time></trkpt><trkpt lat="43.48086539243798" lon="11.019523718298503"><ele>279.0</ele><time>2026-05-01T09:02:14.999Z</time></trkpt><trkpt lat="43.481016081554486" lon="11.019559354502084"><ele>279.0</ele><time>2026-05-01T09:02:15.999Z</time></trkpt><trkpt lat="43.4811725050135" lon="11.01960279281323"><ele>279.0</ele><time>2026-05-01T09:02:16.999Z</time></trkpt><trkpt lat="43.48133088406386" lon="11.019644442260809"><ele>279.0</ele><time>2026-05-01T09:02:17.999Z</time></trkpt><trkpt lat="43.48146521817421" lon="11.019718751756459"><ele>279.3333333333333</ele><time>2026-05-01T09:02:18.999Z</time></trkpt><trkpt lat="43.48158919026598" lon="11.019843186739605"><ele>279.66666666666663</ele><time>2026-05-01T09:02:19.999Z</time></trkpt><trkpt lat="43.48169805318786" lon="11.020009588774963"><ele>280.0</ele><time>2026-05-01T09:02:20.999Z</time></trkpt><trkpt lat="43.48176462244681" lon="11.020222270771379"><ele>276.66666666666663</ele><time>2026-05-01T09:02:21.999Z</time></trkpt><trkpt lat="43.48184673972986" lon="11.02042542937557"><ele>273.3333333333333</ele><time>2026-05-01T09:02:22.999Z</time></trkpt><trkpt lat="43.48189743440236" lon="11.020620305150057"><ele>270.0</ele><time>2026-05-01T09:02:23.999Z</time></trkpt><trkpt lat="43.48195822684776" lon="11.020786648621353"><ele>270.5</ele><time>2026-05-01T09:02:24.999Z</time></trkpt><trkpt lat="43.48204069596222" lon="11.020931781567619"><ele>271.0</ele><time>2026-05-01T09:02:25.999Z</time></trkpt><trkpt lat="43.48214335439387" lon="11.021061501841327"><ele>271.5</ele><time>2026-05-01T09:02:26.999Z</time></trkpt><trkpt lat="43.48225742088866" lon="11.021148271421334"><ele>272.0</ele><time>2026-05-01T09:02:27.999Z</time></trkpt><trkpt lat="43.48238286396959" lon="11.021193700670931"><ele>272.0</ele><time>2026-05-01T09:02:28.998Z</time></trkpt><trkpt lat="43.482520404719395" lon="11.021210459115824"><ele>272.0</ele><time>2026-05-01T09:02:29.997Z</time></trkpt><trkpt lat="43.48264408282631" lon="11.02120205703841"><ele>272.0</ele><time>2026-05-01T09:02:30.997Z</time></trkpt><trkpt lat="43.48274742388942" lon="11.021166003365604"><ele>272.0</ele><time>2026-05-01T09:02:31.997Z</time></trkpt><trkpt lat="43.48283160714682" lon="11.021099232368687"><ele>272.0</ele><time>2026-05-01T09:02:32.997Z</time></trkpt><trkpt lat="43.48291083668167" lon="11.021005100996122"><ele>272.0</ele><time>2026-05-01T09:02:33.997Z</time></trkpt><trkpt lat="43.4829707809873" lon="11.020880730212346"><ele>272.0</ele><time>2026-05-01T09:02:34.997Z</time></trkpt><trkpt lat="43.4830000126167" lon="11.020739783072983"><ele>272.0</ele><time>2026-05-01T09:02:35.997Z</time></trkpt><trkpt lat="43.482999737548475" lon="11.02059009246978"><ele>272.0</ele><time>2026-05-01T09:02:36.997Z</time></trkpt><trkpt lat="43.48298561711776" lon="11.020447462847773"><ele>270.8</ele><time>2026-05-01T09:02:37.997Z</time></trkpt><trkpt lat="43.48297462946154" lon="11.020313271174649"><ele>269.6</ele><time>2026-05-01T09:02:38.997Z</time></trkpt><trkpt lat="43.48296623593168" lon="11.020177395190913"><ele>268.40000000000003</ele><time>2026-05-01T09:02:39.997Z</time></trkpt><trkpt lat="43.48295407846898" lon="11.020037308225396"><ele>267.2</ele><time>2026-05-01T09:02:40.997Z</time></trkpt><trkpt lat="43.48294505018407" lon="11.019891467405003"><ele>266.0</ele><time>2026-05-01T09:02:41.997Z</time></trkpt><trkpt lat="43.48294298317284" lon="11.019735368624415"><ele>266.0</ele><time>2026-05-01T09:02:42.997Z</time></trkpt><trkpt lat="43.4829526312098" lon="11.019578418849179"><ele>266.0</ele><time>2026-05-01T09:02:43.997Z</time></trkpt><trkpt lat="43.482979829254056" lon="11.019418708374253"><ele>266.0</ele><time>2026-05-01T09:02:44.997Z</time></trkpt><trkpt lat="43.48302482150763" lon="11.019267358980509"><ele>266.0</ele><time>2026-05-01T09:02:45.997Z</time></trkpt><trkpt lat="43.48307634943908" lon="11.019120283040223"><ele>267.2</ele><time>2026-05-01T09:02:46.997Z</time></trkpt><trkpt lat="43.48312878820949" lon="11.01899076525582"><ele>268.40000000000003</ele><time>2026-05-01T09:02:47.997Z</time></trkpt><trkpt lat="43.48318306356723" lon="11.018892816344458"><ele>269.6</ele><time>2026-05-01T09:02:48.997Z</time></trkpt><trkpt lat="43.48322526724232" lon="11.018819748881933"><ele>270.8</ele><time>2026-05-01T09:02:49.997Z</time></trkpt><trkpt lat="43.48328633376863" lon="11.018715320174042"><ele>272.0</ele><time>2026-05-01T09:02:51.997Z</time></trkpt><trkpt lat="43.48336840873509" lon="11.018613165847366"><ele>272.0</ele><time>2026-05-01T09:02:53.997Z</time></trkpt><trkpt lat="43.48344500302119" lon="11.018501992137107"><ele>272.0</ele><time>2026-05-01T09:02:55.999Z</time></trkpt><trkpt lat="43.48352530163923" lon="11.018396686506927"><ele>272.0</ele><time>2026-05-01T09:02:57.999Z</time></trkpt><trkpt lat="43.48361563326913" lon="11.018288716169561"><ele>272.0</ele><time>2026-05-01T09:02:59.999Z</time></trkpt><trkpt lat="43.483667182267865" lon="11.018213397982796"><ele>272.0</ele><time>2026-05-01T09:03:00.999Z</time></trkpt><trkpt lat="43.48372759238028" lon="11.018121919820734"><ele>272.0</ele><time>2026-05-01T09:03:01.999Z</time></trkpt><trkpt lat="43.48380915471781" lon="11.018008892239466"><ele>272.0</ele><time>2026-05-01T09:03:02.999Z</time></trkpt><trkpt lat="43.48389067389552" lon="11.017899178998626"><ele>272.0</ele><time>2026-05-01T09:03:03.999Z</time></trkpt><trkpt lat="43.48397562356403" lon="11.017780819507518"><ele>272.0</ele><time>2026-05-01T09:03:04.999Z</time></trkpt><trkpt lat="43.48406477532256" lon="11.017653397647484"><ele>272.0</ele><time>2026-05-01T09:03:05.999Z</time></trkpt><trkpt lat="43.48416505284836" lon="11.017516085250168"><ele>272.0</ele><time>2026-05-01T09:03:06.999Z</time></trkpt><trkpt lat="43.48427937181736" lon="11.017363702602376"><ele>272.0</ele><time>2026-05-01T09:03:07.999Z</time></trkpt><trkpt lat="43.484390565133424" lon="11.017212948855086"><ele>270.33333333333337</ele><time>2026-05-01T09:03:08.999Z</time></trkpt><trkpt lat="43.48450286722211" lon="11.017057625642877"><ele>268.6666666666667</ele><time>2026-05-01T09:03:09.999Z</time></trkpt><trkpt lat="43.484612291986956" lon="11.016909762269707"><ele>267.0</ele><time>2026-05-01T09:03:10.999Z</time></trkpt><trkpt lat="43.4847195020598" lon="11.016762451820313"><ele>268.75</ele><time>2026-05-01T09:03:11.999Z</time></trkpt><trkpt lat="43.484822904159486" lon="11.01661238016368"><ele>270.5</ele><time>2026-05-01T09:03:12.999Z</time></trkpt><trkpt lat="43.484929805493266" lon="11.016470603445384"><ele>272.25</ele><time>2026-05-01T09:03:13.999Z</time></trkpt><trkpt lat="43.48503778829989" lon="11.016337599935948"><ele>274.0</ele><time>2026-05-01T09:03:14.999Z</time></trkpt><trkpt lat="43.48515280908378" lon="11.016211100616758"><ele>274.0</ele><time>2026-05-01T09:03:15.999Z</time></trkpt><trkpt lat="43.48527848483912" lon="11.01609067788345"><ele>274.0</ele><time>2026-05-01T09:03:16.999Z</time></trkpt><trkpt lat="43.485406617137656" lon="11.015978117233098"><ele>274.0</ele><time>2026-05-01T09:03:17.999Z</time></trkpt><trkpt lat="43.48553330219826" lon="11.015868530011854"><ele>274.66666666666663</ele><time>2026-05-01T09:03:18.999Z</time></trkpt><trkpt lat="43.48566115594889" lon="11.015761039549668"><ele>275.3333333333333</ele><time>2026-05-01T09:03:19.999Z</time></trkpt><trkpt lat="43.485791749472845" lon="11.015655680848264"><ele>276.0</ele><time>2026-05-01T09:03:20.999Z</time></trkpt><trkpt lat="43.485922903412025" lon="11.015553553285168"><ele>276.0</ele><time>2026-05-01T09:03:21.999Z</time></trkpt><trkpt lat="43.48605508712837" lon="11.015458497652709"><ele>276.0</ele><time>2026-05-01T09:03:22.999Z</time></trkpt><trkpt lat="43.48619021739631" lon="11.015369725592322"><ele>276.0</ele><time>2026-05-01T09:03:23.999Z</time></trkpt><trkpt lat="43.486333915927574" lon="11.015298257602032"><ele>274.25</ele><time>2026-05-01T09:03:24.999Z</time></trkpt><trkpt lat="43.48646987223591" lon="11.015254803748238"><ele>272.5</ele><time>2026-05-01T09:03:25.999Z</time></trkpt><trkpt lat="43.48659801218454" lon="11.015215354520107"><ele>270.75</ele><time>2026-05-01T09:03:26.999Z</time></trkpt><trkpt lat="43.486712632309775" lon="11.015173966210329"><ele>269.0</ele><time>2026-05-01T09:03:27.999Z</time></trkpt><trkpt lat="43.48681203386797" lon="11.015124300737343"><ele>269.0</ele><time>2026-05-01T09:03:28.999Z</time></trkpt><trkpt lat="43.48690184002314" lon="11.015052657180254"><ele>269.0</ele><time>2026-05-01T09:03:29.999Z</time></trkpt><trkpt lat="43.486975544465956" lon="11.014948174448087"><ele>269.0</ele><time>2026-05-01T09:03:30.999Z</time></trkpt><trkpt lat="43.48702649998112" lon="11.014813358637038"><ele>269.0</ele><time>2026-05-01T09:03:31.999Z</time></trkpt><trkpt lat="43.48705332077045" lon="11.014673078538133"><ele>269.0</ele><time>2026-05-01T09:03:32.999Z</time></trkpt><trkpt lat="43.4870670281894" lon="11.014552366068896"><ele>268.8</ele><time>2026-05-01T09:03:33.999Z</time></trkpt><trkpt lat="43.48708876598742" lon="11.014437743966154"><ele>268.59999999999997</ele><time>2026-05-01T09:03:34.999Z</time></trkpt><trkpt lat="43.48713053955568" lon="11.01432036764222"><ele>268.4</ele><time>2026-05-01T09:03:35.999Z</time></trkpt><trkpt lat="43.4871868691775" lon="11.01421454536356"><ele>268.2</ele><time>2026-05-01T09:03:36.999Z</time></trkpt><trkpt lat="43.48725862728774" lon="11.014114740287296"><ele>268.0</ele><time>2026-05-01T09:03:37.999Z</time></trkpt><trkpt lat="43.487343630997984" lon="11.014024759503767"><ele>270.2</ele><time>2026-05-01T09:03:38.999Z</time></trkpt><trkpt lat="43.48743902708631" lon="11.013945695260293"><ele>272.4</ele><time>2026-05-01T09:03:39.999Z</time></trkpt><trkpt lat="43.487542728891874" lon="11.01389265879049"><ele>274.59999999999997</ele><time>2026-05-01T09:03:40.999Z</time></trkpt><trkpt lat="43.48765080463792" lon="11.013859922367459"><ele>276.8</ele><time>2026-05-01T09:03:41.999Z</time></trkpt><trkpt lat="43.48776457261989" lon="11.013845631698006"><ele>279.0</ele><time>2026-05-01T09:03:42.999Z</time></trkpt><trkpt lat="43.48788853382925" lon="11.013851887877045"><ele>279.25</ele><time>2026-05-01T09:03:43.999Z</time></trkpt><trkpt lat="43.488015990880164" lon="11.013881357200379"><ele>279.5</ele><time>2026-05-01T09:03:44.999Z</time></trkpt><trkpt lat="43.48814299642294" lon="11.013942750183443"><ele>279.75</ele><time>2026-05-01T09:03:45.999Z</time></trkpt><trkpt lat="43.4882582637976" lon="11.014039063403622"><ele>280.0</ele><time>2026-05-01T09:03:46.999Z</time></trkpt><trkpt lat="43.48835611213473" lon="11.014168683187679"><ele>277.25</ele><time>2026-05-01T09:03:47.999Z</time></trkpt><trkpt lat="43.48843450776415" lon="11.014299117716565"><ele>274.5</ele><time>2026-05-01T09:03:48.999Z</time></trkpt><trkpt lat="43.48851016236641" lon="11.01442671537776"><ele>271.75</ele><time>2026-05-01T09:03:49.999Z</time></trkpt><trkpt lat="43.48859005244998" lon="11.014533275566013"><ele>269.0</ele><time>2026-05-01T09:03:50.999Z</time></trkpt><trkpt lat="43.488676197977455" lon="11.014611542780221"><ele>270.0</ele><time>2026-05-01T09:03:51.999Z</time></trkpt><trkpt lat="43.48877800203913" lon="11.014663704287806"><ele>271.0</ele><time>2026-05-01T09:03:52.999Z</time></trkpt><trkpt lat="43.488893355961956" lon="11.014686742970495"><ele>272.0</ele><time>2026-05-01T09:03:53.999Z</time></trkpt><trkpt lat="43.4890130737836" lon="11.014679266590322"><ele>273.0</ele><time>2026-05-01T09:03:54.999Z</time></trkpt><trkpt lat="43.48914747315404" lon="11.014632685042328"><ele>273.0</ele><time>2026-05-01T09:03:55.999Z</time></trkpt><trkpt lat="43.48930548778564" lon="11.014560503382667"><ele>273.0</ele><time>2026-05-01T09:03:56.999Z</time></trkpt><trkpt lat="43.4894885967456" lon="11.014500741983097"><ele>273.0</ele><time>2026-05-01T09:03:57.999Z</time></trkpt><trkpt lat="43.4896856875601" lon="11.014455068000759"><ele>271.6666666666667</ele><time>2026-05-01T09:03:58.999Z</time></trkpt><trkpt lat="43.48986040297716" lon="11.0144193579214"><ele>270.33333333333337</ele><time>2026-05-01T09:03:59.999Z</time></trkpt><trkpt lat="43.490022002147526" lon="11.014382682231666"><ele>269.0</ele><time>2026-05-01T09:04:00.999Z</time></trkpt><trkpt lat="43.49017054688205" lon="11.014374848003808"><ele>269.0</ele><time>2026-05-01T09:04:01.998Z</time></trkpt><trkpt lat="43.49031766883282" lon="11.014412871040886"><ele>269.0</ele><time>2026-05-01T09:04:02.998Z</time></trkpt><trkpt lat="43.490453120914616" lon="11.014496083714475"><ele>269.0</ele><time>2026-05-01T09:04:03.998Z</time></trkpt><trkpt lat="43.49057697654402" lon="11.014616913987936"><ele>269.25</ele><time>2026-05-01T09:04:04.998Z</time></trkpt><trkpt lat="43.49067395240282" lon="11.014767429065351"><ele>269.5</ele><time>2026-05-01T09:04:05.998Z</time></trkpt><trkpt lat="43.490748489234036" lon="11.01494493477292"><ele>269.75</ele><time>2026-05-01T09:04:06.998Z</time></trkpt><trkpt lat="43.490763462324885" lon="11.015141474446683"><ele>270.0</ele><time>2026-05-01T09:04:07.998Z</time></trkpt><trkpt lat="43.49075603910253" lon="11.015330953517736"><ele>268.6666666666667</ele><time>2026-05-01T09:04:08.998Z</time></trkpt><trkpt lat="43.49071671155112" lon="11.01553238613767"><ele>267.33333333333337</ele><time>2026-05-01T09:04:09.998Z</time></trkpt><trkpt lat="43.490653105562764" lon="11.015746239156224"><ele>266.0</ele><time>2026-05-01T09:04:10.998Z</time></trkpt><trkpt lat="43.49056973243965" lon="11.015972005071577"><ele>265.6666666666667</ele><time>2026-05-01T09:04:11.998Z</time></trkpt><trkpt lat="43.490475427049944" lon="11.016213336111443"><ele>265.3333333333333</ele><time>2026-05-01T09:04:12.998Z</time></trkpt><trkpt lat="43.49038374851935" lon="11.016446002159801"><ele>265.0</ele><time>2026-05-01T09:04:13.998Z</time></trkpt><trkpt lat="43.49030130513606" lon="11.016655230721707"><ele>261.5</ele><time>2026-05-01T09:04:14.998Z</time></trkpt><trkpt lat="43.49022911561898" lon="11.016838436728806"><ele>258.0</ele><time>2026-05-01T09:04:15.998Z</time></trkpt><trkpt lat="43.490182026467096" lon="11.01701077623944"><ele>254.5</ele><time>2026-05-01T09:04:16.998Z</time></trkpt><trkpt lat="43.490141462061544" lon="11.017165023578949"><ele>251.0</ele><time>2026-05-01T09:04:17.998Z</time></trkpt><trkpt lat="43.490132741488445" lon="11.017315038670404"><ele>251.0</ele><time>2026-05-01T09:04:18.998Z</time></trkpt><trkpt lat="43.490163679341975" lon="11.01745957565218"><ele>251.00000000000003</ele><time>2026-05-01T09:04:19.998Z</time></trkpt><trkpt lat="43.49023227022213" lon="11.017586879536237"><ele>251.00000000000003</ele><time>2026-05-01T09:04:20.998Z</time></trkpt><trkpt lat="43.49031989030815" lon="11.017658221636252"><ele>251.0</ele><time>2026-05-01T09:04:21.998Z</time></trkpt><trkpt lat="43.490432137102395" lon="11.017685896986094"><ele>251.0</ele><time>2026-05-01T09:04:22.998Z</time></trkpt><trkpt lat="43.49055694534032" lon="11.017665229857148"><ele>253.0</ele><time>2026-05-01T09:04:23.998Z</time></trkpt><trkpt lat="43.4906884991481" lon="11.01759677092899"><ele>255.0</ele><time>2026-05-01T09:04:24.998Z</time></trkpt><trkpt lat="43.49083914855046" lon="11.017523247991463"><ele>257.0</ele><time>2026-05-01T09:04:25.998Z</time></trkpt><trkpt lat="43.49098863439666" lon="11.017462834093415"><ele>257.0</ele><time>2026-05-01T09:04:26.998Z</time></trkpt><trkpt lat="43.491120689192066" lon="11.017427797548576"><ele>257.0</ele><time>2026-05-01T09:04:27.998Z</time></trkpt><trkpt lat="43.49124086884652" lon="11.017415035444428"><ele>257.0</ele><time>2026-05-01T09:04:28.998Z</time></trkpt><trkpt lat="43.49134363648604" lon="11.017446157437481"><ele>257.0</ele><time>2026-05-01T09:04:29.998Z</time></trkpt><trkpt lat="43.49143007066006" lon="11.017518116804968"><ele>257.0</ele><time>2026-05-01T09:04:30.998Z</time></trkpt><trkpt lat="43.49149192721081" lon="11.017632688698516"><ele>257.0</ele><time>2026-05-01T09:04:31.998Z</time></trkpt><trkpt lat="43.49153160915721" lon="11.01778287374397"><ele>257.0</ele><time>2026-05-01T09:04:32.998Z</time></trkpt><trkpt lat="43.49151830726608" lon="11.017953596343634"><ele>257.0</ele><time>2026-05-01T09:04:33.998Z</time></trkpt><trkpt lat="43.491485858422365" lon="11.018111310437476"><ele>257.0</ele><time>2026-05-01T09:04:34.998Z</time></trkpt><trkpt lat="43.491417751394934" lon="11.018256331861902"><ele>257.0</ele><time>2026-05-01T09:04:35.998Z</time></trkpt><trkpt lat="43.491328527585004" lon="11.0184106214219"><ele>257.0</ele><time>2026-05-01T09:04:36.998Z</time></trkpt><trkpt lat="43.49123155071705" lon="11.018589159463371"><ele>257.0</ele><time>2026-05-01T09:04:37.998Z</time></trkpt><trkpt lat="43.49114391100403" lon="11.018750117070455"><ele>253.25</ele><time>2026-05-01T09:04:38.998Z</time></trkpt><trkpt lat="43.49108235407963" lon="11.018893804695667"><ele>249.5</ele><time>2026-05-01T09:04:39.998Z</time></trkpt><trkpt lat="43.49101359081527" lon="11.019007127532936"><ele>245.75</ele><time>2026-05-01T09:04:40.998Z</time></trkpt><trkpt lat="43.49100454774072" lon="11.019155229784374"><ele>242.0</ele><time>2026-05-01T09:04:41.998Z</time></trkpt><trkpt lat="43.49101435484727" lon="11.019320039824382"><ele>240.33333333333334</ele><time>2026-05-01T09:04:42.998Z</time></trkpt><trkpt lat="43.49104381987812" lon="11.019507778346878"><ele>238.66666666666669</ele><time>2026-05-01T09:04:43.998Z</time></trkpt><trkpt lat="43.491071387430935" lon="11.019720529328863"><ele>237.0</ele><time>2026-05-01T09:04:44.998Z</time></trkpt><trkpt lat="43.49109717431782" lon="11.019954159757384"><ele>235.66666666666669</ele><time>2026-05-01T09:04:45.998Z</time></trkpt><trkpt lat="43.49112399306555" lon="11.020196384050138"><ele>234.33333333333334</ele><time>2026-05-01T09:04:46.998Z</time></trkpt><trkpt lat="43.49114523105898" lon="11.020430322627652"><ele>233.0</ele><time>2026-05-01T09:04:47.998Z</time></trkpt><trkpt lat="43.491167754811755" lon="11.020667325683439"><ele>232.0</ele><time>2026-05-01T09:04:48.998Z</time></trkpt><trkpt lat="43.491202644947016" lon="11.020910391218026"><ele>231.0</ele><time>2026-05-01T09:04:49.998Z</time></trkpt><trkpt lat="43.49125355429692" lon="11.021154920492304"><ele>230.0</ele><time>2026-05-01T09:04:50.998Z</time></trkpt><trkpt lat="43.491302972378044" lon="11.021363642291998"><ele>232.0</ele><time>2026-05-01T09:04:51.998Z</time></trkpt><trkpt lat="43.49134659579593" lon="11.021539172402578"><ele>234.0</ele><time>2026-05-01T09:04:52.998Z</time></trkpt><trkpt lat="43.491391290954105" lon="11.021687551954171"><ele>236.0</ele><time>2026-05-01T09:04:53.998Z</time></trkpt><trkpt lat="43.491454992620206" lon="11.0218100156282"><ele>238.0</ele><time>2026-05-01T09:04:54.998Z</time></trkpt><trkpt lat="43.49154276568764" lon="11.02190263240302"><ele>238.0</ele><time>2026-05-01T09:04:55.998Z</time></trkpt><trkpt lat="43.49165158520669" lon="11.021943230914596"><ele>238.0</ele><time>2026-05-01T09:04:56.998Z</time></trkpt><trkpt lat="43.49177364110915" lon="11.021934993729545"><ele>238.0</ele><time>2026-05-01T09:04:57.998Z</time></trkpt><trkpt lat="43.49187905774116" lon="11.021877259007766"><ele>238.0</ele><time>2026-05-01T09:04:58.998Z</time></trkpt><trkpt lat="43.49197768970371" lon="11.021773148628291"><ele>238.0</ele><time>2026-05-01T09:04:59.998Z</time></trkpt><trkpt lat="43.492081905771734" lon="11.021651174118837"><ele>238.0</ele><time>2026-05-01T09:05:00.997Z</time></trkpt><trkpt lat="43.49217277589366" lon="11.021548824641219"><ele>238.0</ele><time>2026-05-01T09:05:02Z</time></trkpt><trkpt lat="43.492264211601196" lon="11.02147956798799"><ele>238.0</ele><time>2026-05-01T09:05:03Z</time></trkpt><trkpt lat="43.492370193780836" lon="11.02145222185751"><ele>237.25</ele><time>2026-05-01T09:05:04Z</time></trkpt><trkpt lat="43.49247833380941" lon="11.021487670576546"><ele>236.5</ele><time>2026-05-01T09:05:05Z</time></trkpt><trkpt lat="43.4925737566457" lon="11.021583599813567"><ele>235.75</ele><time>2026-05-01T09:05:06Z</time></trkpt><trkpt lat="43.49263176309486" lon="11.021727961216115"><ele>235.0</ele><time>2026-05-01T09:05:07Z</time></trkpt><trkpt lat="43.49266118274007" lon="11.021905695470885"><ele>235.0</ele><time>2026-05-01T09:05:08Z</time></trkpt><trkpt lat="43.49266822573408" lon="11.0221035716193"><ele>235.0</ele><time>2026-05-01T09:05:09Z</time></trkpt><trkpt lat="43.49267280008647" lon="11.022288655464216"><ele>235.0</ele><time>2026-05-01T09:05:10Z</time></trkpt><trkpt lat="43.492691232917245" lon="11.022461073674169"><ele>235.0</ele><time>2026-05-01T09:05:11Z</time></trkpt><trkpt lat="43.49273827100293" lon="11.022606959028945"><ele>234.25</ele><time>2026-05-01T09:05:12Z</time></trkpt><trkpt lat="43.49281363975653" lon="11.022715463590036"><ele>233.5</ele><time>2026-05-01T09:05:13Z</time></trkpt><trkpt lat="43.492914391014025" lon="11.022780563133768"><ele>232.75</ele><time>2026-05-01T09:05:14Z</time></trkpt><trkpt lat="43.49304027423076" lon="11.022804124864301"><ele>232.0</ele><time>2026-05-01T09:05:15Z</time></trkpt><trkpt lat="43.49317351149706" lon="11.02279216472606"><ele>232.0</ele><time>2026-05-01T09:05:16Z</time></trkpt><trkpt lat="43.49328855924197" lon="11.022814316647963"><ele>232.0</ele><time>2026-05-01T09:05:17Z</time></trkpt><trkpt lat="43.493393687018916" lon="11.022894248563778"><ele>232.0</ele><time>2026-05-01T09:05:18Z</time></trkpt><trkpt lat="43.493456460274956" lon="11.0230169829339"><ele>232.0</ele><time>2026-05-01T09:05:19Z</time></trkpt><trkpt lat="43.493470254221535" lon="11.02317457392309"><ele>232.0</ele><time>2026-05-01T09:05:20Z</time></trkpt><trkpt lat="43.49345357433431" lon="11.023309845786214"><ele>232.0</ele><time>2026-05-01T09:05:21Z</time></trkpt><trkpt lat="43.49339589902812" lon="11.023444445152734"><ele>232.0</ele><time>2026-05-01T09:05:22Z</time></trkpt><trkpt lat="43.49333366782032" lon="11.023608302103003"><ele>232.0</ele><time>2026-05-01T09:05:23Z</time></trkpt><trkpt lat="43.49325932111158" lon="11.023742324975936"><ele>230.6</ele><time>2026-05-01T09:05:24Z</time></trkpt><trkpt lat="43.49321904774368" lon="11.023875373566828"><ele>229.2</ele><time>2026-05-01T09:05:25Z</time></trkpt><trkpt lat="43.49320522704616" lon="11.02400534320399"><ele>227.8</ele><time>2026-05-01T09:05:26Z</time></trkpt><trkpt lat="43.49327916425406" lon="11.024136883444438"><ele>226.4</ele><time>2026-05-01T09:05:26.999Z</time></trkpt><trkpt lat="43.49336577426488" lon="11.024222904850546"><ele>225.0</ele><time>2026-05-01T09:05:27.999Z</time></trkpt><trkpt lat="43.493473553482055" lon="11.024250714501695"><ele>225.0</ele><time>2026-05-01T09:05:28.999Z</time></trkpt><trkpt lat="43.4935950820469" lon="11.024218682431293"><ele>225.0</ele><time>2026-05-01T09:05:29.999Z</time></trkpt><trkpt lat="43.49373212957657" lon="11.02414149903393"><ele>225.0</ele><time>2026-05-01T09:05:30.999Z</time></trkpt><trkpt lat="43.49386976963186" lon="11.024054320603604"><ele>225.0</ele><time>2026-05-01T09:05:31.999Z</time></trkpt><trkpt lat="43.49399215943962" lon="11.023982893548876"><ele>225.0</ele><time>2026-05-01T09:05:32.999Z</time></trkpt><trkpt lat="43.494110319233634" lon="11.02394632052843"><ele>225.0</ele><time>2026-05-01T09:05:33.999Z</time></trkpt><trkpt lat="43.49424102419916" lon="11.02395956302857"><ele>225.0</ele><time>2026-05-01T09:05:34.999Z</time></trkpt><trkpt lat="43.49436289123679" lon="11.024032521050215"><ele>225.0</ele><time>2026-05-01T09:05:35.999Z</time></trkpt><trkpt lat="43.49446665731854" lon="11.02416743995502"><ele>224.0</ele><time>2026-05-01T09:05:36.999Z</time></trkpt><trkpt lat="43.49454678309012" lon="11.024357683784366"><ele>223.0</ele><time>2026-05-01T09:05:37.999Z</time></trkpt><trkpt lat="43.494624682247554" lon="11.024565646200656"><ele>222.0</ele><time>2026-05-01T09:05:38.999Z</time></trkpt><trkpt lat="43.494718539338805" lon="11.024787461855041"><ele>219.66666666666669</ele><time>2026-05-01T09:05:39.999Z</time></trkpt><trkpt lat="43.49479926149709" lon="11.024991588489774"><ele>217.33333333333334</ele><time>2026-05-01T09:05:40.999Z</time></trkpt><trkpt lat="43.49486803327606" lon="11.025174794096516"><ele>215.0</ele><time>2026-05-01T09:05:41.999Z</time></trkpt><trkpt lat="43.49494597534681" lon="11.025334948833972"><ele>215.0</ele><time>2026-05-01T09:05:42.999Z</time></trkpt><trkpt lat="43.495036123676265" lon="11.025472194062752"><ele>215.0</ele><time>2026-05-01T09:05:43.999Z</time></trkpt><trkpt lat="43.495149273066225" lon="11.025583931555236"><ele>215.0</ele><time>2026-05-01T09:05:44.999Z</time></trkpt><trkpt lat="43.4952786801793" lon="11.02565931874738"><ele>215.0</ele><time>2026-05-01T09:05:45.999Z</time></trkpt><trkpt lat="43.49541114151405" lon="11.025689394764637"><ele>213.5</ele><time>2026-05-01T09:05:46.999Z</time></trkpt><trkpt lat="43.49553036026129" lon="11.025695814269577"><ele>212.0</ele><time>2026-05-01T09:05:47.999Z</time></trkpt><trkpt lat="43.49563670812029" lon="11.025665800267845"><ele>210.5</ele><time>2026-05-01T09:05:48.999Z</time></trkpt><trkpt lat="43.49572783677781" lon="11.025597854957068"><ele>209.0</ele><time>2026-05-01T09:05:49.999Z</time></trkpt><trkpt lat="43.49581866588655" lon="11.025482829776166"><ele>209.0</ele><time>2026-05-01T09:05:50.999Z</time></trkpt><trkpt lat="43.49589786186232" lon="11.025316100715203"><ele>209.0</ele><time>2026-05-01T09:05:51.999Z</time></trkpt><trkpt lat="43.49596681065228" lon="11.025118576741955"><ele>209.0</ele><time>2026-05-01T09:05:52.999Z</time></trkpt><trkpt lat="43.49602556486015" lon="11.024939703598399"><ele>209.0</ele><time>2026-05-01T09:05:53.999Z</time></trkpt><trkpt lat="43.49608764635258" lon="11.024808601656943"><ele>208.75</ele><time>2026-05-01T09:05:54.999Z</time></trkpt><trkpt lat="43.496166419764855" lon="11.024726019552833"><ele>208.5</ele><time>2026-05-01T09:05:55.999Z</time></trkpt><trkpt lat="43.49627814390409" lon="11.024684814977585"><ele>208.25</ele><time>2026-05-01T09:05:56.999Z</time></trkpt><trkpt lat="43.49640440288449" lon="11.02470105589432"><ele>208.0</ele><time>2026-05-01T09:05:57.999Z</time></trkpt><trkpt lat="43.4965201973324" lon="11.024768738619128"><ele>208.0</ele><time>2026-05-01T09:05:58.999Z</time></trkpt><trkpt lat="43.496644002852975" lon="11.024874550364654"><ele>208.0</ele><time>2026-05-01T09:05:59.999Z</time></trkpt><trkpt lat="43.49677337315695" lon="11.024975648728391"><ele>208.0</ele><time>2026-05-01T09:06:00.999Z</time></trkpt><trkpt lat="43.49690592871789" lon="11.025069468276898"><ele>208.0</ele><time>2026-05-01T09:06:01.999Z</time></trkpt><trkpt lat="43.4970271363859" lon="11.025152846261427"><ele>205.75</ele><time>2026-05-01T09:06:02.999Z</time></trkpt><trkpt lat="43.497156473795314" lon="11.025203342677969"><ele>203.5</ele><time>2026-05-01T09:06:03.999Z</time></trkpt><trkpt lat="43.49730225050853" lon="11.025225019145328"><ele>201.25</ele><time>2026-05-01T09:06:04.999Z</time></trkpt><trkpt lat="43.497449466614455" lon="11.025217637635043"><ele>199.0</ele><time>2026-05-01T09:06:05.999Z</time></trkpt><trkpt lat="43.49760423297629" lon="11.025161777408764"><ele>199.0</ele><time>2026-05-01T09:06:06.999Z</time></trkpt><trkpt lat="43.49776535981709" lon="11.025078464487413"><ele>199.0</ele><time>2026-05-01T09:06:07.999Z</time></trkpt><trkpt lat="43.49791163367143" lon="11.025012157640804"><ele>199.0</ele><time>2026-05-01T09:06:08.999Z</time></trkpt><trkpt lat="43.4980676707421" lon="11.024968307770596"><ele>199.33333333333331</ele><time>2026-05-01T09:06:09.999Z</time></trkpt><trkpt lat="43.498237440286104" lon="11.02494422893064"><ele>199.66666666666669</ele><time>2026-05-01T09:06:10.999Z</time></trkpt><trkpt lat="43.49841626310816" lon="11.024949129839653"><ele>200.0</ele><time>2026-05-01T09:06:11.999Z</time></trkpt><trkpt lat="43.498598298754175" lon="11.024979722821138"><ele>198.5</ele><time>2026-05-01T09:06:12.999Z</time></trkpt><trkpt lat="43.4987630075154" lon="11.02501186498531"><ele>197.0</ele><time>2026-05-01T09:06:13.999Z</time></trkpt><trkpt lat="43.49890240005683" lon="11.025025174427526"><ele>195.5</ele><time>2026-05-01T09:06:14.999Z</time></trkpt><trkpt lat="43.49903477710312" lon="11.025005766598893"><ele>194.0</ele><time>2026-05-01T09:06:15.999Z</time></trkpt><trkpt lat="43.49916331261789" lon="11.02494981252626"><ele>194.0</ele><time>2026-05-01T09:06:16.999Z</time></trkpt><trkpt lat="43.49928122881012" lon="11.024835859774212"><ele>194.0</ele><time>2026-05-01T09:06:17.999Z</time></trkpt><trkpt lat="43.49938407933344" lon="11.024677723272754"><ele>194.0</ele><time>2026-05-01T09:06:18.999Z</time></trkpt><trkpt lat="43.499463955099415" lon="11.024516355260355"><ele>194.0</ele><time>2026-05-01T09:06:19.999Z</time></trkpt><trkpt lat="43.499529300060225" lon="11.024393830058274"><ele>192.79999999999998</ele><time>2026-05-01T09:06:20.999Z</time></trkpt><trkpt lat="43.49959494289924" lon="11.02432276961528"><ele>191.6</ele><time>2026-05-01T09:06:21.999Z</time></trkpt><trkpt lat="43.49968893453865" lon="11.024296130112482"><ele>190.4</ele><time>2026-05-01T09:06:22.998Z</time></trkpt><trkpt lat="43.499798872060616" lon="11.024320253423664"><ele>189.2</ele><time>2026-05-01T09:06:23.998Z</time></trkpt><trkpt lat="43.4999161012754" lon="11.02439002743102"><ele>188.0</ele><time>2026-05-01T09:06:24.998Z</time></trkpt><trkpt lat="43.50003521941886" lon="11.02449909049826"><ele>188.0</ele><time>2026-05-01T09:06:25.998Z</time></trkpt><trkpt lat="43.50015358994548" lon="11.02463200178745"><ele>188.0</ele><time>2026-05-01T09:06:26.998Z</time></trkpt><trkpt lat="43.50028162883713" lon="11.024735258165109"><ele>188.0</ele><time>2026-05-01T09:06:27.998Z</time></trkpt><trkpt lat="43.50044342957682" lon="11.024800452885541"><ele>186.0</ele><time>2026-05-01T09:06:28.998Z</time></trkpt><trkpt lat="43.500634652479725" lon="11.024846864353966"><ele>184.0</ele><time>2026-05-01T09:06:29.998Z</time></trkpt><trkpt lat="43.50083741945596" lon="11.02489473797882"><ele>182.0</ele><time>2026-05-01T09:06:30.998Z</time></trkpt><trkpt lat="43.5010188387173" lon="11.024942562645279"><ele>182.0</ele><time>2026-05-01T09:06:31.998Z</time></trkpt><trkpt lat="43.50118689344009" lon="11.024975270787458"><ele>182.0</ele><time>2026-05-01T09:06:32.998Z</time></trkpt><trkpt lat="43.50137194512345" lon="11.024978199053963"><ele>182.0</ele><time>2026-05-01T09:06:33.998Z</time></trkpt><trkpt lat="43.50157456888178" lon="11.024955359256104"><ele>179.33333333333331</ele><time>2026-05-01T09:06:34.998Z</time></trkpt><trkpt lat="43.501779311663185" lon="11.024935036174863"><ele>176.66666666666666</ele><time>2026-05-01T09:06:35.998Z</time></trkpt><trkpt lat="43.50196911065551" lon="11.024910134461358"><ele>174.0</ele><time>2026-05-01T09:06:36.998Z</time></trkpt><trkpt lat="43.502142667308746" lon="11.02487797514592"><ele>172.0</ele><time>2026-05-01T09:06:37.998Z</time></trkpt><trkpt lat="43.5023071599984" lon="11.024855597148376"><ele>170.0</ele><time>2026-05-01T09:06:38.998Z</time></trkpt><trkpt lat="43.502471315768695" lon="11.024859720218796"><ele>168.0</ele><time>2026-05-01T09:06:39.998Z</time></trkpt><trkpt lat="43.502643961769145" lon="11.024897830996121"><ele>168.0</ele><time>2026-05-01T09:06:40.998Z</time></trkpt><trkpt lat="43.502817962265325" lon="11.024961380625705"><ele>168.0</ele><time>2026-05-01T09:06:41.998Z</time></trkpt><trkpt lat="43.502994220277884" lon="11.025043675090046"><ele>168.0</ele><time>2026-05-01T09:06:42.998Z</time></trkpt><trkpt lat="43.50316782384899" lon="11.025157298275381"><ele>167.66666666666666</ele><time>2026-05-01T09:06:43.998Z</time></trkpt><trkpt lat="43.50332519768335" lon="11.025272910847747"><ele>167.33333333333331</ele><time>2026-05-01T09:06:44.998Z</time></trkpt><trkpt lat="43.503468671519" lon="11.025372694488246"><ele>167.0</ele><time>2026-05-01T09:06:45.998Z</time></trkpt><trkpt lat="43.503592988906625" lon="11.025452463968115"><ele>167.0</ele><time>2026-05-01T09:06:46.998Z</time></trkpt><trkpt lat="43.50372952412355" lon="11.025493579901786"><ele>167.0</ele><time>2026-05-01T09:06:47.998Z</time></trkpt><trkpt lat="43.50389382006967" lon="11.025495192276432"><ele>167.0</ele><time>2026-05-01T09:06:48.998Z</time></trkpt><trkpt lat="43.50408086717116" lon="11.025477061151232"><ele>166.66666666666666</ele><time>2026-05-01T09:06:49.998Z</time></trkpt><trkpt lat="43.504281527525166" lon="11.025450612545333"><ele>166.33333333333334</ele><time>2026-05-01T09:06:50.998Z</time></trkpt><trkpt lat="43.50449130320203" lon="11.025406330355926"><ele>166.0</ele><time>2026-05-01T09:06:51.998Z</time></trkpt><trkpt lat="43.50467700930993" lon="11.02536008306397"><ele>164.0</ele><time>2026-05-01T09:06:52.998Z</time></trkpt><trkpt lat="43.504846198327314" lon="11.025320420669319"><ele>162.0</ele><time>2026-05-01T09:06:53.998Z</time></trkpt><trkpt lat="43.505006671577036" lon="11.025289833887678"><ele>160.0</ele><time>2026-05-01T09:06:54.998Z</time></trkpt><trkpt lat="43.505160189311816" lon="11.025276300886318"><ele>160.0</ele><time>2026-05-01T09:06:55.998Z</time></trkpt><trkpt lat="43.50532712221429" lon="11.02530685166042"><ele>160.0</ele><time>2026-05-01T09:06:56.998Z</time></trkpt><trkpt lat="43.5055027345054" lon="11.025387807673432"><ele>160.0</ele><time>2026-05-01T09:06:57.998Z</time></trkpt><trkpt lat="43.50569169808191" lon="11.025492163752466"><ele>160.66666666666669</ele><time>2026-05-01T09:06:58.998Z</time></trkpt><trkpt lat="43.50587958958288" lon="11.025602056707058"><ele>161.33333333333334</ele><time>2026-05-01T09:06:59.998Z</time></trkpt><trkpt lat="43.5060469340554" lon="11.025716415474415"><ele>162.0</ele><time>2026-05-01T09:07:00.998Z</time></trkpt><trkpt lat="43.506199630913635" lon="11.025840901063559"><ele>159.75</ele><time>2026-05-01T09:07:01.998Z</time></trkpt><trkpt lat="43.5063287736709" lon="11.025975185363396"><ele>157.5</ele><time>2026-05-01T09:07:02.998Z</time></trkpt><trkpt lat="43.506440820905375" lon="11.026115159058303"><ele>155.25</ele><time>2026-05-01T09:07:03.998Z</time></trkpt><trkpt lat="43.506530866822274" lon="11.026243306238095"><ele>153.0</ele><time>2026-05-01T09:07:04.998Z</time></trkpt><trkpt lat="43.506599581901206" lon="11.026354340960394"><ele>153.0</ele><time>2026-05-01T09:07:05.998Z</time></trkpt><trkpt lat="43.50666712551969" lon="11.026443542583507"><ele>153.0</ele><time>2026-05-01T09:07:06.998Z</time></trkpt><trkpt lat="43.50674334780931" lon="11.026511331692626"><ele>153.0</ele><time>2026-05-01T09:07:08Z</time></trkpt><trkpt lat="43.50682126455459" lon="11.02655988780581"><ele>153.0</ele><time>2026-05-01T09:07:09Z</time></trkpt><trkpt lat="43.506907767922584" lon="11.026603338448917"><ele>153.0</ele><time>2026-05-01T09:07:10Z</time></trkpt><trkpt lat="43.50701331631169" lon="11.026642371322191"><ele>149.0</ele><time>2026-05-01T09:07:11Z</time></trkpt><trkpt lat="43.507125554476076" lon="11.02666898564157"><ele>145.0</ele><time>2026-05-01T09:07:12Z</time></trkpt><trkpt lat="43.50724531545621" lon="11.026684893941562"><ele>141.0</ele><time>2026-05-01T09:07:13Z</time></trkpt><trkpt lat="43.50736727135918" lon="11.026702544688916"><ele>137.0</ele><time>2026-05-01T09:07:14Z</time></trkpt><trkpt lat="43.50748256212737" lon="11.026735773402535"><ele>137.0</ele><time>2026-05-01T09:07:15Z</time></trkpt><trkpt lat="43.50761899377616" lon="11.026776478413097"><ele>137.0</ele><time>2026-05-01T09:07:16Z</time></trkpt><trkpt lat="43.507798555364765" lon="11.026795640415758"><ele>137.0</ele><time>2026-05-01T09:07:17Z</time></trkpt><trkpt lat="43.50801244113596" lon="11.026820647449137"><ele>136.66666666666666</ele><time>2026-05-01T09:07:18Z</time></trkpt><trkpt lat="43.50821722450525" lon="11.026867224520327"><ele>136.33333333333334</ele><time>2026-05-01T09:07:19Z</time></trkpt><trkpt lat="43.50840152519946" lon="11.026900187937553"><ele>136.0</ele><time>2026-05-01T09:07:20Z</time></trkpt><trkpt lat="43.508577537933405" lon="11.026923408982679"><ele>134.0</ele><time>2026-05-01T09:07:21Z</time></trkpt><trkpt lat="43.5087503026723" lon="11.026934883351709"><ele>132.0</ele><time>2026-05-01T09:07:22Z</time></trkpt><trkpt lat="43.50894110020205" lon="11.026925949003326"><ele>130.0</ele><time>2026-05-01T09:07:23Z</time></trkpt><trkpt lat="43.5091466315808" lon="11.026885211120867"><ele>130.0</ele><time>2026-05-01T09:07:24Z</time></trkpt><trkpt lat="43.50935417464789" lon="11.026824410469057"><ele>130.0</ele><time>2026-05-01T09:07:25Z</time></trkpt><trkpt lat="43.50956576738515" lon="11.02675884676145"><ele>130.0</ele><time>2026-05-01T09:07:26Z</time></trkpt><trkpt lat="43.5097750407452" lon="11.026701321969847"><ele>133.33333333333334</ele><time>2026-05-01T09:07:27Z</time></trkpt><trkpt lat="43.50998125914611" lon="11.026649138554946"><ele>136.66666666666666</ele><time>2026-05-01T09:07:28Z</time></trkpt><trkpt lat="43.51017230577635" lon="11.026601619948044"><ele>140.0</ele><time>2026-05-01T09:07:29Z</time></trkpt><trkpt lat="43.51035993332535" lon="11.02655771271342"><ele>135.66666666666666</ele><time>2026-05-01T09:07:30Z</time></trkpt><trkpt lat="43.51055761604475" lon="11.026523244603139"><ele>131.33333333333334</ele><time>2026-05-01T09:07:31Z</time></trkpt><trkpt lat="43.510759692356615" lon="11.026461314657283"><ele>127.0</ele><time>2026-05-01T09:07:32Z</time></trkpt><trkpt lat="43.51097230945592" lon="11.026373488577816"><ele>127.0</ele><time>2026-05-01T09:07:33Z</time></trkpt><trkpt lat="43.51119212816662" lon="11.02630413297769"><ele>127.0</ele><time>2026-05-01T09:07:34Z</time></trkpt><trkpt lat="43.511424587588756" lon="11.02626716066256"><ele>125.33333333333334</ele><time>2026-05-01T09:07:35Z</time></trkpt><trkpt lat="43.51163908654811" lon="11.026239560976475"><ele>123.66666666666666</ele><time>2026-05-01T09:07:36Z</time></trkpt><trkpt lat="43.51184184535827" lon="11.026220648021766"><ele>122.0</ele><time>2026-05-01T09:07:37Z</time></trkpt><trkpt lat="43.51204697795927" lon="11.026202368666441"><ele>120.33333333333333</ele><time>2026-05-01T09:07:38Z</time></trkpt><trkpt lat="43.51224268615794" lon="11.026166888353444"><ele>118.66666666666666</ele><time>2026-05-01T09:07:39Z</time></trkpt><trkpt lat="43.512441523087226" lon="11.02611745860304"><ele>117.0</ele><time>2026-05-01T09:07:40Z</time></trkpt><trkpt lat="43.51264250066961" lon="11.026044385241324"><ele>117.0</ele><time>2026-05-01T09:07:41Z</time></trkpt><trkpt lat="43.51284684222622" lon="11.02595204938117"><ele>117.0</ele><time>2026-05-01T09:07:42Z</time></trkpt><trkpt lat="43.513033802829" lon="11.025855275412097"><ele>117.0</ele><time>2026-05-01T09:07:43Z</time></trkpt><trkpt lat="43.513208026251036" lon="11.025771500735441"><ele>113.66666666666666</ele><time>2026-05-01T09:07:44Z</time></trkpt><trkpt lat="43.51337903455003" lon="11.025718901447378"><ele>110.33333333333333</ele><time>2026-05-01T09:07:44.999Z</time></trkpt><trkpt lat="43.51356036717418" lon="11.025685819054479"><ele>107.0</ele><time>2026-05-01T09:07:45.999Z</time></trkpt><trkpt lat="43.51375530384208" lon="11.025682962005982"><ele>101.5</ele><time>2026-05-01T09:07:46.999Z</time></trkpt><trkpt lat="43.51397118187354" lon="11.025716711006643"><ele>96.0</ele><time>2026-05-01T09:07:47.999Z</time></trkpt><trkpt lat="43.51420754430249" lon="11.025780405586874"><ele>95.33333333333333</ele><time>2026-05-01T09:07:48.999Z</time></trkpt><trkpt lat="43.51442391976545" lon="11.025841242552449"><ele>94.66666666666666</ele><time>2026-05-01T09:07:49.999Z</time></trkpt><trkpt lat="43.51461459278263" lon="11.025892844096532"><ele>94.0</ele><time>2026-05-01T09:07:50.999Z</time></trkpt><trkpt lat="43.514792741398374" lon="11.02593755636021"><ele>92.5</ele><time>2026-05-01T09:07:51.999Z</time></trkpt><trkpt lat="43.514956939721934" lon="11.025976386641677"><ele>91.0</ele><time>2026-05-01T09:07:52.999Z</time></trkpt><trkpt lat="43.51510316913889" lon="11.025991730388881"><ele>89.5</ele><time>2026-05-01T09:07:53.999Z</time></trkpt><trkpt lat="43.51523557009209" lon="11.025983186299538"><ele>88.0</ele><time>2026-05-01T09:07:54.999Z</time></trkpt><trkpt lat="43.51536227465492" lon="11.025933795744828"><ele>87.0</ele><time>2026-05-01T09:07:55.999Z</time></trkpt><trkpt lat="43.51549411557687" lon="11.025824639336387"><ele>86.0</ele><time>2026-05-01T09:07:56.999Z</time></trkpt><trkpt lat="43.51562551277955" lon="11.025681097281545"><ele>85.0</ele><time>2026-05-01T09:07:57.999Z</time></trkpt><trkpt lat="43.515751264431316" lon="11.025555973499937"><ele>85.0</ele><time>2026-05-01T09:07:58.999Z</time></trkpt><trkpt lat="43.515909858791375" lon="11.025469804207948"><ele>85.0</ele><time>2026-05-01T09:07:59.999Z</time></trkpt><trkpt lat="43.51609437119957" lon="11.025428431885846"><ele>85.0</ele><time>2026-05-01T09:08:00.999Z</time></trkpt><trkpt lat="43.51628292602874" lon="11.025401732414387"><ele>85.66666666666666</ele><time>2026-05-01T09:08:01.999Z</time></trkpt><trkpt lat="43.51648064441843" lon="11.025368362285695"><ele>86.33333333333333</ele><time>2026-05-01T09:08:02.999Z</time></trkpt><trkpt lat="43.516685966541445" lon="11.025332128825044"><ele>87.0</ele><time>2026-05-01T09:08:03.999Z</time></trkpt><trkpt lat="43.51690696768566" lon="11.02531612933395"><ele>88.33333333333333</ele><time>2026-05-01T09:08:04.999Z</time></trkpt><trkpt lat="43.51712622661114" lon="11.025323472642215"><ele>89.66666666666666</ele><time>2026-05-01T09:08:05.999Z</time></trkpt><trkpt lat="43.517344402867195" lon="11.025341897524237"><ele>91.0</ele><time>2026-05-01T09:08:06.999Z</time></trkpt><trkpt lat="43.517563336809374" lon="11.025362973329235"><ele>91.0</ele><time>2026-05-01T09:08:07.999Z</time></trkpt><trkpt lat="43.517778862694904" lon="11.025376562885768"><ele>91.0</ele><time>2026-05-01T09:08:08.999Z</time></trkpt><trkpt lat="43.51799173350407" lon="11.02538962747093"><ele>91.0</ele><time>2026-05-01T09:08:09.999Z</time></trkpt><trkpt lat="43.518200834088425" lon="11.025405909833246"><ele>91.0</ele><time>2026-05-01T09:08:10.999Z</time></trkpt><trkpt lat="43.518410811034165" lon="11.02542215886031"><ele>91.0</ele><time>2026-05-01T09:08:11.999Z</time></trkpt><trkpt lat="43.518622952105304" lon="11.025433305682506"><ele>91.0</ele><time>2026-05-01T09:08:12.999Z</time></trkpt><trkpt lat="43.518837665194994" lon="11.025443039766019"><ele>91.0</ele><time>2026-05-01T09:08:13.999Z</time></trkpt><trkpt lat="43.51906197706774" lon="11.025429818642065"><ele>91.0</ele><time>2026-05-01T09:08:14.999Z</time></trkpt><trkpt lat="43.51930051749123" lon="11.02540795547842"><ele>91.0</ele><time>2026-05-01T09:08:15.999Z</time></trkpt><trkpt lat="43.519534052736326" lon="11.025401910033104"><ele>91.0</ele><time>2026-05-01T09:08:16.999Z</time></trkpt><trkpt lat="43.51975354275365" lon="11.025412640814608"><ele>90.33333333333333</ele><time>2026-05-01T09:08:17.999Z</time></trkpt><trkpt lat="43.51995424151956" lon="11.025434607508071"><ele>89.66666666666667</ele><time>2026-05-01T09:08:18.999Z</time></trkpt><trkpt lat="43.520139138796665" lon="11.025449256041053"><ele>89.0</ele><time>2026-05-01T09:08:19.999Z</time></trkpt><trkpt lat="43.5203062564621" lon="11.025448304407819"><ele>86.66666666666667</ele><time>2026-05-01T09:08:20.999Z</time></trkpt><trkpt lat="43.52047571683315" lon="11.025420515431506"><ele>84.33333333333333</ele><time>2026-05-01T09:08:21.999Z</time></trkpt><trkpt lat="43.52065645205763" lon="11.025359959293413"><ele>82.0</ele><time>2026-05-01T09:08:22.999Z</time></trkpt><trkpt lat="43.52085057806526" lon="11.02526800764142"><ele>82.0</ele><time>2026-05-01T09:08:23.999Z</time></trkpt><trkpt lat="43.52105708137019" lon="11.02516536192927"><ele>82.0</ele><time>2026-05-01T09:08:24.999Z</time></trkpt><trkpt lat="43.521240318220165" lon="11.025080213254638"><ele>82.0</ele><time>2026-05-01T09:08:25.999Z</time></trkpt><trkpt lat="43.521402868048014" lon="11.025004100524251"><ele>80.66666666666666</ele><time>2026-05-01T09:08:26.999Z</time></trkpt><trkpt lat="43.52155798478332" lon="11.024934488462275"><ele>79.33333333333333</ele><time>2026-05-01T09:08:27.999Z</time></trkpt><trkpt lat="43.52170491421651" lon="11.024885283468194"><ele>78.0</ele><time>2026-05-01T09:08:28.999Z</time></trkpt><trkpt lat="43.521866987400436" lon="11.024868383284481"><ele>78.0</ele><time>2026-05-01T09:08:29.999Z</time></trkpt><trkpt lat="43.52202938178082" lon="11.024897527641102"><ele>78.0</ele><time>2026-05-01T09:08:30.999Z</time></trkpt><trkpt lat="43.52218716791138" lon="11.02497596416305"><ele>78.0</ele><time>2026-05-01T09:08:31.999Z</time></trkpt><trkpt lat="43.52233522992602" lon="11.025097870925634"><ele>80.33333333333333</ele><time>2026-05-01T09:08:32.999Z</time></trkpt><trkpt lat="43.52246590676968" lon="11.025264518115838"><ele>82.66666666666666</ele><time>2026-05-01T09:08:33.999Z</time></trkpt><trkpt lat="43.52258092874075" lon="11.025456883235368"><ele>85.0</ele><time>2026-05-01T09:08:34.999Z</time></trkpt><trkpt lat="43.522700667337084" lon="11.025639883225908"><ele>85.0</ele><time>2026-05-01T09:08:35.999Z</time></trkpt><trkpt lat="43.52284716816052" lon="11.025808481602938"><ele>85.0</ele><time>2026-05-01T09:08:36.999Z</time></trkpt><trkpt lat="43.52302062030058" lon="11.025970071357042"><ele>85.0</ele><time>2026-05-01T09:08:37.999Z</time></trkpt><trkpt lat="43.52321022472734" lon="11.026135439049744"><ele>85.0</ele><time>2026-05-01T09:08:38.999Z</time></trkpt><trkpt lat="43.52340946956877" lon="11.026302767423228"><ele>85.0</ele><time>2026-05-01T09:08:39.999Z</time></trkpt><trkpt lat="43.52360458857786" lon="11.026464646056537"><ele>86.33333333333333</ele><time>2026-05-01T09:08:40.999Z</time></trkpt><trkpt lat="43.52378827543947" lon="11.026620875604717"><ele>87.66666666666667</ele><time>2026-05-01T09:08:41.999Z</time></trkpt><trkpt lat="43.52396442472352" lon="11.026763272950523"><ele>89.0</ele><time>2026-05-01T09:08:42.998Z</time></trkpt><trkpt lat="43.52415554353041" lon="11.026882269532425"><ele>87.33333333333334</ele><time>2026-05-01T09:08:43.998Z</time></trkpt><trkpt lat="43.524372066034374" lon="11.026967211333584"><ele>85.66666666666667</ele><time>2026-05-01T09:08:44.998Z</time></trkpt><trkpt lat="43.52458932882087" lon="11.027039580959125"><ele>84.0</ele><time>2026-05-01T09:08:45.998Z</time></trkpt><trkpt lat="43.52480570430546" lon="11.027167600599078"><ele>84.0</ele><time>2026-05-01T09:08:46.998Z</time></trkpt><trkpt lat="43.52502734749685" lon="11.027344043979854"><ele>84.0</ele><time>2026-05-01T09:08:47.998Z</time></trkpt><trkpt lat="43.52526068050935" lon="11.027522578856066"><ele>82.5</ele><time>2026-05-01T09:08:48.998Z</time></trkpt><trkpt lat="43.52549691939444" lon="11.027689333637678"><ele>81.0</ele><time>2026-05-01T09:08:49.998Z</time></trkpt><trkpt lat="43.525728587331784" lon="11.027848714478584"><ele>81.0</ele><time>2026-05-01T09:08:50.998Z</time></trkpt><trkpt lat="43.525939335043056" lon="11.02801621519999"><ele>81.0</ele><time>2026-05-01T09:08:51.998Z</time></trkpt><trkpt lat="43.52615709866712" lon="11.028169617490262"><ele>80.0</ele><time>2026-05-01T09:08:52.998Z</time></trkpt><trkpt lat="43.526382811839326" lon="11.0283319243942"><ele>79.0</ele><time>2026-05-01T09:08:53.998Z</time></trkpt><trkpt lat="43.526613752885545" lon="11.028509280667862"><ele>79.0</ele><time>2026-05-01T09:08:54.998Z</time></trkpt><trkpt lat="43.526831601906316" lon="11.028737641589307"><ele>79.0</ele><time>2026-05-01T09:08:55.998Z</time></trkpt><trkpt lat="43.52704377216456" lon="11.029015260356339"><ele>79.5</ele><time>2026-05-01T09:08:56.998Z</time></trkpt><trkpt lat="43.52724760403765" lon="11.029332470104029"><ele>80.0</ele><time>2026-05-01T09:08:57.998Z</time></trkpt><trkpt lat="43.52745346899835" lon="11.029674014991215"><ele>78.0</ele><time>2026-05-01T09:08:58.998Z</time></trkpt><trkpt lat="43.52766380446561" lon="11.030019452763511"><ele>76.0</ele><time>2026-05-01T09:08:59.998Z</time></trkpt><trkpt lat="43.527851398583124" lon="11.030321466165798"><ele>76.5</ele><time>2026-05-01T09:09:00.998Z</time></trkpt><trkpt lat="43.52802625808872" lon="11.03059546261259"><ele>77.0</ele><time>2026-05-01T09:09:01.998Z</time></trkpt><trkpt lat="43.52818892657882" lon="11.030858007827538"><ele>77.0</ele><time>2026-05-01T09:09:02.998Z</time></trkpt><trkpt lat="43.528345435041" lon="11.031115768288583"><ele>77.0</ele><time>2026-05-01T09:09:03.998Z</time></trkpt><trkpt lat="43.52847967416307" lon="11.031367277563628"><ele>75.5</ele><time>2026-05-01T09:09:04.998Z</time></trkpt><trkpt lat="43.528558691156704" lon="11.03166209649678"><ele>74.0</ele><time>2026-05-01T09:09:05.998Z</time></trkpt><trkpt lat="43.52862614857412" lon="11.03198124712741"><ele>74.0</ele><time>2026-05-01T09:09:06.998Z</time></trkpt><trkpt lat="43.52870453973536" lon="11.032311071630383"><ele>74.0</ele><time>2026-05-01T09:09:07.998Z</time></trkpt><trkpt lat="43.52877952096506" lon="11.032660301139897"><ele>77.0</ele><time>2026-05-01T09:09:08.998Z</time></trkpt><trkpt lat="43.528835938651014" lon="11.033025595791754"><ele>80.0</ele><time>2026-05-01T09:09:09.998Z</time></trkpt><trkpt lat="43.528918384992764" lon="11.033368880227581"><ele>80.0</ele><time>2026-05-01T09:09:10.998Z</time></trkpt><trkpt lat="43.52898263273099" lon="11.033703983959256"><ele>80.0</ele><time>2026-05-01T09:09:11.998Z</time></trkpt><trkpt lat="43.529031956970755" lon="11.034039116211947"><ele>79.0</ele><time>2026-05-01T09:09:12.998Z</time></trkpt><trkpt lat="43.52909316432382" lon="11.034364076530279"><ele>78.0</ele><time>2026-05-01T09:09:14Z</time></trkpt><trkpt lat="43.52915151636635" lon="11.034676778332228"><ele>77.0</ele><time>2026-05-01T09:09:15Z</time></trkpt><trkpt lat="43.529208329093734" lon="11.03498123113496"><ele>76.0</ele><time>2026-05-01T09:09:16Z</time></trkpt><trkpt lat="43.52926288453821" lon="11.035282542477182"><ele>76.0</ele><time>2026-05-01T09:09:17Z</time></trkpt><trkpt lat="43.52932803654189" lon="11.035559458708592"><ele>76.0</ele><time>2026-05-01T09:09:18Z</time></trkpt><trkpt lat="43.529371560576536" lon="11.035817247478239"><ele>76.0</ele><time>2026-05-01T09:09:19Z</time></trkpt><trkpt lat="43.529417241927085" lon="11.036055467450709"><ele>76.0</ele><time>2026-05-01T09:09:20Z</time></trkpt><trkpt lat="43.52946875130843" lon="11.036284951114776"><ele>76.0</ele><time>2026-05-01T09:09:21Z</time></trkpt><trkpt lat="43.52954106641894" lon="11.036519596542865"><ele>76.0</ele><time>2026-05-01T09:09:22Z</time></trkpt><trkpt lat="43.52963409546059" lon="11.036756812786574"><ele>75.66666666666666</ele><time>2026-05-01T09:09:23Z</time></trkpt><trkpt lat="43.529741784867106" lon="11.036997129004941"><ele>75.33333333333333</ele><time>2026-05-01T09:09:24Z</time></trkpt><trkpt lat="43.52985726864865" lon="11.037234839838977"><ele>75.0</ele><time>2026-05-01T09:09:25Z</time></trkpt><trkpt lat="43.52997859768455" lon="11.037467000413114"><ele>73.66666666666667</ele><time>2026-05-01T09:09:26Z</time></trkpt><trkpt lat="43.53010085529086" lon="11.03769804778503"><ele>72.33333333333334</ele><time>2026-05-01T09:09:27Z</time></trkpt><trkpt lat="43.53021925552276" lon="11.037931016973005"><ele>71.0</ele><time>2026-05-01T09:09:28Z</time></trkpt><trkpt lat="43.53033525971917" lon="11.038163955569757"><ele>70.66666666666667</ele><time>2026-05-01T09:09:29Z</time></trkpt><trkpt lat="43.53045280588732" lon="11.038394508534205"><ele>70.33333333333333</ele><time>2026-05-01T09:09:30Z</time></trkpt><trkpt lat="43.530574552058155" lon="11.038617209810376"><ele>70.0</ele><time>2026-05-01T09:09:31Z</time></trkpt><trkpt lat="43.53070243724071" lon="11.038827432549477"><ele>70.0</ele><time>2026-05-01T09:09:32Z</time></trkpt><trkpt lat="43.53084475165993" lon="11.039034232191375"><ele>70.0</ele><time>2026-05-01T09:09:33Z</time></trkpt><trkpt lat="43.53099436135489" lon="11.039228652622384"><ele>70.0</ele><time>2026-05-01T09:09:34Z</time></trkpt><trkpt lat="43.53115635771966" lon="11.039416293257299"><ele>70.0</ele><time>2026-05-01T09:09:35Z</time></trkpt><trkpt lat="43.53132869181004" lon="11.039593119395144"><ele>70.0</ele><time>2026-05-01T09:09:36Z</time></trkpt><trkpt lat="43.53150999511415" lon="11.039761155449963"><ele>70.0</ele><time>2026-05-01T09:09:37Z</time></trkpt><trkpt lat="43.531699029309564" lon="11.039918239952344"><ele>69.33333333333333</ele><time>2026-05-01T09:09:38Z</time></trkpt><trkpt lat="43.53189230170981" lon="11.0400551169224"><ele>68.66666666666667</ele><time>2026-05-01T09:09:39Z</time></trkpt><trkpt lat="43.53209722397962" lon="11.040170881544622"><ele>68.0</ele><time>2026-05-01T09:09:40Z</time></trkpt><trkpt lat="43.53230385490541" lon="11.040259006324188"><ele>67.33333333333334</ele><time>2026-05-01T09:09:41Z</time></trkpt><trkpt lat="43.53249630929176" lon="11.040311918766104"><ele>66.66666666666667</ele><time>2026-05-01T09:09:42Z</time></trkpt><trkpt lat="43.53267800477425" lon="11.040353099744971"><ele>66.0</ele><time>2026-05-01T09:09:43Z</time></trkpt><trkpt lat="43.532851032956756" lon="11.040378391246827"><ele>65.75</ele><time>2026-05-01T09:09:44Z</time></trkpt><trkpt lat="43.5330113622418" lon="11.040378706525035"><ele>65.5</ele><time>2026-05-01T09:09:45Z</time></trkpt><trkpt lat="43.53315747750227" lon="11.040366256483376"><ele>65.25</ele><time>2026-05-01T09:09:46Z</time></trkpt><trkpt lat="43.53329192098253" lon="11.040340414272"><ele>65.0</ele><time>2026-05-01T09:09:47Z</time></trkpt><trkpt lat="43.533405168731434" lon="11.040295475534728"><ele>65.0</ele><time>2026-05-01T09:09:48Z</time></trkpt><trkpt lat="43.53349795968361" lon="11.040249499615008"><ele>65.0</ele><time>2026-05-01T09:09:49Z</time></trkpt><trkpt lat="43.533572946050896" lon="11.040223060193293"><ele>65.0</ele><time>2026-05-01T09:09:50Z</time></trkpt><trkpt lat="43.533662308558924" lon="11.040210094331009"><ele>65.0</ele><time>2026-05-01T09:09:52Z</time></trkpt><trkpt lat="43.53373965625218" lon="11.040274178437107"><ele>65.0</ele><time>2026-05-01T09:09:54Z</time></trkpt><trkpt lat="43.53387017750434" lon="11.040327825714598"><ele>65.16666666666667</ele><time>2026-05-01T09:09:56Z</time></trkpt><trkpt lat="43.533949771065" lon="11.040358655406916"><ele>65.33333333333334</ele><time>2026-05-01T09:09:57Z</time></trkpt><trkpt lat="43.53403550533794" lon="11.040370878584024"><ele>65.5</ele><time>2026-05-01T09:09:58Z</time></trkpt><trkpt lat="43.53412265983001" lon="11.040342288727484"><ele>65.66666666666667</ele><time>2026-05-01T09:09:59Z</time></trkpt><trkpt lat="43.534202532967164" lon="11.04027219603386"><ele>65.83333333333333</ele><time>2026-05-01T09:10:00Z</time></trkpt><trkpt lat="43.53426503133717" lon="11.040176783613866"><ele>66.0</ele><time>2026-05-01T09:10:01Z</time></trkpt><trkpt lat="43.53430022885161" lon="11.040058562710355"><ele>66.0</ele><time>2026-05-01T09:10:02Z</time></trkpt><trkpt lat="43.5343055871122" lon="11.0399337164263"><ele>66.0</ele><time>2026-05-01T09:10:03Z</time></trkpt><trkpt lat="43.53428268896924" lon="11.039802766417315"><ele>66.0</ele><time>2026-05-01T09:10:04Z</time></trkpt><trkpt lat="43.534225542695125" lon="11.03969391120984"><ele>66.0</ele><time>2026-05-01T09:10:04.999Z</time></trkpt><trkpt lat="43.53414600354666" lon="11.039595752811609"><ele>66.0</ele><time>2026-05-01T09:10:05.999Z</time></trkpt><trkpt lat="43.534042696389044" lon="11.039507245859609"><ele>66.0</ele><time>2026-05-01T09:10:06.999Z</time></trkpt><trkpt lat="43.53394575478014" lon="11.039430648262185"><ele>66.0</ele><time>2026-05-01T09:10:07.999Z</time></trkpt><trkpt lat="43.53388991851175" lon="11.039277679354917"><ele>66.0</ele><time>2026-05-01T09:10:08.999Z</time></trkpt><trkpt lat="43.53384328758266" lon="11.039106513998526"><ele>66.0</ele><time>2026-05-01T09:10:09.999Z</time></trkpt><trkpt lat="43.53380816751361" lon="11.038931719622468"><ele>66.0</ele><time>2026-05-01T09:10:10.999Z</time></trkpt><trkpt lat="43.533742350664106" lon="11.038754265907565"><ele>66.0</ele><time>2026-05-01T09:10:11.999Z</time></trkpt><trkpt lat="43.53364306041093" lon="11.038584066081581"><ele>66.0</ele><time>2026-05-01T09:10:12.999Z</time></trkpt><trkpt lat="43.53351470895676" lon="11.03842709936786"><ele>67.0</ele><time>2026-05-01T09:10:13.999Z</time></trkpt><trkpt lat="43.533355995359656" lon="11.038285023430598"><ele>68.0</ele><time>2026-05-01T09:10:14.999Z</time></trkpt><trkpt lat="43.533189658596186" lon="11.038145545650245"><ele>69.0</ele><time>2026-05-01T09:10:15.999Z</time></trkpt><trkpt lat="43.5330394762535" lon="11.037992018611714"><ele>69.0</ele><time>2026-05-01T09:10:16.999Z</time></trkpt><trkpt lat="43.53290596244543" lon="11.037818199886884"><ele>69.0</ele><time>2026-05-01T09:10:17.999Z</time></trkpt><trkpt lat="43.532794004268155" lon="11.037618436525651"><ele>69.0</ele><time>2026-05-01T09:10:18.999Z</time></trkpt><trkpt lat="43.5327004833027" lon="11.037396912307104"><ele>69.0</ele><time>2026-05-01T09:10:19.999Z</time></trkpt><trkpt lat="43.53263313610468" lon="11.037145295578863"><ele>69.0</ele><time>2026-05-01T09:10:20.999Z</time></trkpt><trkpt lat="43.532590815990275" lon="11.03686594717475"><ele>69.0</ele><time>2026-05-01T09:10:21.999Z</time></trkpt><trkpt lat="43.532573345738925" lon="11.036582516164344"><ele>69.0</ele><time>2026-05-01T09:10:22.999Z</time></trkpt><trkpt lat="43.53257694141452" lon="11.036300724168004"><ele>69.0</ele><time>2026-05-01T09:10:23.999Z</time></trkpt><trkpt lat="43.532590670105606" lon="11.036013548666888"><ele>69.0</ele><time>2026-05-01T09:10:24.999Z</time></trkpt><trkpt lat="43.532613515357575" lon="11.03572496941066"><ele>69.66666666666667</ele><time>2026-05-01T09:10:25.999Z</time></trkpt><trkpt lat="43.53264215042269" lon="11.035439709679165"><ele>70.33333333333334</ele><time>2026-05-01T09:10:26.999Z</time></trkpt><trkpt lat="43.53267414187593" lon="11.035155426801243"><ele>71.0</ele><time>2026-05-01T09:10:27.999Z</time></trkpt><trkpt lat="43.53271860892723" lon="11.034871965563273"><ele>71.0</ele><time>2026-05-01T09:10:28.999Z</time></trkpt><trkpt lat="43.532776059626116" lon="11.034592405745387"><ele>71.0</ele><time>2026-05-01T09:10:29.999Z</time></trkpt><trkpt lat="43.53284018895132" lon="11.034317772267642"><ele>71.0</ele><time>2026-05-01T09:10:30.999Z</time></trkpt><trkpt lat="43.53290983692559" lon="11.03404654387913"><ele>71.0</ele><time>2026-05-01T09:10:31.999Z</time></trkpt><trkpt lat="43.53298487329158" lon="11.033775043112714"><ele>71.0</ele><time>2026-05-01T09:10:32.999Z</time></trkpt><trkpt lat="43.533065850841105" lon="11.033507155046694"><ele>71.0</ele><time>2026-05-01T09:10:33.999Z</time></trkpt><trkpt lat="43.533161484514544" lon="11.033245545993832"><ele>71.33333333333334</ele><time>2026-05-01T09:10:34.999Z</time></trkpt><trkpt lat="43.533263434890586" lon="11.032986991648128"><ele>71.66666666666667</ele><time>2026-05-01T09:10:35.999Z</time></trkpt><trkpt lat="43.53337024169424" lon="11.032731014281637"><ele>72.0</ele><time>2026-05-01T09:10:36.999Z</time></trkpt><trkpt lat="43.53348834351771" lon="11.03248004969866"><ele>74.33333333333333</ele><time>2026-05-01T09:10:37.999Z</time></trkpt><trkpt lat="43.533618983264134" lon="11.03223550748088"><ele>76.66666666666666</ele><time>2026-05-01T09:10:38.999Z</time></trkpt><trkpt lat="43.533755171928355" lon="11.031994534231764"><ele>79.0</ele><time>2026-05-01T09:10:39.999Z</time></trkpt><trkpt lat="43.533898400706306" lon="11.03175976986359"><ele>86.0</ele><time>2026-05-01T09:10:40.999Z</time></trkpt><trkpt lat="43.534049808829145" lon="11.031534972770574"><ele>93.0</ele><time>2026-05-01T09:10:41.999Z</time></trkpt><trkpt lat="43.534211257426286" lon="11.03132093878674"><ele>100.0</ele><time>2026-05-01T09:10:42.999Z</time></trkpt><trkpt lat="43.534378005198256" lon="11.031111193952698"><ele>100.0</ele><time>2026-05-01T09:10:43.999Z</time></trkpt><trkpt lat="43.53455089261867" lon="11.030908721008348"><ele>100.0</ele><time>2026-05-01T09:10:44.999Z</time></trkpt><trkpt lat="43.53473187286723" lon="11.03071867155616"><ele>110.0</ele><time>2026-05-01T09:10:45.999Z</time></trkpt><trkpt lat="43.5349148840184" lon="11.030536085735898"><ele>120.0</ele><time>2026-05-01T09:10:46.999Z</time></trkpt><trkpt lat="43.53511481606971" lon="11.03035163338461"><ele>120.0</ele><time>2026-05-01T09:10:48.069Z</time></trkpt><trkpt lat="43.535302673529245" lon="11.030184626429717"><ele>120.0</ele><time>2026-05-01T09:10:49.07Z</time></trkpt><trkpt lat="43.535492769546785" lon="11.030023502440294"><ele>120.0</ele><time>2026-05-01T09:10:50.068Z</time></trkpt><trkpt lat="43.535683557132366" lon="11.029863988878665"><ele>121.33333333333334</ele><time>2026-05-01T09:10:51.069Z</time></trkpt><trkpt lat="43.53587773202563" lon="11.029710151348528"><ele>122.66666666666667</ele><time>2026-05-01T09:10:52.068Z</time></trkpt><trkpt lat="43.536068724764405" lon="11.029557111956622"><ele>124.0</ele><time>2026-05-01T09:10:53.053Z</time></trkpt><trkpt lat="43.53832795101589" lon="11.027641919669232"><ele>102.0</ele><time>2026-05-01T09:10:57.603Z</time></trkpt><trkpt lat="43.53885141703446" lon="11.027152811793552"><ele>98.0</ele><time>2026-05-01T09:10:58.608Z</time></trkpt><trkpt lat="43.539340477782446" lon="11.026607243043005"><ele>76.0</ele><time>2026-05-01T09:10:59.608Z</time></trkpt><trkpt lat="43.53980370372228" lon="11.026025903269849"><ele>76.0</ele><time>2026-05-01T09:11:00.603Z</time></trkpt><trkpt lat="43.5398624" lon="11.0259519"><ele>76.0</ele><time>2026-05-01T09:11:01.608Z</time></trkpt><trkpt lat="43.54009441217912" lon="11.025671348516223"><ele>76.0</ele><time>2026-05-01T09:11:15.998Z</time></trkpt><trkpt lat="43.54027213493645" lon="11.025474380653437"><ele>74.0</ele><time>2026-05-01T09:11:16.998Z</time></trkpt><trkpt lat="43.54043330164999" lon="11.02528874251584"><ele>72.0</ele><time>2026-05-01T09:11:17.998Z</time></trkpt><trkpt lat="43.54059132016707" lon="11.025081543739724"><ele>70.0</ele><time>2026-05-01T09:11:18.998Z</time></trkpt><trkpt lat="43.54074768313977" lon="11.024878664481877"><ele>69.66666666666666</ele><time>2026-05-01T09:11:19.998Z</time></trkpt><trkpt lat="43.54090320793775" lon="11.02467404123052"><ele>69.33333333333333</ele><time>2026-05-01T09:11:20.998Z</time></trkpt><trkpt lat="43.541063628395804" lon="11.02446840298707"><ele>69.0</ele><time>2026-05-01T09:11:22Z</time></trkpt><trkpt lat="43.54122111193759" lon="11.024268894130064"><ele>69.0</ele><time>2026-05-01T09:11:23Z</time></trkpt><trkpt lat="43.54137698216155" lon="11.024067385294655"><ele>69.0</ele><time>2026-05-01T09:11:24Z</time></trkpt><trkpt lat="43.541523084829144" lon="11.023876039555486"><ele>69.0</ele><time>2026-05-01T09:11:25Z</time></trkpt><trkpt lat="43.54166654309388" lon="11.023690857622668"><ele>69.0</ele><time>2026-05-01T09:11:26Z</time></trkpt><trkpt lat="43.541813773026256" lon="11.023507701832422"><ele>69.0</ele><time>2026-05-01T09:11:27Z</time></trkpt><trkpt lat="43.541957343896236" lon="11.023325547673542"><ele>69.0</ele><time>2026-05-01T09:11:28Z</time></trkpt><trkpt lat="43.54209175905083" lon="11.023154506876457"><ele>71.33333333333333</ele><time>2026-05-01T09:11:29Z</time></trkpt><trkpt lat="43.54222920794515" lon="11.022984036742027"><ele>73.66666666666666</ele><time>2026-05-01T09:11:30Z</time></trkpt><trkpt lat="43.542362634084164" lon="11.02282318930741"><ele>76.0</ele><time>2026-05-01T09:11:31Z</time></trkpt><trkpt lat="43.542494637785275" lon="11.022666586503838"><ele>76.0</ele><time>2026-05-01T09:11:32Z</time></trkpt><trkpt lat="43.542632871537286" lon="11.02251556043054"><ele>76.0</ele><time>2026-05-01T09:11:33Z</time></trkpt><trkpt lat="43.54277587496474" lon="11.022376036097649"><ele>76.0</ele><time>2026-05-01T09:11:34Z</time></trkpt><trkpt lat="43.542918737101125" lon="11.022246709603818"><ele>81.0</ele><time>2026-05-01T09:11:35Z</time></trkpt><trkpt lat="43.54306531423242" lon="11.02212809722222"><ele>86.0</ele><time>2026-05-01T09:11:36Z</time></trkpt><trkpt lat="43.54321568835428" lon="11.022014618631697"><ele>91.0</ele><time>2026-05-01T09:11:37Z</time></trkpt><trkpt lat="43.543365046209644" lon="11.021909349851324"><ele>91.0</ele><time>2026-05-01T09:11:38Z</time></trkpt><trkpt lat="43.54352094642064" lon="11.021811911637329"><ele>91.0</ele><time>2026-05-01T09:11:39Z</time></trkpt><trkpt lat="43.54368063717218" lon="11.021722253680146"><ele>91.0</ele><time>2026-05-01T09:11:40Z</time></trkpt><trkpt lat="43.543844350860944" lon="11.02164334420968"><ele>96.66666666666666</ele><time>2026-05-01T09:11:41Z</time></trkpt><trkpt lat="43.54401377619367" lon="11.021572549011397"><ele>102.33333333333333</ele><time>2026-05-01T09:11:42Z</time></trkpt><trkpt lat="43.5441881361421" lon="11.021504117972652"><ele>108.0</ele><time>2026-05-01T09:11:43Z</time></trkpt><trkpt lat="43.54437726263197" lon="11.021436939645625"><ele>111.66666666666666</ele><time>2026-05-01T09:11:44.069Z</time></trkpt><trkpt lat="43.54455809484614" lon="11.02138684431053"><ele>115.33333333333333</ele><time>2026-05-01T09:11:45.068Z</time></trkpt><trkpt lat="43.54473821337399" lon="11.02134792000898"><ele>119.0</ele><time>2026-05-01T09:11:46.066Z</time></trkpt><trkpt lat="43.54491575875122" lon="11.021318552939782"><ele>119.0</ele><time>2026-05-01T09:11:47.06Z</time></trkpt><trkpt lat="43.54509400500213" lon="11.02129723876933"><ele>119.0</ele><time>2026-05-01T09:11:48.057Z</time></trkpt><trkpt lat="43.547243503371284" lon="11.021416983144714"><ele>104.5</ele><time>2026-05-01T09:11:59Z</time></trkpt><trkpt lat="43.54744356721124" lon="11.02143532718865"><ele>90.0</ele><time>2026-05-01T09:12:00Z</time></trkpt><trkpt lat="43.547710073134624" lon="11.021479120835275"><ele>90.33333333333333</ele><time>2026-05-01T09:12:01Z</time></trkpt><trkpt lat="43.547925831298386" lon="11.021510409720845"><ele>90.66666666666666</ele><time>2026-05-01T09:12:02Z</time></trkpt><trkpt lat="43.548154825174464" lon="11.021530271263991"><ele>91.0</ele><time>2026-05-01T09:12:03Z</time></trkpt><trkpt lat="43.55137670699429" lon="11.021785056078208"><ele>91.0</ele><time>2026-05-01T09:12:11.606Z</time></trkpt><trkpt lat="43.5519233" lon="11.0218288"><ele>72.0</ele><time>2026-05-01T09:12:12.601Z</time></trkpt><trkpt lat="43.5526710827477" lon="11.021935320036455"><ele>72.0</ele><time>2026-05-01T09:12:21.999Z</time></trkpt><trkpt lat="43.55286783355967" lon="11.021930226132854"><ele>72.0</ele><time>2026-05-01T09:12:22.999Z</time></trkpt><trkpt lat="43.55309805165279" lon="11.021952899062459"><ele>72.0</ele><time>2026-05-01T09:12:23.999Z</time></trkpt><trkpt lat="43.55332180645723" lon="11.021971278400896"><ele>68.33333333333333</ele><time>2026-05-01T09:12:24.999Z</time></trkpt><trkpt lat="43.55354321593844" lon="11.02199774824268"><ele>64.66666666666666</ele><time>2026-05-01T09:12:25.999Z</time></trkpt><trkpt lat="43.55376527282581" lon="11.022016157991407"><ele>61.0</ele><time>2026-05-01T09:12:26.999Z</time></trkpt><trkpt lat="43.55398768134169" lon="11.02202857832132"><ele>61.0</ele><time>2026-05-01T09:12:27.999Z</time></trkpt><trkpt lat="43.55420854044128" lon="11.022036783708302"><ele>61.0</ele><time>2026-05-01T09:12:28.999Z</time></trkpt><trkpt lat="43.55442693561457" lon="11.022035349044964"><ele>61.0</ele><time>2026-05-01T09:12:29.999Z</time></trkpt><trkpt lat="43.55464695112228" lon="11.022026117176408"><ele>61.0</ele><time>2026-05-01T09:12:30.999Z</time></trkpt><trkpt lat="43.55486770880115" lon="11.022007619619037"><ele>61.0</ele><time>2026-05-01T09:12:31.999Z</time></trkpt><trkpt lat="43.55508540343371" lon="11.021974963768766"><ele>61.0</ele><time>2026-05-01T09:12:32.999Z</time></trkpt><trkpt lat="43.555302694855946" lon="11.021926227721886"><ele>60.666666666666664</ele><time>2026-05-01T09:12:33.999Z</time></trkpt><trkpt lat="43.55551831878246" lon="11.021863670160498"><ele>60.33333333333333</ele><time>2026-05-01T09:12:34.999Z</time></trkpt><trkpt lat="43.55573305843382" lon="11.021791531526905"><ele>60.0</ele><time>2026-05-01T09:12:35.999Z</time></trkpt><trkpt lat="43.555945795002174" lon="11.02171198365871"><ele>60.0</ele><time>2026-05-01T09:12:36.999Z</time></trkpt><trkpt lat="43.5561577522074" lon="11.021623161838939"><ele>60.0</ele><time>2026-05-01T09:12:37.999Z</time></trkpt><trkpt lat="43.55636853787838" lon="11.021518246518726"><ele>60.0</ele><time>2026-05-01T09:12:38.999Z</time></trkpt><trkpt lat="43.55657664457509" lon="11.021397673426796"><ele>59.5</ele><time>2026-05-01T09:12:39.999Z</time></trkpt><trkpt lat="43.55678227746765" lon="11.021264401127395"><ele>59.0</ele><time>2026-05-01T09:12:40.999Z</time></trkpt><trkpt lat="43.55698458305092" lon="11.021113236461503"><ele>59.0</ele><time>2026-05-01T09:12:41.999Z</time></trkpt><trkpt lat="43.55718419276676" lon="11.020948611087476"><ele>59.0</ele><time>2026-05-01T09:12:42.999Z</time></trkpt><trkpt lat="43.55738381502413" lon="11.020774094697977"><ele>59.0</ele><time>2026-05-01T09:12:43.999Z</time></trkpt><trkpt lat="43.5575799640753" lon="11.020586381560296"><ele>59.0</ele><time>2026-05-01T09:12:44.999Z</time></trkpt><trkpt lat="43.55776994337771" lon="11.020385387894896"><ele>59.0</ele><time>2026-05-01T09:12:45.999Z</time></trkpt><trkpt lat="43.55795496566768" lon="11.02017199866504"><ele>59.0</ele><time>2026-05-01T09:12:46.999Z</time></trkpt><trkpt lat="43.55813268672766" lon="11.019944777297129"><ele>59.0</ele><time>2026-05-01T09:12:47.999Z</time></trkpt><trkpt lat="43.55830501632017" lon="11.019706805319545"><ele>59.0</ele><time>2026-05-01T09:12:48.999Z</time></trkpt><trkpt lat="43.55846832816534" lon="11.019457310970402"><ele>59.0</ele><time>2026-05-01T09:12:49.999Z</time></trkpt><trkpt lat="43.55862513681237" lon="11.019200004593376"><ele>59.0</ele><time>2026-05-01T09:12:50.999Z</time></trkpt><trkpt lat="43.558773503181364" lon="11.018932641066638"><ele>59.0</ele><time>2026-05-01T09:12:51.999Z</time></trkpt><trkpt lat="43.55891675475135" lon="11.018658894538913"><ele>59.0</ele><time>2026-05-01T09:12:52.999Z</time></trkpt><trkpt lat="43.55905429896938" lon="11.018376897113765"><ele>59.5</ele><time>2026-05-01T09:12:53.999Z</time></trkpt><trkpt lat="43.55918907871594" lon="11.018092036249516"><ele>60.0</ele><time>2026-05-01T09:12:54.999Z</time></trkpt><trkpt lat="43.559323844020525" lon="11.017807212896827"><ele>60.0</ele><time>2026-05-01T09:12:55.999Z</time></trkpt><trkpt lat="43.55945606329365" lon="11.017524039321376"><ele>60.0</ele><time>2026-05-01T09:12:56.999Z</time></trkpt><trkpt lat="43.55959448685605" lon="11.017241552847661"><ele>59.5</ele><time>2026-05-01T09:12:57.999Z</time></trkpt><trkpt lat="43.55973014157808" lon="11.016960700664802"><ele>59.0</ele><time>2026-05-01T09:12:58.999Z</time></trkpt><trkpt lat="43.55986310956584" lon="11.016681715647449"><ele>58.5</ele><time>2026-05-01T09:12:59.999Z</time></trkpt><trkpt lat="43.5599941716918" lon="11.016403692605993"><ele>58.0</ele><time>2026-05-01T09:13:00.999Z</time></trkpt><trkpt lat="43.56012330715592" lon="11.016124985641182"><ele>58.0</ele><time>2026-05-01T09:13:01.999Z</time></trkpt><trkpt lat="43.560252303225624" lon="11.015849184450937"><ele>58.0</ele><time>2026-05-01T09:13:02.999Z</time></trkpt><trkpt lat="43.56038243058406" lon="11.015575271226473"><ele>58.5</ele><time>2026-05-01T09:13:03.999Z</time></trkpt><trkpt lat="43.56051130795097" lon="11.015302632643401"><ele>59.0</ele><time>2026-05-01T09:13:04.999Z</time></trkpt><trkpt lat="43.56063979604317" lon="11.015029898924652"><ele>58.5</ele><time>2026-05-01T09:13:05.999Z</time></trkpt><trkpt lat="43.56076484556979" lon="11.01475787341727"><ele>58.0</ele><time>2026-05-01T09:13:06.999Z</time></trkpt><trkpt lat="43.560887949711386" lon="11.014490146356328"><ele>58.0</ele><time>2026-05-01T09:13:07.999Z</time></trkpt><trkpt lat="43.56101274785056" lon="11.014224603526902"><ele>58.0</ele><time>2026-05-01T09:13:08.999Z</time></trkpt><trkpt lat="43.56113923815252" lon="11.013962681847827"><ele>58.5</ele><time>2026-05-01T09:13:09.999Z</time></trkpt><trkpt lat="43.56126275985746" lon="11.013700902372312"><ele>59.0</ele><time>2026-05-01T09:13:10.999Z</time></trkpt><trkpt lat="43.561384808710685" lon="11.013436170898837"><ele>58.0</ele><time>2026-05-01T09:13:11.999Z</time></trkpt><trkpt lat="43.56150805571335" lon="11.013174240149462"><ele>57.0</ele><time>2026-05-01T09:13:12.998Z</time></trkpt><trkpt lat="43.56162995787055" lon="11.012914375744753"><ele>57.0</ele><time>2026-05-01T09:13:13.998Z</time></trkpt><trkpt lat="43.56175022736085" lon="11.012655908843834"><ele>57.0</ele><time>2026-05-01T09:13:14.998Z</time></trkpt><trkpt lat="43.561873262999505" lon="11.012398000346007"><ele>57.0</ele><time>2026-05-01T09:13:15.998Z</time></trkpt><trkpt lat="43.5619985969947" lon="11.012141270709204"><ele>57.0</ele><time>2026-05-01T09:13:16.998Z</time></trkpt><trkpt lat="43.562129121230086" lon="11.01188650022676"><ele>57.0</ele><time>2026-05-01T09:13:17.998Z</time></trkpt><trkpt lat="43.56226133308149" lon="11.011634847643894"><ele>57.0</ele><time>2026-05-01T09:13:18.998Z</time></trkpt><trkpt lat="43.562397858693764" lon="11.011385336065047"><ele>57.0</ele><time>2026-05-01T09:13:19.998Z</time></trkpt><trkpt lat="43.56254033493402" lon="11.011143561441962"><ele>57.0</ele><time>2026-05-01T09:13:20.998Z</time></trkpt><trkpt lat="43.56268872948055" lon="11.010910566565885"><ele>57.0</ele><time>2026-05-01T09:13:21.998Z</time></trkpt><trkpt lat="43.5628442018952" lon="11.010686270205351"><ele>57.0</ele><time>2026-05-01T09:13:22.998Z</time></trkpt><trkpt lat="43.5630027767122" lon="11.010466384805733"><ele>57.0</ele><time>2026-05-01T09:13:23.998Z</time></trkpt><trkpt lat="43.56316473556189" lon="11.010250197569496"><ele>57.0</ele><time>2026-05-01T09:13:24.998Z</time></trkpt><trkpt lat="43.56333122691227" lon="11.010042107045328"><ele>57.0</ele><time>2026-05-01T09:13:25.998Z</time></trkpt><trkpt lat="43.5635041887463" lon="11.009846026260485"><ele>57.0</ele><time>2026-05-01T09:13:27.001Z</time></trkpt><trkpt lat="43.563680020942755" lon="11.009660506945083"><ele>57.33333333333333</ele><time>2026-05-01T09:13:28.001Z</time></trkpt><trkpt lat="43.56385834315679" lon="11.009478937748423"><ele>57.666666666666664</ele><time>2026-05-01T09:13:29.001Z</time></trkpt><trkpt lat="43.56403924821557" lon="11.009304329909199"><ele>58.0</ele><time>2026-05-01T09:13:30.001Z</time></trkpt><trkpt lat="43.564223801470774" lon="11.009134868791103"><ele>57.33333333333333</ele><time>2026-05-01T09:13:31.001Z</time></trkpt><trkpt lat="43.5644071632068" lon="11.008975389727397"><ele>56.66666666666667</ele><time>2026-05-01T09:13:32.001Z</time></trkpt><trkpt lat="43.56459362352901" lon="11.008809816895623"><ele>56.0</ele><time>2026-05-01T09:13:33.001Z</time></trkpt><trkpt lat="43.56477828778845" lon="11.008651178598173"><ele>55.66666666666667</ele><time>2026-05-01T09:13:34.001Z</time></trkpt><trkpt lat="43.56496192984694" lon="11.008495699007192"><ele>55.33333333333333</ele><time>2026-05-01T09:13:35.001Z</time></trkpt><trkpt lat="43.56514702094904" lon="11.008342757983446"><ele>55.0</ele><time>2026-05-01T09:13:36.001Z</time></trkpt><trkpt lat="43.56533087887998" lon="11.008191011593837"><ele>55.0</ele><time>2026-05-01T09:13:37.001Z</time></trkpt><trkpt lat="43.565511701611996" lon="11.0080365329837"><ele>55.0</ele><time>2026-05-01T09:13:38.001Z</time></trkpt><trkpt lat="43.56569394342034" lon="11.007881108323156"><ele>55.0</ele><time>2026-05-01T09:13:39.001Z</time></trkpt><trkpt lat="43.56587649266732" lon="11.007727416852859"><ele>55.0</ele><time>2026-05-01T09:13:40.001Z</time></trkpt><trkpt lat="43.566056461189255" lon="11.007574437334577"><ele>55.0</ele><time>2026-05-01T09:13:41.001Z</time></trkpt><trkpt lat="43.566236366635465" lon="11.00741973780562"><ele>55.0</ele><time>2026-05-01T09:13:42Z</time></trkpt><trkpt lat="43.56642078814996" lon="11.007271779587391"><ele>55.33333333333333</ele><time>2026-05-01T09:13:43Z</time></trkpt><trkpt lat="43.56660960955426" lon="11.007135488391842"><ele>55.66666666666667</ele><time>2026-05-01T09:13:44Z</time></trkpt><trkpt lat="43.56679649911766" lon="11.006999086057803"><ele>56.0</ele><time>2026-05-01T09:13:45Z</time></trkpt><trkpt lat="43.56697037133143" lon="11.00686128513152"><ele>56.333333333333336</ele><time>2026-05-01T09:13:46Z</time></trkpt><trkpt lat="43.56713607038255" lon="11.00673435393841"><ele>56.66666666666667</ele><time>2026-05-01T09:13:47Z</time></trkpt><trkpt lat="43.567300752847146" lon="11.00662571141806"><ele>57.0</ele><time>2026-05-01T09:13:48Z</time></trkpt><trkpt lat="43.56746324144534" lon="11.00653669015172"><ele>57.0</ele><time>2026-05-01T09:13:49Z</time></trkpt><trkpt lat="43.56761632882975" lon="11.006476979297899"><ele>57.0</ele><time>2026-05-01T09:13:50Z</time></trkpt><trkpt lat="43.56777024919846" lon="11.006461618054537"><ele>57.0</ele><time>2026-05-01T09:13:51Z</time></trkpt><trkpt lat="43.567920511643315" lon="11.006484305437393"><ele>57.0</ele><time>2026-05-01T09:13:52Z</time></trkpt><trkpt lat="43.56805804247208" lon="11.006555801317672"><ele>57.0</ele><time>2026-05-01T09:13:53Z</time></trkpt><trkpt lat="43.568192008614396" lon="11.006665333591693"><ele>57.0</ele><time>2026-05-01T09:13:54Z</time></trkpt><trkpt lat="43.56830803682948" lon="11.006807613754766"><ele>57.0</ele><time>2026-05-01T09:13:55Z</time></trkpt><trkpt lat="43.5683838373173" lon="11.006979166564056"><ele>57.0</ele><time>2026-05-01T09:13:56Z</time></trkpt><trkpt lat="43.568438616667045" lon="11.007172091844465"><ele>57.0</ele><time>2026-05-01T09:13:57Z</time></trkpt><trkpt lat="43.56847055768678" lon="11.007392342476903"><ele>56.66666666666667</ele><time>2026-05-01T09:13:58Z</time></trkpt><trkpt lat="43.5684790424511" lon="11.007633774112426"><ele>56.333333333333336</ele><time>2026-05-01T09:13:59Z</time></trkpt><trkpt lat="43.56846631491654" lon="11.007892885918848"><ele>56.0</ele><time>2026-05-01T09:14:00Z</time></trkpt><trkpt lat="43.56844360366237" lon="11.008160417241696"><ele>56.333333333333336</ele><time>2026-05-01T09:14:01Z</time></trkpt><trkpt lat="43.56841839802044" lon="11.008419900226537"><ele>56.66666666666667</ele><time>2026-05-01T09:14:02Z</time></trkpt><trkpt lat="43.56839257878397" lon="11.00868155235619"><ele>57.0</ele><time>2026-05-01T09:14:03Z</time></trkpt><trkpt lat="43.56836948673516" lon="11.008949488394135"><ele>57.33333333333333</ele><time>2026-05-01T09:14:04Z</time></trkpt><trkpt lat="43.56834391590181" lon="11.009217075054512"><ele>57.666666666666664</ele><time>2026-05-01T09:14:05Z</time></trkpt><trkpt lat="43.56832392755774" lon="11.009485542798405"><ele>58.0</ele><time>2026-05-01T09:14:06Z</time></trkpt><trkpt lat="43.56831663833932" lon="11.009751951750662"><ele>57.33333333333333</ele><time>2026-05-01T09:14:07Z</time></trkpt><trkpt lat="43.56832046956371" lon="11.010004796353817"><ele>56.66666666666667</ele><time>2026-05-01T09:14:08Z</time></trkpt><trkpt lat="43.5683379448962" lon="11.010231319068346"><ele>56.0</ele><time>2026-05-01T09:14:09Z</time></trkpt><trkpt lat="43.568372714682255" lon="11.010426621151838"><ele>56.0</ele><time>2026-05-01T09:14:10Z</time></trkpt><trkpt lat="43.5684211292989" lon="11.010617217765239"><ele>56.0</ele><time>2026-05-01T09:14:11Z</time></trkpt><trkpt lat="43.5684976096066" lon="11.010803683836288"><ele>56.0</ele><time>2026-05-01T09:14:12Z</time></trkpt><trkpt lat="43.568594180403345" lon="11.010981925949293"><ele>56.333333333333336</ele><time>2026-05-01T09:14:13Z</time></trkpt><trkpt lat="43.5686964021429" lon="11.011151773596135"><ele>56.66666666666667</ele><time>2026-05-01T09:14:14Z</time></trkpt><trkpt lat="43.568798301937456" lon="11.011325852358457"><ele>57.0</ele><time>2026-05-01T09:14:15Z</time></trkpt><trkpt lat="43.56890060115862" lon="11.01150412994668"><ele>57.0</ele><time>2026-05-01T09:14:16Z</time></trkpt><trkpt lat="43.56900788036771" lon="11.011686148778509"><ele>57.0</ele><time>2026-05-01T09:14:17Z</time></trkpt><trkpt lat="43.569119159429576" lon="11.011873574672208"><ele>57.0</ele><time>2026-05-01T09:14:18Z</time></trkpt><trkpt lat="43.56923664355343" lon="11.012069221404397"><ele>57.0</ele><time>2026-05-01T09:14:19Z</time></trkpt><trkpt lat="43.56935686151954" lon="11.012273702487377"><ele>57.0</ele><time>2026-05-01T09:14:20Z</time></trkpt><trkpt lat="43.56947813509127" lon="11.012483537908274"><ele>57.0</ele><time>2026-05-01T09:14:21Z</time></trkpt><trkpt lat="43.56960015222512" lon="11.01269178923658"><ele>57.33333333333333</ele><time>2026-05-01T09:14:22Z</time></trkpt><trkpt lat="43.569724844579504" lon="11.012894685465254"><ele>57.666666666666664</ele><time>2026-05-01T09:14:23Z</time></trkpt><trkpt lat="43.569847963096095" lon="11.0130997755112"><ele>58.0</ele><time>2026-05-01T09:14:24Z</time></trkpt><trkpt lat="43.569961528439656" lon="11.013307976662526"><ele>58.0</ele><time>2026-05-01T09:14:25Z</time></trkpt><trkpt lat="43.57006638465322" lon="11.013512435241646"><ele>58.0</ele><time>2026-05-01T09:14:26Z</time></trkpt><trkpt lat="43.57016252839213" lon="11.013703270339928"><ele>58.0</ele><time>2026-05-01T09:14:27Z</time></trkpt><trkpt lat="43.57026176554239" lon="11.013888232531091"><ele>57.666666666666664</ele><time>2026-05-01T09:14:28Z</time></trkpt><trkpt lat="43.5703752120737" lon="11.014056791965055"><ele>57.33333333333333</ele><time>2026-05-01T09:14:29Z</time></trkpt><trkpt lat="43.57050916217548" lon="11.014209078720583"><ele>57.0</ele><time>2026-05-01T09:14:30Z</time></trkpt><trkpt lat="43.570653321640584" lon="11.014348422493397"><ele>57.0</ele><time>2026-05-01T09:14:30.999Z</time></trkpt><trkpt lat="43.57081236139699" lon="11.014467253566508"><ele>57.0</ele><time>2026-05-01T09:14:31.999Z</time></trkpt><trkpt lat="43.57097033941644" lon="11.01457750911199"><ele>57.0</ele><time>2026-05-01T09:14:32.999Z</time></trkpt><trkpt lat="43.57111865601588" lon="11.01470777878134"><ele>57.33333333333333</ele><time>2026-05-01T09:14:33.999Z</time></trkpt><trkpt lat="43.57125251854283" lon="11.014860780471114"><ele>57.666666666666664</ele><time>2026-05-01T09:14:34.999Z</time></trkpt><trkpt lat="43.5713753844921" lon="11.015015793782782"><ele>58.0</ele><time>2026-05-01T09:14:35.999Z</time></trkpt><trkpt lat="43.571496636407964" lon="11.015150439820566"><ele>58.0</ele><time>2026-05-01T09:14:36.999Z</time></trkpt><trkpt lat="43.57162082318503" lon="11.01526367257659"><ele>58.0</ele><time>2026-05-01T09:14:37.999Z</time></trkpt><trkpt lat="43.57174451346004" lon="11.015347796309285"><ele>58.0</ele><time>2026-05-01T09:14:38.999Z</time></trkpt><trkpt lat="43.571865538082584" lon="11.015398121668335"><ele>58.0</ele><time>2026-05-01T09:14:39.999Z</time></trkpt><trkpt lat="43.57198923926178" lon="11.015404065388422"><ele>59.5</ele><time>2026-05-01T09:14:40.999Z</time></trkpt><trkpt lat="43.57212028043703" lon="11.015373088794275"><ele>61.0</ele><time>2026-05-01T09:14:41.999Z</time></trkpt><trkpt lat="43.57224478110459" lon="11.015316469949607"><ele>62.5</ele><time>2026-05-01T09:14:42.999Z</time></trkpt><trkpt lat="43.57235632953449" lon="11.015226192021904"><ele>64.0</ele><time>2026-05-01T09:14:43.999Z</time></trkpt><trkpt lat="43.57245476301495" lon="11.0150864017275"><ele>62.33333333333333</ele><time>2026-05-01T09:14:44.999Z</time></trkpt><trkpt lat="43.57253638667484" lon="11.01491709031911"><ele>60.66666666666667</ele><time>2026-05-01T09:14:45.999Z</time></trkpt><trkpt lat="43.5725994118367" lon="11.014704058865856"><ele>59.0</ele><time>2026-05-01T09:14:46.999Z</time></trkpt><trkpt lat="43.572658086122146" lon="11.014468995025105"><ele>59.0</ele><time>2026-05-01T09:14:47.999Z</time></trkpt><trkpt lat="43.57271443334512" lon="11.014213407671836"><ele>59.0</ele><time>2026-05-01T09:14:48.999Z</time></trkpt><trkpt lat="43.57276826906678" lon="11.01394160102485"><ele>59.0</ele><time>2026-05-01T09:14:49.999Z</time></trkpt><trkpt lat="43.572817967131535" lon="11.013676010936631"><ele>59.66666666666667</ele><time>2026-05-01T09:14:50.999Z</time></trkpt><trkpt lat="43.57286481651036" lon="11.01340680441292"><ele>60.33333333333333</ele><time>2026-05-01T09:14:51.999Z</time></trkpt><trkpt lat="43.57292384031789" lon="11.01313737057735"><ele>61.0</ele><time>2026-05-01T09:14:52.999Z</time></trkpt><trkpt lat="43.57301331357381" lon="11.012874691160832"><ele>61.0</ele><time>2026-05-01T09:14:53.999Z</time></trkpt><trkpt lat="43.573125537303206" lon="11.012618681026835"><ele>61.0</ele><time>2026-05-01T09:14:54.999Z</time></trkpt><trkpt lat="43.57325108115539" lon="11.012382337930065"><ele>61.0</ele><time>2026-05-01T09:14:55.999Z</time></trkpt><trkpt lat="43.57338072903326" lon="11.01214709922963"><ele>60.0</ele><time>2026-05-01T09:14:56.999Z</time></trkpt><trkpt lat="43.5735236309795" lon="11.01191814589753"><ele>59.0</ele><time>2026-05-01T09:14:57.999Z</time></trkpt><trkpt lat="43.57368988302892" lon="11.011705585033743"><ele>58.0</ele><time>2026-05-01T09:14:58.999Z</time></trkpt><trkpt lat="43.57387713776585" lon="11.01150971458719"><ele>57.5</ele><time>2026-05-01T09:14:59.999Z</time></trkpt><trkpt lat="43.57407889157748" lon="11.011320035218901"><ele>57.0</ele><time>2026-05-01T09:15:00.999Z</time></trkpt><trkpt lat="43.57428459021497" lon="11.01112708677924"><ele>57.0</ele><time>2026-05-01T09:15:01.999Z</time></trkpt><trkpt lat="43.57449209128064" lon="11.010933350021821"><ele>57.0</ele><time>2026-05-01T09:15:02.999Z</time></trkpt><trkpt lat="43.574700909453014" lon="11.010722559498651"><ele>57.0</ele><time>2026-05-01T09:15:03.999Z</time></trkpt><trkpt lat="43.5749141790345" lon="11.010489949836915"><ele>57.0</ele><time>2026-05-01T09:15:04.999Z</time></trkpt><trkpt lat="43.575131954938385" lon="11.01025490460312"><ele>57.0</ele><time>2026-05-01T09:15:05.999Z</time></trkpt><trkpt lat="43.57534710082061" lon="11.010030134669345"><ele>57.0</ele><time>2026-05-01T09:15:06.999Z</time></trkpt><trkpt lat="43.57555769201573" lon="11.009831371710641"><ele>55.5</ele><time>2026-05-01T09:15:07.999Z</time></trkpt><trkpt lat="43.575762561527995" lon="11.009660304764722"><ele>54.0</ele><time>2026-05-01T09:15:08.999Z</time></trkpt><trkpt lat="43.57595393059629" lon="11.009465693491236"><ele>54.0</ele><time>2026-05-01T09:15:09.999Z</time></trkpt><trkpt lat="43.57613170855308" lon="11.009238874241287"><ele>54.0</ele><time>2026-05-01T09:15:10.999Z</time></trkpt><trkpt lat="43.57630212926984" lon="11.009007412655434"><ele>55.5</ele><time>2026-05-01T09:15:11.999Z</time></trkpt><trkpt lat="43.576467190664964" lon="11.008786022716814"><ele>57.0</ele><time>2026-05-01T09:15:12.999Z</time></trkpt><trkpt lat="43.576646857243674" lon="11.008582187067503"><ele>57.0</ele><time>2026-05-01T09:15:13.999Z</time></trkpt><trkpt lat="43.576831721199646" lon="11.008407555306281"><ele>57.0</ele><time>2026-05-01T09:15:14.999Z</time></trkpt><trkpt lat="43.57699499025511" lon="11.008256206190277"><ele>57.0</ele><time>2026-05-01T09:15:15.999Z</time></trkpt><trkpt lat="43.57713317550458" lon="11.008126406195776"><ele>57.2</ele><time>2026-05-01T09:15:16.999Z</time></trkpt><trkpt lat="43.57723823176666" lon="11.008026149071542"><ele>57.400000000000006</ele><time>2026-05-01T09:15:17.999Z</time></trkpt><trkpt lat="43.5773227515697" lon="11.007953404499581"><ele>57.599999999999994</ele><time>2026-05-01T09:15:18.999Z</time></trkpt><trkpt lat="43.57740079018597" lon="11.007884195687618"><ele>57.8</ele><time>2026-05-01T09:15:19.999Z</time></trkpt><trkpt lat="43.57747053633616" lon="11.007817571279782"><ele>58.0</ele><time>2026-05-01T09:15:20.999Z</time></trkpt><trkpt lat="43.5775530747654" lon="11.007743900410803"><ele>57.99999999999999</ele><time>2026-05-01T09:15:22.999Z</time></trkpt><trkpt lat="43.57760690143388" lon="11.007688815492124"><ele>58.0</ele><time>2026-05-01T09:15:26.998Z</time></trkpt><trkpt lat="43.577664531793346" lon="11.007621707565917"><ele>58.0</ele><time>2026-05-01T09:15:37.001Z</time></trkpt><trkpt lat="43.57777330955557" lon="11.007510198457442"><ele>58.0</ele><time>2026-05-01T09:15:39.001Z</time></trkpt><trkpt lat="43.57783517661203" lon="11.007446115761017"><ele>57.99999999999999</ele><time>2026-05-01T09:15:40.001Z</time></trkpt><trkpt lat="43.577908134903716" lon="11.007378080852693"><ele>58.0</ele><time>2026-05-01T09:15:41.001Z</time></trkpt><trkpt lat="43.577985728143" lon="11.007305072841762"><ele>58.0</ele><time>2026-05-01T09:15:42.001Z</time></trkpt><trkpt lat="43.5780625174445" lon="11.007231499735887"><ele>58.0</ele><time>2026-05-01T09:15:43.001Z</time></trkpt><trkpt lat="43.578144753874454" lon="11.007150831545388"><ele>58.0</ele><time>2026-05-01T09:15:44.001Z</time></trkpt><trkpt lat="43.578227083947226" lon="11.007069065632122"><ele>58.0</ele><time>2026-05-01T09:15:45.001Z</time></trkpt><trkpt lat="43.578312120924345" lon="11.006980488273143"><ele>58.0</ele><time>2026-05-01T09:15:46.001Z</time></trkpt><trkpt lat="43.57840240855373" lon="11.006893302728946"><ele>58.0</ele><time>2026-05-01T09:15:47.001Z</time></trkpt><trkpt lat="43.578495640627814" lon="11.006808641345016"><ele>58.0</ele><time>2026-05-01T09:15:48.001Z</time></trkpt><trkpt lat="43.578591596216334" lon="11.006711270471522"><ele>58.0</ele><time>2026-05-01T09:15:49.001Z</time></trkpt><trkpt lat="43.578690799070706" lon="11.006615324740839"><ele>58.0</ele><time>2026-05-01T09:15:50.001Z</time></trkpt><trkpt lat="43.578795196309066" lon="11.006518715500874"><ele>58.0</ele><time>2026-05-01T09:15:51.001Z</time></trkpt><trkpt lat="43.57889983117242" lon="11.006415105150287"><ele>58.0</ele><time>2026-05-01T09:15:52.001Z</time></trkpt><trkpt lat="43.57900307161536" lon="11.00631774048544"><ele>58.0</ele><time>2026-05-01T09:15:53.001Z</time></trkpt><trkpt lat="43.57910846083486" lon="11.006213749797608"><ele>58.0</ele><time>2026-05-01T09:15:54Z</time></trkpt><trkpt lat="43.57921308981677" lon="11.00610818163356"><ele>58.0</ele><time>2026-05-01T09:15:55Z</time></trkpt><trkpt lat="43.579319495420194" lon="11.006002448648593"><ele>58.0</ele><time>2026-05-01T09:15:56Z</time></trkpt><trkpt lat="43.579426363497966" lon="11.005899292206994"><ele>58.0</ele><time>2026-05-01T09:15:57Z</time></trkpt><trkpt lat="43.57953321161953" lon="11.005792281033367"><ele>58.0</ele><time>2026-05-01T09:15:58Z</time></trkpt><trkpt lat="43.57963861860109" lon="11.005685224535382"><ele>57.75</ele><time>2026-05-01T09:15:59Z</time></trkpt><trkpt lat="43.57973741542419" lon="11.005587634432592"><ele>57.5</ele><time>2026-05-01T09:16:00Z</time></trkpt><trkpt lat="43.579834025927276" lon="11.005493344233084"><ele>57.25</ele><time>2026-05-01T09:16:01Z</time></trkpt><trkpt lat="43.57993295579338" lon="11.005396599206117"><ele>57.0</ele><time>2026-05-01T09:16:02Z</time></trkpt><trkpt lat="43.580032073398584" lon="11.005295514807871"><ele>57.0</ele><time>2026-05-01T09:16:02.999Z</time></trkpt><trkpt lat="43.58012738211173" lon="11.005195566382287"><ele>57.0</ele><time>2026-05-01T09:16:03.999Z</time></trkpt><trkpt lat="43.58022021611361" lon="11.005088654718588"><ele>57.0</ele><time>2026-05-01T09:16:04.999Z</time></trkpt><trkpt lat="43.580304424240076" lon="11.00497499184011"><ele>57.0</ele><time>2026-05-01T09:16:05.999Z</time></trkpt><trkpt lat="43.58038111889295" lon="11.004858526147357"><ele>56.8</ele><time>2026-05-01T09:16:06.999Z</time></trkpt><trkpt lat="43.58045093419469" lon="11.004742586283209"><ele>56.6</ele><time>2026-05-01T09:16:07.999Z</time></trkpt><trkpt lat="43.58051436255036" lon="11.004630703850369"><ele>56.39999999999999</ele><time>2026-05-01T09:16:08.999Z</time></trkpt><trkpt lat="43.580579550862076" lon="11.004518759903629"><ele>56.199999999999996</ele><time>2026-05-01T09:16:09.999Z</time></trkpt><trkpt lat="43.58064470884885" lon="11.004410219857157"><ele>56.0</ele><time>2026-05-01T09:16:10.999Z</time></trkpt><trkpt lat="43.580711619651915" lon="11.004290766557867"><ele>56.0</ele><time>2026-05-01T09:16:11.999Z</time></trkpt><trkpt lat="43.580781040085014" lon="11.004163327050408"><ele>56.0</ele><time>2026-05-01T09:16:12.999Z</time></trkpt><trkpt lat="43.58085256613514" lon="11.00403479693701"><ele>56.0</ele><time>2026-05-01T09:16:13.999Z</time></trkpt><trkpt lat="43.580925958030825" lon="11.003903985317226"><ele>56.0</ele><time>2026-05-01T09:16:14.999Z</time></trkpt><trkpt lat="43.580994908571334" lon="11.003773019013215"><ele>56.0</ele><time>2026-05-01T09:16:15.999Z</time></trkpt><trkpt lat="43.58106398569165" lon="11.00364300203674"><ele>56.0</ele><time>2026-05-01T09:16:16.999Z</time></trkpt><trkpt lat="43.58113734989286" lon="11.003511707333638"><ele>56.0</ele><time>2026-05-01T09:16:17.999Z</time></trkpt><trkpt lat="43.5812114934616" lon="11.003378409129143"><ele>56.0</ele><time>2026-05-01T09:16:18.999Z</time></trkpt><trkpt lat="43.58128618523312" lon="11.003241327837468"><ele>56.0</ele><time>2026-05-01T09:16:19.999Z</time></trkpt><trkpt lat="43.58136199485214" lon="11.00310379292379"><ele>56.0</ele><time>2026-05-01T09:16:20.999Z</time></trkpt><trkpt lat="43.581439959674384" lon="11.002967641800584"><ele>56.0</ele><time>2026-05-01T09:16:21.999Z</time></trkpt><trkpt lat="43.58151870227292" lon="11.0028309535148"><ele>56.0</ele><time>2026-05-01T09:16:22.999Z</time></trkpt><trkpt lat="43.58159554973863" lon="11.002693682738034"><ele>56.0</ele><time>2026-05-01T09:16:23.999Z</time></trkpt><trkpt lat="43.58167043007957" lon="11.0025623235898"><ele>56.0</ele><time>2026-05-01T09:16:24.999Z</time></trkpt><trkpt lat="43.58174486682637" lon="11.002431205132018"><ele>56.0</ele><time>2026-05-01T09:16:25.999Z</time></trkpt><trkpt lat="43.58181485634383" lon="11.002301964929025"><ele>56.0</ele><time>2026-05-01T09:16:26.999Z</time></trkpt><trkpt lat="43.58188739011305" lon="11.00217215225705"><ele>56.0</ele><time>2026-05-01T09:16:27.999Z</time></trkpt><trkpt lat="43.5819592573187" lon="11.002044078751732"><ele>56.0</ele><time>2026-05-01T09:16:28.999Z</time></trkpt><trkpt lat="43.58203245622214" lon="11.001916581051589"><ele>56.0</ele><time>2026-05-01T09:16:29.999Z</time></trkpt><trkpt lat="43.58210633149581" lon="11.00178224785849"><ele>56.0</ele><time>2026-05-01T09:16:30.999Z</time></trkpt><trkpt lat="43.58218336827674" lon="11.001648421966726"><ele>56.25</ele><time>2026-05-01T09:16:31.999Z</time></trkpt><trkpt lat="43.58226097010165" lon="11.001516246378602"><ele>56.5</ele><time>2026-05-01T09:16:32.999Z</time></trkpt><trkpt lat="43.58233934642667" lon="11.001373533079416"><ele>56.75</ele><time>2026-05-01T09:16:33.999Z</time></trkpt><trkpt lat="43.58241749211644" lon="11.001230350935186"><ele>57.0</ele><time>2026-05-01T09:16:34.999Z</time></trkpt><trkpt lat="43.58249990323627" lon="11.001083681253608"><ele>57.0</ele><time>2026-05-01T09:16:35.999Z</time></trkpt><trkpt lat="43.582584125610374" lon="11.000934378197485"><ele>57.0</ele><time>2026-05-01T09:16:36.999Z</time></trkpt><trkpt lat="43.582673102455416" lon="11.000781265343596"><ele>57.0</ele><time>2026-05-01T09:16:37.999Z</time></trkpt><trkpt lat="43.582760320656334" lon="11.000626445884192"><ele>57.0</ele><time>2026-05-01T09:16:38.999Z</time></trkpt><trkpt lat="43.58285151718064" lon="11.000466873549271"><ele>57.0</ele><time>2026-05-01T09:16:39.999Z</time></trkpt><trkpt lat="43.58294275379911" lon="11.000305233578333"><ele>57.0</ele><time>2026-05-01T09:16:40.999Z</time></trkpt><trkpt lat="43.58303347650592" lon="11.000148645971398"><ele>57.0</ele><time>2026-05-01T09:16:41.999Z</time></trkpt><trkpt lat="43.58312439507504" lon="10.99998798216315"><ele>57.0</ele><time>2026-05-01T09:16:42.999Z</time></trkpt><trkpt lat="43.58321606498983" lon="10.999822169219902"><ele>57.0</ele><time>2026-05-01T09:16:43.999Z</time></trkpt><trkpt lat="43.58331264969685" lon="10.99965007582116"><ele>57.0</ele><time>2026-05-01T09:16:44.999Z</time></trkpt><trkpt lat="43.58340820551591" lon="10.999477390209663"><ele>57.0</ele><time>2026-05-01T09:16:45.998Z</time></trkpt><trkpt lat="43.583504347736344" lon="10.999302542309389"><ele>57.0</ele><time>2026-05-01T09:16:46.998Z</time></trkpt><trkpt lat="43.58360193745689" lon="10.99912468889762"><ele>57.0</ele><time>2026-05-01T09:16:47.998Z</time></trkpt><trkpt lat="43.58370089610409" lon="10.998946195366413"><ele>57.0</ele><time>2026-05-01T09:16:48.998Z</time></trkpt><trkpt lat="43.583797845550514" lon="10.998777137727151"><ele>57.0</ele><time>2026-05-01T09:16:49.998Z</time></trkpt><trkpt lat="43.58389342187621" lon="10.998607421687062"><ele>57.0</ele><time>2026-05-01T09:16:50.998Z</time></trkpt><trkpt lat="43.58399061839941" lon="10.998441003113498"><ele>57.0</ele><time>2026-05-01T09:16:51.998Z</time></trkpt><trkpt lat="43.5840834872477" lon="10.998276107877553"><ele>56.66666666666667</ele><time>2026-05-01T09:16:52.998Z</time></trkpt><trkpt lat="43.58417857452303" lon="10.998111862810248"><ele>56.333333333333336</ele><time>2026-05-01T09:16:53.998Z</time></trkpt><trkpt lat="43.584273994301334" lon="10.997947304700096"><ele>56.0</ele><time>2026-05-01T09:16:54.998Z</time></trkpt><trkpt lat="43.584364535036904" lon="10.997782638570929"><ele>56.0</ele><time>2026-05-01T09:16:55.998Z</time></trkpt><trkpt lat="43.58445134935951" lon="10.997617601858117"><ele>56.0</ele><time>2026-05-01T09:16:56.998Z</time></trkpt><trkpt lat="43.584541741538516" lon="10.997453138707398"><ele>56.0</ele><time>2026-05-01T09:16:57.998Z</time></trkpt><trkpt lat="43.584632880414475" lon="10.997288677955527"><ele>56.0</ele><time>2026-05-01T09:16:58.998Z</time></trkpt><trkpt lat="43.584719445108334" lon="10.99712676340505"><ele>55.5</ele><time>2026-05-01T09:16:59.998Z</time></trkpt><trkpt lat="43.58480609230194" lon="10.996965559011851"><ele>55.0</ele><time>2026-05-01T09:17:00.998Z</time></trkpt><trkpt lat="43.584896338496414" lon="10.996808611270012"><ele>54.5</ele><time>2026-05-01T09:17:01.998Z</time></trkpt><trkpt lat="43.58498947135505" lon="10.99664623290034"><ele>54.0</ele><time>2026-05-01T09:17:02.998Z</time></trkpt><trkpt lat="43.5850817435014" lon="10.996483936368278"><ele>54.0</ele><time>2026-05-01T09:17:03.998Z</time></trkpt><trkpt lat="43.58517319730264" lon="10.99631903909567"><ele>54.0</ele><time>2026-05-01T09:17:04.998Z</time></trkpt><trkpt lat="43.58526663309296" lon="10.99614737100507"><ele>54.0</ele><time>2026-05-01T09:17:05.998Z</time></trkpt><trkpt lat="43.58536342708508" lon="10.995979646351417"><ele>54.33333333333333</ele><time>2026-05-01T09:17:06.998Z</time></trkpt><trkpt lat="43.58546146052957" lon="10.995806825849844"><ele>54.666666666666664</ele><time>2026-05-01T09:17:07.998Z</time></trkpt><trkpt lat="43.58556000990093" lon="10.99563197362684"><ele>55.0</ele><time>2026-05-01T09:17:08.998Z</time></trkpt><trkpt lat="43.585655945812" lon="10.995454654125691"><ele>55.0</ele><time>2026-05-01T09:17:09.998Z</time></trkpt><trkpt lat="43.58575667282983" lon="10.995272187750865"><ele>55.0</ele><time>2026-05-01T09:17:10.998Z</time></trkpt><trkpt lat="43.58585584182055" lon="10.995092514043375"><ele>55.0</ele><time>2026-05-01T09:17:11.998Z</time></trkpt><trkpt lat="43.58595468802454" lon="10.9949131889241"><ele>55.0</ele><time>2026-05-01T09:17:12.998Z</time></trkpt><trkpt lat="43.586053577200005" lon="10.994734266222835"><ele>55.0</ele><time>2026-05-01T09:17:13.998Z</time></trkpt><trkpt lat="43.58615166252302" lon="10.99455592149635"><ele>55.0</ele><time>2026-05-01T09:17:14.998Z</time></trkpt><trkpt lat="43.58625231362146" lon="10.994377189681236"><ele>55.25</ele><time>2026-05-01T09:17:15.998Z</time></trkpt><trkpt lat="43.58634648990933" lon="10.994212044451634"><ele>55.5</ele><time>2026-05-01T09:17:16.998Z</time></trkpt><trkpt lat="43.586438266024224" lon="10.994045743559642"><ele>55.75</ele><time>2026-05-01T09:17:17.998Z</time></trkpt><trkpt lat="43.586524111239015" lon="10.99389402271594"><ele>56.0</ele><time>2026-05-01T09:17:18.998Z</time></trkpt><trkpt lat="43.586604554501804" lon="10.993756129711576"><ele>55.5</ele><time>2026-05-01T09:17:19.998Z</time></trkpt><trkpt lat="43.58668202672424" lon="10.993619108663458"><ele>55.0</ele><time>2026-05-01T09:17:20.998Z</time></trkpt><trkpt lat="43.586760093180274" lon="10.993483925686197"><ele>54.5</ele><time>2026-05-01T09:17:21.998Z</time></trkpt><trkpt lat="43.58683622073945" lon="10.993350373547797"><ele>54.0</ele><time>2026-05-01T09:17:22.998Z</time></trkpt><trkpt lat="43.58690783890804" lon="10.993223280089607"><ele>53.75</ele><time>2026-05-01T09:17:23.998Z</time></trkpt><trkpt lat="43.58698070754068" lon="10.993093748953218"><ele>53.5</ele><time>2026-05-01T09:17:24.998Z</time></trkpt><trkpt lat="43.58705306117438" lon="10.992963666102595"><ele>53.25</ele><time>2026-05-01T09:17:25.998Z</time></trkpt><trkpt lat="43.58711932197384" lon="10.992843319526159"><ele>53.0</ele><time>2026-05-01T09:17:26.998Z</time></trkpt><trkpt lat="43.58718514338732" lon="10.992722179114837"><ele>53.75</ele><time>2026-05-01T09:17:27.998Z</time></trkpt><trkpt lat="43.587251529371315" lon="10.992596891338803"><ele>54.5</ele><time>2026-05-01T09:17:28.998Z</time></trkpt><trkpt lat="43.58732461520052" lon="10.992460897790435"><ele>55.25</ele><time>2026-05-01T09:17:29.998Z</time></trkpt><trkpt lat="43.587401501815805" lon="10.9922992917646"><ele>56.0</ele><time>2026-05-01T09:17:30.998Z</time></trkpt><trkpt lat="43.587481909095104" lon="10.99214146383972"><ele>56.0</ele><time>2026-05-01T09:17:31.998Z</time></trkpt><trkpt lat="43.58758994432056" lon="10.991961220749653"><ele>56.0</ele><time>2026-05-01T09:17:32.998Z</time></trkpt><trkpt lat="43.58768130215624" lon="10.99181941376647"><ele>56.0</ele><time>2026-05-01T09:17:33.998Z</time></trkpt><trkpt lat="43.587764204238766" lon="10.991678206386057"><ele>56.0</ele><time>2026-05-01T09:17:34.998Z</time></trkpt><trkpt lat="43.58785003720819" lon="10.99151320660756"><ele>55.333333333333336</ele><time>2026-05-01T09:17:35.998Z</time></trkpt><trkpt lat="43.58793983315405" lon="10.991325068396765"><ele>54.66666666666667</ele><time>2026-05-01T09:17:36.998Z</time></trkpt><trkpt lat="43.58803865494432" lon="10.991160484415051"><ele>54.0</ele><time>2026-05-01T09:17:38Z</time></trkpt><trkpt lat="43.588132081313105" lon="10.99101804119531"><ele>54.0</ele><time>2026-05-01T09:17:39Z</time></trkpt><trkpt lat="43.58820927914003" lon="10.99088085354967"><ele>54.0</ele><time>2026-05-01T09:17:40Z</time></trkpt><trkpt lat="43.588282257611965" lon="10.990750512887823"><ele>54.0</ele><time>2026-05-01T09:17:41Z</time></trkpt><trkpt lat="43.588351538475415" lon="10.990627226041257"><ele>54.0</ele><time>2026-05-01T09:17:42Z</time></trkpt><trkpt lat="43.588415215692336" lon="10.990509763640361"><ele>53.833333333333336</ele><time>2026-05-01T09:17:43Z</time></trkpt><trkpt lat="43.58847257816791" lon="10.99040546994502"><ele>53.66666666666667</ele><time>2026-05-01T09:17:44Z</time></trkpt><trkpt lat="43.58851987318339" lon="10.99032269046766"><ele>53.5</ele><time>2026-05-01T09:17:45Z</time></trkpt><trkpt lat="43.58857324993086" lon="10.990219688411168"><ele>53.333333333333336</ele><time>2026-05-01T09:17:47Z</time></trkpt><trkpt lat="43.58861741721921" lon="10.99014061252295"><ele>53.16666666666667</ele><time>2026-05-01T09:17:51Z</time></trkpt><trkpt lat="43.588677416124284" lon="10.990032230064172"><ele>53.0</ele><time>2026-05-01T09:18:00Z</time></trkpt><trkpt lat="43.58872048610131" lon="10.989963143578997"><ele>53.333333333333336</ele><time>2026-05-01T09:18:01Z</time></trkpt><trkpt lat="43.58876314142261" lon="10.989890081886074"><ele>53.66666666666667</ele><time>2026-05-01T09:18:02Z</time></trkpt><trkpt lat="43.588824455112665" lon="10.989772059167183"><ele>54.0</ele><time>2026-05-01T09:18:04Z</time></trkpt><trkpt lat="43.58888551914877" lon="10.989658825081898"><ele>54.33333333333333</ele><time>2026-05-01T09:18:05.999Z</time></trkpt><trkpt lat="43.588952797721554" lon="10.989549118491169"><ele>54.666666666666664</ele><time>2026-05-01T09:18:07.999Z</time></trkpt><trkpt lat="43.588993879590326" lon="10.98947977082743"><ele>55.0</ele><time>2026-05-01T09:18:08.999Z</time></trkpt><trkpt lat="43.589043113312755" lon="10.989391766074137"><ele>55.0</ele><time>2026-05-01T09:18:09.999Z</time></trkpt><trkpt lat="43.58910194137414" lon="10.989281610209353"><ele>55.0</ele><time>2026-05-01T09:18:10.999Z</time></trkpt><trkpt lat="43.589166938974266" lon="10.989168985347881"><ele>55.0</ele><time>2026-05-01T09:18:11.999Z</time></trkpt><trkpt lat="43.58923452081011" lon="10.98904812381256"><ele>55.0</ele><time>2026-05-01T09:18:12.999Z</time></trkpt><trkpt lat="43.58930572313954" lon="10.988917695800229"><ele>55.0</ele><time>2026-05-01T09:18:13.999Z</time></trkpt><trkpt lat="43.589383802052794" lon="10.988778409826852"><ele>54.75</ele><time>2026-05-01T09:18:14.999Z</time></trkpt><trkpt lat="43.58946809411321" lon="10.988635596465588"><ele>54.5</ele><time>2026-05-01T09:18:15.999Z</time></trkpt><trkpt lat="43.58955315133803" lon="10.988484154958948"><ele>54.25</ele><time>2026-05-01T09:18:16.999Z</time></trkpt><trkpt lat="43.58964081816791" lon="10.98832250422327"><ele>54.0</ele><time>2026-05-01T09:18:17.999Z</time></trkpt><trkpt lat="43.589731554369216" lon="10.9881563779375"><ele>54.0</ele><time>2026-05-01T09:18:18.999Z</time></trkpt><trkpt lat="43.58982682744093" lon="10.987982348046934"><ele>54.0</ele><time>2026-05-01T09:18:19.999Z</time></trkpt><trkpt lat="43.58992530228733" lon="10.987804044139262"><ele>54.0</ele><time>2026-05-01T09:18:20.999Z</time></trkpt><trkpt lat="43.59002584894733" lon="10.987630660809193"><ele>54.0</ele><time>2026-05-01T09:18:21.999Z</time></trkpt><trkpt lat="43.59012455863649" lon="10.987461570366113"><ele>54.0</ele><time>2026-05-01T09:18:22.999Z</time></trkpt><trkpt lat="43.59022112549739" lon="10.987294753158936"><ele>54.0</ele><time>2026-05-01T09:18:23.999Z</time></trkpt><trkpt lat="43.59031328420516" lon="10.98712891433394"><ele>53.25</ele><time>2026-05-01T09:18:24.999Z</time></trkpt><trkpt lat="43.59040241403086" lon="10.986967510699087"><ele>52.5</ele><time>2026-05-01T09:18:25.999Z</time></trkpt><trkpt lat="43.590493040906956" lon="10.986817872241428"><ele>51.75</ele><time>2026-05-01T09:18:26.999Z</time></trkpt><trkpt lat="43.59057895052725" lon="10.98667101493773"><ele>51.0</ele><time>2026-05-01T09:18:27.999Z</time></trkpt><trkpt lat="43.59066138089162" lon="10.986527705491312"><ele>51.0</ele><time>2026-05-01T09:18:28.999Z</time></trkpt><trkpt lat="43.59073681861816" lon="10.986396809900128"><ele>51.0</ele><time>2026-05-01T09:18:29.999Z</time></trkpt><trkpt lat="43.590809205638635" lon="10.986265561657303"><ele>51.0</ele><time>2026-05-01T09:18:30.999Z</time></trkpt><trkpt lat="43.59088262212124" lon="10.986133982753541"><ele>51.0</ele><time>2026-05-01T09:18:31.999Z</time></trkpt><trkpt lat="43.59095913347274" lon="10.985994959362566"><ele>51.0</ele><time>2026-05-01T09:18:32.999Z</time></trkpt><trkpt lat="43.59103846015842" lon="10.985851659479783"><ele>51.0</ele><time>2026-05-01T09:18:33.999Z</time></trkpt><trkpt lat="43.591122251342476" lon="10.9857064673937"><ele>51.0</ele><time>2026-05-01T09:18:34.999Z</time></trkpt><trkpt lat="43.591208647779624" lon="10.985553766754032"><ele>51.0</ele><time>2026-05-01T09:18:35.999Z</time></trkpt><trkpt lat="43.59129891080738" lon="10.985397121883357"><ele>51.25</ele><time>2026-05-01T09:18:36.999Z</time></trkpt><trkpt lat="43.59138989985625" lon="10.985235023464549"><ele>51.5</ele><time>2026-05-01T09:18:37.999Z</time></trkpt><trkpt lat="43.59147899630545" lon="10.98507199224978"><ele>51.75</ele><time>2026-05-01T09:18:38.999Z</time></trkpt><trkpt lat="43.591570614891765" lon="10.984911953916889"><ele>52.0</ele><time>2026-05-01T09:18:39.999Z</time></trkpt><trkpt lat="43.591656861737704" lon="10.984757044829133"><ele>52.0</ele><time>2026-05-01T09:18:40.999Z</time></trkpt><trkpt lat="43.5917337346468" lon="10.984618043630695"><ele>52.0</ele><time>2026-05-01T09:18:41.999Z</time></trkpt><trkpt lat="43.591806395250785" lon="10.98449078310301"><ele>52.0</ele><time>2026-05-01T09:18:42.999Z</time></trkpt><trkpt lat="43.59187332792263" lon="10.984374293044663"><ele>52.0</ele><time>2026-05-01T09:18:43.999Z</time></trkpt><trkpt lat="43.59193397672329" lon="10.984263099016964"><ele>52.0</ele><time>2026-05-01T09:18:44.999Z</time></trkpt><trkpt lat="43.59199204691976" lon="10.984163612372196"><ele>52.0</ele><time>2026-05-01T09:18:45.999Z</time></trkpt><trkpt lat="43.59204669529611" lon="10.98406691930034"><ele>52.0</ele><time>2026-05-01T09:18:46.999Z</time></trkpt><trkpt lat="43.59209982450855" lon="10.983979887854959"><ele>52.0</ele><time>2026-05-01T09:18:47.999Z</time></trkpt><trkpt lat="43.592143649794124" lon="10.983907041547958"><ele>52.0</ele><time>2026-05-01T09:18:48.999Z</time></trkpt><trkpt lat="43.59222242886844" lon="10.983781764041078"><ele>52.2</ele><time>2026-05-01T09:18:50.999Z</time></trkpt><trkpt lat="43.59229592859535" lon="10.983656326012945"><ele>52.400000000000006</ele><time>2026-05-01T09:18:52.999Z</time></trkpt><trkpt lat="43.59237809892009" lon="10.98351840412043"><ele>52.599999999999994</ele><time>2026-05-01T09:18:54.999Z</time></trkpt><trkpt lat="43.59243456363889" lon="10.983439164506766"><ele>52.8</ele><time>2026-05-01T09:18:55.999Z</time></trkpt><trkpt lat="43.592497418513936" lon="10.983351684620898"><ele>53.0</ele><time>2026-05-01T09:18:56.998Z</time></trkpt><trkpt lat="43.59255508664476" lon="10.983250088850005"><ele>53.0</ele><time>2026-05-01T09:18:57.998Z</time></trkpt><trkpt lat="43.59258499422139" lon="10.983132443819736"><ele>53.0</ele><time>2026-05-01T09:18:58.998Z</time></trkpt><trkpt lat="43.59259589635904" lon="10.983002713312382"><ele>53.0</ele><time>2026-05-01T09:18:59.998Z</time></trkpt><trkpt lat="43.592568458064015" lon="10.98286783565415"><ele>53.0</ele><time>2026-05-01T09:19:00.998Z</time></trkpt><trkpt lat="43.5925204835576" lon="10.982738412653678"><ele>53.0</ele><time>2026-05-01T09:19:01.998Z</time></trkpt><trkpt lat="43.59249824832854" lon="10.98262393150441"><ele>53.0</ele><time>2026-05-01T09:19:02.998Z</time></trkpt><trkpt lat="43.59251656338398" lon="10.982496501468741"><ele>53.0</ele><time>2026-05-01T09:19:03.998Z</time></trkpt><trkpt lat="43.592575896618115" lon="10.982371374275827"><ele>53.0</ele><time>2026-05-01T09:19:04.998Z</time></trkpt><trkpt lat="43.59265717297155" lon="10.982250855013929"><ele>53.0</ele><time>2026-05-01T09:19:05.998Z</time></trkpt><trkpt lat="43.59275701663579" lon="10.982109834260749"><ele>53.25</ele><time>2026-05-01T09:19:06.998Z</time></trkpt><trkpt lat="43.59285878301842" lon="10.981962835328705"><ele>53.5</ele><time>2026-05-01T09:19:07.998Z</time></trkpt><trkpt lat="43.59295214367213" lon="10.981826539472356"><ele>53.75</ele><time>2026-05-01T09:19:08.998Z</time></trkpt><trkpt lat="43.5930338279062" lon="10.98167956229541"><ele>54.0</ele><time>2026-05-01T09:19:09.998Z</time></trkpt><trkpt lat="43.593097840966585" lon="10.981505611270283"><ele>54.0</ele><time>2026-05-01T09:19:10.998Z</time></trkpt><trkpt lat="43.59314048585936" lon="10.98131751876509"><ele>54.0</ele><time>2026-05-01T09:19:11.998Z</time></trkpt><trkpt lat="43.59315854265884" lon="10.981116296445407"><ele>54.0</ele><time>2026-05-01T09:19:12.998Z</time></trkpt><trkpt lat="43.593152896256065" lon="10.980910609614202"><ele>54.0</ele><time>2026-05-01T09:19:13.998Z</time></trkpt><trkpt lat="43.593130247919326" lon="10.980733991667135"><ele>53.25</ele><time>2026-05-01T09:19:14.998Z</time></trkpt><trkpt lat="43.59310161097576" lon="10.980581228732456"><ele>52.5</ele><time>2026-05-01T09:19:15.998Z</time></trkpt><trkpt lat="43.59307744463165" lon="10.980434638485384"><ele>51.75</ele><time>2026-05-01T09:19:16.998Z</time></trkpt><trkpt lat="43.593052397963376" lon="10.980276512975587"><ele>51.0</ele><time>2026-05-01T09:19:17.998Z</time></trkpt><trkpt lat="43.59302581264769" lon="10.980110231867954"><ele>51.0</ele><time>2026-05-01T09:19:18.998Z</time></trkpt><trkpt lat="43.592997416539305" lon="10.97994557701981"><ele>51.0</ele><time>2026-05-01T09:19:19.998Z</time></trkpt><trkpt lat="43.59296703675124" lon="10.979777481424335"><ele>51.0</ele><time>2026-05-01T09:19:20.998Z</time></trkpt><trkpt lat="43.592937941809275" lon="10.979603340590929"><ele>51.0</ele><time>2026-05-01T09:19:21.998Z</time></trkpt><trkpt lat="43.59291187658103" lon="10.979437977503753"><ele>51.0</ele><time>2026-05-01T09:19:22.998Z</time></trkpt><trkpt lat="43.592884732266874" lon="10.9792709764846"><ele>51.0</ele><time>2026-05-01T09:19:23.998Z</time></trkpt><trkpt lat="43.592857676365114" lon="10.979092939110714"><ele>51.0</ele><time>2026-05-01T09:19:24.998Z</time></trkpt><trkpt lat="43.59283050570451" lon="10.978912293609167"><ele>51.0</ele><time>2026-05-01T09:19:25.998Z</time></trkpt><trkpt lat="43.59280085080156" lon="10.978726031898551"><ele>51.33333333333333</ele><time>2026-05-01T09:19:26.998Z</time></trkpt><trkpt lat="43.59276689934851" lon="10.97853184365476"><ele>51.666666666666664</ele><time>2026-05-01T09:19:27.998Z</time></trkpt><trkpt lat="43.592733806888155" lon="10.978326611042068"><ele>52.0</ele><time>2026-05-01T09:19:28.998Z</time></trkpt><trkpt lat="43.5926993304915" lon="10.97810320851374"><ele>52.0</ele><time>2026-05-01T09:19:29.998Z</time></trkpt><trkpt lat="43.5926656706036" lon="10.977885187735636"><ele>52.0</ele><time>2026-05-01T09:19:30.998Z</time></trkpt><trkpt lat="43.59262869187253" lon="10.97766607980673"><ele>52.0</ele><time>2026-05-01T09:19:31.998Z</time></trkpt><trkpt lat="43.59259003791515" lon="10.977440963340749"><ele>51.666666666666664</ele><time>2026-05-01T09:19:32.998Z</time></trkpt><trkpt lat="43.59255373188379" lon="10.97722119927594"><ele>51.33333333333333</ele><time>2026-05-01T09:19:33.998Z</time></trkpt><trkpt lat="43.59252121009696" lon="10.97702150861022"><ele>51.0</ele><time>2026-05-01T09:19:34.998Z</time></trkpt><trkpt lat="43.59248694660093" lon="10.97682211762815"><ele>51.0</ele><time>2026-05-01T09:19:35.998Z</time></trkpt><trkpt lat="43.592452302401405" lon="10.976623018262357"><ele>51.0</ele><time>2026-05-01T09:19:36.998Z</time></trkpt><trkpt lat="43.59242073325971" lon="10.97641668553932"><ele>51.0</ele><time>2026-05-01T09:19:37.998Z</time></trkpt><trkpt lat="43.592393280731365" lon="10.976206851030232"><ele>51.0</ele><time>2026-05-01T09:19:38.998Z</time></trkpt><trkpt lat="43.59237211065792" lon="10.976006161326572"><ele>51.0</ele><time>2026-05-01T09:19:39.998Z</time></trkpt><trkpt lat="43.592360093614126" lon="10.97581503472972"><ele>51.0</ele><time>2026-05-01T09:19:40.998Z</time></trkpt><trkpt lat="43.592357644295525" lon="10.975631260566098"><ele>51.0</ele><time>2026-05-01T09:19:41.998Z</time></trkpt><trkpt lat="43.5923583017188" lon="10.975443872723503"><ele>51.0</ele><time>2026-05-01T09:19:43Z</time></trkpt><trkpt lat="43.59236246327552" lon="10.975261990867061"><ele>51.0</ele><time>2026-05-01T09:19:44Z</time></trkpt><trkpt lat="43.592375878128465" lon="10.975097107520316"><ele>51.0</ele><time>2026-05-01T09:19:45Z</time></trkpt><trkpt lat="43.59239649248433" lon="10.974942393828991"><ele>51.0</ele><time>2026-05-01T09:19:46Z</time></trkpt><trkpt lat="43.59241713534022" lon="10.974792254290477"><ele>51.0</ele><time>2026-05-01T09:19:47Z</time></trkpt><trkpt lat="43.59243450004021" lon="10.974658923085062"><ele>51.0</ele><time>2026-05-01T09:19:48Z</time></trkpt><trkpt lat="43.59244907080886" lon="10.974528584268125"><ele>51.0</ele><time>2026-05-01T09:19:49Z</time></trkpt><trkpt lat="43.59246331223444" lon="10.974386611920684"><ele>51.0</ele><time>2026-05-01T09:19:50Z</time></trkpt><trkpt lat="43.5924815521545" lon="10.974239113897523"><ele>51.0</ele><time>2026-05-01T09:19:51Z</time></trkpt><trkpt lat="43.59250328190116" lon="10.97409960945853"><ele>51.0</ele><time>2026-05-01T09:19:52Z</time></trkpt><trkpt lat="43.59252476678498" lon="10.973962154174194"><ele>51.0</ele><time>2026-05-01T09:19:53Z</time></trkpt><trkpt lat="43.592549604114154" lon="10.973825884437277"><ele>51.0</ele><time>2026-05-01T09:19:54Z</time></trkpt><trkpt lat="43.5925758518401" lon="10.9736860793553"><ele>51.0</ele><time>2026-05-01T09:19:55Z</time></trkpt><trkpt lat="43.592596859514146" lon="10.97355678680881"><ele>51.0</ele><time>2026-05-01T09:19:56Z</time></trkpt><trkpt lat="43.59261594651071" lon="10.973436814074732"><ele>51.0</ele><time>2026-05-01T09:19:57Z</time></trkpt><trkpt lat="43.59263157491266" lon="10.973333529701385"><ele>51.0</ele><time>2026-05-01T09:19:58Z</time></trkpt><trkpt lat="43.59264496361209" lon="10.973242230169692"><ele>51.0</ele><time>2026-05-01T09:19:59Z</time></trkpt><trkpt lat="43.59266565607332" lon="10.97311052143124"><ele>51.0</ele><time>2026-05-01T09:20:01Z</time></trkpt><trkpt lat="43.59267858983752" lon="10.973023447540077"><ele>51.0</ele><time>2026-05-01T09:20:03Z</time></trkpt><trkpt lat="43.592698259318205" lon="10.972910373170897"><ele>51.0</ele><time>2026-05-01T09:20:06Z</time></trkpt><trkpt lat="43.59272357228232" lon="10.97278334822267"><ele>51.0</ele><time>2026-05-01T09:20:08Z</time></trkpt><trkpt lat="43.59277703221483" lon="10.972654221630213"><ele>51.0</ele><time>2026-05-01T09:20:10Z</time></trkpt><trkpt lat="43.592831208353076" lon="10.97259237247071"><ele>51.0</ele><time>2026-05-01T09:20:11Z</time></trkpt><trkpt lat="43.592889751732464" lon="10.972523852185327"><ele>51.0</ele><time>2026-05-01T09:20:12Z</time></trkpt><trkpt lat="43.59293359733507" lon="10.97243464289333"><ele>51.0</ele><time>2026-05-01T09:20:13Z</time></trkpt><trkpt lat="43.59295236578893" lon="10.97233064131379"><ele>51.0</ele><time>2026-05-01T09:20:13.999Z</time></trkpt><trkpt lat="43.592946668543185" lon="10.972223088943347"><ele>51.0</ele><time>2026-05-01T09:20:14.999Z</time></trkpt><trkpt lat="43.59290987278531" lon="10.972147597768295"><ele>51.0</ele><time>2026-05-01T09:20:15.999Z</time></trkpt><trkpt lat="43.592862963218394" lon="10.97207243374089"><ele>51.0</ele><time>2026-05-01T09:20:16.999Z</time></trkpt><trkpt lat="43.59277230542351" lon="10.972076274592766"><ele>51.0</ele><time>2026-05-01T09:20:17.999Z</time></trkpt><trkpt lat="43.59268833461409" lon="10.972109240103958"><ele>51.0</ele><time>2026-05-01T09:20:18.999Z</time></trkpt><trkpt lat="43.592609022769906" lon="10.972174497772146"><ele>51.0</ele><time>2026-05-01T09:20:19.999Z</time></trkpt><trkpt lat="43.59252324051817" lon="10.972234794845008"><ele>51.0</ele><time>2026-05-01T09:20:20.999Z</time></trkpt><trkpt lat="43.59241675455666" lon="10.972260278791747"><ele>51.0</ele><time>2026-05-01T09:20:21.999Z</time></trkpt><trkpt lat="43.59229571938576" lon="10.972260838475506"><ele>51.0</ele><time>2026-05-01T09:20:22.999Z</time></trkpt><trkpt lat="43.59214686841083" lon="10.972247934680667"><ele>51.0</ele><time>2026-05-01T09:20:23.999Z</time></trkpt><trkpt lat="43.59196552541928" lon="10.972229081694493"><ele>50.5</ele><time>2026-05-01T09:20:24.999Z</time></trkpt><trkpt lat="43.591739157900975" lon="10.972204974791653"><ele>50.0</ele><time>2026-05-01T09:20:25.999Z</time></trkpt><trkpt lat="43.59149315396721" lon="10.972174151305131"><ele>50.0</ele><time>2026-05-01T09:20:26.999Z</time></trkpt><trkpt lat="43.59122439946661" lon="10.972137843324907"><ele>50.0</ele><time>2026-05-01T09:20:27.999Z</time></trkpt><trkpt lat="43.590964500819936" lon="10.972094191157677"><ele>50.66666666666667</ele><time>2026-05-01T09:20:28.999Z</time></trkpt><trkpt lat="43.59074136962591" lon="10.972051173885097"><ele>51.33333333333333</ele><time>2026-05-01T09:20:29.999Z</time></trkpt><trkpt lat="43.59054003514153" lon="10.972011943444082"><ele>52.0</ele><time>2026-05-01T09:20:30.999Z</time></trkpt><trkpt lat="43.59035634168763" lon="10.971968627692512"><ele>52.0</ele><time>2026-05-01T09:20:31.999Z</time></trkpt><trkpt lat="43.59019872501902" lon="10.971915399422786"><ele>52.0</ele><time>2026-05-01T09:20:32.999Z</time></trkpt><trkpt lat="43.59006965584818" lon="10.971855326348042"><ele>52.0</ele><time>2026-05-01T09:20:33.999Z</time></trkpt><trkpt lat="43.58996687136669" lon="10.971797841233425"><ele>52.0</ele><time>2026-05-01T09:20:34.999Z</time></trkpt><trkpt lat="43.589883843165055" lon="10.971726057007373"><ele>51.75</ele><time>2026-05-01T09:20:35.999Z</time></trkpt><trkpt lat="43.58981255039209" lon="10.971610515088049"><ele>51.5</ele><time>2026-05-01T09:20:36.999Z</time></trkpt><trkpt lat="43.58975249401116" lon="10.971465388604544"><ele>51.25</ele><time>2026-05-01T09:20:37.999Z</time></trkpt><trkpt lat="43.58970376825286" lon="10.971310357663794"><ele>51.0</ele><time>2026-05-01T09:20:38.999Z</time></trkpt><trkpt lat="43.589668737601315" lon="10.97115099462845"><ele>51.0</ele><time>2026-05-01T09:20:39.999Z</time></trkpt><trkpt lat="43.589657456659246" lon="10.970981125409425"><ele>51.0</ele><time>2026-05-01T09:20:40.999Z</time></trkpt><trkpt lat="43.58966062145048" lon="10.970817439147783"><ele>51.0</ele><time>2026-05-01T09:20:41.999Z</time></trkpt><trkpt lat="43.589674900104185" lon="10.970647166837605"><ele>51.0</ele><time>2026-05-01T09:20:42.999Z</time></trkpt><trkpt lat="43.58970017037415" lon="10.97047580939294"><ele>51.25</ele><time>2026-05-01T09:20:43.999Z</time></trkpt><trkpt lat="43.5897226656549" lon="10.970310575985842"><ele>51.5</ele><time>2026-05-01T09:20:44.999Z</time></trkpt><trkpt lat="43.589739314676926" lon="10.970133145872987"><ele>51.75</ele><time>2026-05-01T09:20:45.999Z</time></trkpt><trkpt lat="43.589756462407706" lon="10.969949378930249"><ele>52.0</ele><time>2026-05-01T09:20:46.999Z</time></trkpt><trkpt lat="43.58977399328301" lon="10.969748314275307"><ele>52.0</ele><time>2026-05-01T09:20:47.999Z</time></trkpt><trkpt lat="43.5897912680687" lon="10.96953219593046"><ele>52.0</ele><time>2026-05-01T09:20:48.999Z</time></trkpt><trkpt lat="43.589801117974226" lon="10.969292344037498"><ele>52.0</ele><time>2026-05-01T09:20:49.999Z</time></trkpt><trkpt lat="43.58980296734549" lon="10.96899684533497"><ele>51.666666666666664</ele><time>2026-05-01T09:20:50.999Z</time></trkpt><trkpt lat="43.589811310946736" lon="10.9686819919574"><ele>51.33333333333333</ele><time>2026-05-01T09:20:51.999Z</time></trkpt><trkpt lat="43.58982741247742" lon="10.968388803328418"><ele>51.0</ele><time>2026-05-01T09:20:52.999Z</time></trkpt><trkpt lat="43.5898313875132" lon="10.96812564797354"><ele>52.0</ele><time>2026-05-01T09:20:53.999Z</time></trkpt><trkpt lat="43.58982107016848" lon="10.967836849929041"><ele>53.0</ele><time>2026-05-01T09:20:54.999Z</time></trkpt><trkpt lat="43.58979905845154" lon="10.967501882649854"><ele>55.5</ele><time>2026-05-01T09:20:55.999Z</time></trkpt><trkpt lat="43.58977897642994" lon="10.967149850442324"><ele>58.0</ele><time>2026-05-01T09:20:56.999Z</time></trkpt><trkpt lat="43.58972599405296" lon="10.966831714941616"><ele>60.666666666666664</ele><time>2026-05-01T09:20:57.999Z</time></trkpt><trkpt lat="43.58968320980799" lon="10.96653709060643"><ele>63.33333333333333</ele><time>2026-05-01T09:20:58.999Z</time></trkpt><trkpt lat="43.589641750482635" lon="10.966267101609544"><ele>66.0</ele><time>2026-05-01T09:20:59.999Z</time></trkpt><trkpt lat="43.589604663383405" lon="10.966027177419859"><ele>69.0</ele><time>2026-05-01T09:21:00.999Z</time></trkpt><trkpt lat="43.589571623925366" lon="10.965821264880246"><ele>72.0</ele><time>2026-05-01T09:21:01.999Z</time></trkpt><trkpt lat="43.58954047653201" lon="10.965627144358267"><ele>75.0</ele><time>2026-05-01T09:21:02.999Z</time></trkpt><trkpt lat="43.589507171224156" lon="10.965420592810808"><ele>75.0</ele><time>2026-05-01T09:21:03.999Z</time></trkpt><trkpt lat="43.58946885016391" lon="10.965191240043708"><ele>75.0</ele><time>2026-05-01T09:21:04.998Z</time></trkpt><trkpt lat="43.589421340837674" lon="10.964913563544782"><ele>75.0</ele><time>2026-05-01T09:21:06.069Z</time></trkpt><trkpt lat="43.589359503293764" lon="10.964626589768171"><ele>70.0</ele><time>2026-05-01T09:21:07.062Z</time></trkpt><trkpt lat="43.58924389786836" lon="10.964008097781187"><ele>70.0</ele><time>2026-05-01T09:21:08.998Z</time></trkpt><trkpt lat="43.58917970802701" lon="10.963597273001668"><ele>70.0</ele><time>2026-05-01T09:21:09.998Z</time></trkpt><trkpt lat="43.58910473738378" lon="10.963239315872375"><ele>71.0</ele><time>2026-05-01T09:21:10.998Z</time></trkpt><trkpt lat="43.58903686348102" lon="10.962889231562167"><ele>72.0</ele><time>2026-05-01T09:21:11.998Z</time></trkpt><trkpt lat="43.58898568753439" lon="10.96254457830894"><ele>69.5</ele><time>2026-05-01T09:21:12.998Z</time></trkpt><trkpt lat="43.588914294213424" lon="10.962224366854622"><ele>67.0</ele><time>2026-05-01T09:21:13.998Z</time></trkpt><trkpt lat="43.588873213972384" lon="10.961904721821615"><ele>64.0</ele><time>2026-05-01T09:21:14.998Z</time></trkpt><trkpt lat="43.588807093471665" lon="10.961594197776058"><ele>61.0</ele><time>2026-05-01T09:21:15.998Z</time></trkpt><trkpt lat="43.58875418769017" lon="10.961289774119102"><ele>61.0</ele><time>2026-05-01T09:21:16.998Z</time></trkpt><trkpt lat="43.58871779463473" lon="10.960979419479596"><ele>61.0</ele><time>2026-05-01T09:21:17.998Z</time></trkpt><trkpt lat="43.58869093517009" lon="10.960659908570358"><ele>61.5</ele><time>2026-05-01T09:21:18.998Z</time></trkpt><trkpt lat="43.588673411770145" lon="10.960338211422581"><ele>62.0</ele><time>2026-05-01T09:21:19.998Z</time></trkpt><trkpt lat="43.58866873942223" lon="10.960017315113586"><ele>62.5</ele><time>2026-05-01T09:21:20.998Z</time></trkpt><trkpt lat="43.58867447882074" lon="10.95969562799814"><ele>63.0</ele><time>2026-05-01T09:21:21.998Z</time></trkpt><trkpt lat="43.58868868951162" lon="10.95936415668026"><ele>64.0</ele><time>2026-05-01T09:21:22.998Z</time></trkpt><trkpt lat="43.588712497669924" lon="10.959016944767237"><ele>65.0</ele><time>2026-05-01T09:21:23.998Z</time></trkpt><trkpt lat="43.58876333739107" lon="10.958658220849768"><ele>65.0</ele><time>2026-05-01T09:21:24.998Z</time></trkpt><trkpt lat="43.588836699908505" lon="10.958289535952073"><ele>65.0</ele><time>2026-05-01T09:21:25.998Z</time></trkpt><trkpt lat="43.588938086895304" lon="10.957920173656557"><ele>65.0</ele><time>2026-05-01T09:21:26.998Z</time></trkpt><trkpt lat="43.58903312810439" lon="10.957559384056953"><ele>65.0</ele><time>2026-05-01T09:21:27.998Z</time></trkpt><trkpt lat="43.58914840090762" lon="10.95721502073524"><ele>65.5</ele><time>2026-05-01T09:21:28.998Z</time></trkpt><trkpt lat="43.589275507388244" lon="10.956886876253622"><ele>66.0</ele><time>2026-05-01T09:21:29.998Z</time></trkpt><trkpt lat="43.58939510959149" lon="10.956563064901282"><ele>68.5</ele><time>2026-05-01T09:21:30.998Z</time></trkpt><trkpt lat="43.589509469704474" lon="10.956239369922885"><ele>71.0</ele><time>2026-05-01T09:21:31.998Z</time></trkpt><trkpt lat="43.58962199939448" lon="10.95592110791063"><ele>73.0</ele><time>2026-05-01T09:21:32.998Z</time></trkpt><trkpt lat="43.58973253443163" lon="10.955608579824686"><ele>75.0</ele><time>2026-05-01T09:21:33.998Z</time></trkpt><trkpt lat="43.589840891885494" lon="10.955302207124786"><ele>83.5</ele><time>2026-05-01T09:21:34.998Z</time></trkpt><trkpt lat="43.589949901329064" lon="10.955001455786476"><ele>92.0</ele><time>2026-05-01T09:21:35.998Z</time></trkpt><trkpt lat="43.59010072104117" lon="10.954736431890352"><ele>92.0</ele><time>2026-05-01T09:21:36.998Z</time></trkpt><trkpt lat="43.59021057492412" lon="10.954449764169134"><ele>92.0</ele><time>2026-05-01T09:21:37.998Z</time></trkpt><trkpt lat="43.590319125253494" lon="10.95416623972035"><ele>96.0</ele><time>2026-05-01T09:21:38.998Z</time></trkpt><trkpt lat="43.59042666954838" lon="10.953886969101976"><ele>100.0</ele><time>2026-05-01T09:21:39.998Z</time></trkpt><trkpt lat="43.59053257848053" lon="10.953609080424403"><ele>104.5</ele><time>2026-05-01T09:21:40.998Z</time></trkpt><trkpt lat="43.590637439682205" lon="10.953331712489058"><ele>109.0</ele><time>2026-05-01T09:21:41.998Z</time></trkpt><trkpt lat="43.59075077569213" lon="10.953039746891594"><ele>109.0</ele><time>2026-05-01T09:21:43.067Z</time></trkpt><trkpt lat="43.590859041857186" lon="10.952771809851408"><ele>109.0</ele><time>2026-05-01T09:21:44.066Z</time></trkpt><trkpt lat="43.590963381917405" lon="10.952504907479506"><ele>109.0</ele><time>2026-05-01T09:21:45.065Z</time></trkpt><trkpt lat="43.59106631302103" lon="10.952239524719086"><ele>112.0</ele><time>2026-05-01T09:21:46.055Z</time></trkpt><trkpt lat="43.59117033641721" lon="10.951974116730252"><ele>115.0</ele><time>2026-05-01T09:21:47.055Z</time></trkpt><trkpt lat="43.59202823734531" lon="10.949612931768236"><ele>95.0</ele><time>2026-05-01T09:21:54.998Z</time></trkpt><trkpt lat="43.59214661146313" lon="10.9493517525784"><ele>75.0</ele><time>2026-05-01T09:21:55.997Z</time></trkpt><trkpt lat="43.59225790717719" lon="10.949061658167313"><ele>74.0</ele><time>2026-05-01T09:21:56.997Z</time></trkpt><trkpt lat="43.59237055114689" lon="10.948771594985864"><ele>73.0</ele><time>2026-05-01T09:21:57.997Z</time></trkpt><trkpt lat="43.59248267924214" lon="10.948478071951545"><ele>71.0</ele><time>2026-05-01T09:21:58.997Z</time></trkpt><trkpt lat="43.59259743829511" lon="10.948189284786379"><ele>69.0</ele><time>2026-05-01T09:21:59.997Z</time></trkpt><trkpt lat="43.59272078766768" lon="10.947907054176314"><ele>69.0</ele><time>2026-05-01T09:22:01Z</time></trkpt><trkpt lat="43.59285729406529" lon="10.947633952933607"><ele>69.0</ele><time>2026-05-01T09:22:02Z</time></trkpt><trkpt lat="43.592998399331066" lon="10.947368557335455"><ele>69.0</ele><time>2026-05-01T09:22:03Z</time></trkpt><trkpt lat="43.59314198877858" lon="10.947108812550171"><ele>69.0</ele><time>2026-05-01T09:22:04Z</time></trkpt><trkpt lat="43.59329476503236" lon="10.946859847762228"><ele>66.5</ele><time>2026-05-01T09:22:05Z</time></trkpt><trkpt lat="43.59346142051893" lon="10.946625708969565"><ele>64.0</ele><time>2026-05-01T09:22:06Z</time></trkpt><trkpt lat="43.59361650781772" lon="10.946370597933619"><ele>64.5</ele><time>2026-05-01T09:22:07Z</time></trkpt><trkpt lat="43.59380106552285" lon="10.946155964727888"><ele>65.0</ele><time>2026-05-01T09:22:08Z</time></trkpt><trkpt lat="43.59399570938325" lon="10.945955771172814"><ele>63.5</ele><time>2026-05-01T09:22:09Z</time></trkpt><trkpt lat="43.59419937705871" lon="10.945772591722257"><ele>62.0</ele><time>2026-05-01T09:22:10Z</time></trkpt><trkpt lat="43.594406958141626" lon="10.94560267986879"><ele>61.0</ele><time>2026-05-01T09:22:11Z</time></trkpt><trkpt lat="43.59462184683138" lon="10.945451462210903"><ele>60.0</ele><time>2026-05-01T09:22:12Z</time></trkpt><trkpt lat="43.594842805138235" lon="10.945318704747136"><ele>60.0</ele><time>2026-05-01T09:22:13Z</time></trkpt><trkpt lat="43.595068136521675" lon="10.945201218005385"><ele>60.0</ele><time>2026-05-01T09:22:14Z</time></trkpt><trkpt lat="43.595302007997134" lon="10.945112162029835"><ele>60.5</ele><time>2026-05-01T09:22:15Z</time></trkpt><trkpt lat="43.59553707114947" lon="10.945008623521604"><ele>61.0</ele><time>2026-05-01T09:22:16Z</time></trkpt><trkpt lat="43.5957835523727" lon="10.944923600003131"><ele>61.0</ele><time>2026-05-01T09:22:17Z</time></trkpt><trkpt lat="43.59603372854469" lon="10.944847684875782"><ele>61.0</ele><time>2026-05-01T09:22:18Z</time></trkpt><trkpt lat="43.59628542688578" lon="10.944777518231525"><ele>65.5</ele><time>2026-05-01T09:22:19Z</time></trkpt><trkpt lat="43.596536941103096" lon="10.944713881856025"><ele>70.0</ele><time>2026-05-01T09:22:20Z</time></trkpt><trkpt lat="43.59678857044907" lon="10.944659860471972"><ele>68.5</ele><time>2026-05-01T09:22:21Z</time></trkpt><trkpt lat="43.597037839283" lon="10.944611419515711"><ele>67.0</ele><time>2026-05-01T09:22:22Z</time></trkpt><trkpt lat="43.59728424759184" lon="10.944561246607519"><ele>67.0</ele><time>2026-05-01T09:22:23Z</time></trkpt><trkpt lat="43.59752946617638" lon="10.944506998886835"><ele>67.0</ele><time>2026-05-01T09:22:24Z</time></trkpt><trkpt lat="43.59777239316829" lon="10.944449361857867"><ele>71.5</ele><time>2026-05-01T09:22:25Z</time></trkpt><trkpt lat="43.598016368257845" lon="10.944390445986727"><ele>76.0</ele><time>2026-05-01T09:22:26Z</time></trkpt><trkpt lat="43.598260276002" lon="10.944332498769588"><ele>76.0</ele><time>2026-05-01T09:22:27Z</time></trkpt><trkpt lat="43.5985028441614" lon="10.944276045766873"><ele>76.0</ele><time>2026-05-01T09:22:28Z</time></trkpt><trkpt lat="43.59874396236408" lon="10.944220604729447"><ele>80.5</ele><time>2026-05-01T09:22:29Z</time></trkpt><trkpt lat="43.59898479780543" lon="10.944165301635701"><ele>85.0</ele><time>2026-05-01T09:22:30Z</time></trkpt><trkpt lat="43.59922539872754" lon="10.944109057735735"><ele>85.0</ele><time>2026-05-01T09:22:31Z</time></trkpt><trkpt lat="43.59946580929195" lon="10.94405099125726"><ele>85.0</ele><time>2026-05-01T09:22:32Z</time></trkpt><trkpt lat="43.59970557486684" lon="10.943989093407438"><ele>80.0</ele><time>2026-05-01T09:22:33Z</time></trkpt><trkpt lat="43.59994545155803" lon="10.943926594090744"><ele>75.0</ele><time>2026-05-01T09:22:34Z</time></trkpt><trkpt lat="43.60020226539258" lon="10.943858630239696"><ele>69.0</ele><time>2026-05-01T09:22:35.068Z</time></trkpt><trkpt lat="43.6006105309066" lon="10.94381570233848"><ele>63.0</ele><time>2026-05-01T09:22:36.999Z</time></trkpt><trkpt lat="43.600840503186795" lon="10.94376577511053"><ele>63.0</ele><time>2026-05-01T09:22:37.999Z</time></trkpt><trkpt lat="43.601086898420334" lon="10.943708514556832"><ele>63.0</ele><time>2026-05-01T09:22:38.999Z</time></trkpt><trkpt lat="43.60131722950393" lon="10.943664444320346"><ele>61.0</ele><time>2026-05-01T09:22:39.999Z</time></trkpt><trkpt lat="43.60154611853458" lon="10.943615765391352"><ele>59.0</ele><time>2026-05-01T09:22:40.999Z</time></trkpt><trkpt lat="43.60178440703904" lon="10.943575296600216"><ele>60.5</ele><time>2026-05-01T09:22:41.999Z</time></trkpt><trkpt lat="43.60201061172914" lon="10.943541232245614"><ele>62.0</ele><time>2026-05-01T09:22:42.999Z</time></trkpt><trkpt lat="43.60224459933245" lon="10.943515620542662"><ele>62.0</ele><time>2026-05-01T09:22:43.999Z</time></trkpt><trkpt lat="43.60247923659691" lon="10.943492353665922"><ele>62.0</ele><time>2026-05-01T09:22:44.999Z</time></trkpt><trkpt lat="43.602714672425805" lon="10.943472060313361"><ele>59.0</ele><time>2026-05-01T09:22:45.999Z</time></trkpt><trkpt lat="43.60295237025369" lon="10.943453590258867"><ele>56.0</ele><time>2026-05-01T09:22:46.999Z</time></trkpt><trkpt lat="43.603190105884565" lon="10.943442353163174"><ele>56.0</ele><time>2026-05-01T09:22:47.999Z</time></trkpt><trkpt lat="43.60342855130227" lon="10.94343414908231"><ele>56.0</ele><time>2026-05-01T09:22:48.999Z</time></trkpt><trkpt lat="43.60366960297442" lon="10.943427787788075"><ele>55.0</ele><time>2026-05-01T09:22:49.999Z</time></trkpt><trkpt lat="43.60391027103698" lon="10.94342579088759"><ele>54.0</ele><time>2026-05-01T09:22:50.999Z</time></trkpt><trkpt lat="43.60415355350451" lon="10.94342284724431"><ele>54.0</ele><time>2026-05-01T09:22:51.999Z</time></trkpt><trkpt lat="43.60439760504649" lon="10.943417774709427"><ele>54.0</ele><time>2026-05-01T09:22:52.999Z</time></trkpt><trkpt lat="43.60464196593409" lon="10.943412105299243"><ele>53.5</ele><time>2026-05-01T09:22:53.999Z</time></trkpt><trkpt lat="43.60488647378143" lon="10.943404272724063"><ele>53.0</ele><time>2026-05-01T09:22:54.999Z</time></trkpt><trkpt lat="43.605132996373435" lon="10.94339370153124"><ele>53.0</ele><time>2026-05-01T09:22:55.999Z</time></trkpt><trkpt lat="43.605380099121945" lon="10.943382862092982"><ele>53.0</ele><time>2026-05-01T09:22:56.999Z</time></trkpt><trkpt lat="43.60562693574413" lon="10.943363067785237"><ele>53.0</ele><time>2026-05-01T09:22:57.999Z</time></trkpt><trkpt lat="43.605873483214914" lon="10.943322783228417"><ele>53.0</ele><time>2026-05-01T09:22:58.999Z</time></trkpt><trkpt lat="43.606121077897384" lon="10.94326613050782"><ele>54.0</ele><time>2026-05-01T09:22:59.999Z</time></trkpt><trkpt lat="43.60636737034276" lon="10.94319300349376"><ele>55.0</ele><time>2026-05-01T09:23:00.999Z</time></trkpt><trkpt lat="43.60661315270309" lon="10.943109826368966"><ele>55.0</ele><time>2026-05-01T09:23:01.999Z</time></trkpt><trkpt lat="43.60685707832979" lon="10.943014304232648"><ele>55.0</ele><time>2026-05-01T09:23:02.999Z</time></trkpt><trkpt lat="43.60709952560882" lon="10.942908376161682"><ele>52.5</ele><time>2026-05-01T09:23:03.999Z</time></trkpt><trkpt lat="43.60734114951878" lon="10.94279497764055"><ele>50.0</ele><time>2026-05-01T09:23:04.999Z</time></trkpt><trkpt lat="43.60758250859766" lon="10.94268316678694"><ele>50.0</ele><time>2026-05-01T09:23:05.999Z</time></trkpt><trkpt lat="43.60782296470439" lon="10.942568525599121"><ele>50.0</ele><time>2026-05-01T09:23:06.999Z</time></trkpt><trkpt lat="43.6080606780217" lon="10.942456131466681"><ele>51.0</ele><time>2026-05-01T09:23:07.999Z</time></trkpt><trkpt lat="43.60829073569797" lon="10.942347701823154"><ele>52.0</ele><time>2026-05-01T09:23:08.999Z</time></trkpt><trkpt lat="43.60851782038143" lon="10.942242508229711"><ele>54.5</ele><time>2026-05-01T09:23:09.999Z</time></trkpt><trkpt lat="43.60874110401248" lon="10.94213727195561"><ele>57.0</ele><time>2026-05-01T09:23:10.999Z</time></trkpt><trkpt lat="43.60896174967868" lon="10.942031414189747"><ele>57.0</ele><time>2026-05-01T09:23:11.999Z</time></trkpt><trkpt lat="43.60918380853455" lon="10.941926262547508"><ele>57.0</ele><time>2026-05-01T09:23:12.999Z</time></trkpt><trkpt lat="43.60940370908066" lon="10.941827776158615"><ele>59.0</ele><time>2026-05-01T09:23:13.999Z</time></trkpt><trkpt lat="43.60962386740644" lon="10.941725615797635"><ele>61.0</ele><time>2026-05-01T09:23:14.999Z</time></trkpt><trkpt lat="43.609850697211655" lon="10.941621330450332"><ele>56.5</ele><time>2026-05-01T09:23:15.999Z</time></trkpt><trkpt lat="43.610079290746356" lon="10.941512385142413"><ele>52.0</ele><time>2026-05-01T09:23:16.999Z</time></trkpt><trkpt lat="43.61030846764631" lon="10.941401783348155"><ele>52.5</ele><time>2026-05-01T09:23:17.999Z</time></trkpt><trkpt lat="43.61054431940486" lon="10.941288610374938"><ele>53.0</ele><time>2026-05-01T09:23:18.999Z</time></trkpt><trkpt lat="43.61078918120083" lon="10.941170885015472"><ele>53.0</ele><time>2026-05-01T09:23:19.999Z</time></trkpt><trkpt lat="43.611041800738704" lon="10.941057549388853"><ele>53.0</ele><time>2026-05-01T09:23:20.999Z</time></trkpt><trkpt lat="43.611296307590585" lon="10.940955054341536"><ele>51.5</ele><time>2026-05-01T09:23:21.999Z</time></trkpt><trkpt lat="43.611583196932216" lon="10.940876876546104"><ele>50.0</ele><time>2026-05-01T09:23:22.999Z</time></trkpt><trkpt lat="43.61186154114856" lon="10.94081403546923"><ele>50.0</ele><time>2026-05-01T09:23:23.999Z</time></trkpt><trkpt lat="43.61214001866507" lon="10.94075648699702"><ele>50.0</ele><time>2026-05-01T09:23:24.999Z</time></trkpt><trkpt lat="43.612412787380734" lon="10.940702648219691"><ele>50.0</ele><time>2026-05-01T09:23:25.999Z</time></trkpt><trkpt lat="43.61268054674369" lon="10.94066529090855"><ele>50.0</ele><time>2026-05-01T09:23:26.999Z</time></trkpt><trkpt lat="43.61294460465395" lon="10.940649055976111"><ele>50.5</ele><time>2026-05-01T09:23:27.998Z</time></trkpt><trkpt lat="43.61320573008077" lon="10.940643290303866"><ele>51.0</ele><time>2026-05-01T09:23:28.998Z</time></trkpt><trkpt lat="43.61346384838101" lon="10.940659731557153"><ele>51.5</ele><time>2026-05-01T09:23:29.998Z</time></trkpt><trkpt lat="43.61371667475037" lon="10.94069118319348"><ele>52.0</ele><time>2026-05-01T09:23:30.998Z</time></trkpt><trkpt lat="43.61396630286172" lon="10.940737037290283"><ele>52.0</ele><time>2026-05-01T09:23:31.998Z</time></trkpt><trkpt lat="43.61421152014575" lon="10.94079782346628"><ele>52.0</ele><time>2026-05-01T09:23:32.998Z</time></trkpt><trkpt lat="43.61445210077639" lon="10.940871473316378"><ele>56.0</ele><time>2026-05-01T09:23:33.998Z</time></trkpt><trkpt lat="43.61468965752023" lon="10.940956605386141"><ele>60.0</ele><time>2026-05-01T09:23:34.998Z</time></trkpt><trkpt lat="43.614924718415836" lon="10.94105236307196"><ele>60.0</ele><time>2026-05-01T09:23:35.998Z</time></trkpt><trkpt lat="43.61515539516043" lon="10.941160107778215"><ele>60.0</ele><time>2026-05-01T09:23:36.998Z</time></trkpt><trkpt lat="43.61537867734384" lon="10.941284759408079"><ele>54.5</ele><time>2026-05-01T09:23:37.998Z</time></trkpt><trkpt lat="43.61559712100893" lon="10.941423591985174"><ele>49.0</ele><time>2026-05-01T09:23:38.998Z</time></trkpt><trkpt lat="43.615812098354255" lon="10.941575562150968"><ele>49.0</ele><time>2026-05-01T09:23:39.998Z</time></trkpt><trkpt lat="43.61602322282056" lon="10.941736223259191"><ele>49.0</ele><time>2026-05-01T09:23:40.998Z</time></trkpt><trkpt lat="43.61623089799406" lon="10.941907235337911"><ele>49.0</ele><time>2026-05-01T09:23:41.998Z</time></trkpt><trkpt lat="43.61643306873723" lon="10.942089811028174"><ele>49.0</ele><time>2026-05-01T09:23:42.998Z</time></trkpt><trkpt lat="43.6166291420913" lon="10.942283715053184"><ele>49.0</ele><time>2026-05-01T09:23:43.998Z</time></trkpt><trkpt lat="43.61681803306792" lon="10.942489594900646"><ele>49.0</ele><time>2026-05-01T09:23:44.998Z</time></trkpt><trkpt lat="43.61700218623173" lon="10.942704366339951"><ele>48.0</ele><time>2026-05-01T09:23:45.998Z</time></trkpt><trkpt lat="43.617182650938965" lon="10.942924724460532"><ele>47.0</ele><time>2026-05-01T09:23:46.998Z</time></trkpt><trkpt lat="43.61735839732826" lon="10.943148470153082"><ele>47.5</ele><time>2026-05-01T09:23:47.998Z</time></trkpt><trkpt lat="43.61751475929462" lon="10.943393988406457"><ele>48.0</ele><time>2026-05-01T09:23:48.998Z</time></trkpt><trkpt lat="43.617677246976875" lon="10.943628633874717"><ele>47.0</ele><time>2026-05-01T09:23:49.998Z</time></trkpt><trkpt lat="43.61783848550541" lon="10.943861624512307"><ele>46.0</ele><time>2026-05-01T09:23:50.998Z</time></trkpt><trkpt lat="43.61799805892" lon="10.944096296453816"><ele>46.5</ele><time>2026-05-01T09:23:51.998Z</time></trkpt><trkpt lat="43.6181556296842" lon="10.944329292568497"><ele>47.0</ele><time>2026-05-01T09:23:52.998Z</time></trkpt><trkpt lat="43.61831273024078" lon="10.944561593687077"><ele>47.0</ele><time>2026-05-01T09:23:53.998Z</time></trkpt><trkpt lat="43.61848116463297" lon="10.944780912857151"><ele>47.0</ele><time>2026-05-01T09:23:54.998Z</time></trkpt><trkpt lat="43.618623104476754" lon="10.945032525347582"><ele>46.0</ele><time>2026-05-01T09:23:55.998Z</time></trkpt><trkpt lat="43.61877735185117" lon="10.94526628263375"><ele>45.0</ele><time>2026-05-01T09:23:56.998Z</time></trkpt><trkpt lat="43.61893299404306" lon="10.945499141750425"><ele>45.0</ele><time>2026-05-01T09:23:57.998Z</time></trkpt><trkpt lat="43.61908630440117" lon="10.945726882189847"><ele>45.0</ele><time>2026-05-01T09:23:58.998Z</time></trkpt><trkpt lat="43.61923691176404" lon="10.945950451920897"><ele>45.0</ele><time>2026-05-01T09:23:59.998Z</time></trkpt><trkpt lat="43.61938246823229" lon="10.946171828736727"><ele>45.333333333333336</ele><time>2026-05-01T09:24:00.998Z</time></trkpt><trkpt lat="43.61952733317164" lon="10.94638760280383"><ele>45.66666666666667</ele><time>2026-05-01T09:24:01.998Z</time></trkpt><trkpt lat="43.61967029002766" lon="10.946594466641878"><ele>46.0</ele><time>2026-05-01T09:24:02.998Z</time></trkpt><trkpt lat="43.619812372417485" lon="10.946797318858158"><ele>46.0</ele><time>2026-05-01T09:24:03.998Z</time></trkpt><trkpt lat="43.6199668952399" lon="10.946984549875168"><ele>46.0</ele><time>2026-05-01T09:24:04.998Z</time></trkpt><trkpt lat="43.62011332766792" lon="10.947184135135796"><ele>46.0</ele><time>2026-05-01T09:24:06Z</time></trkpt><trkpt lat="43.62026445446213" lon="10.947377268034483"><ele>46.333333333333336</ele><time>2026-05-01T09:24:07Z</time></trkpt><trkpt lat="43.62041951785532" lon="10.94756171932976"><ele>46.666666666666664</ele><time>2026-05-01T09:24:08Z</time></trkpt><trkpt lat="43.62057369702249" lon="10.947727753679166"><ele>47.0</ele><time>2026-05-01T09:24:09Z</time></trkpt><trkpt lat="43.62072769143747" lon="10.947883303090642"><ele>47.0</ele><time>2026-05-01T09:24:10Z</time></trkpt><trkpt lat="43.62088875855209" lon="10.948028005037372"><ele>47.0</ele><time>2026-05-01T09:24:11Z</time></trkpt><trkpt lat="43.62105153764081" lon="10.948166198534315"><ele>47.0</ele><time>2026-05-01T09:24:12Z</time></trkpt><trkpt lat="43.62121097703835" lon="10.94829248548421"><ele>46.666666666666664</ele><time>2026-05-01T09:24:13Z</time></trkpt><trkpt lat="43.62136507854882" lon="10.94840607159545"><ele>46.333333333333336</ele><time>2026-05-01T09:24:14Z</time></trkpt><trkpt lat="43.621512742489315" lon="10.948505061804806"><ele>46.0</ele><time>2026-05-01T09:24:15Z</time></trkpt><trkpt lat="43.621657041636134" lon="10.948587874653164"><ele>46.0</ele><time>2026-05-01T09:24:16Z</time></trkpt><trkpt lat="43.621792527251685" lon="10.948657385841159"><ele>46.0</ele><time>2026-05-01T09:24:17Z</time></trkpt><trkpt lat="43.62192051713149" lon="10.948714062754993"><ele>46.0</ele><time>2026-05-01T09:24:18Z</time></trkpt><trkpt lat="43.62203969774046" lon="10.948765687959963"><ele>46.0</ele><time>2026-05-01T09:24:19Z</time></trkpt><trkpt lat="43.6221463583056" lon="10.94880584288175"><ele>45.66666666666667</ele><time>2026-05-01T09:24:20Z</time></trkpt><trkpt lat="43.62224163770133" lon="10.948839415963018"><ele>45.333333333333336</ele><time>2026-05-01T09:24:21Z</time></trkpt><trkpt lat="43.62232527677785" lon="10.948869432487415"><ele>45.0</ele><time>2026-05-01T09:24:22Z</time></trkpt><trkpt lat="43.62240267463238" lon="10.948901612097853"><ele>44.666666666666664</ele><time>2026-05-01T09:24:23Z</time></trkpt><trkpt lat="43.62246179734655" lon="10.948938262615057"><ele>44.33333333333333</ele><time>2026-05-01T09:24:24Z</time></trkpt><trkpt lat="43.62251590760393" lon="10.948991552145644"><ele>44.0</ele><time>2026-05-01T09:24:25Z</time></trkpt><trkpt lat="43.622566638653794" lon="10.94907149692667"><ele>44.0</ele><time>2026-05-01T09:24:26Z</time></trkpt><trkpt lat="43.62261946766129" lon="10.94916200597976"><ele>44.0</ele><time>2026-05-01T09:24:27Z</time></trkpt><trkpt lat="43.62267979641498" lon="10.949246636969994"><ele>44.0</ele><time>2026-05-01T09:24:28Z</time></trkpt><trkpt lat="43.622755033018116" lon="10.94929926790111"><ele>44.0</ele><time>2026-05-01T09:24:29Z</time></trkpt><trkpt lat="43.6228490990554" lon="10.94931706696484"><ele>44.0</ele><time>2026-05-01T09:24:30Z</time></trkpt><trkpt lat="43.6229495751416" lon="10.949303994595487"><ele>44.25</ele><time>2026-05-01T09:24:31Z</time></trkpt><trkpt lat="43.6230532250164" lon="10.949251839786909"><ele>44.5</ele><time>2026-05-01T09:24:32Z</time></trkpt><trkpt lat="43.62315658022352" lon="10.949165554462924"><ele>44.75</ele><time>2026-05-01T09:24:33Z</time></trkpt><trkpt lat="43.62327206589053" lon="10.949087045104173"><ele>45.0</ele><time>2026-05-01T09:24:34Z</time></trkpt><trkpt lat="43.62340383333454" lon="10.949049234570097"><ele>45.0</ele><time>2026-05-01T09:24:35Z</time></trkpt><trkpt lat="43.62353814747926" lon="10.949036512579958"><ele>45.0</ele><time>2026-05-01T09:24:36Z</time></trkpt><trkpt lat="43.62368623337423" lon="10.94902236343918"><ele>45.0</ele><time>2026-05-01T09:24:37Z</time></trkpt><trkpt lat="43.623842772974676" lon="10.949009393334208"><ele>45.0</ele><time>2026-05-01T09:24:38Z</time></trkpt><trkpt lat="43.62400782364573" lon="10.948998195643753"><ele>45.0</ele><time>2026-05-01T09:24:39Z</time></trkpt><trkpt lat="43.62417797108289" lon="10.948982077920984"><ele>45.0</ele><time>2026-05-01T09:24:40Z</time></trkpt><trkpt lat="43.62435100119102" lon="10.948960397026612"><ele>45.0</ele><time>2026-05-01T09:24:41Z</time></trkpt><trkpt lat="43.62452744484719" lon="10.94893595134997"><ele>45.0</ele><time>2026-05-01T09:24:42Z</time></trkpt><trkpt lat="43.624700451530934" lon="10.948905726676275"><ele>45.0</ele><time>2026-05-01T09:24:43Z</time></trkpt><trkpt lat="43.624882597967286" lon="10.948866458542806"><ele>45.0</ele><time>2026-05-01T09:24:44Z</time></trkpt><trkpt lat="43.62506999830778" lon="10.948822391380599"><ele>45.0</ele><time>2026-05-01T09:24:45Z</time></trkpt><trkpt lat="43.62526563690828" lon="10.948774967549143"><ele>45.0</ele><time>2026-05-01T09:24:46Z</time></trkpt><trkpt lat="43.62547166646439" lon="10.948715710835236"><ele>45.0</ele><time>2026-05-01T09:24:47Z</time></trkpt><trkpt lat="43.62568077922143" lon="10.94865058528844"><ele>45.0</ele><time>2026-05-01T09:24:48Z</time></trkpt><trkpt lat="43.62588647069672" lon="10.948584353795326"><ele>45.0</ele><time>2026-05-01T09:24:49Z</time></trkpt><trkpt lat="43.62609924884317" lon="10.948514227395616"><ele>45.0</ele><time>2026-05-01T09:24:50Z</time></trkpt><trkpt lat="43.62631931447316" lon="10.948441390299694"><ele>44.0</ele><time>2026-05-01T09:24:51Z</time></trkpt><trkpt lat="43.62654135465491" lon="10.948368765318078"><ele>43.0</ele><time>2026-05-01T09:24:52Z</time></trkpt><trkpt lat="43.6267602038695" lon="10.948297279480363"><ele>43.0</ele><time>2026-05-01T09:24:52.999Z</time></trkpt><trkpt lat="43.62697913402754" lon="10.94821996943474"><ele>43.0</ele><time>2026-05-01T09:24:53.999Z</time></trkpt><trkpt lat="43.627193020251056" lon="10.94813766111223"><ele>43.0</ele><time>2026-05-01T09:24:54.999Z</time></trkpt><trkpt lat="43.627408193982326" lon="10.948058718197794"><ele>43.0</ele><time>2026-05-01T09:24:55.999Z</time></trkpt><trkpt lat="43.62762750318979" lon="10.947981451468094"><ele>43.0</ele><time>2026-05-01T09:24:56.999Z</time></trkpt><trkpt lat="43.627848141437006" lon="10.94790285075301"><ele>43.0</ele><time>2026-05-01T09:24:57.999Z</time></trkpt><trkpt lat="43.62807211066507" lon="10.947826619354448"><ele>43.0</ele><time>2026-05-01T09:24:58.999Z</time></trkpt><trkpt lat="43.628293294898995" lon="10.947756510705418"><ele>43.0</ele><time>2026-05-01T09:24:59.999Z</time></trkpt><trkpt lat="43.628519328886576" lon="10.947684016462224"><ele>43.0</ele><time>2026-05-01T09:25:00.999Z</time></trkpt><trkpt lat="43.62874601265087" lon="10.947607205662822"><ele>43.5</ele><time>2026-05-01T09:25:01.999Z</time></trkpt><trkpt lat="43.62897075727711" lon="10.947525729741253"><ele>44.0</ele><time>2026-05-01T09:25:02.999Z</time></trkpt><trkpt lat="43.62919455986008" lon="10.947445454106996"><ele>44.0</ele><time>2026-05-01T09:25:03.999Z</time></trkpt><trkpt lat="43.62941648025269" lon="10.947370029797598"><ele>44.0</ele><time>2026-05-01T09:25:04.999Z</time></trkpt><trkpt lat="43.62963735026418" lon="10.947297624819557"><ele>43.666666666666664</ele><time>2026-05-01T09:25:05.999Z</time></trkpt><trkpt lat="43.6298540271499" lon="10.94721964745216"><ele>43.333333333333336</ele><time>2026-05-01T09:25:06.999Z</time></trkpt><trkpt lat="43.63006766595651" lon="10.947142325324787"><ele>43.0</ele><time>2026-05-01T09:25:07.999Z</time></trkpt><trkpt lat="43.63027794176049" lon="10.947071484204246"><ele>43.0</ele><time>2026-05-01T09:25:08.999Z</time></trkpt><trkpt lat="43.630484946582136" lon="10.947001911679909"><ele>43.0</ele><time>2026-05-01T09:25:09.999Z</time></trkpt><trkpt lat="43.63068631795845" lon="10.946932227232539"><ele>43.0</ele><time>2026-05-01T09:25:10.999Z</time></trkpt><trkpt lat="43.6308851394961" lon="10.94686315313464"><ele>43.0</ele><time>2026-05-01T09:25:11.999Z</time></trkpt><trkpt lat="43.631080538676706" lon="10.946797889952533"><ele>43.0</ele><time>2026-05-01T09:25:12.999Z</time></trkpt><trkpt lat="43.63127614658065" lon="10.946731301938765"><ele>43.0</ele><time>2026-05-01T09:25:13.999Z</time></trkpt><trkpt lat="43.631469081606596" lon="10.946662851880742"><ele>43.333333333333336</ele><time>2026-05-01T09:25:14.999Z</time></trkpt><trkpt lat="43.63166062199937" lon="10.946597564896857"><ele>43.666666666666664</ele><time>2026-05-01T09:25:15.999Z</time></trkpt><trkpt lat="43.631853694882004" lon="10.946529852190597"><ele>44.0</ele><time>2026-05-01T09:25:16.999Z</time></trkpt><trkpt lat="43.63204601533755" lon="10.946457826195507"><ele>43.0</ele><time>2026-05-01T09:25:17.999Z</time></trkpt><trkpt lat="43.63223807989051" lon="10.946381935473507"><ele>42.0</ele><time>2026-05-01T09:25:18.999Z</time></trkpt><trkpt lat="43.632432006644244" lon="10.946300124970119"><ele>41.0</ele><time>2026-05-01T09:25:19.999Z</time></trkpt><trkpt lat="43.63262788090329" lon="10.94621259640938"><ele>41.666666666666664</ele><time>2026-05-01T09:25:20.999Z</time></trkpt><trkpt lat="43.63282644301398" lon="10.946117522732735"><ele>42.333333333333336</ele><time>2026-05-01T09:25:21.999Z</time></trkpt><trkpt lat="43.633028151065005" lon="10.946011381201837"><ele>43.0</ele><time>2026-05-01T09:25:22.999Z</time></trkpt><trkpt lat="43.633228162113085" lon="10.94589754703168"><ele>42.0</ele><time>2026-05-01T09:25:23.999Z</time></trkpt><trkpt lat="43.63343117269183" lon="10.945774414244791"><ele>41.0</ele><time>2026-05-01T09:25:24.999Z</time></trkpt><trkpt lat="43.633639943993614" lon="10.94564102646149"><ele>41.0</ele><time>2026-05-01T09:25:25.999Z</time></trkpt><trkpt lat="43.63384895992905" lon="10.945501970345141"><ele>41.0</ele><time>2026-05-01T09:25:26.999Z</time></trkpt><trkpt lat="43.63405737157642" lon="10.94535036701232"><ele>41.0</ele><time>2026-05-01T09:25:27.999Z</time></trkpt><trkpt lat="43.63427362227419" lon="10.9451853110726"><ele>41.0</ele><time>2026-05-01T09:25:28.999Z</time></trkpt><trkpt lat="43.63449895289114" lon="10.945011301533432"><ele>41.5</ele><time>2026-05-01T09:25:29.999Z</time></trkpt><trkpt lat="43.634736665704615" lon="10.944829725550223"><ele>42.0</ele><time>2026-05-01T09:25:30.999Z</time></trkpt><trkpt lat="43.63499690943142" lon="10.944671120757016"><ele>42.0</ele><time>2026-05-01T09:25:31.999Z</time></trkpt><trkpt lat="43.63523847782361" lon="10.94447868320133"><ele>42.0</ele><time>2026-05-01T09:25:32.999Z</time></trkpt><trkpt lat="43.6354892732645" lon="10.944316404113188"><ele>42.0</ele><time>2026-05-01T09:25:33.999Z</time></trkpt><trkpt lat="43.63573290444672" lon="10.944154633184677"><ele>42.0</ele><time>2026-05-01T09:25:34.999Z</time></trkpt><trkpt lat="43.635972462943364" lon="10.94398240010251"><ele>40.5</ele><time>2026-05-01T09:25:35.999Z</time></trkpt><trkpt lat="43.63620571856484" lon="10.94380803058372"><ele>39.0</ele><time>2026-05-01T09:25:36.999Z</time></trkpt><trkpt lat="43.63643612661689" lon="10.943636147022644"><ele>39.0</ele><time>2026-05-01T09:25:37.999Z</time></trkpt><trkpt lat="43.63666265402153" lon="10.943468321256324"><ele>39.0</ele><time>2026-05-01T09:25:38.999Z</time></trkpt><trkpt lat="43.6368886049551" lon="10.943303414659779"><ele>39.5</ele><time>2026-05-01T09:25:39.999Z</time></trkpt><trkpt lat="43.637111604280314" lon="10.943140239398176"><ele>40.0</ele><time>2026-05-01T09:25:40.999Z</time></trkpt><trkpt lat="43.63733141183264" lon="10.942977994124886"><ele>40.0</ele><time>2026-05-01T09:25:41.999Z</time></trkpt><trkpt lat="43.63755124613131" lon="10.942816069251915"><ele>40.0</ele><time>2026-05-01T09:25:42.999Z</time></trkpt><trkpt lat="43.63776641672119" lon="10.94265933717266"><ele>41.0</ele><time>2026-05-01T09:25:43.999Z</time></trkpt><trkpt lat="43.637980777137265" lon="10.942503685817005"><ele>42.0</ele><time>2026-05-01T09:25:44.998Z</time></trkpt><trkpt lat="43.63819166354438" lon="10.94234739019297"><ele>42.0</ele><time>2026-05-01T09:25:45.998Z</time></trkpt><trkpt lat="43.63840457235291" lon="10.942192713077699"><ele>42.0</ele><time>2026-05-01T09:25:46.998Z</time></trkpt><trkpt lat="43.638619667351385" lon="10.942040903085811"><ele>41.0</ele><time>2026-05-01T09:25:47.998Z</time></trkpt><trkpt lat="43.638835074401435" lon="10.941890534684632"><ele>40.0</ele><time>2026-05-01T09:25:48.998Z</time></trkpt><trkpt lat="43.63904813039831" lon="10.941739981507013"><ele>40.5</ele><time>2026-05-01T09:25:49.998Z</time></trkpt><trkpt lat="43.639260843505625" lon="10.941589303909959"><ele>41.0</ele><time>2026-05-01T09:25:50.998Z</time></trkpt><trkpt lat="43.639474714308236" lon="10.941440379113066"><ele>41.0</ele><time>2026-05-01T09:25:51.998Z</time></trkpt><trkpt lat="43.639688677663834" lon="10.941292630074296"><ele>41.0</ele><time>2026-05-01T09:25:52.998Z</time></trkpt><trkpt lat="43.63990421756925" lon="10.941145840096562"><ele>41.0</ele><time>2026-05-01T09:25:53.998Z</time></trkpt><trkpt lat="43.64012160292037" lon="10.941003934396443"><ele>41.0</ele><time>2026-05-01T09:25:54.998Z</time></trkpt><trkpt lat="43.64033806953067" lon="10.94086711003417"><ele>40.5</ele><time>2026-05-01T09:25:55.998Z</time></trkpt><trkpt lat="43.64055512459899" lon="10.9407319619627"><ele>40.0</ele><time>2026-05-01T09:25:56.998Z</time></trkpt><trkpt lat="43.64077392066183" lon="10.940596606006098"><ele>40.0</ele><time>2026-05-01T09:25:57.998Z</time></trkpt><trkpt lat="43.640992821878214" lon="10.94046519857995"><ele>40.0</ele><time>2026-05-01T09:25:58.998Z</time></trkpt><trkpt lat="43.641212124470066" lon="10.940337974464484"><ele>40.0</ele><time>2026-05-01T09:25:59.998Z</time></trkpt><trkpt lat="43.6414318941647" lon="10.94021188853079"><ele>40.0</ele><time>2026-05-01T09:26:00.998Z</time></trkpt><trkpt lat="43.64165055421961" lon="10.940089137321115"><ele>40.0</ele><time>2026-05-01T09:26:01.998Z</time></trkpt><trkpt lat="43.64186834805456" lon="10.939966107451102"><ele>40.0</ele><time>2026-05-01T09:26:02.998Z</time></trkpt><trkpt lat="43.642085393254376" lon="10.939842386225154"><ele>40.0</ele><time>2026-05-01T09:26:03.998Z</time></trkpt><trkpt lat="43.64229219284125" lon="10.93972480228912"><ele>40.0</ele><time>2026-05-01T09:26:04.998Z</time></trkpt><trkpt lat="43.64248407798672" lon="10.93961360890557"><ele>40.0</ele><time>2026-05-01T09:26:05.998Z</time></trkpt><trkpt lat="43.64265783049134" lon="10.939513758201425"><ele>40.333333333333336</ele><time>2026-05-01T09:26:06.998Z</time></trkpt><trkpt lat="43.64281395172629" lon="10.939416773682607"><ele>40.666666666666664</ele><time>2026-05-01T09:26:07.998Z</time></trkpt><trkpt lat="43.64295026181285" lon="10.939324709854612"><ele>41.0</ele><time>2026-05-01T09:26:08.998Z</time></trkpt><trkpt lat="43.64306699057845" lon="10.93923998714616"><ele>41.0</ele><time>2026-05-01T09:26:09.998Z</time></trkpt><trkpt lat="43.643171300906" lon="10.93916755127799"><ele>41.0</ele><time>2026-05-01T09:26:10.998Z</time></trkpt><trkpt lat="43.64327359199116" lon="10.93911946948473"><ele>41.0</ele><time>2026-05-01T09:26:12Z</time></trkpt><trkpt lat="43.64337923826115" lon="10.939097033360431"><ele>41.0</ele><time>2026-05-01T09:26:13Z</time></trkpt><trkpt lat="43.64349095154758" lon="10.939120715968176"><ele>41.0</ele><time>2026-05-01T09:26:14Z</time></trkpt><trkpt lat="43.64359552248466" lon="10.939125018581695"><ele>40.599999999999994</ele><time>2026-05-01T09:26:15Z</time></trkpt><trkpt lat="43.64369842270859" lon="10.939088623898803"><ele>40.199999999999996</ele><time>2026-05-01T09:26:16Z</time></trkpt><trkpt lat="43.64378647773831" lon="10.939016793017103"><ele>39.8</ele><time>2026-05-01T09:26:17Z</time></trkpt><trkpt lat="43.643855862274656" lon="10.93890809264689"><ele>39.4</ele><time>2026-05-01T09:26:18Z</time></trkpt><trkpt lat="43.643903810599305" lon="10.938768384895026"><ele>39.0</ele><time>2026-05-01T09:26:19Z</time></trkpt><trkpt lat="43.643939548902225" lon="10.938605403310085"><ele>39.0</ele><time>2026-05-01T09:26:20Z</time></trkpt><trkpt lat="43.643993851833656" lon="10.938441445075338"><ele>39.0</ele><time>2026-05-01T09:26:21Z</time></trkpt><trkpt lat="43.644090607450075" lon="10.938289870029429"><ele>39.0</ele><time>2026-05-01T09:26:22Z</time></trkpt><trkpt lat="43.6442078847765" lon="10.938138471815517"><ele>39.0</ele><time>2026-05-01T09:26:23Z</time></trkpt><trkpt lat="43.6443425989692" lon="10.937973562355522"><ele>39.0</ele><time>2026-05-01T09:26:24Z</time></trkpt><trkpt lat="43.6444927308192" lon="10.937789498616954"><ele>39.0</ele><time>2026-05-01T09:26:25Z</time></trkpt><trkpt lat="43.64464856008031" lon="10.937604334801605"><ele>39.0</ele><time>2026-05-01T09:26:26Z</time></trkpt><trkpt lat="43.6448031357137" lon="10.937407998426998"><ele>39.0</ele><time>2026-05-01T09:26:27Z</time></trkpt><trkpt lat="43.6449622540334" lon="10.937203981396811"><ele>39.0</ele><time>2026-05-01T09:26:28Z</time></trkpt><trkpt lat="43.64512323363934" lon="10.937005517795201"><ele>39.0</ele><time>2026-05-01T09:26:29Z</time></trkpt><trkpt lat="43.64528888506033" lon="10.936807409473257"><ele>39.0</ele><time>2026-05-01T09:26:30Z</time></trkpt><trkpt lat="43.645455877152415" lon="10.936608115938256"><ele>39.0</ele><time>2026-05-01T09:26:31Z</time></trkpt><trkpt lat="43.64562541483627" lon="10.936412352707876"><ele>39.0</ele><time>2026-05-01T09:26:32Z</time></trkpt><trkpt lat="43.645796455239264" lon="10.936220353812502"><ele>39.0</ele><time>2026-05-01T09:26:33Z</time></trkpt><trkpt lat="43.645972562407394" lon="10.936032780099435"><ele>39.0</ele><time>2026-05-01T09:26:34Z</time></trkpt><trkpt lat="43.64614939876946" lon="10.93585956852027"><ele>39.0</ele><time>2026-05-01T09:26:35Z</time></trkpt><trkpt lat="43.64632953095967" lon="10.935688539000372"><ele>38.666666666666664</ele><time>2026-05-01T09:26:36Z</time></trkpt><trkpt lat="43.64650864420421" lon="10.935516817464348"><ele>38.33333333333333</ele><time>2026-05-01T09:26:37Z</time></trkpt><trkpt lat="43.646693802043316" lon="10.935357836592942"><ele>38.0</ele><time>2026-05-01T09:26:38Z</time></trkpt><trkpt lat="43.64688231584584" lon="10.935207203334876"><ele>38.0</ele><time>2026-05-01T09:26:39Z</time></trkpt><trkpt lat="43.64707129782498" lon="10.935055759884083"><ele>38.0</ele><time>2026-05-01T09:26:40Z</time></trkpt><trkpt lat="43.64726094762464" lon="10.934904529275677"><ele>38.0</ele><time>2026-05-01T09:26:41Z</time></trkpt><trkpt lat="43.64745138025207" lon="10.934752737974046"><ele>38.33333333333333</ele><time>2026-05-01T09:26:42Z</time></trkpt><trkpt lat="43.6476417027027" lon="10.934598786041144"><ele>38.666666666666664</ele><time>2026-05-01T09:26:43Z</time></trkpt><trkpt lat="43.647832809814936" lon="10.934447029123504"><ele>39.0</ele><time>2026-05-01T09:26:44Z</time></trkpt><trkpt lat="43.64802142648403" lon="10.93430186490912"><ele>38.666666666666664</ele><time>2026-05-01T09:26:45Z</time></trkpt><trkpt lat="43.64820721227078" lon="10.934153905238588"><ele>38.33333333333333</ele><time>2026-05-01T09:26:46Z</time></trkpt><trkpt lat="43.6483917742251" lon="10.934002490643586"><ele>38.0</ele><time>2026-05-01T09:26:47Z</time></trkpt><trkpt lat="43.648579438108236" lon="10.933854228188038"><ele>37.666666666666664</ele><time>2026-05-01T09:26:48Z</time></trkpt><trkpt lat="43.64876568761276" lon="10.933706403874584"><ele>37.333333333333336</ele><time>2026-05-01T09:26:49Z</time></trkpt><trkpt lat="43.648951330842046" lon="10.933554333449136"><ele>37.0</ele><time>2026-05-01T09:26:50Z</time></trkpt><trkpt lat="43.649134601680764" lon="10.933397475625965"><ele>37.0</ele><time>2026-05-01T09:26:51Z</time></trkpt><trkpt lat="43.649310438872114" lon="10.933228458632605"><ele>37.0</ele><time>2026-05-01T09:26:52Z</time></trkpt><trkpt lat="43.649481439227614" lon="10.93304912061568"><ele>37.0</ele><time>2026-05-01T09:26:53Z</time></trkpt><trkpt lat="43.64964621660632" lon="10.932859168717245"><ele>37.0</ele><time>2026-05-01T09:26:54Z</time></trkpt><trkpt lat="43.649807919072636" lon="10.932661012626465"><ele>37.0</ele><time>2026-05-01T09:26:55Z</time></trkpt><trkpt lat="43.64996218504815" lon="10.932454986522837"><ele>37.0</ele><time>2026-05-01T09:26:56Z</time></trkpt><trkpt lat="43.6501124922281" lon="10.932241670175927"><ele>37.0</ele><time>2026-05-01T09:26:57Z</time></trkpt><trkpt lat="43.650256892671635" lon="10.932019680718142"><ele>37.0</ele><time>2026-05-01T09:26:58Z</time></trkpt><trkpt lat="43.650393679856975" lon="10.93178813861822"><ele>37.0</ele><time>2026-05-01T09:26:59Z</time></trkpt><trkpt lat="43.6505228257108" lon="10.931548458609585"><ele>37.0</ele><time>2026-05-01T09:27:00Z</time></trkpt><trkpt lat="43.65064618743226" lon="10.931302005917955"><ele>37.0</ele><time>2026-05-01T09:27:01Z</time></trkpt><trkpt lat="43.650764487181405" lon="10.931049554876992"><ele>37.0</ele><time>2026-05-01T09:27:02Z</time></trkpt><trkpt lat="43.6508854934612" lon="10.93079888607176"><ele>37.333333333333336</ele><time>2026-05-01T09:27:03Z</time></trkpt><trkpt lat="43.651003249299436" lon="10.930540192395965"><ele>37.666666666666664</ele><time>2026-05-01T09:27:04Z</time></trkpt><trkpt lat="43.651121247272805" lon="10.930278749646881"><ele>38.0</ele><time>2026-05-01T09:27:04.999Z</time></trkpt><trkpt lat="43.65124093855298" lon="10.93001370490867"><ele>38.0</ele><time>2026-05-01T09:27:05.999Z</time></trkpt><trkpt lat="43.65135761646617" lon="10.929746792848956"><ele>38.0</ele><time>2026-05-01T09:27:06.999Z</time></trkpt><trkpt lat="43.65147521329928" lon="10.929479255250063"><ele>38.0</ele><time>2026-05-01T09:27:07.999Z</time></trkpt><trkpt lat="43.65159310940343" lon="10.929210552603914"><ele>38.0</ele><time>2026-05-01T09:27:08.999Z</time></trkpt><trkpt lat="43.65171224454717" lon="10.928942386988522"><ele>38.0</ele><time>2026-05-01T09:27:09.999Z</time></trkpt><trkpt lat="43.65183287196784" lon="10.928676045497399"><ele>38.0</ele><time>2026-05-01T09:27:10.999Z</time></trkpt><trkpt lat="43.65195366589098" lon="10.928408511969408"><ele>37.5</ele><time>2026-05-01T09:27:11.999Z</time></trkpt><trkpt lat="43.652077261442486" lon="10.928140735205877"><ele>37.0</ele><time>2026-05-01T09:27:12.999Z</time></trkpt><trkpt lat="43.65220717223814" lon="10.927878590007593"><ele>37.0</ele><time>2026-05-01T09:27:13.999Z</time></trkpt><trkpt lat="43.652344728304996" lon="10.927623469570118"><ele>37.0</ele><time>2026-05-01T09:27:14.999Z</time></trkpt><trkpt lat="43.652487024540406" lon="10.92737523709655"><ele>37.0</ele><time>2026-05-01T09:27:15.999Z</time></trkpt><trkpt lat="43.65263549202042" lon="10.92713448177988"><ele>37.0</ele><time>2026-05-01T09:27:16.999Z</time></trkpt><trkpt lat="43.652792076832455" lon="10.926903709640662"><ele>37.0</ele><time>2026-05-01T09:27:17.999Z</time></trkpt><trkpt lat="43.652962395680525" lon="10.926686937413521"><ele>37.0</ele><time>2026-05-01T09:27:18.999Z</time></trkpt><trkpt lat="43.65313723997209" lon="10.926479443567269"><ele>37.0</ele><time>2026-05-01T09:27:19.999Z</time></trkpt><trkpt lat="43.653317584596465" lon="10.92628251995566"><ele>37.0</ele><time>2026-05-01T09:27:20.999Z</time></trkpt><trkpt lat="43.653504058217166" lon="10.926096121492598"><ele>36.5</ele><time>2026-05-01T09:27:21.999Z</time></trkpt><trkpt lat="43.65369756086438" lon="10.925922032613478"><ele>36.0</ele><time>2026-05-01T09:27:22.999Z</time></trkpt><trkpt lat="43.653897265287995" lon="10.925761388686851"><ele>36.0</ele><time>2026-05-01T09:27:23.999Z</time></trkpt><trkpt lat="43.65410080640368" lon="10.925615627497745"><ele>36.0</ele><time>2026-05-01T09:27:24.999Z</time></trkpt><trkpt lat="43.65430976999082" lon="10.925487544426838"><ele>36.0</ele><time>2026-05-01T09:27:25.999Z</time></trkpt><trkpt lat="43.65452422856514" lon="10.92537785285178"><ele>36.0</ele><time>2026-05-01T09:27:26.999Z</time></trkpt><trkpt lat="43.65474147020434" lon="10.925285821034556"><ele>36.0</ele><time>2026-05-01T09:27:27.999Z</time></trkpt><trkpt lat="43.65496131653646" lon="10.925205531559664"><ele>36.0</ele><time>2026-05-01T09:27:28.999Z</time></trkpt><trkpt lat="43.655182731213976" lon="10.925138124148848"><ele>36.0</ele><time>2026-05-01T09:27:29.999Z</time></trkpt><trkpt lat="43.655405555010134" lon="10.925089596906544"><ele>36.0</ele><time>2026-05-01T09:27:30.999Z</time></trkpt><trkpt lat="43.65562994922258" lon="10.925058525685168"><ele>36.0</ele><time>2026-05-01T09:27:31.999Z</time></trkpt><trkpt lat="43.655854629424816" lon="10.925039927582008"><ele>36.0</ele><time>2026-05-01T09:27:32.999Z</time></trkpt><trkpt lat="43.65608168111584" lon="10.92503553201463"><ele>36.0</ele><time>2026-05-01T09:27:33.999Z</time></trkpt><trkpt lat="43.65630761190514" lon="10.925048185605865"><ele>36.0</ele><time>2026-05-01T09:27:34.999Z</time></trkpt><trkpt lat="43.65653194737599" lon="10.925073836796823"><ele>36.0</ele><time>2026-05-01T09:27:35.999Z</time></trkpt><trkpt lat="43.65675475554492" lon="10.925119105619169"><ele>36.0</ele><time>2026-05-01T09:27:36.999Z</time></trkpt><trkpt lat="43.6569753498502" lon="10.925175485379969"><ele>35.666666666666664</ele><time>2026-05-01T09:27:37.999Z</time></trkpt><trkpt lat="43.65719259024384" lon="10.925244566202242"><ele>35.33333333333333</ele><time>2026-05-01T09:27:38.999Z</time></trkpt><trkpt lat="43.657409618498356" lon="10.925325635930289"><ele>35.0</ele><time>2026-05-01T09:27:39.999Z</time></trkpt><trkpt lat="43.65762369186534" lon="10.925412862421208"><ele>36.0</ele><time>2026-05-01T09:27:40.999Z</time></trkpt><trkpt lat="43.65783765375515" lon="10.925505422964022"><ele>37.0</ele><time>2026-05-01T09:27:41.999Z</time></trkpt><trkpt lat="43.658052825331595" lon="10.925602933515767"><ele>37.0</ele><time>2026-05-01T09:27:42.999Z</time></trkpt><trkpt lat="43.65827027851571" lon="10.925701447586075"><ele>37.0</ele><time>2026-05-01T09:27:43.999Z</time></trkpt><trkpt lat="43.658492791006324" lon="10.925801994326902"><ele>36.5</ele><time>2026-05-01T09:27:44.999Z</time></trkpt><trkpt lat="43.65871896653442" lon="10.925903478979965"><ele>36.0</ele><time>2026-05-01T09:27:45.999Z</time></trkpt><trkpt lat="43.65894471585431" lon="10.926004901948698"><ele>36.0</ele><time>2026-05-01T09:27:46.999Z</time></trkpt><trkpt lat="43.65917051151939" lon="10.92610621880162"><ele>36.0</ele><time>2026-05-01T09:27:47.999Z</time></trkpt><trkpt lat="43.65939399729306" lon="10.926204719718044"><ele>35.5</ele><time>2026-05-01T09:27:48.999Z</time></trkpt><trkpt lat="43.65961577781879" lon="10.926300850629824"><ele>35.0</ele><time>2026-05-01T09:27:49.999Z</time></trkpt><trkpt lat="43.65983993804764" lon="10.926395011373433"><ele>35.0</ele><time>2026-05-01T09:27:50.999Z</time></trkpt><trkpt lat="43.660062726396816" lon="10.926485798835449"><ele>35.0</ele><time>2026-05-01T09:27:51.999Z</time></trkpt><trkpt lat="43.660287629805225" lon="10.926571170167358"><ele>36.0</ele><time>2026-05-01T09:27:52.999Z</time></trkpt><trkpt lat="43.660515410929584" lon="10.926645352287633"><ele>37.0</ele><time>2026-05-01T09:27:53.999Z</time></trkpt><trkpt lat="43.660744758821025" lon="10.92671216987589"><ele>37.0</ele><time>2026-05-01T09:27:54.999Z</time></trkpt><trkpt lat="43.660975115591874" lon="10.926770881974436"><ele>37.0</ele><time>2026-05-01T09:27:55.998Z</time></trkpt><trkpt lat="43.66120793500076" lon="10.926823360155707"><ele>36.5</ele><time>2026-05-01T09:27:56.998Z</time></trkpt><trkpt lat="43.66144134616582" lon="10.926866105201112"><ele>36.0</ele><time>2026-05-01T09:27:57.998Z</time></trkpt><trkpt lat="43.661675273386756" lon="10.9268973307342"><ele>36.0</ele><time>2026-05-01T09:27:58.998Z</time></trkpt><trkpt lat="43.66191279078266" lon="10.926910810894215"><ele>36.0</ele><time>2026-05-01T09:27:59.998Z</time></trkpt><trkpt lat="43.66215039942339" lon="10.926913904418598"><ele>36.0</ele><time>2026-05-01T09:28:00.998Z</time></trkpt><trkpt lat="43.662389580292334" lon="10.926903276028778"><ele>36.0</ele><time>2026-05-01T09:28:01.998Z</time></trkpt><trkpt lat="43.66262505138553" lon="10.926880630360618"><ele>36.0</ele><time>2026-05-01T09:28:02.998Z</time></trkpt><trkpt lat="43.66286092052342" lon="10.9268446995285"><ele>36.0</ele><time>2026-05-01T09:28:03.998Z</time></trkpt><trkpt lat="43.663095825951785" lon="10.92679894878544"><ele>36.0</ele><time>2026-05-01T09:28:04.998Z</time></trkpt><trkpt lat="43.66333034257413" lon="10.926743235428798"><ele>36.0</ele><time>2026-05-01T09:28:05.998Z</time></trkpt><trkpt lat="43.66356709683983" lon="10.926694913831874"><ele>36.0</ele><time>2026-05-01T09:28:06.998Z</time></trkpt><trkpt lat="43.663801527837244" lon="10.926642650657444"><ele>36.0</ele><time>2026-05-01T09:28:07.998Z</time></trkpt><trkpt lat="43.664025144547956" lon="10.92649438614963"><ele>36.0</ele><time>2026-05-01T09:28:08.998Z</time></trkpt><trkpt lat="43.66425060597353" lon="10.926385499891028"><ele>36.0</ele><time>2026-05-01T09:28:09.998Z</time></trkpt><trkpt lat="43.66447409261932" lon="10.92626348212515"><ele>35.5</ele><time>2026-05-01T09:28:10.998Z</time></trkpt><trkpt lat="43.66469522355271" lon="10.926131218842462"><ele>35.0</ele><time>2026-05-01T09:28:11.998Z</time></trkpt><trkpt lat="43.66491101689525" lon="10.925988012858513"><ele>35.0</ele><time>2026-05-01T09:28:12.998Z</time></trkpt><trkpt lat="43.6651241448966" lon="10.925838115239147"><ele>35.0</ele><time>2026-05-01T09:28:13.998Z</time></trkpt><trkpt lat="43.665332062018464" lon="10.925679118673525"><ele>34.5</ele><time>2026-05-01T09:28:14.998Z</time></trkpt><trkpt lat="43.66553583618243" lon="10.925507077837576"><ele>34.0</ele><time>2026-05-01T09:28:15.998Z</time></trkpt><trkpt lat="43.665737189135655" lon="10.925328387700455"><ele>34.0</ele><time>2026-05-01T09:28:16.998Z</time></trkpt><trkpt lat="43.66593526892948" lon="10.925147118226958"><ele>34.0</ele><time>2026-05-01T09:28:18Z</time></trkpt><trkpt lat="43.66612989114451" lon="10.924957571257156"><ele>34.5</ele><time>2026-05-01T09:28:19Z</time></trkpt><trkpt lat="43.6663244681507" lon="10.92476236442846"><ele>35.0</ele><time>2026-05-01T09:28:20Z</time></trkpt><trkpt lat="43.66651982441527" lon="10.924566525731219"><ele>35.0</ele><time>2026-05-01T09:28:21Z</time></trkpt><trkpt lat="43.66671547331908" lon="10.924374020301784"><ele>35.0</ele><time>2026-05-01T09:28:22Z</time></trkpt><trkpt lat="43.666909788577506" lon="10.924181476914407"><ele>36.0</ele><time>2026-05-01T09:28:23Z</time></trkpt><trkpt lat="43.66710152374826" lon="10.92399103115587"><ele>37.0</ele><time>2026-05-01T09:28:24Z</time></trkpt><trkpt lat="43.66729540487752" lon="10.923799500565734"><ele>37.0</ele><time>2026-05-01T09:28:25Z</time></trkpt><trkpt lat="43.66748740340192" lon="10.923606917221996"><ele>37.0</ele><time>2026-05-01T09:28:26Z</time></trkpt><trkpt lat="43.66767758658592" lon="10.92341126593631"><ele>37.0</ele><time>2026-05-01T09:28:27Z</time></trkpt><trkpt lat="43.66786584521528" lon="10.923219423744484"><ele>37.0</ele><time>2026-05-01T09:28:28Z</time></trkpt><trkpt lat="43.668051229741536" lon="10.923034447016136"><ele>37.0</ele><time>2026-05-01T09:28:29Z</time></trkpt><trkpt lat="43.668241900499716" lon="10.922843890107462"><ele>37.0</ele><time>2026-05-01T09:28:30Z</time></trkpt><trkpt lat="43.668430195592705" lon="10.922654906489182"><ele>36.0</ele><time>2026-05-01T09:28:31Z</time></trkpt><trkpt lat="43.66861819773656" lon="10.92246939091169"><ele>35.0</ele><time>2026-05-01T09:28:32Z</time></trkpt><trkpt lat="43.6688032083296" lon="10.922280700807832"><ele>35.0</ele><time>2026-05-01T09:28:33Z</time></trkpt><trkpt lat="43.668989999209714" lon="10.922092688866078"><ele>35.0</ele><time>2026-05-01T09:28:34Z</time></trkpt><trkpt lat="43.66917740778138" lon="10.921906926598401"><ele>35.0</ele><time>2026-05-01T09:28:35Z</time></trkpt><trkpt lat="43.66936366966293" lon="10.921715819166476"><ele>35.0</ele><time>2026-05-01T09:28:36Z</time></trkpt><trkpt lat="43.669552384300474" lon="10.921523222881262"><ele>34.5</ele><time>2026-05-01T09:28:37Z</time></trkpt><trkpt lat="43.669742592266545" lon="10.921332429010084"><ele>34.0</ele><time>2026-05-01T09:28:38Z</time></trkpt><trkpt lat="43.669934748139426" lon="10.92114269877491"><ele>34.0</ele><time>2026-05-01T09:28:39Z</time></trkpt><trkpt lat="43.67012802242949" lon="10.920949944365073"><ele>34.0</ele><time>2026-05-01T09:28:40Z</time></trkpt><trkpt lat="43.67032307777593" lon="10.920754936409732"><ele>34.0</ele><time>2026-05-01T09:28:41Z</time></trkpt><trkpt lat="43.67051811169496" lon="10.920560322822784"><ele>34.0</ele><time>2026-05-01T09:28:42Z</time></trkpt><trkpt lat="43.67071194517081" lon="10.920362742967402"><ele>34.0</ele><time>2026-05-01T09:28:43Z</time></trkpt><trkpt lat="43.67090607336067" lon="10.920162737503"><ele>34.0</ele><time>2026-05-01T09:28:44Z</time></trkpt><trkpt lat="43.67110123717101" lon="10.919964043273838"><ele>34.5</ele><time>2026-05-01T09:28:45Z</time></trkpt><trkpt lat="43.67129728225931" lon="10.919770785341905"><ele>35.0</ele><time>2026-05-01T09:28:46Z</time></trkpt><trkpt lat="43.67149575191091" lon="10.919579183492907"><ele>35.0</ele><time>2026-05-01T09:28:47Z</time></trkpt><trkpt lat="43.67169535170692" lon="10.919396162358959"><ele>35.0</ele><time>2026-05-01T09:28:48Z</time></trkpt><trkpt lat="43.6718977258525" lon="10.919221380489798"><ele>35.0</ele><time>2026-05-01T09:28:49Z</time></trkpt><trkpt lat="43.67210158688612" lon="10.91905673318349"><ele>35.0</ele><time>2026-05-01T09:28:50Z</time></trkpt><trkpt lat="43.67230732969966" lon="10.918900748584402"><ele>35.0</ele><time>2026-05-01T09:28:51Z</time></trkpt><trkpt lat="43.672516056004525" lon="10.918755014357119"><ele>35.0</ele><time>2026-05-01T09:28:52Z</time></trkpt><trkpt lat="43.67272382136245" lon="10.918618061359233"><ele>35.0</ele><time>2026-05-01T09:28:53Z</time></trkpt><trkpt lat="43.6729340740636" lon="10.918492864135647"><ele>35.0</ele><time>2026-05-01T09:28:54Z</time></trkpt><trkpt lat="43.673143440734336" lon="10.918376153829085"><ele>35.0</ele><time>2026-05-01T09:28:55Z</time></trkpt><trkpt lat="43.67335315171429" lon="10.918270410858643"><ele>35.0</ele><time>2026-05-01T09:28:56Z</time></trkpt><trkpt lat="43.673567660966775" lon="10.91817826434887"><ele>35.0</ele><time>2026-05-01T09:28:57Z</time></trkpt><trkpt lat="43.67378329431972" lon="10.918096140006597"><ele>34.666666666666664</ele><time>2026-05-01T09:28:58Z</time></trkpt><trkpt lat="43.67400068606999" lon="10.91802422895632"><ele>34.333333333333336</ele><time>2026-05-01T09:28:59Z</time></trkpt><trkpt lat="43.674220979014734" lon="10.917956307412815"><ele>34.0</ele><time>2026-05-01T09:29:00Z</time></trkpt><trkpt lat="43.674441798925585" lon="10.917887782045222"><ele>33.5</ele><time>2026-05-01T09:29:01Z</time></trkpt><trkpt lat="43.67466182930917" lon="10.917824719085615"><ele>33.0</ele><time>2026-05-01T09:29:02Z</time></trkpt><trkpt lat="43.674883282175756" lon="10.91776994232219"><ele>33.0</ele><time>2026-05-01T09:29:03Z</time></trkpt><trkpt lat="43.675108990335346" lon="10.917719189932859"><ele>33.0</ele><time>2026-05-01T09:29:04Z</time></trkpt><trkpt lat="43.675334487095036" lon="10.917665795613935"><ele>33.0</ele><time>2026-05-01T09:29:05Z</time></trkpt><trkpt lat="43.67555963500237" lon="10.917611265052855"><ele>33.0</ele><time>2026-05-01T09:29:06Z</time></trkpt><trkpt lat="43.67578559804553" lon="10.917556336107891"><ele>33.0</ele><time>2026-05-01T09:29:07Z</time></trkpt><trkpt lat="43.676013822382714" lon="10.91750421336042"><ele>33.0</ele><time>2026-05-01T09:29:08Z</time></trkpt><trkpt lat="43.67623944764669" lon="10.917450327733153"><ele>33.0</ele><time>2026-05-01T09:29:09Z</time></trkpt><trkpt lat="43.676464448031155" lon="10.917393565906766"><ele>33.0</ele><time>2026-05-01T09:29:10Z</time></trkpt><trkpt lat="43.676688291828235" lon="10.917331893258343"><ele>33.0</ele><time>2026-05-01T09:29:11Z</time></trkpt><trkpt lat="43.67690776139504" lon="10.917260084175602"><ele>33.0</ele><time>2026-05-01T09:29:12Z</time></trkpt><trkpt lat="43.6771221707548" lon="10.91718141013224"><ele>33.0</ele><time>2026-05-01T09:29:13Z</time></trkpt><trkpt lat="43.67732116628852" lon="10.917094549445624"><ele>33.333333333333336</ele><time>2026-05-01T09:29:14Z</time></trkpt><trkpt lat="43.67750865669157" lon="10.917001520285972"><ele>33.66666666666667</ele><time>2026-05-01T09:29:15Z</time></trkpt><trkpt lat="43.677683339037316" lon="10.91691101547418"><ele>34.0</ele><time>2026-05-01T09:29:16Z</time></trkpt><trkpt lat="43.67783361918942" lon="10.916828999070855"><ele>34.25</ele><time>2026-05-01T09:29:17Z</time></trkpt><trkpt lat="43.67796257571952" lon="10.916758716824056"><ele>34.5</ele><time>2026-05-01T09:29:18Z</time></trkpt><trkpt lat="43.67807836355503" lon="10.916719067256489"><ele>34.75</ele><time>2026-05-01T09:29:19Z</time></trkpt><trkpt lat="43.67819445797294" lon="10.91671389205415"><ele>35.0</ele><time>2026-05-01T09:29:20Z</time></trkpt><trkpt lat="43.67831082811921" lon="10.916745080905141"><ele>35.0</ele><time>2026-05-01T09:29:21Z</time></trkpt><trkpt lat="43.67841474625231" lon="10.916757063987733"><ele>35.0</ele><time>2026-05-01T09:29:21.999Z</time></trkpt><trkpt lat="43.678518829846716" lon="10.916721178503272"><ele>35.0</ele><time>2026-05-01T09:29:22.999Z</time></trkpt><trkpt lat="43.67860885670307" lon="10.916648812844358"><ele>35.0</ele><time>2026-05-01T09:29:23.999Z</time></trkpt><trkpt lat="43.678676146564904" lon="10.916542852159557"><ele>35.0</ele><time>2026-05-01T09:29:24.999Z</time></trkpt><trkpt lat="43.678729347047316" lon="10.91640291061105"><ele>34.75</ele><time>2026-05-01T09:29:25.999Z</time></trkpt><trkpt lat="43.67877397161338" lon="10.916246646153569"><ele>34.5</ele><time>2026-05-01T09:29:26.999Z</time></trkpt><trkpt lat="43.678846913446144" lon="10.916092628655171"><ele>34.25</ele><time>2026-05-01T09:29:27.999Z</time></trkpt><trkpt lat="43.67895547376883" lon="10.915952662793751"><ele>34.0</ele><time>2026-05-01T09:29:28.999Z</time></trkpt><trkpt lat="43.679087155689665" lon="10.915822104947042"><ele>34.0</ele><time>2026-05-01T09:29:29.999Z</time></trkpt><trkpt lat="43.67922381697283" lon="10.91567977918577"><ele>34.0</ele><time>2026-05-01T09:29:30.999Z</time></trkpt><trkpt lat="43.67935571470713" lon="10.915521712774614"><ele>34.0</ele><time>2026-05-01T09:29:31.999Z</time></trkpt><trkpt lat="43.679499990904304" lon="10.915355712934904"><ele>34.0</ele><time>2026-05-01T09:29:32.999Z</time></trkpt><trkpt lat="43.67965879911988" lon="10.915184541556377"><ele>34.0</ele><time>2026-05-01T09:29:33.999Z</time></trkpt><trkpt lat="43.67982686299481" lon="10.915003632481056"><ele>34.0</ele><time>2026-05-01T09:29:34.999Z</time></trkpt><trkpt lat="43.67999469646603" lon="10.914819151670176"><ele>34.0</ele><time>2026-05-01T09:29:35.999Z</time></trkpt><trkpt lat="43.68015989031383" lon="10.914637929876184"><ele>34.0</ele><time>2026-05-01T09:29:36.998Z</time></trkpt><trkpt lat="43.680329221221214" lon="10.914457371390686"><ele>34.0</ele><time>2026-05-01T09:29:37.998Z</time></trkpt><trkpt lat="43.68050459211478" lon="10.91428194024419"><ele>34.0</ele><time>2026-05-01T09:29:38.998Z</time></trkpt><trkpt lat="43.68068672137275" lon="10.914120317088083"><ele>34.0</ele><time>2026-05-01T09:29:39.998Z</time></trkpt><trkpt lat="43.68087631619322" lon="10.91397242014167"><ele>34.0</ele><time>2026-05-01T09:29:40.998Z</time></trkpt><trkpt lat="43.681068713491385" lon="10.913839200627546"><ele>34.0</ele><time>2026-05-01T09:29:41.998Z</time></trkpt><trkpt lat="43.68126310397396" lon="10.913711612369381"><ele>34.0</ele><time>2026-05-01T09:29:42.998Z</time></trkpt><trkpt lat="43.68146138312604" lon="10.913594496012868"><ele>34.0</ele><time>2026-05-01T09:29:43.998Z</time></trkpt><trkpt lat="43.68166271287571" lon="10.91349112945667"><ele>33.66666666666667</ele><time>2026-05-01T09:29:44.998Z</time></trkpt><trkpt lat="43.68185985705869" lon="10.913400456095971"><ele>33.333333333333336</ele><time>2026-05-01T09:29:45.998Z</time></trkpt><trkpt lat="43.682059588377186" lon="10.913319837214491"><ele>33.0</ele><time>2026-05-01T09:29:46.998Z</time></trkpt><trkpt lat="43.682264081164455" lon="10.913244072795688"><ele>32.666666666666664</ele><time>2026-05-01T09:29:47.998Z</time></trkpt><trkpt lat="43.682476543819206" lon="10.91316905777672"><ele>32.33333333333333</ele><time>2026-05-01T09:29:48.998Z</time></trkpt><trkpt lat="43.682702888985226" lon="10.913130857319794"><ele>32.0</ele><time>2026-05-01T09:29:49.998Z</time></trkpt><trkpt lat="43.6829380724076" lon="10.913077758631509"><ele>32.0</ele><time>2026-05-01T09:29:50.998Z</time></trkpt><trkpt lat="43.683189169311696" lon="10.913021872512864"><ele>32.0</ele><time>2026-05-01T09:29:51.998Z</time></trkpt><trkpt lat="43.68345158623969" lon="10.912966150623562"><ele>31.0</ele><time>2026-05-01T09:29:52.998Z</time></trkpt><trkpt lat="43.68372044938302" lon="10.912910937656937"><ele>30.0</ele><time>2026-05-01T09:29:53.998Z</time></trkpt><trkpt lat="43.68398429463755" lon="10.912845268508159"><ele>30.0</ele><time>2026-05-01T09:29:54.998Z</time></trkpt><trkpt lat="43.684248960951315" lon="10.912806811270679"><ele>30.0</ele><time>2026-05-01T09:29:55.998Z</time></trkpt><trkpt lat="43.684502823059105" lon="10.912764842657241"><ele>31.0</ele><time>2026-05-01T09:29:56.998Z</time></trkpt><trkpt lat="43.684754656070744" lon="10.912717481619703"><ele>32.0</ele><time>2026-05-01T09:29:57.998Z</time></trkpt><trkpt lat="43.68500084161725" lon="10.91266801587021"><ele>32.0</ele><time>2026-05-01T09:29:58.998Z</time></trkpt><trkpt lat="43.68524450156127" lon="10.91261566919449"><ele>32.0</ele><time>2026-05-01T09:29:59.998Z</time></trkpt><trkpt lat="43.685484470673565" lon="10.912561188977778"><ele>32.0</ele><time>2026-05-01T09:30:00.998Z</time></trkpt><trkpt lat="43.68572207302218" lon="10.912503640690618"><ele>32.0</ele><time>2026-05-01T09:30:01.998Z</time></trkpt><trkpt lat="43.685958469494985" lon="10.91244646600381"><ele>31.5</ele><time>2026-05-01T09:30:02.998Z</time></trkpt><trkpt lat="43.68619200257918" lon="10.912376977570261"><ele>31.0</ele><time>2026-05-01T09:30:03.998Z</time></trkpt><trkpt lat="43.68642075054615" lon="10.91229367486406"><ele>31.0</ele><time>2026-05-01T09:30:04.998Z</time></trkpt><trkpt lat="43.68664855089902" lon="10.912202570690809"><ele>31.0</ele><time>2026-05-01T09:30:05.998Z</time></trkpt><trkpt lat="43.686875130323564" lon="10.912107836123981"><ele>31.0</ele><time>2026-05-01T09:30:06.998Z</time></trkpt><trkpt lat="43.687098184506794" lon="10.912008146572932"><ele>31.0</ele><time>2026-05-01T09:30:07.998Z</time></trkpt><trkpt lat="43.6873190988462" lon="10.911900620696306"><ele>31.0</ele><time>2026-05-01T09:30:08.998Z</time></trkpt><trkpt lat="43.687537180577486" lon="10.911792255825146"><ele>31.0</ele><time>2026-05-01T09:30:09.998Z</time></trkpt><trkpt lat="43.6877559792176" lon="10.91168409383677"><ele>31.0</ele><time>2026-05-01T09:30:10.998Z</time></trkpt><trkpt lat="43.68797703470498" lon="10.911579264973376"><ele>31.0</ele><time>2026-05-01T09:30:11.998Z</time></trkpt><trkpt lat="43.68820460236154" lon="10.911485541222817"><ele>31.0</ele><time>2026-05-01T09:30:12.997Z</time></trkpt><trkpt lat="43.688434343732844" lon="10.911390647165991"><ele>31.0</ele><time>2026-05-01T09:30:13.997Z</time></trkpt><trkpt lat="43.68866362728845" lon="10.911295947777695"><ele>32.5</ele><time>2026-05-01T09:30:14.997Z</time></trkpt><trkpt lat="43.68889297830443" lon="10.911202168188375"><ele>34.0</ele><time>2026-05-01T09:30:15.997Z</time></trkpt><trkpt lat="43.68911926261662" lon="10.911113493337231"><ele>34.0</ele><time>2026-05-01T09:30:16.997Z</time></trkpt><trkpt lat="43.68934398723366" lon="10.911028490692193"><ele>34.0</ele><time>2026-05-01T09:30:17.997Z</time></trkpt><trkpt lat="43.689567832639014" lon="10.910950089556415"><ele>38.0</ele><time>2026-05-01T09:30:18.997Z</time></trkpt><trkpt lat="43.6897912517593" lon="10.91088031160935"><ele>42.0</ele><time>2026-05-01T09:30:19.997Z</time></trkpt><trkpt lat="43.690012853606085" lon="10.910816598465532"><ele>42.0</ele><time>2026-05-01T09:30:20.997Z</time></trkpt><trkpt lat="43.69023292262869" lon="10.910763466281413"><ele>42.0</ele><time>2026-05-01T09:30:21.997Z</time></trkpt><trkpt lat="43.69045376542724" lon="10.91071823065491"><ele>42.0</ele><time>2026-05-01T09:30:22.997Z</time></trkpt><trkpt lat="43.69067547794638" lon="10.910686556231624"><ele>41.666666666666664</ele><time>2026-05-01T09:30:24Z</time></trkpt><trkpt lat="43.69089704955298" lon="10.910661463893955"><ele>41.33333333333333</ele><time>2026-05-01T09:30:25Z</time></trkpt><trkpt lat="43.691118934890255" lon="10.91064192814196"><ele>41.0</ele><time>2026-05-01T09:30:26Z</time></trkpt><trkpt lat="43.69134044016613" lon="10.910630757636772"><ele>41.0</ele><time>2026-05-01T09:30:27Z</time></trkpt><trkpt lat="43.69157524993522" lon="10.910626937786109"><ele>41.0</ele><time>2026-05-01T09:30:28.07Z</time></trkpt><trkpt lat="43.69201342758437" lon="10.910595974791049"><ele>38.0</ele><time>2026-05-01T09:30:30Z</time></trkpt><trkpt lat="43.69224039293442" lon="10.910621154724028"><ele>35.0</ele><time>2026-05-01T09:30:31Z</time></trkpt><trkpt lat="43.69246280652733" lon="10.910641346384535"><ele>35.0</ele><time>2026-05-01T09:30:32Z</time></trkpt><trkpt lat="43.69268290832288" lon="10.910667544776707"><ele>35.0</ele><time>2026-05-01T09:30:33Z</time></trkpt><trkpt lat="43.692886799350994" lon="10.9106974955173"><ele>35.0</ele><time>2026-05-01T09:30:34Z</time></trkpt><trkpt lat="43.69308220806996" lon="10.910727407371692"><ele>34.33333333333333</ele><time>2026-05-01T09:30:35Z</time></trkpt><trkpt lat="43.693269404628396" lon="10.910758584740003"><ele>33.666666666666664</ele><time>2026-05-01T09:30:36Z</time></trkpt><trkpt lat="43.69344596905803" lon="10.91078782947623"><ele>33.0</ele><time>2026-05-01T09:30:37Z</time></trkpt><trkpt lat="43.69361416891798" lon="10.91081537492829"><ele>32.666666666666664</ele><time>2026-05-01T09:30:38Z</time></trkpt><trkpt lat="43.69377669194613" lon="10.910842477450451"><ele>32.33333333333333</ele><time>2026-05-01T09:30:39Z</time></trkpt><trkpt lat="43.69393899503472" lon="10.910866161725624"><ele>32.0</ele><time>2026-05-01T09:30:40Z</time></trkpt><trkpt lat="43.69409402694198" lon="10.910888933625777"><ele>32.0</ele><time>2026-05-01T09:30:41Z</time></trkpt><trkpt lat="43.69423092850755" lon="10.910914465301355"><ele>32.0</ele><time>2026-05-01T09:30:42Z</time></trkpt><trkpt lat="43.694354123891024" lon="10.91093902901574"><ele>32.0</ele><time>2026-05-01T09:30:43Z</time></trkpt><trkpt lat="43.69447201193636" lon="10.91096531485052"><ele>32.0</ele><time>2026-05-01T09:30:44Z</time></trkpt><trkpt lat="43.69457697605077" lon="10.911011765360623"><ele>32.2</ele><time>2026-05-01T09:30:44.999Z</time></trkpt><trkpt lat="43.694662891198135" lon="10.911089002491966"><ele>32.400000000000006</ele><time>2026-05-01T09:30:45.999Z</time></trkpt><trkpt lat="43.69474167463122" lon="10.911199966145555"><ele>32.599999999999994</ele><time>2026-05-01T09:30:46.999Z</time></trkpt><trkpt lat="43.69481970561297" lon="10.911296404907011"><ele>32.8</ele><time>2026-05-01T09:30:47.999Z</time></trkpt><trkpt lat="43.694913168072546" lon="10.911360058984464"><ele>33.0</ele><time>2026-05-01T09:30:48.999Z</time></trkpt><trkpt lat="43.69501678250626" lon="10.911385986464554"><ele>33.0</ele><time>2026-05-01T09:30:49.999Z</time></trkpt><trkpt lat="43.695123968396466" lon="10.91136779698168"><ele>33.0</ele><time>2026-05-01T09:30:50.999Z</time></trkpt><trkpt lat="43.695233502512316" lon="10.911310853033344"><ele>33.0</ele><time>2026-05-01T09:30:51.999Z</time></trkpt><trkpt lat="43.69534387586914" lon="10.91123192061285"><ele>33.0</ele><time>2026-05-01T09:30:52.999Z</time></trkpt><trkpt lat="43.695467414663554" lon="10.911175095426783"><ele>33.333333333333336</ele><time>2026-05-01T09:30:53.999Z</time></trkpt><trkpt lat="43.695607443851074" lon="10.911159358790046"><ele>33.66666666666667</ele><time>2026-05-01T09:30:54.999Z</time></trkpt><trkpt lat="43.69575898284759" lon="10.911172474539535"><ele>34.0</ele><time>2026-05-01T09:30:55.999Z</time></trkpt><trkpt lat="43.69592226217062" lon="10.911204213010201"><ele>34.66666666666667</ele><time>2026-05-01T09:30:56.999Z</time></trkpt><trkpt lat="43.69608906106974" lon="10.911242410585965"><ele>35.333333333333336</ele><time>2026-05-01T09:30:57.999Z</time></trkpt><trkpt lat="43.69625344279785" lon="10.911276050332631"><ele>36.0</ele><time>2026-05-01T09:30:58.999Z</time></trkpt><trkpt lat="43.69642614000068" lon="10.911306272563634"><ele>36.0</ele><time>2026-05-01T09:30:59.999Z</time></trkpt><trkpt lat="43.69660608647531" lon="10.911337557883432"><ele>36.0</ele><time>2026-05-01T09:31:00.999Z</time></trkpt><trkpt lat="43.696784908539634" lon="10.911367924604475"><ele>36.0</ele><time>2026-05-01T09:31:01.999Z</time></trkpt><trkpt lat="43.69696167051085" lon="10.911396018010336"><ele>37.0</ele><time>2026-05-01T09:31:02.999Z</time></trkpt><trkpt lat="43.69713633725154" lon="10.91142594476249"><ele>38.0</ele><time>2026-05-01T09:31:03.999Z</time></trkpt><trkpt lat="43.69731065912325" lon="10.911457064540427"><ele>39.0</ele><time>2026-05-01T09:31:04.999Z</time></trkpt><trkpt lat="43.69748721626381" lon="10.911486456987207"><ele>39.0</ele><time>2026-05-01T09:31:05.999Z</time></trkpt><trkpt lat="43.697665491759" lon="10.911514165515124"><ele>39.0</ele><time>2026-05-01T09:31:06.999Z</time></trkpt><trkpt lat="43.69784215771466" lon="10.911541063870674"><ele>39.0</ele><time>2026-05-01T09:31:07.999Z</time></trkpt><trkpt lat="43.69801735123795" lon="10.911567281706224"><ele>41.666666666666664</ele><time>2026-05-01T09:31:08.999Z</time></trkpt><trkpt lat="43.69819442630598" lon="10.911591755414472"><ele>44.33333333333333</ele><time>2026-05-01T09:31:09.999Z</time></trkpt><trkpt lat="43.69836697725859" lon="10.91161157374287"><ele>47.0</ele><time>2026-05-01T09:31:10.999Z</time></trkpt><trkpt lat="43.69853764229479" lon="10.911630783208036"><ele>47.666666666666664</ele><time>2026-05-01T09:31:11.999Z</time></trkpt><trkpt lat="43.69870580700902" lon="10.911649070838523"><ele>48.33333333333333</ele><time>2026-05-01T09:31:12.999Z</time></trkpt><trkpt lat="43.69887692850274" lon="10.911665561444298"><ele>49.0</ele><time>2026-05-01T09:31:13.999Z</time></trkpt><trkpt lat="43.6990440049365" lon="10.911680309827085"><ele>49.0</ele><time>2026-05-01T09:31:14.999Z</time></trkpt><trkpt lat="43.69921433383882" lon="10.911696416202387"><ele>49.0</ele><time>2026-05-01T09:31:15.999Z</time></trkpt><trkpt lat="43.69938965428068" lon="10.911712382504184"><ele>49.0</ele><time>2026-05-01T09:31:16.999Z</time></trkpt><trkpt lat="43.69956895956127" lon="10.91172704267275"><ele>50.666666666666664</ele><time>2026-05-01T09:31:17.999Z</time></trkpt><trkpt lat="43.6997632910841" lon="10.911743086189324"><ele>52.33333333333333</ele><time>2026-05-01T09:31:19.071Z</time></trkpt><trkpt lat="43.69995083212538" lon="10.911757095237398"><ele>54.0</ele><time>2026-05-01T09:31:20.07Z</time></trkpt><trkpt lat="43.70014646192367" lon="10.911774917433043"><ele>53.66666666666667</ele><time>2026-05-01T09:31:21.068Z</time></trkpt><trkpt lat="43.700343176323344" lon="10.911794828867523"><ele>53.333333333333336</ele><time>2026-05-01T09:31:22.063Z</time></trkpt><trkpt lat="43.70054702084008" lon="10.911816298277001"><ele>53.0</ele><time>2026-05-01T09:31:23.065Z</time></trkpt><trkpt lat="43.702331358357924" lon="10.911922210016156"><ele>45.0</ele><time>2026-05-01T09:31:31.999Z</time></trkpt><trkpt lat="43.70252443706931" lon="10.911937747793194"><ele>37.0</ele><time>2026-05-01T09:31:32.999Z</time></trkpt><trkpt lat="43.70271667389129" lon="10.91195798416545"><ele>29.0</ele><time>2026-05-01T09:31:33.999Z</time></trkpt><trkpt lat="43.702909913123136" lon="10.911970961743112"><ele>27.333333333333332</ele><time>2026-05-01T09:31:34.999Z</time></trkpt><trkpt lat="43.70310259263483" lon="10.911994706574191"><ele>25.666666666666664</ele><time>2026-05-01T09:31:35.998Z</time></trkpt><trkpt lat="43.7032983381135" lon="10.912027117812775"><ele>24.0</ele><time>2026-05-01T09:31:36.998Z</time></trkpt><trkpt lat="43.703493450246185" lon="10.91207890826611"><ele>24.0</ele><time>2026-05-01T09:31:37.998Z</time></trkpt><trkpt lat="43.703689830865514" lon="10.912131475707792"><ele>24.0</ele><time>2026-05-01T09:31:38.998Z</time></trkpt><trkpt lat="43.70388678174385" lon="10.912192215167401"><ele>24.0</ele><time>2026-05-01T09:31:39.998Z</time></trkpt><trkpt lat="43.70408100111619" lon="10.912263961858853"><ele>24.0</ele><time>2026-05-01T09:31:40.998Z</time></trkpt><trkpt lat="43.704274298153365" lon="10.91233886312629"><ele>24.0</ele><time>2026-05-01T09:31:41.998Z</time></trkpt><trkpt lat="43.70446704909389" lon="10.912421242741887"><ele>24.0</ele><time>2026-05-01T09:31:42.998Z</time></trkpt><trkpt lat="43.70465488539183" lon="10.912513425876867"><ele>24.0</ele><time>2026-05-01T09:31:43.998Z</time></trkpt><trkpt lat="43.704840589766874" lon="10.912612386400149"><ele>24.0</ele><time>2026-05-01T09:31:44.998Z</time></trkpt><trkpt lat="43.70502236643004" lon="10.912715171636632"><ele>24.0</ele><time>2026-05-01T09:31:45.998Z</time></trkpt><trkpt lat="43.705197687704334" lon="10.912827049239038"><ele>23.333333333333332</ele><time>2026-05-01T09:31:46.998Z</time></trkpt><trkpt lat="43.705370508350775" lon="10.9129455589087"><ele>22.666666666666664</ele><time>2026-05-01T09:31:47.998Z</time></trkpt><trkpt lat="43.70553757001338" lon="10.91306346529475"><ele>22.0</ele><time>2026-05-01T09:31:48.998Z</time></trkpt><trkpt lat="43.70569316662673" lon="10.9131792977538"><ele>22.0</ele><time>2026-05-01T09:31:49.998Z</time></trkpt><trkpt lat="43.70583887871375" lon="10.91329504136166"><ele>22.0</ele><time>2026-05-01T09:31:50.998Z</time></trkpt><trkpt lat="43.70597879729036" lon="10.913416294708501"><ele>22.0</ele><time>2026-05-01T09:31:51.998Z</time></trkpt><trkpt lat="43.70611989702731" lon="10.913544865247545"><ele>22.666666666666664</ele><time>2026-05-01T09:31:52.998Z</time></trkpt><trkpt lat="43.706253769724825" lon="10.913674426308518"><ele>23.333333333333332</ele><time>2026-05-01T09:31:53.998Z</time></trkpt><trkpt lat="43.706386242482616" lon="10.913801959058393"><ele>24.0</ele><time>2026-05-01T09:31:54.998Z</time></trkpt><trkpt lat="43.70651790060919" lon="10.91392638970484"><ele>24.0</ele><time>2026-05-01T09:31:55.998Z</time></trkpt><trkpt lat="43.706648039645096" lon="10.914055923621868"><ele>24.0</ele><time>2026-05-01T09:31:56.998Z</time></trkpt><trkpt lat="43.70677354047411" lon="10.914189336525324"><ele>24.0</ele><time>2026-05-01T09:31:57.998Z</time></trkpt><trkpt lat="43.70689525760051" lon="10.914317771982219"><ele>24.25</ele><time>2026-05-01T09:31:58.998Z</time></trkpt><trkpt lat="43.70700983049636" lon="10.914431989377821"><ele>24.5</ele><time>2026-05-01T09:31:59.998Z</time></trkpt><trkpt lat="43.70712615793686" lon="10.91454310417594"><ele>24.75</ele><time>2026-05-01T09:32:00.998Z</time></trkpt><trkpt lat="43.70723402980057" lon="10.914648954025571"><ele>25.0</ele><time>2026-05-01T09:32:01.998Z</time></trkpt><trkpt lat="43.707333363800736" lon="10.914751678708715"><ele>25.0</ele><time>2026-05-01T09:32:02.998Z</time></trkpt><trkpt lat="43.70742459375755" lon="10.914846268721142"><ele>25.0</ele><time>2026-05-01T09:32:03.998Z</time></trkpt><trkpt lat="43.707513041688664" lon="10.914937878580398"><ele>25.0</ele><time>2026-05-01T09:32:04.998Z</time></trkpt><trkpt lat="43.70759750454485" lon="10.915035151328134"><ele>25.0</ele><time>2026-05-01T09:32:05.998Z</time></trkpt><trkpt lat="43.70767339517329" lon="10.91513881737792"><ele>25.0</ele><time>2026-05-01T09:32:06.998Z</time></trkpt><trkpt lat="43.70773356165031" lon="10.915243419251599"><ele>25.000000000000004</ele><time>2026-05-01T09:32:07.998Z</time></trkpt><trkpt lat="43.707781657007914" lon="10.915346992013575"><ele>25.0</ele><time>2026-05-01T09:32:08.998Z</time></trkpt><trkpt lat="43.70781539374814" lon="10.915452964829399"><ele>25.0</ele><time>2026-05-01T09:32:09.998Z</time></trkpt><trkpt lat="43.70784012341225" lon="10.91555269846957"><ele>25.0</ele><time>2026-05-01T09:32:10.998Z</time></trkpt><trkpt lat="43.707859578293636" lon="10.91564691103852"><ele>25.000000000000004</ele><time>2026-05-01T09:32:11.998Z</time></trkpt><trkpt lat="43.70787008551812" lon="10.915820767980756"><ele>25.0</ele><time>2026-05-01T09:32:13.998Z</time></trkpt><trkpt lat="43.70785870944346" lon="10.915925282597708"><ele>25.0</ele><time>2026-05-01T09:32:14.998Z</time></trkpt><trkpt lat="43.70782696626152" lon="10.916043122317067"><ele>25.0</ele><time>2026-05-01T09:32:15.998Z</time></trkpt><trkpt lat="43.707784290943934" lon="10.916171429556476"><ele>25.0</ele><time>2026-05-01T09:32:16.998Z</time></trkpt><trkpt lat="43.70773334837472" lon="10.916307208766963"><ele>25.0</ele><time>2026-05-01T09:32:17.998Z</time></trkpt><trkpt lat="43.70769546138078" lon="10.916439148277732"><ele>25.0</ele><time>2026-05-01T09:32:18.998Z</time></trkpt><trkpt lat="43.707674915681494" lon="10.916591783699298"><ele>25.0</ele><time>2026-05-01T09:32:19.998Z</time></trkpt><trkpt lat="43.70767605869893" lon="10.916756549233792"><ele>25.0</ele><time>2026-05-01T09:32:20.998Z</time></trkpt><trkpt lat="43.70770351744374" lon="10.916918318208598"><ele>25.0</ele><time>2026-05-01T09:32:21.998Z</time></trkpt><trkpt lat="43.70775727502793" lon="10.91707009033459"><ele>25.0</ele><time>2026-05-01T09:32:22.998Z</time></trkpt><trkpt lat="43.70782837100848" lon="10.917207928378787"><ele>25.0</ele><time>2026-05-01T09:32:23.998Z</time></trkpt><trkpt lat="43.70792667230569" lon="10.917325639005986"><ele>25.0</ele><time>2026-05-01T09:32:24.998Z</time></trkpt><trkpt lat="43.70803891787624" lon="10.9174069592954"><ele>25.0</ele><time>2026-05-01T09:32:25.998Z</time></trkpt><trkpt lat="43.708165793410735" lon="10.917465904823985"><ele>25.0</ele><time>2026-05-01T09:32:26.997Z</time></trkpt><trkpt lat="43.70830002483469" lon="10.917511607237246"><ele>25.0</ele><time>2026-05-01T09:32:27.997Z</time></trkpt><trkpt lat="43.70843199534727" lon="10.917553014179287"><ele>25.0</ele><time>2026-05-01T09:32:28.997Z</time></trkpt><trkpt lat="43.70856074615969" lon="10.917582843238868"><ele>25.0</ele><time>2026-05-01T09:32:30Z</time></trkpt><trkpt lat="43.708679967669376" lon="10.917594471488698"><ele>25.0</ele><time>2026-05-01T09:32:31Z</time></trkpt><trkpt lat="43.70879867244763" lon="10.917568519392002"><ele>24.0</ele><time>2026-05-01T09:32:32Z</time></trkpt><trkpt lat="43.70891209192964" lon="10.917507933565279"><ele>23.0</ele><time>2026-05-01T09:32:33Z</time></trkpt><trkpt lat="43.709014888017464" lon="10.917414498605691"><ele>22.0</ele><time>2026-05-01T09:32:34Z</time></trkpt><trkpt lat="43.709094941912795" lon="10.917308977626995"><ele>21.0</ele><time>2026-05-01T09:32:35Z</time></trkpt><trkpt lat="43.709157047739744" lon="10.917197923926604"><ele>21.0</ele><time>2026-05-01T09:32:36Z</time></trkpt><trkpt lat="43.70920448162886" lon="10.917084092650038"><ele>21.0</ele><time>2026-05-01T09:32:37Z</time></trkpt><trkpt lat="43.7092411674539" lon="10.916988395311359"><ele>21.0</ele><time>2026-05-01T09:32:38Z</time></trkpt><trkpt lat="43.70932763856129" lon="10.916920538143076"><ele>21.0</ele><time>2026-05-01T09:32:39Z</time></trkpt><trkpt lat="43.70941366578817" lon="10.916861584863224"><ele>21.0</ele><time>2026-05-01T09:32:40Z</time></trkpt><trkpt lat="43.70950264101506" lon="10.916849575420256"><ele>21.5</ele><time>2026-05-01T09:32:41Z</time></trkpt><trkpt lat="43.709594704955535" lon="10.916850172660984"><ele>22.0</ele><time>2026-05-01T09:32:42Z</time></trkpt><trkpt lat="43.70969395715034" lon="10.91694594702242"><ele>22.5</ele><time>2026-05-01T09:32:43Z</time></trkpt><trkpt lat="43.70978962574355" lon="10.91704072176782"><ele>23.0</ele><time>2026-05-01T09:32:44Z</time></trkpt><trkpt lat="43.709881989241865" lon="10.917165672139065"><ele>23.0</ele><time>2026-05-01T09:32:45Z</time></trkpt><trkpt lat="43.709965524333306" lon="10.91731339701957"><ele>23.0</ele><time>2026-05-01T09:32:46Z</time></trkpt><trkpt lat="43.710034026750584" lon="10.917485082908119"><ele>23.0</ele><time>2026-05-01T09:32:47Z</time></trkpt><trkpt lat="43.7100823525133" lon="10.917667039092214"><ele>23.0</ele><time>2026-05-01T09:32:48Z</time></trkpt><trkpt lat="43.710114000183204" lon="10.91786345994305"><ele>22.75</ele><time>2026-05-01T09:32:49Z</time></trkpt><trkpt lat="43.71013650934158" lon="10.918054245606095"><ele>22.5</ele><time>2026-05-01T09:32:50Z</time></trkpt><trkpt lat="43.710148758206095" lon="10.918228072663766"><ele>22.25</ele><time>2026-05-01T09:32:51Z</time></trkpt><trkpt lat="43.71016334137559" lon="10.918409988368547"><ele>22.0</ele><time>2026-05-01T09:32:52Z</time></trkpt><trkpt lat="43.71018887366167" lon="10.918595739639052"><ele>22.0</ele><time>2026-05-01T09:32:53Z</time></trkpt><trkpt lat="43.71021695840082" lon="10.918776847618162"><ele>22.0</ele><time>2026-05-01T09:32:54Z</time></trkpt><trkpt lat="43.710249734444496" lon="10.918965621767539"><ele>22.0</ele><time>2026-05-01T09:32:55Z</time></trkpt><trkpt lat="43.71029367599662" lon="10.919157544384303"><ele>22.0</ele><time>2026-05-01T09:32:56Z</time></trkpt><trkpt lat="43.710345252446174" lon="10.919355083840191"><ele>22.0</ele><time>2026-05-01T09:32:56.999Z</time></trkpt><trkpt lat="43.710400819216545" lon="10.91955409059525"><ele>22.0</ele><time>2026-05-01T09:32:57.999Z</time></trkpt><trkpt lat="43.71046242414057" lon="10.919748180499171"><ele>22.0</ele><time>2026-05-01T09:32:58.999Z</time></trkpt><trkpt lat="43.71053008741283" lon="10.91993660958888"><ele>21.75</ele><time>2026-05-01T09:32:59.999Z</time></trkpt><trkpt lat="43.71059891325916" lon="10.92012058263496"><ele>21.5</ele><time>2026-05-01T09:33:00.999Z</time></trkpt><trkpt lat="43.71066506109172" lon="10.920295183499356"><ele>21.25</ele><time>2026-05-01T09:33:01.999Z</time></trkpt><trkpt lat="43.71073441192929" lon="10.920464500078184"><ele>21.0</ele><time>2026-05-01T09:33:02.999Z</time></trkpt><trkpt lat="43.71081494735036" lon="10.92062222863447"><ele>21.0</ele><time>2026-05-01T09:33:03.999Z</time></trkpt><trkpt lat="43.7109045755063" lon="10.920762430349848"><ele>21.0</ele><time>2026-05-01T09:33:04.999Z</time></trkpt><trkpt lat="43.711001969521554" lon="10.92088702065783"><ele>21.0</ele><time>2026-05-01T09:33:05.999Z</time></trkpt><trkpt lat="43.7111075949631" lon="10.920991516593613"><ele>21.0</ele><time>2026-05-01T09:33:06.999Z</time></trkpt><trkpt lat="43.711215349787196" lon="10.921084284563188"><ele>21.25</ele><time>2026-05-01T09:33:07.999Z</time></trkpt><trkpt lat="43.7113245239128" lon="10.921159351042455"><ele>21.5</ele><time>2026-05-01T09:33:08.999Z</time></trkpt><trkpt lat="43.71143687251049" lon="10.921217345882956"><ele>21.75</ele><time>2026-05-01T09:33:09.999Z</time></trkpt><trkpt lat="43.71155169842624" lon="10.92126098751438"><ele>22.0</ele><time>2026-05-01T09:33:10.999Z</time></trkpt><trkpt lat="43.711666269483146" lon="10.92129327079381"><ele>22.0</ele><time>2026-05-01T09:33:11.999Z</time></trkpt><trkpt lat="43.71178399664084" lon="10.921312549840906"><ele>22.0</ele><time>2026-05-01T09:33:12.999Z</time></trkpt><trkpt lat="43.711903024741225" lon="10.921320819275275"><ele>22.0</ele><time>2026-05-01T09:33:13.999Z</time></trkpt><trkpt lat="43.71202816253844" lon="10.921317905777485"><ele>22.0</ele><time>2026-05-01T09:33:14.999Z</time></trkpt><trkpt lat="43.71216235847133" lon="10.921311638337064"><ele>22.25</ele><time>2026-05-01T09:33:15.999Z</time></trkpt><trkpt lat="43.712299901779495" lon="10.921315756550738"><ele>22.5</ele><time>2026-05-01T09:33:16.999Z</time></trkpt><trkpt lat="43.71243728948003" lon="10.921323880027716"><ele>22.75</ele><time>2026-05-01T09:33:17.999Z</time></trkpt><trkpt lat="43.712573760738124" lon="10.921326986988355"><ele>23.0</ele><time>2026-05-01T09:33:18.999Z</time></trkpt><trkpt lat="43.71270759499917" lon="10.921328890640272"><ele>22.75</ele><time>2026-05-01T09:33:19.999Z</time></trkpt><trkpt lat="43.712845561294195" lon="10.921332830558368"><ele>22.5</ele><time>2026-05-01T09:33:20.999Z</time></trkpt><trkpt lat="43.71297394978713" lon="10.921334930458029"><ele>22.25</ele><time>2026-05-01T09:33:21.999Z</time></trkpt><trkpt lat="43.71309981837304" lon="10.92133123657161"><ele>22.0</ele><time>2026-05-01T09:33:22.999Z</time></trkpt><trkpt lat="43.71322003341208" lon="10.921320327334012"><ele>22.0</ele><time>2026-05-01T09:33:23.999Z</time></trkpt><trkpt lat="43.71333681638047" lon="10.921292489929797"><ele>22.0</ele><time>2026-05-01T09:33:24.999Z</time></trkpt><trkpt lat="43.7134486450022" lon="10.921252425087765"><ele>22.0</ele><time>2026-05-01T09:33:25.999Z</time></trkpt><trkpt lat="43.71356526361985" lon="10.921209936122649"><ele>22.0</ele><time>2026-05-01T09:33:26.999Z</time></trkpt><trkpt lat="43.71367595256397" lon="10.921167585221225"><ele>22.200000000000003</ele><time>2026-05-01T09:33:27.999Z</time></trkpt><trkpt lat="43.71378252152344" lon="10.92112176393712"><ele>22.4</ele><time>2026-05-01T09:33:28.999Z</time></trkpt><trkpt lat="43.71388321965589" lon="10.921075067302622"><ele>22.6</ele><time>2026-05-01T09:33:29.999Z</time></trkpt><trkpt lat="43.71397813920143" lon="10.921033215077"><ele>22.799999999999997</ele><time>2026-05-01T09:33:30.999Z</time></trkpt><trkpt lat="43.71406455821362" lon="10.921001268288368"><ele>23.0</ele><time>2026-05-01T09:33:31.999Z</time></trkpt><trkpt lat="43.714133077995015" lon="10.92098873066996"><ele>23.0</ele><time>2026-05-01T09:33:32.999Z</time></trkpt><trkpt lat="43.714236040265924" lon="10.920994306006888"><ele>23.0</ele><time>2026-05-01T09:33:34.999Z</time></trkpt><trkpt lat="43.71436547612684" lon="10.921032554342279"><ele>23.0</ele><time>2026-05-01T09:33:36.999Z</time></trkpt><trkpt lat="43.714446166965494" lon="10.921078284632221"><ele>23.0</ele><time>2026-05-01T09:33:37.999Z</time></trkpt><trkpt lat="43.71453238438461" lon="10.921103273490015"><ele>23.0</ele><time>2026-05-01T09:33:38.999Z</time></trkpt><trkpt lat="43.71461348508771" lon="10.921072825131686"><ele>23.2</ele><time>2026-05-01T09:33:39.999Z</time></trkpt><trkpt lat="43.714695432573976" lon="10.92100060477162"><ele>23.4</ele><time>2026-05-01T09:33:40.999Z</time></trkpt><trkpt lat="43.714749871080755" lon="10.920897888398923"><ele>23.599999999999998</ele><time>2026-05-01T09:33:41.999Z</time></trkpt><trkpt lat="43.71477853576869" lon="10.920766961185336"><ele>23.799999999999997</ele><time>2026-05-01T09:33:42.999Z</time></trkpt><trkpt lat="43.71478045449132" lon="10.920608665068615"><ele>24.0</ele><time>2026-05-01T09:33:43.999Z</time></trkpt><trkpt lat="43.7147570751916" lon="10.92044348239115"><ele>24.0</ele><time>2026-05-01T09:33:44.999Z</time></trkpt><trkpt lat="43.71479305925748" lon="10.920263786181339"><ele>24.0</ele><time>2026-05-01T09:33:45.999Z</time></trkpt><trkpt lat="43.71484761402842" lon="10.9200878676596"><ele>24.0</ele><time>2026-05-01T09:33:46.998Z</time></trkpt><trkpt lat="43.71492977715521" lon="10.919916643185767"><ele>24.0</ele><time>2026-05-01T09:33:47.998Z</time></trkpt><trkpt lat="43.715004992492695" lon="10.919741006827628"><ele>23.666666666666668</ele><time>2026-05-01T09:33:48.998Z</time></trkpt><trkpt lat="43.71506037444823" lon="10.919533134279762"><ele>23.333333333333336</ele><time>2026-05-01T09:33:49.998Z</time></trkpt><trkpt lat="43.715097643951026" lon="10.919299456595553"><ele>23.0</ele><time>2026-05-01T09:33:50.998Z</time></trkpt><trkpt lat="43.715114433041485" lon="10.919053656288538"><ele>23.0</ele><time>2026-05-01T09:33:51.998Z</time></trkpt><trkpt lat="43.71510260745535" lon="10.918797139932765"><ele>23.0</ele><time>2026-05-01T09:33:52.998Z</time></trkpt><trkpt lat="43.71506589383597" lon="10.918534713017273"><ele>23.0</ele><time>2026-05-01T09:33:53.998Z</time></trkpt><trkpt lat="43.7150061997599" lon="10.91827480792828"><ele>23.0</ele><time>2026-05-01T09:33:54.998Z</time></trkpt><trkpt lat="43.71491339451738" lon="10.918020886140175"><ele>23.0</ele><time>2026-05-01T09:33:55.998Z</time></trkpt><trkpt lat="43.71478824097582" lon="10.917782990253173"><ele>23.0</ele><time>2026-05-01T09:33:56.998Z</time></trkpt><trkpt lat="43.714634670275515" lon="10.917557622884095"><ele>23.0</ele><time>2026-05-01T09:33:57.998Z</time></trkpt><trkpt lat="43.714454907540194" lon="10.917346065066182"><ele>23.0</ele><time>2026-05-01T09:33:58.998Z</time></trkpt><trkpt lat="43.71425347199403" lon="10.917131678023779"><ele>23.0</ele><time>2026-05-01T09:33:59.998Z</time></trkpt><trkpt lat="43.71404397279494" lon="10.916914827698944"><ele>23.0</ele><time>2026-05-01T09:34:00.998Z</time></trkpt><trkpt lat="43.713837726870636" lon="10.916706527945523"><ele>23.0</ele><time>2026-05-01T09:34:01.998Z</time></trkpt><trkpt lat="43.71364632833869" lon="10.916518600042007"><ele>23.0</ele><time>2026-05-01T09:34:02.998Z</time></trkpt><trkpt lat="43.71346692631776" lon="10.916342562738349"><ele>23.0</ele><time>2026-05-01T09:34:03.998Z</time></trkpt><trkpt lat="43.71329991539407" lon="10.916176482515835"><ele>23.0</ele><time>2026-05-01T09:34:04.998Z</time></trkpt><trkpt lat="43.71314402779553" lon="10.916032249275917"><ele>23.0</ele><time>2026-05-01T09:34:05.998Z</time></trkpt><trkpt lat="43.71299424385363" lon="10.915914472016498"><ele>22.75</ele><time>2026-05-01T09:34:06.998Z</time></trkpt><trkpt lat="43.71285571167623" lon="10.91582852642336"><ele>22.5</ele><time>2026-05-01T09:34:07.998Z</time></trkpt><trkpt lat="43.7127268850526" lon="10.915770815528353"><ele>22.25</ele><time>2026-05-01T09:34:08.998Z</time></trkpt><trkpt lat="43.71259971046214" lon="10.915729016282654"><ele>22.0</ele><time>2026-05-01T09:34:09.998Z</time></trkpt><trkpt lat="43.71247448753123" lon="10.915704999396752"><ele>22.0</ele><time>2026-05-01T09:34:10.998Z</time></trkpt><trkpt lat="43.71234990874432" lon="10.915698286333972"><ele>22.0</ele><time>2026-05-01T09:34:11.998Z</time></trkpt><trkpt lat="43.71220977776197" lon="10.915684852342542"><ele>22.0</ele><time>2026-05-01T09:34:12.998Z</time></trkpt><trkpt lat="43.71206501028379" lon="10.915735017843188"><ele>22.0</ele><time>2026-05-01T09:34:13.998Z</time></trkpt><trkpt lat="43.71190255923899" lon="10.915770529831772"><ele>22.0</ele><time>2026-05-01T09:34:14.998Z</time></trkpt><trkpt lat="43.71172119835957" lon="10.915853218287166"><ele>22.0</ele><time>2026-05-01T09:34:15.998Z</time></trkpt><trkpt lat="43.711519127557736" lon="10.915955270610947"><ele>22.0</ele><time>2026-05-01T09:34:16.998Z</time></trkpt><trkpt lat="43.71132237703017" lon="10.916066503338481"><ele>22.0</ele><time>2026-05-01T09:34:17.998Z</time></trkpt><trkpt lat="43.71112929548269" lon="10.91613593262578"><ele>22.0</ele><time>2026-05-01T09:34:18.998Z</time></trkpt><trkpt lat="43.71093946284565" lon="10.91618070352638"><ele>22.0</ele><time>2026-05-01T09:34:19.998Z</time></trkpt><trkpt lat="43.710752887801405" lon="10.916175207842139"><ele>22.0</ele><time>2026-05-01T09:34:20.998Z</time></trkpt><trkpt lat="43.71056365268527" lon="10.91617195290819"><ele>22.0</ele><time>2026-05-01T09:34:21.998Z</time></trkpt><trkpt lat="43.71037708475866" lon="10.916117072093467"><ele>22.0</ele><time>2026-05-01T09:34:22.998Z</time></trkpt><trkpt lat="43.71019740813022" lon="10.916040940229433"><ele>22.0</ele><time>2026-05-01T09:34:23.998Z</time></trkpt><trkpt lat="43.71002590173081" lon="10.91593975545418"><ele>22.0</ele><time>2026-05-01T09:34:24.998Z</time></trkpt><trkpt lat="43.709866991454106" lon="10.915821211460221"><ele>22.0</ele><time>2026-05-01T09:34:25.998Z</time></trkpt><trkpt lat="43.70973278694778" lon="10.915669211177466"><ele>22.333333333333332</ele><time>2026-05-01T09:34:26.998Z</time></trkpt><trkpt lat="43.70959295224666" lon="10.915528166271496"><ele>22.666666666666668</ele><time>2026-05-01T09:34:27.998Z</time></trkpt><trkpt lat="43.70944320197156" lon="10.915377872026703"><ele>23.0</ele><time>2026-05-01T09:34:28.998Z</time></trkpt><trkpt lat="43.709271167384045" lon="10.91520507277352"><ele>24.0</ele><time>2026-05-01T09:34:29.998Z</time></trkpt><trkpt lat="43.709091372309096" lon="10.915023134561256"><ele>25.0</ele><time>2026-05-01T09:34:30.998Z</time></trkpt><trkpt lat="43.708914517340965" lon="10.914857518967102"><ele>26.0</ele><time>2026-05-01T09:34:31.998Z</time></trkpt><trkpt lat="43.708747698289756" lon="10.914679723539365"><ele>26.0</ele><time>2026-05-01T09:34:32.998Z</time></trkpt><trkpt lat="43.708584141703405" lon="10.914513261663622"><ele>26.0</ele><time>2026-05-01T09:34:33.998Z</time></trkpt><trkpt lat="43.708433532806524" lon="10.91436263053283"><ele>26.0</ele><time>2026-05-01T09:34:35Z</time></trkpt><trkpt lat="43.70828979464803" lon="10.914221962814036"><ele>26.0</ele><time>2026-05-01T09:34:36Z</time></trkpt><trkpt lat="43.7081590739533" lon="10.914096520180301"><ele>26.0</ele><time>2026-05-01T09:34:37Z</time></trkpt><trkpt lat="43.70804375526392" lon="10.913982347577724"><ele>26.0</ele><time>2026-05-01T09:34:38Z</time></trkpt><trkpt lat="43.70793958730837" lon="10.913876084815177"><ele>26.0</ele><time>2026-05-01T09:34:39Z</time></trkpt><trkpt lat="43.70784068454725" lon="10.913770339035471"><ele>26.0</ele><time>2026-05-01T09:34:40Z</time></trkpt><trkpt lat="43.70774517571682" lon="10.913667920895051"><ele>26.0</ele><time>2026-05-01T09:34:41Z</time></trkpt><trkpt lat="43.70764829401084" lon="10.913570950161091"><ele>26.0</ele><time>2026-05-01T09:34:42Z</time></trkpt><trkpt lat="43.70755014667208" lon="10.913478600124888"><ele>26.0</ele><time>2026-05-01T09:34:43Z</time></trkpt><trkpt lat="43.707459405341815" lon="10.913391725684413"><ele>25.6</ele><time>2026-05-01T09:34:44Z</time></trkpt><trkpt lat="43.70737522760704" lon="10.913306481696084"><ele>25.200000000000003</ele><time>2026-05-01T09:34:45Z</time></trkpt><trkpt lat="43.707293303431776" lon="10.913225239420365"><ele>24.799999999999997</ele><time>2026-05-01T09:34:46Z</time></trkpt><trkpt lat="43.7072167151773" lon="10.913140484089928"><ele>24.4</ele><time>2026-05-01T09:34:47Z</time></trkpt><trkpt lat="43.707155290915246" lon="10.913046574068787"><ele>24.0</ele><time>2026-05-01T09:34:48Z</time></trkpt><trkpt lat="43.707112740110325" lon="10.912938415767423"><ele>24.0</ele><time>2026-05-01T09:34:49Z</time></trkpt><trkpt lat="43.707094983953" lon="10.912820111511692"><ele>24.0</ele><time>2026-05-01T09:34:50Z</time></trkpt><trkpt lat="43.70710596767864" lon="10.912709182245663"><ele>24.0</ele><time>2026-05-01T09:34:51Z</time></trkpt><trkpt lat="43.707104997218856" lon="10.91261408539832"><ele>24.0</ele><time>2026-05-01T09:34:52Z</time></trkpt><trkpt lat="43.707074397941334" lon="10.912523606149266"><ele>24.0</ele><time>2026-05-01T09:34:53Z</time></trkpt><trkpt lat="43.70702694670109" lon="10.912439546392113"><ele>24.0</ele><time>2026-05-01T09:34:54Z</time></trkpt><trkpt lat="43.706968252691865" lon="10.91236964655133"><ele>24.0</ele><time>2026-05-01T09:34:55Z</time></trkpt><trkpt lat="43.70689905814506" lon="10.91231624879432"><ele>24.0</ele><time>2026-05-01T09:34:56Z</time></trkpt><trkpt lat="43.7068228929784" lon="10.912286089926265"><ele>24.0</ele><time>2026-05-01T09:34:57Z</time></trkpt><trkpt lat="43.7067387932042" lon="10.912287067934793"><ele>24.0</ele><time>2026-05-01T09:34:58Z</time></trkpt><trkpt lat="43.706651951185826" lon="10.912315492466952"><ele>24.0</ele><time>2026-05-01T09:34:59Z</time></trkpt><trkpt lat="43.70656013509779" lon="10.912329141497102"><ele>24.0</ele><time>2026-05-01T09:35:00Z</time></trkpt><trkpt lat="43.70645728177388" lon="10.912296344909342"><ele>24.0</ele><time>2026-05-01T09:35:01Z</time></trkpt><trkpt lat="43.70634547624092" lon="10.91223320432717"><ele>24.0</ele><time>2026-05-01T09:35:02Z</time></trkpt><trkpt lat="43.70622461893148" lon="10.912138028261332"><ele>24.0</ele><time>2026-05-01T09:35:03Z</time></trkpt><trkpt lat="43.70610828879623" lon="10.91203015390437"><ele>24.0</ele><time>2026-05-01T09:35:04Z</time></trkpt><trkpt lat="43.705983250094114" lon="10.911911510596862"><ele>24.0</ele><time>2026-05-01T09:35:05Z</time></trkpt><trkpt lat="43.70585007370702" lon="10.911782428051952"><ele>24.0</ele><time>2026-05-01T09:35:06Z</time></trkpt><trkpt lat="43.705706824939924" lon="10.911644065227824"><ele>24.0</ele><time>2026-05-01T09:35:07Z</time></trkpt><trkpt lat="43.70554038622234" lon="10.911498727512887"><ele>24.0</ele><time>2026-05-01T09:35:08Z</time></trkpt><trkpt lat="43.70536470126115" lon="10.911335439677691"><ele>24.0</ele><time>2026-05-01T09:35:09Z</time></trkpt><trkpt lat="43.70519695052315" lon="10.911155147024571"><ele>24.0</ele><time>2026-05-01T09:35:09.999Z</time></trkpt><trkpt lat="43.70503801142848" lon="10.91097141647177"><ele>24.666666666666664</ele><time>2026-05-01T09:35:10.999Z</time></trkpt><trkpt lat="43.70487354745282" lon="10.910790789274172"><ele>25.333333333333332</ele><time>2026-05-01T09:35:11.999Z</time></trkpt><trkpt lat="43.7047077536984" lon="10.910621718712916"><ele>26.0</ele><time>2026-05-01T09:35:12.999Z</time></trkpt><trkpt lat="43.70454173100872" lon="10.91046071611112"><ele>25.666666666666664</ele><time>2026-05-01T09:35:13.999Z</time></trkpt><trkpt lat="43.70438727307785" lon="10.910308006336745"><ele>25.333333333333336</ele><time>2026-05-01T09:35:14.999Z</time></trkpt><trkpt lat="43.70424092794104" lon="10.910161495102201"><ele>25.0</ele><time>2026-05-01T09:35:15.999Z</time></trkpt><trkpt lat="43.704092749664376" lon="10.910015264372547"><ele>25.0</ele><time>2026-05-01T09:35:16.999Z</time></trkpt><trkpt lat="43.7039475756419" lon="10.909871682609785"><ele>25.0</ele><time>2026-05-01T09:35:17.999Z</time></trkpt><trkpt lat="43.70381462589402" lon="10.90974093581883"><ele>25.0</ele><time>2026-05-01T09:35:18.999Z</time></trkpt><trkpt lat="43.70368766268272" lon="10.909611859537872"><ele>25.0</ele><time>2026-05-01T09:35:19.999Z</time></trkpt><trkpt lat="43.70355958461283" lon="10.909476731029198"><ele>25.0</ele><time>2026-05-01T09:35:20.999Z</time></trkpt><trkpt lat="43.70342857077052" lon="10.909340918355774"><ele>25.0</ele><time>2026-05-01T09:35:21.999Z</time></trkpt><trkpt lat="43.70329516861398" lon="10.909208997833922"><ele>24.666666666666668</ele><time>2026-05-01T09:35:22.999Z</time></trkpt><trkpt lat="43.70316300471528" lon="10.909077493231559"><ele>24.333333333333336</ele><time>2026-05-01T09:35:23.999Z</time></trkpt><trkpt lat="43.70303274280522" lon="10.908942757501809"><ele>24.0</ele><time>2026-05-01T09:35:24.999Z</time></trkpt><trkpt lat="43.70290099119806" lon="10.90881260036786"><ele>24.0</ele><time>2026-05-01T09:35:25.999Z</time></trkpt><trkpt lat="43.70276462902548" lon="10.908688930824908"><ele>24.0</ele><time>2026-05-01T09:35:26.999Z</time></trkpt><trkpt lat="43.70261843789185" lon="10.908566272028619"><ele>24.0</ele><time>2026-05-01T09:35:27.999Z</time></trkpt><trkpt lat="43.702470117003585" lon="10.908414549287052"><ele>24.666666666666664</ele><time>2026-05-01T09:35:28.999Z</time></trkpt><trkpt lat="43.70229866672335" lon="10.908263891724605"><ele>25.333333333333332</ele><time>2026-05-01T09:35:29.999Z</time></trkpt><trkpt lat="43.70212017342186" lon="10.908107374102784"><ele>26.0</ele><time>2026-05-01T09:35:30.999Z</time></trkpt><trkpt lat="43.701922709565906" lon="10.907987850911468"><ele>26.5</ele><time>2026-05-01T09:35:31.999Z</time></trkpt><trkpt lat="43.70173855323011" lon="10.90780352549866"><ele>27.0</ele><time>2026-05-01T09:35:32.999Z</time></trkpt><trkpt lat="43.70155243183825" lon="10.907635616549712"><ele>27.0</ele><time>2026-05-01T09:35:33.999Z</time></trkpt><trkpt lat="43.70136382842264" lon="10.90748074325784"><ele>27.0</ele><time>2026-05-01T09:35:34.999Z</time></trkpt><trkpt lat="43.701182699540404" lon="10.907293483475126"><ele>27.0</ele><time>2026-05-01T09:35:35.999Z</time></trkpt><trkpt lat="43.70098720977504" lon="10.907123205314596"><ele>27.5</ele><time>2026-05-01T09:35:36.999Z</time></trkpt><trkpt lat="43.70078371125187" lon="10.906945951281"><ele>28.0</ele><time>2026-05-01T09:35:37.999Z</time></trkpt><trkpt lat="43.70058338418239" lon="10.90677145972023"><ele>28.0</ele><time>2026-05-01T09:35:38.999Z</time></trkpt><trkpt lat="43.70037720127621" lon="10.906618410794916"><ele>28.0</ele><time>2026-05-01T09:35:39.999Z</time></trkpt><trkpt lat="43.70018871024183" lon="10.90643859684931"><ele>28.0</ele><time>2026-05-01T09:35:40.999Z</time></trkpt><trkpt lat="43.699995669618545" lon="10.90627360835078"><ele>28.0</ele><time>2026-05-01T09:35:41.999Z</time></trkpt><trkpt lat="43.699799672156985" lon="10.906112176573808"><ele>28.0</ele><time>2026-05-01T09:35:42.999Z</time></trkpt><trkpt lat="43.69960601939385" lon="10.905946875584632"><ele>28.0</ele><time>2026-05-01T09:35:43.999Z</time></trkpt><trkpt lat="43.69941350840884" lon="10.905776820873442"><ele>26.5</ele><time>2026-05-01T09:35:44.999Z</time></trkpt><trkpt lat="43.69922182793055" lon="10.905609377822861"><ele>25.0</ele><time>2026-05-01T09:35:45.999Z</time></trkpt><trkpt lat="43.69903052900085" lon="10.905443650305397"><ele>25.0</ele><time>2026-05-01T09:35:46.999Z</time></trkpt><trkpt lat="43.69884038222868" lon="10.905276831579117"><ele>25.0</ele><time>2026-05-01T09:35:47.999Z</time></trkpt><trkpt lat="43.69864643243125" lon="10.905111548915277"><ele>25.666666666666668</ele><time>2026-05-01T09:35:48.999Z</time></trkpt><trkpt lat="43.6984546192787" lon="10.90495052373348"><ele>26.333333333333336</ele><time>2026-05-01T09:35:49.999Z</time></trkpt><trkpt lat="43.69826379182177" lon="10.904786842613596"><ele>27.0</ele><time>2026-05-01T09:35:50.999Z</time></trkpt><trkpt lat="43.69807331989767" lon="10.904622076416636"><ele>27.0</ele><time>2026-05-01T09:35:51.999Z</time></trkpt><trkpt lat="43.69787748949873" lon="10.904457976926112"><ele>27.0</ele><time>2026-05-01T09:35:52.999Z</time></trkpt><trkpt lat="43.69768407704645" lon="10.904293418838442"><ele>27.0</ele><time>2026-05-01T09:35:53.999Z</time></trkpt><trkpt lat="43.697491872531685" lon="10.904131048290783"><ele>27.0</ele><time>2026-05-01T09:35:54.999Z</time></trkpt><trkpt lat="43.69730232583922" lon="10.90396838968562"><ele>27.0</ele><time>2026-05-01T09:35:55.999Z</time></trkpt><trkpt lat="43.69711857481994" lon="10.903805758685023"><ele>27.0</ele><time>2026-05-01T09:35:56.999Z</time></trkpt><trkpt lat="43.69693877265773" lon="10.90364575001572"><ele>27.0</ele><time>2026-05-01T09:35:57.999Z</time></trkpt><trkpt lat="43.69675942485437" lon="10.903487685030065"><ele>27.0</ele><time>2026-05-01T09:35:58.999Z</time></trkpt><trkpt lat="43.69658033953035" lon="10.9033347234468"><ele>27.666666666666664</ele><time>2026-05-01T09:35:59.999Z</time></trkpt><trkpt lat="43.69639985199375" lon="10.903187234180328"><ele>28.333333333333332</ele><time>2026-05-01T09:36:00.998Z</time></trkpt><trkpt lat="43.69622243599914" lon="10.90303972909101"><ele>29.0</ele><time>2026-05-01T09:36:01.998Z</time></trkpt><trkpt lat="43.6960482393619" lon="10.90288811396353"><ele>29.0</ele><time>2026-05-01T09:36:02.998Z</time></trkpt><trkpt lat="43.69587401467603" lon="10.902738013368413"><ele>29.0</ele><time>2026-05-01T09:36:03.998Z</time></trkpt><trkpt lat="43.69569923644383" lon="10.90258787360182"><ele>29.0</ele><time>2026-05-01T09:36:04.998Z</time></trkpt><trkpt lat="43.69552585357965" lon="10.902437093841256"><ele>29.0</ele><time>2026-05-01T09:36:05.998Z</time></trkpt><trkpt lat="43.695354684649836" lon="10.90228449041424"><ele>29.0</ele><time>2026-05-01T09:36:06.998Z</time></trkpt><trkpt lat="43.695181751803" lon="10.902131609564837"><ele>29.0</ele><time>2026-05-01T09:36:07.998Z</time></trkpt><trkpt lat="43.69500930256247" lon="10.90198059436044"><ele>29.333333333333332</ele><time>2026-05-01T09:36:08.998Z</time></trkpt><trkpt lat="43.694838646821516" lon="10.901828735696231"><ele>29.666666666666664</ele><time>2026-05-01T09:36:09.998Z</time></trkpt><trkpt lat="43.694667788599425" lon="10.901681358772738"><ele>30.0</ele><time>2026-05-01T09:36:10.998Z</time></trkpt><trkpt lat="43.69449611790339" lon="10.901534350891822"><ele>30.666666666666664</ele><time>2026-05-01T09:36:11.998Z</time></trkpt><trkpt lat="43.69433567886375" lon="10.90139703499943"><ele>31.333333333333332</ele><time>2026-05-01T09:36:12.998Z</time></trkpt><trkpt lat="43.694181938737124" lon="10.901263053205613"><ele>32.0</ele><time>2026-05-01T09:36:13.998Z</time></trkpt><trkpt lat="43.69403810199422" lon="10.901135051317901"><ele>32.0</ele><time>2026-05-01T09:36:14.998Z</time></trkpt><trkpt lat="43.693903747887965" lon="10.901015766443855"><ele>32.0</ele><time>2026-05-01T09:36:15.998Z</time></trkpt><trkpt lat="43.69377884751027" lon="10.90090937259546"><ele>32.0</ele><time>2026-05-01T09:36:16.998Z</time></trkpt><trkpt lat="43.69366458805177" lon="10.900812510575713"><ele>32.0</ele><time>2026-05-01T09:36:17.998Z</time></trkpt><trkpt lat="43.693556846034795" lon="10.900721421073847"><ele>31.5</ele><time>2026-05-01T09:36:18.998Z</time></trkpt><trkpt lat="43.693456909571765" lon="10.900634918797838"><ele>31.0</ele><time>2026-05-01T09:36:19.998Z</time></trkpt><trkpt lat="43.693363633754906" lon="10.900550504493662"><ele>30.5</ele><time>2026-05-01T09:36:20.998Z</time></trkpt><trkpt lat="43.6932644793824" lon="10.900466395179285"><ele>30.0</ele><time>2026-05-01T09:36:21.998Z</time></trkpt><trkpt lat="43.69316124676388" lon="10.90038335069021"><ele>30.0</ele><time>2026-05-01T09:36:22.998Z</time></trkpt><trkpt lat="43.69305960706373" lon="10.900299680895337"><ele>30.0</ele><time>2026-05-01T09:36:23.998Z</time></trkpt><trkpt lat="43.692958029436" lon="10.900212935579434"><ele>30.0</ele><time>2026-05-01T09:36:24.998Z</time></trkpt><trkpt lat="43.69285853269297" lon="10.900122424602117"><ele>30.0</ele><time>2026-05-01T09:36:25.998Z</time></trkpt><trkpt lat="43.692757954287046" lon="10.900030676661592"><ele>30.4</ele><time>2026-05-01T09:36:26.998Z</time></trkpt><trkpt lat="43.69266459419931" lon="10.899950226008501"><ele>30.8</ele><time>2026-05-01T09:36:27.998Z</time></trkpt><trkpt lat="43.69258097670594" lon="10.899876147548497"><ele>31.200000000000003</ele><time>2026-05-01T09:36:28.998Z</time></trkpt><trkpt lat="43.69250383415188" lon="10.899803846212002"><ele>31.6</ele><time>2026-05-01T09:36:29.998Z</time></trkpt><trkpt lat="43.692435609329735" lon="10.899740069134914"><ele>32.0</ele><time>2026-05-01T09:36:30.998Z</time></trkpt><trkpt lat="43.69237722813094" lon="10.899679789047587"><ele>31.999999999999996</ele><time>2026-05-01T09:36:31.998Z</time></trkpt><trkpt lat="43.69231888130008" lon="10.899622092434619"><ele>32.0</ele><time>2026-05-01T09:36:32.998Z</time></trkpt><trkpt lat="43.69225634709786" lon="10.899561130804708"><ele>32.0</ele><time>2026-05-01T09:36:33.998Z</time></trkpt><trkpt lat="43.692190550845154" lon="10.899500454288251"><ele>32.0</ele><time>2026-05-01T09:36:34.998Z</time></trkpt><trkpt lat="43.69212375293344" lon="10.899441729028878"><ele>31.999999999999996</ele><time>2026-05-01T09:36:35.998Z</time></trkpt><trkpt lat="43.692054733085165" lon="10.899378051125472"><ele>32.0</ele><time>2026-05-01T09:36:36.998Z</time></trkpt><trkpt lat="43.691980869631784" lon="10.899306489815139"><ele>31.833333333333332</ele><time>2026-05-01T09:36:37.998Z</time></trkpt><trkpt lat="43.6919085198493" lon="10.89923251020514"><ele>31.666666666666664</ele><time>2026-05-01T09:36:38.998Z</time></trkpt><trkpt lat="43.69183963455409" lon="10.899159351302124"><ele>31.5</ele><time>2026-05-01T09:36:39.998Z</time></trkpt><trkpt lat="43.69177222192307" lon="10.899083094363146"><ele>31.333333333333336</ele><time>2026-05-01T09:36:41Z</time></trkpt><trkpt lat="43.691705690682504" lon="10.899015616227512"><ele>31.166666666666668</ele><time>2026-05-01T09:36:42Z</time></trkpt><trkpt lat="43.69164034747594" lon="10.898950956367264"><ele>31.0</ele><time>2026-05-01T09:36:43Z</time></trkpt><trkpt lat="43.69157472962131" lon="10.898883417416066"><ele>31.000000000000004</ele><time>2026-05-01T09:36:44Z</time></trkpt><trkpt lat="43.691517163849426" lon="10.89881951117158"><ele>31.0</ele><time>2026-05-01T09:36:45Z</time></trkpt><trkpt lat="43.691465638092275" lon="10.89876152788531"><ele>31.0</ele><time>2026-05-01T09:36:46Z</time></trkpt><trkpt lat="43.6913817099537" lon="10.898656196555732"><ele>31.0</ele><time>2026-05-01T09:36:48Z</time></trkpt><trkpt lat="43.69130233389862" lon="10.898551490703442"><ele>31.000000000000004</ele><time>2026-05-01T09:36:50Z</time></trkpt><trkpt lat="43.69125837663692" lon="10.898487347795085"><ele>31.0</ele><time>2026-05-01T09:36:51Z</time></trkpt><trkpt lat="43.691212171022514" lon="10.898406567527319"><ele>30.8</ele><time>2026-05-01T09:36:52Z</time></trkpt><trkpt lat="43.691166949113025" lon="10.898314121589355"><ele>30.6</ele><time>2026-05-01T09:36:53Z</time></trkpt><trkpt lat="43.691123868078975" lon="10.89820207751812"><ele>30.4</ele><time>2026-05-01T09:36:54Z</time></trkpt><trkpt lat="43.69108672707365" lon="10.898078168878387"><ele>30.2</ele><time>2026-05-01T09:36:55Z</time></trkpt><trkpt lat="43.691057219364474" lon="10.897948143323758"><ele>30.0</ele><time>2026-05-01T09:36:56Z</time></trkpt><trkpt lat="43.69103781168001" lon="10.897806588766285"><ele>30.0</ele><time>2026-05-01T09:36:57Z</time></trkpt><trkpt lat="43.69102783441273" lon="10.89765533659706"><ele>30.0</ele><time>2026-05-01T09:36:58Z</time></trkpt><trkpt lat="43.69102573931204" lon="10.897492557497502"><ele>30.0</ele><time>2026-05-01T09:36:59Z</time></trkpt><trkpt lat="43.69103599261904" lon="10.89731983146122"><ele>30.0</ele><time>2026-05-01T09:37:00Z</time></trkpt><trkpt lat="43.69106639969145" lon="10.897140397959868"><ele>30.0</ele><time>2026-05-01T09:37:01Z</time></trkpt><trkpt lat="43.69111958978775" lon="10.896952784732507"><ele>30.0</ele><time>2026-05-01T09:37:02Z</time></trkpt><trkpt lat="43.691185661241285" lon="10.896788352508251"><ele>30.0</ele><time>2026-05-01T09:37:03Z</time></trkpt><trkpt lat="43.69125578369365" lon="10.896632426725983"><ele>30.0</ele><time>2026-05-01T09:37:04Z</time></trkpt><trkpt lat="43.6913192653747" lon="10.896497760724666"><ele>30.0</ele><time>2026-05-01T09:37:05Z</time></trkpt><trkpt lat="43.691381513348254" lon="10.896358482167699"><ele>30.0</ele><time>2026-05-01T09:37:06Z</time></trkpt><trkpt lat="43.691447706461254" lon="10.896190733137665"><ele>30.0</ele><time>2026-05-01T09:37:07Z</time></trkpt><trkpt lat="43.69152527136026" lon="10.895999248785415"><ele>30.0</ele><time>2026-05-01T09:37:08Z</time></trkpt><trkpt lat="43.69160908409642" lon="10.895797195951952"><ele>29.333333333333336</ele><time>2026-05-01T09:37:09Z</time></trkpt><trkpt lat="43.69169915301803" lon="10.895582631432056"><ele>28.666666666666668</ele><time>2026-05-01T09:37:10Z</time></trkpt><trkpt lat="43.69178800044621" lon="10.895372763980593"><ele>28.0</ele><time>2026-05-01T09:37:11Z</time></trkpt><trkpt lat="43.69187691235534" lon="10.895163132951854"><ele>27.333333333333336</ele><time>2026-05-01T09:37:12Z</time></trkpt><trkpt lat="43.69196291116024" lon="10.89495227862727"><ele>26.666666666666664</ele><time>2026-05-01T09:37:13Z</time></trkpt><trkpt lat="43.692039399189156" lon="10.894747379315868"><ele>26.0</ele><time>2026-05-01T09:37:14Z</time></trkpt><trkpt lat="43.69209712815866" lon="10.894512120758307"><ele>26.0</ele><time>2026-05-01T09:37:15Z</time></trkpt><trkpt lat="43.69212972548653" lon="10.894269722087834"><ele>26.0</ele><time>2026-05-01T09:37:16Z</time></trkpt><trkpt lat="43.69213292013585" lon="10.894015033688905"><ele>26.0</ele><time>2026-05-01T09:37:17Z</time></trkpt><trkpt lat="43.692112601713916" lon="10.893750345921758"><ele>25.666666666666664</ele><time>2026-05-01T09:37:18Z</time></trkpt><trkpt lat="43.69206079859596" lon="10.893482742188976"><ele>25.333333333333336</ele><time>2026-05-01T09:37:19Z</time></trkpt><trkpt lat="43.691995145077556" lon="10.893231745296552"><ele>25.0</ele><time>2026-05-01T09:37:20Z</time></trkpt><trkpt lat="43.69191705506918" lon="10.892984323043006"><ele>26.666666666666668</ele><time>2026-05-01T09:37:21Z</time></trkpt><trkpt lat="43.6918451697322" lon="10.892727176560355"><ele>28.333333333333336</ele><time>2026-05-01T09:37:22Z</time></trkpt><trkpt lat="43.69177154965124" lon="10.892468121705564"><ele>30.0</ele><time>2026-05-01T09:37:22.999Z</time></trkpt><trkpt lat="43.69170986941008" lon="10.892179207382977"><ele>30.0</ele><time>2026-05-01T09:37:23.999Z</time></trkpt><trkpt lat="43.69163208394014" lon="10.891881908598759"><ele>30.0</ele><time>2026-05-01T09:37:24.999Z</time></trkpt><trkpt lat="43.69155018513503" lon="10.891568632183125"><ele>30.0</ele><time>2026-05-01T09:37:25.999Z</time></trkpt><trkpt lat="43.69146172505007" lon="10.891230258661315"><ele>30.0</ele><time>2026-05-01T09:37:26.999Z</time></trkpt><trkpt lat="43.69136757259984" lon="10.890870110885286"><ele>30.0</ele><time>2026-05-01T09:37:27.999Z</time></trkpt><trkpt lat="43.69127409172719" lon="10.89051348399866"><ele>30.0</ele><time>2026-05-01T09:37:28.999Z</time></trkpt><trkpt lat="43.69117995748393" lon="10.890167368696078"><ele>31.0</ele><time>2026-05-01T09:37:29.999Z</time></trkpt><trkpt lat="43.691095039391605" lon="10.889825246030274"><ele>32.0</ele><time>2026-05-01T09:37:30.999Z</time></trkpt><trkpt lat="43.69100509181298" lon="10.889498077586815"><ele>31.5</ele><time>2026-05-01T09:37:31.999Z</time></trkpt><trkpt lat="43.690919647009736" lon="10.88918202130211"><ele>31.0</ele><time>2026-05-01T09:37:32.999Z</time></trkpt><trkpt lat="43.69083907686305" lon="10.888873409798219"><ele>31.0</ele><time>2026-05-01T09:37:33.999Z</time></trkpt><trkpt lat="43.690760280754944" lon="10.888570424415546"><ele>31.0</ele><time>2026-05-01T09:37:34.999Z</time></trkpt><trkpt lat="43.690680651481685" lon="10.888273280713483"><ele>31.0</ele><time>2026-05-01T09:37:35.999Z</time></trkpt><trkpt lat="43.69060976832393" lon="10.887983150714007"><ele>31.0</ele><time>2026-05-01T09:37:36.999Z</time></trkpt><trkpt lat="43.69057021220944" lon="10.887699386503016"><ele>31.0</ele><time>2026-05-01T09:37:37.999Z</time></trkpt><trkpt lat="43.69056120921099" lon="10.887429063595167"><ele>31.0</ele><time>2026-05-01T09:37:38.999Z</time></trkpt><trkpt lat="43.6905710613638" lon="10.887158329512"><ele>31.0</ele><time>2026-05-01T09:37:39.999Z</time></trkpt><trkpt lat="43.69060309818494" lon="10.886896992948536"><ele>31.0</ele><time>2026-05-01T09:37:40.999Z</time></trkpt><trkpt lat="43.69064527011059" lon="10.886663031219394"><ele>31.0</ele><time>2026-05-01T09:37:41.999Z</time></trkpt><trkpt lat="43.690684448009414" lon="10.886447644896068"><ele>31.0</ele><time>2026-05-01T09:37:42.999Z</time></trkpt><trkpt lat="43.69071697609863" lon="10.886242107097763"><ele>31.0</ele><time>2026-05-01T09:37:43.999Z</time></trkpt><trkpt lat="43.69075458300531" lon="10.886050544731114"><ele>31.25</ele><time>2026-05-01T09:37:44.999Z</time></trkpt><trkpt lat="43.69081096353161" lon="10.885867671704919"><ele>31.5</ele><time>2026-05-01T09:37:45.999Z</time></trkpt><trkpt lat="43.69088949899396" lon="10.88569354631641"><ele>31.75</ele><time>2026-05-01T09:37:46.999Z</time></trkpt><trkpt lat="43.69098212448981" lon="10.885530453907421"><ele>32.0</ele><time>2026-05-01T09:37:47.999Z</time></trkpt><trkpt lat="43.691073243891246" lon="10.885375651220755"><ele>31.25</ele><time>2026-05-01T09:37:48.999Z</time></trkpt><trkpt lat="43.69115714761117" lon="10.885209351882681"><ele>30.5</ele><time>2026-05-01T09:37:49.999Z</time></trkpt><trkpt lat="43.691232281115305" lon="10.88503421115128"><ele>29.75</ele><time>2026-05-01T09:37:50.999Z</time></trkpt><trkpt lat="43.69129192316296" lon="10.88485226555622"><ele>29.0</ele><time>2026-05-01T09:37:51.999Z</time></trkpt><trkpt lat="43.6913321098623" lon="10.884655421691285"><ele>29.0</ele><time>2026-05-01T09:37:52.999Z</time></trkpt><trkpt lat="43.691354479539854" lon="10.884455139189022"><ele>29.0</ele><time>2026-05-01T09:37:53.999Z</time></trkpt><trkpt lat="43.691372896055114" lon="10.884252757060091"><ele>29.0</ele><time>2026-05-01T09:37:54.999Z</time></trkpt><trkpt lat="43.69139258713435" lon="10.88404685266072"><ele>29.0</ele><time>2026-05-01T09:37:55.999Z</time></trkpt><trkpt lat="43.69141381729301" lon="10.8838379532825"><ele>29.0</ele><time>2026-05-01T09:37:56.999Z</time></trkpt><trkpt lat="43.69143820208713" lon="10.883626990964174"><ele>29.0</ele><time>2026-05-01T09:37:57.999Z</time></trkpt><trkpt lat="43.69146465812731" lon="10.883409859643109"><ele>29.0</ele><time>2026-05-01T09:37:58.999Z</time></trkpt><trkpt lat="43.69148849700233" lon="10.883188126873554"><ele>29.666666666666664</ele><time>2026-05-01T09:37:59.999Z</time></trkpt><trkpt lat="43.69151101640614" lon="10.882961336417631"><ele>30.333333333333336</ele><time>2026-05-01T09:38:00.999Z</time></trkpt><trkpt lat="43.691534807010605" lon="10.882732729012911"><ele>31.0</ele><time>2026-05-01T09:38:01.999Z</time></trkpt><trkpt lat="43.691559930200285" lon="10.882509352292132"><ele>31.333333333333336</ele><time>2026-05-01T09:38:02.999Z</time></trkpt><trkpt lat="43.69158782608818" lon="10.882295448610252"><ele>31.666666666666664</ele><time>2026-05-01T09:38:03.999Z</time></trkpt><trkpt lat="43.69161457711789" lon="10.882082790614088"><ele>32.0</ele><time>2026-05-01T09:38:04.999Z</time></trkpt><trkpt lat="43.69164095748882" lon="10.881867624300321"><ele>31.0</ele><time>2026-05-01T09:38:05.999Z</time></trkpt><trkpt lat="43.69166671588998" lon="10.881653269741124"><ele>30.0</ele><time>2026-05-01T09:38:06.999Z</time></trkpt><trkpt lat="43.69169293934761" lon="10.881446719465853"><ele>29.0</ele><time>2026-05-01T09:38:07.999Z</time></trkpt><trkpt lat="43.691718937925366" lon="10.88124296672345"><ele>29.0</ele><time>2026-05-01T09:38:08.999Z</time></trkpt><trkpt lat="43.69174316828986" lon="10.881042851866981"><ele>29.0</ele><time>2026-05-01T09:38:09.999Z</time></trkpt><trkpt lat="43.691767355637275" lon="10.88084794803605"><ele>29.0</ele><time>2026-05-01T09:38:10.999Z</time></trkpt><trkpt lat="43.691789480595865" lon="10.880653894074324"><ele>29.0</ele><time>2026-05-01T09:38:11.999Z</time></trkpt><trkpt lat="43.69181350699147" lon="10.880455368049649"><ele>29.25</ele><time>2026-05-01T09:38:12.999Z</time></trkpt><trkpt lat="43.69184147059384" lon="10.88025481016499"><ele>29.5</ele><time>2026-05-01T09:38:13.998Z</time></trkpt><trkpt lat="43.69186745829393" lon="10.880053828187759"><ele>29.75</ele><time>2026-05-01T09:38:14.998Z</time></trkpt><trkpt lat="43.69189184296841" lon="10.879846790510697"><ele>30.0</ele><time>2026-05-01T09:38:15.998Z</time></trkpt><trkpt lat="43.691916366142145" lon="10.879634931947212"><ele>29.333333333333336</ele><time>2026-05-01T09:38:16.998Z</time></trkpt><trkpt lat="43.69194488835501" lon="10.879425462290829"><ele>28.666666666666668</ele><time>2026-05-01T09:38:17.998Z</time></trkpt><trkpt lat="43.691975144964125" lon="10.87921501668823"><ele>28.0</ele><time>2026-05-01T09:38:18.998Z</time></trkpt><trkpt lat="43.692004672761456" lon="10.879005021981671"><ele>28.0</ele><time>2026-05-01T09:38:19.998Z</time></trkpt><trkpt lat="43.69203196738657" lon="10.878805490842938"><ele>28.0</ele><time>2026-05-01T09:38:20.998Z</time></trkpt><trkpt lat="43.69206233192513" lon="10.878624141096923"><ele>28.0</ele><time>2026-05-01T09:38:21.998Z</time></trkpt><trkpt lat="43.69208756646152" lon="10.878451648488623"><ele>28.0</ele><time>2026-05-01T09:38:22.998Z</time></trkpt><trkpt lat="43.69210990392112" lon="10.878274383240495"><ele>28.0</ele><time>2026-05-01T09:38:23.998Z</time></trkpt><trkpt lat="43.69211509356397" lon="10.878086310684887"><ele>28.0</ele><time>2026-05-01T09:38:24.998Z</time></trkpt><trkpt lat="43.69209462678412" lon="10.87790328538411"><ele>28.0</ele><time>2026-05-01T09:38:25.998Z</time></trkpt><trkpt lat="43.69205322474875" lon="10.877717905728574"><ele>28.0</ele><time>2026-05-01T09:38:26.998Z</time></trkpt><trkpt lat="43.691996566689994" lon="10.87753046919884"><ele>28.333333333333336</ele><time>2026-05-01T09:38:27.998Z</time></trkpt><trkpt lat="43.691949004074175" lon="10.877320114078872"><ele>28.666666666666664</ele><time>2026-05-01T09:38:28.998Z</time></trkpt><trkpt lat="43.6918855223954" lon="10.877084335163676"><ele>29.0</ele><time>2026-05-01T09:38:29.998Z</time></trkpt><trkpt lat="43.69181330497073" lon="10.876816110552893"><ele>29.0</ele><time>2026-05-01T09:38:30.998Z</time></trkpt><trkpt lat="43.6917376723653" lon="10.87652256181965"><ele>29.0</ele><time>2026-05-01T09:38:31.998Z</time></trkpt><trkpt lat="43.69165689264087" lon="10.876205281716736"><ele>28.5</ele><time>2026-05-01T09:38:32.998Z</time></trkpt><trkpt lat="43.69157645918389" lon="10.875858847636046"><ele>28.0</ele><time>2026-05-01T09:38:33.998Z</time></trkpt><trkpt lat="43.6915048371962" lon="10.875528264367059"><ele>28.0</ele><time>2026-05-01T09:38:34.998Z</time></trkpt><trkpt lat="43.69145004329677" lon="10.875209860694174"><ele>28.0</ele><time>2026-05-01T09:38:35.998Z</time></trkpt><trkpt lat="43.69141913447808" lon="10.874880417129809"><ele>28.0</ele><time>2026-05-01T09:38:36.998Z</time></trkpt><trkpt lat="43.69141561583585" lon="10.874553531474499"><ele>28.0</ele><time>2026-05-01T09:38:37.998Z</time></trkpt><trkpt lat="43.69143457271996" lon="10.874233977794953"><ele>28.5</ele><time>2026-05-01T09:38:38.998Z</time></trkpt><trkpt lat="43.69146075431546" lon="10.873919023178349"><ele>29.0</ele><time>2026-05-01T09:38:39.998Z</time></trkpt><trkpt lat="43.69148587818792" lon="10.873612379034173"><ele>29.666666666666664</ele><time>2026-05-01T09:38:40.998Z</time></trkpt><trkpt lat="43.69151921132878" lon="10.873313379950245"><ele>30.333333333333336</ele><time>2026-05-01T09:38:41.998Z</time></trkpt><trkpt lat="43.69155379130556" lon="10.873016092920384"><ele>31.0</ele><time>2026-05-01T09:38:42.998Z</time></trkpt><trkpt lat="43.69157224928984" lon="10.872728225700326"><ele>30.666666666666668</ele><time>2026-05-01T09:38:43.998Z</time></trkpt><trkpt lat="43.69158117435165" lon="10.87246358352142"><ele>30.333333333333336</ele><time>2026-05-01T09:38:44.998Z</time></trkpt><trkpt lat="43.69159079732045" lon="10.872223301335929"><ele>30.0</ele><time>2026-05-01T09:38:46Z</time></trkpt><trkpt lat="43.691601115761316" lon="10.872005043354742"><ele>30.0</ele><time>2026-05-01T09:38:47Z</time></trkpt><trkpt lat="43.69161052134003" lon="10.87181229723124"><ele>30.0</ele><time>2026-05-01T09:38:48Z</time></trkpt><trkpt lat="43.69161702413365" lon="10.8716440407039"><ele>30.0</ele><time>2026-05-01T09:38:49Z</time></trkpt><trkpt lat="43.69162222423161" lon="10.871497009706959"><ele>30.0</ele><time>2026-05-01T09:38:50Z</time></trkpt><trkpt lat="43.691629661261665" lon="10.871361152123798"><ele>30.0</ele><time>2026-05-01T09:38:51Z</time></trkpt><trkpt lat="43.69163790188546" lon="10.871233626118284"><ele>30.0</ele><time>2026-05-01T09:38:52Z</time></trkpt><trkpt lat="43.691645583117506" lon="10.871101609598652"><ele>30.0</ele><time>2026-05-01T09:38:53Z</time></trkpt><trkpt lat="43.691653640733804" lon="10.870948923992916"><ele>30.0</ele><time>2026-05-01T09:38:54Z</time></trkpt><trkpt lat="43.69166354230073" lon="10.870779963910515"><ele>30.0</ele><time>2026-05-01T09:38:55Z</time></trkpt><trkpt lat="43.691682051442434" lon="10.870598513010675"><ele>30.0</ele><time>2026-05-01T09:38:56Z</time></trkpt><trkpt lat="43.69169892536074" lon="10.870407624758462"><ele>30.0</ele><time>2026-05-01T09:38:57Z</time></trkpt><trkpt lat="43.69171016081367" lon="10.870216042656422"><ele>30.0</ele><time>2026-05-01T09:38:58Z</time></trkpt><trkpt lat="43.69171771422961" lon="10.87001817970542"><ele>30.0</ele><time>2026-05-01T09:38:59Z</time></trkpt><trkpt lat="43.691725723814926" lon="10.869812402655214"><ele>30.25</ele><time>2026-05-01T09:39:00Z</time></trkpt><trkpt lat="43.691735280924085" lon="10.869607604019466"><ele>30.5</ele><time>2026-05-01T09:39:01Z</time></trkpt><trkpt lat="43.69174891866592" lon="10.869402200491326"><ele>30.75</ele><time>2026-05-01T09:39:02Z</time></trkpt><trkpt lat="43.691761619823716" lon="10.869196663497194"><ele>31.0</ele><time>2026-05-01T09:39:03Z</time></trkpt><trkpt lat="43.69177370652958" lon="10.86898996721627"><ele>31.0</ele><time>2026-05-01T09:39:04Z</time></trkpt><trkpt lat="43.691784109834096" lon="10.868786856383034"><ele>31.0</ele><time>2026-05-01T09:39:05Z</time></trkpt><trkpt lat="43.69179367421629" lon="10.868593909194091"><ele>31.0</ele><time>2026-05-01T09:39:06Z</time></trkpt><trkpt lat="43.69180282288079" lon="10.868417496710212"><ele>31.0</ele><time>2026-05-01T09:39:07Z</time></trkpt><trkpt lat="43.69181200940695" lon="10.868250565427712"><ele>31.0</ele><time>2026-05-01T09:39:08Z</time></trkpt><trkpt lat="43.69181921755295" lon="10.86808205023938"><ele>31.0</ele><time>2026-05-01T09:39:09Z</time></trkpt><trkpt lat="43.6918255154226" lon="10.86790831388648"><ele>31.0</ele><time>2026-05-01T09:39:10Z</time></trkpt><trkpt lat="43.69183284223744" lon="10.867727053948656"><ele>31.0</ele><time>2026-05-01T09:39:11Z</time></trkpt><trkpt lat="43.69184160661419" lon="10.86755483959608"><ele>30.8</ele><time>2026-05-01T09:39:12Z</time></trkpt><trkpt lat="43.69184866438333" lon="10.867407562697952"><ele>30.6</ele><time>2026-05-01T09:39:13Z</time></trkpt><trkpt lat="43.69185520643342" lon="10.867293214186745"><ele>30.4</ele><time>2026-05-01T09:39:14Z</time></trkpt><trkpt lat="43.6918593479918" lon="10.867178153609915"><ele>30.2</ele><time>2026-05-01T09:39:15Z</time></trkpt><trkpt lat="43.69186386310731" lon="10.867046861030802"><ele>30.0</ele><time>2026-05-01T09:39:16Z</time></trkpt><trkpt lat="43.69186831506547" lon="10.866897917884835"><ele>30.0</ele><time>2026-05-01T09:39:17Z</time></trkpt><trkpt lat="43.691876753831295" lon="10.866736873653641"><ele>30.0</ele><time>2026-05-01T09:39:18Z</time></trkpt><trkpt lat="43.691887284996206" lon="10.866569258952941"><ele>30.0</ele><time>2026-05-01T09:39:19Z</time></trkpt><trkpt lat="43.69190011868614" lon="10.866398146011703"><ele>30.0</ele><time>2026-05-01T09:39:20Z</time></trkpt><trkpt lat="43.69190940812409" lon="10.8662218952662"><ele>30.0</ele><time>2026-05-01T09:39:21Z</time></trkpt><trkpt lat="43.69191693518975" lon="10.866038855834137"><ele>30.0</ele><time>2026-05-01T09:39:22Z</time></trkpt><trkpt lat="43.69192582014433" lon="10.865848092104084"><ele>30.0</ele><time>2026-05-01T09:39:23Z</time></trkpt><trkpt lat="43.69193885862004" lon="10.865657847387189"><ele>30.0</ele><time>2026-05-01T09:39:24Z</time></trkpt><trkpt lat="43.69195425491755" lon="10.865479219440932"><ele>29.5</ele><time>2026-05-01T09:39:25Z</time></trkpt><trkpt lat="43.69196677947334" lon="10.865311958618062"><ele>29.0</ele><time>2026-05-01T09:39:26Z</time></trkpt><trkpt lat="43.69197446271376" lon="10.865156287475223"><ele>28.5</ele><time>2026-05-01T09:39:27Z</time></trkpt><trkpt lat="43.69198219519271" lon="10.865004501143611"><ele>28.0</ele><time>2026-05-01T09:39:28Z</time></trkpt><trkpt lat="43.69199498267681" lon="10.864850361474089"><ele>28.0</ele><time>2026-05-01T09:39:29Z</time></trkpt><trkpt lat="43.69200602090384" lon="10.864704564159357"><ele>27.999999999999996</ele><time>2026-05-01T09:39:30Z</time></trkpt><trkpt lat="43.69201332275609" lon="10.864566753673117"><ele>27.999999999999996</ele><time>2026-05-01T09:39:31Z</time></trkpt><trkpt lat="43.69201819620332" lon="10.864438175832634"><ele>28.0</ele><time>2026-05-01T09:39:32Z</time></trkpt><trkpt lat="43.6920254347446" lon="10.864321852752903"><ele>28.0</ele><time>2026-05-01T09:39:32.999Z</time></trkpt><trkpt lat="43.69203164113357" lon="10.864222577321131"><ele>28.333333333333336</ele><time>2026-05-01T09:39:33.999Z</time></trkpt><trkpt lat="43.69203736612856" lon="10.86413466154354"><ele>28.666666666666668</ele><time>2026-05-01T09:39:34.999Z</time></trkpt><trkpt lat="43.69204422403568" lon="10.863999028744802"><ele>29.0</ele><time>2026-05-01T09:39:36.999Z</time></trkpt><trkpt lat="43.69205645410596" lon="10.863898153605344"><ele>29.333333333333336</ele><time>2026-05-01T09:39:39.999Z</time></trkpt><trkpt lat="43.692061534126594" lon="10.863785778834545"><ele>29.666666666666668</ele><time>2026-05-01T09:39:49.999Z</time></trkpt><trkpt lat="43.69205957397226" lon="10.86367513240127"><ele>30.0</ele><time>2026-05-01T09:39:51.999Z</time></trkpt><trkpt lat="43.692073495698274" lon="10.863569031931029"><ele>30.0</ele><time>2026-05-01T09:39:54.999Z</time></trkpt><trkpt lat="43.692103064682556" lon="10.863432463735599"><ele>30.0</ele><time>2026-05-01T09:40:08.999Z</time></trkpt><trkpt lat="43.692123018614915" lon="10.863288056027093"><ele>30.0</ele><time>2026-05-01T09:40:10.999Z</time></trkpt><trkpt lat="43.692141608737366" lon="10.863105604004444"><ele>30.0</ele><time>2026-05-01T09:40:12.999Z</time></trkpt><trkpt lat="43.69215321458919" lon="10.862996515901797"><ele>30.0</ele><time>2026-05-01T09:40:13.999Z</time></trkpt><trkpt lat="43.69216622044367" lon="10.862876455590289"><ele>30.0</ele><time>2026-05-01T09:40:14.999Z</time></trkpt><trkpt lat="43.69218012721034" lon="10.862748344072525"><ele>30.0</ele><time>2026-05-01T09:40:15.999Z</time></trkpt><trkpt lat="43.69219232279062" lon="10.862624333246027"><ele>30.0</ele><time>2026-05-01T09:40:16.999Z</time></trkpt><trkpt lat="43.69220178549624" lon="10.862492856886478"><ele>30.0</ele><time>2026-05-01T09:40:17.999Z</time></trkpt><trkpt lat="43.692209687454735" lon="10.862357631144068"><ele>30.0</ele><time>2026-05-01T09:40:18.999Z</time></trkpt><trkpt lat="43.69221823500413" lon="10.862214276502495"><ele>30.0</ele><time>2026-05-01T09:40:19.999Z</time></trkpt><trkpt lat="43.69222664519878" lon="10.86206867742977"><ele>30.0</ele><time>2026-05-01T09:40:20.999Z</time></trkpt><trkpt lat="43.692234621959166" lon="10.861921440506098"><ele>30.0</ele><time>2026-05-01T09:40:21.999Z</time></trkpt><trkpt lat="43.692244865667355" lon="10.861770555199241"><ele>30.0</ele><time>2026-05-01T09:40:22.998Z</time></trkpt><trkpt lat="43.69225444710317" lon="10.861611469525627"><ele>30.0</ele><time>2026-05-01T09:40:23.998Z</time></trkpt><trkpt lat="43.692263652083994" lon="10.86144397763539"><ele>29.75</ele><time>2026-05-01T09:40:24.998Z</time></trkpt><trkpt lat="43.692273295741096" lon="10.861267460473687"><ele>29.5</ele><time>2026-05-01T09:40:25.998Z</time></trkpt><trkpt lat="43.69228110930434" lon="10.861079696670583"><ele>29.25</ele><time>2026-05-01T09:40:26.998Z</time></trkpt><trkpt lat="43.69228260928509" lon="10.860860093471127"><ele>29.0</ele><time>2026-05-01T09:40:27.998Z</time></trkpt><trkpt lat="43.69230787006089" lon="10.860626437993355"><ele>28.666666666666664</ele><time>2026-05-01T09:40:28.998Z</time></trkpt><trkpt lat="43.69231248379553" lon="10.860349596304328"><ele>28.333333333333336</ele><time>2026-05-01T09:40:29.998Z</time></trkpt><trkpt lat="43.692346705481725" lon="10.86008739141447"><ele>28.0</ele><time>2026-05-01T09:40:30.998Z</time></trkpt><trkpt lat="43.69237089746017" lon="10.85981925302974"><ele>28.0</ele><time>2026-05-01T09:40:31.998Z</time></trkpt><trkpt lat="43.69238687097182" lon="10.859550359816199"><ele>28.0</ele><time>2026-05-01T09:40:32.998Z</time></trkpt><trkpt lat="43.69240192742477" lon="10.859285104961351"><ele>28.0</ele><time>2026-05-01T09:40:33.998Z</time></trkpt><trkpt lat="43.692417983232986" lon="10.859020330639325"><ele>28.0</ele><time>2026-05-01T09:40:34.998Z</time></trkpt><trkpt lat="43.69243423550612" lon="10.858756695378569"><ele>28.0</ele><time>2026-05-01T09:40:35.998Z</time></trkpt><trkpt lat="43.69245028822523" lon="10.858498654002654"><ele>28.0</ele><time>2026-05-01T09:40:36.998Z</time></trkpt><trkpt lat="43.69246564026088" lon="10.85824393958733"><ele>28.0</ele><time>2026-05-01T09:40:37.998Z</time></trkpt><trkpt lat="43.692480404533306" lon="10.85798662621091"><ele>28.0</ele><time>2026-05-01T09:40:38.998Z</time></trkpt><trkpt lat="43.692493242014294" lon="10.857730998045504"><ele>28.0</ele><time>2026-05-01T09:40:39.998Z</time></trkpt><trkpt lat="43.69250818969035" lon="10.857478491499228"><ele>27.666666666666668</ele><time>2026-05-01T09:40:40.998Z</time></trkpt><trkpt lat="43.692525171875424" lon="10.857229033034232"><ele>27.333333333333336</ele><time>2026-05-01T09:40:41.998Z</time></trkpt><trkpt lat="43.692539738731696" lon="10.856977718480694"><ele>27.0</ele><time>2026-05-01T09:40:42.998Z</time></trkpt><trkpt lat="43.69255315164687" lon="10.856727492645481"><ele>26.666666666666664</ele><time>2026-05-01T09:40:43.998Z</time></trkpt><trkpt lat="43.692569405063495" lon="10.856474104139162"><ele>26.333333333333332</ele><time>2026-05-01T09:40:44.998Z</time></trkpt><trkpt lat="43.69258895164379" lon="10.856221204266921"><ele>26.0</ele><time>2026-05-01T09:40:45.998Z</time></trkpt><trkpt lat="43.69260500609508" lon="10.85596707426873"><ele>26.0</ele><time>2026-05-01T09:40:46.998Z</time></trkpt><trkpt lat="43.692617991938675" lon="10.855714966241623"><ele>26.0</ele><time>2026-05-01T09:40:47.998Z</time></trkpt><trkpt lat="43.69263254786279" lon="10.855463683308253"><ele>26.0</ele><time>2026-05-01T09:40:48.998Z</time></trkpt><trkpt lat="43.69264403798138" lon="10.855210713154396"><ele>25.666666666666664</ele><time>2026-05-01T09:40:49.998Z</time></trkpt><trkpt lat="43.69265594976773" lon="10.854960331713881"><ele>25.333333333333336</ele><time>2026-05-01T09:40:50.998Z</time></trkpt><trkpt lat="43.69267172595482" lon="10.854714016467788"><ele>25.0</ele><time>2026-05-01T09:40:52Z</time></trkpt><trkpt lat="43.692688171381334" lon="10.85446982860347"><ele>25.0</ele><time>2026-05-01T09:40:53Z</time></trkpt><trkpt lat="43.69270243072449" lon="10.854227910510273"><ele>25.0</ele><time>2026-05-01T09:40:54Z</time></trkpt><trkpt lat="43.69271561659088" lon="10.853989129725893"><ele>25.0</ele><time>2026-05-01T09:40:55Z</time></trkpt><trkpt lat="43.69273077651383" lon="10.853756764703311"><ele>25.0</ele><time>2026-05-01T09:40:56Z</time></trkpt><trkpt lat="43.69274507894416" lon="10.853527209502579"><ele>25.0</ele><time>2026-05-01T09:40:57Z</time></trkpt><trkpt lat="43.69275832759071" lon="10.853304632815703"><ele>25.0</ele><time>2026-05-01T09:40:58Z</time></trkpt><trkpt lat="43.69277217197666" lon="10.853082932313699"><ele>25.333333333333336</ele><time>2026-05-01T09:40:59Z</time></trkpt><trkpt lat="43.69278548955005" lon="10.852864887486072"><ele>25.666666666666664</ele><time>2026-05-01T09:41:00Z</time></trkpt><trkpt lat="43.6927987252095" lon="10.85265183566957"><ele>26.0</ele><time>2026-05-01T09:41:01Z</time></trkpt><trkpt lat="43.69281101881494" lon="10.852446494799155"><ele>26.0</ele><time>2026-05-01T09:41:02Z</time></trkpt><trkpt lat="43.69282377944279" lon="10.852255980977265"><ele>26.0</ele><time>2026-05-01T09:41:03Z</time></trkpt><trkpt lat="43.69283735321554" lon="10.852076112179798"><ele>26.0</ele><time>2026-05-01T09:41:04Z</time></trkpt><trkpt lat="43.69285076251692" lon="10.851905578713003"><ele>26.0</ele><time>2026-05-01T09:41:05Z</time></trkpt><trkpt lat="43.69285906716711" lon="10.85174152148763"><ele>26.0</ele><time>2026-05-01T09:41:06Z</time></trkpt><trkpt lat="43.69286745751439" lon="10.85158142400846"><ele>26.0</ele><time>2026-05-01T09:41:07Z</time></trkpt><trkpt lat="43.69287701262784" lon="10.851413026087421"><ele>26.0</ele><time>2026-05-01T09:41:08Z</time></trkpt><trkpt lat="43.692888600174186" lon="10.851245569486947"><ele>26.0</ele><time>2026-05-01T09:41:09Z</time></trkpt><trkpt lat="43.69289986210765" lon="10.8510799498627"><ele>26.0</ele><time>2026-05-01T09:41:10Z</time></trkpt><trkpt lat="43.692909695748995" lon="10.850921496666684"><ele>26.0</ele><time>2026-05-01T09:41:11Z</time></trkpt><trkpt lat="43.692917746866705" lon="10.850763505907063"><ele>26.0</ele><time>2026-05-01T09:41:12Z</time></trkpt><trkpt lat="43.692927649590175" lon="10.850598152401645"><ele>26.0</ele><time>2026-05-01T09:41:13Z</time></trkpt><trkpt lat="43.69293823422332" lon="10.850435120572365"><ele>26.0</ele><time>2026-05-01T09:41:14Z</time></trkpt><trkpt lat="43.692948253955315" lon="10.85027190786667"><ele>26.0</ele><time>2026-05-01T09:41:15Z</time></trkpt><trkpt lat="43.69295736994416" lon="10.850106358199067"><ele>26.0</ele><time>2026-05-01T09:41:16Z</time></trkpt><trkpt lat="43.69296517078263" lon="10.849947881494709"><ele>26.0</ele><time>2026-05-01T09:41:17Z</time></trkpt><trkpt lat="43.69297427576175" lon="10.849799864381907"><ele>25.8</ele><time>2026-05-01T09:41:18Z</time></trkpt><trkpt lat="43.692985081048995" lon="10.849662438147812"><ele>25.6</ele><time>2026-05-01T09:41:19Z</time></trkpt><trkpt lat="43.69299369324166" lon="10.849524171053686"><ele>25.4</ele><time>2026-05-01T09:41:20Z</time></trkpt><trkpt lat="43.6929997171647" lon="10.84938389185792"><ele>25.2</ele><time>2026-05-01T09:41:21Z</time></trkpt><trkpt lat="43.69300592532191" lon="10.849238817308887"><ele>25.0</ele><time>2026-05-01T09:41:22Z</time></trkpt><trkpt lat="43.69301308222373" lon="10.84909650953421"><ele>25.0</ele><time>2026-05-01T09:41:23Z</time></trkpt><trkpt lat="43.69302094527388" lon="10.848956614498169"><ele>25.0</ele><time>2026-05-01T09:41:24Z</time></trkpt><trkpt lat="43.693031417302265" lon="10.848809744828774"><ele>25.0</ele><time>2026-05-01T09:41:25Z</time></trkpt><trkpt lat="43.693043900274766" lon="10.84865573033395"><ele>25.0</ele><time>2026-05-01T09:41:26Z</time></trkpt><trkpt lat="43.69305426610917" lon="10.848507381168568"><ele>25.0</ele><time>2026-05-01T09:41:27Z</time></trkpt><trkpt lat="43.693062758923496" lon="10.84836168528628"><ele>25.2</ele><time>2026-05-01T09:41:28Z</time></trkpt><trkpt lat="43.69307269151505" lon="10.84821612213632"><ele>25.4</ele><time>2026-05-01T09:41:29Z</time></trkpt><trkpt lat="43.693082554067814" lon="10.848072239548195"><ele>25.6</ele><time>2026-05-01T09:41:30Z</time></trkpt><trkpt lat="43.69308943957735" lon="10.84792899026857"><ele>25.8</ele><time>2026-05-01T09:41:31Z</time></trkpt><trkpt lat="43.69309631552177" lon="10.847789203036859"><ele>26.0</ele><time>2026-05-01T09:41:32Z</time></trkpt><trkpt lat="43.69310290584881" lon="10.847647524008687"><ele>26.0</ele><time>2026-05-01T09:41:33Z</time></trkpt><trkpt lat="43.69310998039533" lon="10.847509330074322"><ele>26.0</ele><time>2026-05-01T09:41:34Z</time></trkpt><trkpt lat="43.69312062396985" lon="10.847372389694364"><ele>26.0</ele><time>2026-05-01T09:41:35Z</time></trkpt><trkpt lat="43.693131006124865" lon="10.847241441245444"><ele>26.0</ele><time>2026-05-01T09:41:36Z</time></trkpt><trkpt lat="43.693138181623326" lon="10.847119133346617"><ele>26.0</ele><time>2026-05-01T09:41:37Z</time></trkpt><trkpt lat="43.693143445494854" lon="10.847001986865404"><ele>26.0</ele><time>2026-05-01T09:41:38Z</time></trkpt><trkpt lat="43.69315020956169" lon="10.846884827329037"><ele>26.0</ele><time>2026-05-01T09:41:39Z</time></trkpt><trkpt lat="43.69315859089336" lon="10.846761604617946"><ele>26.0</ele><time>2026-05-01T09:41:40Z</time></trkpt><trkpt lat="43.69316727631502" lon="10.846635421527841"><ele>26.0</ele><time>2026-05-01T09:41:41Z</time></trkpt><trkpt lat="43.69317578744217" lon="10.846504694749507"><ele>26.0</ele><time>2026-05-01T09:41:42Z</time></trkpt><trkpt lat="43.69318635828525" lon="10.846378166481331"><ele>25.999999999999996</ele><time>2026-05-01T09:41:43Z</time></trkpt><trkpt lat="43.69319217321403" lon="10.846243553820857"><ele>26.0</ele><time>2026-05-01T09:41:44Z</time></trkpt><trkpt lat="43.693195555315725" lon="10.846105991777494"><ele>26.0</ele><time>2026-05-01T09:41:45Z</time></trkpt><trkpt lat="43.69320277564232" lon="10.845986078849593"><ele>26.0</ele><time>2026-05-01T09:41:46Z</time></trkpt><trkpt lat="43.693209519517644" lon="10.84587604205"><ele>25.999999999999996</ele><time>2026-05-01T09:41:47Z</time></trkpt><trkpt lat="43.69321622324687" lon="10.845775663825764"><ele>26.0</ele><time>2026-05-01T09:41:48Z</time></trkpt><trkpt lat="43.693223424593214" lon="10.845682509059387"><ele>26.0</ele><time>2026-05-01T09:41:48.999Z</time></trkpt><trkpt lat="43.69322927693623" lon="10.845576373266656"><ele>26.0</ele><time>2026-05-01T09:41:49.999Z</time></trkpt><trkpt lat="43.69323480748033" lon="10.845454715182647"><ele>26.0</ele><time>2026-05-01T09:41:50.999Z</time></trkpt><trkpt lat="43.693242135504036" lon="10.845326563890866"><ele>26.0</ele><time>2026-05-01T09:41:51.999Z</time></trkpt><trkpt lat="43.693250104099675" lon="10.845190006304065"><ele>26.0</ele><time>2026-05-01T09:41:52.999Z</time></trkpt><trkpt lat="43.693257609096996" lon="10.84505251476012"><ele>26.4</ele><time>2026-05-01T09:41:53.999Z</time></trkpt><trkpt lat="43.69326523513907" lon="10.84491180792887"><ele>26.8</ele><time>2026-05-01T09:41:54.999Z</time></trkpt><trkpt lat="43.693273712350305" lon="10.844768165578394"><ele>27.199999999999996</ele><time>2026-05-01T09:41:55.999Z</time></trkpt><trkpt lat="43.69328021367899" lon="10.844632452694176"><ele>27.599999999999998</ele><time>2026-05-01T09:41:56.999Z</time></trkpt><trkpt lat="43.69328594974383" lon="10.844515692558936"><ele>28.0</ele><time>2026-05-01T09:41:57.999Z</time></trkpt><trkpt lat="43.69329074736149" lon="10.844412354877843"><ele>28.000000000000004</ele><time>2026-05-01T09:41:58.999Z</time></trkpt><trkpt lat="43.693296635064016" lon="10.844317143895926"><ele>28.0</ele><time>2026-05-01T09:41:59.999Z</time></trkpt><trkpt lat="43.693303104083114" lon="10.84421308305155"><ele>28.0</ele><time>2026-05-01T09:42:00.999Z</time></trkpt><trkpt lat="43.69331024888077" lon="10.844101146710779"><ele>28.0</ele><time>2026-05-01T09:42:01.999Z</time></trkpt><trkpt lat="43.693316828289376" lon="10.84397338252185"><ele>28.000000000000004</ele><time>2026-05-01T09:42:02.999Z</time></trkpt><trkpt lat="43.69332451894178" lon="10.843845918722748"><ele>28.0</ele><time>2026-05-01T09:42:03.999Z</time></trkpt><trkpt lat="43.69333031789" lon="10.843729894435157"><ele>27.833333333333336</ele><time>2026-05-01T09:42:04.999Z</time></trkpt><trkpt lat="43.693337009311485" lon="10.843608617928686"><ele>27.666666666666668</ele><time>2026-05-01T09:42:05.999Z</time></trkpt><trkpt lat="43.69334356250509" lon="10.843492001817063"><ele>27.5</ele><time>2026-05-01T09:42:06.999Z</time></trkpt><trkpt lat="43.69334686151002" lon="10.84337749016311"><ele>27.333333333333336</ele><time>2026-05-01T09:42:07.999Z</time></trkpt><trkpt lat="43.693351113563864" lon="10.843268081573083"><ele>27.166666666666668</ele><time>2026-05-01T09:42:08.999Z</time></trkpt><trkpt lat="43.69335584226614" lon="10.84317686376445"><ele>27.0</ele><time>2026-05-01T09:42:09.999Z</time></trkpt><trkpt lat="43.6933649294049" lon="10.843002137434752"><ele>27.0</ele><time>2026-05-01T09:42:11.999Z</time></trkpt><trkpt lat="43.69337162187416" lon="10.842902957290185"><ele>27.0</ele><time>2026-05-01T09:42:12.999Z</time></trkpt><trkpt lat="43.6933790244741" lon="10.842788123626253"><ele>27.0</ele><time>2026-05-01T09:42:13.999Z</time></trkpt><trkpt lat="43.69338305726952" lon="10.842684176162486"><ele>27.0</ele><time>2026-05-01T09:42:14.999Z</time></trkpt><trkpt lat="43.69338731619071" lon="10.842590024783915"><ele>27.0</ele><time>2026-05-01T09:42:15.999Z</time></trkpt><trkpt lat="43.693393871092375" lon="10.842427142151891"><ele>27.0</ele><time>2026-05-01T09:42:17.999Z</time></trkpt><trkpt lat="43.693390762905196" lon="10.84226271836977"><ele>27.166666666666668</ele><time>2026-05-01T09:42:19.999Z</time></trkpt><trkpt lat="43.69338452080288" lon="10.84215726834598"><ele>27.333333333333336</ele><time>2026-05-01T09:42:20.999Z</time></trkpt><trkpt lat="43.6933894983184" lon="10.842035092044226"><ele>27.5</ele><time>2026-05-01T09:42:21.999Z</time></trkpt><trkpt lat="43.6933991696824" lon="10.841925453637517"><ele>27.666666666666668</ele><time>2026-05-01T09:42:22.999Z</time></trkpt><trkpt lat="43.693404312072346" lon="10.841779758133242"><ele>27.833333333333336</ele><time>2026-05-01T09:42:24.999Z</time></trkpt><trkpt lat="43.693420974969854" lon="10.841687627984884"><ele>28.0</ele><time>2026-05-01T09:42:27.999Z</time></trkpt><trkpt lat="43.69342427213984" lon="10.841507987830678"><ele>28.0</ele><time>2026-05-01T09:42:31.999Z</time></trkpt><trkpt lat="43.693422322714405" lon="10.841399439009361"><ele>27.999999999999996</ele><time>2026-05-01T09:42:32.999Z</time></trkpt><trkpt lat="43.69342460568274" lon="10.841303152865033"><ele>27.999999999999996</ele><time>2026-05-01T09:42:33.999Z</time></trkpt><trkpt lat="43.693423357212204" lon="10.841175171353381"><ele>28.0</ele><time>2026-05-01T09:42:34.999Z</time></trkpt><trkpt lat="43.69340075146924" lon="10.841020975588185"><ele>28.0</ele><time>2026-05-01T09:42:35.999Z</time></trkpt><trkpt lat="43.69335195658048" lon="10.840846101808308"><ele>28.0</ele><time>2026-05-01T09:42:36.999Z</time></trkpt><trkpt lat="43.69329615659654" lon="10.840676166042275"><ele>28.0</ele><time>2026-05-01T09:42:37.999Z</time></trkpt><trkpt lat="43.69323626046051" lon="10.840496022689948"><ele>28.0</ele><time>2026-05-01T09:42:38.999Z</time></trkpt><trkpt lat="43.69317537252986" lon="10.840305686206644"><ele>28.0</ele><time>2026-05-01T09:42:39.998Z</time></trkpt><trkpt lat="43.69311525556086" lon="10.840107776027098"><ele>27.666666666666668</ele><time>2026-05-01T09:42:40.998Z</time></trkpt><trkpt lat="43.69305708977687" lon="10.839906624742014"><ele>27.333333333333336</ele><time>2026-05-01T09:42:41.998Z</time></trkpt><trkpt lat="43.69299691459502" lon="10.83970040805576"><ele>27.0</ele><time>2026-05-01T09:42:42.998Z</time></trkpt><trkpt lat="43.69292993976307" lon="10.839488347386308"><ele>27.0</ele><time>2026-05-01T09:42:43.998Z</time></trkpt><trkpt lat="43.692859790024436" lon="10.839262474794532"><ele>27.0</ele><time>2026-05-01T09:42:44.998Z</time></trkpt><trkpt lat="43.692791947317055" lon="10.839036999296784"><ele>27.0</ele><time>2026-05-01T09:42:45.998Z</time></trkpt><trkpt lat="43.69272876233922" lon="10.838830498992959"><ele>27.0</ele><time>2026-05-01T09:42:46.998Z</time></trkpt><trkpt lat="43.69267207771558" lon="10.838637403948029"><ele>27.0</ele><time>2026-05-01T09:42:47.998Z</time></trkpt><trkpt lat="43.69261529575413" lon="10.83845515039423"><ele>27.0</ele><time>2026-05-01T09:42:48.998Z</time></trkpt><trkpt lat="43.69255661005499" lon="10.838279419128472"><ele>27.0</ele><time>2026-05-01T09:42:49.998Z</time></trkpt><trkpt lat="43.69250338329519" lon="10.838104731448693"><ele>27.0</ele><time>2026-05-01T09:42:50.998Z</time></trkpt><trkpt lat="43.69245696504002" lon="10.837944279339844"><ele>27.000000000000004</ele><time>2026-05-01T09:42:51.998Z</time></trkpt><trkpt lat="43.692418424138744" lon="10.83781586014126"><ele>27.000000000000004</ele><time>2026-05-01T09:42:52.998Z</time></trkpt><trkpt lat="43.69239467939236" lon="10.837731166482039"><ele>27.0</ele><time>2026-05-01T09:42:53.998Z</time></trkpt><trkpt lat="43.69236473840203" lon="10.837621771472744"><ele>27.0</ele><time>2026-05-01T09:42:55.998Z</time></trkpt><trkpt lat="43.69218732376663" lon="10.837684678985239"><ele>27.0</ele><time>2026-05-01T09:42:58.001Z</time></trkpt><trkpt lat="43.69208414880073" lon="10.83771792988825"><ele>27.000000000000004</ele><time>2026-05-01T09:42:59.001Z</time></trkpt><trkpt lat="43.691977672743405" lon="10.837761726187034"><ele>27.000000000000004</ele><time>2026-05-01T09:43:00Z</time></trkpt><trkpt lat="43.69187006041451" lon="10.837806014375097"><ele>27.0</ele><time>2026-05-01T09:43:01.001Z</time></trkpt><trkpt lat="43.69175968008605" lon="10.83785144166805"><ele>27.0</ele><time>2026-05-01T09:43:02.001Z</time></trkpt><trkpt lat="43.69165468591574" lon="10.83789406535022"><ele>26.833333333333332</ele><time>2026-05-01T09:43:03Z</time></trkpt><trkpt lat="43.69156222682537" lon="10.837931892620245"><ele>26.666666666666664</ele><time>2026-05-01T09:43:04Z</time></trkpt><trkpt lat="43.69147718101627" lon="10.837966687076616"><ele>26.5</ele><time>2026-05-01T09:43:05.001Z</time></trkpt><trkpt lat="43.69140418531169" lon="10.838016422150856"><ele>26.333333333333332</ele><time>2026-05-01T09:43:06Z</time></trkpt><trkpt lat="43.691333719022616" lon="10.838041442850946"><ele>26.166666666666664</ele><time>2026-05-01T09:43:07Z</time></trkpt><trkpt lat="43.69126922634765" lon="10.83805176641352"><ele>26.0</ele><time>2026-05-01T09:43:08.001Z</time></trkpt><trkpt lat="43.691184100810155" lon="10.83808659084531"><ele>26.0</ele><time>2026-05-01T09:43:10.001Z</time></trkpt><trkpt lat="43.69111986125738" lon="10.838112219172253"><ele>26.0</ele><time>2026-05-01T09:43:32.999Z</time></trkpt><trkpt lat="43.69101592571331" lon="10.837840660064742"><ele>26.0</ele><time>2026-05-01T09:43:45.999Z</time></trkpt><trkpt lat="43.69099824039071" lon="10.837753231758578"><ele>26.0</ele><time>2026-05-01T09:43:47.999Z</time></trkpt><trkpt lat="43.690917498196185" lon="10.83774638798803"><ele>26.0</ele><time>2026-05-01T09:43:50.999Z</time></trkpt><trkpt lat="43.69085140674644" lon="10.837778673332505"><ele>26.0</ele><time>2026-05-01T09:43:55.999Z</time></trkpt><trkpt lat="43.69091553429633" lon="10.837844433008671"><ele>26.0</ele><time>2026-05-01T09:45:25.999Z</time></trkpt></trkseg></trk></gpx>